<?xml version="1.0" encoding="UTF-8" standalone="no" ?>
<gpx xmlns="http://www.topografix.com/GPX/1/1" xmlns:xsi="http://www.w3.org/2001/XMLSchema-instance" xsi:schemaLocation="http://www.topografix.com/GPX/1/1 http://www.topografix.com/GPX/1/1/gpx.xsd" version="1.1" creator="VisuGPX - https://www.visugpx.com">
  <metadata>
    <name>Rando st herblain 12.10.14</name>
    <desc><![CDATA[circuit 35km de la rando de st Herblain;
CR sur http://vtt44.com/viewtopic.php?f=15&t=1829]]></desc>
  </metadata>
  <trk>
    <name><![CDATA[Rando st herblain]]></name>
    <trkseg>
      <trkpt lat="47.25093" lon="-1.643">
        <ele>50.1</ele>
        <time>2014-10-12T07:18:47Z</time>
      </trkpt>
      <trkpt lat="47.25095" lon="-1.64304">
        <ele>50.1</ele>
        <time>2014-10-12T07:20:06Z</time>
      </trkpt>
      <trkpt lat="47.25098" lon="-1.64309">
        <ele>50.1</ele>
        <time>2014-10-12T07:20:08Z</time>
      </trkpt>
      <trkpt lat="47.251" lon="-1.64313">
        <ele>50</ele>
        <time>2014-10-12T07:20:09Z</time>
      </trkpt>
      <trkpt lat="47.25104" lon="-1.64317">
        <ele>50</ele>
        <time>2014-10-12T07:20:10Z</time>
      </trkpt>
      <trkpt lat="47.25107" lon="-1.64322">
        <ele>50</ele>
        <time>2014-10-12T07:20:11Z</time>
      </trkpt>
      <trkpt lat="47.25109" lon="-1.64326">
        <ele>50</ele>
        <time>2014-10-12T07:20:12Z</time>
      </trkpt>
      <trkpt lat="47.25112" lon="-1.6433">
        <ele>49.9</ele>
        <time>2014-10-12T07:20:13Z</time>
      </trkpt>
      <trkpt lat="47.25115" lon="-1.64334">
        <ele>49.9</ele>
        <time>2014-10-12T07:20:14Z</time>
      </trkpt>
      <trkpt lat="47.25118" lon="-1.64337">
        <ele>49.8</ele>
        <time>2014-10-12T07:20:15Z</time>
      </trkpt>
      <trkpt lat="47.2512" lon="-1.64339">
        <ele>49.8</ele>
        <time>2014-10-12T07:20:19Z</time>
      </trkpt>
      <trkpt lat="47.25126" lon="-1.64348">
        <ele>49.7</ele>
        <time>2014-10-12T07:20:34Z</time>
      </trkpt>
      <trkpt lat="47.25129" lon="-1.64353">
        <ele>49.7</ele>
        <time>2014-10-12T07:20:36Z</time>
      </trkpt>
      <trkpt lat="47.25131" lon="-1.64358">
        <ele>49.6</ele>
        <time>2014-10-12T07:20:38Z</time>
      </trkpt>
      <trkpt lat="47.25133" lon="-1.64363">
        <ele>49.6</ele>
        <time>2014-10-12T07:20:40Z</time>
      </trkpt>
      <trkpt lat="47.25135" lon="-1.64366">
        <ele>49.6</ele>
        <time>2014-10-12T07:20:41Z</time>
      </trkpt>
      <trkpt lat="47.25137" lon="-1.64369">
        <ele>49.6</ele>
        <time>2014-10-12T07:20:42Z</time>
      </trkpt>
      <trkpt lat="47.2514" lon="-1.64372">
        <ele>49.6</ele>
        <time>2014-10-12T07:20:43Z</time>
      </trkpt>
      <trkpt lat="47.25143" lon="-1.64377">
        <ele>49.6</ele>
        <time>2014-10-12T07:20:45Z</time>
      </trkpt>
      <trkpt lat="47.25145" lon="-1.64384">
        <ele>49.5</ele>
        <time>2014-10-12T07:20:47Z</time>
      </trkpt>
      <trkpt lat="47.25145" lon="-1.64389">
        <ele>49.4</ele>
        <time>2014-10-12T07:20:48Z</time>
      </trkpt>
      <trkpt lat="47.25143" lon="-1.64393">
        <ele>49.2</ele>
        <time>2014-10-12T07:20:49Z</time>
      </trkpt>
      <trkpt lat="47.2514" lon="-1.64398">
        <ele>49</ele>
        <time>2014-10-12T07:20:50Z</time>
      </trkpt>
      <trkpt lat="47.25136" lon="-1.64403">
        <ele>48.7</ele>
        <time>2014-10-12T07:20:51Z</time>
      </trkpt>
      <trkpt lat="47.25132" lon="-1.64408">
        <ele>48.5</ele>
        <time>2014-10-12T07:20:52Z</time>
      </trkpt>
      <trkpt lat="47.25128" lon="-1.64413">
        <ele>48.2</ele>
        <time>2014-10-12T07:20:53Z</time>
      </trkpt>
      <trkpt lat="47.25125" lon="-1.64419">
        <ele>47.9</ele>
        <time>2014-10-12T07:20:54Z</time>
      </trkpt>
      <trkpt lat="47.25121" lon="-1.64425">
        <ele>47.8</ele>
        <time>2014-10-12T07:20:55Z</time>
      </trkpt>
      <trkpt lat="47.25116" lon="-1.6443">
        <ele>47.6</ele>
        <time>2014-10-12T07:20:56Z</time>
      </trkpt>
      <trkpt lat="47.25112" lon="-1.64436">
        <ele>47.3</ele>
        <time>2014-10-12T07:20:57Z</time>
      </trkpt>
      <trkpt lat="47.25107" lon="-1.64442">
        <ele>47.1</ele>
        <time>2014-10-12T07:20:58Z</time>
      </trkpt>
      <trkpt lat="47.25103" lon="-1.64449">
        <ele>46.8</ele>
        <time>2014-10-12T07:20:59Z</time>
      </trkpt>
      <trkpt lat="47.25099" lon="-1.64454">
        <ele>46.5</ele>
        <time>2014-10-12T07:21:00Z</time>
      </trkpt>
      <trkpt lat="47.25095" lon="-1.6446">
        <ele>46.2</ele>
        <time>2014-10-12T07:21:01Z</time>
      </trkpt>
      <trkpt lat="47.25093" lon="-1.64466">
        <ele>46</ele>
        <time>2014-10-12T07:21:02Z</time>
      </trkpt>
      <trkpt lat="47.25092" lon="-1.64473">
        <ele>45.7</ele>
        <time>2014-10-12T07:21:03Z</time>
      </trkpt>
      <trkpt lat="47.25094" lon="-1.6448">
        <ele>45.5</ele>
        <time>2014-10-12T07:21:04Z</time>
      </trkpt>
      <trkpt lat="47.25096" lon="-1.64484">
        <ele>45.5</ele>
        <time>2014-10-12T07:21:05Z</time>
      </trkpt>
      <trkpt lat="47.25099" lon="-1.64489">
        <ele>45.4</ele>
        <time>2014-10-12T07:21:06Z</time>
      </trkpt>
      <trkpt lat="47.25102" lon="-1.64494">
        <ele>45.4</ele>
        <time>2014-10-12T07:21:07Z</time>
      </trkpt>
      <trkpt lat="47.25104" lon="-1.645">
        <ele>45.4</ele>
        <time>2014-10-12T07:21:08Z</time>
      </trkpt>
      <trkpt lat="47.25106" lon="-1.64507">
        <ele>45.3</ele>
        <time>2014-10-12T07:21:09Z</time>
      </trkpt>
      <trkpt lat="47.25107" lon="-1.64515">
        <ele>45.2</ele>
        <time>2014-10-12T07:21:10Z</time>
      </trkpt>
      <trkpt lat="47.25105" lon="-1.64524">
        <ele>44.8</ele>
        <time>2014-10-12T07:21:11Z</time>
      </trkpt>
      <trkpt lat="47.25102" lon="-1.64535">
        <ele>44.2</ele>
        <time>2014-10-12T07:21:12Z</time>
      </trkpt>
      <trkpt lat="47.251" lon="-1.64547">
        <ele>43.8</ele>
        <time>2014-10-12T07:21:13Z</time>
      </trkpt>
      <trkpt lat="47.251" lon="-1.64558">
        <ele>43.5</ele>
        <time>2014-10-12T07:21:14Z</time>
      </trkpt>
      <trkpt lat="47.251" lon="-1.64569">
        <ele>43.3</ele>
        <time>2014-10-12T07:21:15Z</time>
      </trkpt>
      <trkpt lat="47.25101" lon="-1.64581">
        <ele>43.1</ele>
        <time>2014-10-12T07:21:16Z</time>
      </trkpt>
      <trkpt lat="47.25102" lon="-1.64593">
        <ele>42.9</ele>
        <time>2014-10-12T07:21:17Z</time>
      </trkpt>
      <trkpt lat="47.25104" lon="-1.64604">
        <ele>42.7</ele>
        <time>2014-10-12T07:21:18Z</time>
      </trkpt>
      <trkpt lat="47.25104" lon="-1.64615">
        <ele>42.5</ele>
        <time>2014-10-12T07:21:19Z</time>
      </trkpt>
      <trkpt lat="47.25105" lon="-1.64626">
        <ele>42.3</ele>
        <time>2014-10-12T07:21:20Z</time>
      </trkpt>
      <trkpt lat="47.25105" lon="-1.64637">
        <ele>42.2</ele>
        <time>2014-10-12T07:21:21Z</time>
      </trkpt>
      <trkpt lat="47.25104" lon="-1.64648">
        <ele>42.1</ele>
        <time>2014-10-12T07:21:22Z</time>
      </trkpt>
      <trkpt lat="47.25103" lon="-1.64659">
        <ele>41.9</ele>
        <time>2014-10-12T07:21:23Z</time>
      </trkpt>
      <trkpt lat="47.25102" lon="-1.64669">
        <ele>41.8</ele>
        <time>2014-10-12T07:21:24Z</time>
      </trkpt>
      <trkpt lat="47.251" lon="-1.64679">
        <ele>41.6</ele>
        <time>2014-10-12T07:21:25Z</time>
      </trkpt>
      <trkpt lat="47.25099" lon="-1.64689">
        <ele>41.5</ele>
        <time>2014-10-12T07:21:26Z</time>
      </trkpt>
      <trkpt lat="47.25097" lon="-1.64701">
        <ele>41.4</ele>
        <time>2014-10-12T07:21:27Z</time>
      </trkpt>
      <trkpt lat="47.25096" lon="-1.64713">
        <ele>41.2</ele>
        <time>2014-10-12T07:21:28Z</time>
      </trkpt>
      <trkpt lat="47.25095" lon="-1.64725">
        <ele>40.9</ele>
        <time>2014-10-12T07:21:29Z</time>
      </trkpt>
      <trkpt lat="47.25093" lon="-1.64737">
        <ele>40.6</ele>
        <time>2014-10-12T07:21:30Z</time>
      </trkpt>
      <trkpt lat="47.25092" lon="-1.64748">
        <ele>40.3</ele>
        <time>2014-10-12T07:21:31Z</time>
      </trkpt>
      <trkpt lat="47.25091" lon="-1.6476">
        <ele>40.1</ele>
        <time>2014-10-12T07:21:32Z</time>
      </trkpt>
      <trkpt lat="47.25089" lon="-1.64771">
        <ele>39.8</ele>
        <time>2014-10-12T07:21:33Z</time>
      </trkpt>
      <trkpt lat="47.25088" lon="-1.64782">
        <ele>39.5</ele>
        <time>2014-10-12T07:21:34Z</time>
      </trkpt>
      <trkpt lat="47.25086" lon="-1.64794">
        <ele>39.3</ele>
        <time>2014-10-12T07:21:35Z</time>
      </trkpt>
      <trkpt lat="47.25085" lon="-1.64804">
        <ele>39.5</ele>
        <time>2014-10-12T07:21:36Z</time>
      </trkpt>
      <trkpt lat="47.25084" lon="-1.64812">
        <ele>39.6</ele>
        <time>2014-10-12T07:21:37Z</time>
      </trkpt>
      <trkpt lat="47.25084" lon="-1.64818">
        <ele>39.8</ele>
        <time>2014-10-12T07:21:38Z</time>
      </trkpt>
      <trkpt lat="47.25085" lon="-1.64823">
        <ele>40</ele>
        <time>2014-10-12T07:21:39Z</time>
      </trkpt>
      <trkpt lat="47.25088" lon="-1.64828">
        <ele>40.3</ele>
        <time>2014-10-12T07:21:40Z</time>
      </trkpt>
      <trkpt lat="47.25091" lon="-1.6483">
        <ele>40.5</ele>
        <time>2014-10-12T07:21:41Z</time>
      </trkpt>
      <trkpt lat="47.25094" lon="-1.64832">
        <ele>40.8</ele>
        <time>2014-10-12T07:21:42Z</time>
      </trkpt>
      <trkpt lat="47.25098" lon="-1.64835">
        <ele>41.1</ele>
        <time>2014-10-12T07:21:43Z</time>
      </trkpt>
      <trkpt lat="47.25101" lon="-1.64837">
        <ele>41.3</ele>
        <time>2014-10-12T07:21:44Z</time>
      </trkpt>
      <trkpt lat="47.25104" lon="-1.6484">
        <ele>41.5</ele>
        <time>2014-10-12T07:21:45Z</time>
      </trkpt>
      <trkpt lat="47.25107" lon="-1.64842">
        <ele>41.7</ele>
        <time>2014-10-12T07:21:46Z</time>
      </trkpt>
      <trkpt lat="47.2511" lon="-1.64846">
        <ele>41.9</ele>
        <time>2014-10-12T07:21:47Z</time>
      </trkpt>
      <trkpt lat="47.25113" lon="-1.64848">
        <ele>42.1</ele>
        <time>2014-10-12T07:21:48Z</time>
      </trkpt>
      <trkpt lat="47.25116" lon="-1.6485">
        <ele>42.3</ele>
        <time>2014-10-12T07:21:49Z</time>
      </trkpt>
      <trkpt lat="47.25119" lon="-1.64851">
        <ele>42.4</ele>
        <time>2014-10-12T07:21:50Z</time>
      </trkpt>
      <trkpt lat="47.25122" lon="-1.64852">
        <ele>42.6</ele>
        <time>2014-10-12T07:21:51Z</time>
      </trkpt>
      <trkpt lat="47.25126" lon="-1.64855">
        <ele>42.9</ele>
        <time>2014-10-12T07:21:53Z</time>
      </trkpt>
      <trkpt lat="47.25129" lon="-1.64857">
        <ele>43.1</ele>
        <time>2014-10-12T07:21:54Z</time>
      </trkpt>
      <trkpt lat="47.25134" lon="-1.64861">
        <ele>43.5</ele>
        <time>2014-10-12T07:21:56Z</time>
      </trkpt>
      <trkpt lat="47.25137" lon="-1.64863">
        <ele>43.7</ele>
        <time>2014-10-12T07:21:57Z</time>
      </trkpt>
      <trkpt lat="47.2514" lon="-1.64865">
        <ele>44</ele>
        <time>2014-10-12T07:21:58Z</time>
      </trkpt>
      <trkpt lat="47.25142" lon="-1.64867">
        <ele>44.2</ele>
        <time>2014-10-12T07:21:59Z</time>
      </trkpt>
      <trkpt lat="47.25146" lon="-1.64869">
        <ele>44.4</ele>
        <time>2014-10-12T07:22:00Z</time>
      </trkpt>
      <trkpt lat="47.25148" lon="-1.64871">
        <ele>44.7</ele>
        <time>2014-10-12T07:22:01Z</time>
      </trkpt>
      <trkpt lat="47.25151" lon="-1.64874">
        <ele>44.9</ele>
        <time>2014-10-12T07:22:02Z</time>
      </trkpt>
      <trkpt lat="47.25154" lon="-1.64876">
        <ele>45.1</ele>
        <time>2014-10-12T07:22:03Z</time>
      </trkpt>
      <trkpt lat="47.25156" lon="-1.64878">
        <ele>45.3</ele>
        <time>2014-10-12T07:22:04Z</time>
      </trkpt>
      <trkpt lat="47.25158" lon="-1.64881">
        <ele>45.5</ele>
        <time>2014-10-12T07:22:05Z</time>
      </trkpt>
      <trkpt lat="47.2516" lon="-1.64886">
        <ele>45.7</ele>
        <time>2014-10-12T07:22:06Z</time>
      </trkpt>
      <trkpt lat="47.25161" lon="-1.64889">
        <ele>45.8</ele>
        <time>2014-10-12T07:22:07Z</time>
      </trkpt>
      <trkpt lat="47.25162" lon="-1.64896">
        <ele>46.1</ele>
        <time>2014-10-12T07:22:09Z</time>
      </trkpt>
      <trkpt lat="47.25164" lon="-1.649">
        <ele>46.3</ele>
        <time>2014-10-12T07:22:11Z</time>
      </trkpt>
      <trkpt lat="47.25166" lon="-1.64906">
        <ele>46.5</ele>
        <time>2014-10-12T07:22:13Z</time>
      </trkpt>
      <trkpt lat="47.25168" lon="-1.64913">
        <ele>46.8</ele>
        <time>2014-10-12T07:22:15Z</time>
      </trkpt>
      <trkpt lat="47.25169" lon="-1.64918">
        <ele>46.9</ele>
        <time>2014-10-12T07:22:17Z</time>
      </trkpt>
      <trkpt lat="47.25171" lon="-1.64926">
        <ele>47.2</ele>
        <time>2014-10-12T07:22:19Z</time>
      </trkpt>
      <trkpt lat="47.25172" lon="-1.6493">
        <ele>47.3</ele>
        <time>2014-10-12T07:22:20Z</time>
      </trkpt>
      <trkpt lat="47.25172" lon="-1.64937">
        <ele>47.5</ele>
        <time>2014-10-12T07:22:21Z</time>
      </trkpt>
      <trkpt lat="47.25174" lon="-1.64943">
        <ele>47.7</ele>
        <time>2014-10-12T07:22:22Z</time>
      </trkpt>
      <trkpt lat="47.25174" lon="-1.64948">
        <ele>47.8</ele>
        <time>2014-10-12T07:22:23Z</time>
      </trkpt>
      <trkpt lat="47.25175" lon="-1.64952">
        <ele>47.9</ele>
        <time>2014-10-12T07:22:24Z</time>
      </trkpt>
      <trkpt lat="47.25176" lon="-1.64957">
        <ele>48</ele>
        <time>2014-10-12T07:22:25Z</time>
      </trkpt>
      <trkpt lat="47.25176" lon="-1.64963">
        <ele>48.1</ele>
        <time>2014-10-12T07:22:26Z</time>
      </trkpt>
      <trkpt lat="47.25175" lon="-1.64969">
        <ele>48.1</ele>
        <time>2014-10-12T07:22:27Z</time>
      </trkpt>
      <trkpt lat="47.25175" lon="-1.64975">
        <ele>48.1</ele>
        <time>2014-10-12T07:22:28Z</time>
      </trkpt>
      <trkpt lat="47.25174" lon="-1.64979">
        <ele>48.1</ele>
        <time>2014-10-12T07:22:29Z</time>
      </trkpt>
      <trkpt lat="47.25174" lon="-1.64985">
        <ele>48.1</ele>
        <time>2014-10-12T07:22:30Z</time>
      </trkpt>
      <trkpt lat="47.25174" lon="-1.6499">
        <ele>48.1</ele>
        <time>2014-10-12T07:22:31Z</time>
      </trkpt>
      <trkpt lat="47.25174" lon="-1.64994">
        <ele>48.2</ele>
        <time>2014-10-12T07:22:32Z</time>
      </trkpt>
      <trkpt lat="47.25173" lon="-1.64998">
        <ele>48.2</ele>
        <time>2014-10-12T07:22:33Z</time>
      </trkpt>
      <trkpt lat="47.25173" lon="-1.65002">
        <ele>48.2</ele>
        <time>2014-10-12T07:22:34Z</time>
      </trkpt>
      <trkpt lat="47.25173" lon="-1.65011">
        <ele>48.3</ele>
        <time>2014-10-12T07:22:36Z</time>
      </trkpt>
      <trkpt lat="47.25173" lon="-1.65018">
        <ele>48.3</ele>
        <time>2014-10-12T07:22:37Z</time>
      </trkpt>
      <trkpt lat="47.25173" lon="-1.65026">
        <ele>48.3</ele>
        <time>2014-10-12T07:22:38Z</time>
      </trkpt>
      <trkpt lat="47.25174" lon="-1.65033">
        <ele>48.4</ele>
        <time>2014-10-12T07:22:39Z</time>
      </trkpt>
      <trkpt lat="47.25174" lon="-1.6504">
        <ele>48.5</ele>
        <time>2014-10-12T07:22:40Z</time>
      </trkpt>
      <trkpt lat="47.25175" lon="-1.65048">
        <ele>48.5</ele>
        <time>2014-10-12T07:22:41Z</time>
      </trkpt>
      <trkpt lat="47.25175" lon="-1.65057">
        <ele>48.5</ele>
        <time>2014-10-12T07:22:42Z</time>
      </trkpt>
      <trkpt lat="47.25175" lon="-1.65064">
        <ele>48.5</ele>
        <time>2014-10-12T07:22:43Z</time>
      </trkpt>
      <trkpt lat="47.25175" lon="-1.6507">
        <ele>48.4</ele>
        <time>2014-10-12T07:22:44Z</time>
      </trkpt>
      <trkpt lat="47.25176" lon="-1.65077">
        <ele>48.4</ele>
        <time>2014-10-12T07:22:45Z</time>
      </trkpt>
      <trkpt lat="47.25176" lon="-1.65082">
        <ele>48.4</ele>
        <time>2014-10-12T07:22:46Z</time>
      </trkpt>
      <trkpt lat="47.25176" lon="-1.65089">
        <ele>48.3</ele>
        <time>2014-10-12T07:22:47Z</time>
      </trkpt>
      <trkpt lat="47.25176" lon="-1.65095">
        <ele>48.3</ele>
        <time>2014-10-12T07:22:48Z</time>
      </trkpt>
      <trkpt lat="47.25176" lon="-1.651">
        <ele>48.2</ele>
        <time>2014-10-12T07:22:49Z</time>
      </trkpt>
      <trkpt lat="47.25176" lon="-1.65107">
        <ele>48.2</ele>
        <time>2014-10-12T07:22:50Z</time>
      </trkpt>
      <trkpt lat="47.25176" lon="-1.65115">
        <ele>48.1</ele>
        <time>2014-10-12T07:22:51Z</time>
      </trkpt>
      <trkpt lat="47.25175" lon="-1.65121">
        <ele>48</ele>
        <time>2014-10-12T07:22:52Z</time>
      </trkpt>
      <trkpt lat="47.25174" lon="-1.65128">
        <ele>47.9</ele>
        <time>2014-10-12T07:22:53Z</time>
      </trkpt>
      <trkpt lat="47.25172" lon="-1.65134">
        <ele>47.7</ele>
        <time>2014-10-12T07:22:54Z</time>
      </trkpt>
      <trkpt lat="47.2517" lon="-1.65141">
        <ele>47.5</ele>
        <time>2014-10-12T07:22:55Z</time>
      </trkpt>
      <trkpt lat="47.25168" lon="-1.65148">
        <ele>47.3</ele>
        <time>2014-10-12T07:22:56Z</time>
      </trkpt>
      <trkpt lat="47.25166" lon="-1.65154">
        <ele>47.1</ele>
        <time>2014-10-12T07:22:57Z</time>
      </trkpt>
      <trkpt lat="47.25165" lon="-1.65161">
        <ele>47</ele>
        <time>2014-10-12T07:22:58Z</time>
      </trkpt>
      <trkpt lat="47.25163" lon="-1.65167">
        <ele>46.8</ele>
        <time>2014-10-12T07:22:59Z</time>
      </trkpt>
      <trkpt lat="47.25162" lon="-1.65174">
        <ele>46.7</ele>
        <time>2014-10-12T07:23:00Z</time>
      </trkpt>
      <trkpt lat="47.2516" lon="-1.6518">
        <ele>46.5</ele>
        <time>2014-10-12T07:23:01Z</time>
      </trkpt>
      <trkpt lat="47.25159" lon="-1.65186">
        <ele>46.4</ele>
        <time>2014-10-12T07:23:02Z</time>
      </trkpt>
      <trkpt lat="47.25156" lon="-1.65193">
        <ele>46.3</ele>
        <time>2014-10-12T07:23:03Z</time>
      </trkpt>
      <trkpt lat="47.25155" lon="-1.652">
        <ele>46.1</ele>
        <time>2014-10-12T07:23:04Z</time>
      </trkpt>
      <trkpt lat="47.25153" lon="-1.65207">
        <ele>46</ele>
        <time>2014-10-12T07:23:05Z</time>
      </trkpt>
      <trkpt lat="47.25153" lon="-1.65214">
        <ele>45.9</ele>
        <time>2014-10-12T07:23:06Z</time>
      </trkpt>
      <trkpt lat="47.25154" lon="-1.65222">
        <ele>45.7</ele>
        <time>2014-10-12T07:23:07Z</time>
      </trkpt>
      <trkpt lat="47.25155" lon="-1.65229">
        <ele>45.5</ele>
        <time>2014-10-12T07:23:08Z</time>
      </trkpt>
      <trkpt lat="47.25158" lon="-1.65238">
        <ele>45.3</ele>
        <time>2014-10-12T07:23:09Z</time>
      </trkpt>
      <trkpt lat="47.25159" lon="-1.65247">
        <ele>45.1</ele>
        <time>2014-10-12T07:23:10Z</time>
      </trkpt>
      <trkpt lat="47.2516" lon="-1.65255">
        <ele>44.9</ele>
        <time>2014-10-12T07:23:11Z</time>
      </trkpt>
      <trkpt lat="47.25161" lon="-1.65264">
        <ele>44.7</ele>
        <time>2014-10-12T07:23:12Z</time>
      </trkpt>
      <trkpt lat="47.25162" lon="-1.65273">
        <ele>44.4</ele>
        <time>2014-10-12T07:23:13Z</time>
      </trkpt>
      <trkpt lat="47.25162" lon="-1.65283">
        <ele>44.1</ele>
        <time>2014-10-12T07:23:14Z</time>
      </trkpt>
      <trkpt lat="47.25161" lon="-1.65291">
        <ele>43.9</ele>
        <time>2014-10-12T07:23:15Z</time>
      </trkpt>
      <trkpt lat="47.25159" lon="-1.653">
        <ele>43.4</ele>
        <time>2014-10-12T07:23:16Z</time>
      </trkpt>
      <trkpt lat="47.25158" lon="-1.65308">
        <ele>43</ele>
        <time>2014-10-12T07:23:17Z</time>
      </trkpt>
      <trkpt lat="47.25157" lon="-1.65317">
        <ele>42.5</ele>
        <time>2014-10-12T07:23:18Z</time>
      </trkpt>
      <trkpt lat="47.25154" lon="-1.65326">
        <ele>42.1</ele>
        <time>2014-10-12T07:23:19Z</time>
      </trkpt>
      <trkpt lat="47.25152" lon="-1.65334">
        <ele>41.6</ele>
        <time>2014-10-12T07:23:20Z</time>
      </trkpt>
      <trkpt lat="47.25149" lon="-1.65342">
        <ele>41.2</ele>
        <time>2014-10-12T07:23:21Z</time>
      </trkpt>
      <trkpt lat="47.25146" lon="-1.6535">
        <ele>40.7</ele>
        <time>2014-10-12T07:23:22Z</time>
      </trkpt>
      <trkpt lat="47.25144" lon="-1.65358">
        <ele>40.3</ele>
        <time>2014-10-12T07:23:23Z</time>
      </trkpt>
      <trkpt lat="47.25141" lon="-1.65367">
        <ele>39.8</ele>
        <time>2014-10-12T07:23:24Z</time>
      </trkpt>
      <trkpt lat="47.25139" lon="-1.65375">
        <ele>39.3</ele>
        <time>2014-10-12T07:23:25Z</time>
      </trkpt>
      <trkpt lat="47.25134" lon="-1.65382">
        <ele>38.9</ele>
        <time>2014-10-12T07:23:26Z</time>
      </trkpt>
      <trkpt lat="47.2513" lon="-1.65389">
        <ele>38.5</ele>
        <time>2014-10-12T07:23:27Z</time>
      </trkpt>
      <trkpt lat="47.25126" lon="-1.65397">
        <ele>38</ele>
        <time>2014-10-12T07:23:28Z</time>
      </trkpt>
      <trkpt lat="47.25122" lon="-1.65404">
        <ele>37.5</ele>
        <time>2014-10-12T07:23:29Z</time>
      </trkpt>
      <trkpt lat="47.25117" lon="-1.6541">
        <ele>37.1</ele>
        <time>2014-10-12T07:23:30Z</time>
      </trkpt>
      <trkpt lat="47.25112" lon="-1.65417">
        <ele>36.7</ele>
        <time>2014-10-12T07:23:31Z</time>
      </trkpt>
      <trkpt lat="47.25108" lon="-1.65424">
        <ele>36.3</ele>
        <time>2014-10-12T07:23:32Z</time>
      </trkpt>
      <trkpt lat="47.25104" lon="-1.65431">
        <ele>35.9</ele>
        <time>2014-10-12T07:23:33Z</time>
      </trkpt>
      <trkpt lat="47.25103" lon="-1.65441">
        <ele>35.5</ele>
        <time>2014-10-12T07:23:34Z</time>
      </trkpt>
      <trkpt lat="47.25102" lon="-1.6545">
        <ele>35.1</ele>
        <time>2014-10-12T07:23:35Z</time>
      </trkpt>
      <trkpt lat="47.25101" lon="-1.65459">
        <ele>34.7</ele>
        <time>2014-10-12T07:23:36Z</time>
      </trkpt>
      <trkpt lat="47.25101" lon="-1.65469">
        <ele>34.5</ele>
        <time>2014-10-12T07:23:37Z</time>
      </trkpt>
      <trkpt lat="47.25101" lon="-1.65478">
        <ele>34.3</ele>
        <time>2014-10-12T07:23:38Z</time>
      </trkpt>
      <trkpt lat="47.251" lon="-1.65487">
        <ele>34.1</ele>
        <time>2014-10-12T07:23:39Z</time>
      </trkpt>
      <trkpt lat="47.251" lon="-1.65497">
        <ele>33.9</ele>
        <time>2014-10-12T07:23:40Z</time>
      </trkpt>
      <trkpt lat="47.251" lon="-1.65506">
        <ele>33.7</ele>
        <time>2014-10-12T07:23:41Z</time>
      </trkpt>
      <trkpt lat="47.25098" lon="-1.65515">
        <ele>33.5</ele>
        <time>2014-10-12T07:23:42Z</time>
      </trkpt>
      <trkpt lat="47.25096" lon="-1.65524">
        <ele>33.3</ele>
        <time>2014-10-12T07:23:43Z</time>
      </trkpt>
      <trkpt lat="47.25094" lon="-1.65534">
        <ele>33.2</ele>
        <time>2014-10-12T07:23:44Z</time>
      </trkpt>
      <trkpt lat="47.25091" lon="-1.65545">
        <ele>33</ele>
        <time>2014-10-12T07:23:45Z</time>
      </trkpt>
      <trkpt lat="47.25087" lon="-1.65555">
        <ele>32.9</ele>
        <time>2014-10-12T07:23:46Z</time>
      </trkpt>
      <trkpt lat="47.25083" lon="-1.65564">
        <ele>32.9</ele>
        <time>2014-10-12T07:23:47Z</time>
      </trkpt>
      <trkpt lat="47.25078" lon="-1.65574">
        <ele>32.8</ele>
        <time>2014-10-12T07:23:48Z</time>
      </trkpt>
      <trkpt lat="47.25075" lon="-1.65586">
        <ele>32.8</ele>
        <time>2014-10-12T07:23:49Z</time>
      </trkpt>
      <trkpt lat="47.25073" lon="-1.65597">
        <ele>32.7</ele>
        <time>2014-10-12T07:23:50Z</time>
      </trkpt>
      <trkpt lat="47.25071" lon="-1.65607">
        <ele>32.7</ele>
        <time>2014-10-12T07:23:51Z</time>
      </trkpt>
      <trkpt lat="47.25069" lon="-1.65616">
        <ele>32.7</ele>
        <time>2014-10-12T07:23:52Z</time>
      </trkpt>
      <trkpt lat="47.25067" lon="-1.65623">
        <ele>32.7</ele>
        <time>2014-10-12T07:23:53Z</time>
      </trkpt>
      <trkpt lat="47.25065" lon="-1.6563">
        <ele>32.8</ele>
        <time>2014-10-12T07:23:54Z</time>
      </trkpt>
      <trkpt lat="47.25064" lon="-1.65638">
        <ele>33</ele>
        <time>2014-10-12T07:23:55Z</time>
      </trkpt>
      <trkpt lat="47.25065" lon="-1.65646">
        <ele>33.1</ele>
        <time>2014-10-12T07:23:56Z</time>
      </trkpt>
      <trkpt lat="47.25066" lon="-1.65654">
        <ele>33.2</ele>
        <time>2014-10-12T07:23:57Z</time>
      </trkpt>
      <trkpt lat="47.25069" lon="-1.65659">
        <ele>33.3</ele>
        <time>2014-10-12T07:23:58Z</time>
      </trkpt>
      <trkpt lat="47.25072" lon="-1.65662">
        <ele>33.4</ele>
        <time>2014-10-12T07:23:59Z</time>
      </trkpt>
      <trkpt lat="47.25076" lon="-1.65664">
        <ele>33.4</ele>
        <time>2014-10-12T07:24:00Z</time>
      </trkpt>
      <trkpt lat="47.25079" lon="-1.65666">
        <ele>33.5</ele>
        <time>2014-10-12T07:24:01Z</time>
      </trkpt>
      <trkpt lat="47.25083" lon="-1.65667">
        <ele>33.5</ele>
        <time>2014-10-12T07:24:02Z</time>
      </trkpt>
      <trkpt lat="47.25085" lon="-1.6567">
        <ele>33.6</ele>
        <time>2014-10-12T07:24:03Z</time>
      </trkpt>
      <trkpt lat="47.25088" lon="-1.65672">
        <ele>33.6</ele>
        <time>2014-10-12T07:24:04Z</time>
      </trkpt>
      <trkpt lat="47.25091" lon="-1.65674">
        <ele>33.7</ele>
        <time>2014-10-12T07:24:05Z</time>
      </trkpt>
      <trkpt lat="47.25094" lon="-1.65675">
        <ele>33.7</ele>
        <time>2014-10-12T07:24:06Z</time>
      </trkpt>
      <trkpt lat="47.25098" lon="-1.65676">
        <ele>33.8</ele>
        <time>2014-10-12T07:24:07Z</time>
      </trkpt>
      <trkpt lat="47.25101" lon="-1.65677">
        <ele>33.8</ele>
        <time>2014-10-12T07:24:08Z</time>
      </trkpt>
      <trkpt lat="47.25104" lon="-1.65679">
        <ele>33.9</ele>
        <time>2014-10-12T07:24:09Z</time>
      </trkpt>
      <trkpt lat="47.25107" lon="-1.6568">
        <ele>33.9</ele>
        <time>2014-10-12T07:24:10Z</time>
      </trkpt>
      <trkpt lat="47.2511" lon="-1.65682">
        <ele>34</ele>
        <time>2014-10-12T07:24:11Z</time>
      </trkpt>
      <trkpt lat="47.25114" lon="-1.65683">
        <ele>34</ele>
        <time>2014-10-12T07:24:12Z</time>
      </trkpt>
      <trkpt lat="47.25117" lon="-1.65684">
        <ele>34.1</ele>
        <time>2014-10-12T07:24:13Z</time>
      </trkpt>
      <trkpt lat="47.2512" lon="-1.65685">
        <ele>34.1</ele>
        <time>2014-10-12T07:24:14Z</time>
      </trkpt>
      <trkpt lat="47.25123" lon="-1.65687">
        <ele>34.2</ele>
        <time>2014-10-12T07:24:15Z</time>
      </trkpt>
      <trkpt lat="47.25127" lon="-1.65688">
        <ele>34.4</ele>
        <time>2014-10-12T07:24:16Z</time>
      </trkpt>
      <trkpt lat="47.25131" lon="-1.65689">
        <ele>34.7</ele>
        <time>2014-10-12T07:24:17Z</time>
      </trkpt>
      <trkpt lat="47.25134" lon="-1.6569">
        <ele>34.9</ele>
        <time>2014-10-12T07:24:18Z</time>
      </trkpt>
      <trkpt lat="47.25137" lon="-1.65691">
        <ele>35.2</ele>
        <time>2014-10-12T07:24:19Z</time>
      </trkpt>
      <trkpt lat="47.25141" lon="-1.65691">
        <ele>35.4</ele>
        <time>2014-10-12T07:24:20Z</time>
      </trkpt>
      <trkpt lat="47.25144" lon="-1.65692">
        <ele>35.7</ele>
        <time>2014-10-12T07:24:21Z</time>
      </trkpt>
      <trkpt lat="47.25147" lon="-1.65694">
        <ele>35.9</ele>
        <time>2014-10-12T07:24:22Z</time>
      </trkpt>
      <trkpt lat="47.25151" lon="-1.65695">
        <ele>36.2</ele>
        <time>2014-10-12T07:24:23Z</time>
      </trkpt>
      <trkpt lat="47.25154" lon="-1.65696">
        <ele>36.4</ele>
        <time>2014-10-12T07:24:24Z</time>
      </trkpt>
      <trkpt lat="47.25157" lon="-1.65697">
        <ele>36.6</ele>
        <time>2014-10-12T07:24:25Z</time>
      </trkpt>
      <trkpt lat="47.2516" lon="-1.65699">
        <ele>36.9</ele>
        <time>2014-10-12T07:24:26Z</time>
      </trkpt>
      <trkpt lat="47.25163" lon="-1.657">
        <ele>37.1</ele>
        <time>2014-10-12T07:24:27Z</time>
      </trkpt>
      <trkpt lat="47.25166" lon="-1.65702">
        <ele>37.3</ele>
        <time>2014-10-12T07:24:28Z</time>
      </trkpt>
      <trkpt lat="47.25169" lon="-1.65705">
        <ele>37.5</ele>
        <time>2014-10-12T07:24:29Z</time>
      </trkpt>
      <trkpt lat="47.25171" lon="-1.65709">
        <ele>37.7</ele>
        <time>2014-10-12T07:24:30Z</time>
      </trkpt>
      <trkpt lat="47.25172" lon="-1.65712">
        <ele>37.9</ele>
        <time>2014-10-12T07:24:31Z</time>
      </trkpt>
      <trkpt lat="47.25174" lon="-1.65716">
        <ele>38.1</ele>
        <time>2014-10-12T07:24:32Z</time>
      </trkpt>
      <trkpt lat="47.25174" lon="-1.6572">
        <ele>38.3</ele>
        <time>2014-10-12T07:24:33Z</time>
      </trkpt>
      <trkpt lat="47.25175" lon="-1.65724">
        <ele>38.4</ele>
        <time>2014-10-12T07:24:34Z</time>
      </trkpt>
      <trkpt lat="47.25175" lon="-1.65728">
        <ele>38.5</ele>
        <time>2014-10-12T07:24:35Z</time>
      </trkpt>
      <trkpt lat="47.25176" lon="-1.65732">
        <ele>38.7</ele>
        <time>2014-10-12T07:24:36Z</time>
      </trkpt>
      <trkpt lat="47.25178" lon="-1.65738">
        <ele>39</ele>
        <time>2014-10-12T07:24:38Z</time>
      </trkpt>
      <trkpt lat="47.2518" lon="-1.65745">
        <ele>39.3</ele>
        <time>2014-10-12T07:24:40Z</time>
      </trkpt>
      <trkpt lat="47.25182" lon="-1.65751">
        <ele>39.6</ele>
        <time>2014-10-12T07:24:42Z</time>
      </trkpt>
      <trkpt lat="47.25184" lon="-1.65758">
        <ele>39.9</ele>
        <time>2014-10-12T07:24:44Z</time>
      </trkpt>
      <trkpt lat="47.25185" lon="-1.65763">
        <ele>40.2</ele>
        <time>2014-10-12T07:24:45Z</time>
      </trkpt>
      <trkpt lat="47.25186" lon="-1.65768">
        <ele>40.4</ele>
        <time>2014-10-12T07:24:46Z</time>
      </trkpt>
      <trkpt lat="47.25187" lon="-1.65772">
        <ele>40.6</ele>
        <time>2014-10-12T07:24:47Z</time>
      </trkpt>
      <trkpt lat="47.25188" lon="-1.65776">
        <ele>40.8</ele>
        <time>2014-10-12T07:24:48Z</time>
      </trkpt>
      <trkpt lat="47.25189" lon="-1.6578">
        <ele>41</ele>
        <time>2014-10-12T07:24:49Z</time>
      </trkpt>
      <trkpt lat="47.2519" lon="-1.65784">
        <ele>41.2</ele>
        <time>2014-10-12T07:24:50Z</time>
      </trkpt>
      <trkpt lat="47.25192" lon="-1.65788">
        <ele>41.5</ele>
        <time>2014-10-12T07:24:51Z</time>
      </trkpt>
      <trkpt lat="47.25193" lon="-1.65793">
        <ele>41.7</ele>
        <time>2014-10-12T07:24:52Z</time>
      </trkpt>
      <trkpt lat="47.25194" lon="-1.65798">
        <ele>41.7</ele>
        <time>2014-10-12T07:24:53Z</time>
      </trkpt>
      <trkpt lat="47.25195" lon="-1.65804">
        <ele>41.6</ele>
        <time>2014-10-12T07:24:54Z</time>
      </trkpt>
      <trkpt lat="47.25196" lon="-1.65809">
        <ele>41.6</ele>
        <time>2014-10-12T07:24:55Z</time>
      </trkpt>
      <trkpt lat="47.25197" lon="-1.65813">
        <ele>41.7</ele>
        <time>2014-10-12T07:24:56Z</time>
      </trkpt>
      <trkpt lat="47.25198" lon="-1.65818">
        <ele>41.6</ele>
        <time>2014-10-12T07:24:57Z</time>
      </trkpt>
      <trkpt lat="47.252" lon="-1.65823">
        <ele>41.6</ele>
        <time>2014-10-12T07:24:58Z</time>
      </trkpt>
      <trkpt lat="47.25201" lon="-1.65828">
        <ele>41.6</ele>
        <time>2014-10-12T07:24:59Z</time>
      </trkpt>
      <trkpt lat="47.25202" lon="-1.65833">
        <ele>41.6</ele>
        <time>2014-10-12T07:25:00Z</time>
      </trkpt>
      <trkpt lat="47.25203" lon="-1.65838">
        <ele>41.6</ele>
        <time>2014-10-12T07:25:01Z</time>
      </trkpt>
      <trkpt lat="47.25205" lon="-1.65843">
        <ele>41.6</ele>
        <time>2014-10-12T07:25:02Z</time>
      </trkpt>
      <trkpt lat="47.25206" lon="-1.65848">
        <ele>41.5</ele>
        <time>2014-10-12T07:25:03Z</time>
      </trkpt>
      <trkpt lat="47.25208" lon="-1.65853">
        <ele>41.5</ele>
        <time>2014-10-12T07:25:04Z</time>
      </trkpt>
      <trkpt lat="47.25209" lon="-1.65858">
        <ele>41.4</ele>
        <time>2014-10-12T07:25:05Z</time>
      </trkpt>
      <trkpt lat="47.2521" lon="-1.65863">
        <ele>41.4</ele>
        <time>2014-10-12T07:25:06Z</time>
      </trkpt>
      <trkpt lat="47.25212" lon="-1.65868">
        <ele>41.3</ele>
        <time>2014-10-12T07:25:07Z</time>
      </trkpt>
      <trkpt lat="47.25213" lon="-1.65873">
        <ele>41.2</ele>
        <time>2014-10-12T07:25:08Z</time>
      </trkpt>
      <trkpt lat="47.25214" lon="-1.65879">
        <ele>41.2</ele>
        <time>2014-10-12T07:25:09Z</time>
      </trkpt>
      <trkpt lat="47.25216" lon="-1.65883">
        <ele>41.4</ele>
        <time>2014-10-12T07:25:10Z</time>
      </trkpt>
      <trkpt lat="47.25217" lon="-1.65887">
        <ele>41.4</ele>
        <time>2014-10-12T07:25:11Z</time>
      </trkpt>
      <trkpt lat="47.25219" lon="-1.65892">
        <ele>41.6</ele>
        <time>2014-10-12T07:25:12Z</time>
      </trkpt>
      <trkpt lat="47.2522" lon="-1.65896">
        <ele>41.7</ele>
        <time>2014-10-12T07:25:13Z</time>
      </trkpt>
      <trkpt lat="47.25222" lon="-1.659">
        <ele>41.8</ele>
        <time>2014-10-12T07:25:14Z</time>
      </trkpt>
      <trkpt lat="47.25223" lon="-1.65905">
        <ele>41.9</ele>
        <time>2014-10-12T07:25:15Z</time>
      </trkpt>
      <trkpt lat="47.25224" lon="-1.65909">
        <ele>42</ele>
        <time>2014-10-12T07:25:16Z</time>
      </trkpt>
      <trkpt lat="47.25226" lon="-1.65914">
        <ele>42.1</ele>
        <time>2014-10-12T07:25:17Z</time>
      </trkpt>
      <trkpt lat="47.25227" lon="-1.65919">
        <ele>42.2</ele>
        <time>2014-10-12T07:25:18Z</time>
      </trkpt>
      <trkpt lat="47.2523" lon="-1.65923">
        <ele>42.4</ele>
        <time>2014-10-12T07:25:19Z</time>
      </trkpt>
      <trkpt lat="47.25233" lon="-1.65928">
        <ele>42.5</ele>
        <time>2014-10-12T07:25:20Z</time>
      </trkpt>
      <trkpt lat="47.25235" lon="-1.65933">
        <ele>42.6</ele>
        <time>2014-10-12T07:25:21Z</time>
      </trkpt>
      <trkpt lat="47.25237" lon="-1.65938">
        <ele>42.8</ele>
        <time>2014-10-12T07:25:22Z</time>
      </trkpt>
      <trkpt lat="47.25238" lon="-1.65943">
        <ele>42.9</ele>
        <time>2014-10-12T07:25:23Z</time>
      </trkpt>
      <trkpt lat="47.2524" lon="-1.65948">
        <ele>43</ele>
        <time>2014-10-12T07:25:24Z</time>
      </trkpt>
      <trkpt lat="47.25241" lon="-1.65953">
        <ele>43.1</ele>
        <time>2014-10-12T07:25:25Z</time>
      </trkpt>
      <trkpt lat="47.25242" lon="-1.65958">
        <ele>43.2</ele>
        <time>2014-10-12T07:25:26Z</time>
      </trkpt>
      <trkpt lat="47.25244" lon="-1.65962">
        <ele>43.3</ele>
        <time>2014-10-12T07:25:27Z</time>
      </trkpt>
      <trkpt lat="47.25246" lon="-1.65965">
        <ele>43.3</ele>
        <time>2014-10-12T07:25:28Z</time>
      </trkpt>
      <trkpt lat="47.25249" lon="-1.65969">
        <ele>43.3</ele>
        <time>2014-10-12T07:25:29Z</time>
      </trkpt>
      <trkpt lat="47.25251" lon="-1.65972">
        <ele>43.4</ele>
        <time>2014-10-12T07:25:30Z</time>
      </trkpt>
      <trkpt lat="47.25257" lon="-1.65976">
        <ele>43.5</ele>
        <time>2014-10-12T07:25:31Z</time>
      </trkpt>
      <trkpt lat="47.25262" lon="-1.65981">
        <ele>43.6</ele>
        <time>2014-10-12T07:25:32Z</time>
      </trkpt>
      <trkpt lat="47.25266" lon="-1.65986">
        <ele>43.7</ele>
        <time>2014-10-12T07:25:33Z</time>
      </trkpt>
      <trkpt lat="47.25269" lon="-1.65991">
        <ele>43.8</ele>
        <time>2014-10-12T07:25:34Z</time>
      </trkpt>
      <trkpt lat="47.25272" lon="-1.65997">
        <ele>43.8</ele>
        <time>2014-10-12T07:25:35Z</time>
      </trkpt>
      <trkpt lat="47.25274" lon="-1.66002">
        <ele>43.8</ele>
        <time>2014-10-12T07:25:36Z</time>
      </trkpt>
      <trkpt lat="47.25275" lon="-1.66008">
        <ele>43.8</ele>
        <time>2014-10-12T07:25:37Z</time>
      </trkpt>
      <trkpt lat="47.25277" lon="-1.66013">
        <ele>43.8</ele>
        <time>2014-10-12T07:25:38Z</time>
      </trkpt>
      <trkpt lat="47.25279" lon="-1.66018">
        <ele>43.8</ele>
        <time>2014-10-12T07:25:39Z</time>
      </trkpt>
      <trkpt lat="47.25281" lon="-1.66023">
        <ele>43.8</ele>
        <time>2014-10-12T07:25:40Z</time>
      </trkpt>
      <trkpt lat="47.25283" lon="-1.66027">
        <ele>43.9</ele>
        <time>2014-10-12T07:25:41Z</time>
      </trkpt>
      <trkpt lat="47.25285" lon="-1.66032">
        <ele>43.9</ele>
        <time>2014-10-12T07:25:42Z</time>
      </trkpt>
      <trkpt lat="47.25288" lon="-1.66036">
        <ele>43.9</ele>
        <time>2014-10-12T07:25:43Z</time>
      </trkpt>
      <trkpt lat="47.2529" lon="-1.6604">
        <ele>44</ele>
        <time>2014-10-12T07:25:44Z</time>
      </trkpt>
      <trkpt lat="47.25292" lon="-1.66044">
        <ele>43.9</ele>
        <time>2014-10-12T07:25:45Z</time>
      </trkpt>
      <trkpt lat="47.25294" lon="-1.66049">
        <ele>43.9</ele>
        <time>2014-10-12T07:25:46Z</time>
      </trkpt>
      <trkpt lat="47.25297" lon="-1.66054">
        <ele>43.8</ele>
        <time>2014-10-12T07:25:47Z</time>
      </trkpt>
      <trkpt lat="47.25299" lon="-1.66059">
        <ele>43.7</ele>
        <time>2014-10-12T07:25:48Z</time>
      </trkpt>
      <trkpt lat="47.25302" lon="-1.66063">
        <ele>43.7</ele>
        <time>2014-10-12T07:25:49Z</time>
      </trkpt>
      <trkpt lat="47.25305" lon="-1.66067">
        <ele>43.6</ele>
        <time>2014-10-12T07:25:50Z</time>
      </trkpt>
      <trkpt lat="47.25307" lon="-1.66071">
        <ele>43.6</ele>
        <time>2014-10-12T07:25:51Z</time>
      </trkpt>
      <trkpt lat="47.2531" lon="-1.66075">
        <ele>43.6</ele>
        <time>2014-10-12T07:25:52Z</time>
      </trkpt>
      <trkpt lat="47.25312" lon="-1.66079">
        <ele>43.6</ele>
        <time>2014-10-12T07:25:53Z</time>
      </trkpt>
      <trkpt lat="47.25314" lon="-1.66083">
        <ele>43.5</ele>
        <time>2014-10-12T07:25:54Z</time>
      </trkpt>
      <trkpt lat="47.25315" lon="-1.66088">
        <ele>43.5</ele>
        <time>2014-10-12T07:25:55Z</time>
      </trkpt>
      <trkpt lat="47.25316" lon="-1.66093">
        <ele>43.4</ele>
        <time>2014-10-12T07:25:56Z</time>
      </trkpt>
      <trkpt lat="47.25317" lon="-1.66099">
        <ele>43.3</ele>
        <time>2014-10-12T07:25:57Z</time>
      </trkpt>
      <trkpt lat="47.25316" lon="-1.66106">
        <ele>43.2</ele>
        <time>2014-10-12T07:25:58Z</time>
      </trkpt>
      <trkpt lat="47.25316" lon="-1.66113">
        <ele>43.1</ele>
        <time>2014-10-12T07:25:59Z</time>
      </trkpt>
      <trkpt lat="47.25315" lon="-1.66122">
        <ele>42.9</ele>
        <time>2014-10-12T07:26:00Z</time>
      </trkpt>
      <trkpt lat="47.25315" lon="-1.6613">
        <ele>42.7</ele>
        <time>2014-10-12T07:26:01Z</time>
      </trkpt>
      <trkpt lat="47.25314" lon="-1.66139">
        <ele>42.4</ele>
        <time>2014-10-12T07:26:02Z</time>
      </trkpt>
      <trkpt lat="47.25314" lon="-1.66147">
        <ele>42.1</ele>
        <time>2014-10-12T07:26:03Z</time>
      </trkpt>
      <trkpt lat="47.25313" lon="-1.66155">
        <ele>41.8</ele>
        <time>2014-10-12T07:26:04Z</time>
      </trkpt>
      <trkpt lat="47.25313" lon="-1.66163">
        <ele>41.5</ele>
        <time>2014-10-12T07:26:05Z</time>
      </trkpt>
      <trkpt lat="47.25313" lon="-1.66171">
        <ele>41.2</ele>
        <time>2014-10-12T07:26:06Z</time>
      </trkpt>
      <trkpt lat="47.25313" lon="-1.66179">
        <ele>41</ele>
        <time>2014-10-12T07:26:07Z</time>
      </trkpt>
      <trkpt lat="47.25313" lon="-1.66186">
        <ele>40.8</ele>
        <time>2014-10-12T07:26:08Z</time>
      </trkpt>
      <trkpt lat="47.25313" lon="-1.66193">
        <ele>40.5</ele>
        <time>2014-10-12T07:26:09Z</time>
      </trkpt>
      <trkpt lat="47.25313" lon="-1.66201">
        <ele>40.3</ele>
        <time>2014-10-12T07:26:10Z</time>
      </trkpt>
      <trkpt lat="47.25313" lon="-1.66208">
        <ele>40</ele>
        <time>2014-10-12T07:26:11Z</time>
      </trkpt>
      <trkpt lat="47.25312" lon="-1.66216">
        <ele>40</ele>
        <time>2014-10-12T07:26:12Z</time>
      </trkpt>
      <trkpt lat="47.25312" lon="-1.66223">
        <ele>39.9</ele>
        <time>2014-10-12T07:26:13Z</time>
      </trkpt>
      <trkpt lat="47.25312" lon="-1.66229">
        <ele>39.9</ele>
        <time>2014-10-12T07:26:14Z</time>
      </trkpt>
      <trkpt lat="47.25312" lon="-1.66236">
        <ele>39.9</ele>
        <time>2014-10-12T07:26:15Z</time>
      </trkpt>
      <trkpt lat="47.25312" lon="-1.66243">
        <ele>39.9</ele>
        <time>2014-10-12T07:26:16Z</time>
      </trkpt>
      <trkpt lat="47.25312" lon="-1.6625">
        <ele>39.8</ele>
        <time>2014-10-12T07:26:17Z</time>
      </trkpt>
      <trkpt lat="47.25312" lon="-1.66257">
        <ele>39.8</ele>
        <time>2014-10-12T07:26:18Z</time>
      </trkpt>
      <trkpt lat="47.25313" lon="-1.66263">
        <ele>39.8</ele>
        <time>2014-10-12T07:26:19Z</time>
      </trkpt>
      <trkpt lat="47.25313" lon="-1.6627">
        <ele>39.8</ele>
        <time>2014-10-12T07:26:20Z</time>
      </trkpt>
      <trkpt lat="47.25314" lon="-1.66276">
        <ele>39.8</ele>
        <time>2014-10-12T07:26:21Z</time>
      </trkpt>
      <trkpt lat="47.25314" lon="-1.66283">
        <ele>39.8</ele>
        <time>2014-10-12T07:26:22Z</time>
      </trkpt>
      <trkpt lat="47.25314" lon="-1.6629">
        <ele>39.8</ele>
        <time>2014-10-12T07:26:23Z</time>
      </trkpt>
      <trkpt lat="47.25314" lon="-1.66296">
        <ele>39.8</ele>
        <time>2014-10-12T07:26:24Z</time>
      </trkpt>
      <trkpt lat="47.25315" lon="-1.66303">
        <ele>39.7</ele>
        <time>2014-10-12T07:26:25Z</time>
      </trkpt>
      <trkpt lat="47.25315" lon="-1.66309">
        <ele>39.7</ele>
        <time>2014-10-12T07:26:26Z</time>
      </trkpt>
      <trkpt lat="47.25316" lon="-1.66316">
        <ele>39.7</ele>
        <time>2014-10-12T07:26:27Z</time>
      </trkpt>
      <trkpt lat="47.25317" lon="-1.66322">
        <ele>39.6</ele>
        <time>2014-10-12T07:26:28Z</time>
      </trkpt>
      <trkpt lat="47.25317" lon="-1.66328">
        <ele>39.6</ele>
        <time>2014-10-12T07:26:29Z</time>
      </trkpt>
      <trkpt lat="47.25318" lon="-1.66334">
        <ele>39.6</ele>
        <time>2014-10-12T07:26:30Z</time>
      </trkpt>
      <trkpt lat="47.25318" lon="-1.66341">
        <ele>39.5</ele>
        <time>2014-10-12T07:26:31Z</time>
      </trkpt>
      <trkpt lat="47.25318" lon="-1.66347">
        <ele>39.5</ele>
        <time>2014-10-12T07:26:32Z</time>
      </trkpt>
      <trkpt lat="47.25318" lon="-1.66353">
        <ele>39.5</ele>
        <time>2014-10-12T07:26:33Z</time>
      </trkpt>
      <trkpt lat="47.25318" lon="-1.6636">
        <ele>39.4</ele>
        <time>2014-10-12T07:26:34Z</time>
      </trkpt>
      <trkpt lat="47.25318" lon="-1.66367">
        <ele>39.3</ele>
        <time>2014-10-12T07:26:35Z</time>
      </trkpt>
      <trkpt lat="47.25318" lon="-1.66373">
        <ele>39.3</ele>
        <time>2014-10-12T07:26:36Z</time>
      </trkpt>
      <trkpt lat="47.25318" lon="-1.6638">
        <ele>39.3</ele>
        <time>2014-10-12T07:26:37Z</time>
      </trkpt>
      <trkpt lat="47.25318" lon="-1.66386">
        <ele>39.3</ele>
        <time>2014-10-12T07:26:38Z</time>
      </trkpt>
      <trkpt lat="47.25318" lon="-1.66393">
        <ele>39.4</ele>
        <time>2014-10-12T07:26:39Z</time>
      </trkpt>
      <trkpt lat="47.25318" lon="-1.66399">
        <ele>39.5</ele>
        <time>2014-10-12T07:26:40Z</time>
      </trkpt>
      <trkpt lat="47.25319" lon="-1.66406">
        <ele>39.5</ele>
        <time>2014-10-12T07:26:41Z</time>
      </trkpt>
      <trkpt lat="47.25319" lon="-1.66412">
        <ele>39.6</ele>
        <time>2014-10-12T07:26:42Z</time>
      </trkpt>
      <trkpt lat="47.25319" lon="-1.6642">
        <ele>39.7</ele>
        <time>2014-10-12T07:26:43Z</time>
      </trkpt>
      <trkpt lat="47.25319" lon="-1.66427">
        <ele>39.7</ele>
        <time>2014-10-12T07:26:44Z</time>
      </trkpt>
      <trkpt lat="47.25319" lon="-1.66434">
        <ele>39.8</ele>
        <time>2014-10-12T07:26:45Z</time>
      </trkpt>
      <trkpt lat="47.2532" lon="-1.66441">
        <ele>39.9</ele>
        <time>2014-10-12T07:26:46Z</time>
      </trkpt>
      <trkpt lat="47.2532" lon="-1.66447">
        <ele>39.9</ele>
        <time>2014-10-12T07:26:47Z</time>
      </trkpt>
      <trkpt lat="47.2532" lon="-1.66454">
        <ele>40</ele>
        <time>2014-10-12T07:26:48Z</time>
      </trkpt>
      <trkpt lat="47.25319" lon="-1.66461">
        <ele>40</ele>
        <time>2014-10-12T07:26:49Z</time>
      </trkpt>
      <trkpt lat="47.25319" lon="-1.66468">
        <ele>40</ele>
        <time>2014-10-12T07:26:50Z</time>
      </trkpt>
      <trkpt lat="47.25319" lon="-1.66475">
        <ele>40</ele>
        <time>2014-10-12T07:26:51Z</time>
      </trkpt>
      <trkpt lat="47.25318" lon="-1.66482">
        <ele>39.9</ele>
        <time>2014-10-12T07:26:52Z</time>
      </trkpt>
      <trkpt lat="47.25318" lon="-1.66486">
        <ele>40</ele>
        <time>2014-10-12T07:26:53Z</time>
      </trkpt>
      <trkpt lat="47.25319" lon="-1.66494">
        <ele>40</ele>
        <time>2014-10-12T07:26:55Z</time>
      </trkpt>
      <trkpt lat="47.25319" lon="-1.665">
        <ele>40</ele>
        <time>2014-10-12T07:26:57Z</time>
      </trkpt>
      <trkpt lat="47.25319" lon="-1.66507">
        <ele>40</ele>
        <time>2014-10-12T07:26:59Z</time>
      </trkpt>
      <trkpt lat="47.25322" lon="-1.66507">
        <ele>40.1</ele>
        <time>2014-10-12T07:27:04Z</time>
      </trkpt>
      <trkpt lat="47.25326" lon="-1.66507">
        <ele>40.2</ele>
        <time>2014-10-12T07:27:06Z</time>
      </trkpt>
      <trkpt lat="47.2533" lon="-1.66506">
        <ele>40.4</ele>
        <time>2014-10-12T07:27:08Z</time>
      </trkpt>
      <trkpt lat="47.25334" lon="-1.66505">
        <ele>40.5</ele>
        <time>2014-10-12T07:27:09Z</time>
      </trkpt>
      <trkpt lat="47.2534" lon="-1.66501">
        <ele>40.7</ele>
        <time>2014-10-12T07:27:10Z</time>
      </trkpt>
      <trkpt lat="47.25343" lon="-1.665">
        <ele>40.8</ele>
        <time>2014-10-12T07:27:11Z</time>
      </trkpt>
      <trkpt lat="47.25347" lon="-1.66499">
        <ele>41</ele>
        <time>2014-10-12T07:27:12Z</time>
      </trkpt>
      <trkpt lat="47.25352" lon="-1.66497">
        <ele>41.2</ele>
        <time>2014-10-12T07:27:13Z</time>
      </trkpt>
      <trkpt lat="47.25359" lon="-1.66495">
        <ele>41.4</ele>
        <time>2014-10-12T07:27:14Z</time>
      </trkpt>
      <trkpt lat="47.25363" lon="-1.66494">
        <ele>41.6</ele>
        <time>2014-10-12T07:27:15Z</time>
      </trkpt>
      <trkpt lat="47.25366" lon="-1.66493">
        <ele>41.7</ele>
        <time>2014-10-12T07:27:16Z</time>
      </trkpt>
      <trkpt lat="47.2537" lon="-1.66492">
        <ele>41.8</ele>
        <time>2014-10-12T07:27:17Z</time>
      </trkpt>
      <trkpt lat="47.25374" lon="-1.66491">
        <ele>41.9</ele>
        <time>2014-10-12T07:27:18Z</time>
      </trkpt>
      <trkpt lat="47.25377" lon="-1.6649">
        <ele>42.1</ele>
        <time>2014-10-12T07:27:19Z</time>
      </trkpt>
      <trkpt lat="47.2538" lon="-1.66488">
        <ele>42.2</ele>
        <time>2014-10-12T07:27:20Z</time>
      </trkpt>
      <trkpt lat="47.25386" lon="-1.66488">
        <ele>42.3</ele>
        <time>2014-10-12T07:27:21Z</time>
      </trkpt>
      <trkpt lat="47.25389" lon="-1.66488">
        <ele>42.4</ele>
        <time>2014-10-12T07:27:22Z</time>
      </trkpt>
      <trkpt lat="47.25392" lon="-1.66488">
        <ele>42.5</ele>
        <time>2014-10-12T07:27:23Z</time>
      </trkpt>
      <trkpt lat="47.25396" lon="-1.66488">
        <ele>42.7</ele>
        <time>2014-10-12T07:27:24Z</time>
      </trkpt>
      <trkpt lat="47.25399" lon="-1.66487">
        <ele>42.8</ele>
        <time>2014-10-12T07:27:25Z</time>
      </trkpt>
      <trkpt lat="47.25403" lon="-1.66486">
        <ele>42.9</ele>
        <time>2014-10-12T07:27:27Z</time>
      </trkpt>
      <trkpt lat="47.25408" lon="-1.66483">
        <ele>43.1</ele>
        <time>2014-10-12T07:27:29Z</time>
      </trkpt>
      <trkpt lat="47.25411" lon="-1.66481">
        <ele>43.2</ele>
        <time>2014-10-12T07:27:30Z</time>
      </trkpt>
      <trkpt lat="47.25415" lon="-1.66478">
        <ele>43.3</ele>
        <time>2014-10-12T07:27:32Z</time>
      </trkpt>
      <trkpt lat="47.25418" lon="-1.66476">
        <ele>43.4</ele>
        <time>2014-10-12T07:27:33Z</time>
      </trkpt>
      <trkpt lat="47.2542" lon="-1.66473">
        <ele>43.5</ele>
        <time>2014-10-12T07:27:34Z</time>
      </trkpt>
      <trkpt lat="47.25424" lon="-1.6647">
        <ele>43.7</ele>
        <time>2014-10-12T07:27:36Z</time>
      </trkpt>
      <trkpt lat="47.25426" lon="-1.66467">
        <ele>43.8</ele>
        <time>2014-10-12T07:27:37Z</time>
      </trkpt>
      <trkpt lat="47.25431" lon="-1.66463">
        <ele>44</ele>
        <time>2014-10-12T07:27:39Z</time>
      </trkpt>
      <trkpt lat="47.25433" lon="-1.66461">
        <ele>44.1</ele>
        <time>2014-10-12T07:27:40Z</time>
      </trkpt>
      <trkpt lat="47.25436" lon="-1.66458">
        <ele>44.2</ele>
        <time>2014-10-12T07:27:41Z</time>
      </trkpt>
      <trkpt lat="47.25438" lon="-1.66456">
        <ele>44.3</ele>
        <time>2014-10-12T07:27:42Z</time>
      </trkpt>
      <trkpt lat="47.25442" lon="-1.66451">
        <ele>44.6</ele>
        <time>2014-10-12T07:27:44Z</time>
      </trkpt>
      <trkpt lat="47.25444" lon="-1.66448">
        <ele>44.8</ele>
        <time>2014-10-12T07:27:45Z</time>
      </trkpt>
      <trkpt lat="47.25445" lon="-1.66444">
        <ele>45</ele>
        <time>2014-10-12T07:27:46Z</time>
      </trkpt>
      <trkpt lat="47.25448" lon="-1.6644">
        <ele>45.2</ele>
        <time>2014-10-12T07:27:47Z</time>
      </trkpt>
      <trkpt lat="47.25452" lon="-1.66436">
        <ele>45.5</ele>
        <time>2014-10-12T07:27:48Z</time>
      </trkpt>
      <trkpt lat="47.25455" lon="-1.6643">
        <ele>45.8</ele>
        <time>2014-10-12T07:27:49Z</time>
      </trkpt>
      <trkpt lat="47.25459" lon="-1.66429">
        <ele>46.1</ele>
        <time>2014-10-12T07:27:50Z</time>
      </trkpt>
      <trkpt lat="47.25464" lon="-1.66425">
        <ele>46.2</ele>
        <time>2014-10-12T07:27:51Z</time>
      </trkpt>
      <trkpt lat="47.25468" lon="-1.66422">
        <ele>46.3</ele>
        <time>2014-10-12T07:27:52Z</time>
      </trkpt>
      <trkpt lat="47.25472" lon="-1.66418">
        <ele>46.5</ele>
        <time>2014-10-12T07:27:53Z</time>
      </trkpt>
      <trkpt lat="47.25476" lon="-1.66414">
        <ele>46.6</ele>
        <time>2014-10-12T07:27:54Z</time>
      </trkpt>
      <trkpt lat="47.25478" lon="-1.6641">
        <ele>46.8</ele>
        <time>2014-10-12T07:27:55Z</time>
      </trkpt>
      <trkpt lat="47.2548" lon="-1.66406">
        <ele>46.9</ele>
        <time>2014-10-12T07:27:56Z</time>
      </trkpt>
      <trkpt lat="47.25483" lon="-1.66402">
        <ele>47</ele>
        <time>2014-10-12T07:27:57Z</time>
      </trkpt>
      <trkpt lat="47.25486" lon="-1.66397">
        <ele>47.2</ele>
        <time>2014-10-12T07:27:58Z</time>
      </trkpt>
      <trkpt lat="47.25489" lon="-1.66392">
        <ele>47.4</ele>
        <time>2014-10-12T07:27:59Z</time>
      </trkpt>
      <trkpt lat="47.25492" lon="-1.66388">
        <ele>47.5</ele>
        <time>2014-10-12T07:28:00Z</time>
      </trkpt>
      <trkpt lat="47.25494" lon="-1.66386">
        <ele>47.6</ele>
        <time>2014-10-12T07:28:01Z</time>
      </trkpt>
      <trkpt lat="47.25497" lon="-1.66383">
        <ele>47.7</ele>
        <time>2014-10-12T07:28:02Z</time>
      </trkpt>
      <trkpt lat="47.25499" lon="-1.6638">
        <ele>47.8</ele>
        <time>2014-10-12T07:28:03Z</time>
      </trkpt>
      <trkpt lat="47.25502" lon="-1.66377">
        <ele>47.9</ele>
        <time>2014-10-12T07:28:04Z</time>
      </trkpt>
      <trkpt lat="47.25506" lon="-1.66374">
        <ele>48</ele>
        <time>2014-10-12T07:28:06Z</time>
      </trkpt>
      <trkpt lat="47.25508" lon="-1.66371">
        <ele>48</ele>
        <time>2014-10-12T07:28:07Z</time>
      </trkpt>
      <trkpt lat="47.25512" lon="-1.66365">
        <ele>48</ele>
        <time>2014-10-12T07:28:09Z</time>
      </trkpt>
      <trkpt lat="47.25513" lon="-1.66362">
        <ele>48</ele>
        <time>2014-10-12T07:28:10Z</time>
      </trkpt>
      <trkpt lat="47.25517" lon="-1.66356">
        <ele>48</ele>
        <time>2014-10-12T07:28:12Z</time>
      </trkpt>
      <trkpt lat="47.2552" lon="-1.66352">
        <ele>48.1</ele>
        <time>2014-10-12T07:28:14Z</time>
      </trkpt>
      <trkpt lat="47.25523" lon="-1.66348">
        <ele>48.1</ele>
        <time>2014-10-12T07:28:16Z</time>
      </trkpt>
      <trkpt lat="47.25527" lon="-1.66343">
        <ele>48.2</ele>
        <time>2014-10-12T07:28:18Z</time>
      </trkpt>
      <trkpt lat="47.25529" lon="-1.66339">
        <ele>48.2</ele>
        <time>2014-10-12T07:28:20Z</time>
      </trkpt>
      <trkpt lat="47.2553" lon="-1.66335">
        <ele>48.3</ele>
        <time>2014-10-12T07:28:21Z</time>
      </trkpt>
      <trkpt lat="47.25533" lon="-1.66325">
        <ele>48.4</ele>
        <time>2014-10-12T07:28:23Z</time>
      </trkpt>
      <trkpt lat="47.25537" lon="-1.66318">
        <ele>48.6</ele>
        <time>2014-10-12T07:28:25Z</time>
      </trkpt>
      <trkpt lat="47.2554" lon="-1.66313">
        <ele>48.7</ele>
        <time>2014-10-12T07:28:26Z</time>
      </trkpt>
      <trkpt lat="47.25542" lon="-1.6631">
        <ele>48.8</ele>
        <time>2014-10-12T07:28:27Z</time>
      </trkpt>
      <trkpt lat="47.25544" lon="-1.66306">
        <ele>48.8</ele>
        <time>2014-10-12T07:28:28Z</time>
      </trkpt>
      <trkpt lat="47.25547" lon="-1.66302">
        <ele>48.8</ele>
        <time>2014-10-12T07:28:29Z</time>
      </trkpt>
      <trkpt lat="47.25547" lon="-1.66298">
        <ele>48.9</ele>
        <time>2014-10-12T07:28:30Z</time>
      </trkpt>
      <trkpt lat="47.25549" lon="-1.66294">
        <ele>48.9</ele>
        <time>2014-10-12T07:28:31Z</time>
      </trkpt>
      <trkpt lat="47.25552" lon="-1.66291">
        <ele>48.9</ele>
        <time>2014-10-12T07:28:32Z</time>
      </trkpt>
      <trkpt lat="47.25555" lon="-1.66285">
        <ele>48.9</ele>
        <time>2014-10-12T07:28:34Z</time>
      </trkpt>
      <trkpt lat="47.25557" lon="-1.66281">
        <ele>49</ele>
        <time>2014-10-12T07:28:35Z</time>
      </trkpt>
      <trkpt lat="47.2556" lon="-1.66275">
        <ele>49.1</ele>
        <time>2014-10-12T07:28:36Z</time>
      </trkpt>
      <trkpt lat="47.25561" lon="-1.66271">
        <ele>49.1</ele>
        <time>2014-10-12T07:28:37Z</time>
      </trkpt>
      <trkpt lat="47.25564" lon="-1.66263">
        <ele>49.3</ele>
        <time>2014-10-12T07:28:39Z</time>
      </trkpt>
      <trkpt lat="47.25567" lon="-1.66256">
        <ele>49.4</ele>
        <time>2014-10-12T07:28:41Z</time>
      </trkpt>
      <trkpt lat="47.25571" lon="-1.66249">
        <ele>49.5</ele>
        <time>2014-10-12T07:28:43Z</time>
      </trkpt>
      <trkpt lat="47.25573" lon="-1.66245">
        <ele>49.6</ele>
        <time>2014-10-12T07:28:44Z</time>
      </trkpt>
      <trkpt lat="47.25575" lon="-1.66241">
        <ele>49.7</ele>
        <time>2014-10-12T07:28:45Z</time>
      </trkpt>
      <trkpt lat="47.25578" lon="-1.66237">
        <ele>49.8</ele>
        <time>2014-10-12T07:28:46Z</time>
      </trkpt>
      <trkpt lat="47.2558" lon="-1.66233">
        <ele>49.9</ele>
        <time>2014-10-12T07:28:47Z</time>
      </trkpt>
      <trkpt lat="47.25582" lon="-1.66229">
        <ele>50</ele>
        <time>2014-10-12T07:28:48Z</time>
      </trkpt>
      <trkpt lat="47.25583" lon="-1.66225">
        <ele>50.1</ele>
        <time>2014-10-12T07:28:49Z</time>
      </trkpt>
      <trkpt lat="47.25586" lon="-1.66218">
        <ele>50.3</ele>
        <time>2014-10-12T07:28:51Z</time>
      </trkpt>
      <trkpt lat="47.25588" lon="-1.66214">
        <ele>50.4</ele>
        <time>2014-10-12T07:28:52Z</time>
      </trkpt>
      <trkpt lat="47.2559" lon="-1.6621">
        <ele>50.5</ele>
        <time>2014-10-12T07:28:53Z</time>
      </trkpt>
      <trkpt lat="47.25592" lon="-1.66206">
        <ele>50.6</ele>
        <time>2014-10-12T07:28:54Z</time>
      </trkpt>
      <trkpt lat="47.25595" lon="-1.66201">
        <ele>50.7</ele>
        <time>2014-10-12T07:28:55Z</time>
      </trkpt>
      <trkpt lat="47.25597" lon="-1.66198">
        <ele>50.7</ele>
        <time>2014-10-12T07:28:56Z</time>
      </trkpt>
      <trkpt lat="47.25599" lon="-1.66194">
        <ele>50.8</ele>
        <time>2014-10-12T07:28:57Z</time>
      </trkpt>
      <trkpt lat="47.25601" lon="-1.6619">
        <ele>50.8</ele>
        <time>2014-10-12T07:28:59Z</time>
      </trkpt>
      <trkpt lat="47.25605" lon="-1.66184">
        <ele>50.9</ele>
        <time>2014-10-12T07:29:01Z</time>
      </trkpt>
      <trkpt lat="47.25607" lon="-1.66179">
        <ele>51</ele>
        <time>2014-10-12T07:29:02Z</time>
      </trkpt>
      <trkpt lat="47.25609" lon="-1.66175">
        <ele>51.1</ele>
        <time>2014-10-12T07:29:03Z</time>
      </trkpt>
      <trkpt lat="47.25613" lon="-1.66169">
        <ele>51.2</ele>
        <time>2014-10-12T07:29:05Z</time>
      </trkpt>
      <trkpt lat="47.25616" lon="-1.66164">
        <ele>51.3</ele>
        <time>2014-10-12T07:29:07Z</time>
      </trkpt>
      <trkpt lat="47.25617" lon="-1.66158">
        <ele>51.4</ele>
        <time>2014-10-12T07:29:09Z</time>
      </trkpt>
      <trkpt lat="47.25619" lon="-1.66155">
        <ele>51.5</ele>
        <time>2014-10-12T07:29:10Z</time>
      </trkpt>
      <trkpt lat="47.25622" lon="-1.66149">
        <ele>51.6</ele>
        <time>2014-10-12T07:29:12Z</time>
      </trkpt>
      <trkpt lat="47.25625" lon="-1.66145">
        <ele>51.7</ele>
        <time>2014-10-12T07:29:13Z</time>
      </trkpt>
      <trkpt lat="47.25627" lon="-1.66142">
        <ele>51.8</ele>
        <time>2014-10-12T07:29:14Z</time>
      </trkpt>
      <trkpt lat="47.25629" lon="-1.66138">
        <ele>51.9</ele>
        <time>2014-10-12T07:29:15Z</time>
      </trkpt>
      <trkpt lat="47.25632" lon="-1.66132">
        <ele>52</ele>
        <time>2014-10-12T07:29:17Z</time>
      </trkpt>
      <trkpt lat="47.25635" lon="-1.66125">
        <ele>52.1</ele>
        <time>2014-10-12T07:29:19Z</time>
      </trkpt>
      <trkpt lat="47.2564" lon="-1.66124">
        <ele>52.2</ele>
        <time>2014-10-12T07:29:20Z</time>
      </trkpt>
      <trkpt lat="47.25645" lon="-1.66121">
        <ele>52.2</ele>
        <time>2014-10-12T07:29:21Z</time>
      </trkpt>
      <trkpt lat="47.25648" lon="-1.66118">
        <ele>52.3</ele>
        <time>2014-10-12T07:29:22Z</time>
      </trkpt>
      <trkpt lat="47.25651" lon="-1.66114">
        <ele>52.3</ele>
        <time>2014-10-12T07:29:23Z</time>
      </trkpt>
      <trkpt lat="47.25653" lon="-1.66111">
        <ele>52.3</ele>
        <time>2014-10-12T07:29:24Z</time>
      </trkpt>
      <trkpt lat="47.25653" lon="-1.66107">
        <ele>52.3</ele>
        <time>2014-10-12T07:29:25Z</time>
      </trkpt>
      <trkpt lat="47.25655" lon="-1.66103">
        <ele>52.4</ele>
        <time>2014-10-12T07:29:26Z</time>
      </trkpt>
      <trkpt lat="47.25657" lon="-1.66097">
        <ele>52.4</ele>
        <time>2014-10-12T07:29:27Z</time>
      </trkpt>
      <trkpt lat="47.2566" lon="-1.66093">
        <ele>52.5</ele>
        <time>2014-10-12T07:29:28Z</time>
      </trkpt>
      <trkpt lat="47.25662" lon="-1.66087">
        <ele>52.6</ele>
        <time>2014-10-12T07:29:29Z</time>
      </trkpt>
      <trkpt lat="47.25664" lon="-1.66084">
        <ele>52.7</ele>
        <time>2014-10-12T07:29:30Z</time>
      </trkpt>
      <trkpt lat="47.25667" lon="-1.66078">
        <ele>52.8</ele>
        <time>2014-10-12T07:29:31Z</time>
      </trkpt>
      <trkpt lat="47.2567" lon="-1.66072">
        <ele>52.9</ele>
        <time>2014-10-12T07:29:32Z</time>
      </trkpt>
      <trkpt lat="47.25673" lon="-1.66066">
        <ele>53.1</ele>
        <time>2014-10-12T07:29:33Z</time>
      </trkpt>
      <trkpt lat="47.25675" lon="-1.66062">
        <ele>53.2</ele>
        <time>2014-10-12T07:29:34Z</time>
      </trkpt>
      <trkpt lat="47.25676" lon="-1.66057">
        <ele>53.3</ele>
        <time>2014-10-12T07:29:35Z</time>
      </trkpt>
      <trkpt lat="47.25678" lon="-1.66049">
        <ele>53.5</ele>
        <time>2014-10-12T07:29:37Z</time>
      </trkpt>
      <trkpt lat="47.2568" lon="-1.66044">
        <ele>53.6</ele>
        <time>2014-10-12T07:29:38Z</time>
      </trkpt>
      <trkpt lat="47.25682" lon="-1.6604">
        <ele>53.8</ele>
        <time>2014-10-12T07:29:39Z</time>
      </trkpt>
      <trkpt lat="47.25684" lon="-1.66034">
        <ele>53.9</ele>
        <time>2014-10-12T07:29:41Z</time>
      </trkpt>
      <trkpt lat="47.25686" lon="-1.66026">
        <ele>54.1</ele>
        <time>2014-10-12T07:29:43Z</time>
      </trkpt>
      <trkpt lat="47.25688" lon="-1.66022">
        <ele>54.2</ele>
        <time>2014-10-12T07:29:44Z</time>
      </trkpt>
      <trkpt lat="47.2569" lon="-1.66018">
        <ele>54.4</ele>
        <time>2014-10-12T07:29:45Z</time>
      </trkpt>
      <trkpt lat="47.25692" lon="-1.66014">
        <ele>54.5</ele>
        <time>2014-10-12T07:29:46Z</time>
      </trkpt>
      <trkpt lat="47.25694" lon="-1.66009">
        <ele>54.7</ele>
        <time>2014-10-12T07:29:47Z</time>
      </trkpt>
      <trkpt lat="47.25696" lon="-1.66006">
        <ele>54.8</ele>
        <time>2014-10-12T07:29:48Z</time>
      </trkpt>
      <trkpt lat="47.25698" lon="-1.66002">
        <ele>55</ele>
        <time>2014-10-12T07:29:49Z</time>
      </trkpt>
      <trkpt lat="47.257" lon="-1.65998">
        <ele>55.1</ele>
        <time>2014-10-12T07:29:50Z</time>
      </trkpt>
      <trkpt lat="47.25703" lon="-1.65993">
        <ele>55.3</ele>
        <time>2014-10-12T07:29:51Z</time>
      </trkpt>
      <trkpt lat="47.25705" lon="-1.65989">
        <ele>55.5</ele>
        <time>2014-10-12T07:29:52Z</time>
      </trkpt>
      <trkpt lat="47.25707" lon="-1.65985">
        <ele>55.6</ele>
        <time>2014-10-12T07:29:53Z</time>
      </trkpt>
      <trkpt lat="47.25709" lon="-1.65981">
        <ele>55.7</ele>
        <time>2014-10-12T07:29:54Z</time>
      </trkpt>
      <trkpt lat="47.25711" lon="-1.65977">
        <ele>55.8</ele>
        <time>2014-10-12T07:29:55Z</time>
      </trkpt>
      <trkpt lat="47.25712" lon="-1.65969">
        <ele>55.9</ele>
        <time>2014-10-12T07:29:56Z</time>
      </trkpt>
      <trkpt lat="47.25713" lon="-1.65966">
        <ele>55.9</ele>
        <time>2014-10-12T07:29:57Z</time>
      </trkpt>
      <trkpt lat="47.25715" lon="-1.65961">
        <ele>56</ele>
        <time>2014-10-12T07:29:58Z</time>
      </trkpt>
      <trkpt lat="47.25718" lon="-1.65956">
        <ele>56</ele>
        <time>2014-10-12T07:29:59Z</time>
      </trkpt>
      <trkpt lat="47.25721" lon="-1.65949">
        <ele>56.1</ele>
        <time>2014-10-12T07:30:00Z</time>
      </trkpt>
      <trkpt lat="47.25724" lon="-1.65944">
        <ele>56.1</ele>
        <time>2014-10-12T07:30:01Z</time>
      </trkpt>
      <trkpt lat="47.25726" lon="-1.65939">
        <ele>56.1</ele>
        <time>2014-10-12T07:30:02Z</time>
      </trkpt>
      <trkpt lat="47.25728" lon="-1.65935">
        <ele>56.2</ele>
        <time>2014-10-12T07:30:03Z</time>
      </trkpt>
      <trkpt lat="47.2573" lon="-1.65929">
        <ele>56.3</ele>
        <time>2014-10-12T07:30:04Z</time>
      </trkpt>
      <trkpt lat="47.25731" lon="-1.65924">
        <ele>56.3</ele>
        <time>2014-10-12T07:30:05Z</time>
      </trkpt>
      <trkpt lat="47.25734" lon="-1.65919">
        <ele>56.4</ele>
        <time>2014-10-12T07:30:06Z</time>
      </trkpt>
      <trkpt lat="47.25737" lon="-1.65915">
        <ele>56.5</ele>
        <time>2014-10-12T07:30:07Z</time>
      </trkpt>
      <trkpt lat="47.25739" lon="-1.6591">
        <ele>56.6</ele>
        <time>2014-10-12T07:30:08Z</time>
      </trkpt>
      <trkpt lat="47.25741" lon="-1.65906">
        <ele>56.7</ele>
        <time>2014-10-12T07:30:09Z</time>
      </trkpt>
      <trkpt lat="47.25743" lon="-1.65903">
        <ele>56.8</ele>
        <time>2014-10-12T07:30:10Z</time>
      </trkpt>
      <trkpt lat="47.25747" lon="-1.65895">
        <ele>57.1</ele>
        <time>2014-10-12T07:30:12Z</time>
      </trkpt>
      <trkpt lat="47.2575" lon="-1.6589">
        <ele>57.2</ele>
        <time>2014-10-12T07:30:13Z</time>
      </trkpt>
      <trkpt lat="47.25751" lon="-1.65886">
        <ele>57.4</ele>
        <time>2014-10-12T07:30:14Z</time>
      </trkpt>
      <trkpt lat="47.25753" lon="-1.6588">
        <ele>57.5</ele>
        <time>2014-10-12T07:30:15Z</time>
      </trkpt>
      <trkpt lat="47.25755" lon="-1.65874">
        <ele>57.7</ele>
        <time>2014-10-12T07:30:16Z</time>
      </trkpt>
      <trkpt lat="47.25758" lon="-1.65868">
        <ele>57.7</ele>
        <time>2014-10-12T07:30:17Z</time>
      </trkpt>
      <trkpt lat="47.2576" lon="-1.65862">
        <ele>57.8</ele>
        <time>2014-10-12T07:30:18Z</time>
      </trkpt>
      <trkpt lat="47.25763" lon="-1.65856">
        <ele>57.9</ele>
        <time>2014-10-12T07:30:19Z</time>
      </trkpt>
      <trkpt lat="47.25766" lon="-1.65851">
        <ele>58</ele>
        <time>2014-10-12T07:30:20Z</time>
      </trkpt>
      <trkpt lat="47.25769" lon="-1.65846">
        <ele>58.1</ele>
        <time>2014-10-12T07:30:21Z</time>
      </trkpt>
      <trkpt lat="47.25772" lon="-1.6584">
        <ele>58.2</ele>
        <time>2014-10-12T07:30:22Z</time>
      </trkpt>
      <trkpt lat="47.25775" lon="-1.65835">
        <ele>58.3</ele>
        <time>2014-10-12T07:30:23Z</time>
      </trkpt>
      <trkpt lat="47.25777" lon="-1.6583">
        <ele>58.4</ele>
        <time>2014-10-12T07:30:24Z</time>
      </trkpt>
      <trkpt lat="47.2578" lon="-1.65826">
        <ele>58.5</ele>
        <time>2014-10-12T07:30:25Z</time>
      </trkpt>
      <trkpt lat="47.25782" lon="-1.65821">
        <ele>58.6</ele>
        <time>2014-10-12T07:30:26Z</time>
      </trkpt>
      <trkpt lat="47.25786" lon="-1.65817">
        <ele>58.7</ele>
        <time>2014-10-12T07:30:27Z</time>
      </trkpt>
      <trkpt lat="47.25788" lon="-1.65812">
        <ele>58.8</ele>
        <time>2014-10-12T07:30:28Z</time>
      </trkpt>
      <trkpt lat="47.2579" lon="-1.65809">
        <ele>58.9</ele>
        <time>2014-10-12T07:30:29Z</time>
      </trkpt>
      <trkpt lat="47.25792" lon="-1.65805">
        <ele>59</ele>
        <time>2014-10-12T07:30:30Z</time>
      </trkpt>
      <trkpt lat="47.25795" lon="-1.65801">
        <ele>59</ele>
        <time>2014-10-12T07:30:31Z</time>
      </trkpt>
      <trkpt lat="47.25797" lon="-1.65797">
        <ele>59.1</ele>
        <time>2014-10-12T07:30:32Z</time>
      </trkpt>
      <trkpt lat="47.25799" lon="-1.65793">
        <ele>59.1</ele>
        <time>2014-10-12T07:30:33Z</time>
      </trkpt>
      <trkpt lat="47.25802" lon="-1.65789">
        <ele>59.2</ele>
        <time>2014-10-12T07:30:34Z</time>
      </trkpt>
      <trkpt lat="47.25804" lon="-1.65785">
        <ele>59.2</ele>
        <time>2014-10-12T07:30:35Z</time>
      </trkpt>
      <trkpt lat="47.25805" lon="-1.65781">
        <ele>59.3</ele>
        <time>2014-10-12T07:30:36Z</time>
      </trkpt>
      <trkpt lat="47.25807" lon="-1.65777">
        <ele>59.4</ele>
        <time>2014-10-12T07:30:37Z</time>
      </trkpt>
      <trkpt lat="47.25809" lon="-1.65773">
        <ele>59.5</ele>
        <time>2014-10-12T07:30:38Z</time>
      </trkpt>
      <trkpt lat="47.2581" lon="-1.65769">
        <ele>59.6</ele>
        <time>2014-10-12T07:30:39Z</time>
      </trkpt>
      <trkpt lat="47.25813" lon="-1.65763">
        <ele>59.7</ele>
        <time>2014-10-12T07:30:41Z</time>
      </trkpt>
      <trkpt lat="47.25815" lon="-1.65759">
        <ele>59.8</ele>
        <time>2014-10-12T07:30:42Z</time>
      </trkpt>
      <trkpt lat="47.25817" lon="-1.65756">
        <ele>59.9</ele>
        <time>2014-10-12T07:30:43Z</time>
      </trkpt>
      <trkpt lat="47.25819" lon="-1.6575">
        <ele>60</ele>
        <time>2014-10-12T07:30:44Z</time>
      </trkpt>
      <trkpt lat="47.25822" lon="-1.65744">
        <ele>60.2</ele>
        <time>2014-10-12T07:30:45Z</time>
      </trkpt>
      <trkpt lat="47.25825" lon="-1.65739">
        <ele>60.3</ele>
        <time>2014-10-12T07:30:46Z</time>
      </trkpt>
      <trkpt lat="47.25826" lon="-1.65735">
        <ele>60.4</ele>
        <time>2014-10-12T07:30:47Z</time>
      </trkpt>
      <trkpt lat="47.25828" lon="-1.6573">
        <ele>60.5</ele>
        <time>2014-10-12T07:30:48Z</time>
      </trkpt>
      <trkpt lat="47.25831" lon="-1.65725">
        <ele>60.7</ele>
        <time>2014-10-12T07:30:49Z</time>
      </trkpt>
      <trkpt lat="47.25834" lon="-1.6572">
        <ele>60.8</ele>
        <time>2014-10-12T07:30:50Z</time>
      </trkpt>
      <trkpt lat="47.25837" lon="-1.65715">
        <ele>61</ele>
        <time>2014-10-12T07:30:51Z</time>
      </trkpt>
      <trkpt lat="47.25839" lon="-1.6571">
        <ele>61.1</ele>
        <time>2014-10-12T07:30:52Z</time>
      </trkpt>
      <trkpt lat="47.25841" lon="-1.65705">
        <ele>61.2</ele>
        <time>2014-10-12T07:30:53Z</time>
      </trkpt>
      <trkpt lat="47.25844" lon="-1.657">
        <ele>61.4</ele>
        <time>2014-10-12T07:30:54Z</time>
      </trkpt>
      <trkpt lat="47.25847" lon="-1.65695">
        <ele>61.5</ele>
        <time>2014-10-12T07:30:55Z</time>
      </trkpt>
      <trkpt lat="47.25849" lon="-1.65691">
        <ele>61.7</ele>
        <time>2014-10-12T07:30:56Z</time>
      </trkpt>
      <trkpt lat="47.2585" lon="-1.65687">
        <ele>61.7</ele>
        <time>2014-10-12T07:30:57Z</time>
      </trkpt>
      <trkpt lat="47.25851" lon="-1.65682">
        <ele>61.8</ele>
        <time>2014-10-12T07:30:58Z</time>
      </trkpt>
      <trkpt lat="47.25853" lon="-1.65677">
        <ele>61.9</ele>
        <time>2014-10-12T07:30:59Z</time>
      </trkpt>
      <trkpt lat="47.25855" lon="-1.65672">
        <ele>62.1</ele>
        <time>2014-10-12T07:31:00Z</time>
      </trkpt>
      <trkpt lat="47.25858" lon="-1.65668">
        <ele>62.2</ele>
        <time>2014-10-12T07:31:01Z</time>
      </trkpt>
      <trkpt lat="47.2586" lon="-1.65662">
        <ele>62.3</ele>
        <time>2014-10-12T07:31:02Z</time>
      </trkpt>
      <trkpt lat="47.25863" lon="-1.65658">
        <ele>62.4</ele>
        <time>2014-10-12T07:31:03Z</time>
      </trkpt>
      <trkpt lat="47.25865" lon="-1.65655">
        <ele>62.5</ele>
        <time>2014-10-12T07:31:04Z</time>
      </trkpt>
      <trkpt lat="47.25867" lon="-1.65651">
        <ele>62.6</ele>
        <time>2014-10-12T07:31:05Z</time>
      </trkpt>
      <trkpt lat="47.25869" lon="-1.65646">
        <ele>62.7</ele>
        <time>2014-10-12T07:31:06Z</time>
      </trkpt>
      <trkpt lat="47.25871" lon="-1.65642">
        <ele>62.7</ele>
        <time>2014-10-12T07:31:07Z</time>
      </trkpt>
      <trkpt lat="47.25873" lon="-1.65636">
        <ele>62.8</ele>
        <time>2014-10-12T07:31:08Z</time>
      </trkpt>
      <trkpt lat="47.25875" lon="-1.65631">
        <ele>62.9</ele>
        <time>2014-10-12T07:31:09Z</time>
      </trkpt>
      <trkpt lat="47.25877" lon="-1.65627">
        <ele>63</ele>
        <time>2014-10-12T07:31:10Z</time>
      </trkpt>
      <trkpt lat="47.25879" lon="-1.65622">
        <ele>62.9</ele>
        <time>2014-10-12T07:31:11Z</time>
      </trkpt>
      <trkpt lat="47.25882" lon="-1.65616">
        <ele>62.8</ele>
        <time>2014-10-12T07:31:12Z</time>
      </trkpt>
      <trkpt lat="47.25885" lon="-1.65611">
        <ele>62.7</ele>
        <time>2014-10-12T07:31:13Z</time>
      </trkpt>
      <trkpt lat="47.25888" lon="-1.65606">
        <ele>62.6</ele>
        <time>2014-10-12T07:31:14Z</time>
      </trkpt>
      <trkpt lat="47.25891" lon="-1.65601">
        <ele>62.5</ele>
        <time>2014-10-12T07:31:15Z</time>
      </trkpt>
      <trkpt lat="47.25893" lon="-1.65596">
        <ele>62.5</ele>
        <time>2014-10-12T07:31:16Z</time>
      </trkpt>
      <trkpt lat="47.25896" lon="-1.65592">
        <ele>62.4</ele>
        <time>2014-10-12T07:31:17Z</time>
      </trkpt>
      <trkpt lat="47.25898" lon="-1.65587">
        <ele>62.3</ele>
        <time>2014-10-12T07:31:18Z</time>
      </trkpt>
      <trkpt lat="47.259" lon="-1.65583">
        <ele>62.3</ele>
        <time>2014-10-12T07:31:19Z</time>
      </trkpt>
      <trkpt lat="47.25902" lon="-1.65578">
        <ele>62.2</ele>
        <time>2014-10-12T07:31:20Z</time>
      </trkpt>
      <trkpt lat="47.25904" lon="-1.65573">
        <ele>62.2</ele>
        <time>2014-10-12T07:31:21Z</time>
      </trkpt>
      <trkpt lat="47.25906" lon="-1.65569">
        <ele>62.1</ele>
        <time>2014-10-12T07:31:22Z</time>
      </trkpt>
      <trkpt lat="47.25908" lon="-1.65564">
        <ele>62.1</ele>
        <time>2014-10-12T07:31:23Z</time>
      </trkpt>
      <trkpt lat="47.2591" lon="-1.6556">
        <ele>62.1</ele>
        <time>2014-10-12T07:31:24Z</time>
      </trkpt>
      <trkpt lat="47.25912" lon="-1.65555">
        <ele>62.1</ele>
        <time>2014-10-12T07:31:25Z</time>
      </trkpt>
      <trkpt lat="47.25914" lon="-1.65551">
        <ele>62.1</ele>
        <time>2014-10-12T07:31:26Z</time>
      </trkpt>
      <trkpt lat="47.25916" lon="-1.65546">
        <ele>62</ele>
        <time>2014-10-12T07:31:27Z</time>
      </trkpt>
      <trkpt lat="47.25918" lon="-1.65543">
        <ele>62</ele>
        <time>2014-10-12T07:31:28Z</time>
      </trkpt>
      <trkpt lat="47.25921" lon="-1.65538">
        <ele>62.1</ele>
        <time>2014-10-12T07:31:29Z</time>
      </trkpt>
      <trkpt lat="47.25923" lon="-1.65533">
        <ele>62.2</ele>
        <time>2014-10-12T07:31:30Z</time>
      </trkpt>
      <trkpt lat="47.25925" lon="-1.6553">
        <ele>62.3</ele>
        <time>2014-10-12T07:31:31Z</time>
      </trkpt>
      <trkpt lat="47.25928" lon="-1.65526">
        <ele>62.4</ele>
        <time>2014-10-12T07:31:32Z</time>
      </trkpt>
      <trkpt lat="47.2593" lon="-1.65523">
        <ele>62.5</ele>
        <time>2014-10-12T07:31:33Z</time>
      </trkpt>
      <trkpt lat="47.25932" lon="-1.6552">
        <ele>62.5</ele>
        <time>2014-10-12T07:31:34Z</time>
      </trkpt>
      <trkpt lat="47.25934" lon="-1.65517">
        <ele>62.6</ele>
        <time>2014-10-12T07:31:35Z</time>
      </trkpt>
      <trkpt lat="47.25935" lon="-1.65513">
        <ele>62.7</ele>
        <time>2014-10-12T07:31:36Z</time>
      </trkpt>
      <trkpt lat="47.25936" lon="-1.65509">
        <ele>62.8</ele>
        <time>2014-10-12T07:31:37Z</time>
      </trkpt>
      <trkpt lat="47.25938" lon="-1.65505">
        <ele>62.8</ele>
        <time>2014-10-12T07:31:38Z</time>
      </trkpt>
      <trkpt lat="47.2594" lon="-1.65502">
        <ele>62.9</ele>
        <time>2014-10-12T07:31:39Z</time>
      </trkpt>
      <trkpt lat="47.25942" lon="-1.65495">
        <ele>63.1</ele>
        <time>2014-10-12T07:31:41Z</time>
      </trkpt>
      <trkpt lat="47.25943" lon="-1.65488">
        <ele>63.2</ele>
        <time>2014-10-12T07:31:43Z</time>
      </trkpt>
      <trkpt lat="47.25943" lon="-1.65484">
        <ele>63.2</ele>
        <time>2014-10-12T07:31:44Z</time>
      </trkpt>
      <trkpt lat="47.25943" lon="-1.65479">
        <ele>63.2</ele>
        <time>2014-10-12T07:31:45Z</time>
      </trkpt>
      <trkpt lat="47.25943" lon="-1.65473">
        <ele>63.3</ele>
        <time>2014-10-12T07:31:46Z</time>
      </trkpt>
      <trkpt lat="47.25945" lon="-1.65468">
        <ele>63.4</ele>
        <time>2014-10-12T07:31:47Z</time>
      </trkpt>
      <trkpt lat="47.25947" lon="-1.65463">
        <ele>63.5</ele>
        <time>2014-10-12T07:31:48Z</time>
      </trkpt>
      <trkpt lat="47.25948" lon="-1.65457">
        <ele>63.6</ele>
        <time>2014-10-12T07:31:49Z</time>
      </trkpt>
      <trkpt lat="47.25949" lon="-1.65451">
        <ele>63.7</ele>
        <time>2014-10-12T07:31:50Z</time>
      </trkpt>
      <trkpt lat="47.25949" lon="-1.65445">
        <ele>63.7</ele>
        <time>2014-10-12T07:31:51Z</time>
      </trkpt>
      <trkpt lat="47.2595" lon="-1.65439">
        <ele>63.7</ele>
        <time>2014-10-12T07:31:52Z</time>
      </trkpt>
      <trkpt lat="47.2595" lon="-1.65433">
        <ele>63.7</ele>
        <time>2014-10-12T07:31:53Z</time>
      </trkpt>
      <trkpt lat="47.25951" lon="-1.65428">
        <ele>63.7</ele>
        <time>2014-10-12T07:31:54Z</time>
      </trkpt>
      <trkpt lat="47.25953" lon="-1.65423">
        <ele>63.8</ele>
        <time>2014-10-12T07:31:55Z</time>
      </trkpt>
      <trkpt lat="47.25955" lon="-1.65414">
        <ele>63.9</ele>
        <time>2014-10-12T07:31:57Z</time>
      </trkpt>
      <trkpt lat="47.25956" lon="-1.65409">
        <ele>63.9</ele>
        <time>2014-10-12T07:31:58Z</time>
      </trkpt>
      <trkpt lat="47.25958" lon="-1.65404">
        <ele>64</ele>
        <time>2014-10-12T07:31:59Z</time>
      </trkpt>
      <trkpt lat="47.2596" lon="-1.65398">
        <ele>64</ele>
        <time>2014-10-12T07:32:00Z</time>
      </trkpt>
      <trkpt lat="47.25961" lon="-1.65392">
        <ele>64.1</ele>
        <time>2014-10-12T07:32:01Z</time>
      </trkpt>
      <trkpt lat="47.25964" lon="-1.65386">
        <ele>64.1</ele>
        <time>2014-10-12T07:32:02Z</time>
      </trkpt>
      <trkpt lat="47.25966" lon="-1.65381">
        <ele>64.2</ele>
        <time>2014-10-12T07:32:03Z</time>
      </trkpt>
      <trkpt lat="47.25967" lon="-1.65378">
        <ele>64.2</ele>
        <time>2014-10-12T07:32:04Z</time>
      </trkpt>
      <trkpt lat="47.2597" lon="-1.65374">
        <ele>64.3</ele>
        <time>2014-10-12T07:32:05Z</time>
      </trkpt>
      <trkpt lat="47.25973" lon="-1.65371">
        <ele>64.4</ele>
        <time>2014-10-12T07:32:06Z</time>
      </trkpt>
      <trkpt lat="47.25976" lon="-1.65369">
        <ele>64.5</ele>
        <time>2014-10-12T07:32:07Z</time>
      </trkpt>
      <trkpt lat="47.25979" lon="-1.65366">
        <ele>64.6</ele>
        <time>2014-10-12T07:32:08Z</time>
      </trkpt>
      <trkpt lat="47.25982" lon="-1.65364">
        <ele>64.7</ele>
        <time>2014-10-12T07:32:09Z</time>
      </trkpt>
      <trkpt lat="47.25985" lon="-1.65361">
        <ele>64.8</ele>
        <time>2014-10-12T07:32:10Z</time>
      </trkpt>
      <trkpt lat="47.25988" lon="-1.65357">
        <ele>64.8</ele>
        <time>2014-10-12T07:32:11Z</time>
      </trkpt>
      <trkpt lat="47.25991" lon="-1.65353">
        <ele>64.9</ele>
        <time>2014-10-12T07:32:12Z</time>
      </trkpt>
      <trkpt lat="47.25993" lon="-1.65349">
        <ele>65</ele>
        <time>2014-10-12T07:32:13Z</time>
      </trkpt>
      <trkpt lat="47.25996" lon="-1.65344">
        <ele>65.1</ele>
        <time>2014-10-12T07:32:14Z</time>
      </trkpt>
      <trkpt lat="47.25998" lon="-1.6534">
        <ele>65.2</ele>
        <time>2014-10-12T07:32:15Z</time>
      </trkpt>
      <trkpt lat="47.26" lon="-1.65335">
        <ele>65.2</ele>
        <time>2014-10-12T07:32:16Z</time>
      </trkpt>
      <trkpt lat="47.26003" lon="-1.6533">
        <ele>65.3</ele>
        <time>2014-10-12T07:32:17Z</time>
      </trkpt>
      <trkpt lat="47.26006" lon="-1.65325">
        <ele>65.4</ele>
        <time>2014-10-12T07:32:18Z</time>
      </trkpt>
      <trkpt lat="47.26009" lon="-1.6532">
        <ele>65.5</ele>
        <time>2014-10-12T07:32:19Z</time>
      </trkpt>
      <trkpt lat="47.26012" lon="-1.65315">
        <ele>65.5</ele>
        <time>2014-10-12T07:32:20Z</time>
      </trkpt>
      <trkpt lat="47.26015" lon="-1.65311">
        <ele>65.6</ele>
        <time>2014-10-12T07:32:21Z</time>
      </trkpt>
      <trkpt lat="47.26018" lon="-1.65307">
        <ele>65.7</ele>
        <time>2014-10-12T07:32:22Z</time>
      </trkpt>
      <trkpt lat="47.26022" lon="-1.65303">
        <ele>65.7</ele>
        <time>2014-10-12T07:32:23Z</time>
      </trkpt>
      <trkpt lat="47.26026" lon="-1.653">
        <ele>65.8</ele>
        <time>2014-10-12T07:32:24Z</time>
      </trkpt>
      <trkpt lat="47.2603" lon="-1.65297">
        <ele>65.8</ele>
        <time>2014-10-12T07:32:25Z</time>
      </trkpt>
      <trkpt lat="47.26034" lon="-1.65295">
        <ele>65.9</ele>
        <time>2014-10-12T07:32:26Z</time>
      </trkpt>
      <trkpt lat="47.26037" lon="-1.65293">
        <ele>65.9</ele>
        <time>2014-10-12T07:32:27Z</time>
      </trkpt>
      <trkpt lat="47.26041" lon="-1.65291">
        <ele>66</ele>
        <time>2014-10-12T07:32:28Z</time>
      </trkpt>
      <trkpt lat="47.26045" lon="-1.65289">
        <ele>66</ele>
        <time>2014-10-12T07:32:29Z</time>
      </trkpt>
      <trkpt lat="47.26049" lon="-1.65287">
        <ele>66</ele>
        <time>2014-10-12T07:32:30Z</time>
      </trkpt>
      <trkpt lat="47.26053" lon="-1.65285">
        <ele>66.1</ele>
        <time>2014-10-12T07:32:31Z</time>
      </trkpt>
      <trkpt lat="47.26057" lon="-1.65284">
        <ele>66.1</ele>
        <time>2014-10-12T07:32:32Z</time>
      </trkpt>
      <trkpt lat="47.26061" lon="-1.65282">
        <ele>66.1</ele>
        <time>2014-10-12T07:32:33Z</time>
      </trkpt>
      <trkpt lat="47.26065" lon="-1.65281">
        <ele>66.1</ele>
        <time>2014-10-12T07:32:34Z</time>
      </trkpt>
      <trkpt lat="47.2607" lon="-1.65279">
        <ele>66.1</ele>
        <time>2014-10-12T07:32:35Z</time>
      </trkpt>
      <trkpt lat="47.26074" lon="-1.65278">
        <ele>66</ele>
        <time>2014-10-12T07:32:36Z</time>
      </trkpt>
      <trkpt lat="47.26078" lon="-1.65276">
        <ele>66</ele>
        <time>2014-10-12T07:32:37Z</time>
      </trkpt>
      <trkpt lat="47.26082" lon="-1.65274">
        <ele>66</ele>
        <time>2014-10-12T07:32:38Z</time>
      </trkpt>
      <trkpt lat="47.26085" lon="-1.65273">
        <ele>66</ele>
        <time>2014-10-12T07:32:39Z</time>
      </trkpt>
      <trkpt lat="47.2609" lon="-1.65272">
        <ele>66</ele>
        <time>2014-10-12T07:32:40Z</time>
      </trkpt>
      <trkpt lat="47.26094" lon="-1.6527">
        <ele>65.9</ele>
        <time>2014-10-12T07:32:41Z</time>
      </trkpt>
      <trkpt lat="47.26099" lon="-1.65268">
        <ele>65.9</ele>
        <time>2014-10-12T07:32:42Z</time>
      </trkpt>
      <trkpt lat="47.26103" lon="-1.65267">
        <ele>65.9</ele>
        <time>2014-10-12T07:32:43Z</time>
      </trkpt>
      <trkpt lat="47.26108" lon="-1.65265">
        <ele>65.8</ele>
        <time>2014-10-12T07:32:44Z</time>
      </trkpt>
      <trkpt lat="47.26112" lon="-1.65264">
        <ele>65.8</ele>
        <time>2014-10-12T07:32:45Z</time>
      </trkpt>
      <trkpt lat="47.26116" lon="-1.65262">
        <ele>65.7</ele>
        <time>2014-10-12T07:32:46Z</time>
      </trkpt>
      <trkpt lat="47.26121" lon="-1.6526">
        <ele>65.7</ele>
        <time>2014-10-12T07:32:47Z</time>
      </trkpt>
      <trkpt lat="47.26125" lon="-1.65258">
        <ele>65.6</ele>
        <time>2014-10-12T07:32:48Z</time>
      </trkpt>
      <trkpt lat="47.2613" lon="-1.65256">
        <ele>65.6</ele>
        <time>2014-10-12T07:32:49Z</time>
      </trkpt>
      <trkpt lat="47.26134" lon="-1.65254">
        <ele>65.6</ele>
        <time>2014-10-12T07:32:50Z</time>
      </trkpt>
      <trkpt lat="47.26139" lon="-1.65252">
        <ele>65.7</ele>
        <time>2014-10-12T07:32:51Z</time>
      </trkpt>
      <trkpt lat="47.26144" lon="-1.6525">
        <ele>65.7</ele>
        <time>2014-10-12T07:32:52Z</time>
      </trkpt>
      <trkpt lat="47.26148" lon="-1.65249">
        <ele>65.8</ele>
        <time>2014-10-12T07:32:53Z</time>
      </trkpt>
      <trkpt lat="47.26153" lon="-1.65247">
        <ele>65.8</ele>
        <time>2014-10-12T07:32:54Z</time>
      </trkpt>
      <trkpt lat="47.26157" lon="-1.65244">
        <ele>65.9</ele>
        <time>2014-10-12T07:32:55Z</time>
      </trkpt>
      <trkpt lat="47.26161" lon="-1.65243">
        <ele>65.9</ele>
        <time>2014-10-12T07:32:56Z</time>
      </trkpt>
      <trkpt lat="47.26165" lon="-1.65241">
        <ele>66</ele>
        <time>2014-10-12T07:32:57Z</time>
      </trkpt>
      <trkpt lat="47.2617" lon="-1.65239">
        <ele>66</ele>
        <time>2014-10-12T07:32:58Z</time>
      </trkpt>
      <trkpt lat="47.26174" lon="-1.65237">
        <ele>66.1</ele>
        <time>2014-10-12T07:32:59Z</time>
      </trkpt>
      <trkpt lat="47.26177" lon="-1.65236">
        <ele>66.2</ele>
        <time>2014-10-12T07:33:00Z</time>
      </trkpt>
      <trkpt lat="47.26182" lon="-1.65234">
        <ele>66.3</ele>
        <time>2014-10-12T07:33:01Z</time>
      </trkpt>
      <trkpt lat="47.26186" lon="-1.65232">
        <ele>66.3</ele>
        <time>2014-10-12T07:33:02Z</time>
      </trkpt>
      <trkpt lat="47.2619" lon="-1.6523">
        <ele>66.4</ele>
        <time>2014-10-12T07:33:03Z</time>
      </trkpt>
      <trkpt lat="47.26194" lon="-1.65228">
        <ele>66.5</ele>
        <time>2014-10-12T07:33:04Z</time>
      </trkpt>
      <trkpt lat="47.26197" lon="-1.65227">
        <ele>66.6</ele>
        <time>2014-10-12T07:33:05Z</time>
      </trkpt>
      <trkpt lat="47.26202" lon="-1.65227">
        <ele>66.6</ele>
        <time>2014-10-12T07:33:06Z</time>
      </trkpt>
      <trkpt lat="47.26206" lon="-1.65228">
        <ele>66.7</ele>
        <time>2014-10-12T07:33:07Z</time>
      </trkpt>
      <trkpt lat="47.2621" lon="-1.6523">
        <ele>66.7</ele>
        <time>2014-10-12T07:33:08Z</time>
      </trkpt>
      <trkpt lat="47.26213" lon="-1.65232">
        <ele>66.6</ele>
        <time>2014-10-12T07:33:09Z</time>
      </trkpt>
      <trkpt lat="47.26217" lon="-1.65235">
        <ele>66.5</ele>
        <time>2014-10-12T07:33:10Z</time>
      </trkpt>
      <trkpt lat="47.26221" lon="-1.65236">
        <ele>66.4</ele>
        <time>2014-10-12T07:33:11Z</time>
      </trkpt>
      <trkpt lat="47.26226" lon="-1.65237">
        <ele>66.3</ele>
        <time>2014-10-12T07:33:12Z</time>
      </trkpt>
      <trkpt lat="47.2623" lon="-1.65236">
        <ele>66.2</ele>
        <time>2014-10-12T07:33:13Z</time>
      </trkpt>
      <trkpt lat="47.26234" lon="-1.65235">
        <ele>66.2</ele>
        <time>2014-10-12T07:33:14Z</time>
      </trkpt>
      <trkpt lat="47.26238" lon="-1.65234">
        <ele>66.1</ele>
        <time>2014-10-12T07:33:15Z</time>
      </trkpt>
      <trkpt lat="47.26242" lon="-1.65232">
        <ele>66.1</ele>
        <time>2014-10-12T07:33:16Z</time>
      </trkpt>
      <trkpt lat="47.26247" lon="-1.65233">
        <ele>66</ele>
        <time>2014-10-12T07:33:17Z</time>
      </trkpt>
      <trkpt lat="47.26252" lon="-1.65232">
        <ele>65.9</ele>
        <time>2014-10-12T07:33:18Z</time>
      </trkpt>
      <trkpt lat="47.26256" lon="-1.65232">
        <ele>65.8</ele>
        <time>2014-10-12T07:33:19Z</time>
      </trkpt>
      <trkpt lat="47.2626" lon="-1.65231">
        <ele>65.8</ele>
        <time>2014-10-12T07:33:20Z</time>
      </trkpt>
      <trkpt lat="47.26263" lon="-1.65231">
        <ele>65.7</ele>
        <time>2014-10-12T07:33:21Z</time>
      </trkpt>
      <trkpt lat="47.26266" lon="-1.65229">
        <ele>65.7</ele>
        <time>2014-10-12T07:33:22Z</time>
      </trkpt>
      <trkpt lat="47.26269" lon="-1.65227">
        <ele>65.7</ele>
        <time>2014-10-12T07:33:23Z</time>
      </trkpt>
      <trkpt lat="47.26272" lon="-1.65225">
        <ele>65.7</ele>
        <time>2014-10-12T07:33:24Z</time>
      </trkpt>
      <trkpt lat="47.26276" lon="-1.65224">
        <ele>65.7</ele>
        <time>2014-10-12T07:33:25Z</time>
      </trkpt>
      <trkpt lat="47.2628" lon="-1.65223">
        <ele>65.7</ele>
        <time>2014-10-12T07:33:26Z</time>
      </trkpt>
      <trkpt lat="47.26285" lon="-1.65223">
        <ele>65.6</ele>
        <time>2014-10-12T07:33:27Z</time>
      </trkpt>
      <trkpt lat="47.26289" lon="-1.65222">
        <ele>65.6</ele>
        <time>2014-10-12T07:33:28Z</time>
      </trkpt>
      <trkpt lat="47.26293" lon="-1.65222">
        <ele>65.5</ele>
        <time>2014-10-12T07:33:29Z</time>
      </trkpt>
      <trkpt lat="47.26297" lon="-1.65222">
        <ele>65.4</ele>
        <time>2014-10-12T07:33:30Z</time>
      </trkpt>
      <trkpt lat="47.26302" lon="-1.65221">
        <ele>65.3</ele>
        <time>2014-10-12T07:33:31Z</time>
      </trkpt>
      <trkpt lat="47.26306" lon="-1.65221">
        <ele>65.2</ele>
        <time>2014-10-12T07:33:32Z</time>
      </trkpt>
      <trkpt lat="47.26314" lon="-1.6522">
        <ele>65</ele>
        <time>2014-10-12T07:33:33Z</time>
      </trkpt>
      <trkpt lat="47.2632" lon="-1.65216">
        <ele>65</ele>
        <time>2014-10-12T07:33:34Z</time>
      </trkpt>
      <trkpt lat="47.26326" lon="-1.65215">
        <ele>64.9</ele>
        <time>2014-10-12T07:33:35Z</time>
      </trkpt>
      <trkpt lat="47.26331" lon="-1.65214">
        <ele>64.9</ele>
        <time>2014-10-12T07:33:36Z</time>
      </trkpt>
      <trkpt lat="47.26337" lon="-1.65216">
        <ele>64.7</ele>
        <time>2014-10-12T07:33:37Z</time>
      </trkpt>
      <trkpt lat="47.26342" lon="-1.65216">
        <ele>64.5</ele>
        <time>2014-10-12T07:33:38Z</time>
      </trkpt>
      <trkpt lat="47.26347" lon="-1.65217">
        <ele>64.4</ele>
        <time>2014-10-12T07:33:39Z</time>
      </trkpt>
      <trkpt lat="47.26351" lon="-1.65218">
        <ele>64.2</ele>
        <time>2014-10-12T07:33:40Z</time>
      </trkpt>
      <trkpt lat="47.26356" lon="-1.65219">
        <ele>64.1</ele>
        <time>2014-10-12T07:33:41Z</time>
      </trkpt>
      <trkpt lat="47.26362" lon="-1.65219">
        <ele>63.9</ele>
        <time>2014-10-12T07:33:42Z</time>
      </trkpt>
      <trkpt lat="47.26366" lon="-1.6522">
        <ele>63.8</ele>
        <time>2014-10-12T07:33:43Z</time>
      </trkpt>
      <trkpt lat="47.26371" lon="-1.65221">
        <ele>63.7</ele>
        <time>2014-10-12T07:33:44Z</time>
      </trkpt>
      <trkpt lat="47.26376" lon="-1.65221">
        <ele>63.5</ele>
        <time>2014-10-12T07:33:45Z</time>
      </trkpt>
      <trkpt lat="47.26381" lon="-1.65222">
        <ele>63.4</ele>
        <time>2014-10-12T07:33:46Z</time>
      </trkpt>
      <trkpt lat="47.26386" lon="-1.65223">
        <ele>63.2</ele>
        <time>2014-10-12T07:33:47Z</time>
      </trkpt>
      <trkpt lat="47.26392" lon="-1.65223">
        <ele>63.1</ele>
        <time>2014-10-12T07:33:48Z</time>
      </trkpt>
      <trkpt lat="47.26396" lon="-1.65223">
        <ele>63</ele>
        <time>2014-10-12T07:33:49Z</time>
      </trkpt>
      <trkpt lat="47.26402" lon="-1.65223">
        <ele>62.8</ele>
        <time>2014-10-12T07:33:50Z</time>
      </trkpt>
      <trkpt lat="47.26407" lon="-1.65224">
        <ele>62.7</ele>
        <time>2014-10-12T07:33:51Z</time>
      </trkpt>
      <trkpt lat="47.26411" lon="-1.65225">
        <ele>62.5</ele>
        <time>2014-10-12T07:33:52Z</time>
      </trkpt>
      <trkpt lat="47.26418" lon="-1.65226">
        <ele>62.3</ele>
        <time>2014-10-12T07:33:53Z</time>
      </trkpt>
      <trkpt lat="47.26425" lon="-1.65229">
        <ele>62.1</ele>
        <time>2014-10-12T07:33:54Z</time>
      </trkpt>
      <trkpt lat="47.26431" lon="-1.6523">
        <ele>61.9</ele>
        <time>2014-10-12T07:33:55Z</time>
      </trkpt>
      <trkpt lat="47.26437" lon="-1.65231">
        <ele>61.7</ele>
        <time>2014-10-12T07:33:56Z</time>
      </trkpt>
      <trkpt lat="47.26442" lon="-1.65231">
        <ele>61.6</ele>
        <time>2014-10-12T07:33:57Z</time>
      </trkpt>
      <trkpt lat="47.26448" lon="-1.65232">
        <ele>61.4</ele>
        <time>2014-10-12T07:33:58Z</time>
      </trkpt>
      <trkpt lat="47.26454" lon="-1.65232">
        <ele>61.3</ele>
        <time>2014-10-12T07:33:59Z</time>
      </trkpt>
      <trkpt lat="47.2646" lon="-1.65232">
        <ele>61.1</ele>
        <time>2014-10-12T07:34:00Z</time>
      </trkpt>
      <trkpt lat="47.26466" lon="-1.65233">
        <ele>60.9</ele>
        <time>2014-10-12T07:34:01Z</time>
      </trkpt>
      <trkpt lat="47.26472" lon="-1.65235">
        <ele>60.6</ele>
        <time>2014-10-12T07:34:02Z</time>
      </trkpt>
      <trkpt lat="47.26477" lon="-1.65236">
        <ele>60.4</ele>
        <time>2014-10-12T07:34:03Z</time>
      </trkpt>
      <trkpt lat="47.26484" lon="-1.65239">
        <ele>60.1</ele>
        <time>2014-10-12T07:34:04Z</time>
      </trkpt>
      <trkpt lat="47.26491" lon="-1.6524">
        <ele>59.8</ele>
        <time>2014-10-12T07:34:05Z</time>
      </trkpt>
      <trkpt lat="47.26497" lon="-1.65241">
        <ele>59.6</ele>
        <time>2014-10-12T07:34:06Z</time>
      </trkpt>
      <trkpt lat="47.26504" lon="-1.65243">
        <ele>59.4</ele>
        <time>2014-10-12T07:34:07Z</time>
      </trkpt>
      <trkpt lat="47.26511" lon="-1.65244">
        <ele>59.1</ele>
        <time>2014-10-12T07:34:08Z</time>
      </trkpt>
      <trkpt lat="47.26517" lon="-1.65246">
        <ele>58.8</ele>
        <time>2014-10-12T07:34:09Z</time>
      </trkpt>
      <trkpt lat="47.26524" lon="-1.65247">
        <ele>58.6</ele>
        <time>2014-10-12T07:34:10Z</time>
      </trkpt>
      <trkpt lat="47.2653" lon="-1.65248">
        <ele>58.4</ele>
        <time>2014-10-12T07:34:11Z</time>
      </trkpt>
      <trkpt lat="47.26536" lon="-1.65249">
        <ele>58.2</ele>
        <time>2014-10-12T07:34:12Z</time>
      </trkpt>
      <trkpt lat="47.26542" lon="-1.6525">
        <ele>58</ele>
        <time>2014-10-12T07:34:13Z</time>
      </trkpt>
      <trkpt lat="47.26548" lon="-1.65251">
        <ele>57.8</ele>
        <time>2014-10-12T07:34:14Z</time>
      </trkpt>
      <trkpt lat="47.26555" lon="-1.65252">
        <ele>57.6</ele>
        <time>2014-10-12T07:34:15Z</time>
      </trkpt>
      <trkpt lat="47.2656" lon="-1.65254">
        <ele>57.5</ele>
        <time>2014-10-12T07:34:16Z</time>
      </trkpt>
      <trkpt lat="47.26565" lon="-1.65255">
        <ele>57.3</ele>
        <time>2014-10-12T07:34:17Z</time>
      </trkpt>
      <trkpt lat="47.26569" lon="-1.65257">
        <ele>57.1</ele>
        <time>2014-10-12T07:34:18Z</time>
      </trkpt>
      <trkpt lat="47.26572" lon="-1.65258">
        <ele>57</ele>
        <time>2014-10-12T07:34:19Z</time>
      </trkpt>
      <trkpt lat="47.26575" lon="-1.65259">
        <ele>56.9</ele>
        <time>2014-10-12T07:34:20Z</time>
      </trkpt>
      <trkpt lat="47.26578" lon="-1.6526">
        <ele>56.8</ele>
        <time>2014-10-12T07:34:21Z</time>
      </trkpt>
      <trkpt lat="47.2658" lon="-1.65261">
        <ele>56.7</ele>
        <time>2014-10-12T07:34:22Z</time>
      </trkpt>
      <trkpt lat="47.26583" lon="-1.65262">
        <ele>56.6</ele>
        <time>2014-10-12T07:34:23Z</time>
      </trkpt>
      <trkpt lat="47.26587" lon="-1.65264">
        <ele>56.4</ele>
        <time>2014-10-12T07:34:25Z</time>
      </trkpt>
      <trkpt lat="47.2659" lon="-1.65265">
        <ele>56.3</ele>
        <time>2014-10-12T07:34:28Z</time>
      </trkpt>
      <trkpt lat="47.26592" lon="-1.65267">
        <ele>56.1</ele>
        <time>2014-10-12T07:34:31Z</time>
      </trkpt>
      <trkpt lat="47.26616" lon="-1.6527">
        <ele>55.3</ele>
        <time>2014-10-12T07:35:00Z</time>
      </trkpt>
      <trkpt lat="47.26619" lon="-1.65273">
        <ele>55.1</ele>
        <time>2014-10-12T07:35:02Z</time>
      </trkpt>
      <trkpt lat="47.26621" lon="-1.65274">
        <ele>55</ele>
        <time>2014-10-12T07:35:04Z</time>
      </trkpt>
      <trkpt lat="47.26625" lon="-1.65276">
        <ele>54.8</ele>
        <time>2014-10-12T07:35:07Z</time>
      </trkpt>
      <trkpt lat="47.26647" lon="-1.65283">
        <ele>52.8</ele>
        <time>2014-10-12T07:35:15Z</time>
      </trkpt>
      <trkpt lat="47.26651" lon="-1.65285">
        <ele>52.4</ele>
        <time>2014-10-12T07:35:17Z</time>
      </trkpt>
      <trkpt lat="47.26655" lon="-1.65286">
        <ele>52.1</ele>
        <time>2014-10-12T07:35:19Z</time>
      </trkpt>
      <trkpt lat="47.26657" lon="-1.65289">
        <ele>51.8</ele>
        <time>2014-10-12T07:35:22Z</time>
      </trkpt>
      <trkpt lat="47.26658" lon="-1.65293">
        <ele>51.6</ele>
        <time>2014-10-12T07:35:24Z</time>
      </trkpt>
      <trkpt lat="47.26661" lon="-1.65295">
        <ele>51.4</ele>
        <time>2014-10-12T07:35:25Z</time>
      </trkpt>
      <trkpt lat="47.26663" lon="-1.65297">
        <ele>51.2</ele>
        <time>2014-10-12T07:35:26Z</time>
      </trkpt>
      <trkpt lat="47.26667" lon="-1.65299">
        <ele>50.9</ele>
        <time>2014-10-12T07:35:27Z</time>
      </trkpt>
      <trkpt lat="47.26672" lon="-1.65302">
        <ele>50.5</ele>
        <time>2014-10-12T07:35:29Z</time>
      </trkpt>
      <trkpt lat="47.26676" lon="-1.65305">
        <ele>50.1</ele>
        <time>2014-10-12T07:35:30Z</time>
      </trkpt>
      <trkpt lat="47.2668" lon="-1.65306">
        <ele>49.8</ele>
        <time>2014-10-12T07:35:31Z</time>
      </trkpt>
      <trkpt lat="47.26683" lon="-1.65308">
        <ele>49.6</ele>
        <time>2014-10-12T07:35:32Z</time>
      </trkpt>
      <trkpt lat="47.26688" lon="-1.65311">
        <ele>49.2</ele>
        <time>2014-10-12T07:35:33Z</time>
      </trkpt>
      <trkpt lat="47.26692" lon="-1.65314">
        <ele>48.9</ele>
        <time>2014-10-12T07:35:35Z</time>
      </trkpt>
      <trkpt lat="47.26694" lon="-1.65316">
        <ele>48.7</ele>
        <time>2014-10-12T07:35:37Z</time>
      </trkpt>
      <trkpt lat="47.26697" lon="-1.65317">
        <ele>48.5</ele>
        <time>2014-10-12T07:35:39Z</time>
      </trkpt>
      <trkpt lat="47.26701" lon="-1.65317">
        <ele>48.2</ele>
        <time>2014-10-12T07:35:41Z</time>
      </trkpt>
      <trkpt lat="47.26716" lon="-1.65334">
        <ele>46.9</ele>
        <time>2014-10-12T07:35:51Z</time>
      </trkpt>
      <trkpt lat="47.26718" lon="-1.65338">
        <ele>46.6</ele>
        <time>2014-10-12T07:35:52Z</time>
      </trkpt>
      <trkpt lat="47.26721" lon="-1.65343">
        <ele>46.3</ele>
        <time>2014-10-12T07:35:54Z</time>
      </trkpt>
      <trkpt lat="47.26722" lon="-1.65346">
        <ele>46.2</ele>
        <time>2014-10-12T07:35:55Z</time>
      </trkpt>
      <trkpt lat="47.26723" lon="-1.6535">
        <ele>46.1</ele>
        <time>2014-10-12T07:35:56Z</time>
      </trkpt>
      <trkpt lat="47.26726" lon="-1.65356">
        <ele>45.9</ele>
        <time>2014-10-12T07:35:57Z</time>
      </trkpt>
      <trkpt lat="47.26726" lon="-1.65361">
        <ele>45.8</ele>
        <time>2014-10-12T07:35:58Z</time>
      </trkpt>
      <trkpt lat="47.26729" lon="-1.65366">
        <ele>45.6</ele>
        <time>2014-10-12T07:35:59Z</time>
      </trkpt>
      <trkpt lat="47.2673" lon="-1.65371">
        <ele>45.4</ele>
        <time>2014-10-12T07:36:00Z</time>
      </trkpt>
      <trkpt lat="47.26732" lon="-1.65377">
        <ele>45.3</ele>
        <time>2014-10-12T07:36:01Z</time>
      </trkpt>
      <trkpt lat="47.26733" lon="-1.65382">
        <ele>45.3</ele>
        <time>2014-10-12T07:36:02Z</time>
      </trkpt>
      <trkpt lat="47.26733" lon="-1.65387">
        <ele>45.2</ele>
        <time>2014-10-12T07:36:03Z</time>
      </trkpt>
      <trkpt lat="47.26734" lon="-1.65394">
        <ele>45.2</ele>
        <time>2014-10-12T07:36:04Z</time>
      </trkpt>
      <trkpt lat="47.26734" lon="-1.654">
        <ele>45.2</ele>
        <time>2014-10-12T07:36:05Z</time>
      </trkpt>
      <trkpt lat="47.26735" lon="-1.65405">
        <ele>45.1</ele>
        <time>2014-10-12T07:36:06Z</time>
      </trkpt>
      <trkpt lat="47.26735" lon="-1.6541">
        <ele>45.1</ele>
        <time>2014-10-12T07:36:07Z</time>
      </trkpt>
      <trkpt lat="47.26736" lon="-1.65416">
        <ele>45</ele>
        <time>2014-10-12T07:36:08Z</time>
      </trkpt>
      <trkpt lat="47.26736" lon="-1.65421">
        <ele>45</ele>
        <time>2014-10-12T07:36:09Z</time>
      </trkpt>
      <trkpt lat="47.26737" lon="-1.65426">
        <ele>45</ele>
        <time>2014-10-12T07:36:10Z</time>
      </trkpt>
      <trkpt lat="47.26737" lon="-1.6543">
        <ele>44.9</ele>
        <time>2014-10-12T07:36:11Z</time>
      </trkpt>
      <trkpt lat="47.2674" lon="-1.65438">
        <ele>44.7</ele>
        <time>2014-10-12T07:36:13Z</time>
      </trkpt>
      <trkpt lat="47.26743" lon="-1.65443">
        <ele>44.5</ele>
        <time>2014-10-12T07:36:15Z</time>
      </trkpt>
      <trkpt lat="47.26745" lon="-1.65451">
        <ele>44.4</ele>
        <time>2014-10-12T07:36:17Z</time>
      </trkpt>
      <trkpt lat="47.26745" lon="-1.65458">
        <ele>44.3</ele>
        <time>2014-10-12T07:36:19Z</time>
      </trkpt>
      <trkpt lat="47.26746" lon="-1.65465">
        <ele>44.1</ele>
        <time>2014-10-12T07:36:21Z</time>
      </trkpt>
      <trkpt lat="47.26747" lon="-1.65471">
        <ele>43.8</ele>
        <time>2014-10-12T07:36:23Z</time>
      </trkpt>
      <trkpt lat="47.26749" lon="-1.65476">
        <ele>43.5</ele>
        <time>2014-10-12T07:36:24Z</time>
      </trkpt>
      <trkpt lat="47.26751" lon="-1.65482">
        <ele>43.2</ele>
        <time>2014-10-12T07:36:25Z</time>
      </trkpt>
      <trkpt lat="47.26753" lon="-1.65487">
        <ele>42.9</ele>
        <time>2014-10-12T07:36:26Z</time>
      </trkpt>
      <trkpt lat="47.26757" lon="-1.65489">
        <ele>42.5</ele>
        <time>2014-10-12T07:36:27Z</time>
      </trkpt>
      <trkpt lat="47.2676" lon="-1.6549">
        <ele>42.2</ele>
        <time>2014-10-12T07:36:28Z</time>
      </trkpt>
      <trkpt lat="47.26764" lon="-1.65494">
        <ele>41.7</ele>
        <time>2014-10-12T07:36:29Z</time>
      </trkpt>
      <trkpt lat="47.26769" lon="-1.65497">
        <ele>41.2</ele>
        <time>2014-10-12T07:36:30Z</time>
      </trkpt>
      <trkpt lat="47.26775" lon="-1.65504">
        <ele>40.3</ele>
        <time>2014-10-12T07:36:31Z</time>
      </trkpt>
      <trkpt lat="47.26781" lon="-1.65508">
        <ele>39.6</ele>
        <time>2014-10-12T07:36:32Z</time>
      </trkpt>
      <trkpt lat="47.26786" lon="-1.65511">
        <ele>39</ele>
        <time>2014-10-12T07:36:33Z</time>
      </trkpt>
      <trkpt lat="47.26792" lon="-1.65518">
        <ele>38.1</ele>
        <time>2014-10-12T07:36:34Z</time>
      </trkpt>
      <trkpt lat="47.26795" lon="-1.65523">
        <ele>37.6</ele>
        <time>2014-10-12T07:36:35Z</time>
      </trkpt>
      <trkpt lat="47.26799" lon="-1.65525">
        <ele>37.2</ele>
        <time>2014-10-12T07:36:36Z</time>
      </trkpt>
      <trkpt lat="47.26801" lon="-1.65526">
        <ele>37</ele>
        <time>2014-10-12T07:36:37Z</time>
      </trkpt>
      <trkpt lat="47.26807" lon="-1.65528">
        <ele>36.5</ele>
        <time>2014-10-12T07:36:39Z</time>
      </trkpt>
      <trkpt lat="47.26812" lon="-1.65529">
        <ele>36</ele>
        <time>2014-10-12T07:36:40Z</time>
      </trkpt>
      <trkpt lat="47.26817" lon="-1.6553">
        <ele>35.6</ele>
        <time>2014-10-12T07:36:41Z</time>
      </trkpt>
      <trkpt lat="47.26821" lon="-1.6553">
        <ele>35.2</ele>
        <time>2014-10-12T07:36:42Z</time>
      </trkpt>
      <trkpt lat="47.26826" lon="-1.65532">
        <ele>34.8</ele>
        <time>2014-10-12T07:36:44Z</time>
      </trkpt>
      <trkpt lat="47.26829" lon="-1.65533">
        <ele>34.6</ele>
        <time>2014-10-12T07:36:48Z</time>
      </trkpt>
      <trkpt lat="47.26832" lon="-1.65532">
        <ele>34.3</ele>
        <time>2014-10-12T07:36:52Z</time>
      </trkpt>
      <trkpt lat="47.26835" lon="-1.65532">
        <ele>34.1</ele>
        <time>2014-10-12T07:36:55Z</time>
      </trkpt>
      <trkpt lat="47.26838" lon="-1.65534">
        <ele>33.8</ele>
        <time>2014-10-12T07:36:57Z</time>
      </trkpt>
      <trkpt lat="47.26841" lon="-1.65536">
        <ele>33.6</ele>
        <time>2014-10-12T07:37:00Z</time>
      </trkpt>
      <trkpt lat="47.26844" lon="-1.6554">
        <ele>33.3</ele>
        <time>2014-10-12T07:37:03Z</time>
      </trkpt>
      <trkpt lat="47.26847" lon="-1.65543">
        <ele>33</ele>
        <time>2014-10-12T07:37:06Z</time>
      </trkpt>
      <trkpt lat="47.26849" lon="-1.65547">
        <ele>32.9</ele>
        <time>2014-10-12T07:37:08Z</time>
      </trkpt>
      <trkpt lat="47.26852" lon="-1.6555">
        <ele>32.7</ele>
        <time>2014-10-12T07:37:10Z</time>
      </trkpt>
      <trkpt lat="47.26854" lon="-1.65556">
        <ele>32.5</ele>
        <time>2014-10-12T07:37:12Z</time>
      </trkpt>
      <trkpt lat="47.26857" lon="-1.65562">
        <ele>32.4</ele>
        <time>2014-10-12T07:37:14Z</time>
      </trkpt>
      <trkpt lat="47.26859" lon="-1.65566">
        <ele>32.3</ele>
        <time>2014-10-12T07:37:15Z</time>
      </trkpt>
      <trkpt lat="47.26861" lon="-1.65569">
        <ele>32.2</ele>
        <time>2014-10-12T07:37:16Z</time>
      </trkpt>
      <trkpt lat="47.26863" lon="-1.65573">
        <ele>32.1</ele>
        <time>2014-10-12T07:37:17Z</time>
      </trkpt>
      <trkpt lat="47.26865" lon="-1.65579">
        <ele>32</ele>
        <time>2014-10-12T07:37:19Z</time>
      </trkpt>
      <trkpt lat="47.26868" lon="-1.65583">
        <ele>31.9</ele>
        <time>2014-10-12T07:37:21Z</time>
      </trkpt>
      <trkpt lat="47.2687" lon="-1.65585">
        <ele>31.8</ele>
        <time>2014-10-12T07:37:22Z</time>
      </trkpt>
      <trkpt lat="47.26873" lon="-1.65587">
        <ele>31.6</ele>
        <time>2014-10-12T07:37:23Z</time>
      </trkpt>
      <trkpt lat="47.26876" lon="-1.65591">
        <ele>31.7</ele>
        <time>2014-10-12T07:37:24Z</time>
      </trkpt>
      <trkpt lat="47.2688" lon="-1.65596">
        <ele>32.2</ele>
        <time>2014-10-12T07:37:26Z</time>
      </trkpt>
      <trkpt lat="47.26884" lon="-1.65599">
        <ele>32.7</ele>
        <time>2014-10-12T07:37:28Z</time>
      </trkpt>
      <trkpt lat="47.26887" lon="-1.65605">
        <ele>33.2</ele>
        <time>2014-10-12T07:37:30Z</time>
      </trkpt>
      <trkpt lat="47.2689" lon="-1.65609">
        <ele>33.6</ele>
        <time>2014-10-12T07:37:32Z</time>
      </trkpt>
      <trkpt lat="47.26892" lon="-1.65613">
        <ele>33.9</ele>
        <time>2014-10-12T07:37:34Z</time>
      </trkpt>
      <trkpt lat="47.26895" lon="-1.65616">
        <ele>34.2</ele>
        <time>2014-10-12T07:37:36Z</time>
      </trkpt>
      <trkpt lat="47.26896" lon="-1.65621">
        <ele>34.5</ele>
        <time>2014-10-12T07:37:39Z</time>
      </trkpt>
      <trkpt lat="47.26895" lon="-1.65625">
        <ele>34.4</ele>
        <time>2014-10-12T07:37:41Z</time>
      </trkpt>
      <trkpt lat="47.26894" lon="-1.65629">
        <ele>34.6</ele>
        <time>2014-10-12T07:37:42Z</time>
      </trkpt>
      <trkpt lat="47.26893" lon="-1.65633">
        <ele>34.8</ele>
        <time>2014-10-12T07:37:43Z</time>
      </trkpt>
      <trkpt lat="47.26892" lon="-1.65638">
        <ele>35.1</ele>
        <time>2014-10-12T07:37:45Z</time>
      </trkpt>
      <trkpt lat="47.26891" lon="-1.65642">
        <ele>35.3</ele>
        <time>2014-10-12T07:37:47Z</time>
      </trkpt>
      <trkpt lat="47.2689" lon="-1.65647">
        <ele>35.6</ele>
        <time>2014-10-12T07:37:49Z</time>
      </trkpt>
      <trkpt lat="47.26889" lon="-1.65651">
        <ele>35.8</ele>
        <time>2014-10-12T07:37:50Z</time>
      </trkpt>
      <trkpt lat="47.26888" lon="-1.65658">
        <ele>36.4</ele>
        <time>2014-10-12T07:37:52Z</time>
      </trkpt>
      <trkpt lat="47.26889" lon="-1.65666">
        <ele>37.1</ele>
        <time>2014-10-12T07:37:54Z</time>
      </trkpt>
      <trkpt lat="47.26888" lon="-1.65674">
        <ele>37.7</ele>
        <time>2014-10-12T07:37:56Z</time>
      </trkpt>
      <trkpt lat="47.26887" lon="-1.65678">
        <ele>37.9</ele>
        <time>2014-10-12T07:37:57Z</time>
      </trkpt>
      <trkpt lat="47.26885" lon="-1.65682">
        <ele>38.1</ele>
        <time>2014-10-12T07:37:59Z</time>
      </trkpt>
      <trkpt lat="47.26883" lon="-1.65686">
        <ele>38.4</ele>
        <time>2014-10-12T07:38:02Z</time>
      </trkpt>
      <trkpt lat="47.26882" lon="-1.65691">
        <ele>38.8</ele>
        <time>2014-10-12T07:38:04Z</time>
      </trkpt>
      <trkpt lat="47.2688" lon="-1.65696">
        <ele>39.1</ele>
        <time>2014-10-12T07:38:06Z</time>
      </trkpt>
      <trkpt lat="47.26879" lon="-1.65703">
        <ele>39.7</ele>
        <time>2014-10-12T07:38:08Z</time>
      </trkpt>
      <trkpt lat="47.26878" lon="-1.65711">
        <ele>40.4</ele>
        <time>2014-10-12T07:38:10Z</time>
      </trkpt>
      <trkpt lat="47.26878" lon="-1.6572">
        <ele>40.9</ele>
        <time>2014-10-12T07:38:12Z</time>
      </trkpt>
      <trkpt lat="47.26878" lon="-1.65724">
        <ele>41.3</ele>
        <time>2014-10-12T07:38:13Z</time>
      </trkpt>
      <trkpt lat="47.26879" lon="-1.65728">
        <ele>41.6</ele>
        <time>2014-10-12T07:38:14Z</time>
      </trkpt>
      <trkpt lat="47.26882" lon="-1.65736">
        <ele>42.3</ele>
        <time>2014-10-12T07:38:16Z</time>
      </trkpt>
      <trkpt lat="47.26882" lon="-1.65741">
        <ele>42.7</ele>
        <time>2014-10-12T07:38:18Z</time>
      </trkpt>
      <trkpt lat="47.26882" lon="-1.65747">
        <ele>43.1</ele>
        <time>2014-10-12T07:38:20Z</time>
      </trkpt>
      <trkpt lat="47.26883" lon="-1.65753">
        <ele>43.5</ele>
        <time>2014-10-12T07:38:23Z</time>
      </trkpt>
      <trkpt lat="47.26883" lon="-1.65758">
        <ele>43.9</ele>
        <time>2014-10-12T07:38:26Z</time>
      </trkpt>
      <trkpt lat="47.26883" lon="-1.65764">
        <ele>44.3</ele>
        <time>2014-10-12T07:38:29Z</time>
      </trkpt>
      <trkpt lat="47.26884" lon="-1.65769">
        <ele>44.7</ele>
        <time>2014-10-12T07:38:32Z</time>
      </trkpt>
      <trkpt lat="47.26884" lon="-1.65775">
        <ele>45.1</ele>
        <time>2014-10-12T07:38:34Z</time>
      </trkpt>
      <trkpt lat="47.26884" lon="-1.65781">
        <ele>45.6</ele>
        <time>2014-10-12T07:38:41Z</time>
      </trkpt>
      <trkpt lat="47.26885" lon="-1.65786">
        <ele>46</ele>
        <time>2014-10-12T07:38:42Z</time>
      </trkpt>
      <trkpt lat="47.26885" lon="-1.6579">
        <ele>46.3</ele>
        <time>2014-10-12T07:38:43Z</time>
      </trkpt>
      <trkpt lat="47.26885" lon="-1.65795">
        <ele>46.5</ele>
        <time>2014-10-12T07:38:45Z</time>
      </trkpt>
      <trkpt lat="47.26887" lon="-1.658">
        <ele>46.7</ele>
        <time>2014-10-12T07:38:47Z</time>
      </trkpt>
      <trkpt lat="47.26888" lon="-1.65808">
        <ele>47.1</ele>
        <time>2014-10-12T07:38:49Z</time>
      </trkpt>
      <trkpt lat="47.26889" lon="-1.65813">
        <ele>47.3</ele>
        <time>2014-10-12T07:38:51Z</time>
      </trkpt>
      <trkpt lat="47.26888" lon="-1.6582">
        <ele>47.5</ele>
        <time>2014-10-12T07:38:54Z</time>
      </trkpt>
      <trkpt lat="47.26888" lon="-1.65824">
        <ele>47.7</ele>
        <time>2014-10-12T07:38:55Z</time>
      </trkpt>
      <trkpt lat="47.2689" lon="-1.6583">
        <ele>48</ele>
        <time>2014-10-12T07:38:57Z</time>
      </trkpt>
      <trkpt lat="47.26891" lon="-1.65836">
        <ele>48.3</ele>
        <time>2014-10-12T07:38:59Z</time>
      </trkpt>
      <trkpt lat="47.2689" lon="-1.65842">
        <ele>48.5</ele>
        <time>2014-10-12T07:39:01Z</time>
      </trkpt>
      <trkpt lat="47.2689" lon="-1.65847">
        <ele>48.6</ele>
        <time>2014-10-12T07:39:02Z</time>
      </trkpt>
      <trkpt lat="47.26887" lon="-1.65851">
        <ele>48.7</ele>
        <time>2014-10-12T07:39:04Z</time>
      </trkpt>
      <trkpt lat="47.26884" lon="-1.65853">
        <ele>48.6</ele>
        <time>2014-10-12T07:39:06Z</time>
      </trkpt>
      <trkpt lat="47.26881" lon="-1.65856">
        <ele>48.6</ele>
        <time>2014-10-12T07:39:08Z</time>
      </trkpt>
      <trkpt lat="47.26806" lon="-1.65904">
        <ele>52.5</ele>
        <time>2014-10-12T07:39:43Z</time>
      </trkpt>
      <trkpt lat="47.26802" lon="-1.65905">
        <ele>52.7</ele>
        <time>2014-10-12T07:39:45Z</time>
      </trkpt>
      <trkpt lat="47.26799" lon="-1.65907">
        <ele>52.9</ele>
        <time>2014-10-12T07:39:50Z</time>
      </trkpt>
      <trkpt lat="47.26796" lon="-1.65907">
        <ele>53</ele>
        <time>2014-10-12T07:39:52Z</time>
      </trkpt>
      <trkpt lat="47.26792" lon="-1.65908">
        <ele>53.1</ele>
        <time>2014-10-12T07:39:54Z</time>
      </trkpt>
      <trkpt lat="47.26776" lon="-1.65917">
        <ele>52.8</ele>
        <time>2014-10-12T07:40:03Z</time>
      </trkpt>
      <trkpt lat="47.26773" lon="-1.65917">
        <ele>52.7</ele>
        <time>2014-10-12T07:40:05Z</time>
      </trkpt>
      <trkpt lat="47.2677" lon="-1.65918">
        <ele>52.6</ele>
        <time>2014-10-12T07:40:07Z</time>
      </trkpt>
      <trkpt lat="47.26765" lon="-1.65915">
        <ele>52.3</ele>
        <time>2014-10-12T07:40:09Z</time>
      </trkpt>
      <trkpt lat="47.26763" lon="-1.65917">
        <ele>52.3</ele>
        <time>2014-10-12T07:40:10Z</time>
      </trkpt>
      <trkpt lat="47.2676" lon="-1.65916">
        <ele>52.2</ele>
        <time>2014-10-12T07:40:11Z</time>
      </trkpt>
      <trkpt lat="47.26756" lon="-1.65916">
        <ele>52</ele>
        <time>2014-10-12T07:40:13Z</time>
      </trkpt>
      <trkpt lat="47.26753" lon="-1.65916">
        <ele>51.9</ele>
        <time>2014-10-12T07:40:14Z</time>
      </trkpt>
      <trkpt lat="47.2675" lon="-1.65918">
        <ele>51.8</ele>
        <time>2014-10-12T07:40:15Z</time>
      </trkpt>
      <trkpt lat="47.26747" lon="-1.65917">
        <ele>51.6</ele>
        <time>2014-10-12T07:40:16Z</time>
      </trkpt>
      <trkpt lat="47.26742" lon="-1.65917">
        <ele>51.4</ele>
        <time>2014-10-12T07:40:17Z</time>
      </trkpt>
      <trkpt lat="47.26739" lon="-1.65917">
        <ele>51.3</ele>
        <time>2014-10-12T07:40:18Z</time>
      </trkpt>
      <trkpt lat="47.26736" lon="-1.65918">
        <ele>51.2</ele>
        <time>2014-10-12T07:40:19Z</time>
      </trkpt>
      <trkpt lat="47.26733" lon="-1.65918">
        <ele>51</ele>
        <time>2014-10-12T07:40:20Z</time>
      </trkpt>
      <trkpt lat="47.2673" lon="-1.65919">
        <ele>50.9</ele>
        <time>2014-10-12T07:40:21Z</time>
      </trkpt>
      <trkpt lat="47.26727" lon="-1.6592">
        <ele>50.8</ele>
        <time>2014-10-12T07:40:22Z</time>
      </trkpt>
      <trkpt lat="47.26724" lon="-1.65922">
        <ele>50.7</ele>
        <time>2014-10-12T07:40:23Z</time>
      </trkpt>
      <trkpt lat="47.2672" lon="-1.65923">
        <ele>50.5</ele>
        <time>2014-10-12T07:40:24Z</time>
      </trkpt>
      <trkpt lat="47.26717" lon="-1.65924">
        <ele>50.4</ele>
        <time>2014-10-12T07:40:25Z</time>
      </trkpt>
      <trkpt lat="47.26712" lon="-1.65927">
        <ele>50.2</ele>
        <time>2014-10-12T07:40:27Z</time>
      </trkpt>
      <trkpt lat="47.26709" lon="-1.65927">
        <ele>50</ele>
        <time>2014-10-12T07:40:28Z</time>
      </trkpt>
      <trkpt lat="47.26707" lon="-1.65929">
        <ele>49.8</ele>
        <time>2014-10-12T07:40:29Z</time>
      </trkpt>
      <trkpt lat="47.26703" lon="-1.6593">
        <ele>49.2</ele>
        <time>2014-10-12T07:40:31Z</time>
      </trkpt>
      <trkpt lat="47.267" lon="-1.65931">
        <ele>48.8</ele>
        <time>2014-10-12T07:40:32Z</time>
      </trkpt>
      <trkpt lat="47.26695" lon="-1.65933">
        <ele>48.1</ele>
        <time>2014-10-12T07:40:34Z</time>
      </trkpt>
      <trkpt lat="47.26692" lon="-1.65935">
        <ele>47.7</ele>
        <time>2014-10-12T07:40:35Z</time>
      </trkpt>
      <trkpt lat="47.26689" lon="-1.65937">
        <ele>47.3</ele>
        <time>2014-10-12T07:40:36Z</time>
      </trkpt>
      <trkpt lat="47.26683" lon="-1.65939">
        <ele>46.5</ele>
        <time>2014-10-12T07:40:37Z</time>
      </trkpt>
      <trkpt lat="47.26678" lon="-1.65941">
        <ele>45.9</ele>
        <time>2014-10-12T07:40:38Z</time>
      </trkpt>
      <trkpt lat="47.26674" lon="-1.65943">
        <ele>45.3</ele>
        <time>2014-10-12T07:40:39Z</time>
      </trkpt>
      <trkpt lat="47.26669" lon="-1.65945">
        <ele>44.6</ele>
        <time>2014-10-12T07:40:40Z</time>
      </trkpt>
      <trkpt lat="47.26665" lon="-1.65946">
        <ele>44.1</ele>
        <time>2014-10-12T07:40:41Z</time>
      </trkpt>
      <trkpt lat="47.26661" lon="-1.65948">
        <ele>43.6</ele>
        <time>2014-10-12T07:40:42Z</time>
      </trkpt>
      <trkpt lat="47.26656" lon="-1.6595">
        <ele>43</ele>
        <time>2014-10-12T07:40:43Z</time>
      </trkpt>
      <trkpt lat="47.26653" lon="-1.65951">
        <ele>42.6</ele>
        <time>2014-10-12T07:40:44Z</time>
      </trkpt>
      <trkpt lat="47.26649" lon="-1.65953">
        <ele>42</ele>
        <time>2014-10-12T07:40:45Z</time>
      </trkpt>
      <trkpt lat="47.26645" lon="-1.65952">
        <ele>41.6</ele>
        <time>2014-10-12T07:40:46Z</time>
      </trkpt>
      <trkpt lat="47.26641" lon="-1.65951">
        <ele>41</ele>
        <time>2014-10-12T07:40:47Z</time>
      </trkpt>
      <trkpt lat="47.26638" lon="-1.65953">
        <ele>40.5</ele>
        <time>2014-10-12T07:40:48Z</time>
      </trkpt>
      <trkpt lat="47.26634" lon="-1.65953">
        <ele>40</ele>
        <time>2014-10-12T07:40:49Z</time>
      </trkpt>
      <trkpt lat="47.26629" lon="-1.65955">
        <ele>39.4</ele>
        <time>2014-10-12T07:40:50Z</time>
      </trkpt>
      <trkpt lat="47.26625" lon="-1.65956">
        <ele>38.9</ele>
        <time>2014-10-12T07:40:51Z</time>
      </trkpt>
      <trkpt lat="47.26621" lon="-1.65958">
        <ele>38.6</ele>
        <time>2014-10-12T07:40:52Z</time>
      </trkpt>
      <trkpt lat="47.26615" lon="-1.65959">
        <ele>38.2</ele>
        <time>2014-10-12T07:40:53Z</time>
      </trkpt>
      <trkpt lat="47.26611" lon="-1.65961">
        <ele>37.8</ele>
        <time>2014-10-12T07:40:54Z</time>
      </trkpt>
      <trkpt lat="47.26608" lon="-1.65962">
        <ele>37.6</ele>
        <time>2014-10-12T07:40:55Z</time>
      </trkpt>
      <trkpt lat="47.26604" lon="-1.65962">
        <ele>37.3</ele>
        <time>2014-10-12T07:40:56Z</time>
      </trkpt>
      <trkpt lat="47.26599" lon="-1.65965">
        <ele>36.9</ele>
        <time>2014-10-12T07:40:58Z</time>
      </trkpt>
      <trkpt lat="47.26596" lon="-1.65967">
        <ele>36.7</ele>
        <time>2014-10-12T07:40:59Z</time>
      </trkpt>
      <trkpt lat="47.26591" lon="-1.65968">
        <ele>36.3</ele>
        <time>2014-10-12T07:41:00Z</time>
      </trkpt>
      <trkpt lat="47.26586" lon="-1.65968">
        <ele>35.9</ele>
        <time>2014-10-12T07:41:01Z</time>
      </trkpt>
      <trkpt lat="47.26581" lon="-1.65969">
        <ele>35.5</ele>
        <time>2014-10-12T07:41:02Z</time>
      </trkpt>
      <trkpt lat="47.26577" lon="-1.65969">
        <ele>35.2</ele>
        <time>2014-10-12T07:41:03Z</time>
      </trkpt>
      <trkpt lat="47.26573" lon="-1.65967">
        <ele>34.8</ele>
        <time>2014-10-12T07:41:04Z</time>
      </trkpt>
      <trkpt lat="47.2657" lon="-1.65967">
        <ele>34.5</ele>
        <time>2014-10-12T07:41:05Z</time>
      </trkpt>
      <trkpt lat="47.26566" lon="-1.65967">
        <ele>34.3</ele>
        <time>2014-10-12T07:41:06Z</time>
      </trkpt>
      <trkpt lat="47.26563" lon="-1.65968">
        <ele>34</ele>
        <time>2014-10-12T07:41:07Z</time>
      </trkpt>
      <trkpt lat="47.2656" lon="-1.65971">
        <ele>33.9</ele>
        <time>2014-10-12T07:41:08Z</time>
      </trkpt>
      <trkpt lat="47.26556" lon="-1.65973">
        <ele>33.6</ele>
        <time>2014-10-12T07:41:09Z</time>
      </trkpt>
      <trkpt lat="47.2655" lon="-1.65974">
        <ele>33.2</ele>
        <time>2014-10-12T07:41:10Z</time>
      </trkpt>
      <trkpt lat="47.26547" lon="-1.65978">
        <ele>33.1</ele>
        <time>2014-10-12T07:41:11Z</time>
      </trkpt>
      <trkpt lat="47.26545" lon="-1.65981">
        <ele>33</ele>
        <time>2014-10-12T07:41:12Z</time>
      </trkpt>
      <trkpt lat="47.26543" lon="-1.65985">
        <ele>33</ele>
        <time>2014-10-12T07:41:13Z</time>
      </trkpt>
      <trkpt lat="47.26541" lon="-1.65989">
        <ele>33.2</ele>
        <time>2014-10-12T07:41:14Z</time>
      </trkpt>
      <trkpt lat="47.26534" lon="-1.65992">
        <ele>34.7</ele>
        <time>2014-10-12T07:41:15Z</time>
      </trkpt>
      <trkpt lat="47.26533" lon="-1.65996">
        <ele>35</ele>
        <time>2014-10-12T07:41:16Z</time>
      </trkpt>
      <trkpt lat="47.26532" lon="-1.65999">
        <ele>35.4</ele>
        <time>2014-10-12T07:41:17Z</time>
      </trkpt>
      <trkpt lat="47.26533" lon="-1.66007">
        <ele>35.5</ele>
        <time>2014-10-12T07:41:19Z</time>
      </trkpt>
      <trkpt lat="47.26533" lon="-1.66015">
        <ele>35.8</ele>
        <time>2014-10-12T07:41:21Z</time>
      </trkpt>
      <trkpt lat="47.26534" lon="-1.66022">
        <ele>35.7</ele>
        <time>2014-10-12T07:41:23Z</time>
      </trkpt>
      <trkpt lat="47.26538" lon="-1.66028">
        <ele>35.2</ele>
        <time>2014-10-12T07:41:25Z</time>
      </trkpt>
      <trkpt lat="47.26543" lon="-1.66032">
        <ele>34.7</ele>
        <time>2014-10-12T07:41:27Z</time>
      </trkpt>
      <trkpt lat="47.26547" lon="-1.66034">
        <ele>35</ele>
        <time>2014-10-12T07:41:28Z</time>
      </trkpt>
      <trkpt lat="47.2655" lon="-1.66036">
        <ele>35.2</ele>
        <time>2014-10-12T07:41:29Z</time>
      </trkpt>
      <trkpt lat="47.26555" lon="-1.66038">
        <ele>35.5</ele>
        <time>2014-10-12T07:41:31Z</time>
      </trkpt>
      <trkpt lat="47.26558" lon="-1.66038">
        <ele>35.7</ele>
        <time>2014-10-12T07:41:32Z</time>
      </trkpt>
      <trkpt lat="47.26561" lon="-1.66038">
        <ele>35.8</ele>
        <time>2014-10-12T07:41:33Z</time>
      </trkpt>
      <trkpt lat="47.26564" lon="-1.66037">
        <ele>35.9</ele>
        <time>2014-10-12T07:41:34Z</time>
      </trkpt>
      <trkpt lat="47.26567" lon="-1.66039">
        <ele>36.2</ele>
        <time>2014-10-12T07:41:35Z</time>
      </trkpt>
      <trkpt lat="47.26571" lon="-1.6604">
        <ele>36.4</ele>
        <time>2014-10-12T07:41:36Z</time>
      </trkpt>
      <trkpt lat="47.26575" lon="-1.6604">
        <ele>36.6</ele>
        <time>2014-10-12T07:41:37Z</time>
      </trkpt>
      <trkpt lat="47.26579" lon="-1.66042">
        <ele>36.8</ele>
        <time>2014-10-12T07:41:38Z</time>
      </trkpt>
      <trkpt lat="47.26582" lon="-1.66045">
        <ele>37</ele>
        <time>2014-10-12T07:41:39Z</time>
      </trkpt>
      <trkpt lat="47.26585" lon="-1.66046">
        <ele>37.2</ele>
        <time>2014-10-12T07:41:40Z</time>
      </trkpt>
      <trkpt lat="47.26588" lon="-1.66047">
        <ele>37.3</ele>
        <time>2014-10-12T07:41:41Z</time>
      </trkpt>
      <trkpt lat="47.2659" lon="-1.66049">
        <ele>37.5</ele>
        <time>2014-10-12T07:41:42Z</time>
      </trkpt>
      <trkpt lat="47.26594" lon="-1.66052">
        <ele>37.7</ele>
        <time>2014-10-12T07:41:44Z</time>
      </trkpt>
      <trkpt lat="47.26599" lon="-1.66055">
        <ele>37.9</ele>
        <time>2014-10-12T07:41:46Z</time>
      </trkpt>
      <trkpt lat="47.26602" lon="-1.66057">
        <ele>38</ele>
        <time>2014-10-12T07:41:47Z</time>
      </trkpt>
      <trkpt lat="47.26607" lon="-1.66063">
        <ele>38.2</ele>
        <time>2014-10-12T07:41:48Z</time>
      </trkpt>
      <trkpt lat="47.26611" lon="-1.66067">
        <ele>38.3</ele>
        <time>2014-10-12T07:41:49Z</time>
      </trkpt>
      <trkpt lat="47.26614" lon="-1.66072">
        <ele>38.4</ele>
        <time>2014-10-12T07:41:51Z</time>
      </trkpt>
      <trkpt lat="47.26618" lon="-1.66077">
        <ele>38.5</ele>
        <time>2014-10-12T07:41:52Z</time>
      </trkpt>
      <trkpt lat="47.2662" lon="-1.6608">
        <ele>38.5</ele>
        <time>2014-10-12T07:41:53Z</time>
      </trkpt>
      <trkpt lat="47.26622" lon="-1.66084">
        <ele>38.5</ele>
        <time>2014-10-12T07:41:54Z</time>
      </trkpt>
      <trkpt lat="47.26626" lon="-1.66089">
        <ele>38.5</ele>
        <time>2014-10-12T07:41:56Z</time>
      </trkpt>
      <trkpt lat="47.26629" lon="-1.66091">
        <ele>38.7</ele>
        <time>2014-10-12T07:41:57Z</time>
      </trkpt>
      <trkpt lat="47.26632" lon="-1.66094">
        <ele>38.9</ele>
        <time>2014-10-12T07:41:58Z</time>
      </trkpt>
      <trkpt lat="47.26634" lon="-1.66097">
        <ele>39.1</ele>
        <time>2014-10-12T07:41:59Z</time>
      </trkpt>
      <trkpt lat="47.26634" lon="-1.66102">
        <ele>39.1</ele>
        <time>2014-10-12T07:42:00Z</time>
      </trkpt>
      <trkpt lat="47.26633" lon="-1.66108">
        <ele>38.9</ele>
        <time>2014-10-12T07:42:02Z</time>
      </trkpt>
      <trkpt lat="47.26634" lon="-1.66116">
        <ele>38.9</ele>
        <time>2014-10-12T07:42:04Z</time>
      </trkpt>
      <trkpt lat="47.26635" lon="-1.66121">
        <ele>38.9</ele>
        <time>2014-10-12T07:42:05Z</time>
      </trkpt>
      <trkpt lat="47.26636" lon="-1.66126">
        <ele>39</ele>
        <time>2014-10-12T07:42:07Z</time>
      </trkpt>
      <trkpt lat="47.26639" lon="-1.6613">
        <ele>39.2</ele>
        <time>2014-10-12T07:42:09Z</time>
      </trkpt>
      <trkpt lat="47.26642" lon="-1.66131">
        <ele>39.5</ele>
        <time>2014-10-12T07:42:11Z</time>
      </trkpt>
      <trkpt lat="47.26644" lon="-1.66136">
        <ele>39.7</ele>
        <time>2014-10-12T07:42:13Z</time>
      </trkpt>
      <trkpt lat="47.26647" lon="-1.6614">
        <ele>39.9</ele>
        <time>2014-10-12T07:42:15Z</time>
      </trkpt>
      <trkpt lat="47.2665" lon="-1.66143">
        <ele>40.2</ele>
        <time>2014-10-12T07:42:17Z</time>
      </trkpt>
      <trkpt lat="47.26653" lon="-1.66147">
        <ele>40.4</ele>
        <time>2014-10-12T07:42:20Z</time>
      </trkpt>
      <trkpt lat="47.26655" lon="-1.6615">
        <ele>40.6</ele>
        <time>2014-10-12T07:42:22Z</time>
      </trkpt>
      <trkpt lat="47.26656" lon="-1.66155">
        <ele>40.7</ele>
        <time>2014-10-12T07:42:24Z</time>
      </trkpt>
      <trkpt lat="47.26656" lon="-1.66161">
        <ele>40.7</ele>
        <time>2014-10-12T07:42:26Z</time>
      </trkpt>
      <trkpt lat="47.26655" lon="-1.66168">
        <ele>40.6</ele>
        <time>2014-10-12T07:42:28Z</time>
      </trkpt>
      <trkpt lat="47.26656" lon="-1.66175">
        <ele>40.8</ele>
        <time>2014-10-12T07:42:31Z</time>
      </trkpt>
      <trkpt lat="47.26656" lon="-1.6618">
        <ele>40.8</ele>
        <time>2014-10-12T07:42:33Z</time>
      </trkpt>
      <trkpt lat="47.26658" lon="-1.66185">
        <ele>40.9</ele>
        <time>2014-10-12T07:42:35Z</time>
      </trkpt>
      <trkpt lat="47.2666" lon="-1.66191">
        <ele>41</ele>
        <time>2014-10-12T07:42:37Z</time>
      </trkpt>
      <trkpt lat="47.26661" lon="-1.66197">
        <ele>41.2</ele>
        <time>2014-10-12T07:42:39Z</time>
      </trkpt>
      <trkpt lat="47.26663" lon="-1.662">
        <ele>41.3</ele>
        <time>2014-10-12T07:42:40Z</time>
      </trkpt>
      <trkpt lat="47.26665" lon="-1.66203">
        <ele>41.4</ele>
        <time>2014-10-12T07:42:41Z</time>
      </trkpt>
      <trkpt lat="47.26667" lon="-1.66208">
        <ele>41.5</ele>
        <time>2014-10-12T07:42:43Z</time>
      </trkpt>
      <trkpt lat="47.26669" lon="-1.66212">
        <ele>41.6</ele>
        <time>2014-10-12T07:42:45Z</time>
      </trkpt>
      <trkpt lat="47.26671" lon="-1.66217">
        <ele>41.6</ele>
        <time>2014-10-12T07:42:47Z</time>
      </trkpt>
      <trkpt lat="47.26672" lon="-1.66221">
        <ele>41.5</ele>
        <time>2014-10-12T07:42:49Z</time>
      </trkpt>
      <trkpt lat="47.26732" lon="-1.66289">
        <ele>43.5</ele>
        <time>2014-10-12T07:43:36Z</time>
      </trkpt>
      <trkpt lat="47.26733" lon="-1.66294">
        <ele>43.5</ele>
        <time>2014-10-12T07:43:40Z</time>
      </trkpt>
      <trkpt lat="47.26735" lon="-1.66298">
        <ele>43.6</ele>
        <time>2014-10-12T07:43:42Z</time>
      </trkpt>
      <trkpt lat="47.26738" lon="-1.66302">
        <ele>43.8</ele>
        <time>2014-10-12T07:43:44Z</time>
      </trkpt>
      <trkpt lat="47.26742" lon="-1.663">
        <ele>44.5</ele>
        <time>2014-10-12T07:43:46Z</time>
      </trkpt>
      <trkpt lat="47.26746" lon="-1.66299">
        <ele>45</ele>
        <time>2014-10-12T07:43:47Z</time>
      </trkpt>
      <trkpt lat="47.26748" lon="-1.663">
        <ele>45.4</ele>
        <time>2014-10-12T07:43:48Z</time>
      </trkpt>
      <trkpt lat="47.26751" lon="-1.663">
        <ele>45.8</ele>
        <time>2014-10-12T07:43:49Z</time>
      </trkpt>
      <trkpt lat="47.26756" lon="-1.66302">
        <ele>46.3</ele>
        <time>2014-10-12T07:43:51Z</time>
      </trkpt>
      <trkpt lat="47.26759" lon="-1.66304">
        <ele>46.6</ele>
        <time>2014-10-12T07:43:52Z</time>
      </trkpt>
      <trkpt lat="47.26761" lon="-1.66307">
        <ele>46.8</ele>
        <time>2014-10-12T07:43:54Z</time>
      </trkpt>
      <trkpt lat="47.26766" lon="-1.6631">
        <ele>47.2</ele>
        <time>2014-10-12T07:43:57Z</time>
      </trkpt>
      <trkpt lat="47.26769" lon="-1.66313">
        <ele>47.4</ele>
        <time>2014-10-12T07:43:59Z</time>
      </trkpt>
      <trkpt lat="47.26772" lon="-1.66315">
        <ele>47.7</ele>
        <time>2014-10-12T07:44:01Z</time>
      </trkpt>
      <trkpt lat="47.26776" lon="-1.66317">
        <ele>48.1</ele>
        <time>2014-10-12T07:44:03Z</time>
      </trkpt>
      <trkpt lat="47.26781" lon="-1.66322">
        <ele>48.4</ele>
        <time>2014-10-12T07:44:05Z</time>
      </trkpt>
      <trkpt lat="47.26785" lon="-1.66326">
        <ele>48.7</ele>
        <time>2014-10-12T07:44:07Z</time>
      </trkpt>
      <trkpt lat="47.26788" lon="-1.66329">
        <ele>48.9</ele>
        <time>2014-10-12T07:44:09Z</time>
      </trkpt>
      <trkpt lat="47.26792" lon="-1.66331">
        <ele>49.2</ele>
        <time>2014-10-12T07:44:11Z</time>
      </trkpt>
      <trkpt lat="47.26795" lon="-1.66333">
        <ele>49.2</ele>
        <time>2014-10-12T07:44:13Z</time>
      </trkpt>
      <trkpt lat="47.26799" lon="-1.66335">
        <ele>49.3</ele>
        <time>2014-10-12T07:44:15Z</time>
      </trkpt>
      <trkpt lat="47.26804" lon="-1.66336">
        <ele>49.5</ele>
        <time>2014-10-12T07:44:17Z</time>
      </trkpt>
      <trkpt lat="47.26809" lon="-1.6634">
        <ele>49.6</ele>
        <time>2014-10-12T07:44:19Z</time>
      </trkpt>
      <trkpt lat="47.26812" lon="-1.66342">
        <ele>49.6</ele>
        <time>2014-10-12T07:44:20Z</time>
      </trkpt>
      <trkpt lat="47.26814" lon="-1.66343">
        <ele>49.7</ele>
        <time>2014-10-12T07:44:21Z</time>
      </trkpt>
      <trkpt lat="47.26818" lon="-1.66345">
        <ele>49.8</ele>
        <time>2014-10-12T07:44:23Z</time>
      </trkpt>
      <trkpt lat="47.26821" lon="-1.66346">
        <ele>49.9</ele>
        <time>2014-10-12T07:44:25Z</time>
      </trkpt>
      <trkpt lat="47.26824" lon="-1.66347">
        <ele>50</ele>
        <time>2014-10-12T07:44:27Z</time>
      </trkpt>
      <trkpt lat="47.26827" lon="-1.66348">
        <ele>50.2</ele>
        <time>2014-10-12T07:44:29Z</time>
      </trkpt>
      <trkpt lat="47.26829" lon="-1.66348">
        <ele>50.4</ele>
        <time>2014-10-12T07:44:30Z</time>
      </trkpt>
      <trkpt lat="47.26833" lon="-1.66349">
        <ele>50.5</ele>
        <time>2014-10-12T07:44:31Z</time>
      </trkpt>
      <trkpt lat="47.26836" lon="-1.6635">
        <ele>50.7</ele>
        <time>2014-10-12T07:44:32Z</time>
      </trkpt>
      <trkpt lat="47.2684" lon="-1.66351">
        <ele>50.9</ele>
        <time>2014-10-12T07:44:34Z</time>
      </trkpt>
      <trkpt lat="47.26844" lon="-1.66353">
        <ele>51.2</ele>
        <time>2014-10-12T07:44:36Z</time>
      </trkpt>
      <trkpt lat="47.26848" lon="-1.66354">
        <ele>51.4</ele>
        <time>2014-10-12T07:44:38Z</time>
      </trkpt>
      <trkpt lat="47.26851" lon="-1.66356">
        <ele>51.5</ele>
        <time>2014-10-12T07:44:39Z</time>
      </trkpt>
      <trkpt lat="47.26855" lon="-1.66357">
        <ele>51.8</ele>
        <time>2014-10-12T07:44:41Z</time>
      </trkpt>
      <trkpt lat="47.26859" lon="-1.66357">
        <ele>52.1</ele>
        <time>2014-10-12T07:44:43Z</time>
      </trkpt>
      <trkpt lat="47.26863" lon="-1.66358">
        <ele>52.3</ele>
        <time>2014-10-12T07:44:45Z</time>
      </trkpt>
      <trkpt lat="47.26866" lon="-1.6636">
        <ele>52.5</ele>
        <time>2014-10-12T07:44:46Z</time>
      </trkpt>
      <trkpt lat="47.26869" lon="-1.66362">
        <ele>52.7</ele>
        <time>2014-10-12T07:44:48Z</time>
      </trkpt>
      <trkpt lat="47.26871" lon="-1.66365">
        <ele>52.8</ele>
        <time>2014-10-12T07:44:49Z</time>
      </trkpt>
      <trkpt lat="47.26876" lon="-1.6637">
        <ele>53.1</ele>
        <time>2014-10-12T07:44:51Z</time>
      </trkpt>
      <trkpt lat="47.26878" lon="-1.66374">
        <ele>53.1</ele>
        <time>2014-10-12T07:44:52Z</time>
      </trkpt>
      <trkpt lat="47.2688" lon="-1.66378">
        <ele>53.1</ele>
        <time>2014-10-12T07:44:53Z</time>
      </trkpt>
      <trkpt lat="47.26881" lon="-1.66382">
        <ele>53</ele>
        <time>2014-10-12T07:44:54Z</time>
      </trkpt>
      <trkpt lat="47.26884" lon="-1.66386">
        <ele>52.9</ele>
        <time>2014-10-12T07:44:55Z</time>
      </trkpt>
      <trkpt lat="47.26887" lon="-1.66391">
        <ele>52.9</ele>
        <time>2014-10-12T07:44:57Z</time>
      </trkpt>
      <trkpt lat="47.26889" lon="-1.66395">
        <ele>52.9</ele>
        <time>2014-10-12T07:44:58Z</time>
      </trkpt>
      <trkpt lat="47.26891" lon="-1.66402">
        <ele>52.7</ele>
        <time>2014-10-12T07:45:00Z</time>
      </trkpt>
      <trkpt lat="47.26893" lon="-1.66407">
        <ele>52.7</ele>
        <time>2014-10-12T07:45:01Z</time>
      </trkpt>
      <trkpt lat="47.26894" lon="-1.66411">
        <ele>52.6</ele>
        <time>2014-10-12T07:45:02Z</time>
      </trkpt>
      <trkpt lat="47.26895" lon="-1.66416">
        <ele>52.5</ele>
        <time>2014-10-12T07:45:03Z</time>
      </trkpt>
      <trkpt lat="47.26895" lon="-1.6642">
        <ele>52.4</ele>
        <time>2014-10-12T07:45:04Z</time>
      </trkpt>
      <trkpt lat="47.26896" lon="-1.66425">
        <ele>52.3</ele>
        <time>2014-10-12T07:45:05Z</time>
      </trkpt>
      <trkpt lat="47.26897" lon="-1.66431">
        <ele>52.1</ele>
        <time>2014-10-12T07:45:06Z</time>
      </trkpt>
      <trkpt lat="47.26897" lon="-1.66436">
        <ele>52</ele>
        <time>2014-10-12T07:45:07Z</time>
      </trkpt>
      <trkpt lat="47.26897" lon="-1.6644">
        <ele>51.9</ele>
        <time>2014-10-12T07:45:08Z</time>
      </trkpt>
      <trkpt lat="47.26898" lon="-1.66445">
        <ele>51.8</ele>
        <time>2014-10-12T07:45:09Z</time>
      </trkpt>
      <trkpt lat="47.26898" lon="-1.66454">
        <ele>51.5</ele>
        <time>2014-10-12T07:45:11Z</time>
      </trkpt>
      <trkpt lat="47.26898" lon="-1.6646">
        <ele>51.3</ele>
        <time>2014-10-12T07:45:12Z</time>
      </trkpt>
      <trkpt lat="47.26898" lon="-1.66465">
        <ele>51.2</ele>
        <time>2014-10-12T07:45:13Z</time>
      </trkpt>
      <trkpt lat="47.26899" lon="-1.6647">
        <ele>51</ele>
        <time>2014-10-12T07:45:14Z</time>
      </trkpt>
      <trkpt lat="47.269" lon="-1.66476">
        <ele>50.9</ele>
        <time>2014-10-12T07:45:15Z</time>
      </trkpt>
      <trkpt lat="47.26903" lon="-1.66481">
        <ele>50.8</ele>
        <time>2014-10-12T07:45:16Z</time>
      </trkpt>
      <trkpt lat="47.26906" lon="-1.66485">
        <ele>50.8</ele>
        <time>2014-10-12T07:45:17Z</time>
      </trkpt>
      <trkpt lat="47.26909" lon="-1.66489">
        <ele>50.9</ele>
        <time>2014-10-12T07:45:18Z</time>
      </trkpt>
      <trkpt lat="47.26913" lon="-1.66492">
        <ele>50.9</ele>
        <time>2014-10-12T07:45:19Z</time>
      </trkpt>
      <trkpt lat="47.26917" lon="-1.66494">
        <ele>51</ele>
        <time>2014-10-12T07:45:20Z</time>
      </trkpt>
      <trkpt lat="47.2692" lon="-1.66496">
        <ele>51.1</ele>
        <time>2014-10-12T07:45:21Z</time>
      </trkpt>
      <trkpt lat="47.26923" lon="-1.665">
        <ele>51</ele>
        <time>2014-10-12T07:45:22Z</time>
      </trkpt>
      <trkpt lat="47.26927" lon="-1.66501">
        <ele>51.1</ele>
        <time>2014-10-12T07:45:23Z</time>
      </trkpt>
      <trkpt lat="47.26931" lon="-1.66502">
        <ele>51.3</ele>
        <time>2014-10-12T07:45:24Z</time>
      </trkpt>
      <trkpt lat="47.26934" lon="-1.66502">
        <ele>51.4</ele>
        <time>2014-10-12T07:45:25Z</time>
      </trkpt>
      <trkpt lat="47.26938" lon="-1.66503">
        <ele>51.5</ele>
        <time>2014-10-12T07:45:26Z</time>
      </trkpt>
      <trkpt lat="47.26942" lon="-1.66503">
        <ele>51.7</ele>
        <time>2014-10-12T07:45:27Z</time>
      </trkpt>
      <trkpt lat="47.26946" lon="-1.66503">
        <ele>51.8</ele>
        <time>2014-10-12T07:45:28Z</time>
      </trkpt>
      <trkpt lat="47.26949" lon="-1.66503">
        <ele>52</ele>
        <time>2014-10-12T07:45:29Z</time>
      </trkpt>
      <trkpt lat="47.26953" lon="-1.66503">
        <ele>52.1</ele>
        <time>2014-10-12T07:45:30Z</time>
      </trkpt>
      <trkpt lat="47.26957" lon="-1.66502">
        <ele>52.3</ele>
        <time>2014-10-12T07:45:31Z</time>
      </trkpt>
      <trkpt lat="47.26961" lon="-1.66503">
        <ele>52.4</ele>
        <time>2014-10-12T07:45:32Z</time>
      </trkpt>
      <trkpt lat="47.26964" lon="-1.66502">
        <ele>52.6</ele>
        <time>2014-10-12T07:45:33Z</time>
      </trkpt>
      <trkpt lat="47.26967" lon="-1.66502">
        <ele>52.7</ele>
        <time>2014-10-12T07:45:34Z</time>
      </trkpt>
      <trkpt lat="47.26971" lon="-1.66501">
        <ele>52.8</ele>
        <time>2014-10-12T07:45:35Z</time>
      </trkpt>
      <trkpt lat="47.26974" lon="-1.66501">
        <ele>52.9</ele>
        <time>2014-10-12T07:45:36Z</time>
      </trkpt>
      <trkpt lat="47.26978" lon="-1.665">
        <ele>53.1</ele>
        <time>2014-10-12T07:45:37Z</time>
      </trkpt>
      <trkpt lat="47.26982" lon="-1.66499">
        <ele>53.2</ele>
        <time>2014-10-12T07:45:38Z</time>
      </trkpt>
      <trkpt lat="47.26985" lon="-1.66499">
        <ele>53.4</ele>
        <time>2014-10-12T07:45:39Z</time>
      </trkpt>
      <trkpt lat="47.26989" lon="-1.66499">
        <ele>53.5</ele>
        <time>2014-10-12T07:45:40Z</time>
      </trkpt>
      <trkpt lat="47.26992" lon="-1.66499">
        <ele>53.6</ele>
        <time>2014-10-12T07:45:41Z</time>
      </trkpt>
      <trkpt lat="47.26996" lon="-1.665">
        <ele>53.6</ele>
        <time>2014-10-12T07:45:42Z</time>
      </trkpt>
      <trkpt lat="47.26999" lon="-1.665">
        <ele>53.7</ele>
        <time>2014-10-12T07:45:43Z</time>
      </trkpt>
      <trkpt lat="47.27002" lon="-1.66499">
        <ele>53.9</ele>
        <time>2014-10-12T07:45:44Z</time>
      </trkpt>
      <trkpt lat="47.27006" lon="-1.66499">
        <ele>54</ele>
        <time>2014-10-12T07:45:45Z</time>
      </trkpt>
      <trkpt lat="47.27009" lon="-1.66499">
        <ele>54.1</ele>
        <time>2014-10-12T07:45:46Z</time>
      </trkpt>
      <trkpt lat="47.27013" lon="-1.665">
        <ele>54.2</ele>
        <time>2014-10-12T07:45:47Z</time>
      </trkpt>
      <trkpt lat="47.27017" lon="-1.66501">
        <ele>54.2</ele>
        <time>2014-10-12T07:45:48Z</time>
      </trkpt>
      <trkpt lat="47.27021" lon="-1.66502">
        <ele>54.3</ele>
        <time>2014-10-12T07:45:49Z</time>
      </trkpt>
      <trkpt lat="47.27024" lon="-1.66504">
        <ele>54.3</ele>
        <time>2014-10-12T07:45:50Z</time>
      </trkpt>
      <trkpt lat="47.27028" lon="-1.66506">
        <ele>54.3</ele>
        <time>2014-10-12T07:45:51Z</time>
      </trkpt>
      <trkpt lat="47.27031" lon="-1.66508">
        <ele>54.3</ele>
        <time>2014-10-12T07:45:52Z</time>
      </trkpt>
      <trkpt lat="47.27035" lon="-1.66509">
        <ele>54.4</ele>
        <time>2014-10-12T07:45:53Z</time>
      </trkpt>
      <trkpt lat="47.27039" lon="-1.6651">
        <ele>54.4</ele>
        <time>2014-10-12T07:45:54Z</time>
      </trkpt>
      <trkpt lat="47.27042" lon="-1.66511">
        <ele>54.5</ele>
        <time>2014-10-12T07:45:55Z</time>
      </trkpt>
      <trkpt lat="47.27045" lon="-1.66515">
        <ele>54.4</ele>
        <time>2014-10-12T07:45:56Z</time>
      </trkpt>
      <trkpt lat="47.27049" lon="-1.66517">
        <ele>54.5</ele>
        <time>2014-10-12T07:45:57Z</time>
      </trkpt>
      <trkpt lat="47.27052" lon="-1.66519">
        <ele>54.5</ele>
        <time>2014-10-12T07:45:58Z</time>
      </trkpt>
      <trkpt lat="47.27056" lon="-1.66521">
        <ele>54.6</ele>
        <time>2014-10-12T07:45:59Z</time>
      </trkpt>
      <trkpt lat="47.2706" lon="-1.66523">
        <ele>54.6</ele>
        <time>2014-10-12T07:46:00Z</time>
      </trkpt>
      <trkpt lat="47.27064" lon="-1.66526">
        <ele>54.7</ele>
        <time>2014-10-12T07:46:01Z</time>
      </trkpt>
      <trkpt lat="47.27067" lon="-1.66528">
        <ele>54.7</ele>
        <time>2014-10-12T07:46:02Z</time>
      </trkpt>
      <trkpt lat="47.27071" lon="-1.6653">
        <ele>54.8</ele>
        <time>2014-10-12T07:46:03Z</time>
      </trkpt>
      <trkpt lat="47.27074" lon="-1.66531">
        <ele>54.9</ele>
        <time>2014-10-12T07:46:04Z</time>
      </trkpt>
      <trkpt lat="47.27078" lon="-1.66534">
        <ele>55</ele>
        <time>2014-10-12T07:46:05Z</time>
      </trkpt>
      <trkpt lat="47.27081" lon="-1.66536">
        <ele>55.1</ele>
        <time>2014-10-12T07:46:06Z</time>
      </trkpt>
      <trkpt lat="47.27085" lon="-1.66538">
        <ele>55.2</ele>
        <time>2014-10-12T07:46:07Z</time>
      </trkpt>
      <trkpt lat="47.27088" lon="-1.66539">
        <ele>55.3</ele>
        <time>2014-10-12T07:46:08Z</time>
      </trkpt>
      <trkpt lat="47.27092" lon="-1.66542">
        <ele>55.4</ele>
        <time>2014-10-12T07:46:09Z</time>
      </trkpt>
      <trkpt lat="47.27095" lon="-1.66545">
        <ele>55.5</ele>
        <time>2014-10-12T07:46:10Z</time>
      </trkpt>
      <trkpt lat="47.27098" lon="-1.66548">
        <ele>55.7</ele>
        <time>2014-10-12T07:46:11Z</time>
      </trkpt>
      <trkpt lat="47.27102" lon="-1.6655">
        <ele>55.8</ele>
        <time>2014-10-12T07:46:12Z</time>
      </trkpt>
      <trkpt lat="47.27105" lon="-1.66553">
        <ele>56</ele>
        <time>2014-10-12T07:46:13Z</time>
      </trkpt>
      <trkpt lat="47.27108" lon="-1.66555">
        <ele>56.1</ele>
        <time>2014-10-12T07:46:14Z</time>
      </trkpt>
      <trkpt lat="47.27111" lon="-1.66557">
        <ele>56.2</ele>
        <time>2014-10-12T07:46:15Z</time>
      </trkpt>
      <trkpt lat="47.27114" lon="-1.6656">
        <ele>56.4</ele>
        <time>2014-10-12T07:46:16Z</time>
      </trkpt>
      <trkpt lat="47.27117" lon="-1.66562">
        <ele>56.6</ele>
        <time>2014-10-12T07:46:17Z</time>
      </trkpt>
      <trkpt lat="47.2712" lon="-1.66565">
        <ele>56.7</ele>
        <time>2014-10-12T07:46:18Z</time>
      </trkpt>
      <trkpt lat="47.27124" lon="-1.66568">
        <ele>56.9</ele>
        <time>2014-10-12T07:46:19Z</time>
      </trkpt>
      <trkpt lat="47.27127" lon="-1.6657">
        <ele>57.1</ele>
        <time>2014-10-12T07:46:20Z</time>
      </trkpt>
      <trkpt lat="47.2713" lon="-1.66573">
        <ele>57.2</ele>
        <time>2014-10-12T07:46:21Z</time>
      </trkpt>
      <trkpt lat="47.27133" lon="-1.66576">
        <ele>57.3</ele>
        <time>2014-10-12T07:46:22Z</time>
      </trkpt>
      <trkpt lat="47.27136" lon="-1.66578">
        <ele>57.4</ele>
        <time>2014-10-12T07:46:23Z</time>
      </trkpt>
      <trkpt lat="47.27139" lon="-1.66582">
        <ele>57.5</ele>
        <time>2014-10-12T07:46:24Z</time>
      </trkpt>
      <trkpt lat="47.27142" lon="-1.66584">
        <ele>57.6</ele>
        <time>2014-10-12T07:46:25Z</time>
      </trkpt>
      <trkpt lat="47.27144" lon="-1.66587">
        <ele>57.7</ele>
        <time>2014-10-12T07:46:26Z</time>
      </trkpt>
      <trkpt lat="47.27147" lon="-1.66589">
        <ele>57.8</ele>
        <time>2014-10-12T07:46:27Z</time>
      </trkpt>
      <trkpt lat="47.2715" lon="-1.66591">
        <ele>57.9</ele>
        <time>2014-10-12T07:46:28Z</time>
      </trkpt>
      <trkpt lat="47.27153" lon="-1.66593">
        <ele>58</ele>
        <time>2014-10-12T07:46:29Z</time>
      </trkpt>
      <trkpt lat="47.27156" lon="-1.66595">
        <ele>58.1</ele>
        <time>2014-10-12T07:46:30Z</time>
      </trkpt>
      <trkpt lat="47.27159" lon="-1.66597">
        <ele>58.2</ele>
        <time>2014-10-12T07:46:31Z</time>
      </trkpt>
      <trkpt lat="47.27162" lon="-1.666">
        <ele>58.3</ele>
        <time>2014-10-12T07:46:32Z</time>
      </trkpt>
      <trkpt lat="47.27165" lon="-1.66601">
        <ele>58.4</ele>
        <time>2014-10-12T07:46:33Z</time>
      </trkpt>
      <trkpt lat="47.27167" lon="-1.66603">
        <ele>58.5</ele>
        <time>2014-10-12T07:46:34Z</time>
      </trkpt>
      <trkpt lat="47.2717" lon="-1.66604">
        <ele>58.6</ele>
        <time>2014-10-12T07:46:35Z</time>
      </trkpt>
      <trkpt lat="47.27173" lon="-1.66606">
        <ele>58.7</ele>
        <time>2014-10-12T07:46:36Z</time>
      </trkpt>
      <trkpt lat="47.27176" lon="-1.66608">
        <ele>58.8</ele>
        <time>2014-10-12T07:46:37Z</time>
      </trkpt>
      <trkpt lat="47.27179" lon="-1.6661">
        <ele>59</ele>
        <time>2014-10-12T07:46:38Z</time>
      </trkpt>
      <trkpt lat="47.27182" lon="-1.66612">
        <ele>59.1</ele>
        <time>2014-10-12T07:46:39Z</time>
      </trkpt>
      <trkpt lat="47.27185" lon="-1.66613">
        <ele>59.2</ele>
        <time>2014-10-12T07:46:40Z</time>
      </trkpt>
      <trkpt lat="47.27188" lon="-1.66615">
        <ele>59.3</ele>
        <time>2014-10-12T07:46:41Z</time>
      </trkpt>
      <trkpt lat="47.27192" lon="-1.66615">
        <ele>59.4</ele>
        <time>2014-10-12T07:46:42Z</time>
      </trkpt>
      <trkpt lat="47.27195" lon="-1.66617">
        <ele>59.5</ele>
        <time>2014-10-12T07:46:43Z</time>
      </trkpt>
      <trkpt lat="47.27198" lon="-1.66618">
        <ele>59.6</ele>
        <time>2014-10-12T07:46:44Z</time>
      </trkpt>
      <trkpt lat="47.27201" lon="-1.66619">
        <ele>59.7</ele>
        <time>2014-10-12T07:46:45Z</time>
      </trkpt>
      <trkpt lat="47.27203" lon="-1.66621">
        <ele>59.8</ele>
        <time>2014-10-12T07:46:46Z</time>
      </trkpt>
      <trkpt lat="47.27206" lon="-1.66622">
        <ele>59.9</ele>
        <time>2014-10-12T07:46:47Z</time>
      </trkpt>
      <trkpt lat="47.27209" lon="-1.66623">
        <ele>60</ele>
        <time>2014-10-12T07:46:48Z</time>
      </trkpt>
      <trkpt lat="47.27212" lon="-1.66625">
        <ele>60.1</ele>
        <time>2014-10-12T07:46:49Z</time>
      </trkpt>
      <trkpt lat="47.27215" lon="-1.66626">
        <ele>60.2</ele>
        <time>2014-10-12T07:46:50Z</time>
      </trkpt>
      <trkpt lat="47.27219" lon="-1.66627">
        <ele>60.2</ele>
        <time>2014-10-12T07:46:51Z</time>
      </trkpt>
      <trkpt lat="47.27222" lon="-1.66628">
        <ele>60.3</ele>
        <time>2014-10-12T07:46:52Z</time>
      </trkpt>
      <trkpt lat="47.27226" lon="-1.66629">
        <ele>60.4</ele>
        <time>2014-10-12T07:46:53Z</time>
      </trkpt>
      <trkpt lat="47.27229" lon="-1.66628">
        <ele>60.5</ele>
        <time>2014-10-12T07:46:54Z</time>
      </trkpt>
      <trkpt lat="47.27232" lon="-1.66628">
        <ele>60.5</ele>
        <time>2014-10-12T07:46:55Z</time>
      </trkpt>
      <trkpt lat="47.27234" lon="-1.66629">
        <ele>60.6</ele>
        <time>2014-10-12T07:46:56Z</time>
      </trkpt>
      <trkpt lat="47.27238" lon="-1.66629">
        <ele>60.7</ele>
        <time>2014-10-12T07:46:57Z</time>
      </trkpt>
      <trkpt lat="47.27241" lon="-1.66629">
        <ele>60.7</ele>
        <time>2014-10-12T07:46:58Z</time>
      </trkpt>
      <trkpt lat="47.27247" lon="-1.66628">
        <ele>60.9</ele>
        <time>2014-10-12T07:47:00Z</time>
      </trkpt>
      <trkpt lat="47.2725" lon="-1.66629">
        <ele>61</ele>
        <time>2014-10-12T07:47:01Z</time>
      </trkpt>
      <trkpt lat="47.27253" lon="-1.66629">
        <ele>61</ele>
        <time>2014-10-12T07:47:02Z</time>
      </trkpt>
      <trkpt lat="47.27256" lon="-1.66629">
        <ele>61.1</ele>
        <time>2014-10-12T07:47:03Z</time>
      </trkpt>
      <trkpt lat="47.27259" lon="-1.6663">
        <ele>61.2</ele>
        <time>2014-10-12T07:47:04Z</time>
      </trkpt>
      <trkpt lat="47.27263" lon="-1.6663">
        <ele>61.2</ele>
        <time>2014-10-12T07:47:05Z</time>
      </trkpt>
      <trkpt lat="47.27266" lon="-1.6663">
        <ele>61.3</ele>
        <time>2014-10-12T07:47:06Z</time>
      </trkpt>
      <trkpt lat="47.27269" lon="-1.66631">
        <ele>61.4</ele>
        <time>2014-10-12T07:47:07Z</time>
      </trkpt>
      <trkpt lat="47.27273" lon="-1.66631">
        <ele>61.4</ele>
        <time>2014-10-12T07:47:08Z</time>
      </trkpt>
      <trkpt lat="47.27276" lon="-1.66631">
        <ele>61.5</ele>
        <time>2014-10-12T07:47:09Z</time>
      </trkpt>
      <trkpt lat="47.27279" lon="-1.66632">
        <ele>61.5</ele>
        <time>2014-10-12T07:47:10Z</time>
      </trkpt>
      <trkpt lat="47.27281" lon="-1.66633">
        <ele>61.6</ele>
        <time>2014-10-12T07:47:11Z</time>
      </trkpt>
      <trkpt lat="47.27284" lon="-1.66634">
        <ele>61.6</ele>
        <time>2014-10-12T07:47:12Z</time>
      </trkpt>
      <trkpt lat="47.27287" lon="-1.66634">
        <ele>61.7</ele>
        <time>2014-10-12T07:47:13Z</time>
      </trkpt>
      <trkpt lat="47.2729" lon="-1.66634">
        <ele>61.7</ele>
        <time>2014-10-12T07:47:14Z</time>
      </trkpt>
      <trkpt lat="47.27293" lon="-1.66634">
        <ele>61.8</ele>
        <time>2014-10-12T07:47:15Z</time>
      </trkpt>
      <trkpt lat="47.27297" lon="-1.66634">
        <ele>61.7</ele>
        <time>2014-10-12T07:47:16Z</time>
      </trkpt>
      <trkpt lat="47.273" lon="-1.66635">
        <ele>61.7</ele>
        <time>2014-10-12T07:47:17Z</time>
      </trkpt>
      <trkpt lat="47.27303" lon="-1.66635">
        <ele>61.7</ele>
        <time>2014-10-12T07:47:18Z</time>
      </trkpt>
      <trkpt lat="47.27306" lon="-1.66636">
        <ele>61.7</ele>
        <time>2014-10-12T07:47:19Z</time>
      </trkpt>
      <trkpt lat="47.2731" lon="-1.66638">
        <ele>61.6</ele>
        <time>2014-10-12T07:47:20Z</time>
      </trkpt>
      <trkpt lat="47.27312" lon="-1.66642">
        <ele>61.5</ele>
        <time>2014-10-12T07:47:21Z</time>
      </trkpt>
      <trkpt lat="47.27315" lon="-1.66648">
        <ele>61.5</ele>
        <time>2014-10-12T07:47:22Z</time>
      </trkpt>
      <trkpt lat="47.27317" lon="-1.66653">
        <ele>61.4</ele>
        <time>2014-10-12T07:47:23Z</time>
      </trkpt>
      <trkpt lat="47.27319" lon="-1.66659">
        <ele>61.4</ele>
        <time>2014-10-12T07:47:24Z</time>
      </trkpt>
      <trkpt lat="47.27322" lon="-1.66664">
        <ele>61.4</ele>
        <time>2014-10-12T07:47:25Z</time>
      </trkpt>
      <trkpt lat="47.27325" lon="-1.66669">
        <ele>61.4</ele>
        <time>2014-10-12T07:47:26Z</time>
      </trkpt>
      <trkpt lat="47.2733" lon="-1.66673">
        <ele>61.4</ele>
        <time>2014-10-12T07:47:27Z</time>
      </trkpt>
      <trkpt lat="47.27333" lon="-1.66678">
        <ele>61.5</ele>
        <time>2014-10-12T07:47:28Z</time>
      </trkpt>
      <trkpt lat="47.27336" lon="-1.66683">
        <ele>61.6</ele>
        <time>2014-10-12T07:47:29Z</time>
      </trkpt>
      <trkpt lat="47.2734" lon="-1.66688">
        <ele>61.6</ele>
        <time>2014-10-12T07:47:30Z</time>
      </trkpt>
      <trkpt lat="47.27343" lon="-1.66693">
        <ele>61.8</ele>
        <time>2014-10-12T07:47:31Z</time>
      </trkpt>
      <trkpt lat="47.27346" lon="-1.66698">
        <ele>61.9</ele>
        <time>2014-10-12T07:47:32Z</time>
      </trkpt>
      <trkpt lat="47.2735" lon="-1.66703">
        <ele>62</ele>
        <time>2014-10-12T07:47:33Z</time>
      </trkpt>
      <trkpt lat="47.27353" lon="-1.66708">
        <ele>62.2</ele>
        <time>2014-10-12T07:47:34Z</time>
      </trkpt>
      <trkpt lat="47.27357" lon="-1.66713">
        <ele>62.5</ele>
        <time>2014-10-12T07:47:35Z</time>
      </trkpt>
      <trkpt lat="47.27361" lon="-1.66719">
        <ele>62.7</ele>
        <time>2014-10-12T07:47:36Z</time>
      </trkpt>
      <trkpt lat="47.27365" lon="-1.66724">
        <ele>63</ele>
        <time>2014-10-12T07:47:37Z</time>
      </trkpt>
      <trkpt lat="47.27369" lon="-1.66729">
        <ele>63.3</ele>
        <time>2014-10-12T07:47:38Z</time>
      </trkpt>
      <trkpt lat="47.27373" lon="-1.66735">
        <ele>63.5</ele>
        <time>2014-10-12T07:47:39Z</time>
      </trkpt>
      <trkpt lat="47.27377" lon="-1.6674">
        <ele>63.8</ele>
        <time>2014-10-12T07:47:40Z</time>
      </trkpt>
      <trkpt lat="47.27381" lon="-1.66745">
        <ele>63.9</ele>
        <time>2014-10-12T07:47:41Z</time>
      </trkpt>
      <trkpt lat="47.27384" lon="-1.66749">
        <ele>64</ele>
        <time>2014-10-12T07:47:42Z</time>
      </trkpt>
      <trkpt lat="47.27388" lon="-1.66754">
        <ele>64.2</ele>
        <time>2014-10-12T07:47:43Z</time>
      </trkpt>
      <trkpt lat="47.27391" lon="-1.66757">
        <ele>64.3</ele>
        <time>2014-10-12T07:47:44Z</time>
      </trkpt>
      <trkpt lat="47.27394" lon="-1.66762">
        <ele>64.4</ele>
        <time>2014-10-12T07:47:45Z</time>
      </trkpt>
      <trkpt lat="47.27396" lon="-1.66765">
        <ele>64.5</ele>
        <time>2014-10-12T07:47:46Z</time>
      </trkpt>
      <trkpt lat="47.27399" lon="-1.66769">
        <ele>64.7</ele>
        <time>2014-10-12T07:47:47Z</time>
      </trkpt>
      <trkpt lat="47.27402" lon="-1.66773">
        <ele>64.8</ele>
        <time>2014-10-12T07:47:48Z</time>
      </trkpt>
      <trkpt lat="47.27405" lon="-1.66778">
        <ele>65</ele>
        <time>2014-10-12T07:47:49Z</time>
      </trkpt>
      <trkpt lat="47.27408" lon="-1.66784">
        <ele>65.2</ele>
        <time>2014-10-12T07:47:50Z</time>
      </trkpt>
      <trkpt lat="47.2741" lon="-1.66789">
        <ele>65.3</ele>
        <time>2014-10-12T07:47:51Z</time>
      </trkpt>
      <trkpt lat="47.27413" lon="-1.66794">
        <ele>65.4</ele>
        <time>2014-10-12T07:47:52Z</time>
      </trkpt>
      <trkpt lat="47.27415" lon="-1.66799">
        <ele>65.2</ele>
        <time>2014-10-12T07:47:53Z</time>
      </trkpt>
      <trkpt lat="47.27418" lon="-1.66802">
        <ele>65.1</ele>
        <time>2014-10-12T07:47:54Z</time>
      </trkpt>
      <trkpt lat="47.27421" lon="-1.66807">
        <ele>64.9</ele>
        <time>2014-10-12T07:47:55Z</time>
      </trkpt>
      <trkpt lat="47.27424" lon="-1.66813">
        <ele>64.7</ele>
        <time>2014-10-12T07:47:56Z</time>
      </trkpt>
      <trkpt lat="47.27425" lon="-1.66819">
        <ele>64.5</ele>
        <time>2014-10-12T07:47:57Z</time>
      </trkpt>
      <trkpt lat="47.27428" lon="-1.66825">
        <ele>64.3</ele>
        <time>2014-10-12T07:47:58Z</time>
      </trkpt>
      <trkpt lat="47.27432" lon="-1.66832">
        <ele>64.1</ele>
        <time>2014-10-12T07:47:59Z</time>
      </trkpt>
      <trkpt lat="47.27435" lon="-1.66839">
        <ele>63.9</ele>
        <time>2014-10-12T07:48:00Z</time>
      </trkpt>
      <trkpt lat="47.27438" lon="-1.66846">
        <ele>63.7</ele>
        <time>2014-10-12T07:48:01Z</time>
      </trkpt>
      <trkpt lat="47.27441" lon="-1.66851">
        <ele>63.5</ele>
        <time>2014-10-12T07:48:02Z</time>
      </trkpt>
      <trkpt lat="47.27444" lon="-1.66857">
        <ele>63.3</ele>
        <time>2014-10-12T07:48:03Z</time>
      </trkpt>
      <trkpt lat="47.27446" lon="-1.66862">
        <ele>63.2</ele>
        <time>2014-10-12T07:48:04Z</time>
      </trkpt>
      <trkpt lat="47.27449" lon="-1.66868">
        <ele>63</ele>
        <time>2014-10-12T07:48:05Z</time>
      </trkpt>
      <trkpt lat="47.27452" lon="-1.66875">
        <ele>62.9</ele>
        <time>2014-10-12T07:48:06Z</time>
      </trkpt>
      <trkpt lat="47.27455" lon="-1.66879">
        <ele>63</ele>
        <time>2014-10-12T07:48:07Z</time>
      </trkpt>
      <trkpt lat="47.27456" lon="-1.66883">
        <ele>63.2</ele>
        <time>2014-10-12T07:48:08Z</time>
      </trkpt>
      <trkpt lat="47.27459" lon="-1.66889">
        <ele>63.3</ele>
        <time>2014-10-12T07:48:09Z</time>
      </trkpt>
      <trkpt lat="47.27461" lon="-1.66895">
        <ele>63.6</ele>
        <time>2014-10-12T07:48:10Z</time>
      </trkpt>
      <trkpt lat="47.27462" lon="-1.66901">
        <ele>63.8</ele>
        <time>2014-10-12T07:48:11Z</time>
      </trkpt>
      <trkpt lat="47.27464" lon="-1.66906">
        <ele>64</ele>
        <time>2014-10-12T07:48:12Z</time>
      </trkpt>
      <trkpt lat="47.27466" lon="-1.6691">
        <ele>64.2</ele>
        <time>2014-10-12T07:48:13Z</time>
      </trkpt>
      <trkpt lat="47.27467" lon="-1.66915">
        <ele>64.3</ele>
        <time>2014-10-12T07:48:14Z</time>
      </trkpt>
      <trkpt lat="47.27469" lon="-1.66919">
        <ele>64.5</ele>
        <time>2014-10-12T07:48:15Z</time>
      </trkpt>
      <trkpt lat="47.27471" lon="-1.66925">
        <ele>64.7</ele>
        <time>2014-10-12T07:48:16Z</time>
      </trkpt>
      <trkpt lat="47.27473" lon="-1.66931">
        <ele>64.9</ele>
        <time>2014-10-12T07:48:17Z</time>
      </trkpt>
      <trkpt lat="47.27475" lon="-1.66936">
        <ele>65</ele>
        <time>2014-10-12T07:48:18Z</time>
      </trkpt>
      <trkpt lat="47.27477" lon="-1.6694">
        <ele>65.1</ele>
        <time>2014-10-12T07:48:19Z</time>
      </trkpt>
      <trkpt lat="47.27478" lon="-1.66945">
        <ele>65.3</ele>
        <time>2014-10-12T07:48:20Z</time>
      </trkpt>
      <trkpt lat="47.2748" lon="-1.66952">
        <ele>65.4</ele>
        <time>2014-10-12T07:48:21Z</time>
      </trkpt>
      <trkpt lat="47.27482" lon="-1.66957">
        <ele>65.6</ele>
        <time>2014-10-12T07:48:22Z</time>
      </trkpt>
      <trkpt lat="47.27484" lon="-1.66962">
        <ele>65.6</ele>
        <time>2014-10-12T07:48:23Z</time>
      </trkpt>
      <trkpt lat="47.27485" lon="-1.66966">
        <ele>65.7</ele>
        <time>2014-10-12T07:48:24Z</time>
      </trkpt>
      <trkpt lat="47.27487" lon="-1.66971">
        <ele>65.8</ele>
        <time>2014-10-12T07:48:25Z</time>
      </trkpt>
      <trkpt lat="47.27489" lon="-1.66977">
        <ele>65.8</ele>
        <time>2014-10-12T07:48:26Z</time>
      </trkpt>
      <trkpt lat="47.27491" lon="-1.66982">
        <ele>65.9</ele>
        <time>2014-10-12T07:48:27Z</time>
      </trkpt>
      <trkpt lat="47.27495" lon="-1.6699">
        <ele>66</ele>
        <time>2014-10-12T07:48:28Z</time>
      </trkpt>
      <trkpt lat="47.27497" lon="-1.66996">
        <ele>66</ele>
        <time>2014-10-12T07:48:29Z</time>
      </trkpt>
      <trkpt lat="47.27499" lon="-1.67002">
        <ele>66</ele>
        <time>2014-10-12T07:48:30Z</time>
      </trkpt>
      <trkpt lat="47.27501" lon="-1.67008">
        <ele>66</ele>
        <time>2014-10-12T07:48:31Z</time>
      </trkpt>
      <trkpt lat="47.27503" lon="-1.67013">
        <ele>66</ele>
        <time>2014-10-12T07:48:32Z</time>
      </trkpt>
      <trkpt lat="47.27504" lon="-1.67017">
        <ele>66</ele>
        <time>2014-10-12T07:48:33Z</time>
      </trkpt>
      <trkpt lat="47.27507" lon="-1.67023">
        <ele>65.9</ele>
        <time>2014-10-12T07:48:34Z</time>
      </trkpt>
      <trkpt lat="47.27509" lon="-1.67029">
        <ele>65.9</ele>
        <time>2014-10-12T07:48:35Z</time>
      </trkpt>
      <trkpt lat="47.27511" lon="-1.67034">
        <ele>65.8</ele>
        <time>2014-10-12T07:48:36Z</time>
      </trkpt>
      <trkpt lat="47.27513" lon="-1.67039">
        <ele>65.7</ele>
        <time>2014-10-12T07:48:37Z</time>
      </trkpt>
      <trkpt lat="47.27514" lon="-1.67043">
        <ele>65.7</ele>
        <time>2014-10-12T07:48:38Z</time>
      </trkpt>
      <trkpt lat="47.27516" lon="-1.67048">
        <ele>65.6</ele>
        <time>2014-10-12T07:48:39Z</time>
      </trkpt>
      <trkpt lat="47.27517" lon="-1.67051">
        <ele>65.6</ele>
        <time>2014-10-12T07:48:40Z</time>
      </trkpt>
      <trkpt lat="47.27519" lon="-1.67055">
        <ele>65.6</ele>
        <time>2014-10-12T07:48:42Z</time>
      </trkpt>
      <trkpt lat="47.27522" lon="-1.67059">
        <ele>65.5</ele>
        <time>2014-10-12T07:48:44Z</time>
      </trkpt>
      <trkpt lat="47.27525" lon="-1.67066">
        <ele>65.5</ele>
        <time>2014-10-12T07:48:49Z</time>
      </trkpt>
      <trkpt lat="47.27527" lon="-1.67072">
        <ele>65.4</ele>
        <time>2014-10-12T07:48:51Z</time>
      </trkpt>
      <trkpt lat="47.27528" lon="-1.67076">
        <ele>65.4</ele>
        <time>2014-10-12T07:48:52Z</time>
      </trkpt>
      <trkpt lat="47.27529" lon="-1.6708">
        <ele>65.4</ele>
        <time>2014-10-12T07:48:53Z</time>
      </trkpt>
      <trkpt lat="47.27529" lon="-1.67085">
        <ele>65.4</ele>
        <time>2014-10-12T07:48:54Z</time>
      </trkpt>
      <trkpt lat="47.2753" lon="-1.67089">
        <ele>65.4</ele>
        <time>2014-10-12T07:48:55Z</time>
      </trkpt>
      <trkpt lat="47.27531" lon="-1.67094">
        <ele>65.3</ele>
        <time>2014-10-12T07:48:56Z</time>
      </trkpt>
      <trkpt lat="47.27533" lon="-1.67099">
        <ele>65.3</ele>
        <time>2014-10-12T07:48:57Z</time>
      </trkpt>
      <trkpt lat="47.27534" lon="-1.67105">
        <ele>65.3</ele>
        <time>2014-10-12T07:48:58Z</time>
      </trkpt>
      <trkpt lat="47.27535" lon="-1.67111">
        <ele>65.2</ele>
        <time>2014-10-12T07:48:59Z</time>
      </trkpt>
      <trkpt lat="47.27536" lon="-1.67116">
        <ele>65.2</ele>
        <time>2014-10-12T07:49:00Z</time>
      </trkpt>
      <trkpt lat="47.27537" lon="-1.67122">
        <ele>65.2</ele>
        <time>2014-10-12T07:49:01Z</time>
      </trkpt>
      <trkpt lat="47.27538" lon="-1.67128">
        <ele>65.1</ele>
        <time>2014-10-12T07:49:02Z</time>
      </trkpt>
      <trkpt lat="47.27539" lon="-1.67135">
        <ele>65</ele>
        <time>2014-10-12T07:49:03Z</time>
      </trkpt>
      <trkpt lat="47.2754" lon="-1.67141">
        <ele>64.9</ele>
        <time>2014-10-12T07:49:04Z</time>
      </trkpt>
      <trkpt lat="47.27541" lon="-1.67147">
        <ele>64.8</ele>
        <time>2014-10-12T07:49:05Z</time>
      </trkpt>
      <trkpt lat="47.27543" lon="-1.67153">
        <ele>64.7</ele>
        <time>2014-10-12T07:49:06Z</time>
      </trkpt>
      <trkpt lat="47.27544" lon="-1.6716">
        <ele>64.7</ele>
        <time>2014-10-12T07:49:07Z</time>
      </trkpt>
      <trkpt lat="47.27545" lon="-1.67166">
        <ele>64.7</ele>
        <time>2014-10-12T07:49:08Z</time>
      </trkpt>
      <trkpt lat="47.27546" lon="-1.67172">
        <ele>64.6</ele>
        <time>2014-10-12T07:49:09Z</time>
      </trkpt>
      <trkpt lat="47.27547" lon="-1.67178">
        <ele>64.6</ele>
        <time>2014-10-12T07:49:10Z</time>
      </trkpt>
      <trkpt lat="47.27548" lon="-1.67184">
        <ele>64.6</ele>
        <time>2014-10-12T07:49:11Z</time>
      </trkpt>
      <trkpt lat="47.27549" lon="-1.6719">
        <ele>64.6</ele>
        <time>2014-10-12T07:49:12Z</time>
      </trkpt>
      <trkpt lat="47.2755" lon="-1.67195">
        <ele>64.6</ele>
        <time>2014-10-12T07:49:13Z</time>
      </trkpt>
      <trkpt lat="47.27552" lon="-1.67202">
        <ele>64.7</ele>
        <time>2014-10-12T07:49:14Z</time>
      </trkpt>
      <trkpt lat="47.27553" lon="-1.67208">
        <ele>64.7</ele>
        <time>2014-10-12T07:49:15Z</time>
      </trkpt>
      <trkpt lat="47.27554" lon="-1.67215">
        <ele>64.7</ele>
        <time>2014-10-12T07:49:16Z</time>
      </trkpt>
      <trkpt lat="47.27555" lon="-1.67221">
        <ele>64.8</ele>
        <time>2014-10-12T07:49:17Z</time>
      </trkpt>
      <trkpt lat="47.27556" lon="-1.67227">
        <ele>64.9</ele>
        <time>2014-10-12T07:49:18Z</time>
      </trkpt>
      <trkpt lat="47.27557" lon="-1.67232">
        <ele>64.9</ele>
        <time>2014-10-12T07:49:19Z</time>
      </trkpt>
      <trkpt lat="47.27558" lon="-1.67238">
        <ele>65</ele>
        <time>2014-10-12T07:49:20Z</time>
      </trkpt>
      <trkpt lat="47.27559" lon="-1.67244">
        <ele>65.1</ele>
        <time>2014-10-12T07:49:21Z</time>
      </trkpt>
      <trkpt lat="47.27561" lon="-1.6725">
        <ele>65.1</ele>
        <time>2014-10-12T07:49:22Z</time>
      </trkpt>
      <trkpt lat="47.27562" lon="-1.67256">
        <ele>65.2</ele>
        <time>2014-10-12T07:49:23Z</time>
      </trkpt>
      <trkpt lat="47.27563" lon="-1.67261">
        <ele>65.3</ele>
        <time>2014-10-12T07:49:24Z</time>
      </trkpt>
      <trkpt lat="47.27564" lon="-1.67267">
        <ele>65.4</ele>
        <time>2014-10-12T07:49:25Z</time>
      </trkpt>
      <trkpt lat="47.27566" lon="-1.67272">
        <ele>65.4</ele>
        <time>2014-10-12T07:49:26Z</time>
      </trkpt>
      <trkpt lat="47.27567" lon="-1.67278">
        <ele>65.5</ele>
        <time>2014-10-12T07:49:27Z</time>
      </trkpt>
      <trkpt lat="47.27569" lon="-1.67284">
        <ele>65.6</ele>
        <time>2014-10-12T07:49:28Z</time>
      </trkpt>
      <trkpt lat="47.27571" lon="-1.67288">
        <ele>65.7</ele>
        <time>2014-10-12T07:49:29Z</time>
      </trkpt>
      <trkpt lat="47.27573" lon="-1.67294">
        <ele>65.9</ele>
        <time>2014-10-12T07:49:30Z</time>
      </trkpt>
      <trkpt lat="47.27576" lon="-1.67299">
        <ele>66.1</ele>
        <time>2014-10-12T07:49:31Z</time>
      </trkpt>
      <trkpt lat="47.27579" lon="-1.67303">
        <ele>66.3</ele>
        <time>2014-10-12T07:49:32Z</time>
      </trkpt>
      <trkpt lat="47.27581" lon="-1.67307">
        <ele>66.5</ele>
        <time>2014-10-12T07:49:33Z</time>
      </trkpt>
      <trkpt lat="47.27584" lon="-1.67311">
        <ele>66.6</ele>
        <time>2014-10-12T07:49:34Z</time>
      </trkpt>
      <trkpt lat="47.27587" lon="-1.67315">
        <ele>66.8</ele>
        <time>2014-10-12T07:49:35Z</time>
      </trkpt>
      <trkpt lat="47.2759" lon="-1.67318">
        <ele>67</ele>
        <time>2014-10-12T07:49:36Z</time>
      </trkpt>
      <trkpt lat="47.27592" lon="-1.67322">
        <ele>67.2</ele>
        <time>2014-10-12T07:49:37Z</time>
      </trkpt>
      <trkpt lat="47.27595" lon="-1.67325">
        <ele>67.3</ele>
        <time>2014-10-12T07:49:38Z</time>
      </trkpt>
      <trkpt lat="47.27597" lon="-1.67328">
        <ele>67.5</ele>
        <time>2014-10-12T07:49:39Z</time>
      </trkpt>
      <trkpt lat="47.27599" lon="-1.67331">
        <ele>67.6</ele>
        <time>2014-10-12T07:49:40Z</time>
      </trkpt>
      <trkpt lat="47.27601" lon="-1.67335">
        <ele>67.7</ele>
        <time>2014-10-12T07:49:41Z</time>
      </trkpt>
      <trkpt lat="47.27604" lon="-1.67339">
        <ele>67.9</ele>
        <time>2014-10-12T07:49:42Z</time>
      </trkpt>
      <trkpt lat="47.27606" lon="-1.67343">
        <ele>68</ele>
        <time>2014-10-12T07:49:43Z</time>
      </trkpt>
      <trkpt lat="47.27609" lon="-1.67347">
        <ele>68.2</ele>
        <time>2014-10-12T07:49:44Z</time>
      </trkpt>
      <trkpt lat="47.27612" lon="-1.67351">
        <ele>68.3</ele>
        <time>2014-10-12T07:49:45Z</time>
      </trkpt>
      <trkpt lat="47.27615" lon="-1.67355">
        <ele>68.5</ele>
        <time>2014-10-12T07:49:46Z</time>
      </trkpt>
      <trkpt lat="47.27618" lon="-1.67359">
        <ele>68.6</ele>
        <time>2014-10-12T07:49:47Z</time>
      </trkpt>
      <trkpt lat="47.27621" lon="-1.67364">
        <ele>68.8</ele>
        <time>2014-10-12T07:49:48Z</time>
      </trkpt>
      <trkpt lat="47.27624" lon="-1.67368">
        <ele>68.9</ele>
        <time>2014-10-12T07:49:49Z</time>
      </trkpt>
      <trkpt lat="47.27625" lon="-1.67374">
        <ele>69</ele>
        <time>2014-10-12T07:49:50Z</time>
      </trkpt>
      <trkpt lat="47.27623" lon="-1.67379">
        <ele>68.9</ele>
        <time>2014-10-12T07:49:51Z</time>
      </trkpt>
      <trkpt lat="47.27621" lon="-1.67384">
        <ele>68.7</ele>
        <time>2014-10-12T07:49:52Z</time>
      </trkpt>
      <trkpt lat="47.27617" lon="-1.67387">
        <ele>68.5</ele>
        <time>2014-10-12T07:49:53Z</time>
      </trkpt>
      <trkpt lat="47.27613" lon="-1.6739">
        <ele>68.3</ele>
        <time>2014-10-12T07:49:54Z</time>
      </trkpt>
      <trkpt lat="47.2761" lon="-1.67392">
        <ele>68.1</ele>
        <time>2014-10-12T07:49:55Z</time>
      </trkpt>
      <trkpt lat="47.27606" lon="-1.67395">
        <ele>68</ele>
        <time>2014-10-12T07:49:56Z</time>
      </trkpt>
      <trkpt lat="47.27602" lon="-1.67397">
        <ele>67.8</ele>
        <time>2014-10-12T07:49:57Z</time>
      </trkpt>
      <trkpt lat="47.27598" lon="-1.67399">
        <ele>67.6</ele>
        <time>2014-10-12T07:49:58Z</time>
      </trkpt>
      <trkpt lat="47.27595" lon="-1.674">
        <ele>67.5</ele>
        <time>2014-10-12T07:49:59Z</time>
      </trkpt>
      <trkpt lat="47.27592" lon="-1.67401">
        <ele>67.4</ele>
        <time>2014-10-12T07:50:00Z</time>
      </trkpt>
      <trkpt lat="47.27589" lon="-1.67403">
        <ele>67.2</ele>
        <time>2014-10-12T07:50:01Z</time>
      </trkpt>
      <trkpt lat="47.27586" lon="-1.67405">
        <ele>67.1</ele>
        <time>2014-10-12T07:50:02Z</time>
      </trkpt>
      <trkpt lat="47.27583" lon="-1.67407">
        <ele>67</ele>
        <time>2014-10-12T07:50:03Z</time>
      </trkpt>
      <trkpt lat="47.2758" lon="-1.67409">
        <ele>66.9</ele>
        <time>2014-10-12T07:50:04Z</time>
      </trkpt>
      <trkpt lat="47.27577" lon="-1.67412">
        <ele>66.8</ele>
        <time>2014-10-12T07:50:05Z</time>
      </trkpt>
      <trkpt lat="47.27574" lon="-1.67414">
        <ele>66.6</ele>
        <time>2014-10-12T07:50:06Z</time>
      </trkpt>
      <trkpt lat="47.2757" lon="-1.67417">
        <ele>66.5</ele>
        <time>2014-10-12T07:50:07Z</time>
      </trkpt>
      <trkpt lat="47.27566" lon="-1.67421">
        <ele>66.4</ele>
        <time>2014-10-12T07:50:08Z</time>
      </trkpt>
      <trkpt lat="47.27563" lon="-1.67423">
        <ele>66.3</ele>
        <time>2014-10-12T07:50:09Z</time>
      </trkpt>
      <trkpt lat="47.27559" lon="-1.67429">
        <ele>66.2</ele>
        <time>2014-10-12T07:50:10Z</time>
      </trkpt>
      <trkpt lat="47.27555" lon="-1.67433">
        <ele>66.1</ele>
        <time>2014-10-12T07:50:11Z</time>
      </trkpt>
      <trkpt lat="47.2755" lon="-1.67437">
        <ele>66</ele>
        <time>2014-10-12T07:50:12Z</time>
      </trkpt>
      <trkpt lat="47.27546" lon="-1.67442">
        <ele>65.9</ele>
        <time>2014-10-12T07:50:13Z</time>
      </trkpt>
      <trkpt lat="47.27542" lon="-1.67446">
        <ele>65.9</ele>
        <time>2014-10-12T07:50:14Z</time>
      </trkpt>
      <trkpt lat="47.27538" lon="-1.67451">
        <ele>65.9</ele>
        <time>2014-10-12T07:50:15Z</time>
      </trkpt>
      <trkpt lat="47.27535" lon="-1.67456">
        <ele>65.9</ele>
        <time>2014-10-12T07:50:16Z</time>
      </trkpt>
      <trkpt lat="47.27531" lon="-1.67461">
        <ele>65.9</ele>
        <time>2014-10-12T07:50:17Z</time>
      </trkpt>
      <trkpt lat="47.27528" lon="-1.67466">
        <ele>65.8</ele>
        <time>2014-10-12T07:50:18Z</time>
      </trkpt>
      <trkpt lat="47.27525" lon="-1.6747">
        <ele>65.8</ele>
        <time>2014-10-12T07:50:19Z</time>
      </trkpt>
      <trkpt lat="47.2752" lon="-1.67474">
        <ele>65.7</ele>
        <time>2014-10-12T07:50:20Z</time>
      </trkpt>
      <trkpt lat="47.27516" lon="-1.67478">
        <ele>65.7</ele>
        <time>2014-10-12T07:50:21Z</time>
      </trkpt>
      <trkpt lat="47.27511" lon="-1.67483">
        <ele>65.6</ele>
        <time>2014-10-12T07:50:22Z</time>
      </trkpt>
      <trkpt lat="47.27507" lon="-1.67487">
        <ele>65.6</ele>
        <time>2014-10-12T07:50:23Z</time>
      </trkpt>
      <trkpt lat="47.27503" lon="-1.67491">
        <ele>65.5</ele>
        <time>2014-10-12T07:50:24Z</time>
      </trkpt>
      <trkpt lat="47.27498" lon="-1.67496">
        <ele>65.5</ele>
        <time>2014-10-12T07:50:25Z</time>
      </trkpt>
      <trkpt lat="47.27494" lon="-1.675">
        <ele>65.4</ele>
        <time>2014-10-12T07:50:26Z</time>
      </trkpt>
      <trkpt lat="47.2749" lon="-1.67505">
        <ele>65.4</ele>
        <time>2014-10-12T07:50:27Z</time>
      </trkpt>
      <trkpt lat="47.27486" lon="-1.6751">
        <ele>65.3</ele>
        <time>2014-10-12T07:50:28Z</time>
      </trkpt>
      <trkpt lat="47.27482" lon="-1.67515">
        <ele>65.3</ele>
        <time>2014-10-12T07:50:29Z</time>
      </trkpt>
      <trkpt lat="47.27478" lon="-1.6752">
        <ele>65.2</ele>
        <time>2014-10-12T07:50:30Z</time>
      </trkpt>
      <trkpt lat="47.27474" lon="-1.67525">
        <ele>65.2</ele>
        <time>2014-10-12T07:50:31Z</time>
      </trkpt>
      <trkpt lat="47.2747" lon="-1.67531">
        <ele>65.1</ele>
        <time>2014-10-12T07:50:32Z</time>
      </trkpt>
      <trkpt lat="47.27465" lon="-1.67536">
        <ele>65.1</ele>
        <time>2014-10-12T07:50:33Z</time>
      </trkpt>
      <trkpt lat="47.27461" lon="-1.67541">
        <ele>65</ele>
        <time>2014-10-12T07:50:34Z</time>
      </trkpt>
      <trkpt lat="47.27457" lon="-1.67547">
        <ele>64.9</ele>
        <time>2014-10-12T07:50:35Z</time>
      </trkpt>
      <trkpt lat="47.27453" lon="-1.67552">
        <ele>64.8</ele>
        <time>2014-10-12T07:50:36Z</time>
      </trkpt>
      <trkpt lat="47.2745" lon="-1.67556">
        <ele>64.6</ele>
        <time>2014-10-12T07:50:37Z</time>
      </trkpt>
      <trkpt lat="47.27446" lon="-1.67559">
        <ele>64.5</ele>
        <time>2014-10-12T07:50:38Z</time>
      </trkpt>
      <trkpt lat="47.27441" lon="-1.67565">
        <ele>64.4</ele>
        <time>2014-10-12T07:50:39Z</time>
      </trkpt>
      <trkpt lat="47.27437" lon="-1.67571">
        <ele>64.2</ele>
        <time>2014-10-12T07:50:40Z</time>
      </trkpt>
      <trkpt lat="47.27434" lon="-1.67577">
        <ele>64.1</ele>
        <time>2014-10-12T07:50:41Z</time>
      </trkpt>
      <trkpt lat="47.27433" lon="-1.67584">
        <ele>64</ele>
        <time>2014-10-12T07:50:42Z</time>
      </trkpt>
      <trkpt lat="47.27432" lon="-1.67591">
        <ele>64</ele>
        <time>2014-10-12T07:50:43Z</time>
      </trkpt>
      <trkpt lat="47.27433" lon="-1.67599">
        <ele>63.9</ele>
        <time>2014-10-12T07:50:44Z</time>
      </trkpt>
      <trkpt lat="47.27435" lon="-1.67607">
        <ele>63.9</ele>
        <time>2014-10-12T07:50:45Z</time>
      </trkpt>
      <trkpt lat="47.27437" lon="-1.67613">
        <ele>63.8</ele>
        <time>2014-10-12T07:50:46Z</time>
      </trkpt>
      <trkpt lat="47.27438" lon="-1.6762">
        <ele>63.8</ele>
        <time>2014-10-12T07:50:47Z</time>
      </trkpt>
      <trkpt lat="47.27439" lon="-1.67627">
        <ele>63.7</ele>
        <time>2014-10-12T07:50:48Z</time>
      </trkpt>
      <trkpt lat="47.2744" lon="-1.67634">
        <ele>63.7</ele>
        <time>2014-10-12T07:50:49Z</time>
      </trkpt>
      <trkpt lat="47.27442" lon="-1.67641">
        <ele>63.6</ele>
        <time>2014-10-12T07:50:50Z</time>
      </trkpt>
      <trkpt lat="47.27443" lon="-1.67648">
        <ele>63.5</ele>
        <time>2014-10-12T07:50:51Z</time>
      </trkpt>
      <trkpt lat="47.27444" lon="-1.67655">
        <ele>63.5</ele>
        <time>2014-10-12T07:50:52Z</time>
      </trkpt>
      <trkpt lat="47.27444" lon="-1.67662">
        <ele>63.4</ele>
        <time>2014-10-12T07:50:53Z</time>
      </trkpt>
      <trkpt lat="47.27443" lon="-1.67668">
        <ele>63.3</ele>
        <time>2014-10-12T07:50:54Z</time>
      </trkpt>
      <trkpt lat="47.27443" lon="-1.67675">
        <ele>63.2</ele>
        <time>2014-10-12T07:50:55Z</time>
      </trkpt>
      <trkpt lat="47.27443" lon="-1.67682">
        <ele>63.1</ele>
        <time>2014-10-12T07:50:56Z</time>
      </trkpt>
      <trkpt lat="47.27443" lon="-1.67689">
        <ele>63.1</ele>
        <time>2014-10-12T07:50:57Z</time>
      </trkpt>
      <trkpt lat="47.27444" lon="-1.67696">
        <ele>63</ele>
        <time>2014-10-12T07:50:58Z</time>
      </trkpt>
      <trkpt lat="47.27446" lon="-1.67702">
        <ele>62.9</ele>
        <time>2014-10-12T07:50:59Z</time>
      </trkpt>
      <trkpt lat="47.27448" lon="-1.67707">
        <ele>62.9</ele>
        <time>2014-10-12T07:51:00Z</time>
      </trkpt>
      <trkpt lat="47.2745" lon="-1.67713">
        <ele>62.9</ele>
        <time>2014-10-12T07:51:01Z</time>
      </trkpt>
      <trkpt lat="47.27453" lon="-1.67717">
        <ele>62.9</ele>
        <time>2014-10-12T07:51:02Z</time>
      </trkpt>
      <trkpt lat="47.27457" lon="-1.67721">
        <ele>63</ele>
        <time>2014-10-12T07:51:03Z</time>
      </trkpt>
      <trkpt lat="47.2746" lon="-1.67727">
        <ele>63.1</ele>
        <time>2014-10-12T07:51:04Z</time>
      </trkpt>
      <trkpt lat="47.27464" lon="-1.67732">
        <ele>63.2</ele>
        <time>2014-10-12T07:51:05Z</time>
      </trkpt>
      <trkpt lat="47.27467" lon="-1.67736">
        <ele>63.3</ele>
        <time>2014-10-12T07:51:06Z</time>
      </trkpt>
      <trkpt lat="47.27471" lon="-1.6774">
        <ele>63.4</ele>
        <time>2014-10-12T07:51:07Z</time>
      </trkpt>
      <trkpt lat="47.27474" lon="-1.67744">
        <ele>63.6</ele>
        <time>2014-10-12T07:51:08Z</time>
      </trkpt>
      <trkpt lat="47.27477" lon="-1.67747">
        <ele>63.7</ele>
        <time>2014-10-12T07:51:09Z</time>
      </trkpt>
      <trkpt lat="47.2748" lon="-1.6775">
        <ele>63.8</ele>
        <time>2014-10-12T07:51:10Z</time>
      </trkpt>
      <trkpt lat="47.27482" lon="-1.67754">
        <ele>63.8</ele>
        <time>2014-10-12T07:51:11Z</time>
      </trkpt>
      <trkpt lat="47.27485" lon="-1.67759">
        <ele>64</ele>
        <time>2014-10-12T07:51:12Z</time>
      </trkpt>
      <trkpt lat="47.27488" lon="-1.67765">
        <ele>64.1</ele>
        <time>2014-10-12T07:51:13Z</time>
      </trkpt>
      <trkpt lat="47.2749" lon="-1.6777">
        <ele>64.1</ele>
        <time>2014-10-12T07:51:14Z</time>
      </trkpt>
      <trkpt lat="47.27491" lon="-1.67777">
        <ele>64.2</ele>
        <time>2014-10-12T07:51:15Z</time>
      </trkpt>
      <trkpt lat="47.27493" lon="-1.67784">
        <ele>64.2</ele>
        <time>2014-10-12T07:51:16Z</time>
      </trkpt>
      <trkpt lat="47.27494" lon="-1.67792">
        <ele>64.3</ele>
        <time>2014-10-12T07:51:17Z</time>
      </trkpt>
      <trkpt lat="47.27496" lon="-1.67798">
        <ele>64.3</ele>
        <time>2014-10-12T07:51:18Z</time>
      </trkpt>
      <trkpt lat="47.27497" lon="-1.67805">
        <ele>64.2</ele>
        <time>2014-10-12T07:51:19Z</time>
      </trkpt>
      <trkpt lat="47.27497" lon="-1.67811">
        <ele>64.2</ele>
        <time>2014-10-12T07:51:20Z</time>
      </trkpt>
      <trkpt lat="47.27498" lon="-1.67817">
        <ele>64.1</ele>
        <time>2014-10-12T07:51:21Z</time>
      </trkpt>
      <trkpt lat="47.275" lon="-1.67823">
        <ele>64.1</ele>
        <time>2014-10-12T07:51:22Z</time>
      </trkpt>
      <trkpt lat="47.275" lon="-1.6783">
        <ele>64.1</ele>
        <time>2014-10-12T07:51:23Z</time>
      </trkpt>
      <trkpt lat="47.27501" lon="-1.67837">
        <ele>64</ele>
        <time>2014-10-12T07:51:24Z</time>
      </trkpt>
      <trkpt lat="47.27501" lon="-1.67843">
        <ele>63.9</ele>
        <time>2014-10-12T07:51:25Z</time>
      </trkpt>
      <trkpt lat="47.27502" lon="-1.67849">
        <ele>63.9</ele>
        <time>2014-10-12T07:51:26Z</time>
      </trkpt>
      <trkpt lat="47.27503" lon="-1.67855">
        <ele>63.8</ele>
        <time>2014-10-12T07:51:27Z</time>
      </trkpt>
      <trkpt lat="47.27504" lon="-1.67861">
        <ele>63.7</ele>
        <time>2014-10-12T07:51:28Z</time>
      </trkpt>
      <trkpt lat="47.27505" lon="-1.67869">
        <ele>63.6</ele>
        <time>2014-10-12T07:51:29Z</time>
      </trkpt>
      <trkpt lat="47.27506" lon="-1.67876">
        <ele>63.6</ele>
        <time>2014-10-12T07:51:30Z</time>
      </trkpt>
      <trkpt lat="47.27507" lon="-1.67884">
        <ele>63.4</ele>
        <time>2014-10-12T07:51:31Z</time>
      </trkpt>
      <trkpt lat="47.27509" lon="-1.67892">
        <ele>63.3</ele>
        <time>2014-10-12T07:51:32Z</time>
      </trkpt>
      <trkpt lat="47.27511" lon="-1.679">
        <ele>63.2</ele>
        <time>2014-10-12T07:51:33Z</time>
      </trkpt>
      <trkpt lat="47.27514" lon="-1.6791">
        <ele>63.1</ele>
        <time>2014-10-12T07:51:34Z</time>
      </trkpt>
      <trkpt lat="47.27517" lon="-1.67917">
        <ele>63.1</ele>
        <time>2014-10-12T07:51:35Z</time>
      </trkpt>
      <trkpt lat="47.27521" lon="-1.67926">
        <ele>63</ele>
        <time>2014-10-12T07:51:36Z</time>
      </trkpt>
      <trkpt lat="47.27525" lon="-1.67933">
        <ele>63</ele>
        <time>2014-10-12T07:51:37Z</time>
      </trkpt>
      <trkpt lat="47.27528" lon="-1.6794">
        <ele>62.9</ele>
        <time>2014-10-12T07:51:38Z</time>
      </trkpt>
      <trkpt lat="47.27532" lon="-1.67947">
        <ele>62.9</ele>
        <time>2014-10-12T07:51:39Z</time>
      </trkpt>
      <trkpt lat="47.27535" lon="-1.67953">
        <ele>62.9</ele>
        <time>2014-10-12T07:51:40Z</time>
      </trkpt>
      <trkpt lat="47.27538" lon="-1.6796">
        <ele>62.9</ele>
        <time>2014-10-12T07:51:41Z</time>
      </trkpt>
      <trkpt lat="47.27541" lon="-1.67967">
        <ele>62.7</ele>
        <time>2014-10-12T07:51:42Z</time>
      </trkpt>
      <trkpt lat="47.27544" lon="-1.67973">
        <ele>62.5</ele>
        <time>2014-10-12T07:51:43Z</time>
      </trkpt>
      <trkpt lat="47.27548" lon="-1.6798">
        <ele>62.3</ele>
        <time>2014-10-12T07:51:44Z</time>
      </trkpt>
      <trkpt lat="47.27551" lon="-1.67986">
        <ele>62.1</ele>
        <time>2014-10-12T07:51:45Z</time>
      </trkpt>
      <trkpt lat="47.27555" lon="-1.67991">
        <ele>61.9</ele>
        <time>2014-10-12T07:51:46Z</time>
      </trkpt>
      <trkpt lat="47.27558" lon="-1.67997">
        <ele>61.7</ele>
        <time>2014-10-12T07:51:47Z</time>
      </trkpt>
      <trkpt lat="47.27563" lon="-1.68003">
        <ele>61.5</ele>
        <time>2014-10-12T07:51:48Z</time>
      </trkpt>
      <trkpt lat="47.27568" lon="-1.68007">
        <ele>61.4</ele>
        <time>2014-10-12T07:51:49Z</time>
      </trkpt>
      <trkpt lat="47.27573" lon="-1.6801">
        <ele>61.4</ele>
        <time>2014-10-12T07:51:50Z</time>
      </trkpt>
      <trkpt lat="47.27578" lon="-1.68011">
        <ele>61.4</ele>
        <time>2014-10-12T07:51:51Z</time>
      </trkpt>
      <trkpt lat="47.27583" lon="-1.68013">
        <ele>61.4</ele>
        <time>2014-10-12T07:51:52Z</time>
      </trkpt>
      <trkpt lat="47.27589" lon="-1.68014">
        <ele>61.4</ele>
        <time>2014-10-12T07:51:53Z</time>
      </trkpt>
      <trkpt lat="47.27594" lon="-1.68016">
        <ele>61.4</ele>
        <time>2014-10-12T07:51:54Z</time>
      </trkpt>
      <trkpt lat="47.276" lon="-1.68017">
        <ele>61.4</ele>
        <time>2014-10-12T07:51:55Z</time>
      </trkpt>
      <trkpt lat="47.27605" lon="-1.68018">
        <ele>61.4</ele>
        <time>2014-10-12T07:51:56Z</time>
      </trkpt>
      <trkpt lat="47.27611" lon="-1.68018">
        <ele>61.4</ele>
        <time>2014-10-12T07:51:57Z</time>
      </trkpt>
      <trkpt lat="47.27616" lon="-1.68018">
        <ele>61.5</ele>
        <time>2014-10-12T07:51:58Z</time>
      </trkpt>
      <trkpt lat="47.27621" lon="-1.68019">
        <ele>61.5</ele>
        <time>2014-10-12T07:51:59Z</time>
      </trkpt>
      <trkpt lat="47.27624" lon="-1.68021">
        <ele>61.5</ele>
        <time>2014-10-12T07:52:00Z</time>
      </trkpt>
      <trkpt lat="47.27627" lon="-1.68024">
        <ele>61.4</ele>
        <time>2014-10-12T07:52:01Z</time>
      </trkpt>
      <trkpt lat="47.27628" lon="-1.68029">
        <ele>61.3</ele>
        <time>2014-10-12T07:52:02Z</time>
      </trkpt>
      <trkpt lat="47.27629" lon="-1.68034">
        <ele>61.2</ele>
        <time>2014-10-12T07:52:03Z</time>
      </trkpt>
      <trkpt lat="47.27629" lon="-1.68039">
        <ele>61.1</ele>
        <time>2014-10-12T07:52:04Z</time>
      </trkpt>
      <trkpt lat="47.27629" lon="-1.68046">
        <ele>61</ele>
        <time>2014-10-12T07:52:05Z</time>
      </trkpt>
      <trkpt lat="47.27629" lon="-1.68051">
        <ele>61.1</ele>
        <time>2014-10-12T07:52:06Z</time>
      </trkpt>
      <trkpt lat="47.2763" lon="-1.68056">
        <ele>61.2</ele>
        <time>2014-10-12T07:52:07Z</time>
      </trkpt>
      <trkpt lat="47.27631" lon="-1.68062">
        <ele>61.2</ele>
        <time>2014-10-12T07:52:08Z</time>
      </trkpt>
      <trkpt lat="47.27632" lon="-1.68067">
        <ele>61.3</ele>
        <time>2014-10-12T07:52:09Z</time>
      </trkpt>
      <trkpt lat="47.27633" lon="-1.68073">
        <ele>61.4</ele>
        <time>2014-10-12T07:52:10Z</time>
      </trkpt>
      <trkpt lat="47.27634" lon="-1.68078">
        <ele>61.4</ele>
        <time>2014-10-12T07:52:11Z</time>
      </trkpt>
      <trkpt lat="47.27634" lon="-1.68084">
        <ele>61.5</ele>
        <time>2014-10-12T07:52:12Z</time>
      </trkpt>
      <trkpt lat="47.27635" lon="-1.6809">
        <ele>61.6</ele>
        <time>2014-10-12T07:52:13Z</time>
      </trkpt>
      <trkpt lat="47.27635" lon="-1.68095">
        <ele>61.6</ele>
        <time>2014-10-12T07:52:14Z</time>
      </trkpt>
      <trkpt lat="47.27634" lon="-1.681">
        <ele>61.7</ele>
        <time>2014-10-12T07:52:15Z</time>
      </trkpt>
      <trkpt lat="47.27632" lon="-1.68106">
        <ele>61.8</ele>
        <time>2014-10-12T07:52:16Z</time>
      </trkpt>
      <trkpt lat="47.2763" lon="-1.68111">
        <ele>61.8</ele>
        <time>2014-10-12T07:52:17Z</time>
      </trkpt>
      <trkpt lat="47.27627" lon="-1.68115">
        <ele>61.9</ele>
        <time>2014-10-12T07:52:18Z</time>
      </trkpt>
      <trkpt lat="47.27625" lon="-1.68122">
        <ele>62</ele>
        <time>2014-10-12T07:52:19Z</time>
      </trkpt>
      <trkpt lat="47.27624" lon="-1.68129">
        <ele>62</ele>
        <time>2014-10-12T07:52:20Z</time>
      </trkpt>
      <trkpt lat="47.27623" lon="-1.68133">
        <ele>62</ele>
        <time>2014-10-12T07:52:21Z</time>
      </trkpt>
      <trkpt lat="47.27623" lon="-1.68137">
        <ele>62.1</ele>
        <time>2014-10-12T07:52:22Z</time>
      </trkpt>
      <trkpt lat="47.27623" lon="-1.68143">
        <ele>62.1</ele>
        <time>2014-10-12T07:52:23Z</time>
      </trkpt>
      <trkpt lat="47.27624" lon="-1.68148">
        <ele>62.2</ele>
        <time>2014-10-12T07:52:24Z</time>
      </trkpt>
      <trkpt lat="47.27626" lon="-1.68152">
        <ele>62.3</ele>
        <time>2014-10-12T07:52:25Z</time>
      </trkpt>
      <trkpt lat="47.27628" lon="-1.68157">
        <ele>62.4</ele>
        <time>2014-10-12T07:52:26Z</time>
      </trkpt>
      <trkpt lat="47.2763" lon="-1.68164">
        <ele>62.5</ele>
        <time>2014-10-12T07:52:27Z</time>
      </trkpt>
      <trkpt lat="47.27632" lon="-1.6817">
        <ele>62.5</ele>
        <time>2014-10-12T07:52:28Z</time>
      </trkpt>
      <trkpt lat="47.27634" lon="-1.68179">
        <ele>62.6</ele>
        <time>2014-10-12T07:52:29Z</time>
      </trkpt>
      <trkpt lat="47.27636" lon="-1.68185">
        <ele>62.7</ele>
        <time>2014-10-12T07:52:30Z</time>
      </trkpt>
      <trkpt lat="47.27638" lon="-1.68191">
        <ele>62.8</ele>
        <time>2014-10-12T07:52:31Z</time>
      </trkpt>
      <trkpt lat="47.27639" lon="-1.68199">
        <ele>62.9</ele>
        <time>2014-10-12T07:52:32Z</time>
      </trkpt>
      <trkpt lat="47.2764" lon="-1.68206">
        <ele>63</ele>
        <time>2014-10-12T07:52:33Z</time>
      </trkpt>
      <trkpt lat="47.27641" lon="-1.68214">
        <ele>62.8</ele>
        <time>2014-10-12T07:52:34Z</time>
      </trkpt>
      <trkpt lat="47.27643" lon="-1.68222">
        <ele>62.4</ele>
        <time>2014-10-12T07:52:35Z</time>
      </trkpt>
      <trkpt lat="47.27646" lon="-1.68234">
        <ele>62</ele>
        <time>2014-10-12T07:52:36Z</time>
      </trkpt>
      <trkpt lat="47.27647" lon="-1.68242">
        <ele>61.7</ele>
        <time>2014-10-12T07:52:37Z</time>
      </trkpt>
      <trkpt lat="47.27648" lon="-1.68248">
        <ele>61.5</ele>
        <time>2014-10-12T07:52:38Z</time>
      </trkpt>
      <trkpt lat="47.27648" lon="-1.68256">
        <ele>61.2</ele>
        <time>2014-10-12T07:52:39Z</time>
      </trkpt>
      <trkpt lat="47.27649" lon="-1.68262">
        <ele>61</ele>
        <time>2014-10-12T07:52:40Z</time>
      </trkpt>
      <trkpt lat="47.2765" lon="-1.6827">
        <ele>60.7</ele>
        <time>2014-10-12T07:52:41Z</time>
      </trkpt>
      <trkpt lat="47.27651" lon="-1.68278">
        <ele>60.4</ele>
        <time>2014-10-12T07:52:42Z</time>
      </trkpt>
      <trkpt lat="47.27652" lon="-1.68284">
        <ele>60.3</ele>
        <time>2014-10-12T07:52:43Z</time>
      </trkpt>
      <trkpt lat="47.27652" lon="-1.6829">
        <ele>60.1</ele>
        <time>2014-10-12T07:52:44Z</time>
      </trkpt>
      <trkpt lat="47.27653" lon="-1.68294">
        <ele>59.9</ele>
        <time>2014-10-12T07:52:45Z</time>
      </trkpt>
      <trkpt lat="47.27654" lon="-1.68299">
        <ele>59.8</ele>
        <time>2014-10-12T07:52:46Z</time>
      </trkpt>
      <trkpt lat="47.27654" lon="-1.68306">
        <ele>59.6</ele>
        <time>2014-10-12T07:52:47Z</time>
      </trkpt>
      <trkpt lat="47.27655" lon="-1.68312">
        <ele>59.4</ele>
        <time>2014-10-12T07:52:48Z</time>
      </trkpt>
      <trkpt lat="47.27655" lon="-1.6832">
        <ele>59.2</ele>
        <time>2014-10-12T07:52:49Z</time>
      </trkpt>
      <trkpt lat="47.27656" lon="-1.68325">
        <ele>59.1</ele>
        <time>2014-10-12T07:52:50Z</time>
      </trkpt>
      <trkpt lat="47.27657" lon="-1.68332">
        <ele>58.9</ele>
        <time>2014-10-12T07:52:52Z</time>
      </trkpt>
      <trkpt lat="47.27658" lon="-1.68336">
        <ele>58.8</ele>
        <time>2014-10-12T07:52:53Z</time>
      </trkpt>
      <trkpt lat="47.27657" lon="-1.68343">
        <ele>58.5</ele>
        <time>2014-10-12T07:52:55Z</time>
      </trkpt>
      <trkpt lat="47.27658" lon="-1.68348">
        <ele>58.4</ele>
        <time>2014-10-12T07:52:56Z</time>
      </trkpt>
      <trkpt lat="47.27658" lon="-1.68354">
        <ele>58.2</ele>
        <time>2014-10-12T07:52:58Z</time>
      </trkpt>
      <trkpt lat="47.27658" lon="-1.6836">
        <ele>58.1</ele>
        <time>2014-10-12T07:52:59Z</time>
      </trkpt>
      <trkpt lat="47.27658" lon="-1.68366">
        <ele>57.9</ele>
        <time>2014-10-12T07:53:00Z</time>
      </trkpt>
      <trkpt lat="47.2766" lon="-1.68371">
        <ele>57.8</ele>
        <time>2014-10-12T07:53:01Z</time>
      </trkpt>
      <trkpt lat="47.27662" lon="-1.6838">
        <ele>57.8</ele>
        <time>2014-10-12T07:53:03Z</time>
      </trkpt>
      <trkpt lat="47.27664" lon="-1.68387">
        <ele>58</ele>
        <time>2014-10-12T07:53:05Z</time>
      </trkpt>
      <trkpt lat="47.27666" lon="-1.68391">
        <ele>58.1</ele>
        <time>2014-10-12T07:53:06Z</time>
      </trkpt>
      <trkpt lat="47.27666" lon="-1.68398">
        <ele>58.2</ele>
        <time>2014-10-12T07:53:07Z</time>
      </trkpt>
      <trkpt lat="47.27666" lon="-1.68405">
        <ele>58.3</ele>
        <time>2014-10-12T07:53:08Z</time>
      </trkpt>
      <trkpt lat="47.27667" lon="-1.68409">
        <ele>58.4</ele>
        <time>2014-10-12T07:53:09Z</time>
      </trkpt>
      <trkpt lat="47.27669" lon="-1.68414">
        <ele>58.6</ele>
        <time>2014-10-12T07:53:10Z</time>
      </trkpt>
      <trkpt lat="47.27671" lon="-1.68419">
        <ele>58.8</ele>
        <time>2014-10-12T07:53:11Z</time>
      </trkpt>
      <trkpt lat="47.27673" lon="-1.68424">
        <ele>59</ele>
        <time>2014-10-12T07:53:13Z</time>
      </trkpt>
      <trkpt lat="47.27675" lon="-1.68429">
        <ele>59.2</ele>
        <time>2014-10-12T07:53:16Z</time>
      </trkpt>
      <trkpt lat="47.27694" lon="-1.68463">
        <ele>60.8</ele>
        <time>2014-10-12T07:53:30Z</time>
      </trkpt>
      <trkpt lat="47.27696" lon="-1.68466">
        <ele>60.8</ele>
        <time>2014-10-12T07:53:32Z</time>
      </trkpt>
      <trkpt lat="47.27699" lon="-1.68471">
        <ele>60.8</ele>
        <time>2014-10-12T07:53:34Z</time>
      </trkpt>
      <trkpt lat="47.27701" lon="-1.68477">
        <ele>60.8</ele>
        <time>2014-10-12T07:53:36Z</time>
      </trkpt>
      <trkpt lat="47.27705" lon="-1.68482">
        <ele>60.9</ele>
        <time>2014-10-12T07:53:38Z</time>
      </trkpt>
      <trkpt lat="47.27708" lon="-1.68483">
        <ele>61.1</ele>
        <time>2014-10-12T07:53:40Z</time>
      </trkpt>
      <trkpt lat="47.27712" lon="-1.68485">
        <ele>60.8</ele>
        <time>2014-10-12T07:53:41Z</time>
      </trkpt>
      <trkpt lat="47.27715" lon="-1.68487">
        <ele>60.5</ele>
        <time>2014-10-12T07:53:42Z</time>
      </trkpt>
      <trkpt lat="47.27717" lon="-1.68488">
        <ele>60.3</ele>
        <time>2014-10-12T07:53:43Z</time>
      </trkpt>
      <trkpt lat="47.2772" lon="-1.68488">
        <ele>60.1</ele>
        <time>2014-10-12T07:53:44Z</time>
      </trkpt>
      <trkpt lat="47.27724" lon="-1.68488">
        <ele>59.9</ele>
        <time>2014-10-12T07:53:46Z</time>
      </trkpt>
      <trkpt lat="47.27727" lon="-1.68494">
        <ele>59.4</ele>
        <time>2014-10-12T07:53:48Z</time>
      </trkpt>
      <trkpt lat="47.27731" lon="-1.685">
        <ele>58.9</ele>
        <time>2014-10-12T07:53:50Z</time>
      </trkpt>
      <trkpt lat="47.27732" lon="-1.68505">
        <ele>58.6</ele>
        <time>2014-10-12T07:53:52Z</time>
      </trkpt>
      <trkpt lat="47.27735" lon="-1.68511">
        <ele>58.1</ele>
        <time>2014-10-12T07:53:54Z</time>
      </trkpt>
      <trkpt lat="47.27737" lon="-1.68514">
        <ele>57.8</ele>
        <time>2014-10-12T07:53:55Z</time>
      </trkpt>
      <trkpt lat="47.27739" lon="-1.68518">
        <ele>57.5</ele>
        <time>2014-10-12T07:53:56Z</time>
      </trkpt>
      <trkpt lat="47.27742" lon="-1.68522">
        <ele>57.1</ele>
        <time>2014-10-12T07:53:58Z</time>
      </trkpt>
      <trkpt lat="47.27743" lon="-1.68526">
        <ele>56.8</ele>
        <time>2014-10-12T07:54:00Z</time>
      </trkpt>
      <trkpt lat="47.27736" lon="-1.68618">
        <ele>49.6</ele>
        <time>2014-10-12T07:54:38Z</time>
      </trkpt>
      <trkpt lat="47.27734" lon="-1.6862">
        <ele>49.6</ele>
        <time>2014-10-12T07:54:39Z</time>
      </trkpt>
      <trkpt lat="47.27731" lon="-1.68623">
        <ele>49.6</ele>
        <time>2014-10-12T07:54:40Z</time>
      </trkpt>
      <trkpt lat="47.27728" lon="-1.68627">
        <ele>49.6</ele>
        <time>2014-10-12T07:54:41Z</time>
      </trkpt>
      <trkpt lat="47.27725" lon="-1.68631">
        <ele>50</ele>
        <time>2014-10-12T07:54:42Z</time>
      </trkpt>
      <trkpt lat="47.2772" lon="-1.68636">
        <ele>50.4</ele>
        <time>2014-10-12T07:54:44Z</time>
      </trkpt>
      <trkpt lat="47.27718" lon="-1.6864">
        <ele>50.7</ele>
        <time>2014-10-12T07:54:45Z</time>
      </trkpt>
      <trkpt lat="47.27716" lon="-1.68642">
        <ele>50.8</ele>
        <time>2014-10-12T07:54:46Z</time>
      </trkpt>
      <trkpt lat="47.27712" lon="-1.68647">
        <ele>51.1</ele>
        <time>2014-10-12T07:54:47Z</time>
      </trkpt>
      <trkpt lat="47.27709" lon="-1.6865">
        <ele>51.3</ele>
        <time>2014-10-12T07:54:48Z</time>
      </trkpt>
      <trkpt lat="47.27706" lon="-1.68653">
        <ele>51.4</ele>
        <time>2014-10-12T07:54:49Z</time>
      </trkpt>
      <trkpt lat="47.27703" lon="-1.68656">
        <ele>51.5</ele>
        <time>2014-10-12T07:54:50Z</time>
      </trkpt>
      <trkpt lat="47.277" lon="-1.68659">
        <ele>51.7</ele>
        <time>2014-10-12T07:54:51Z</time>
      </trkpt>
      <trkpt lat="47.27697" lon="-1.68662">
        <ele>51.8</ele>
        <time>2014-10-12T07:54:52Z</time>
      </trkpt>
      <trkpt lat="47.27694" lon="-1.68664">
        <ele>51.9</ele>
        <time>2014-10-12T07:54:53Z</time>
      </trkpt>
      <trkpt lat="47.27691" lon="-1.68667">
        <ele>52.1</ele>
        <time>2014-10-12T07:54:55Z</time>
      </trkpt>
      <trkpt lat="47.27689" lon="-1.68671">
        <ele>52.3</ele>
        <time>2014-10-12T07:54:56Z</time>
      </trkpt>
      <trkpt lat="47.27685" lon="-1.68674">
        <ele>52.5</ele>
        <time>2014-10-12T07:54:58Z</time>
      </trkpt>
      <trkpt lat="47.27683" lon="-1.68676">
        <ele>52.7</ele>
        <time>2014-10-12T07:55:00Z</time>
      </trkpt>
      <trkpt lat="47.27679" lon="-1.6868">
        <ele>52.9</ele>
        <time>2014-10-12T07:55:04Z</time>
      </trkpt>
      <trkpt lat="47.27676" lon="-1.68684">
        <ele>53.2</ele>
        <time>2014-10-12T07:55:06Z</time>
      </trkpt>
      <trkpt lat="47.27673" lon="-1.68686">
        <ele>53.4</ele>
        <time>2014-10-12T07:55:07Z</time>
      </trkpt>
      <trkpt lat="47.27645" lon="-1.68699">
        <ele>55.4</ele>
        <time>2014-10-12T07:55:26Z</time>
      </trkpt>
      <trkpt lat="47.27641" lon="-1.68699">
        <ele>55.6</ele>
        <time>2014-10-12T07:55:28Z</time>
      </trkpt>
      <trkpt lat="47.27637" lon="-1.68698">
        <ele>55.7</ele>
        <time>2014-10-12T07:55:30Z</time>
      </trkpt>
      <trkpt lat="47.27632" lon="-1.68693">
        <ele>55.7</ele>
        <time>2014-10-12T07:55:32Z</time>
      </trkpt>
      <trkpt lat="47.27628" lon="-1.68688">
        <ele>55.6</ele>
        <time>2014-10-12T07:55:35Z</time>
      </trkpt>
      <trkpt lat="47.27569" lon="-1.68606">
        <ele>54.6</ele>
        <time>2014-10-12T07:56:21Z</time>
      </trkpt>
      <trkpt lat="47.27566" lon="-1.68602">
        <ele>54.6</ele>
        <time>2014-10-12T07:56:23Z</time>
      </trkpt>
      <trkpt lat="47.27565" lon="-1.68599">
        <ele>54.6</ele>
        <time>2014-10-12T07:56:25Z</time>
      </trkpt>
      <trkpt lat="47.27561" lon="-1.68595">
        <ele>54.5</ele>
        <time>2014-10-12T07:56:27Z</time>
      </trkpt>
      <trkpt lat="47.27559" lon="-1.68591">
        <ele>54.4</ele>
        <time>2014-10-12T07:56:28Z</time>
      </trkpt>
      <trkpt lat="47.27555" lon="-1.68587">
        <ele>54.4</ele>
        <time>2014-10-12T07:56:30Z</time>
      </trkpt>
      <trkpt lat="47.27553" lon="-1.68585">
        <ele>54.3</ele>
        <time>2014-10-12T07:56:31Z</time>
      </trkpt>
      <trkpt lat="47.2755" lon="-1.68583">
        <ele>54.3</ele>
        <time>2014-10-12T07:56:32Z</time>
      </trkpt>
      <trkpt lat="47.27548" lon="-1.6858">
        <ele>54.2</ele>
        <time>2014-10-12T07:56:34Z</time>
      </trkpt>
      <trkpt lat="47.27545" lon="-1.68577">
        <ele>54</ele>
        <time>2014-10-12T07:56:37Z</time>
      </trkpt>
      <trkpt lat="47.27542" lon="-1.68574">
        <ele>53.9</ele>
        <time>2014-10-12T07:56:39Z</time>
      </trkpt>
      <trkpt lat="47.27482" lon="-1.6853">
        <ele>50.3</ele>
        <time>2014-10-12T07:57:08Z</time>
      </trkpt>
      <trkpt lat="47.27479" lon="-1.68531">
        <ele>50.3</ele>
        <time>2014-10-12T07:57:11Z</time>
      </trkpt>
      <trkpt lat="47.27469" lon="-1.6853">
        <ele>50</ele>
        <time>2014-10-12T07:57:26Z</time>
      </trkpt>
      <trkpt lat="47.27466" lon="-1.68532">
        <ele>50.1</ele>
        <time>2014-10-12T07:57:28Z</time>
      </trkpt>
      <trkpt lat="47.27463" lon="-1.68529">
        <ele>49.8</ele>
        <time>2014-10-12T07:57:29Z</time>
      </trkpt>
      <trkpt lat="47.2746" lon="-1.68531">
        <ele>49.9</ele>
        <time>2014-10-12T07:57:31Z</time>
      </trkpt>
      <trkpt lat="47.27456" lon="-1.68532">
        <ele>50</ele>
        <time>2014-10-12T07:57:33Z</time>
      </trkpt>
      <trkpt lat="47.27453" lon="-1.68533">
        <ele>50.2</ele>
        <time>2014-10-12T07:57:36Z</time>
      </trkpt>
      <trkpt lat="47.2745" lon="-1.68533">
        <ele>50.2</ele>
        <time>2014-10-12T07:57:39Z</time>
      </trkpt>
      <trkpt lat="47.27447" lon="-1.68532">
        <ele>50.2</ele>
        <time>2014-10-12T07:57:43Z</time>
      </trkpt>
      <trkpt lat="47.27433" lon="-1.68564">
        <ele>52.1</ele>
        <time>2014-10-12T07:58:39Z</time>
      </trkpt>
      <trkpt lat="47.27429" lon="-1.68564">
        <ele>52.2</ele>
        <time>2014-10-12T07:58:42Z</time>
      </trkpt>
      <trkpt lat="47.27427" lon="-1.68571">
        <ele>52.4</ele>
        <time>2014-10-12T07:58:44Z</time>
      </trkpt>
      <trkpt lat="47.27423" lon="-1.68574">
        <ele>52.6</ele>
        <time>2014-10-12T07:58:48Z</time>
      </trkpt>
      <trkpt lat="47.27421" lon="-1.68577">
        <ele>52.7</ele>
        <time>2014-10-12T07:58:52Z</time>
      </trkpt>
      <trkpt lat="47.27419" lon="-1.6858">
        <ele>52.8</ele>
        <time>2014-10-12T07:59:01Z</time>
      </trkpt>
      <trkpt lat="47.27396" lon="-1.68604">
        <ele>54</ele>
        <time>2014-10-12T07:59:44Z</time>
      </trkpt>
      <trkpt lat="47.27392" lon="-1.68609">
        <ele>54.2</ele>
        <time>2014-10-12T07:59:46Z</time>
      </trkpt>
      <trkpt lat="47.27388" lon="-1.68614">
        <ele>54.4</ele>
        <time>2014-10-12T07:59:48Z</time>
      </trkpt>
      <trkpt lat="47.27385" lon="-1.68619">
        <ele>54.7</ele>
        <time>2014-10-12T07:59:50Z</time>
      </trkpt>
      <trkpt lat="47.27381" lon="-1.68623">
        <ele>54.8</ele>
        <time>2014-10-12T07:59:52Z</time>
      </trkpt>
      <trkpt lat="47.27378" lon="-1.68628">
        <ele>55</ele>
        <time>2014-10-12T07:59:54Z</time>
      </trkpt>
      <trkpt lat="47.27376" lon="-1.68632">
        <ele>55.2</ele>
        <time>2014-10-12T07:59:56Z</time>
      </trkpt>
      <trkpt lat="47.27372" lon="-1.68636">
        <ele>55.4</ele>
        <time>2014-10-12T07:59:58Z</time>
      </trkpt>
      <trkpt lat="47.27369" lon="-1.6864">
        <ele>55.7</ele>
        <time>2014-10-12T08:00:00Z</time>
      </trkpt>
      <trkpt lat="47.27366" lon="-1.68644">
        <ele>56</ele>
        <time>2014-10-12T08:00:02Z</time>
      </trkpt>
      <trkpt lat="47.27364" lon="-1.68648">
        <ele>56.2</ele>
        <time>2014-10-12T08:00:04Z</time>
      </trkpt>
      <trkpt lat="47.27362" lon="-1.68652">
        <ele>56.4</ele>
        <time>2014-10-12T08:00:06Z</time>
      </trkpt>
      <trkpt lat="47.27358" lon="-1.68656">
        <ele>56.7</ele>
        <time>2014-10-12T08:00:08Z</time>
      </trkpt>
      <trkpt lat="47.27355" lon="-1.6866">
        <ele>56.9</ele>
        <time>2014-10-12T08:00:10Z</time>
      </trkpt>
      <trkpt lat="47.27352" lon="-1.68665">
        <ele>57.2</ele>
        <time>2014-10-12T08:00:12Z</time>
      </trkpt>
      <trkpt lat="47.27348" lon="-1.6867">
        <ele>57.5</ele>
        <time>2014-10-12T08:00:14Z</time>
      </trkpt>
      <trkpt lat="47.27344" lon="-1.68675">
        <ele>57.8</ele>
        <time>2014-10-12T08:00:16Z</time>
      </trkpt>
      <trkpt lat="47.27342" lon="-1.68677">
        <ele>58</ele>
        <time>2014-10-12T08:00:17Z</time>
      </trkpt>
      <trkpt lat="47.27339" lon="-1.68679">
        <ele>58.2</ele>
        <time>2014-10-12T08:00:18Z</time>
      </trkpt>
      <trkpt lat="47.27335" lon="-1.68683">
        <ele>58.5</ele>
        <time>2014-10-12T08:00:20Z</time>
      </trkpt>
      <trkpt lat="47.27332" lon="-1.68688">
        <ele>58.7</ele>
        <time>2014-10-12T08:00:22Z</time>
      </trkpt>
      <trkpt lat="47.27329" lon="-1.68693">
        <ele>58.9</ele>
        <time>2014-10-12T08:00:24Z</time>
      </trkpt>
      <trkpt lat="47.27326" lon="-1.68697">
        <ele>59.2</ele>
        <time>2014-10-12T08:00:26Z</time>
      </trkpt>
      <trkpt lat="47.27323" lon="-1.687">
        <ele>59.4</ele>
        <time>2014-10-12T08:00:28Z</time>
      </trkpt>
      <trkpt lat="47.2732" lon="-1.68704">
        <ele>59.6</ele>
        <time>2014-10-12T08:00:30Z</time>
      </trkpt>
      <trkpt lat="47.27316" lon="-1.68707">
        <ele>59.8</ele>
        <time>2014-10-12T08:00:32Z</time>
      </trkpt>
      <trkpt lat="47.27313" lon="-1.68709">
        <ele>60</ele>
        <time>2014-10-12T08:00:34Z</time>
      </trkpt>
      <trkpt lat="47.2731" lon="-1.6871">
        <ele>60.2</ele>
        <time>2014-10-12T08:00:36Z</time>
      </trkpt>
      <trkpt lat="47.27306" lon="-1.6871">
        <ele>60.4</ele>
        <time>2014-10-12T08:00:38Z</time>
      </trkpt>
      <trkpt lat="47.27302" lon="-1.68713">
        <ele>60.7</ele>
        <time>2014-10-12T08:00:40Z</time>
      </trkpt>
      <trkpt lat="47.27297" lon="-1.68715">
        <ele>61</ele>
        <time>2014-10-12T08:00:42Z</time>
      </trkpt>
      <trkpt lat="47.27294" lon="-1.68717">
        <ele>61.2</ele>
        <time>2014-10-12T08:00:44Z</time>
      </trkpt>
      <trkpt lat="47.2729" lon="-1.6872">
        <ele>61.5</ele>
        <time>2014-10-12T08:00:46Z</time>
      </trkpt>
      <trkpt lat="47.27287" lon="-1.68724">
        <ele>61.8</ele>
        <time>2014-10-12T08:00:48Z</time>
      </trkpt>
      <trkpt lat="47.27283" lon="-1.68728">
        <ele>62.1</ele>
        <time>2014-10-12T08:00:50Z</time>
      </trkpt>
      <trkpt lat="47.27279" lon="-1.68732">
        <ele>62.4</ele>
        <time>2014-10-12T08:00:53Z</time>
      </trkpt>
      <trkpt lat="47.27276" lon="-1.68735">
        <ele>62.6</ele>
        <time>2014-10-12T08:00:55Z</time>
      </trkpt>
      <trkpt lat="47.27272" lon="-1.68737">
        <ele>62.9</ele>
        <time>2014-10-12T08:00:57Z</time>
      </trkpt>
      <trkpt lat="47.27269" lon="-1.6874">
        <ele>63.2</ele>
        <time>2014-10-12T08:00:59Z</time>
      </trkpt>
      <trkpt lat="47.27265" lon="-1.68743">
        <ele>63.4</ele>
        <time>2014-10-12T08:01:01Z</time>
      </trkpt>
      <trkpt lat="47.27261" lon="-1.68746">
        <ele>63.7</ele>
        <time>2014-10-12T08:01:03Z</time>
      </trkpt>
      <trkpt lat="47.27258" lon="-1.6875">
        <ele>63.9</ele>
        <time>2014-10-12T08:01:05Z</time>
      </trkpt>
      <trkpt lat="47.27255" lon="-1.68753">
        <ele>64.1</ele>
        <time>2014-10-12T08:01:07Z</time>
      </trkpt>
      <trkpt lat="47.27252" lon="-1.68756">
        <ele>64.4</ele>
        <time>2014-10-12T08:01:09Z</time>
      </trkpt>
      <trkpt lat="47.27249" lon="-1.68759">
        <ele>64.6</ele>
        <time>2014-10-12T08:01:11Z</time>
      </trkpt>
      <trkpt lat="47.27247" lon="-1.68763">
        <ele>64.8</ele>
        <time>2014-10-12T08:01:13Z</time>
      </trkpt>
      <trkpt lat="47.27242" lon="-1.68766">
        <ele>65.1</ele>
        <time>2014-10-12T08:01:15Z</time>
      </trkpt>
      <trkpt lat="47.27238" lon="-1.6877">
        <ele>65.3</ele>
        <time>2014-10-12T08:01:17Z</time>
      </trkpt>
      <trkpt lat="47.27234" lon="-1.68775">
        <ele>65.6</ele>
        <time>2014-10-12T08:01:19Z</time>
      </trkpt>
      <trkpt lat="47.27231" lon="-1.68779">
        <ele>65.9</ele>
        <time>2014-10-12T08:01:21Z</time>
      </trkpt>
      <trkpt lat="47.27228" lon="-1.68785">
        <ele>66.1</ele>
        <time>2014-10-12T08:01:23Z</time>
      </trkpt>
      <trkpt lat="47.27225" lon="-1.6879">
        <ele>66.4</ele>
        <time>2014-10-12T08:01:25Z</time>
      </trkpt>
      <trkpt lat="47.27222" lon="-1.68795">
        <ele>66.5</ele>
        <time>2014-10-12T08:01:27Z</time>
      </trkpt>
      <trkpt lat="47.27219" lon="-1.68799">
        <ele>66.6</ele>
        <time>2014-10-12T08:01:29Z</time>
      </trkpt>
      <trkpt lat="47.27216" lon="-1.68804">
        <ele>66.8</ele>
        <time>2014-10-12T08:01:31Z</time>
      </trkpt>
      <trkpt lat="47.27213" lon="-1.68808">
        <ele>66.9</ele>
        <time>2014-10-12T08:01:33Z</time>
      </trkpt>
      <trkpt lat="47.2721" lon="-1.68812">
        <ele>66.9</ele>
        <time>2014-10-12T08:01:35Z</time>
      </trkpt>
      <trkpt lat="47.27208" lon="-1.68817">
        <ele>67</ele>
        <time>2014-10-12T08:01:37Z</time>
      </trkpt>
      <trkpt lat="47.27205" lon="-1.68822">
        <ele>67</ele>
        <time>2014-10-12T08:01:39Z</time>
      </trkpt>
      <trkpt lat="47.27202" lon="-1.68826">
        <ele>67</ele>
        <time>2014-10-12T08:01:41Z</time>
      </trkpt>
      <trkpt lat="47.27198" lon="-1.6883">
        <ele>67.1</ele>
        <time>2014-10-12T08:01:43Z</time>
      </trkpt>
      <trkpt lat="47.27194" lon="-1.68835">
        <ele>67.1</ele>
        <time>2014-10-12T08:01:45Z</time>
      </trkpt>
      <trkpt lat="47.27191" lon="-1.6884">
        <ele>67.1</ele>
        <time>2014-10-12T08:01:47Z</time>
      </trkpt>
      <trkpt lat="47.27188" lon="-1.68845">
        <ele>67.2</ele>
        <time>2014-10-12T08:01:49Z</time>
      </trkpt>
      <trkpt lat="47.27187" lon="-1.68849">
        <ele>67.2</ele>
        <time>2014-10-12T08:01:51Z</time>
      </trkpt>
      <trkpt lat="47.27184" lon="-1.68855">
        <ele>67.2</ele>
        <time>2014-10-12T08:01:53Z</time>
      </trkpt>
      <trkpt lat="47.27182" lon="-1.68862">
        <ele>67.3</ele>
        <time>2014-10-12T08:01:55Z</time>
      </trkpt>
      <trkpt lat="47.27179" lon="-1.68867">
        <ele>67.3</ele>
        <time>2014-10-12T08:01:57Z</time>
      </trkpt>
      <trkpt lat="47.2718" lon="-1.68873">
        <ele>67.3</ele>
        <time>2014-10-12T08:01:59Z</time>
      </trkpt>
      <trkpt lat="47.27184" lon="-1.68876">
        <ele>67.3</ele>
        <time>2014-10-12T08:02:01Z</time>
      </trkpt>
      <trkpt lat="47.27189" lon="-1.68877">
        <ele>67.3</ele>
        <time>2014-10-12T08:02:03Z</time>
      </trkpt>
      <trkpt lat="47.27194" lon="-1.68879">
        <ele>67.2</ele>
        <time>2014-10-12T08:02:05Z</time>
      </trkpt>
      <trkpt lat="47.27197" lon="-1.6888">
        <ele>67.2</ele>
        <time>2014-10-12T08:02:06Z</time>
      </trkpt>
      <trkpt lat="47.272" lon="-1.68881">
        <ele>67.2</ele>
        <time>2014-10-12T08:02:07Z</time>
      </trkpt>
      <trkpt lat="47.27203" lon="-1.68882">
        <ele>67.1</ele>
        <time>2014-10-12T08:02:08Z</time>
      </trkpt>
      <trkpt lat="47.27206" lon="-1.68883">
        <ele>67.1</ele>
        <time>2014-10-12T08:02:09Z</time>
      </trkpt>
      <trkpt lat="47.2721" lon="-1.68884">
        <ele>67.1</ele>
        <time>2014-10-12T08:02:10Z</time>
      </trkpt>
      <trkpt lat="47.27213" lon="-1.68885">
        <ele>67.1</ele>
        <time>2014-10-12T08:02:11Z</time>
      </trkpt>
      <trkpt lat="47.27216" lon="-1.68886">
        <ele>67</ele>
        <time>2014-10-12T08:02:12Z</time>
      </trkpt>
      <trkpt lat="47.27219" lon="-1.68887">
        <ele>67</ele>
        <time>2014-10-12T08:02:13Z</time>
      </trkpt>
      <trkpt lat="47.27222" lon="-1.68889">
        <ele>67</ele>
        <time>2014-10-12T08:02:14Z</time>
      </trkpt>
      <trkpt lat="47.27227" lon="-1.68892">
        <ele>66.9</ele>
        <time>2014-10-12T08:02:16Z</time>
      </trkpt>
      <trkpt lat="47.27232" lon="-1.68896">
        <ele>66.9</ele>
        <time>2014-10-12T08:02:17Z</time>
      </trkpt>
      <trkpt lat="47.27235" lon="-1.68899">
        <ele>66.9</ele>
        <time>2014-10-12T08:02:18Z</time>
      </trkpt>
      <trkpt lat="47.27239" lon="-1.68902">
        <ele>66.8</ele>
        <time>2014-10-12T08:02:19Z</time>
      </trkpt>
      <trkpt lat="47.27243" lon="-1.68904">
        <ele>66.8</ele>
        <time>2014-10-12T08:02:20Z</time>
      </trkpt>
      <trkpt lat="47.27247" lon="-1.68907">
        <ele>66.7</ele>
        <time>2014-10-12T08:02:21Z</time>
      </trkpt>
      <trkpt lat="47.27251" lon="-1.6891">
        <ele>66.7</ele>
        <time>2014-10-12T08:02:22Z</time>
      </trkpt>
      <trkpt lat="47.27254" lon="-1.68913">
        <ele>66.7</ele>
        <time>2014-10-12T08:02:23Z</time>
      </trkpt>
      <trkpt lat="47.27258" lon="-1.68915">
        <ele>66.6</ele>
        <time>2014-10-12T08:02:25Z</time>
      </trkpt>
      <trkpt lat="47.27262" lon="-1.68918">
        <ele>66.5</ele>
        <time>2014-10-12T08:02:27Z</time>
      </trkpt>
      <trkpt lat="47.27267" lon="-1.68917">
        <ele>66.4</ele>
        <time>2014-10-12T08:02:29Z</time>
      </trkpt>
      <trkpt lat="47.27272" lon="-1.68917">
        <ele>66.3</ele>
        <time>2014-10-12T08:02:30Z</time>
      </trkpt>
      <trkpt lat="47.27277" lon="-1.68919">
        <ele>66.3</ele>
        <time>2014-10-12T08:02:31Z</time>
      </trkpt>
      <trkpt lat="47.27282" lon="-1.68923">
        <ele>66.2</ele>
        <time>2014-10-12T08:02:32Z</time>
      </trkpt>
      <trkpt lat="47.27286" lon="-1.68926">
        <ele>66.1</ele>
        <time>2014-10-12T08:02:33Z</time>
      </trkpt>
      <trkpt lat="47.2729" lon="-1.68929">
        <ele>66</ele>
        <time>2014-10-12T08:02:34Z</time>
      </trkpt>
      <trkpt lat="47.27294" lon="-1.68932">
        <ele>66</ele>
        <time>2014-10-12T08:02:35Z</time>
      </trkpt>
      <trkpt lat="47.27298" lon="-1.68935">
        <ele>65.8</ele>
        <time>2014-10-12T08:02:36Z</time>
      </trkpt>
      <trkpt lat="47.27303" lon="-1.68938">
        <ele>65.7</ele>
        <time>2014-10-12T08:02:37Z</time>
      </trkpt>
      <trkpt lat="47.27308" lon="-1.68941">
        <ele>65.6</ele>
        <time>2014-10-12T08:02:38Z</time>
      </trkpt>
      <trkpt lat="47.27312" lon="-1.68943">
        <ele>65.5</ele>
        <time>2014-10-12T08:02:39Z</time>
      </trkpt>
      <trkpt lat="47.27315" lon="-1.68945">
        <ele>65.4</ele>
        <time>2014-10-12T08:02:40Z</time>
      </trkpt>
      <trkpt lat="47.27319" lon="-1.68948">
        <ele>65.3</ele>
        <time>2014-10-12T08:02:41Z</time>
      </trkpt>
      <trkpt lat="47.27323" lon="-1.6895">
        <ele>65.3</ele>
        <time>2014-10-12T08:02:42Z</time>
      </trkpt>
      <trkpt lat="47.27327" lon="-1.68953">
        <ele>65.2</ele>
        <time>2014-10-12T08:02:43Z</time>
      </trkpt>
      <trkpt lat="47.27331" lon="-1.68955">
        <ele>65.1</ele>
        <time>2014-10-12T08:02:44Z</time>
      </trkpt>
      <trkpt lat="47.27335" lon="-1.68957">
        <ele>65</ele>
        <time>2014-10-12T08:02:45Z</time>
      </trkpt>
      <trkpt lat="47.27339" lon="-1.6896">
        <ele>64.9</ele>
        <time>2014-10-12T08:02:46Z</time>
      </trkpt>
      <trkpt lat="47.27343" lon="-1.68962">
        <ele>64.8</ele>
        <time>2014-10-12T08:02:47Z</time>
      </trkpt>
      <trkpt lat="47.27347" lon="-1.68965">
        <ele>64.7</ele>
        <time>2014-10-12T08:02:48Z</time>
      </trkpt>
      <trkpt lat="47.27351" lon="-1.68968">
        <ele>64.7</ele>
        <time>2014-10-12T08:02:49Z</time>
      </trkpt>
      <trkpt lat="47.27356" lon="-1.68972">
        <ele>64.6</ele>
        <time>2014-10-12T08:02:50Z</time>
      </trkpt>
      <trkpt lat="47.2736" lon="-1.68974">
        <ele>64.5</ele>
        <time>2014-10-12T08:02:51Z</time>
      </trkpt>
      <trkpt lat="47.27365" lon="-1.68976">
        <ele>64.5</ele>
        <time>2014-10-12T08:02:52Z</time>
      </trkpt>
      <trkpt lat="47.27369" lon="-1.68979">
        <ele>64.4</ele>
        <time>2014-10-12T08:02:53Z</time>
      </trkpt>
      <trkpt lat="47.27373" lon="-1.68981">
        <ele>64.3</ele>
        <time>2014-10-12T08:02:54Z</time>
      </trkpt>
      <trkpt lat="47.27377" lon="-1.68984">
        <ele>64.3</ele>
        <time>2014-10-12T08:02:55Z</time>
      </trkpt>
      <trkpt lat="47.27381" lon="-1.68987">
        <ele>64.2</ele>
        <time>2014-10-12T08:02:56Z</time>
      </trkpt>
      <trkpt lat="47.27385" lon="-1.6899">
        <ele>64.1</ele>
        <time>2014-10-12T08:02:57Z</time>
      </trkpt>
      <trkpt lat="47.2739" lon="-1.68993">
        <ele>64</ele>
        <time>2014-10-12T08:02:58Z</time>
      </trkpt>
      <trkpt lat="47.27394" lon="-1.68995">
        <ele>63.9</ele>
        <time>2014-10-12T08:02:59Z</time>
      </trkpt>
      <trkpt lat="47.27398" lon="-1.68998">
        <ele>63.8</ele>
        <time>2014-10-12T08:03:00Z</time>
      </trkpt>
      <trkpt lat="47.27403" lon="-1.69001">
        <ele>63.7</ele>
        <time>2014-10-12T08:03:01Z</time>
      </trkpt>
      <trkpt lat="47.27407" lon="-1.69003">
        <ele>63.5</ele>
        <time>2014-10-12T08:03:02Z</time>
      </trkpt>
      <trkpt lat="47.27411" lon="-1.69005">
        <ele>63.4</ele>
        <time>2014-10-12T08:03:03Z</time>
      </trkpt>
      <trkpt lat="47.27414" lon="-1.69007">
        <ele>63.2</ele>
        <time>2014-10-12T08:03:04Z</time>
      </trkpt>
      <trkpt lat="47.27417" lon="-1.69011">
        <ele>63.1</ele>
        <time>2014-10-12T08:03:05Z</time>
      </trkpt>
      <trkpt lat="47.2742" lon="-1.69014">
        <ele>62.9</ele>
        <time>2014-10-12T08:03:06Z</time>
      </trkpt>
      <trkpt lat="47.27424" lon="-1.69016">
        <ele>62.7</ele>
        <time>2014-10-12T08:03:07Z</time>
      </trkpt>
      <trkpt lat="47.27427" lon="-1.69018">
        <ele>62.5</ele>
        <time>2014-10-12T08:03:08Z</time>
      </trkpt>
      <trkpt lat="47.2743" lon="-1.69019">
        <ele>62.3</ele>
        <time>2014-10-12T08:03:09Z</time>
      </trkpt>
      <trkpt lat="47.27433" lon="-1.69021">
        <ele>62.1</ele>
        <time>2014-10-12T08:03:10Z</time>
      </trkpt>
      <trkpt lat="47.27436" lon="-1.69025">
        <ele>61.9</ele>
        <time>2014-10-12T08:03:11Z</time>
      </trkpt>
      <trkpt lat="47.27439" lon="-1.69028">
        <ele>61.6</ele>
        <time>2014-10-12T08:03:12Z</time>
      </trkpt>
      <trkpt lat="47.27443" lon="-1.69031">
        <ele>61.3</ele>
        <time>2014-10-12T08:03:13Z</time>
      </trkpt>
      <trkpt lat="47.27446" lon="-1.69034">
        <ele>61.1</ele>
        <time>2014-10-12T08:03:14Z</time>
      </trkpt>
      <trkpt lat="47.27449" lon="-1.69038">
        <ele>60.7</ele>
        <time>2014-10-12T08:03:15Z</time>
      </trkpt>
      <trkpt lat="47.27453" lon="-1.69041">
        <ele>60.4</ele>
        <time>2014-10-12T08:03:16Z</time>
      </trkpt>
      <trkpt lat="47.27457" lon="-1.69045">
        <ele>60.1</ele>
        <time>2014-10-12T08:03:18Z</time>
      </trkpt>
      <trkpt lat="47.27461" lon="-1.69051">
        <ele>60.1</ele>
        <time>2014-10-12T08:03:20Z</time>
      </trkpt>
      <trkpt lat="47.27464" lon="-1.69055">
        <ele>60.2</ele>
        <time>2014-10-12T08:03:21Z</time>
      </trkpt>
      <trkpt lat="47.27467" lon="-1.69057">
        <ele>60.3</ele>
        <time>2014-10-12T08:03:22Z</time>
      </trkpt>
      <trkpt lat="47.2747" lon="-1.69062">
        <ele>60.3</ele>
        <time>2014-10-12T08:03:23Z</time>
      </trkpt>
      <trkpt lat="47.27472" lon="-1.69066">
        <ele>60.4</ele>
        <time>2014-10-12T08:03:24Z</time>
      </trkpt>
      <trkpt lat="47.27477" lon="-1.69072">
        <ele>60.4</ele>
        <time>2014-10-12T08:03:25Z</time>
      </trkpt>
      <trkpt lat="47.27481" lon="-1.69075">
        <ele>60.4</ele>
        <time>2014-10-12T08:03:26Z</time>
      </trkpt>
      <trkpt lat="47.27486" lon="-1.69079">
        <ele>60.4</ele>
        <time>2014-10-12T08:03:28Z</time>
      </trkpt>
      <trkpt lat="47.27489" lon="-1.69082">
        <ele>60.4</ele>
        <time>2014-10-12T08:03:29Z</time>
      </trkpt>
      <trkpt lat="47.27495" lon="-1.69084">
        <ele>60.4</ele>
        <time>2014-10-12T08:03:30Z</time>
      </trkpt>
      <trkpt lat="47.275" lon="-1.69083">
        <ele>60.5</ele>
        <time>2014-10-12T08:03:31Z</time>
      </trkpt>
      <trkpt lat="47.27506" lon="-1.69088">
        <ele>60.4</ele>
        <time>2014-10-12T08:03:32Z</time>
      </trkpt>
      <trkpt lat="47.27513" lon="-1.69091">
        <ele>60.3</ele>
        <time>2014-10-12T08:03:33Z</time>
      </trkpt>
      <trkpt lat="47.27517" lon="-1.69092">
        <ele>60.2</ele>
        <time>2014-10-12T08:03:34Z</time>
      </trkpt>
      <trkpt lat="47.27521" lon="-1.69093">
        <ele>60.2</ele>
        <time>2014-10-12T08:03:35Z</time>
      </trkpt>
      <trkpt lat="47.27526" lon="-1.69096">
        <ele>60.1</ele>
        <time>2014-10-12T08:03:36Z</time>
      </trkpt>
      <trkpt lat="47.27529" lon="-1.69098">
        <ele>60</ele>
        <time>2014-10-12T08:03:37Z</time>
      </trkpt>
      <trkpt lat="47.27531" lon="-1.69103">
        <ele>59.6</ele>
        <time>2014-10-12T08:03:38Z</time>
      </trkpt>
      <trkpt lat="47.27532" lon="-1.69109">
        <ele>59.3</ele>
        <time>2014-10-12T08:03:39Z</time>
      </trkpt>
      <trkpt lat="47.27534" lon="-1.69118">
        <ele>58.6</ele>
        <time>2014-10-12T08:03:40Z</time>
      </trkpt>
      <trkpt lat="47.27534" lon="-1.69124">
        <ele>58.2</ele>
        <time>2014-10-12T08:03:41Z</time>
      </trkpt>
      <trkpt lat="47.27537" lon="-1.69132">
        <ele>58.2</ele>
        <time>2014-10-12T08:03:42Z</time>
      </trkpt>
      <trkpt lat="47.27541" lon="-1.69137">
        <ele>58.2</ele>
        <time>2014-10-12T08:03:43Z</time>
      </trkpt>
      <trkpt lat="47.27545" lon="-1.69141">
        <ele>58.1</ele>
        <time>2014-10-12T08:03:44Z</time>
      </trkpt>
      <trkpt lat="47.2755" lon="-1.69145">
        <ele>58</ele>
        <time>2014-10-12T08:03:45Z</time>
      </trkpt>
      <trkpt lat="47.27555" lon="-1.69148">
        <ele>57.8</ele>
        <time>2014-10-12T08:03:46Z</time>
      </trkpt>
      <trkpt lat="47.2756" lon="-1.6915">
        <ele>57.7</ele>
        <time>2014-10-12T08:03:47Z</time>
      </trkpt>
      <trkpt lat="47.27566" lon="-1.69155">
        <ele>57.5</ele>
        <time>2014-10-12T08:03:48Z</time>
      </trkpt>
      <trkpt lat="47.27573" lon="-1.69161">
        <ele>57.2</ele>
        <time>2014-10-12T08:03:49Z</time>
      </trkpt>
      <trkpt lat="47.27579" lon="-1.69167">
        <ele>56.9</ele>
        <time>2014-10-12T08:03:50Z</time>
      </trkpt>
      <trkpt lat="47.27585" lon="-1.69171">
        <ele>56.7</ele>
        <time>2014-10-12T08:03:51Z</time>
      </trkpt>
      <trkpt lat="47.2759" lon="-1.69176">
        <ele>56.4</ele>
        <time>2014-10-12T08:03:52Z</time>
      </trkpt>
      <trkpt lat="47.27595" lon="-1.6918">
        <ele>56.1</ele>
        <time>2014-10-12T08:03:53Z</time>
      </trkpt>
      <trkpt lat="47.276" lon="-1.69185">
        <ele>55.8</ele>
        <time>2014-10-12T08:03:54Z</time>
      </trkpt>
      <trkpt lat="47.27603" lon="-1.69188">
        <ele>55.6</ele>
        <time>2014-10-12T08:03:55Z</time>
      </trkpt>
      <trkpt lat="47.27608" lon="-1.69192">
        <ele>55.3</ele>
        <time>2014-10-12T08:03:56Z</time>
      </trkpt>
      <trkpt lat="47.27612" lon="-1.69195">
        <ele>55</ele>
        <time>2014-10-12T08:03:57Z</time>
      </trkpt>
      <trkpt lat="47.27617" lon="-1.69201">
        <ele>54.6</ele>
        <time>2014-10-12T08:03:58Z</time>
      </trkpt>
      <trkpt lat="47.27622" lon="-1.69206">
        <ele>54.2</ele>
        <time>2014-10-12T08:03:59Z</time>
      </trkpt>
      <trkpt lat="47.27626" lon="-1.69211">
        <ele>54</ele>
        <time>2014-10-12T08:04:00Z</time>
      </trkpt>
      <trkpt lat="47.2763" lon="-1.69216">
        <ele>53.9</ele>
        <time>2014-10-12T08:04:01Z</time>
      </trkpt>
      <trkpt lat="47.27634" lon="-1.69221">
        <ele>53.8</ele>
        <time>2014-10-12T08:04:02Z</time>
      </trkpt>
      <trkpt lat="47.27638" lon="-1.69225">
        <ele>53.7</ele>
        <time>2014-10-12T08:04:03Z</time>
      </trkpt>
      <trkpt lat="47.27643" lon="-1.69232">
        <ele>53.5</ele>
        <time>2014-10-12T08:04:04Z</time>
      </trkpt>
      <trkpt lat="47.27649" lon="-1.69239">
        <ele>53.3</ele>
        <time>2014-10-12T08:04:05Z</time>
      </trkpt>
      <trkpt lat="47.27654" lon="-1.69243">
        <ele>53.1</ele>
        <time>2014-10-12T08:04:06Z</time>
      </trkpt>
      <trkpt lat="47.2766" lon="-1.69248">
        <ele>52.8</ele>
        <time>2014-10-12T08:04:07Z</time>
      </trkpt>
      <trkpt lat="47.27665" lon="-1.69252">
        <ele>52.6</ele>
        <time>2014-10-12T08:04:08Z</time>
      </trkpt>
      <trkpt lat="47.27671" lon="-1.69256">
        <ele>52.3</ele>
        <time>2014-10-12T08:04:09Z</time>
      </trkpt>
      <trkpt lat="47.27676" lon="-1.6926">
        <ele>52</ele>
        <time>2014-10-12T08:04:10Z</time>
      </trkpt>
      <trkpt lat="47.27681" lon="-1.69263">
        <ele>51.8</ele>
        <time>2014-10-12T08:04:11Z</time>
      </trkpt>
      <trkpt lat="47.27687" lon="-1.69264">
        <ele>51.4</ele>
        <time>2014-10-12T08:04:12Z</time>
      </trkpt>
      <trkpt lat="47.27693" lon="-1.69265">
        <ele>51.1</ele>
        <time>2014-10-12T08:04:13Z</time>
      </trkpt>
      <trkpt lat="47.277" lon="-1.69265">
        <ele>50.8</ele>
        <time>2014-10-12T08:04:14Z</time>
      </trkpt>
      <trkpt lat="47.27706" lon="-1.69265">
        <ele>50.4</ele>
        <time>2014-10-12T08:04:15Z</time>
      </trkpt>
      <trkpt lat="47.27713" lon="-1.69264">
        <ele>50.3</ele>
        <time>2014-10-12T08:04:16Z</time>
      </trkpt>
      <trkpt lat="47.27719" lon="-1.69264">
        <ele>50.2</ele>
        <time>2014-10-12T08:04:17Z</time>
      </trkpt>
      <trkpt lat="47.27724" lon="-1.69265">
        <ele>50.2</ele>
        <time>2014-10-12T08:04:18Z</time>
      </trkpt>
      <trkpt lat="47.27728" lon="-1.69266">
        <ele>50.2</ele>
        <time>2014-10-12T08:04:19Z</time>
      </trkpt>
      <trkpt lat="47.27732" lon="-1.69268">
        <ele>50.1</ele>
        <time>2014-10-12T08:04:20Z</time>
      </trkpt>
      <trkpt lat="47.27734" lon="-1.69269">
        <ele>50.1</ele>
        <time>2014-10-12T08:04:21Z</time>
      </trkpt>
      <trkpt lat="47.27737" lon="-1.69272">
        <ele>50.1</ele>
        <time>2014-10-12T08:04:23Z</time>
      </trkpt>
      <trkpt lat="47.27742" lon="-1.69277">
        <ele>50</ele>
        <time>2014-10-12T08:04:25Z</time>
      </trkpt>
      <trkpt lat="47.27744" lon="-1.69279">
        <ele>50</ele>
        <time>2014-10-12T08:04:26Z</time>
      </trkpt>
      <trkpt lat="47.27746" lon="-1.69282">
        <ele>50</ele>
        <time>2014-10-12T08:04:27Z</time>
      </trkpt>
      <trkpt lat="47.27749" lon="-1.69284">
        <ele>50</ele>
        <time>2014-10-12T08:04:28Z</time>
      </trkpt>
      <trkpt lat="47.27751" lon="-1.69288">
        <ele>50</ele>
        <time>2014-10-12T08:04:29Z</time>
      </trkpt>
      <trkpt lat="47.27755" lon="-1.69293">
        <ele>50</ele>
        <time>2014-10-12T08:04:31Z</time>
      </trkpt>
      <trkpt lat="47.27756" lon="-1.69297">
        <ele>50.1</ele>
        <time>2014-10-12T08:04:32Z</time>
      </trkpt>
      <trkpt lat="47.2776" lon="-1.69303">
        <ele>50.2</ele>
        <time>2014-10-12T08:04:34Z</time>
      </trkpt>
      <trkpt lat="47.27762" lon="-1.69307">
        <ele>50.4</ele>
        <time>2014-10-12T08:04:36Z</time>
      </trkpt>
      <trkpt lat="47.27764" lon="-1.69313">
        <ele>50.5</ele>
        <time>2014-10-12T08:04:38Z</time>
      </trkpt>
      <trkpt lat="47.27766" lon="-1.69317">
        <ele>50.6</ele>
        <time>2014-10-12T08:04:40Z</time>
      </trkpt>
      <trkpt lat="47.27767" lon="-1.69324">
        <ele>50.8</ele>
        <time>2014-10-12T08:04:42Z</time>
      </trkpt>
      <trkpt lat="47.27769" lon="-1.69331">
        <ele>51</ele>
        <time>2014-10-12T08:04:44Z</time>
      </trkpt>
      <trkpt lat="47.2777" lon="-1.69336">
        <ele>51.2</ele>
        <time>2014-10-12T08:04:46Z</time>
      </trkpt>
      <trkpt lat="47.27771" lon="-1.69342">
        <ele>51.4</ele>
        <time>2014-10-12T08:04:48Z</time>
      </trkpt>
      <trkpt lat="47.27771" lon="-1.69348">
        <ele>51.5</ele>
        <time>2014-10-12T08:04:50Z</time>
      </trkpt>
      <trkpt lat="47.27772" lon="-1.69356">
        <ele>51.8</ele>
        <time>2014-10-12T08:04:52Z</time>
      </trkpt>
      <trkpt lat="47.27772" lon="-1.69363">
        <ele>52</ele>
        <time>2014-10-12T08:04:53Z</time>
      </trkpt>
      <trkpt lat="47.27772" lon="-1.69369">
        <ele>52.1</ele>
        <time>2014-10-12T08:04:54Z</time>
      </trkpt>
      <trkpt lat="47.27772" lon="-1.69374">
        <ele>52.3</ele>
        <time>2014-10-12T08:04:55Z</time>
      </trkpt>
      <trkpt lat="47.2777" lon="-1.69383">
        <ele>52.3</ele>
        <time>2014-10-12T08:04:56Z</time>
      </trkpt>
      <trkpt lat="47.2777" lon="-1.69392">
        <ele>52.5</ele>
        <time>2014-10-12T08:04:57Z</time>
      </trkpt>
      <trkpt lat="47.2777" lon="-1.69398">
        <ele>52.6</ele>
        <time>2014-10-12T08:04:58Z</time>
      </trkpt>
      <trkpt lat="47.2777" lon="-1.69404">
        <ele>52.7</ele>
        <time>2014-10-12T08:04:59Z</time>
      </trkpt>
      <trkpt lat="47.27771" lon="-1.69409">
        <ele>52.7</ele>
        <time>2014-10-12T08:05:00Z</time>
      </trkpt>
      <trkpt lat="47.27771" lon="-1.69415">
        <ele>52.8</ele>
        <time>2014-10-12T08:05:01Z</time>
      </trkpt>
      <trkpt lat="47.27771" lon="-1.69422">
        <ele>53</ele>
        <time>2014-10-12T08:05:02Z</time>
      </trkpt>
      <trkpt lat="47.27771" lon="-1.69427">
        <ele>53</ele>
        <time>2014-10-12T08:05:03Z</time>
      </trkpt>
      <trkpt lat="47.27771" lon="-1.69432">
        <ele>53.1</ele>
        <time>2014-10-12T08:05:04Z</time>
      </trkpt>
      <trkpt lat="47.27771" lon="-1.69436">
        <ele>53.2</ele>
        <time>2014-10-12T08:05:05Z</time>
      </trkpt>
      <trkpt lat="47.27772" lon="-1.6944">
        <ele>53.2</ele>
        <time>2014-10-12T08:05:06Z</time>
      </trkpt>
      <trkpt lat="47.27772" lon="-1.69445">
        <ele>53.3</ele>
        <time>2014-10-12T08:05:07Z</time>
      </trkpt>
      <trkpt lat="47.27773" lon="-1.6945">
        <ele>53.4</ele>
        <time>2014-10-12T08:05:08Z</time>
      </trkpt>
      <trkpt lat="47.27773" lon="-1.69455">
        <ele>53.5</ele>
        <time>2014-10-12T08:05:09Z</time>
      </trkpt>
      <trkpt lat="47.27773" lon="-1.69459">
        <ele>53.6</ele>
        <time>2014-10-12T08:05:10Z</time>
      </trkpt>
      <trkpt lat="47.27773" lon="-1.69463">
        <ele>53.6</ele>
        <time>2014-10-12T08:05:11Z</time>
      </trkpt>
      <trkpt lat="47.27773" lon="-1.69471">
        <ele>53.8</ele>
        <time>2014-10-12T08:05:13Z</time>
      </trkpt>
      <trkpt lat="47.27774" lon="-1.69475">
        <ele>53.9</ele>
        <time>2014-10-12T08:05:14Z</time>
      </trkpt>
      <trkpt lat="47.27774" lon="-1.6948">
        <ele>54</ele>
        <time>2014-10-12T08:05:15Z</time>
      </trkpt>
      <trkpt lat="47.27775" lon="-1.69484">
        <ele>54.1</ele>
        <time>2014-10-12T08:05:16Z</time>
      </trkpt>
      <trkpt lat="47.27775" lon="-1.69489">
        <ele>54.2</ele>
        <time>2014-10-12T08:05:17Z</time>
      </trkpt>
      <trkpt lat="47.27775" lon="-1.69494">
        <ele>54.3</ele>
        <time>2014-10-12T08:05:18Z</time>
      </trkpt>
      <trkpt lat="47.27775" lon="-1.69499">
        <ele>54.4</ele>
        <time>2014-10-12T08:05:19Z</time>
      </trkpt>
      <trkpt lat="47.27775" lon="-1.69503">
        <ele>54.5</ele>
        <time>2014-10-12T08:05:20Z</time>
      </trkpt>
      <trkpt lat="47.27775" lon="-1.69508">
        <ele>54.6</ele>
        <time>2014-10-12T08:05:21Z</time>
      </trkpt>
      <trkpt lat="47.27776" lon="-1.69513">
        <ele>54.7</ele>
        <time>2014-10-12T08:05:22Z</time>
      </trkpt>
      <trkpt lat="47.27776" lon="-1.69517">
        <ele>54.8</ele>
        <time>2014-10-12T08:05:23Z</time>
      </trkpt>
      <trkpt lat="47.27776" lon="-1.69521">
        <ele>54.9</ele>
        <time>2014-10-12T08:05:24Z</time>
      </trkpt>
      <trkpt lat="47.27777" lon="-1.69526">
        <ele>55</ele>
        <time>2014-10-12T08:05:25Z</time>
      </trkpt>
      <trkpt lat="47.27777" lon="-1.69531">
        <ele>55.1</ele>
        <time>2014-10-12T08:05:26Z</time>
      </trkpt>
      <trkpt lat="47.27778" lon="-1.69536">
        <ele>55.2</ele>
        <time>2014-10-12T08:05:27Z</time>
      </trkpt>
      <trkpt lat="47.27778" lon="-1.69541">
        <ele>55.3</ele>
        <time>2014-10-12T08:05:28Z</time>
      </trkpt>
      <trkpt lat="47.27779" lon="-1.69546">
        <ele>55.5</ele>
        <time>2014-10-12T08:05:29Z</time>
      </trkpt>
      <trkpt lat="47.27779" lon="-1.6955">
        <ele>55.6</ele>
        <time>2014-10-12T08:05:30Z</time>
      </trkpt>
      <trkpt lat="47.27779" lon="-1.69555">
        <ele>55.7</ele>
        <time>2014-10-12T08:05:31Z</time>
      </trkpt>
      <trkpt lat="47.27779" lon="-1.69559">
        <ele>55.9</ele>
        <time>2014-10-12T08:05:32Z</time>
      </trkpt>
      <trkpt lat="47.27779" lon="-1.69564">
        <ele>56</ele>
        <time>2014-10-12T08:05:33Z</time>
      </trkpt>
      <trkpt lat="47.2778" lon="-1.6957">
        <ele>56.2</ele>
        <time>2014-10-12T08:05:34Z</time>
      </trkpt>
      <trkpt lat="47.27781" lon="-1.69575">
        <ele>56.3</ele>
        <time>2014-10-12T08:05:35Z</time>
      </trkpt>
      <trkpt lat="47.27781" lon="-1.69579">
        <ele>56.5</ele>
        <time>2014-10-12T08:05:36Z</time>
      </trkpt>
      <trkpt lat="47.27782" lon="-1.69584">
        <ele>56.6</ele>
        <time>2014-10-12T08:05:37Z</time>
      </trkpt>
      <trkpt lat="47.27783" lon="-1.69588">
        <ele>56.8</ele>
        <time>2014-10-12T08:05:38Z</time>
      </trkpt>
      <trkpt lat="47.27784" lon="-1.69593">
        <ele>56.9</ele>
        <time>2014-10-12T08:05:39Z</time>
      </trkpt>
      <trkpt lat="47.27785" lon="-1.69598">
        <ele>57.1</ele>
        <time>2014-10-12T08:05:40Z</time>
      </trkpt>
      <trkpt lat="47.27787" lon="-1.69602">
        <ele>57.3</ele>
        <time>2014-10-12T08:05:41Z</time>
      </trkpt>
      <trkpt lat="47.27788" lon="-1.69607">
        <ele>57.4</ele>
        <time>2014-10-12T08:05:42Z</time>
      </trkpt>
      <trkpt lat="47.27789" lon="-1.69611">
        <ele>57.6</ele>
        <time>2014-10-12T08:05:43Z</time>
      </trkpt>
      <trkpt lat="47.27791" lon="-1.69615">
        <ele>57.7</ele>
        <time>2014-10-12T08:05:44Z</time>
      </trkpt>
      <trkpt lat="47.27792" lon="-1.69619">
        <ele>57.9</ele>
        <time>2014-10-12T08:05:45Z</time>
      </trkpt>
      <trkpt lat="47.27794" lon="-1.69623">
        <ele>58</ele>
        <time>2014-10-12T08:05:46Z</time>
      </trkpt>
      <trkpt lat="47.27795" lon="-1.69627">
        <ele>58.2</ele>
        <time>2014-10-12T08:05:47Z</time>
      </trkpt>
      <trkpt lat="47.27796" lon="-1.69631">
        <ele>58.4</ele>
        <time>2014-10-12T08:05:48Z</time>
      </trkpt>
      <trkpt lat="47.27799" lon="-1.69638">
        <ele>58.8</ele>
        <time>2014-10-12T08:05:50Z</time>
      </trkpt>
      <trkpt lat="47.27801" lon="-1.69641">
        <ele>58.9</ele>
        <time>2014-10-12T08:05:51Z</time>
      </trkpt>
      <trkpt lat="47.27805" lon="-1.69642">
        <ele>59</ele>
        <time>2014-10-12T08:05:53Z</time>
      </trkpt>
      <trkpt lat="47.2781" lon="-1.69638">
        <ele>59</ele>
        <time>2014-10-12T08:05:55Z</time>
      </trkpt>
      <trkpt lat="47.27812" lon="-1.69638">
        <ele>59</ele>
        <time>2014-10-12T08:05:56Z</time>
      </trkpt>
      <trkpt lat="47.27816" lon="-1.69638">
        <ele>59.1</ele>
        <time>2014-10-12T08:05:58Z</time>
      </trkpt>
      <trkpt lat="47.2782" lon="-1.69639">
        <ele>59.2</ele>
        <time>2014-10-12T08:06:00Z</time>
      </trkpt>
      <trkpt lat="47.27823" lon="-1.69642">
        <ele>59.3</ele>
        <time>2014-10-12T08:06:02Z</time>
      </trkpt>
      <trkpt lat="47.27827" lon="-1.69646">
        <ele>59.5</ele>
        <time>2014-10-12T08:06:04Z</time>
      </trkpt>
      <trkpt lat="47.27829" lon="-1.69649">
        <ele>59.7</ele>
        <time>2014-10-12T08:06:06Z</time>
      </trkpt>
      <trkpt lat="47.27831" lon="-1.69654">
        <ele>59.8</ele>
        <time>2014-10-12T08:06:09Z</time>
      </trkpt>
      <trkpt lat="47.27833" lon="-1.69657">
        <ele>59.9</ele>
        <time>2014-10-12T08:06:13Z</time>
      </trkpt>
      <trkpt lat="47.2784" lon="-1.69675">
        <ele>60.5</ele>
        <time>2014-10-12T08:11:50Z</time>
      </trkpt>
      <trkpt lat="47.27843" lon="-1.69677">
        <ele>60.6</ele>
        <time>2014-10-12T08:11:52Z</time>
      </trkpt>
      <trkpt lat="47.27847" lon="-1.69677">
        <ele>60.6</ele>
        <time>2014-10-12T08:11:54Z</time>
      </trkpt>
      <trkpt lat="47.27851" lon="-1.69681">
        <ele>60.7</ele>
        <time>2014-10-12T08:11:56Z</time>
      </trkpt>
      <trkpt lat="47.27853" lon="-1.69685">
        <ele>60.8</ele>
        <time>2014-10-12T08:11:57Z</time>
      </trkpt>
      <trkpt lat="47.27856" lon="-1.69687">
        <ele>60.8</ele>
        <time>2014-10-12T08:11:58Z</time>
      </trkpt>
      <trkpt lat="47.2786" lon="-1.69688">
        <ele>60.8</ele>
        <time>2014-10-12T08:11:59Z</time>
      </trkpt>
      <trkpt lat="47.27862" lon="-1.69688">
        <ele>60.8</ele>
        <time>2014-10-12T08:12:00Z</time>
      </trkpt>
      <trkpt lat="47.27865" lon="-1.69687">
        <ele>60.8</ele>
        <time>2014-10-12T08:12:01Z</time>
      </trkpt>
      <trkpt lat="47.27869" lon="-1.69687">
        <ele>60.8</ele>
        <time>2014-10-12T08:12:02Z</time>
      </trkpt>
      <trkpt lat="47.27874" lon="-1.69686">
        <ele>60.7</ele>
        <time>2014-10-12T08:12:04Z</time>
      </trkpt>
      <trkpt lat="47.2788" lon="-1.69685">
        <ele>60.7</ele>
        <time>2014-10-12T08:12:06Z</time>
      </trkpt>
      <trkpt lat="47.27883" lon="-1.69685">
        <ele>60.6</ele>
        <time>2014-10-12T08:12:07Z</time>
      </trkpt>
      <trkpt lat="47.27888" lon="-1.69681">
        <ele>60.5</ele>
        <time>2014-10-12T08:12:09Z</time>
      </trkpt>
      <trkpt lat="47.27891" lon="-1.69679">
        <ele>60.5</ele>
        <time>2014-10-12T08:12:10Z</time>
      </trkpt>
      <trkpt lat="47.27895" lon="-1.69678">
        <ele>60.4</ele>
        <time>2014-10-12T08:12:11Z</time>
      </trkpt>
      <trkpt lat="47.27899" lon="-1.69677">
        <ele>60.3</ele>
        <time>2014-10-12T08:12:12Z</time>
      </trkpt>
      <trkpt lat="47.27902" lon="-1.69677">
        <ele>60.3</ele>
        <time>2014-10-12T08:12:13Z</time>
      </trkpt>
      <trkpt lat="47.27906" lon="-1.69676">
        <ele>60.2</ele>
        <time>2014-10-12T08:12:14Z</time>
      </trkpt>
      <trkpt lat="47.2791" lon="-1.69675">
        <ele>60.2</ele>
        <time>2014-10-12T08:12:15Z</time>
      </trkpt>
      <trkpt lat="47.27914" lon="-1.69673">
        <ele>60.1</ele>
        <time>2014-10-12T08:12:16Z</time>
      </trkpt>
      <trkpt lat="47.27919" lon="-1.69671">
        <ele>60</ele>
        <time>2014-10-12T08:12:17Z</time>
      </trkpt>
      <trkpt lat="47.27923" lon="-1.6967">
        <ele>60</ele>
        <time>2014-10-12T08:12:18Z</time>
      </trkpt>
      <trkpt lat="47.27928" lon="-1.69669">
        <ele>59.9</ele>
        <time>2014-10-12T08:12:19Z</time>
      </trkpt>
      <trkpt lat="47.27931" lon="-1.69669">
        <ele>59.8</ele>
        <time>2014-10-12T08:12:20Z</time>
      </trkpt>
      <trkpt lat="47.27935" lon="-1.69669">
        <ele>59.8</ele>
        <time>2014-10-12T08:12:21Z</time>
      </trkpt>
      <trkpt lat="47.27938" lon="-1.69669">
        <ele>59.8</ele>
        <time>2014-10-12T08:12:22Z</time>
      </trkpt>
      <trkpt lat="47.27941" lon="-1.69671">
        <ele>59.8</ele>
        <time>2014-10-12T08:12:23Z</time>
      </trkpt>
      <trkpt lat="47.27945" lon="-1.69679">
        <ele>59.8</ele>
        <time>2014-10-12T08:12:25Z</time>
      </trkpt>
      <trkpt lat="47.27947" lon="-1.69682">
        <ele>59.8</ele>
        <time>2014-10-12T08:12:26Z</time>
      </trkpt>
      <trkpt lat="47.27949" lon="-1.69686">
        <ele>59.8</ele>
        <time>2014-10-12T08:12:27Z</time>
      </trkpt>
      <trkpt lat="47.2795" lon="-1.69689">
        <ele>59.9</ele>
        <time>2014-10-12T08:12:28Z</time>
      </trkpt>
      <trkpt lat="47.27952" lon="-1.69694">
        <ele>59.9</ele>
        <time>2014-10-12T08:12:29Z</time>
      </trkpt>
      <trkpt lat="47.27953" lon="-1.69698">
        <ele>59.9</ele>
        <time>2014-10-12T08:12:30Z</time>
      </trkpt>
      <trkpt lat="47.27954" lon="-1.69702">
        <ele>60</ele>
        <time>2014-10-12T08:12:31Z</time>
      </trkpt>
      <trkpt lat="47.27956" lon="-1.69705">
        <ele>60</ele>
        <time>2014-10-12T08:12:32Z</time>
      </trkpt>
      <trkpt lat="47.27959" lon="-1.69707">
        <ele>60</ele>
        <time>2014-10-12T08:12:33Z</time>
      </trkpt>
      <trkpt lat="47.27963" lon="-1.69709">
        <ele>60.1</ele>
        <time>2014-10-12T08:12:34Z</time>
      </trkpt>
      <trkpt lat="47.27967" lon="-1.69711">
        <ele>60.3</ele>
        <time>2014-10-12T08:12:35Z</time>
      </trkpt>
      <trkpt lat="47.27971" lon="-1.69711">
        <ele>60.4</ele>
        <time>2014-10-12T08:12:36Z</time>
      </trkpt>
      <trkpt lat="47.27975" lon="-1.69711">
        <ele>60.5</ele>
        <time>2014-10-12T08:12:37Z</time>
      </trkpt>
      <trkpt lat="47.27979" lon="-1.69712">
        <ele>60.6</ele>
        <time>2014-10-12T08:12:38Z</time>
      </trkpt>
      <trkpt lat="47.27983" lon="-1.69713">
        <ele>60.7</ele>
        <time>2014-10-12T08:12:39Z</time>
      </trkpt>
      <trkpt lat="47.27987" lon="-1.69714">
        <ele>60.9</ele>
        <time>2014-10-12T08:12:40Z</time>
      </trkpt>
      <trkpt lat="47.27992" lon="-1.69715">
        <ele>61</ele>
        <time>2014-10-12T08:12:41Z</time>
      </trkpt>
      <trkpt lat="47.27996" lon="-1.69715">
        <ele>61.2</ele>
        <time>2014-10-12T08:12:42Z</time>
      </trkpt>
      <trkpt lat="47.28001" lon="-1.69715">
        <ele>61.3</ele>
        <time>2014-10-12T08:12:43Z</time>
      </trkpt>
      <trkpt lat="47.28005" lon="-1.69712">
        <ele>61.2</ele>
        <time>2014-10-12T08:12:44Z</time>
      </trkpt>
      <trkpt lat="47.28009" lon="-1.69709">
        <ele>61.2</ele>
        <time>2014-10-12T08:12:45Z</time>
      </trkpt>
      <trkpt lat="47.28012" lon="-1.69705">
        <ele>61.3</ele>
        <time>2014-10-12T08:12:46Z</time>
      </trkpt>
      <trkpt lat="47.28016" lon="-1.69701">
        <ele>61.3</ele>
        <time>2014-10-12T08:12:47Z</time>
      </trkpt>
      <trkpt lat="47.2802" lon="-1.69698">
        <ele>61.3</ele>
        <time>2014-10-12T08:12:48Z</time>
      </trkpt>
      <trkpt lat="47.28023" lon="-1.69695">
        <ele>61.4</ele>
        <time>2014-10-12T08:12:49Z</time>
      </trkpt>
      <trkpt lat="47.28027" lon="-1.69691">
        <ele>61.4</ele>
        <time>2014-10-12T08:12:50Z</time>
      </trkpt>
      <trkpt lat="47.2803" lon="-1.69686">
        <ele>61.5</ele>
        <time>2014-10-12T08:12:51Z</time>
      </trkpt>
      <trkpt lat="47.28033" lon="-1.69684">
        <ele>61.5</ele>
        <time>2014-10-12T08:12:52Z</time>
      </trkpt>
      <trkpt lat="47.28036" lon="-1.69681">
        <ele>61.5</ele>
        <time>2014-10-12T08:12:53Z</time>
      </trkpt>
      <trkpt lat="47.28038" lon="-1.69676">
        <ele>61.5</ele>
        <time>2014-10-12T08:12:54Z</time>
      </trkpt>
      <trkpt lat="47.2804" lon="-1.69671">
        <ele>61.5</ele>
        <time>2014-10-12T08:12:55Z</time>
      </trkpt>
      <trkpt lat="47.28042" lon="-1.69666">
        <ele>61.5</ele>
        <time>2014-10-12T08:12:56Z</time>
      </trkpt>
      <trkpt lat="47.28044" lon="-1.6966">
        <ele>61.5</ele>
        <time>2014-10-12T08:12:57Z</time>
      </trkpt>
      <trkpt lat="47.28045" lon="-1.69655">
        <ele>61.4</ele>
        <time>2014-10-12T08:12:58Z</time>
      </trkpt>
      <trkpt lat="47.28047" lon="-1.69649">
        <ele>61.4</ele>
        <time>2014-10-12T08:12:59Z</time>
      </trkpt>
      <trkpt lat="47.28048" lon="-1.69643">
        <ele>61.4</ele>
        <time>2014-10-12T08:13:00Z</time>
      </trkpt>
      <trkpt lat="47.2805" lon="-1.69637">
        <ele>61.4</ele>
        <time>2014-10-12T08:13:01Z</time>
      </trkpt>
      <trkpt lat="47.28052" lon="-1.69631">
        <ele>61.4</ele>
        <time>2014-10-12T08:13:02Z</time>
      </trkpt>
      <trkpt lat="47.28053" lon="-1.69626">
        <ele>61.4</ele>
        <time>2014-10-12T08:13:03Z</time>
      </trkpt>
      <trkpt lat="47.28055" lon="-1.6962">
        <ele>61.4</ele>
        <time>2014-10-12T08:13:04Z</time>
      </trkpt>
      <trkpt lat="47.28057" lon="-1.69615">
        <ele>61.4</ele>
        <time>2014-10-12T08:13:05Z</time>
      </trkpt>
      <trkpt lat="47.28059" lon="-1.6961">
        <ele>61.5</ele>
        <time>2014-10-12T08:13:06Z</time>
      </trkpt>
      <trkpt lat="47.28062" lon="-1.69605">
        <ele>61.5</ele>
        <time>2014-10-12T08:13:07Z</time>
      </trkpt>
      <trkpt lat="47.28064" lon="-1.696">
        <ele>61.5</ele>
        <time>2014-10-12T08:13:08Z</time>
      </trkpt>
      <trkpt lat="47.28066" lon="-1.69595">
        <ele>61.5</ele>
        <time>2014-10-12T08:13:09Z</time>
      </trkpt>
      <trkpt lat="47.28069" lon="-1.6959">
        <ele>61.6</ele>
        <time>2014-10-12T08:13:10Z</time>
      </trkpt>
      <trkpt lat="47.28071" lon="-1.69586">
        <ele>61.6</ele>
        <time>2014-10-12T08:13:11Z</time>
      </trkpt>
      <trkpt lat="47.28074" lon="-1.69581">
        <ele>61.6</ele>
        <time>2014-10-12T08:13:12Z</time>
      </trkpt>
      <trkpt lat="47.28077" lon="-1.69576">
        <ele>61.7</ele>
        <time>2014-10-12T08:13:13Z</time>
      </trkpt>
      <trkpt lat="47.2808" lon="-1.6957">
        <ele>61.7</ele>
        <time>2014-10-12T08:13:14Z</time>
      </trkpt>
      <trkpt lat="47.28083" lon="-1.69565">
        <ele>61.8</ele>
        <time>2014-10-12T08:13:15Z</time>
      </trkpt>
      <trkpt lat="47.28087" lon="-1.69559">
        <ele>61.8</ele>
        <time>2014-10-12T08:13:16Z</time>
      </trkpt>
      <trkpt lat="47.2809" lon="-1.69552">
        <ele>61.8</ele>
        <time>2014-10-12T08:13:17Z</time>
      </trkpt>
      <trkpt lat="47.28092" lon="-1.69545">
        <ele>61.9</ele>
        <time>2014-10-12T08:13:18Z</time>
      </trkpt>
      <trkpt lat="47.28094" lon="-1.69538">
        <ele>61.9</ele>
        <time>2014-10-12T08:13:19Z</time>
      </trkpt>
      <trkpt lat="47.28096" lon="-1.69529">
        <ele>61.9</ele>
        <time>2014-10-12T08:13:20Z</time>
      </trkpt>
      <trkpt lat="47.28097" lon="-1.69521">
        <ele>61.8</ele>
        <time>2014-10-12T08:13:21Z</time>
      </trkpt>
      <trkpt lat="47.28098" lon="-1.69512">
        <ele>61.8</ele>
        <time>2014-10-12T08:13:22Z</time>
      </trkpt>
      <trkpt lat="47.28099" lon="-1.69503">
        <ele>61.8</ele>
        <time>2014-10-12T08:13:23Z</time>
      </trkpt>
      <trkpt lat="47.28099" lon="-1.69495">
        <ele>61.7</ele>
        <time>2014-10-12T08:13:24Z</time>
      </trkpt>
      <trkpt lat="47.28099" lon="-1.69487">
        <ele>61.6</ele>
        <time>2014-10-12T08:13:25Z</time>
      </trkpt>
      <trkpt lat="47.28099" lon="-1.69478">
        <ele>61.6</ele>
        <time>2014-10-12T08:13:26Z</time>
      </trkpt>
      <trkpt lat="47.28099" lon="-1.6947">
        <ele>61.5</ele>
        <time>2014-10-12T08:13:27Z</time>
      </trkpt>
      <trkpt lat="47.281" lon="-1.69462">
        <ele>61.5</ele>
        <time>2014-10-12T08:13:28Z</time>
      </trkpt>
      <trkpt lat="47.28102" lon="-1.69454">
        <ele>61.5</ele>
        <time>2014-10-12T08:13:29Z</time>
      </trkpt>
      <trkpt lat="47.28105" lon="-1.69446">
        <ele>61.3</ele>
        <time>2014-10-12T08:13:30Z</time>
      </trkpt>
      <trkpt lat="47.28109" lon="-1.69438">
        <ele>61.3</ele>
        <time>2014-10-12T08:13:31Z</time>
      </trkpt>
      <trkpt lat="47.28113" lon="-1.69432">
        <ele>61.3</ele>
        <time>2014-10-12T08:13:32Z</time>
      </trkpt>
      <trkpt lat="47.28118" lon="-1.69425">
        <ele>61.4</ele>
        <time>2014-10-12T08:13:33Z</time>
      </trkpt>
      <trkpt lat="47.28123" lon="-1.69419">
        <ele>61.5</ele>
        <time>2014-10-12T08:13:34Z</time>
      </trkpt>
      <trkpt lat="47.28128" lon="-1.69413">
        <ele>61.3</ele>
        <time>2014-10-12T08:13:35Z</time>
      </trkpt>
      <trkpt lat="47.28134" lon="-1.69407">
        <ele>61.1</ele>
        <time>2014-10-12T08:13:36Z</time>
      </trkpt>
      <trkpt lat="47.28139" lon="-1.69401">
        <ele>60.8</ele>
        <time>2014-10-12T08:13:37Z</time>
      </trkpt>
      <trkpt lat="47.28145" lon="-1.69394">
        <ele>60.6</ele>
        <time>2014-10-12T08:13:38Z</time>
      </trkpt>
      <trkpt lat="47.2815" lon="-1.69388">
        <ele>60.4</ele>
        <time>2014-10-12T08:13:39Z</time>
      </trkpt>
      <trkpt lat="47.28155" lon="-1.69381">
        <ele>60.2</ele>
        <time>2014-10-12T08:13:40Z</time>
      </trkpt>
      <trkpt lat="47.28159" lon="-1.69374">
        <ele>59.9</ele>
        <time>2014-10-12T08:13:41Z</time>
      </trkpt>
      <trkpt lat="47.28163" lon="-1.69365">
        <ele>59.6</ele>
        <time>2014-10-12T08:13:42Z</time>
      </trkpt>
      <trkpt lat="47.28166" lon="-1.69356">
        <ele>59.2</ele>
        <time>2014-10-12T08:13:43Z</time>
      </trkpt>
      <trkpt lat="47.28169" lon="-1.69348">
        <ele>58.9</ele>
        <time>2014-10-12T08:13:44Z</time>
      </trkpt>
      <trkpt lat="47.28171" lon="-1.69342">
        <ele>58.6</ele>
        <time>2014-10-12T08:13:45Z</time>
      </trkpt>
      <trkpt lat="47.28173" lon="-1.69337">
        <ele>58.4</ele>
        <time>2014-10-12T08:13:46Z</time>
      </trkpt>
      <trkpt lat="47.28175" lon="-1.69332">
        <ele>58.3</ele>
        <time>2014-10-12T08:13:47Z</time>
      </trkpt>
      <trkpt lat="47.28178" lon="-1.6933">
        <ele>58.2</ele>
        <time>2014-10-12T08:13:48Z</time>
      </trkpt>
      <trkpt lat="47.28182" lon="-1.69331">
        <ele>58.2</ele>
        <time>2014-10-12T08:13:49Z</time>
      </trkpt>
      <trkpt lat="47.28185" lon="-1.69333">
        <ele>58.4</ele>
        <time>2014-10-12T08:13:50Z</time>
      </trkpt>
      <trkpt lat="47.28187" lon="-1.69337">
        <ele>58.5</ele>
        <time>2014-10-12T08:13:51Z</time>
      </trkpt>
      <trkpt lat="47.2819" lon="-1.69342">
        <ele>58.7</ele>
        <time>2014-10-12T08:13:52Z</time>
      </trkpt>
      <trkpt lat="47.28191" lon="-1.69348">
        <ele>59</ele>
        <time>2014-10-12T08:13:53Z</time>
      </trkpt>
      <trkpt lat="47.28192" lon="-1.69353">
        <ele>59.2</ele>
        <time>2014-10-12T08:13:54Z</time>
      </trkpt>
      <trkpt lat="47.28194" lon="-1.6936">
        <ele>59.4</ele>
        <time>2014-10-12T08:13:55Z</time>
      </trkpt>
      <trkpt lat="47.28195" lon="-1.69367">
        <ele>59.7</ele>
        <time>2014-10-12T08:13:56Z</time>
      </trkpt>
      <trkpt lat="47.28196" lon="-1.69374">
        <ele>60</ele>
        <time>2014-10-12T08:13:57Z</time>
      </trkpt>
      <trkpt lat="47.28197" lon="-1.6938">
        <ele>60.1</ele>
        <time>2014-10-12T08:13:58Z</time>
      </trkpt>
      <trkpt lat="47.28198" lon="-1.69388">
        <ele>60.2</ele>
        <time>2014-10-12T08:13:59Z</time>
      </trkpt>
      <trkpt lat="47.282" lon="-1.69395">
        <ele>60.3</ele>
        <time>2014-10-12T08:14:00Z</time>
      </trkpt>
      <trkpt lat="47.28202" lon="-1.69401">
        <ele>60.4</ele>
        <time>2014-10-12T08:14:01Z</time>
      </trkpt>
      <trkpt lat="47.28204" lon="-1.69406">
        <ele>60.4</ele>
        <time>2014-10-12T08:14:02Z</time>
      </trkpt>
      <trkpt lat="47.28207" lon="-1.6941">
        <ele>60.4</ele>
        <time>2014-10-12T08:14:03Z</time>
      </trkpt>
      <trkpt lat="47.2821" lon="-1.69412">
        <ele>60.4</ele>
        <time>2014-10-12T08:14:04Z</time>
      </trkpt>
      <trkpt lat="47.28213" lon="-1.69414">
        <ele>60.3</ele>
        <time>2014-10-12T08:14:05Z</time>
      </trkpt>
      <trkpt lat="47.28215" lon="-1.69417">
        <ele>60.3</ele>
        <time>2014-10-12T08:14:06Z</time>
      </trkpt>
      <trkpt lat="47.28217" lon="-1.69422">
        <ele>60.3</ele>
        <time>2014-10-12T08:14:07Z</time>
      </trkpt>
      <trkpt lat="47.28219" lon="-1.69426">
        <ele>60.3</ele>
        <time>2014-10-12T08:14:08Z</time>
      </trkpt>
      <trkpt lat="47.28219" lon="-1.69431">
        <ele>60.4</ele>
        <time>2014-10-12T08:14:09Z</time>
      </trkpt>
      <trkpt lat="47.28218" lon="-1.69435">
        <ele>60.5</ele>
        <time>2014-10-12T08:14:10Z</time>
      </trkpt>
      <trkpt lat="47.28216" lon="-1.69439">
        <ele>60.6</ele>
        <time>2014-10-12T08:14:11Z</time>
      </trkpt>
      <trkpt lat="47.28216" lon="-1.69443">
        <ele>60.6</ele>
        <time>2014-10-12T08:14:12Z</time>
      </trkpt>
      <trkpt lat="47.28217" lon="-1.69448">
        <ele>60.7</ele>
        <time>2014-10-12T08:14:13Z</time>
      </trkpt>
      <trkpt lat="47.28219" lon="-1.69452">
        <ele>60.7</ele>
        <time>2014-10-12T08:14:14Z</time>
      </trkpt>
      <trkpt lat="47.28222" lon="-1.69455">
        <ele>60.6</ele>
        <time>2014-10-12T08:14:15Z</time>
      </trkpt>
      <trkpt lat="47.28225" lon="-1.69457">
        <ele>60.6</ele>
        <time>2014-10-12T08:14:16Z</time>
      </trkpt>
      <trkpt lat="47.28228" lon="-1.69459">
        <ele>60.5</ele>
        <time>2014-10-12T08:14:17Z</time>
      </trkpt>
      <trkpt lat="47.28231" lon="-1.69461">
        <ele>60.5</ele>
        <time>2014-10-12T08:14:18Z</time>
      </trkpt>
      <trkpt lat="47.28234" lon="-1.69464">
        <ele>60.5</ele>
        <time>2014-10-12T08:14:19Z</time>
      </trkpt>
      <trkpt lat="47.28237" lon="-1.69466">
        <ele>60.5</ele>
        <time>2014-10-12T08:14:20Z</time>
      </trkpt>
      <trkpt lat="47.2824" lon="-1.69469">
        <ele>60.5</ele>
        <time>2014-10-12T08:14:21Z</time>
      </trkpt>
      <trkpt lat="47.28243" lon="-1.69472">
        <ele>60.5</ele>
        <time>2014-10-12T08:14:22Z</time>
      </trkpt>
      <trkpt lat="47.28246" lon="-1.69474">
        <ele>60.5</ele>
        <time>2014-10-12T08:14:23Z</time>
      </trkpt>
      <trkpt lat="47.28249" lon="-1.69477">
        <ele>60.5</ele>
        <time>2014-10-12T08:14:24Z</time>
      </trkpt>
      <trkpt lat="47.28251" lon="-1.69482">
        <ele>60.5</ele>
        <time>2014-10-12T08:14:25Z</time>
      </trkpt>
      <trkpt lat="47.28254" lon="-1.69485">
        <ele>60.6</ele>
        <time>2014-10-12T08:14:26Z</time>
      </trkpt>
      <trkpt lat="47.28257" lon="-1.69487">
        <ele>60.6</ele>
        <time>2014-10-12T08:14:27Z</time>
      </trkpt>
      <trkpt lat="47.28261" lon="-1.69491">
        <ele>60.6</ele>
        <time>2014-10-12T08:14:28Z</time>
      </trkpt>
      <trkpt lat="47.28266" lon="-1.69493">
        <ele>60.6</ele>
        <time>2014-10-12T08:14:29Z</time>
      </trkpt>
      <trkpt lat="47.28269" lon="-1.69496">
        <ele>60.7</ele>
        <time>2014-10-12T08:14:30Z</time>
      </trkpt>
      <trkpt lat="47.28273" lon="-1.695">
        <ele>60.7</ele>
        <time>2014-10-12T08:14:31Z</time>
      </trkpt>
      <trkpt lat="47.28276" lon="-1.69504">
        <ele>60.8</ele>
        <time>2014-10-12T08:14:32Z</time>
      </trkpt>
      <trkpt lat="47.2828" lon="-1.69506">
        <ele>60.8</ele>
        <time>2014-10-12T08:14:33Z</time>
      </trkpt>
      <trkpt lat="47.28284" lon="-1.6951">
        <ele>60.9</ele>
        <time>2014-10-12T08:14:34Z</time>
      </trkpt>
      <trkpt lat="47.28288" lon="-1.69513">
        <ele>61</ele>
        <time>2014-10-12T08:14:35Z</time>
      </trkpt>
      <trkpt lat="47.28292" lon="-1.69517">
        <ele>61.1</ele>
        <time>2014-10-12T08:14:36Z</time>
      </trkpt>
      <trkpt lat="47.28297" lon="-1.69521">
        <ele>61.1</ele>
        <time>2014-10-12T08:14:37Z</time>
      </trkpt>
      <trkpt lat="47.28301" lon="-1.69525">
        <ele>61.1</ele>
        <time>2014-10-12T08:14:38Z</time>
      </trkpt>
      <trkpt lat="47.28305" lon="-1.69528">
        <ele>61.1</ele>
        <time>2014-10-12T08:14:39Z</time>
      </trkpt>
      <trkpt lat="47.2831" lon="-1.69532">
        <ele>61</ele>
        <time>2014-10-12T08:14:40Z</time>
      </trkpt>
      <trkpt lat="47.28313" lon="-1.69534">
        <ele>61</ele>
        <time>2014-10-12T08:14:41Z</time>
      </trkpt>
      <trkpt lat="47.28317" lon="-1.69537">
        <ele>60.9</ele>
        <time>2014-10-12T08:14:42Z</time>
      </trkpt>
      <trkpt lat="47.28322" lon="-1.69539">
        <ele>60.8</ele>
        <time>2014-10-12T08:14:43Z</time>
      </trkpt>
      <trkpt lat="47.28326" lon="-1.69541">
        <ele>60.7</ele>
        <time>2014-10-12T08:14:44Z</time>
      </trkpt>
      <trkpt lat="47.28332" lon="-1.69543">
        <ele>60.6</ele>
        <time>2014-10-12T08:14:45Z</time>
      </trkpt>
      <trkpt lat="47.28336" lon="-1.69545">
        <ele>60.4</ele>
        <time>2014-10-12T08:14:46Z</time>
      </trkpt>
      <trkpt lat="47.28341" lon="-1.69547">
        <ele>60.2</ele>
        <time>2014-10-12T08:14:47Z</time>
      </trkpt>
      <trkpt lat="47.28347" lon="-1.6955">
        <ele>60</ele>
        <time>2014-10-12T08:14:48Z</time>
      </trkpt>
      <trkpt lat="47.28353" lon="-1.69551">
        <ele>59.8</ele>
        <time>2014-10-12T08:14:49Z</time>
      </trkpt>
      <trkpt lat="47.28359" lon="-1.69552">
        <ele>59.6</ele>
        <time>2014-10-12T08:14:50Z</time>
      </trkpt>
      <trkpt lat="47.28365" lon="-1.69553">
        <ele>59.4</ele>
        <time>2014-10-12T08:14:51Z</time>
      </trkpt>
      <trkpt lat="47.2837" lon="-1.69553">
        <ele>59.2</ele>
        <time>2014-10-12T08:14:52Z</time>
      </trkpt>
      <trkpt lat="47.28374" lon="-1.69553">
        <ele>59</ele>
        <time>2014-10-12T08:14:53Z</time>
      </trkpt>
      <trkpt lat="47.28379" lon="-1.69554">
        <ele>59</ele>
        <time>2014-10-12T08:14:54Z</time>
      </trkpt>
      <trkpt lat="47.28383" lon="-1.69555">
        <ele>58.9</ele>
        <time>2014-10-12T08:14:55Z</time>
      </trkpt>
      <trkpt lat="47.28386" lon="-1.6956">
        <ele>58.9</ele>
        <time>2014-10-12T08:14:56Z</time>
      </trkpt>
      <trkpt lat="47.28387" lon="-1.69564">
        <ele>58.9</ele>
        <time>2014-10-12T08:14:57Z</time>
      </trkpt>
      <trkpt lat="47.28388" lon="-1.6957">
        <ele>59</ele>
        <time>2014-10-12T08:14:58Z</time>
      </trkpt>
      <trkpt lat="47.28388" lon="-1.69575">
        <ele>59</ele>
        <time>2014-10-12T08:14:59Z</time>
      </trkpt>
      <trkpt lat="47.28389" lon="-1.69581">
        <ele>59</ele>
        <time>2014-10-12T08:15:00Z</time>
      </trkpt>
      <trkpt lat="47.2839" lon="-1.69587">
        <ele>59</ele>
        <time>2014-10-12T08:15:01Z</time>
      </trkpt>
      <trkpt lat="47.28391" lon="-1.69592">
        <ele>59</ele>
        <time>2014-10-12T08:15:02Z</time>
      </trkpt>
      <trkpt lat="47.28391" lon="-1.69596">
        <ele>59.1</ele>
        <time>2014-10-12T08:15:03Z</time>
      </trkpt>
      <trkpt lat="47.28391" lon="-1.69601">
        <ele>59.1</ele>
        <time>2014-10-12T08:15:04Z</time>
      </trkpt>
      <trkpt lat="47.28391" lon="-1.69606">
        <ele>59.1</ele>
        <time>2014-10-12T08:15:05Z</time>
      </trkpt>
      <trkpt lat="47.28391" lon="-1.69612">
        <ele>59.1</ele>
        <time>2014-10-12T08:15:06Z</time>
      </trkpt>
      <trkpt lat="47.2839" lon="-1.69618">
        <ele>59.2</ele>
        <time>2014-10-12T08:15:07Z</time>
      </trkpt>
      <trkpt lat="47.2839" lon="-1.69625">
        <ele>59.2</ele>
        <time>2014-10-12T08:15:08Z</time>
      </trkpt>
      <trkpt lat="47.28389" lon="-1.69632">
        <ele>59.3</ele>
        <time>2014-10-12T08:15:09Z</time>
      </trkpt>
      <trkpt lat="47.28388" lon="-1.69639">
        <ele>59.5</ele>
        <time>2014-10-12T08:15:10Z</time>
      </trkpt>
      <trkpt lat="47.28387" lon="-1.69644">
        <ele>59.6</ele>
        <time>2014-10-12T08:15:11Z</time>
      </trkpt>
      <trkpt lat="47.28386" lon="-1.69651">
        <ele>59.7</ele>
        <time>2014-10-12T08:15:12Z</time>
      </trkpt>
      <trkpt lat="47.28384" lon="-1.69656">
        <ele>59.8</ele>
        <time>2014-10-12T08:15:13Z</time>
      </trkpt>
      <trkpt lat="47.28383" lon="-1.69661">
        <ele>59.9</ele>
        <time>2014-10-12T08:15:14Z</time>
      </trkpt>
      <trkpt lat="47.28381" lon="-1.69666">
        <ele>60</ele>
        <time>2014-10-12T08:15:15Z</time>
      </trkpt>
      <trkpt lat="47.28379" lon="-1.69671">
        <ele>60.1</ele>
        <time>2014-10-12T08:15:16Z</time>
      </trkpt>
      <trkpt lat="47.28377" lon="-1.69676">
        <ele>60.2</ele>
        <time>2014-10-12T08:15:17Z</time>
      </trkpt>
      <trkpt lat="47.28375" lon="-1.6968">
        <ele>60.3</ele>
        <time>2014-10-12T08:15:18Z</time>
      </trkpt>
      <trkpt lat="47.28374" lon="-1.69685">
        <ele>60.5</ele>
        <time>2014-10-12T08:15:19Z</time>
      </trkpt>
      <trkpt lat="47.28372" lon="-1.6969">
        <ele>60.6</ele>
        <time>2014-10-12T08:15:20Z</time>
      </trkpt>
      <trkpt lat="47.2837" lon="-1.69694">
        <ele>60.8</ele>
        <time>2014-10-12T08:15:21Z</time>
      </trkpt>
      <trkpt lat="47.28368" lon="-1.697">
        <ele>61</ele>
        <time>2014-10-12T08:15:22Z</time>
      </trkpt>
      <trkpt lat="47.28366" lon="-1.69704">
        <ele>61.1</ele>
        <time>2014-10-12T08:15:23Z</time>
      </trkpt>
      <trkpt lat="47.28365" lon="-1.69709">
        <ele>61.3</ele>
        <time>2014-10-12T08:15:24Z</time>
      </trkpt>
      <trkpt lat="47.28363" lon="-1.69714">
        <ele>61.4</ele>
        <time>2014-10-12T08:15:25Z</time>
      </trkpt>
      <trkpt lat="47.28362" lon="-1.69718">
        <ele>61.6</ele>
        <time>2014-10-12T08:15:26Z</time>
      </trkpt>
      <trkpt lat="47.28358" lon="-1.69722">
        <ele>61.8</ele>
        <time>2014-10-12T08:15:27Z</time>
      </trkpt>
      <trkpt lat="47.28355" lon="-1.69727">
        <ele>62</ele>
        <time>2014-10-12T08:15:28Z</time>
      </trkpt>
      <trkpt lat="47.28352" lon="-1.69731">
        <ele>62.2</ele>
        <time>2014-10-12T08:15:29Z</time>
      </trkpt>
      <trkpt lat="47.2835" lon="-1.69735">
        <ele>62.3</ele>
        <time>2014-10-12T08:15:30Z</time>
      </trkpt>
      <trkpt lat="47.2835" lon="-1.6974">
        <ele>62.5</ele>
        <time>2014-10-12T08:15:31Z</time>
      </trkpt>
      <trkpt lat="47.28354" lon="-1.69743">
        <ele>62.5</ele>
        <time>2014-10-12T08:15:33Z</time>
      </trkpt>
      <trkpt lat="47.28356" lon="-1.69746">
        <ele>62.4</ele>
        <time>2014-10-12T08:15:34Z</time>
      </trkpt>
      <trkpt lat="47.2836" lon="-1.6975">
        <ele>62.4</ele>
        <time>2014-10-12T08:15:36Z</time>
      </trkpt>
      <trkpt lat="47.28365" lon="-1.69753">
        <ele>62.4</ele>
        <time>2014-10-12T08:15:38Z</time>
      </trkpt>
      <trkpt lat="47.28367" lon="-1.69754">
        <ele>62.3</ele>
        <time>2014-10-12T08:15:39Z</time>
      </trkpt>
      <trkpt lat="47.28372" lon="-1.69758">
        <ele>62.3</ele>
        <time>2014-10-12T08:15:41Z</time>
      </trkpt>
      <trkpt lat="47.28375" lon="-1.69761">
        <ele>62.3</ele>
        <time>2014-10-12T08:15:42Z</time>
      </trkpt>
      <trkpt lat="47.28377" lon="-1.69763">
        <ele>62.3</ele>
        <time>2014-10-12T08:15:43Z</time>
      </trkpt>
      <trkpt lat="47.28381" lon="-1.69766">
        <ele>62.5</ele>
        <time>2014-10-12T08:15:44Z</time>
      </trkpt>
      <trkpt lat="47.28384" lon="-1.69769">
        <ele>62.6</ele>
        <time>2014-10-12T08:15:45Z</time>
      </trkpt>
      <trkpt lat="47.28387" lon="-1.69772">
        <ele>62.7</ele>
        <time>2014-10-12T08:15:46Z</time>
      </trkpt>
      <trkpt lat="47.28389" lon="-1.69774">
        <ele>62.8</ele>
        <time>2014-10-12T08:15:47Z</time>
      </trkpt>
      <trkpt lat="47.28392" lon="-1.69776">
        <ele>63</ele>
        <time>2014-10-12T08:15:48Z</time>
      </trkpt>
      <trkpt lat="47.28394" lon="-1.69778">
        <ele>63.1</ele>
        <time>2014-10-12T08:15:49Z</time>
      </trkpt>
      <trkpt lat="47.28397" lon="-1.6978">
        <ele>63.2</ele>
        <time>2014-10-12T08:15:50Z</time>
      </trkpt>
      <trkpt lat="47.28402" lon="-1.69782">
        <ele>63.3</ele>
        <time>2014-10-12T08:15:52Z</time>
      </trkpt>
      <trkpt lat="47.28406" lon="-1.69784">
        <ele>63.5</ele>
        <time>2014-10-12T08:15:54Z</time>
      </trkpt>
      <trkpt lat="47.28409" lon="-1.69788">
        <ele>63.7</ele>
        <time>2014-10-12T08:15:55Z</time>
      </trkpt>
      <trkpt lat="47.28412" lon="-1.6979">
        <ele>63.8</ele>
        <time>2014-10-12T08:15:56Z</time>
      </trkpt>
      <trkpt lat="47.28415" lon="-1.69793">
        <ele>64</ele>
        <time>2014-10-12T08:15:57Z</time>
      </trkpt>
      <trkpt lat="47.28417" lon="-1.69796">
        <ele>64.1</ele>
        <time>2014-10-12T08:15:58Z</time>
      </trkpt>
      <trkpt lat="47.2842" lon="-1.69797">
        <ele>64.2</ele>
        <time>2014-10-12T08:15:59Z</time>
      </trkpt>
      <trkpt lat="47.28422" lon="-1.698">
        <ele>64.3</ele>
        <time>2014-10-12T08:16:00Z</time>
      </trkpt>
      <trkpt lat="47.28427" lon="-1.69804">
        <ele>64.6</ele>
        <time>2014-10-12T08:16:02Z</time>
      </trkpt>
      <trkpt lat="47.2843" lon="-1.69806">
        <ele>64.7</ele>
        <time>2014-10-12T08:16:03Z</time>
      </trkpt>
      <trkpt lat="47.28433" lon="-1.6981">
        <ele>64.9</ele>
        <time>2014-10-12T08:16:04Z</time>
      </trkpt>
      <trkpt lat="47.28436" lon="-1.69813">
        <ele>65.1</ele>
        <time>2014-10-12T08:16:05Z</time>
      </trkpt>
      <trkpt lat="47.28439" lon="-1.69816">
        <ele>65.3</ele>
        <time>2014-10-12T08:16:06Z</time>
      </trkpt>
      <trkpt lat="47.28442" lon="-1.69819">
        <ele>65.5</ele>
        <time>2014-10-12T08:16:07Z</time>
      </trkpt>
      <trkpt lat="47.28446" lon="-1.69822">
        <ele>65.7</ele>
        <time>2014-10-12T08:16:08Z</time>
      </trkpt>
      <trkpt lat="47.28448" lon="-1.69825">
        <ele>65.9</ele>
        <time>2014-10-12T08:16:09Z</time>
      </trkpt>
      <trkpt lat="47.28451" lon="-1.69827">
        <ele>66</ele>
        <time>2014-10-12T08:16:10Z</time>
      </trkpt>
      <trkpt lat="47.28454" lon="-1.6983">
        <ele>66.2</ele>
        <time>2014-10-12T08:16:11Z</time>
      </trkpt>
      <trkpt lat="47.28457" lon="-1.69832">
        <ele>66.4</ele>
        <time>2014-10-12T08:16:12Z</time>
      </trkpt>
      <trkpt lat="47.28459" lon="-1.69834">
        <ele>66.5</ele>
        <time>2014-10-12T08:16:13Z</time>
      </trkpt>
      <trkpt lat="47.28462" lon="-1.69836">
        <ele>66.6</ele>
        <time>2014-10-12T08:16:14Z</time>
      </trkpt>
      <trkpt lat="47.28465" lon="-1.69838">
        <ele>66.6</ele>
        <time>2014-10-12T08:16:15Z</time>
      </trkpt>
      <trkpt lat="47.28469" lon="-1.69843">
        <ele>66.7</ele>
        <time>2014-10-12T08:16:17Z</time>
      </trkpt>
      <trkpt lat="47.28471" lon="-1.69847">
        <ele>66.8</ele>
        <time>2014-10-12T08:16:18Z</time>
      </trkpt>
      <trkpt lat="47.28471" lon="-1.69854">
        <ele>67</ele>
        <time>2014-10-12T08:16:20Z</time>
      </trkpt>
      <trkpt lat="47.2847" lon="-1.69858">
        <ele>67.2</ele>
        <time>2014-10-12T08:16:21Z</time>
      </trkpt>
      <trkpt lat="47.2847" lon="-1.69866">
        <ele>67.4</ele>
        <time>2014-10-12T08:16:23Z</time>
      </trkpt>
      <trkpt lat="47.28469" lon="-1.69874">
        <ele>67.7</ele>
        <time>2014-10-12T08:16:25Z</time>
      </trkpt>
      <trkpt lat="47.28468" lon="-1.69878">
        <ele>67.8</ele>
        <time>2014-10-12T08:16:26Z</time>
      </trkpt>
      <trkpt lat="47.28466" lon="-1.69882">
        <ele>68</ele>
        <time>2014-10-12T08:16:27Z</time>
      </trkpt>
      <trkpt lat="47.28465" lon="-1.69886">
        <ele>68.1</ele>
        <time>2014-10-12T08:16:28Z</time>
      </trkpt>
      <trkpt lat="47.28465" lon="-1.69891">
        <ele>68.2</ele>
        <time>2014-10-12T08:16:29Z</time>
      </trkpt>
      <trkpt lat="47.28465" lon="-1.69899">
        <ele>68.4</ele>
        <time>2014-10-12T08:16:31Z</time>
      </trkpt>
      <trkpt lat="47.28464" lon="-1.69903">
        <ele>68.5</ele>
        <time>2014-10-12T08:16:32Z</time>
      </trkpt>
      <trkpt lat="47.28461" lon="-1.6991">
        <ele>68.7</ele>
        <time>2014-10-12T08:16:34Z</time>
      </trkpt>
      <trkpt lat="47.28459" lon="-1.69913">
        <ele>68.9</ele>
        <time>2014-10-12T08:16:35Z</time>
      </trkpt>
      <trkpt lat="47.28457" lon="-1.69915">
        <ele>68.9</ele>
        <time>2014-10-12T08:16:36Z</time>
      </trkpt>
      <trkpt lat="47.28454" lon="-1.69921">
        <ele>68.9</ele>
        <time>2014-10-12T08:16:38Z</time>
      </trkpt>
      <trkpt lat="47.28452" lon="-1.69924">
        <ele>68.9</ele>
        <time>2014-10-12T08:16:39Z</time>
      </trkpt>
      <trkpt lat="47.2845" lon="-1.69927">
        <ele>68.9</ele>
        <time>2014-10-12T08:16:40Z</time>
      </trkpt>
      <trkpt lat="47.28448" lon="-1.69934">
        <ele>69</ele>
        <time>2014-10-12T08:16:42Z</time>
      </trkpt>
      <trkpt lat="47.28446" lon="-1.69941">
        <ele>69.1</ele>
        <time>2014-10-12T08:16:44Z</time>
      </trkpt>
      <trkpt lat="47.28444" lon="-1.69946">
        <ele>69.2</ele>
        <time>2014-10-12T08:16:46Z</time>
      </trkpt>
      <trkpt lat="47.28442" lon="-1.69952">
        <ele>69.2</ele>
        <time>2014-10-12T08:16:48Z</time>
      </trkpt>
      <trkpt lat="47.28439" lon="-1.6996">
        <ele>69.3</ele>
        <time>2014-10-12T08:16:50Z</time>
      </trkpt>
      <trkpt lat="47.28437" lon="-1.69964">
        <ele>69.3</ele>
        <time>2014-10-12T08:16:51Z</time>
      </trkpt>
      <trkpt lat="47.28436" lon="-1.69967">
        <ele>69.4</ele>
        <time>2014-10-12T08:16:52Z</time>
      </trkpt>
      <trkpt lat="47.28435" lon="-1.69971">
        <ele>69.4</ele>
        <time>2014-10-12T08:16:53Z</time>
      </trkpt>
      <trkpt lat="47.28432" lon="-1.69978">
        <ele>69.4</ele>
        <time>2014-10-12T08:16:55Z</time>
      </trkpt>
      <trkpt lat="47.2843" lon="-1.69982">
        <ele>69.5</ele>
        <time>2014-10-12T08:16:56Z</time>
      </trkpt>
      <trkpt lat="47.28429" lon="-1.69985">
        <ele>69.5</ele>
        <time>2014-10-12T08:16:57Z</time>
      </trkpt>
      <trkpt lat="47.28427" lon="-1.69989">
        <ele>69.5</ele>
        <time>2014-10-12T08:16:58Z</time>
      </trkpt>
      <trkpt lat="47.28426" lon="-1.69993">
        <ele>69.6</ele>
        <time>2014-10-12T08:16:59Z</time>
      </trkpt>
      <trkpt lat="47.28423" lon="-1.69998">
        <ele>69.6</ele>
        <time>2014-10-12T08:17:00Z</time>
      </trkpt>
      <trkpt lat="47.28421" lon="-1.70002">
        <ele>69.7</ele>
        <time>2014-10-12T08:17:01Z</time>
      </trkpt>
      <trkpt lat="47.2842" lon="-1.70006">
        <ele>69.7</ele>
        <time>2014-10-12T08:17:02Z</time>
      </trkpt>
      <trkpt lat="47.28418" lon="-1.7001">
        <ele>69.8</ele>
        <time>2014-10-12T08:17:03Z</time>
      </trkpt>
      <trkpt lat="47.28416" lon="-1.70014">
        <ele>69.8</ele>
        <time>2014-10-12T08:17:04Z</time>
      </trkpt>
      <trkpt lat="47.28415" lon="-1.70017">
        <ele>69.9</ele>
        <time>2014-10-12T08:17:05Z</time>
      </trkpt>
      <trkpt lat="47.28414" lon="-1.70022">
        <ele>70</ele>
        <time>2014-10-12T08:17:06Z</time>
      </trkpt>
      <trkpt lat="47.28413" lon="-1.70026">
        <ele>70</ele>
        <time>2014-10-12T08:17:07Z</time>
      </trkpt>
      <trkpt lat="47.28411" lon="-1.7003">
        <ele>70.1</ele>
        <time>2014-10-12T08:17:08Z</time>
      </trkpt>
      <trkpt lat="47.2841" lon="-1.70034">
        <ele>70.2</ele>
        <time>2014-10-12T08:17:09Z</time>
      </trkpt>
      <trkpt lat="47.28408" lon="-1.70041">
        <ele>70.4</ele>
        <time>2014-10-12T08:17:11Z</time>
      </trkpt>
      <trkpt lat="47.28406" lon="-1.70048">
        <ele>70.5</ele>
        <time>2014-10-12T08:17:13Z</time>
      </trkpt>
      <trkpt lat="47.28404" lon="-1.70052">
        <ele>70.5</ele>
        <time>2014-10-12T08:17:14Z</time>
      </trkpt>
      <trkpt lat="47.28403" lon="-1.70055">
        <ele>70.6</ele>
        <time>2014-10-12T08:17:15Z</time>
      </trkpt>
      <trkpt lat="47.28401" lon="-1.70063">
        <ele>70.6</ele>
        <time>2014-10-12T08:17:17Z</time>
      </trkpt>
      <trkpt lat="47.28398" lon="-1.70069">
        <ele>70.7</ele>
        <time>2014-10-12T08:17:19Z</time>
      </trkpt>
      <trkpt lat="47.28397" lon="-1.70073">
        <ele>70.7</ele>
        <time>2014-10-12T08:17:20Z</time>
      </trkpt>
      <trkpt lat="47.28395" lon="-1.70077">
        <ele>70.8</ele>
        <time>2014-10-12T08:17:21Z</time>
      </trkpt>
      <trkpt lat="47.28394" lon="-1.7008">
        <ele>70.8</ele>
        <time>2014-10-12T08:17:22Z</time>
      </trkpt>
      <trkpt lat="47.28391" lon="-1.70086">
        <ele>70.8</ele>
        <time>2014-10-12T08:17:24Z</time>
      </trkpt>
      <trkpt lat="47.2839" lon="-1.7009">
        <ele>70.9</ele>
        <time>2014-10-12T08:17:25Z</time>
      </trkpt>
      <trkpt lat="47.28388" lon="-1.70094">
        <ele>70.9</ele>
        <time>2014-10-12T08:17:26Z</time>
      </trkpt>
      <trkpt lat="47.28386" lon="-1.70098">
        <ele>70.9</ele>
        <time>2014-10-12T08:17:27Z</time>
      </trkpt>
      <trkpt lat="47.28385" lon="-1.70101">
        <ele>70.9</ele>
        <time>2014-10-12T08:17:28Z</time>
      </trkpt>
      <trkpt lat="47.28383" lon="-1.70105">
        <ele>70.9</ele>
        <time>2014-10-12T08:17:29Z</time>
      </trkpt>
      <trkpt lat="47.28382" lon="-1.70108">
        <ele>70.9</ele>
        <time>2014-10-12T08:17:30Z</time>
      </trkpt>
      <trkpt lat="47.2838" lon="-1.70113">
        <ele>71</ele>
        <time>2014-10-12T08:17:31Z</time>
      </trkpt>
      <trkpt lat="47.28378" lon="-1.70118">
        <ele>71</ele>
        <time>2014-10-12T08:17:32Z</time>
      </trkpt>
      <trkpt lat="47.28376" lon="-1.70122">
        <ele>71</ele>
        <time>2014-10-12T08:17:33Z</time>
      </trkpt>
      <trkpt lat="47.28375" lon="-1.70126">
        <ele>71</ele>
        <time>2014-10-12T08:17:34Z</time>
      </trkpt>
      <trkpt lat="47.28372" lon="-1.70133">
        <ele>70.9</ele>
        <time>2014-10-12T08:17:36Z</time>
      </trkpt>
      <trkpt lat="47.2837" lon="-1.70136">
        <ele>70.8</ele>
        <time>2014-10-12T08:17:37Z</time>
      </trkpt>
      <trkpt lat="47.28369" lon="-1.7014">
        <ele>70.7</ele>
        <time>2014-10-12T08:17:38Z</time>
      </trkpt>
      <trkpt lat="47.28368" lon="-1.70144">
        <ele>70.7</ele>
        <time>2014-10-12T08:17:39Z</time>
      </trkpt>
      <trkpt lat="47.28367" lon="-1.70148">
        <ele>70.6</ele>
        <time>2014-10-12T08:17:40Z</time>
      </trkpt>
      <trkpt lat="47.28365" lon="-1.70151">
        <ele>70.5</ele>
        <time>2014-10-12T08:17:41Z</time>
      </trkpt>
      <trkpt lat="47.28364" lon="-1.70155">
        <ele>70.5</ele>
        <time>2014-10-12T08:17:42Z</time>
      </trkpt>
      <trkpt lat="47.28363" lon="-1.70159">
        <ele>70.4</ele>
        <time>2014-10-12T08:17:43Z</time>
      </trkpt>
      <trkpt lat="47.28361" lon="-1.70163">
        <ele>70.3</ele>
        <time>2014-10-12T08:17:44Z</time>
      </trkpt>
      <trkpt lat="47.28359" lon="-1.70167">
        <ele>70.2</ele>
        <time>2014-10-12T08:17:45Z</time>
      </trkpt>
      <trkpt lat="47.28358" lon="-1.70172">
        <ele>70.2</ele>
        <time>2014-10-12T08:17:46Z</time>
      </trkpt>
      <trkpt lat="47.28356" lon="-1.70176">
        <ele>70.1</ele>
        <time>2014-10-12T08:17:47Z</time>
      </trkpt>
      <trkpt lat="47.28355" lon="-1.7018">
        <ele>70</ele>
        <time>2014-10-12T08:17:48Z</time>
      </trkpt>
      <trkpt lat="47.28354" lon="-1.70185">
        <ele>70</ele>
        <time>2014-10-12T08:17:49Z</time>
      </trkpt>
      <trkpt lat="47.28353" lon="-1.70189">
        <ele>69.9</ele>
        <time>2014-10-12T08:17:50Z</time>
      </trkpt>
      <trkpt lat="47.28351" lon="-1.70193">
        <ele>69.9</ele>
        <time>2014-10-12T08:17:51Z</time>
      </trkpt>
      <trkpt lat="47.2835" lon="-1.70197">
        <ele>69.8</ele>
        <time>2014-10-12T08:17:52Z</time>
      </trkpt>
      <trkpt lat="47.28349" lon="-1.70201">
        <ele>69.7</ele>
        <time>2014-10-12T08:17:53Z</time>
      </trkpt>
      <trkpt lat="47.28347" lon="-1.70206">
        <ele>69.7</ele>
        <time>2014-10-12T08:17:54Z</time>
      </trkpt>
      <trkpt lat="47.28345" lon="-1.70211">
        <ele>69.6</ele>
        <time>2014-10-12T08:17:55Z</time>
      </trkpt>
      <trkpt lat="47.28343" lon="-1.70215">
        <ele>69.5</ele>
        <time>2014-10-12T08:17:56Z</time>
      </trkpt>
      <trkpt lat="47.28342" lon="-1.70221">
        <ele>69.5</ele>
        <time>2014-10-12T08:17:57Z</time>
      </trkpt>
      <trkpt lat="47.2834" lon="-1.70226">
        <ele>69.4</ele>
        <time>2014-10-12T08:17:58Z</time>
      </trkpt>
      <trkpt lat="47.28337" lon="-1.70231">
        <ele>69.3</ele>
        <time>2014-10-12T08:17:59Z</time>
      </trkpt>
      <trkpt lat="47.28335" lon="-1.70236">
        <ele>69.3</ele>
        <time>2014-10-12T08:18:00Z</time>
      </trkpt>
      <trkpt lat="47.28333" lon="-1.70241">
        <ele>69.2</ele>
        <time>2014-10-12T08:18:01Z</time>
      </trkpt>
      <trkpt lat="47.28331" lon="-1.70246">
        <ele>69.1</ele>
        <time>2014-10-12T08:18:02Z</time>
      </trkpt>
      <trkpt lat="47.28328" lon="-1.70251">
        <ele>69</ele>
        <time>2014-10-12T08:18:03Z</time>
      </trkpt>
      <trkpt lat="47.28325" lon="-1.70255">
        <ele>68.9</ele>
        <time>2014-10-12T08:18:04Z</time>
      </trkpt>
      <trkpt lat="47.28322" lon="-1.70257">
        <ele>68.8</ele>
        <time>2014-10-12T08:18:05Z</time>
      </trkpt>
      <trkpt lat="47.28319" lon="-1.70258">
        <ele>68.7</ele>
        <time>2014-10-12T08:18:06Z</time>
      </trkpt>
      <trkpt lat="47.28316" lon="-1.70256">
        <ele>68.6</ele>
        <time>2014-10-12T08:18:07Z</time>
      </trkpt>
      <trkpt lat="47.28313" lon="-1.70251">
        <ele>68.4</ele>
        <time>2014-10-12T08:18:08Z</time>
      </trkpt>
      <trkpt lat="47.28311" lon="-1.70248">
        <ele>68.3</ele>
        <time>2014-10-12T08:18:09Z</time>
      </trkpt>
      <trkpt lat="47.28309" lon="-1.70244">
        <ele>68.1</ele>
        <time>2014-10-12T08:18:10Z</time>
      </trkpt>
      <trkpt lat="47.28306" lon="-1.70239">
        <ele>68</ele>
        <time>2014-10-12T08:18:11Z</time>
      </trkpt>
      <trkpt lat="47.28304" lon="-1.70235">
        <ele>67.8</ele>
        <time>2014-10-12T08:18:12Z</time>
      </trkpt>
      <trkpt lat="47.28301" lon="-1.70232">
        <ele>67.7</ele>
        <time>2014-10-12T08:18:13Z</time>
      </trkpt>
      <trkpt lat="47.28298" lon="-1.70229">
        <ele>67.5</ele>
        <time>2014-10-12T08:18:14Z</time>
      </trkpt>
      <trkpt lat="47.28295" lon="-1.70224">
        <ele>67.4</ele>
        <time>2014-10-12T08:18:15Z</time>
      </trkpt>
      <trkpt lat="47.28292" lon="-1.70218">
        <ele>67.1</ele>
        <time>2014-10-12T08:18:16Z</time>
      </trkpt>
      <trkpt lat="47.28289" lon="-1.70213">
        <ele>67.1</ele>
        <time>2014-10-12T08:18:17Z</time>
      </trkpt>
      <trkpt lat="47.28286" lon="-1.70209">
        <ele>67</ele>
        <time>2014-10-12T08:18:18Z</time>
      </trkpt>
      <trkpt lat="47.28283" lon="-1.70204">
        <ele>67</ele>
        <time>2014-10-12T08:18:19Z</time>
      </trkpt>
      <trkpt lat="47.28279" lon="-1.70199">
        <ele>67</ele>
        <time>2014-10-12T08:18:20Z</time>
      </trkpt>
      <trkpt lat="47.28275" lon="-1.70193">
        <ele>67</ele>
        <time>2014-10-12T08:18:21Z</time>
      </trkpt>
      <trkpt lat="47.28271" lon="-1.70187">
        <ele>66.9</ele>
        <time>2014-10-12T08:18:22Z</time>
      </trkpt>
      <trkpt lat="47.28268" lon="-1.70181">
        <ele>66.9</ele>
        <time>2014-10-12T08:18:23Z</time>
      </trkpt>
      <trkpt lat="47.28264" lon="-1.70174">
        <ele>66.9</ele>
        <time>2014-10-12T08:18:24Z</time>
      </trkpt>
      <trkpt lat="47.28261" lon="-1.70168">
        <ele>66.8</ele>
        <time>2014-10-12T08:18:25Z</time>
      </trkpt>
      <trkpt lat="47.28257" lon="-1.70161">
        <ele>66.8</ele>
        <time>2014-10-12T08:18:26Z</time>
      </trkpt>
      <trkpt lat="47.28252" lon="-1.70155">
        <ele>66.7</ele>
        <time>2014-10-12T08:18:27Z</time>
      </trkpt>
      <trkpt lat="47.28248" lon="-1.70149">
        <ele>66.6</ele>
        <time>2014-10-12T08:18:28Z</time>
      </trkpt>
      <trkpt lat="47.28244" lon="-1.70143">
        <ele>66.6</ele>
        <time>2014-10-12T08:18:29Z</time>
      </trkpt>
      <trkpt lat="47.2824" lon="-1.70137">
        <ele>66.5</ele>
        <time>2014-10-12T08:18:30Z</time>
      </trkpt>
      <trkpt lat="47.28237" lon="-1.70131">
        <ele>66.4</ele>
        <time>2014-10-12T08:18:31Z</time>
      </trkpt>
      <trkpt lat="47.28233" lon="-1.70125">
        <ele>66.3</ele>
        <time>2014-10-12T08:18:32Z</time>
      </trkpt>
      <trkpt lat="47.28229" lon="-1.70119">
        <ele>66.2</ele>
        <time>2014-10-12T08:18:33Z</time>
      </trkpt>
      <trkpt lat="47.28224" lon="-1.70116">
        <ele>66.1</ele>
        <time>2014-10-12T08:18:34Z</time>
      </trkpt>
      <trkpt lat="47.28219" lon="-1.70114">
        <ele>66</ele>
        <time>2014-10-12T08:18:35Z</time>
      </trkpt>
      <trkpt lat="47.28214" lon="-1.70112">
        <ele>65.9</ele>
        <time>2014-10-12T08:18:36Z</time>
      </trkpt>
      <trkpt lat="47.28209" lon="-1.7011">
        <ele>65.8</ele>
        <time>2014-10-12T08:18:37Z</time>
      </trkpt>
      <trkpt lat="47.28204" lon="-1.70108">
        <ele>65.9</ele>
        <time>2014-10-12T08:18:38Z</time>
      </trkpt>
      <trkpt lat="47.28199" lon="-1.70107">
        <ele>66</ele>
        <time>2014-10-12T08:18:39Z</time>
      </trkpt>
      <trkpt lat="47.28195" lon="-1.70105">
        <ele>66.1</ele>
        <time>2014-10-12T08:18:40Z</time>
      </trkpt>
      <trkpt lat="47.28191" lon="-1.70104">
        <ele>66.2</ele>
        <time>2014-10-12T08:18:41Z</time>
      </trkpt>
      <trkpt lat="47.28187" lon="-1.70104">
        <ele>66.3</ele>
        <time>2014-10-12T08:18:42Z</time>
      </trkpt>
      <trkpt lat="47.28183" lon="-1.70102">
        <ele>66.3</ele>
        <time>2014-10-12T08:18:43Z</time>
      </trkpt>
      <trkpt lat="47.28178" lon="-1.70101">
        <ele>66.4</ele>
        <time>2014-10-12T08:18:44Z</time>
      </trkpt>
      <trkpt lat="47.28174" lon="-1.701">
        <ele>66.5</ele>
        <time>2014-10-12T08:18:45Z</time>
      </trkpt>
      <trkpt lat="47.28171" lon="-1.70098">
        <ele>66.6</ele>
        <time>2014-10-12T08:18:46Z</time>
      </trkpt>
      <trkpt lat="47.28167" lon="-1.70097">
        <ele>66.6</ele>
        <time>2014-10-12T08:18:47Z</time>
      </trkpt>
      <trkpt lat="47.28164" lon="-1.70095">
        <ele>66.7</ele>
        <time>2014-10-12T08:18:48Z</time>
      </trkpt>
      <trkpt lat="47.28161" lon="-1.70094">
        <ele>66.8</ele>
        <time>2014-10-12T08:18:49Z</time>
      </trkpt>
      <trkpt lat="47.28158" lon="-1.70094">
        <ele>66.8</ele>
        <time>2014-10-12T08:18:50Z</time>
      </trkpt>
      <trkpt lat="47.28154" lon="-1.70093">
        <ele>66.9</ele>
        <time>2014-10-12T08:18:51Z</time>
      </trkpt>
      <trkpt lat="47.2815" lon="-1.70092">
        <ele>67</ele>
        <time>2014-10-12T08:18:52Z</time>
      </trkpt>
      <trkpt lat="47.28147" lon="-1.7009">
        <ele>67.1</ele>
        <time>2014-10-12T08:18:53Z</time>
      </trkpt>
      <trkpt lat="47.28143" lon="-1.70089">
        <ele>67.1</ele>
        <time>2014-10-12T08:18:54Z</time>
      </trkpt>
      <trkpt lat="47.2814" lon="-1.70087">
        <ele>67.2</ele>
        <time>2014-10-12T08:18:55Z</time>
      </trkpt>
      <trkpt lat="47.28136" lon="-1.70086">
        <ele>67.3</ele>
        <time>2014-10-12T08:18:56Z</time>
      </trkpt>
      <trkpt lat="47.28133" lon="-1.70085">
        <ele>67.3</ele>
        <time>2014-10-12T08:18:57Z</time>
      </trkpt>
      <trkpt lat="47.28129" lon="-1.70083">
        <ele>67.4</ele>
        <time>2014-10-12T08:18:58Z</time>
      </trkpt>
      <trkpt lat="47.28126" lon="-1.70082">
        <ele>67.5</ele>
        <time>2014-10-12T08:18:59Z</time>
      </trkpt>
      <trkpt lat="47.28122" lon="-1.70081">
        <ele>67.5</ele>
        <time>2014-10-12T08:19:00Z</time>
      </trkpt>
      <trkpt lat="47.28118" lon="-1.7008">
        <ele>67.5</ele>
        <time>2014-10-12T08:19:01Z</time>
      </trkpt>
      <trkpt lat="47.28115" lon="-1.70079">
        <ele>67.6</ele>
        <time>2014-10-12T08:19:02Z</time>
      </trkpt>
      <trkpt lat="47.28111" lon="-1.70077">
        <ele>67.6</ele>
        <time>2014-10-12T08:19:03Z</time>
      </trkpt>
      <trkpt lat="47.28106" lon="-1.70075">
        <ele>67.6</ele>
        <time>2014-10-12T08:19:04Z</time>
      </trkpt>
      <trkpt lat="47.28102" lon="-1.70073">
        <ele>67.6</ele>
        <time>2014-10-12T08:19:05Z</time>
      </trkpt>
      <trkpt lat="47.28099" lon="-1.70071">
        <ele>67.7</ele>
        <time>2014-10-12T08:19:06Z</time>
      </trkpt>
      <trkpt lat="47.28094" lon="-1.70071">
        <ele>67.7</ele>
        <time>2014-10-12T08:19:07Z</time>
      </trkpt>
      <trkpt lat="47.28091" lon="-1.70073">
        <ele>67.8</ele>
        <time>2014-10-12T08:19:08Z</time>
      </trkpt>
      <trkpt lat="47.28088" lon="-1.70077">
        <ele>67.9</ele>
        <time>2014-10-12T08:19:09Z</time>
      </trkpt>
      <trkpt lat="47.28085" lon="-1.70082">
        <ele>68</ele>
        <time>2014-10-12T08:19:10Z</time>
      </trkpt>
      <trkpt lat="47.28083" lon="-1.70087">
        <ele>68</ele>
        <time>2014-10-12T08:19:11Z</time>
      </trkpt>
      <trkpt lat="47.28081" lon="-1.70091">
        <ele>68.1</ele>
        <time>2014-10-12T08:19:12Z</time>
      </trkpt>
      <trkpt lat="47.28079" lon="-1.70095">
        <ele>68.2</ele>
        <time>2014-10-12T08:19:13Z</time>
      </trkpt>
      <trkpt lat="47.28076" lon="-1.701">
        <ele>68.3</ele>
        <time>2014-10-12T08:19:14Z</time>
      </trkpt>
      <trkpt lat="47.28074" lon="-1.70104">
        <ele>68.4</ele>
        <time>2014-10-12T08:19:15Z</time>
      </trkpt>
      <trkpt lat="47.28072" lon="-1.70109">
        <ele>68.4</ele>
        <time>2014-10-12T08:19:16Z</time>
      </trkpt>
      <trkpt lat="47.2807" lon="-1.70113">
        <ele>68.5</ele>
        <time>2014-10-12T08:19:17Z</time>
      </trkpt>
      <trkpt lat="47.28068" lon="-1.70117">
        <ele>68.6</ele>
        <time>2014-10-12T08:19:18Z</time>
      </trkpt>
      <trkpt lat="47.28066" lon="-1.70121">
        <ele>68.7</ele>
        <time>2014-10-12T08:19:19Z</time>
      </trkpt>
      <trkpt lat="47.28064" lon="-1.70125">
        <ele>68.7</ele>
        <time>2014-10-12T08:19:20Z</time>
      </trkpt>
      <trkpt lat="47.28062" lon="-1.70129">
        <ele>68.7</ele>
        <time>2014-10-12T08:19:21Z</time>
      </trkpt>
      <trkpt lat="47.28061" lon="-1.70137">
        <ele>68.7</ele>
        <time>2014-10-12T08:19:23Z</time>
      </trkpt>
      <trkpt lat="47.28063" lon="-1.70144">
        <ele>68.7</ele>
        <time>2014-10-12T08:19:25Z</time>
      </trkpt>
      <trkpt lat="47.28065" lon="-1.70147">
        <ele>68.7</ele>
        <time>2014-10-12T08:19:26Z</time>
      </trkpt>
      <trkpt lat="47.28067" lon="-1.7015">
        <ele>68.7</ele>
        <time>2014-10-12T08:19:27Z</time>
      </trkpt>
      <trkpt lat="47.28071" lon="-1.70155">
        <ele>68.7</ele>
        <time>2014-10-12T08:19:29Z</time>
      </trkpt>
      <trkpt lat="47.28073" lon="-1.70158">
        <ele>68.7</ele>
        <time>2014-10-12T08:19:30Z</time>
      </trkpt>
      <trkpt lat="47.28075" lon="-1.70161">
        <ele>68.7</ele>
        <time>2014-10-12T08:19:31Z</time>
      </trkpt>
      <trkpt lat="47.28077" lon="-1.70165">
        <ele>68.7</ele>
        <time>2014-10-12T08:19:32Z</time>
      </trkpt>
      <trkpt lat="47.2808" lon="-1.70168">
        <ele>68.7</ele>
        <time>2014-10-12T08:19:33Z</time>
      </trkpt>
      <trkpt lat="47.28082" lon="-1.70172">
        <ele>68.8</ele>
        <time>2014-10-12T08:19:34Z</time>
      </trkpt>
      <trkpt lat="47.28084" lon="-1.70176">
        <ele>68.8</ele>
        <time>2014-10-12T08:19:35Z</time>
      </trkpt>
      <trkpt lat="47.28087" lon="-1.7018">
        <ele>68.9</ele>
        <time>2014-10-12T08:19:36Z</time>
      </trkpt>
      <trkpt lat="47.28089" lon="-1.70184">
        <ele>68.9</ele>
        <time>2014-10-12T08:19:37Z</time>
      </trkpt>
      <trkpt lat="47.28092" lon="-1.70188">
        <ele>69</ele>
        <time>2014-10-12T08:19:38Z</time>
      </trkpt>
      <trkpt lat="47.28095" lon="-1.70192">
        <ele>69.1</ele>
        <time>2014-10-12T08:19:39Z</time>
      </trkpt>
      <trkpt lat="47.28098" lon="-1.70197">
        <ele>69.2</ele>
        <time>2014-10-12T08:19:40Z</time>
      </trkpt>
      <trkpt lat="47.28102" lon="-1.70202">
        <ele>69.4</ele>
        <time>2014-10-12T08:19:41Z</time>
      </trkpt>
      <trkpt lat="47.28105" lon="-1.70207">
        <ele>69.5</ele>
        <time>2014-10-12T08:19:42Z</time>
      </trkpt>
      <trkpt lat="47.28108" lon="-1.70211">
        <ele>69.6</ele>
        <time>2014-10-12T08:19:43Z</time>
      </trkpt>
      <trkpt lat="47.2811" lon="-1.70215">
        <ele>69.6</ele>
        <time>2014-10-12T08:19:44Z</time>
      </trkpt>
      <trkpt lat="47.28113" lon="-1.70219">
        <ele>69.7</ele>
        <time>2014-10-12T08:19:45Z</time>
      </trkpt>
      <trkpt lat="47.28116" lon="-1.70223">
        <ele>69.8</ele>
        <time>2014-10-12T08:19:46Z</time>
      </trkpt>
      <trkpt lat="47.28119" lon="-1.70226">
        <ele>69.9</ele>
        <time>2014-10-12T08:19:47Z</time>
      </trkpt>
      <trkpt lat="47.28121" lon="-1.7023">
        <ele>69.9</ele>
        <time>2014-10-12T08:19:48Z</time>
      </trkpt>
      <trkpt lat="47.28124" lon="-1.70233">
        <ele>70</ele>
        <time>2014-10-12T08:19:49Z</time>
      </trkpt>
      <trkpt lat="47.28126" lon="-1.70237">
        <ele>70</ele>
        <time>2014-10-12T08:19:50Z</time>
      </trkpt>
      <trkpt lat="47.28129" lon="-1.70241">
        <ele>69.9</ele>
        <time>2014-10-12T08:19:51Z</time>
      </trkpt>
      <trkpt lat="47.28132" lon="-1.70245">
        <ele>69.9</ele>
        <time>2014-10-12T08:19:52Z</time>
      </trkpt>
      <trkpt lat="47.28134" lon="-1.70249">
        <ele>69.8</ele>
        <time>2014-10-12T08:19:53Z</time>
      </trkpt>
      <trkpt lat="47.28136" lon="-1.70253">
        <ele>69.8</ele>
        <time>2014-10-12T08:19:54Z</time>
      </trkpt>
      <trkpt lat="47.28139" lon="-1.70257">
        <ele>69.8</ele>
        <time>2014-10-12T08:19:55Z</time>
      </trkpt>
      <trkpt lat="47.28141" lon="-1.70261">
        <ele>69.8</ele>
        <time>2014-10-12T08:19:56Z</time>
      </trkpt>
      <trkpt lat="47.28144" lon="-1.70265">
        <ele>69.8</ele>
        <time>2014-10-12T08:19:57Z</time>
      </trkpt>
      <trkpt lat="47.28146" lon="-1.70268">
        <ele>69.8</ele>
        <time>2014-10-12T08:19:58Z</time>
      </trkpt>
      <trkpt lat="47.28148" lon="-1.70271">
        <ele>69.8</ele>
        <time>2014-10-12T08:19:59Z</time>
      </trkpt>
      <trkpt lat="47.2815" lon="-1.70275">
        <ele>69.8</ele>
        <time>2014-10-12T08:20:00Z</time>
      </trkpt>
      <trkpt lat="47.28153" lon="-1.70278">
        <ele>69.8</ele>
        <time>2014-10-12T08:20:01Z</time>
      </trkpt>
      <trkpt lat="47.28155" lon="-1.70282">
        <ele>69.9</ele>
        <time>2014-10-12T08:20:02Z</time>
      </trkpt>
      <trkpt lat="47.28158" lon="-1.70286">
        <ele>69.9</ele>
        <time>2014-10-12T08:20:03Z</time>
      </trkpt>
      <trkpt lat="47.28161" lon="-1.7029">
        <ele>70</ele>
        <time>2014-10-12T08:20:04Z</time>
      </trkpt>
      <trkpt lat="47.28163" lon="-1.70294">
        <ele>70</ele>
        <time>2014-10-12T08:20:05Z</time>
      </trkpt>
      <trkpt lat="47.28166" lon="-1.70299">
        <ele>70.1</ele>
        <time>2014-10-12T08:20:06Z</time>
      </trkpt>
      <trkpt lat="47.28169" lon="-1.70304">
        <ele>70.2</ele>
        <time>2014-10-12T08:20:07Z</time>
      </trkpt>
      <trkpt lat="47.28172" lon="-1.70309">
        <ele>70.3</ele>
        <time>2014-10-12T08:20:08Z</time>
      </trkpt>
      <trkpt lat="47.28176" lon="-1.70315">
        <ele>70.4</ele>
        <time>2014-10-12T08:20:09Z</time>
      </trkpt>
      <trkpt lat="47.2818" lon="-1.7032">
        <ele>70.6</ele>
        <time>2014-10-12T08:20:10Z</time>
      </trkpt>
      <trkpt lat="47.28184" lon="-1.70324">
        <ele>70.7</ele>
        <time>2014-10-12T08:20:11Z</time>
      </trkpt>
      <trkpt lat="47.28187" lon="-1.70328">
        <ele>70.8</ele>
        <time>2014-10-12T08:20:12Z</time>
      </trkpt>
      <trkpt lat="47.2819" lon="-1.70333">
        <ele>70.9</ele>
        <time>2014-10-12T08:20:13Z</time>
      </trkpt>
      <trkpt lat="47.28192" lon="-1.70337">
        <ele>71</ele>
        <time>2014-10-12T08:20:14Z</time>
      </trkpt>
      <trkpt lat="47.28195" lon="-1.70341">
        <ele>71.1</ele>
        <time>2014-10-12T08:20:15Z</time>
      </trkpt>
      <trkpt lat="47.28198" lon="-1.70346">
        <ele>71.2</ele>
        <time>2014-10-12T08:20:16Z</time>
      </trkpt>
      <trkpt lat="47.28201" lon="-1.7035">
        <ele>71.3</ele>
        <time>2014-10-12T08:20:17Z</time>
      </trkpt>
      <trkpt lat="47.28203" lon="-1.70355">
        <ele>71.5</ele>
        <time>2014-10-12T08:20:18Z</time>
      </trkpt>
      <trkpt lat="47.28206" lon="-1.70359">
        <ele>71.6</ele>
        <time>2014-10-12T08:20:19Z</time>
      </trkpt>
      <trkpt lat="47.28208" lon="-1.70362">
        <ele>71.7</ele>
        <time>2014-10-12T08:20:20Z</time>
      </trkpt>
      <trkpt lat="47.2821" lon="-1.70365">
        <ele>71.7</ele>
        <time>2014-10-12T08:20:21Z</time>
      </trkpt>
      <trkpt lat="47.28212" lon="-1.70369">
        <ele>71.8</ele>
        <time>2014-10-12T08:20:22Z</time>
      </trkpt>
      <trkpt lat="47.28215" lon="-1.70373">
        <ele>71.9</ele>
        <time>2014-10-12T08:20:23Z</time>
      </trkpt>
      <trkpt lat="47.28217" lon="-1.70377">
        <ele>71.9</ele>
        <time>2014-10-12T08:20:24Z</time>
      </trkpt>
      <trkpt lat="47.28219" lon="-1.70381">
        <ele>71.9</ele>
        <time>2014-10-12T08:20:25Z</time>
      </trkpt>
      <trkpt lat="47.28222" lon="-1.70385">
        <ele>71.9</ele>
        <time>2014-10-12T08:20:26Z</time>
      </trkpt>
      <trkpt lat="47.28225" lon="-1.70389">
        <ele>71.9</ele>
        <time>2014-10-12T08:20:27Z</time>
      </trkpt>
      <trkpt lat="47.28227" lon="-1.70392">
        <ele>71.9</ele>
        <time>2014-10-12T08:20:28Z</time>
      </trkpt>
      <trkpt lat="47.2823" lon="-1.70396">
        <ele>71.9</ele>
        <time>2014-10-12T08:20:29Z</time>
      </trkpt>
      <trkpt lat="47.28232" lon="-1.704">
        <ele>71.9</ele>
        <time>2014-10-12T08:20:30Z</time>
      </trkpt>
      <trkpt lat="47.28234" lon="-1.70404">
        <ele>71.9</ele>
        <time>2014-10-12T08:20:31Z</time>
      </trkpt>
      <trkpt lat="47.28237" lon="-1.70408">
        <ele>71.9</ele>
        <time>2014-10-12T08:20:32Z</time>
      </trkpt>
      <trkpt lat="47.2824" lon="-1.70413">
        <ele>72</ele>
        <time>2014-10-12T08:20:33Z</time>
      </trkpt>
      <trkpt lat="47.28242" lon="-1.70417">
        <ele>72</ele>
        <time>2014-10-12T08:20:34Z</time>
      </trkpt>
      <trkpt lat="47.28245" lon="-1.7042">
        <ele>72</ele>
        <time>2014-10-12T08:20:35Z</time>
      </trkpt>
      <trkpt lat="47.28248" lon="-1.70424">
        <ele>72.1</ele>
        <time>2014-10-12T08:20:36Z</time>
      </trkpt>
      <trkpt lat="47.2825" lon="-1.70428">
        <ele>72.1</ele>
        <time>2014-10-12T08:20:37Z</time>
      </trkpt>
      <trkpt lat="47.28253" lon="-1.70434">
        <ele>72.2</ele>
        <time>2014-10-12T08:20:38Z</time>
      </trkpt>
      <trkpt lat="47.28256" lon="-1.70438">
        <ele>72.3</ele>
        <time>2014-10-12T08:20:39Z</time>
      </trkpt>
      <trkpt lat="47.28258" lon="-1.70441">
        <ele>72.4</ele>
        <time>2014-10-12T08:20:40Z</time>
      </trkpt>
      <trkpt lat="47.28261" lon="-1.70445">
        <ele>72.4</ele>
        <time>2014-10-12T08:20:41Z</time>
      </trkpt>
      <trkpt lat="47.28263" lon="-1.70449">
        <ele>72.5</ele>
        <time>2014-10-12T08:20:42Z</time>
      </trkpt>
      <trkpt lat="47.28265" lon="-1.70452">
        <ele>72.6</ele>
        <time>2014-10-12T08:20:43Z</time>
      </trkpt>
      <trkpt lat="47.28267" lon="-1.70455">
        <ele>72.7</ele>
        <time>2014-10-12T08:20:44Z</time>
      </trkpt>
      <trkpt lat="47.2827" lon="-1.70459">
        <ele>72.7</ele>
        <time>2014-10-12T08:20:45Z</time>
      </trkpt>
      <trkpt lat="47.28273" lon="-1.70463">
        <ele>72.8</ele>
        <time>2014-10-12T08:20:46Z</time>
      </trkpt>
      <trkpt lat="47.28275" lon="-1.70467">
        <ele>72.9</ele>
        <time>2014-10-12T08:20:47Z</time>
      </trkpt>
      <trkpt lat="47.28277" lon="-1.7047">
        <ele>73</ele>
        <time>2014-10-12T08:20:48Z</time>
      </trkpt>
      <trkpt lat="47.28279" lon="-1.70474">
        <ele>73</ele>
        <time>2014-10-12T08:20:49Z</time>
      </trkpt>
      <trkpt lat="47.28282" lon="-1.70478">
        <ele>73.1</ele>
        <time>2014-10-12T08:20:50Z</time>
      </trkpt>
      <trkpt lat="47.28285" lon="-1.70482">
        <ele>73.2</ele>
        <time>2014-10-12T08:20:51Z</time>
      </trkpt>
      <trkpt lat="47.28288" lon="-1.70486">
        <ele>73.3</ele>
        <time>2014-10-12T08:20:52Z</time>
      </trkpt>
      <trkpt lat="47.28291" lon="-1.7049">
        <ele>73.4</ele>
        <time>2014-10-12T08:20:53Z</time>
      </trkpt>
      <trkpt lat="47.28294" lon="-1.70495">
        <ele>73.4</ele>
        <time>2014-10-12T08:20:54Z</time>
      </trkpt>
      <trkpt lat="47.28297" lon="-1.70499">
        <ele>73.5</ele>
        <time>2014-10-12T08:20:55Z</time>
      </trkpt>
      <trkpt lat="47.283" lon="-1.70503">
        <ele>73.5</ele>
        <time>2014-10-12T08:20:56Z</time>
      </trkpt>
      <trkpt lat="47.28302" lon="-1.70506">
        <ele>73.5</ele>
        <time>2014-10-12T08:20:57Z</time>
      </trkpt>
      <trkpt lat="47.28304" lon="-1.7051">
        <ele>73.5</ele>
        <time>2014-10-12T08:20:58Z</time>
      </trkpt>
      <trkpt lat="47.28307" lon="-1.70514">
        <ele>73.5</ele>
        <time>2014-10-12T08:20:59Z</time>
      </trkpt>
      <trkpt lat="47.2831" lon="-1.70517">
        <ele>73.6</ele>
        <time>2014-10-12T08:21:00Z</time>
      </trkpt>
      <trkpt lat="47.28312" lon="-1.7052">
        <ele>73.6</ele>
        <time>2014-10-12T08:21:01Z</time>
      </trkpt>
      <trkpt lat="47.28314" lon="-1.70525">
        <ele>73.6</ele>
        <time>2014-10-12T08:21:02Z</time>
      </trkpt>
      <trkpt lat="47.28316" lon="-1.70528">
        <ele>73.6</ele>
        <time>2014-10-12T08:21:03Z</time>
      </trkpt>
      <trkpt lat="47.2832" lon="-1.70533">
        <ele>73.6</ele>
        <time>2014-10-12T08:21:05Z</time>
      </trkpt>
      <trkpt lat="47.28322" lon="-1.70535">
        <ele>73.6</ele>
        <time>2014-10-12T08:21:06Z</time>
      </trkpt>
      <trkpt lat="47.28326" lon="-1.70535">
        <ele>73.5</ele>
        <time>2014-10-12T08:21:07Z</time>
      </trkpt>
      <trkpt lat="47.28329" lon="-1.70535">
        <ele>73.5</ele>
        <time>2014-10-12T08:21:08Z</time>
      </trkpt>
      <trkpt lat="47.28333" lon="-1.70535">
        <ele>73.5</ele>
        <time>2014-10-12T08:21:09Z</time>
      </trkpt>
      <trkpt lat="47.28337" lon="-1.70535">
        <ele>73.4</ele>
        <time>2014-10-12T08:21:10Z</time>
      </trkpt>
      <trkpt lat="47.2834" lon="-1.70534">
        <ele>73.4</ele>
        <time>2014-10-12T08:21:11Z</time>
      </trkpt>
      <trkpt lat="47.28344" lon="-1.70533">
        <ele>73.3</ele>
        <time>2014-10-12T08:21:12Z</time>
      </trkpt>
      <trkpt lat="47.28347" lon="-1.70532">
        <ele>73.3</ele>
        <time>2014-10-12T08:21:13Z</time>
      </trkpt>
      <trkpt lat="47.28351" lon="-1.70531">
        <ele>73.3</ele>
        <time>2014-10-12T08:21:14Z</time>
      </trkpt>
      <trkpt lat="47.28354" lon="-1.7053">
        <ele>73.2</ele>
        <time>2014-10-12T08:21:15Z</time>
      </trkpt>
      <trkpt lat="47.28358" lon="-1.70529">
        <ele>73.2</ele>
        <time>2014-10-12T08:21:16Z</time>
      </trkpt>
      <trkpt lat="47.28361" lon="-1.70528">
        <ele>73.1</ele>
        <time>2014-10-12T08:21:17Z</time>
      </trkpt>
      <trkpt lat="47.28365" lon="-1.70527">
        <ele>73.1</ele>
        <time>2014-10-12T08:21:18Z</time>
      </trkpt>
      <trkpt lat="47.28369" lon="-1.70527">
        <ele>73.1</ele>
        <time>2014-10-12T08:21:19Z</time>
      </trkpt>
      <trkpt lat="47.28372" lon="-1.70526">
        <ele>73</ele>
        <time>2014-10-12T08:21:20Z</time>
      </trkpt>
      <trkpt lat="47.28376" lon="-1.70526">
        <ele>73</ele>
        <time>2014-10-12T08:21:21Z</time>
      </trkpt>
      <trkpt lat="47.2838" lon="-1.70525">
        <ele>73</ele>
        <time>2014-10-12T08:21:22Z</time>
      </trkpt>
      <trkpt lat="47.28384" lon="-1.70524">
        <ele>73</ele>
        <time>2014-10-12T08:21:23Z</time>
      </trkpt>
      <trkpt lat="47.28387" lon="-1.70524">
        <ele>73</ele>
        <time>2014-10-12T08:21:24Z</time>
      </trkpt>
      <trkpt lat="47.28391" lon="-1.70523">
        <ele>73</ele>
        <time>2014-10-12T08:21:25Z</time>
      </trkpt>
      <trkpt lat="47.28395" lon="-1.70523">
        <ele>73.1</ele>
        <time>2014-10-12T08:21:26Z</time>
      </trkpt>
      <trkpt lat="47.28398" lon="-1.70522">
        <ele>73.1</ele>
        <time>2014-10-12T08:21:27Z</time>
      </trkpt>
      <trkpt lat="47.28402" lon="-1.70522">
        <ele>73.1</ele>
        <time>2014-10-12T08:21:28Z</time>
      </trkpt>
      <trkpt lat="47.28406" lon="-1.70522">
        <ele>73.1</ele>
        <time>2014-10-12T08:21:29Z</time>
      </trkpt>
      <trkpt lat="47.2841" lon="-1.70522">
        <ele>73.1</ele>
        <time>2014-10-12T08:21:30Z</time>
      </trkpt>
      <trkpt lat="47.28413" lon="-1.70522">
        <ele>73.1</ele>
        <time>2014-10-12T08:21:31Z</time>
      </trkpt>
      <trkpt lat="47.28417" lon="-1.70523">
        <ele>73.1</ele>
        <time>2014-10-12T08:21:32Z</time>
      </trkpt>
      <trkpt lat="47.28421" lon="-1.70523">
        <ele>73.1</ele>
        <time>2014-10-12T08:21:33Z</time>
      </trkpt>
      <trkpt lat="47.28424" lon="-1.70523">
        <ele>73.1</ele>
        <time>2014-10-12T08:21:34Z</time>
      </trkpt>
      <trkpt lat="47.28427" lon="-1.70523">
        <ele>73.1</ele>
        <time>2014-10-12T08:21:35Z</time>
      </trkpt>
      <trkpt lat="47.28431" lon="-1.70523">
        <ele>73.1</ele>
        <time>2014-10-12T08:21:36Z</time>
      </trkpt>
      <trkpt lat="47.28434" lon="-1.70523">
        <ele>73.2</ele>
        <time>2014-10-12T08:21:37Z</time>
      </trkpt>
      <trkpt lat="47.28437" lon="-1.70523">
        <ele>73.2</ele>
        <time>2014-10-12T08:21:38Z</time>
      </trkpt>
      <trkpt lat="47.2844" lon="-1.70523">
        <ele>73.2</ele>
        <time>2014-10-12T08:21:39Z</time>
      </trkpt>
      <trkpt lat="47.28446" lon="-1.70522">
        <ele>73.2</ele>
        <time>2014-10-12T08:21:41Z</time>
      </trkpt>
      <trkpt lat="47.28449" lon="-1.70522">
        <ele>73.2</ele>
        <time>2014-10-12T08:21:42Z</time>
      </trkpt>
      <trkpt lat="47.28452" lon="-1.70522">
        <ele>73.2</ele>
        <time>2014-10-12T08:21:43Z</time>
      </trkpt>
      <trkpt lat="47.28455" lon="-1.70522">
        <ele>73.2</ele>
        <time>2014-10-12T08:21:44Z</time>
      </trkpt>
      <trkpt lat="47.28459" lon="-1.70522">
        <ele>73.2</ele>
        <time>2014-10-12T08:21:45Z</time>
      </trkpt>
      <trkpt lat="47.28462" lon="-1.70523">
        <ele>73.3</ele>
        <time>2014-10-12T08:21:46Z</time>
      </trkpt>
      <trkpt lat="47.28466" lon="-1.70523">
        <ele>73.3</ele>
        <time>2014-10-12T08:21:47Z</time>
      </trkpt>
      <trkpt lat="47.2847" lon="-1.70524">
        <ele>73.3</ele>
        <time>2014-10-12T08:21:48Z</time>
      </trkpt>
      <trkpt lat="47.28474" lon="-1.70525">
        <ele>73.3</ele>
        <time>2014-10-12T08:21:49Z</time>
      </trkpt>
      <trkpt lat="47.28478" lon="-1.70526">
        <ele>73.3</ele>
        <time>2014-10-12T08:21:50Z</time>
      </trkpt>
      <trkpt lat="47.28481" lon="-1.70527">
        <ele>73.3</ele>
        <time>2014-10-12T08:21:51Z</time>
      </trkpt>
      <trkpt lat="47.28484" lon="-1.70528">
        <ele>73.3</ele>
        <time>2014-10-12T08:21:52Z</time>
      </trkpt>
      <trkpt lat="47.28488" lon="-1.70529">
        <ele>73.3</ele>
        <time>2014-10-12T08:21:53Z</time>
      </trkpt>
      <trkpt lat="47.28491" lon="-1.70529">
        <ele>73.3</ele>
        <time>2014-10-12T08:21:54Z</time>
      </trkpt>
      <trkpt lat="47.28495" lon="-1.70529">
        <ele>73.3</ele>
        <time>2014-10-12T08:21:55Z</time>
      </trkpt>
      <trkpt lat="47.28498" lon="-1.7053">
        <ele>73.3</ele>
        <time>2014-10-12T08:21:56Z</time>
      </trkpt>
      <trkpt lat="47.28501" lon="-1.7053">
        <ele>73.3</ele>
        <time>2014-10-12T08:21:57Z</time>
      </trkpt>
      <trkpt lat="47.28505" lon="-1.7053">
        <ele>73.3</ele>
        <time>2014-10-12T08:21:58Z</time>
      </trkpt>
      <trkpt lat="47.28508" lon="-1.70531">
        <ele>73.3</ele>
        <time>2014-10-12T08:21:59Z</time>
      </trkpt>
      <trkpt lat="47.28511" lon="-1.70531">
        <ele>73.3</ele>
        <time>2014-10-12T08:22:00Z</time>
      </trkpt>
      <trkpt lat="47.28514" lon="-1.70532">
        <ele>73.3</ele>
        <time>2014-10-12T08:22:01Z</time>
      </trkpt>
      <trkpt lat="47.28517" lon="-1.70533">
        <ele>73.2</ele>
        <time>2014-10-12T08:22:02Z</time>
      </trkpt>
      <trkpt lat="47.2852" lon="-1.70534">
        <ele>73.2</ele>
        <time>2014-10-12T08:22:03Z</time>
      </trkpt>
      <trkpt lat="47.28523" lon="-1.70534">
        <ele>73.2</ele>
        <time>2014-10-12T08:22:04Z</time>
      </trkpt>
      <trkpt lat="47.28528" lon="-1.70535">
        <ele>73.2</ele>
        <time>2014-10-12T08:22:05Z</time>
      </trkpt>
      <trkpt lat="47.28533" lon="-1.70535">
        <ele>73.2</ele>
        <time>2014-10-12T08:22:06Z</time>
      </trkpt>
      <trkpt lat="47.28537" lon="-1.70536">
        <ele>73.2</ele>
        <time>2014-10-12T08:22:07Z</time>
      </trkpt>
      <trkpt lat="47.28541" lon="-1.70536">
        <ele>73.2</ele>
        <time>2014-10-12T08:22:08Z</time>
      </trkpt>
      <trkpt lat="47.28546" lon="-1.70537">
        <ele>73.2</ele>
        <time>2014-10-12T08:22:09Z</time>
      </trkpt>
      <trkpt lat="47.28551" lon="-1.70539">
        <ele>73.1</ele>
        <time>2014-10-12T08:22:10Z</time>
      </trkpt>
      <trkpt lat="47.28556" lon="-1.7054">
        <ele>73.1</ele>
        <time>2014-10-12T08:22:11Z</time>
      </trkpt>
      <trkpt lat="47.28562" lon="-1.70541">
        <ele>73</ele>
        <time>2014-10-12T08:22:12Z</time>
      </trkpt>
      <trkpt lat="47.28567" lon="-1.70541">
        <ele>73</ele>
        <time>2014-10-12T08:22:13Z</time>
      </trkpt>
      <trkpt lat="47.28572" lon="-1.70542">
        <ele>73</ele>
        <time>2014-10-12T08:22:14Z</time>
      </trkpt>
      <trkpt lat="47.28577" lon="-1.70542">
        <ele>73</ele>
        <time>2014-10-12T08:22:15Z</time>
      </trkpt>
      <trkpt lat="47.28581" lon="-1.70543">
        <ele>73</ele>
        <time>2014-10-12T08:22:16Z</time>
      </trkpt>
      <trkpt lat="47.28586" lon="-1.70543">
        <ele>73</ele>
        <time>2014-10-12T08:22:17Z</time>
      </trkpt>
      <trkpt lat="47.28591" lon="-1.70544">
        <ele>73</ele>
        <time>2014-10-12T08:22:18Z</time>
      </trkpt>
      <trkpt lat="47.28597" lon="-1.70545">
        <ele>73</ele>
        <time>2014-10-12T08:22:19Z</time>
      </trkpt>
      <trkpt lat="47.28602" lon="-1.70545">
        <ele>72.9</ele>
        <time>2014-10-12T08:22:20Z</time>
      </trkpt>
      <trkpt lat="47.28607" lon="-1.70545">
        <ele>72.9</ele>
        <time>2014-10-12T08:22:21Z</time>
      </trkpt>
      <trkpt lat="47.28613" lon="-1.70546">
        <ele>72.9</ele>
        <time>2014-10-12T08:22:22Z</time>
      </trkpt>
      <trkpt lat="47.28618" lon="-1.70546">
        <ele>72.9</ele>
        <time>2014-10-12T08:22:23Z</time>
      </trkpt>
      <trkpt lat="47.28624" lon="-1.70547">
        <ele>72.9</ele>
        <time>2014-10-12T08:22:24Z</time>
      </trkpt>
      <trkpt lat="47.2863" lon="-1.70548">
        <ele>72.8</ele>
        <time>2014-10-12T08:22:25Z</time>
      </trkpt>
      <trkpt lat="47.28635" lon="-1.70549">
        <ele>72.7</ele>
        <time>2014-10-12T08:22:26Z</time>
      </trkpt>
      <trkpt lat="47.28641" lon="-1.7055">
        <ele>72.6</ele>
        <time>2014-10-12T08:22:27Z</time>
      </trkpt>
      <trkpt lat="47.28647" lon="-1.7055">
        <ele>72.5</ele>
        <time>2014-10-12T08:22:28Z</time>
      </trkpt>
      <trkpt lat="47.28653" lon="-1.7055">
        <ele>72.5</ele>
        <time>2014-10-12T08:22:29Z</time>
      </trkpt>
      <trkpt lat="47.28659" lon="-1.70551">
        <ele>72.4</ele>
        <time>2014-10-12T08:22:30Z</time>
      </trkpt>
      <trkpt lat="47.28664" lon="-1.70551">
        <ele>72.3</ele>
        <time>2014-10-12T08:22:31Z</time>
      </trkpt>
      <trkpt lat="47.2867" lon="-1.70551">
        <ele>72.2</ele>
        <time>2014-10-12T08:22:32Z</time>
      </trkpt>
      <trkpt lat="47.28675" lon="-1.70552">
        <ele>72.2</ele>
        <time>2014-10-12T08:22:33Z</time>
      </trkpt>
      <trkpt lat="47.2868" lon="-1.70552">
        <ele>72.1</ele>
        <time>2014-10-12T08:22:34Z</time>
      </trkpt>
      <trkpt lat="47.28686" lon="-1.70552">
        <ele>72</ele>
        <time>2014-10-12T08:22:35Z</time>
      </trkpt>
      <trkpt lat="47.28691" lon="-1.70553">
        <ele>71.9</ele>
        <time>2014-10-12T08:22:36Z</time>
      </trkpt>
      <trkpt lat="47.28697" lon="-1.70554">
        <ele>71.8</ele>
        <time>2014-10-12T08:22:37Z</time>
      </trkpt>
      <trkpt lat="47.28702" lon="-1.70555">
        <ele>71.8</ele>
        <time>2014-10-12T08:22:38Z</time>
      </trkpt>
      <trkpt lat="47.28707" lon="-1.70557">
        <ele>71.7</ele>
        <time>2014-10-12T08:22:39Z</time>
      </trkpt>
      <trkpt lat="47.28712" lon="-1.70559">
        <ele>71.5</ele>
        <time>2014-10-12T08:22:40Z</time>
      </trkpt>
      <trkpt lat="47.28717" lon="-1.70561">
        <ele>71.3</ele>
        <time>2014-10-12T08:22:41Z</time>
      </trkpt>
      <trkpt lat="47.28721" lon="-1.70563">
        <ele>71.1</ele>
        <time>2014-10-12T08:22:42Z</time>
      </trkpt>
      <trkpt lat="47.28726" lon="-1.70563">
        <ele>70.9</ele>
        <time>2014-10-12T08:22:43Z</time>
      </trkpt>
      <trkpt lat="47.28732" lon="-1.70566">
        <ele>70.7</ele>
        <time>2014-10-12T08:22:44Z</time>
      </trkpt>
      <trkpt lat="47.28738" lon="-1.70569">
        <ele>70.5</ele>
        <time>2014-10-12T08:22:45Z</time>
      </trkpt>
      <trkpt lat="47.28744" lon="-1.70572">
        <ele>70.3</ele>
        <time>2014-10-12T08:22:46Z</time>
      </trkpt>
      <trkpt lat="47.28748" lon="-1.70573">
        <ele>70.2</ele>
        <time>2014-10-12T08:22:47Z</time>
      </trkpt>
      <trkpt lat="47.28753" lon="-1.70574">
        <ele>70</ele>
        <time>2014-10-12T08:22:48Z</time>
      </trkpt>
      <trkpt lat="47.28757" lon="-1.70576">
        <ele>69.9</ele>
        <time>2014-10-12T08:22:49Z</time>
      </trkpt>
      <trkpt lat="47.28761" lon="-1.70578">
        <ele>69.8</ele>
        <time>2014-10-12T08:22:50Z</time>
      </trkpt>
      <trkpt lat="47.28765" lon="-1.7058">
        <ele>69.7</ele>
        <time>2014-10-12T08:22:51Z</time>
      </trkpt>
      <trkpt lat="47.28769" lon="-1.70581">
        <ele>69.6</ele>
        <time>2014-10-12T08:22:52Z</time>
      </trkpt>
      <trkpt lat="47.28772" lon="-1.70583">
        <ele>69.5</ele>
        <time>2014-10-12T08:22:53Z</time>
      </trkpt>
      <trkpt lat="47.28775" lon="-1.70585">
        <ele>69.4</ele>
        <time>2014-10-12T08:22:54Z</time>
      </trkpt>
      <trkpt lat="47.28779" lon="-1.70586">
        <ele>69.3</ele>
        <time>2014-10-12T08:22:55Z</time>
      </trkpt>
      <trkpt lat="47.28782" lon="-1.70588">
        <ele>69.2</ele>
        <time>2014-10-12T08:22:56Z</time>
      </trkpt>
      <trkpt lat="47.28784" lon="-1.70589">
        <ele>69.2</ele>
        <time>2014-10-12T08:22:57Z</time>
      </trkpt>
      <trkpt lat="47.28787" lon="-1.70591">
        <ele>69.1</ele>
        <time>2014-10-12T08:22:58Z</time>
      </trkpt>
      <trkpt lat="47.28792" lon="-1.70594">
        <ele>69</ele>
        <time>2014-10-12T08:23:00Z</time>
      </trkpt>
      <trkpt lat="47.28794" lon="-1.70596">
        <ele>69.1</ele>
        <time>2014-10-12T08:23:01Z</time>
      </trkpt>
      <trkpt lat="47.28799" lon="-1.70598">
        <ele>69.1</ele>
        <time>2014-10-12T08:23:03Z</time>
      </trkpt>
      <trkpt lat="47.28804" lon="-1.70601">
        <ele>69.2</ele>
        <time>2014-10-12T08:23:05Z</time>
      </trkpt>
      <trkpt lat="47.28808" lon="-1.70603">
        <ele>69.3</ele>
        <time>2014-10-12T08:23:07Z</time>
      </trkpt>
      <trkpt lat="47.28812" lon="-1.70607">
        <ele>69.4</ele>
        <time>2014-10-12T08:23:09Z</time>
      </trkpt>
      <trkpt lat="47.28815" lon="-1.70611">
        <ele>69.5</ele>
        <time>2014-10-12T08:23:11Z</time>
      </trkpt>
      <trkpt lat="47.28819" lon="-1.70618">
        <ele>69.6</ele>
        <time>2014-10-12T08:23:12Z</time>
      </trkpt>
      <trkpt lat="47.28823" lon="-1.70623">
        <ele>69.7</ele>
        <time>2014-10-12T08:23:14Z</time>
      </trkpt>
      <trkpt lat="47.28826" lon="-1.70627">
        <ele>69.9</ele>
        <time>2014-10-12T08:23:16Z</time>
      </trkpt>
      <trkpt lat="47.28831" lon="-1.70631">
        <ele>70</ele>
        <time>2014-10-12T08:23:18Z</time>
      </trkpt>
      <trkpt lat="47.28833" lon="-1.70634">
        <ele>70.2</ele>
        <time>2014-10-12T08:23:19Z</time>
      </trkpt>
      <trkpt lat="47.28838" lon="-1.70638">
        <ele>70.3</ele>
        <time>2014-10-12T08:23:21Z</time>
      </trkpt>
      <trkpt lat="47.28842" lon="-1.70642">
        <ele>70.5</ele>
        <time>2014-10-12T08:23:23Z</time>
      </trkpt>
      <trkpt lat="47.28845" lon="-1.70646">
        <ele>70.7</ele>
        <time>2014-10-12T08:23:25Z</time>
      </trkpt>
      <trkpt lat="47.28848" lon="-1.70647">
        <ele>70.8</ele>
        <time>2014-10-12T08:23:27Z</time>
      </trkpt>
      <trkpt lat="47.28852" lon="-1.7065">
        <ele>71</ele>
        <time>2014-10-12T08:23:29Z</time>
      </trkpt>
      <trkpt lat="47.28855" lon="-1.70655">
        <ele>71.2</ele>
        <time>2014-10-12T08:23:31Z</time>
      </trkpt>
      <trkpt lat="47.28859" lon="-1.70661">
        <ele>71.4</ele>
        <time>2014-10-12T08:23:33Z</time>
      </trkpt>
      <trkpt lat="47.28861" lon="-1.70664">
        <ele>71.5</ele>
        <time>2014-10-12T08:23:34Z</time>
      </trkpt>
      <trkpt lat="47.28864" lon="-1.70669">
        <ele>71.7</ele>
        <time>2014-10-12T08:23:36Z</time>
      </trkpt>
      <trkpt lat="47.28866" lon="-1.70672">
        <ele>71.9</ele>
        <time>2014-10-12T08:23:37Z</time>
      </trkpt>
      <trkpt lat="47.28868" lon="-1.70675">
        <ele>72</ele>
        <time>2014-10-12T08:23:38Z</time>
      </trkpt>
      <trkpt lat="47.2887" lon="-1.70678">
        <ele>72.1</ele>
        <time>2014-10-12T08:23:39Z</time>
      </trkpt>
      <trkpt lat="47.28872" lon="-1.70682">
        <ele>72.3</ele>
        <time>2014-10-12T08:23:40Z</time>
      </trkpt>
      <trkpt lat="47.28874" lon="-1.70686">
        <ele>72.4</ele>
        <time>2014-10-12T08:23:41Z</time>
      </trkpt>
      <trkpt lat="47.28876" lon="-1.7069">
        <ele>72.6</ele>
        <time>2014-10-12T08:23:42Z</time>
      </trkpt>
      <trkpt lat="47.28878" lon="-1.70695">
        <ele>72.7</ele>
        <time>2014-10-12T08:23:43Z</time>
      </trkpt>
      <trkpt lat="47.28881" lon="-1.70702">
        <ele>72.9</ele>
        <time>2014-10-12T08:23:45Z</time>
      </trkpt>
      <trkpt lat="47.28883" lon="-1.70705">
        <ele>73</ele>
        <time>2014-10-12T08:23:46Z</time>
      </trkpt>
      <trkpt lat="47.28884" lon="-1.70712">
        <ele>73.2</ele>
        <time>2014-10-12T08:23:48Z</time>
      </trkpt>
      <trkpt lat="47.28886" lon="-1.70715">
        <ele>73.2</ele>
        <time>2014-10-12T08:23:49Z</time>
      </trkpt>
      <trkpt lat="47.28888" lon="-1.70722">
        <ele>73.3</ele>
        <time>2014-10-12T08:23:51Z</time>
      </trkpt>
      <trkpt lat="47.28889" lon="-1.70727">
        <ele>73.4</ele>
        <time>2014-10-12T08:23:53Z</time>
      </trkpt>
      <trkpt lat="47.2889" lon="-1.70733">
        <ele>73.5</ele>
        <time>2014-10-12T08:23:55Z</time>
      </trkpt>
      <trkpt lat="47.28892" lon="-1.70738">
        <ele>73.6</ele>
        <time>2014-10-12T08:23:57Z</time>
      </trkpt>
      <trkpt lat="47.28893" lon="-1.70744">
        <ele>73.6</ele>
        <time>2014-10-12T08:23:59Z</time>
      </trkpt>
      <trkpt lat="47.28895" lon="-1.7075">
        <ele>73.7</ele>
        <time>2014-10-12T08:24:01Z</time>
      </trkpt>
      <trkpt lat="47.28897" lon="-1.70757">
        <ele>73.8</ele>
        <time>2014-10-12T08:24:03Z</time>
      </trkpt>
      <trkpt lat="47.28898" lon="-1.70763">
        <ele>73.9</ele>
        <time>2014-10-12T08:24:05Z</time>
      </trkpt>
      <trkpt lat="47.28901" lon="-1.7077">
        <ele>74</ele>
        <time>2014-10-12T08:24:07Z</time>
      </trkpt>
      <trkpt lat="47.28903" lon="-1.70776">
        <ele>74.1</ele>
        <time>2014-10-12T08:24:09Z</time>
      </trkpt>
      <trkpt lat="47.28905" lon="-1.70782">
        <ele>74.2</ele>
        <time>2014-10-12T08:24:11Z</time>
      </trkpt>
      <trkpt lat="47.28909" lon="-1.70787">
        <ele>74.3</ele>
        <time>2014-10-12T08:24:13Z</time>
      </trkpt>
      <trkpt lat="47.2891" lon="-1.70792">
        <ele>74.4</ele>
        <time>2014-10-12T08:24:14Z</time>
      </trkpt>
      <trkpt lat="47.28912" lon="-1.70796">
        <ele>74.5</ele>
        <time>2014-10-12T08:24:15Z</time>
      </trkpt>
      <trkpt lat="47.28914" lon="-1.70801">
        <ele>74.6</ele>
        <time>2014-10-12T08:24:17Z</time>
      </trkpt>
      <trkpt lat="47.28918" lon="-1.70806">
        <ele>74.8</ele>
        <time>2014-10-12T08:24:19Z</time>
      </trkpt>
      <trkpt lat="47.28922" lon="-1.70811">
        <ele>74.9</ele>
        <time>2014-10-12T08:24:21Z</time>
      </trkpt>
      <trkpt lat="47.28925" lon="-1.70814">
        <ele>75</ele>
        <time>2014-10-12T08:24:23Z</time>
      </trkpt>
      <trkpt lat="47.28928" lon="-1.70817">
        <ele>75.1</ele>
        <time>2014-10-12T08:24:26Z</time>
      </trkpt>
      <trkpt lat="47.28932" lon="-1.70821">
        <ele>75.3</ele>
        <time>2014-10-12T08:24:28Z</time>
      </trkpt>
      <trkpt lat="47.28938" lon="-1.70823">
        <ele>75.4</ele>
        <time>2014-10-12T08:24:30Z</time>
      </trkpt>
      <trkpt lat="47.2894" lon="-1.70824">
        <ele>75.5</ele>
        <time>2014-10-12T08:24:31Z</time>
      </trkpt>
      <trkpt lat="47.28944" lon="-1.70825">
        <ele>75.6</ele>
        <time>2014-10-12T08:24:32Z</time>
      </trkpt>
      <trkpt lat="47.28949" lon="-1.70825">
        <ele>75.6</ele>
        <time>2014-10-12T08:24:34Z</time>
      </trkpt>
      <trkpt lat="47.28954" lon="-1.70825">
        <ele>75.7</ele>
        <time>2014-10-12T08:24:36Z</time>
      </trkpt>
      <trkpt lat="47.28959" lon="-1.70827">
        <ele>75.8</ele>
        <time>2014-10-12T08:24:38Z</time>
      </trkpt>
      <trkpt lat="47.28963" lon="-1.70828">
        <ele>75.9</ele>
        <time>2014-10-12T08:24:39Z</time>
      </trkpt>
      <trkpt lat="47.28967" lon="-1.7083">
        <ele>76</ele>
        <time>2014-10-12T08:24:41Z</time>
      </trkpt>
      <trkpt lat="47.28972" lon="-1.70831">
        <ele>76</ele>
        <time>2014-10-12T08:24:43Z</time>
      </trkpt>
      <trkpt lat="47.28977" lon="-1.70833">
        <ele>76.1</ele>
        <time>2014-10-12T08:24:45Z</time>
      </trkpt>
      <trkpt lat="47.2898" lon="-1.70833">
        <ele>76.1</ele>
        <time>2014-10-12T08:24:46Z</time>
      </trkpt>
      <trkpt lat="47.28986" lon="-1.70832">
        <ele>76.1</ele>
        <time>2014-10-12T08:24:47Z</time>
      </trkpt>
      <trkpt lat="47.28992" lon="-1.70836">
        <ele>76.2</ele>
        <time>2014-10-12T08:24:48Z</time>
      </trkpt>
      <trkpt lat="47.28997" lon="-1.70837">
        <ele>76.3</ele>
        <time>2014-10-12T08:24:49Z</time>
      </trkpt>
      <trkpt lat="47.29002" lon="-1.70839">
        <ele>76.3</ele>
        <time>2014-10-12T08:24:50Z</time>
      </trkpt>
      <trkpt lat="47.29005" lon="-1.70839">
        <ele>76.3</ele>
        <time>2014-10-12T08:24:51Z</time>
      </trkpt>
      <trkpt lat="47.29009" lon="-1.70838">
        <ele>76.3</ele>
        <time>2014-10-12T08:24:52Z</time>
      </trkpt>
      <trkpt lat="47.29013" lon="-1.70838">
        <ele>76.3</ele>
        <time>2014-10-12T08:24:54Z</time>
      </trkpt>
      <trkpt lat="47.29019" lon="-1.70836">
        <ele>76.4</ele>
        <time>2014-10-12T08:24:56Z</time>
      </trkpt>
      <trkpt lat="47.29021" lon="-1.70836">
        <ele>76.4</ele>
        <time>2014-10-12T08:24:57Z</time>
      </trkpt>
      <trkpt lat="47.29024" lon="-1.70835">
        <ele>76.4</ele>
        <time>2014-10-12T08:24:58Z</time>
      </trkpt>
      <trkpt lat="47.29028" lon="-1.70835">
        <ele>76.4</ele>
        <time>2014-10-12T08:24:59Z</time>
      </trkpt>
      <trkpt lat="47.29031" lon="-1.70834">
        <ele>76.4</ele>
        <time>2014-10-12T08:25:00Z</time>
      </trkpt>
      <trkpt lat="47.29035" lon="-1.70834">
        <ele>76.5</ele>
        <time>2014-10-12T08:25:01Z</time>
      </trkpt>
      <trkpt lat="47.29038" lon="-1.70832">
        <ele>76.5</ele>
        <time>2014-10-12T08:25:02Z</time>
      </trkpt>
      <trkpt lat="47.29041" lon="-1.7083">
        <ele>76.5</ele>
        <time>2014-10-12T08:25:04Z</time>
      </trkpt>
      <trkpt lat="47.29044" lon="-1.70827">
        <ele>76.6</ele>
        <time>2014-10-12T08:25:06Z</time>
      </trkpt>
      <trkpt lat="47.29046" lon="-1.70824">
        <ele>76.6</ele>
        <time>2014-10-12T08:25:08Z</time>
      </trkpt>
      <trkpt lat="47.29049" lon="-1.70819">
        <ele>76.6</ele>
        <time>2014-10-12T08:25:10Z</time>
      </trkpt>
      <trkpt lat="47.29052" lon="-1.70814">
        <ele>76.6</ele>
        <time>2014-10-12T08:25:12Z</time>
      </trkpt>
      <trkpt lat="47.29055" lon="-1.70809">
        <ele>76.6</ele>
        <time>2014-10-12T08:25:14Z</time>
      </trkpt>
      <trkpt lat="47.29058" lon="-1.70804">
        <ele>76.7</ele>
        <time>2014-10-12T08:25:16Z</time>
      </trkpt>
      <trkpt lat="47.2906" lon="-1.708">
        <ele>76.7</ele>
        <time>2014-10-12T08:25:17Z</time>
      </trkpt>
      <trkpt lat="47.29065" lon="-1.70797">
        <ele>76.7</ele>
        <time>2014-10-12T08:25:18Z</time>
      </trkpt>
      <trkpt lat="47.29067" lon="-1.70794">
        <ele>76.7</ele>
        <time>2014-10-12T08:25:19Z</time>
      </trkpt>
      <trkpt lat="47.2907" lon="-1.7079">
        <ele>76.7</ele>
        <time>2014-10-12T08:25:20Z</time>
      </trkpt>
      <trkpt lat="47.29074" lon="-1.70784">
        <ele>76.6</ele>
        <time>2014-10-12T08:25:21Z</time>
      </trkpt>
      <trkpt lat="47.29077" lon="-1.70781">
        <ele>76.6</ele>
        <time>2014-10-12T08:25:22Z</time>
      </trkpt>
      <trkpt lat="47.2908" lon="-1.70777">
        <ele>76.5</ele>
        <time>2014-10-12T08:25:23Z</time>
      </trkpt>
      <trkpt lat="47.29084" lon="-1.70773">
        <ele>76.5</ele>
        <time>2014-10-12T08:25:24Z</time>
      </trkpt>
      <trkpt lat="47.29086" lon="-1.70771">
        <ele>76.5</ele>
        <time>2014-10-12T08:25:25Z</time>
      </trkpt>
      <trkpt lat="47.29089" lon="-1.70769">
        <ele>76.5</ele>
        <time>2014-10-12T08:25:26Z</time>
      </trkpt>
      <trkpt lat="47.29093" lon="-1.70766">
        <ele>76.5</ele>
        <time>2014-10-12T08:25:27Z</time>
      </trkpt>
      <trkpt lat="47.29096" lon="-1.70763">
        <ele>76.5</ele>
        <time>2014-10-12T08:25:28Z</time>
      </trkpt>
      <trkpt lat="47.29099" lon="-1.70761">
        <ele>76.5</ele>
        <time>2014-10-12T08:25:29Z</time>
      </trkpt>
      <trkpt lat="47.29101" lon="-1.70759">
        <ele>76.5</ele>
        <time>2014-10-12T08:25:30Z</time>
      </trkpt>
      <trkpt lat="47.29104" lon="-1.70756">
        <ele>76.5</ele>
        <time>2014-10-12T08:25:31Z</time>
      </trkpt>
      <trkpt lat="47.29107" lon="-1.70753">
        <ele>76.5</ele>
        <time>2014-10-12T08:25:32Z</time>
      </trkpt>
      <trkpt lat="47.2911" lon="-1.70751">
        <ele>76.5</ele>
        <time>2014-10-12T08:25:33Z</time>
      </trkpt>
      <trkpt lat="47.29112" lon="-1.70748">
        <ele>76.5</ele>
        <time>2014-10-12T08:25:34Z</time>
      </trkpt>
      <trkpt lat="47.29116" lon="-1.70746">
        <ele>76.5</ele>
        <time>2014-10-12T08:25:35Z</time>
      </trkpt>
      <trkpt lat="47.29119" lon="-1.70743">
        <ele>76.6</ele>
        <time>2014-10-12T08:25:36Z</time>
      </trkpt>
      <trkpt lat="47.29123" lon="-1.7074">
        <ele>76.6</ele>
        <time>2014-10-12T08:25:37Z</time>
      </trkpt>
      <trkpt lat="47.29127" lon="-1.70737">
        <ele>76.6</ele>
        <time>2014-10-12T08:25:38Z</time>
      </trkpt>
      <trkpt lat="47.29131" lon="-1.70734">
        <ele>76.6</ele>
        <time>2014-10-12T08:25:39Z</time>
      </trkpt>
      <trkpt lat="47.29134" lon="-1.70731">
        <ele>76.6</ele>
        <time>2014-10-12T08:25:40Z</time>
      </trkpt>
      <trkpt lat="47.29138" lon="-1.70729">
        <ele>76.6</ele>
        <time>2014-10-12T08:25:41Z</time>
      </trkpt>
      <trkpt lat="47.29142" lon="-1.70727">
        <ele>76.6</ele>
        <time>2014-10-12T08:25:42Z</time>
      </trkpt>
      <trkpt lat="47.29145" lon="-1.70725">
        <ele>76.5</ele>
        <time>2014-10-12T08:25:43Z</time>
      </trkpt>
      <trkpt lat="47.29148" lon="-1.70723">
        <ele>76.5</ele>
        <time>2014-10-12T08:25:44Z</time>
      </trkpt>
      <trkpt lat="47.29151" lon="-1.7072">
        <ele>76.4</ele>
        <time>2014-10-12T08:25:45Z</time>
      </trkpt>
      <trkpt lat="47.29155" lon="-1.70718">
        <ele>76.3</ele>
        <time>2014-10-12T08:25:46Z</time>
      </trkpt>
      <trkpt lat="47.29159" lon="-1.70716">
        <ele>76.2</ele>
        <time>2014-10-12T08:25:47Z</time>
      </trkpt>
      <trkpt lat="47.29163" lon="-1.70714">
        <ele>76.2</ele>
        <time>2014-10-12T08:25:48Z</time>
      </trkpt>
      <trkpt lat="47.29168" lon="-1.70711">
        <ele>76</ele>
        <time>2014-10-12T08:25:49Z</time>
      </trkpt>
      <trkpt lat="47.29174" lon="-1.70706">
        <ele>75.7</ele>
        <time>2014-10-12T08:25:50Z</time>
      </trkpt>
      <trkpt lat="47.2918" lon="-1.70703">
        <ele>75.3</ele>
        <time>2014-10-12T08:25:51Z</time>
      </trkpt>
      <trkpt lat="47.29185" lon="-1.707">
        <ele>74.9</ele>
        <time>2014-10-12T08:25:52Z</time>
      </trkpt>
      <trkpt lat="47.2919" lon="-1.70698">
        <ele>74.6</ele>
        <time>2014-10-12T08:25:53Z</time>
      </trkpt>
      <trkpt lat="47.29194" lon="-1.70697">
        <ele>74.4</ele>
        <time>2014-10-12T08:25:54Z</time>
      </trkpt>
      <trkpt lat="47.29199" lon="-1.70696">
        <ele>74.1</ele>
        <time>2014-10-12T08:25:55Z</time>
      </trkpt>
      <trkpt lat="47.29203" lon="-1.70692">
        <ele>73.6</ele>
        <time>2014-10-12T08:25:56Z</time>
      </trkpt>
      <trkpt lat="47.29207" lon="-1.70689">
        <ele>73.2</ele>
        <time>2014-10-12T08:25:57Z</time>
      </trkpt>
      <trkpt lat="47.2921" lon="-1.70686">
        <ele>72.8</ele>
        <time>2014-10-12T08:25:58Z</time>
      </trkpt>
      <trkpt lat="47.29212" lon="-1.70681">
        <ele>72.3</ele>
        <time>2014-10-12T08:25:59Z</time>
      </trkpt>
      <trkpt lat="47.29215" lon="-1.70677">
        <ele>71.9</ele>
        <time>2014-10-12T08:26:00Z</time>
      </trkpt>
      <trkpt lat="47.29219" lon="-1.70673">
        <ele>71.5</ele>
        <time>2014-10-12T08:26:01Z</time>
      </trkpt>
      <trkpt lat="47.29222" lon="-1.70669">
        <ele>71.1</ele>
        <time>2014-10-12T08:26:02Z</time>
      </trkpt>
      <trkpt lat="47.29226" lon="-1.70665">
        <ele>70.6</ele>
        <time>2014-10-12T08:26:03Z</time>
      </trkpt>
      <trkpt lat="47.29228" lon="-1.70659">
        <ele>70.1</ele>
        <time>2014-10-12T08:26:04Z</time>
      </trkpt>
      <trkpt lat="47.2923" lon="-1.70655">
        <ele>69.8</ele>
        <time>2014-10-12T08:26:05Z</time>
      </trkpt>
      <trkpt lat="47.29232" lon="-1.70652">
        <ele>69.5</ele>
        <time>2014-10-12T08:26:06Z</time>
      </trkpt>
      <trkpt lat="47.29235" lon="-1.70645">
        <ele>68.9</ele>
        <time>2014-10-12T08:26:08Z</time>
      </trkpt>
      <trkpt lat="47.29238" lon="-1.70639">
        <ele>68.5</ele>
        <time>2014-10-12T08:26:09Z</time>
      </trkpt>
      <trkpt lat="47.29241" lon="-1.70635">
        <ele>68.1</ele>
        <time>2014-10-12T08:26:10Z</time>
      </trkpt>
      <trkpt lat="47.29244" lon="-1.70631">
        <ele>67.9</ele>
        <time>2014-10-12T08:26:11Z</time>
      </trkpt>
      <trkpt lat="47.29247" lon="-1.70627">
        <ele>67.6</ele>
        <time>2014-10-12T08:26:12Z</time>
      </trkpt>
      <trkpt lat="47.29251" lon="-1.70622">
        <ele>67.4</ele>
        <time>2014-10-12T08:26:13Z</time>
      </trkpt>
      <trkpt lat="47.29255" lon="-1.70618">
        <ele>67.2</ele>
        <time>2014-10-12T08:26:14Z</time>
      </trkpt>
      <trkpt lat="47.29258" lon="-1.70615">
        <ele>67.1</ele>
        <time>2014-10-12T08:26:15Z</time>
      </trkpt>
      <trkpt lat="47.29261" lon="-1.70611">
        <ele>67</ele>
        <time>2014-10-12T08:26:16Z</time>
      </trkpt>
      <trkpt lat="47.29263" lon="-1.70607">
        <ele>66.8</ele>
        <time>2014-10-12T08:26:17Z</time>
      </trkpt>
      <trkpt lat="47.29266" lon="-1.70605">
        <ele>66.7</ele>
        <time>2014-10-12T08:26:18Z</time>
      </trkpt>
      <trkpt lat="47.29268" lon="-1.70603">
        <ele>66.6</ele>
        <time>2014-10-12T08:26:19Z</time>
      </trkpt>
      <trkpt lat="47.29271" lon="-1.70596">
        <ele>66.4</ele>
        <time>2014-10-12T08:26:20Z</time>
      </trkpt>
      <trkpt lat="47.29275" lon="-1.7059">
        <ele>66.1</ele>
        <time>2014-10-12T08:26:21Z</time>
      </trkpt>
      <trkpt lat="47.29278" lon="-1.70588">
        <ele>66</ele>
        <time>2014-10-12T08:26:22Z</time>
      </trkpt>
      <trkpt lat="47.29281" lon="-1.70586">
        <ele>66</ele>
        <time>2014-10-12T08:26:23Z</time>
      </trkpt>
      <trkpt lat="47.29284" lon="-1.70584">
        <ele>66</ele>
        <time>2014-10-12T08:26:24Z</time>
      </trkpt>
      <trkpt lat="47.29287" lon="-1.70583">
        <ele>65.9</ele>
        <time>2014-10-12T08:26:25Z</time>
      </trkpt>
      <trkpt lat="47.29291" lon="-1.70581">
        <ele>65.9</ele>
        <time>2014-10-12T08:26:26Z</time>
      </trkpt>
      <trkpt lat="47.29295" lon="-1.7058">
        <ele>65.9</ele>
        <time>2014-10-12T08:26:27Z</time>
      </trkpt>
      <trkpt lat="47.29298" lon="-1.70582">
        <ele>66.1</ele>
        <time>2014-10-12T08:26:29Z</time>
      </trkpt>
      <trkpt lat="47.29301" lon="-1.70589">
        <ele>66.5</ele>
        <time>2014-10-12T08:26:31Z</time>
      </trkpt>
      <trkpt lat="47.29304" lon="-1.70592">
        <ele>66.7</ele>
        <time>2014-10-12T08:26:32Z</time>
      </trkpt>
      <trkpt lat="47.29306" lon="-1.70595">
        <ele>66.8</ele>
        <time>2014-10-12T08:26:33Z</time>
      </trkpt>
      <trkpt lat="47.29308" lon="-1.70598">
        <ele>67</ele>
        <time>2014-10-12T08:26:34Z</time>
      </trkpt>
      <trkpt lat="47.2931" lon="-1.70601">
        <ele>67.2</ele>
        <time>2014-10-12T08:26:35Z</time>
      </trkpt>
      <trkpt lat="47.29312" lon="-1.70605">
        <ele>67.4</ele>
        <time>2014-10-12T08:26:36Z</time>
      </trkpt>
      <trkpt lat="47.29314" lon="-1.7061">
        <ele>67.6</ele>
        <time>2014-10-12T08:26:37Z</time>
      </trkpt>
      <trkpt lat="47.29315" lon="-1.70614">
        <ele>67.8</ele>
        <time>2014-10-12T08:26:38Z</time>
      </trkpt>
      <trkpt lat="47.29318" lon="-1.70619">
        <ele>68.1</ele>
        <time>2014-10-12T08:26:40Z</time>
      </trkpt>
      <trkpt lat="47.29322" lon="-1.70622">
        <ele>68.2</ele>
        <time>2014-10-12T08:26:42Z</time>
      </trkpt>
      <trkpt lat="47.29327" lon="-1.70622">
        <ele>68.3</ele>
        <time>2014-10-12T08:26:44Z</time>
      </trkpt>
      <trkpt lat="47.2933" lon="-1.70628">
        <ele>68.6</ele>
        <time>2014-10-12T08:26:46Z</time>
      </trkpt>
      <trkpt lat="47.29335" lon="-1.7063">
        <ele>68.7</ele>
        <time>2014-10-12T08:26:48Z</time>
      </trkpt>
      <trkpt lat="47.29339" lon="-1.70634">
        <ele>68.9</ele>
        <time>2014-10-12T08:26:50Z</time>
      </trkpt>
      <trkpt lat="47.29342" lon="-1.70638">
        <ele>69.1</ele>
        <time>2014-10-12T08:26:51Z</time>
      </trkpt>
      <trkpt lat="47.29344" lon="-1.70641">
        <ele>69.3</ele>
        <time>2014-10-12T08:26:52Z</time>
      </trkpt>
      <trkpt lat="47.29346" lon="-1.70645">
        <ele>69.4</ele>
        <time>2014-10-12T08:26:53Z</time>
      </trkpt>
      <trkpt lat="47.29349" lon="-1.70647">
        <ele>69.6</ele>
        <time>2014-10-12T08:26:54Z</time>
      </trkpt>
      <trkpt lat="47.29351" lon="-1.7065">
        <ele>69.7</ele>
        <time>2014-10-12T08:26:56Z</time>
      </trkpt>
      <trkpt lat="47.29353" lon="-1.70654">
        <ele>69.9</ele>
        <time>2014-10-12T08:26:58Z</time>
      </trkpt>
      <trkpt lat="47.29356" lon="-1.70657">
        <ele>70</ele>
        <time>2014-10-12T08:27:00Z</time>
      </trkpt>
      <trkpt lat="47.29359" lon="-1.70659">
        <ele>70.1</ele>
        <time>2014-10-12T08:27:02Z</time>
      </trkpt>
      <trkpt lat="47.29362" lon="-1.7066">
        <ele>70.2</ele>
        <time>2014-10-12T08:27:04Z</time>
      </trkpt>
      <trkpt lat="47.29365" lon="-1.70663">
        <ele>70.3</ele>
        <time>2014-10-12T08:27:06Z</time>
      </trkpt>
      <trkpt lat="47.29369" lon="-1.70666">
        <ele>70.4</ele>
        <time>2014-10-12T08:27:08Z</time>
      </trkpt>
      <trkpt lat="47.29373" lon="-1.70669">
        <ele>70.6</ele>
        <time>2014-10-12T08:27:10Z</time>
      </trkpt>
      <trkpt lat="47.29377" lon="-1.70673">
        <ele>70.7</ele>
        <time>2014-10-12T08:27:12Z</time>
      </trkpt>
      <trkpt lat="47.29379" lon="-1.70679">
        <ele>71</ele>
        <time>2014-10-12T08:27:14Z</time>
      </trkpt>
      <trkpt lat="47.29382" lon="-1.70685">
        <ele>71.2</ele>
        <time>2014-10-12T08:27:16Z</time>
      </trkpt>
      <trkpt lat="47.29383" lon="-1.7069">
        <ele>71.4</ele>
        <time>2014-10-12T08:27:18Z</time>
      </trkpt>
      <trkpt lat="47.29386" lon="-1.70693">
        <ele>71.5</ele>
        <time>2014-10-12T08:27:21Z</time>
      </trkpt>
      <trkpt lat="47.29389" lon="-1.70695">
        <ele>71.6</ele>
        <time>2014-10-12T08:27:23Z</time>
      </trkpt>
      <trkpt lat="47.29405" lon="-1.707">
        <ele>72</ele>
        <time>2014-10-12T08:27:29Z</time>
      </trkpt>
      <trkpt lat="47.29411" lon="-1.70701">
        <ele>72.1</ele>
        <time>2014-10-12T08:27:31Z</time>
      </trkpt>
      <trkpt lat="47.29414" lon="-1.70702">
        <ele>72.2</ele>
        <time>2014-10-12T08:27:32Z</time>
      </trkpt>
      <trkpt lat="47.29417" lon="-1.70702">
        <ele>72.3</ele>
        <time>2014-10-12T08:27:33Z</time>
      </trkpt>
      <trkpt lat="47.29421" lon="-1.70704">
        <ele>72.4</ele>
        <time>2014-10-12T08:27:35Z</time>
      </trkpt>
      <trkpt lat="47.29426" lon="-1.70703">
        <ele>72.4</ele>
        <time>2014-10-12T08:27:37Z</time>
      </trkpt>
      <trkpt lat="47.2943" lon="-1.70701">
        <ele>72.3</ele>
        <time>2014-10-12T08:27:39Z</time>
      </trkpt>
      <trkpt lat="47.29433" lon="-1.70702">
        <ele>72.4</ele>
        <time>2014-10-12T08:27:40Z</time>
      </trkpt>
      <trkpt lat="47.29437" lon="-1.70703">
        <ele>72.5</ele>
        <time>2014-10-12T08:27:41Z</time>
      </trkpt>
      <trkpt lat="47.2944" lon="-1.70705">
        <ele>72.6</ele>
        <time>2014-10-12T08:27:42Z</time>
      </trkpt>
      <trkpt lat="47.29443" lon="-1.70706">
        <ele>72.7</ele>
        <time>2014-10-12T08:27:43Z</time>
      </trkpt>
      <trkpt lat="47.29447" lon="-1.70708">
        <ele>72.8</ele>
        <time>2014-10-12T08:27:45Z</time>
      </trkpt>
      <trkpt lat="47.2945" lon="-1.7071">
        <ele>72.9</ele>
        <time>2014-10-12T08:27:47Z</time>
      </trkpt>
      <trkpt lat="47.29453" lon="-1.70713">
        <ele>73</ele>
        <time>2014-10-12T08:27:49Z</time>
      </trkpt>
      <trkpt lat="47.29456" lon="-1.70717">
        <ele>73.1</ele>
        <time>2014-10-12T08:27:51Z</time>
      </trkpt>
      <trkpt lat="47.29458" lon="-1.70721">
        <ele>73.1</ele>
        <time>2014-10-12T08:27:53Z</time>
      </trkpt>
      <trkpt lat="47.29459" lon="-1.70725">
        <ele>73.1</ele>
        <time>2014-10-12T08:27:55Z</time>
      </trkpt>
      <trkpt lat="47.2946" lon="-1.70731">
        <ele>73.1</ele>
        <time>2014-10-12T08:27:57Z</time>
      </trkpt>
      <trkpt lat="47.29462" lon="-1.70735">
        <ele>73</ele>
        <time>2014-10-12T08:27:59Z</time>
      </trkpt>
      <trkpt lat="47.29465" lon="-1.70742">
        <ele>72.8</ele>
        <time>2014-10-12T08:28:01Z</time>
      </trkpt>
      <trkpt lat="47.29467" lon="-1.70745">
        <ele>72.7</ele>
        <time>2014-10-12T08:28:02Z</time>
      </trkpt>
      <trkpt lat="47.29471" lon="-1.70753">
        <ele>72.3</ele>
        <time>2014-10-12T08:28:04Z</time>
      </trkpt>
      <trkpt lat="47.29472" lon="-1.70757">
        <ele>72.2</ele>
        <time>2014-10-12T08:28:05Z</time>
      </trkpt>
      <trkpt lat="47.29474" lon="-1.70762">
        <ele>72.1</ele>
        <time>2014-10-12T08:28:07Z</time>
      </trkpt>
      <trkpt lat="47.29476" lon="-1.70769">
        <ele>71.9</ele>
        <time>2014-10-12T08:28:09Z</time>
      </trkpt>
      <trkpt lat="47.29478" lon="-1.70776">
        <ele>71.8</ele>
        <time>2014-10-12T08:28:11Z</time>
      </trkpt>
      <trkpt lat="47.29481" lon="-1.70783">
        <ele>71.6</ele>
        <time>2014-10-12T08:28:13Z</time>
      </trkpt>
      <trkpt lat="47.29482" lon="-1.70788">
        <ele>71.5</ele>
        <time>2014-10-12T08:28:14Z</time>
      </trkpt>
      <trkpt lat="47.29483" lon="-1.70793">
        <ele>71.3</ele>
        <time>2014-10-12T08:28:15Z</time>
      </trkpt>
      <trkpt lat="47.29485" lon="-1.70798">
        <ele>71.2</ele>
        <time>2014-10-12T08:28:16Z</time>
      </trkpt>
      <trkpt lat="47.29487" lon="-1.70804">
        <ele>71.1</ele>
        <time>2014-10-12T08:28:17Z</time>
      </trkpt>
      <trkpt lat="47.29489" lon="-1.7081">
        <ele>71</ele>
        <time>2014-10-12T08:28:18Z</time>
      </trkpt>
      <trkpt lat="47.29492" lon="-1.70814">
        <ele>70.8</ele>
        <time>2014-10-12T08:28:19Z</time>
      </trkpt>
      <trkpt lat="47.29493" lon="-1.70818">
        <ele>70.7</ele>
        <time>2014-10-12T08:28:20Z</time>
      </trkpt>
      <trkpt lat="47.29492" lon="-1.70822">
        <ele>70.8</ele>
        <time>2014-10-12T08:28:21Z</time>
      </trkpt>
      <trkpt lat="47.29494" lon="-1.70825">
        <ele>70.7</ele>
        <time>2014-10-12T08:28:22Z</time>
      </trkpt>
      <trkpt lat="47.29497" lon="-1.7083">
        <ele>70.5</ele>
        <time>2014-10-12T08:28:23Z</time>
      </trkpt>
      <trkpt lat="47.29498" lon="-1.70835">
        <ele>70.5</ele>
        <time>2014-10-12T08:28:24Z</time>
      </trkpt>
      <trkpt lat="47.29499" lon="-1.70841">
        <ele>70.5</ele>
        <time>2014-10-12T08:28:26Z</time>
      </trkpt>
      <trkpt lat="47.29502" lon="-1.70845">
        <ele>70.3</ele>
        <time>2014-10-12T08:28:27Z</time>
      </trkpt>
      <trkpt lat="47.29504" lon="-1.70849">
        <ele>70.1</ele>
        <time>2014-10-12T08:28:28Z</time>
      </trkpt>
      <trkpt lat="47.29508" lon="-1.70856">
        <ele>69.9</ele>
        <time>2014-10-12T08:28:30Z</time>
      </trkpt>
      <trkpt lat="47.29515" lon="-1.70868">
        <ele>69.5</ele>
        <time>2014-10-12T08:28:31Z</time>
      </trkpt>
      <trkpt lat="47.29517" lon="-1.70874">
        <ele>69.3</ele>
        <time>2014-10-12T08:28:33Z</time>
      </trkpt>
      <trkpt lat="47.2952" lon="-1.70879">
        <ele>69.2</ele>
        <time>2014-10-12T08:28:35Z</time>
      </trkpt>
      <trkpt lat="47.29527" lon="-1.70896">
        <ele>69.2</ele>
        <time>2014-10-12T08:28:40Z</time>
      </trkpt>
      <trkpt lat="47.29529" lon="-1.70901">
        <ele>69.3</ele>
        <time>2014-10-12T08:28:42Z</time>
      </trkpt>
      <trkpt lat="47.2953" lon="-1.70905">
        <ele>69.3</ele>
        <time>2014-10-12T08:28:43Z</time>
      </trkpt>
      <trkpt lat="47.29532" lon="-1.70909">
        <ele>69.4</ele>
        <time>2014-10-12T08:28:44Z</time>
      </trkpt>
      <trkpt lat="47.29533" lon="-1.70914">
        <ele>69.5</ele>
        <time>2014-10-12T08:28:45Z</time>
      </trkpt>
      <trkpt lat="47.29535" lon="-1.7092">
        <ele>69.6</ele>
        <time>2014-10-12T08:28:47Z</time>
      </trkpt>
      <trkpt lat="47.29537" lon="-1.70924">
        <ele>69.7</ele>
        <time>2014-10-12T08:28:48Z</time>
      </trkpt>
      <trkpt lat="47.29539" lon="-1.70932">
        <ele>69.9</ele>
        <time>2014-10-12T08:28:50Z</time>
      </trkpt>
      <trkpt lat="47.29541" lon="-1.70937">
        <ele>70</ele>
        <time>2014-10-12T08:28:51Z</time>
      </trkpt>
      <trkpt lat="47.29545" lon="-1.70941">
        <ele>69.8</ele>
        <time>2014-10-12T08:28:52Z</time>
      </trkpt>
      <trkpt lat="47.29547" lon="-1.70945">
        <ele>69.8</ele>
        <time>2014-10-12T08:28:53Z</time>
      </trkpt>
      <trkpt lat="47.29549" lon="-1.70949">
        <ele>69.8</ele>
        <time>2014-10-12T08:28:54Z</time>
      </trkpt>
      <trkpt lat="47.29552" lon="-1.70957">
        <ele>69.8</ele>
        <time>2014-10-12T08:28:56Z</time>
      </trkpt>
      <trkpt lat="47.29555" lon="-1.70966">
        <ele>69.6</ele>
        <time>2014-10-12T08:28:58Z</time>
      </trkpt>
      <trkpt lat="47.29558" lon="-1.70971">
        <ele>69.5</ele>
        <time>2014-10-12T08:28:59Z</time>
      </trkpt>
      <trkpt lat="47.2956" lon="-1.70975">
        <ele>69.3</ele>
        <time>2014-10-12T08:29:00Z</time>
      </trkpt>
      <trkpt lat="47.29562" lon="-1.70979">
        <ele>69.1</ele>
        <time>2014-10-12T08:29:01Z</time>
      </trkpt>
      <trkpt lat="47.29566" lon="-1.70985">
        <ele>68.8</ele>
        <time>2014-10-12T08:29:02Z</time>
      </trkpt>
      <trkpt lat="47.29568" lon="-1.7099">
        <ele>68.7</ele>
        <time>2014-10-12T08:29:03Z</time>
      </trkpt>
      <trkpt lat="47.29571" lon="-1.70996">
        <ele>68.5</ele>
        <time>2014-10-12T08:29:04Z</time>
      </trkpt>
      <trkpt lat="47.29572" lon="-1.70999">
        <ele>68.4</ele>
        <time>2014-10-12T08:29:05Z</time>
      </trkpt>
      <trkpt lat="47.29575" lon="-1.71006">
        <ele>68.2</ele>
        <time>2014-10-12T08:29:07Z</time>
      </trkpt>
      <trkpt lat="47.29579" lon="-1.71013">
        <ele>67.9</ele>
        <time>2014-10-12T08:29:09Z</time>
      </trkpt>
      <trkpt lat="47.29583" lon="-1.71019">
        <ele>67.7</ele>
        <time>2014-10-12T08:29:10Z</time>
      </trkpt>
      <trkpt lat="47.29586" lon="-1.71025">
        <ele>67.5</ele>
        <time>2014-10-12T08:29:11Z</time>
      </trkpt>
      <trkpt lat="47.29588" lon="-1.71029">
        <ele>67.3</ele>
        <time>2014-10-12T08:29:12Z</time>
      </trkpt>
      <trkpt lat="47.2959" lon="-1.71033">
        <ele>67.2</ele>
        <time>2014-10-12T08:29:13Z</time>
      </trkpt>
      <trkpt lat="47.29592" lon="-1.71038">
        <ele>67.1</ele>
        <time>2014-10-12T08:29:14Z</time>
      </trkpt>
      <trkpt lat="47.29593" lon="-1.71043">
        <ele>67</ele>
        <time>2014-10-12T08:29:15Z</time>
      </trkpt>
      <trkpt lat="47.29595" lon="-1.71046">
        <ele>66.7</ele>
        <time>2014-10-12T08:29:16Z</time>
      </trkpt>
      <trkpt lat="47.29596" lon="-1.7105">
        <ele>66.5</ele>
        <time>2014-10-12T08:29:17Z</time>
      </trkpt>
      <trkpt lat="47.29599" lon="-1.71056">
        <ele>65.9</ele>
        <time>2014-10-12T08:29:19Z</time>
      </trkpt>
      <trkpt lat="47.29601" lon="-1.71062">
        <ele>65.5</ele>
        <time>2014-10-12T08:29:20Z</time>
      </trkpt>
      <trkpt lat="47.29603" lon="-1.71068">
        <ele>65</ele>
        <time>2014-10-12T08:29:22Z</time>
      </trkpt>
      <trkpt lat="47.29605" lon="-1.71074">
        <ele>64.6</ele>
        <time>2014-10-12T08:29:24Z</time>
      </trkpt>
      <trkpt lat="47.29606" lon="-1.71078">
        <ele>64.3</ele>
        <time>2014-10-12T08:29:26Z</time>
      </trkpt>
      <trkpt lat="47.29608" lon="-1.71082">
        <ele>63.9</ele>
        <time>2014-10-12T08:29:29Z</time>
      </trkpt>
      <trkpt lat="47.29611" lon="-1.71084">
        <ele>63.5</ele>
        <time>2014-10-12T08:29:31Z</time>
      </trkpt>
      <trkpt lat="47.29613" lon="-1.71086">
        <ele>63.1</ele>
        <time>2014-10-12T08:29:32Z</time>
      </trkpt>
      <trkpt lat="47.29617" lon="-1.71089">
        <ele>62.6</ele>
        <time>2014-10-12T08:29:34Z</time>
      </trkpt>
      <trkpt lat="47.2965" lon="-1.71122">
        <ele>59.5</ele>
        <time>2014-10-12T08:29:47Z</time>
      </trkpt>
      <trkpt lat="47.29653" lon="-1.71123">
        <ele>59.4</ele>
        <time>2014-10-12T08:29:48Z</time>
      </trkpt>
      <trkpt lat="47.29655" lon="-1.71125">
        <ele>59.3</ele>
        <time>2014-10-12T08:29:49Z</time>
      </trkpt>
      <trkpt lat="47.2966" lon="-1.71127">
        <ele>59.2</ele>
        <time>2014-10-12T08:29:51Z</time>
      </trkpt>
      <trkpt lat="47.29662" lon="-1.7113">
        <ele>59.1</ele>
        <time>2014-10-12T08:29:53Z</time>
      </trkpt>
      <trkpt lat="47.29665" lon="-1.71131">
        <ele>59</ele>
        <time>2014-10-12T08:29:55Z</time>
      </trkpt>
      <trkpt lat="47.29668" lon="-1.71134">
        <ele>58.9</ele>
        <time>2014-10-12T08:29:57Z</time>
      </trkpt>
      <trkpt lat="47.2967" lon="-1.71137">
        <ele>58.8</ele>
        <time>2014-10-12T08:29:59Z</time>
      </trkpt>
      <trkpt lat="47.2967" lon="-1.71161">
        <ele>58.7</ele>
        <time>2014-10-12T08:30:06Z</time>
      </trkpt>
      <trkpt lat="47.29668" lon="-1.71167">
        <ele>58.7</ele>
        <time>2014-10-12T08:30:08Z</time>
      </trkpt>
      <trkpt lat="47.29668" lon="-1.71174">
        <ele>58.7</ele>
        <time>2014-10-12T08:30:10Z</time>
      </trkpt>
      <trkpt lat="47.29667" lon="-1.71179">
        <ele>58.7</ele>
        <time>2014-10-12T08:30:12Z</time>
      </trkpt>
      <trkpt lat="47.29669" lon="-1.71186">
        <ele>58.6</ele>
        <time>2014-10-12T08:30:14Z</time>
      </trkpt>
      <trkpt lat="47.29671" lon="-1.71194">
        <ele>58.4</ele>
        <time>2014-10-12T08:30:16Z</time>
      </trkpt>
      <trkpt lat="47.29672" lon="-1.71201">
        <ele>58.4</ele>
        <time>2014-10-12T08:30:18Z</time>
      </trkpt>
      <trkpt lat="47.29677" lon="-1.7121">
        <ele>58.2</ele>
        <time>2014-10-12T08:30:19Z</time>
      </trkpt>
      <trkpt lat="47.29677" lon="-1.71218">
        <ele>58.4</ele>
        <time>2014-10-12T08:30:21Z</time>
      </trkpt>
      <trkpt lat="47.29673" lon="-1.71222">
        <ele>58.6</ele>
        <time>2014-10-12T08:30:23Z</time>
      </trkpt>
      <trkpt lat="47.29673" lon="-1.71227">
        <ele>58.8</ele>
        <time>2014-10-12T08:30:25Z</time>
      </trkpt>
      <trkpt lat="47.29673" lon="-1.71234">
        <ele>58.9</ele>
        <time>2014-10-12T08:30:27Z</time>
      </trkpt>
      <trkpt lat="47.29672" lon="-1.71238">
        <ele>59.1</ele>
        <time>2014-10-12T08:30:29Z</time>
      </trkpt>
      <trkpt lat="47.29669" lon="-1.71241">
        <ele>59.2</ele>
        <time>2014-10-12T08:30:31Z</time>
      </trkpt>
      <trkpt lat="47.29664" lon="-1.71244">
        <ele>59.4</ele>
        <time>2014-10-12T08:30:33Z</time>
      </trkpt>
      <trkpt lat="47.2966" lon="-1.71246">
        <ele>59.6</ele>
        <time>2014-10-12T08:30:35Z</time>
      </trkpt>
      <trkpt lat="47.29656" lon="-1.7125">
        <ele>59.8</ele>
        <time>2014-10-12T08:30:37Z</time>
      </trkpt>
      <trkpt lat="47.29652" lon="-1.71253">
        <ele>59.9</ele>
        <time>2014-10-12T08:30:39Z</time>
      </trkpt>
      <trkpt lat="47.29648" lon="-1.71256">
        <ele>60.1</ele>
        <time>2014-10-12T08:30:41Z</time>
      </trkpt>
      <trkpt lat="47.29645" lon="-1.71257">
        <ele>60.1</ele>
        <time>2014-10-12T08:30:42Z</time>
      </trkpt>
      <trkpt lat="47.29641" lon="-1.71261">
        <ele>60.3</ele>
        <time>2014-10-12T08:30:44Z</time>
      </trkpt>
      <trkpt lat="47.29639" lon="-1.71265">
        <ele>60.4</ele>
        <time>2014-10-12T08:30:46Z</time>
      </trkpt>
      <trkpt lat="47.29636" lon="-1.71268">
        <ele>60.5</ele>
        <time>2014-10-12T08:30:47Z</time>
      </trkpt>
      <trkpt lat="47.29625" lon="-1.71283">
        <ele>60.9</ele>
        <time>2014-10-12T08:30:55Z</time>
      </trkpt>
      <trkpt lat="47.29623" lon="-1.71287">
        <ele>61.2</ele>
        <time>2014-10-12T08:30:57Z</time>
      </trkpt>
      <trkpt lat="47.29622" lon="-1.71292">
        <ele>61.3</ele>
        <time>2014-10-12T08:30:59Z</time>
      </trkpt>
      <trkpt lat="47.2962" lon="-1.71297">
        <ele>61.7</ele>
        <time>2014-10-12T08:31:02Z</time>
      </trkpt>
      <trkpt lat="47.29617" lon="-1.713">
        <ele>62.1</ele>
        <time>2014-10-12T08:31:04Z</time>
      </trkpt>
      <trkpt lat="47.29617" lon="-1.71306">
        <ele>62.2</ele>
        <time>2014-10-12T08:31:06Z</time>
      </trkpt>
      <trkpt lat="47.29615" lon="-1.71312">
        <ele>62.5</ele>
        <time>2014-10-12T08:31:08Z</time>
      </trkpt>
      <trkpt lat="47.29613" lon="-1.71316">
        <ele>62.8</ele>
        <time>2014-10-12T08:31:11Z</time>
      </trkpt>
      <trkpt lat="47.2961" lon="-1.7132">
        <ele>63</ele>
        <time>2014-10-12T08:31:14Z</time>
      </trkpt>
      <trkpt lat="47.29609" lon="-1.71324">
        <ele>63.1</ele>
        <time>2014-10-12T08:31:16Z</time>
      </trkpt>
      <trkpt lat="47.29605" lon="-1.71328">
        <ele>63.6</ele>
        <time>2014-10-12T08:31:18Z</time>
      </trkpt>
      <trkpt lat="47.29603" lon="-1.71333">
        <ele>63.8</ele>
        <time>2014-10-12T08:31:20Z</time>
      </trkpt>
      <trkpt lat="47.29601" lon="-1.71339">
        <ele>63.9</ele>
        <time>2014-10-12T08:31:22Z</time>
      </trkpt>
      <trkpt lat="47.29601" lon="-1.71344">
        <ele>63.9</ele>
        <time>2014-10-12T08:31:24Z</time>
      </trkpt>
      <trkpt lat="47.296" lon="-1.71349">
        <ele>63.9</ele>
        <time>2014-10-12T08:31:26Z</time>
      </trkpt>
      <trkpt lat="47.296" lon="-1.71355">
        <ele>63.9</ele>
        <time>2014-10-12T08:31:29Z</time>
      </trkpt>
      <trkpt lat="47.29598" lon="-1.7136">
        <ele>64</ele>
        <time>2014-10-12T08:31:31Z</time>
      </trkpt>
      <trkpt lat="47.29597" lon="-1.71366">
        <ele>64</ele>
        <time>2014-10-12T08:31:33Z</time>
      </trkpt>
      <trkpt lat="47.29595" lon="-1.7137">
        <ele>64.1</ele>
        <time>2014-10-12T08:31:35Z</time>
      </trkpt>
      <trkpt lat="47.29594" lon="-1.71374">
        <ele>64.1</ele>
        <time>2014-10-12T08:31:37Z</time>
      </trkpt>
      <trkpt lat="47.29592" lon="-1.71378">
        <ele>64.2</ele>
        <time>2014-10-12T08:31:39Z</time>
      </trkpt>
      <trkpt lat="47.29592" lon="-1.71382">
        <ele>64.2</ele>
        <time>2014-10-12T08:31:41Z</time>
      </trkpt>
      <trkpt lat="47.29591" lon="-1.71387">
        <ele>64.2</ele>
        <time>2014-10-12T08:31:43Z</time>
      </trkpt>
      <trkpt lat="47.29592" lon="-1.71391">
        <ele>64.1</ele>
        <time>2014-10-12T08:31:46Z</time>
      </trkpt>
      <trkpt lat="47.2959" lon="-1.71396">
        <ele>64.1</ele>
        <time>2014-10-12T08:31:50Z</time>
      </trkpt>
      <trkpt lat="47.29589" lon="-1.71401">
        <ele>64.1</ele>
        <time>2014-10-12T08:31:52Z</time>
      </trkpt>
      <trkpt lat="47.29589" lon="-1.71406">
        <ele>64.1</ele>
        <time>2014-10-12T08:31:53Z</time>
      </trkpt>
      <trkpt lat="47.29587" lon="-1.71411">
        <ele>64.1</ele>
        <time>2014-10-12T08:31:54Z</time>
      </trkpt>
      <trkpt lat="47.29587" lon="-1.71416">
        <ele>64</ele>
        <time>2014-10-12T08:31:56Z</time>
      </trkpt>
      <trkpt lat="47.29587" lon="-1.71421">
        <ele>64</ele>
        <time>2014-10-12T08:31:59Z</time>
      </trkpt>
      <trkpt lat="47.29588" lon="-1.71426">
        <ele>63.9</ele>
        <time>2014-10-12T08:32:01Z</time>
      </trkpt>
      <trkpt lat="47.29588" lon="-1.71432">
        <ele>63.9</ele>
        <time>2014-10-12T08:32:03Z</time>
      </trkpt>
      <trkpt lat="47.29589" lon="-1.71439">
        <ele>63.8</ele>
        <time>2014-10-12T08:32:05Z</time>
      </trkpt>
      <trkpt lat="47.29589" lon="-1.71444">
        <ele>63.8</ele>
        <time>2014-10-12T08:32:06Z</time>
      </trkpt>
      <trkpt lat="47.29589" lon="-1.71448">
        <ele>63.8</ele>
        <time>2014-10-12T08:32:07Z</time>
      </trkpt>
      <trkpt lat="47.29588" lon="-1.71455">
        <ele>63.7</ele>
        <time>2014-10-12T08:32:09Z</time>
      </trkpt>
      <trkpt lat="47.29586" lon="-1.71458">
        <ele>63.6</ele>
        <time>2014-10-12T08:32:10Z</time>
      </trkpt>
      <trkpt lat="47.29585" lon="-1.71462">
        <ele>63.6</ele>
        <time>2014-10-12T08:32:11Z</time>
      </trkpt>
      <trkpt lat="47.29583" lon="-1.71468">
        <ele>63.7</ele>
        <time>2014-10-12T08:32:13Z</time>
      </trkpt>
      <trkpt lat="47.29582" lon="-1.71475">
        <ele>63.8</ele>
        <time>2014-10-12T08:32:15Z</time>
      </trkpt>
      <trkpt lat="47.29581" lon="-1.71483">
        <ele>63.8</ele>
        <time>2014-10-12T08:32:17Z</time>
      </trkpt>
      <trkpt lat="47.2958" lon="-1.7149">
        <ele>63.9</ele>
        <time>2014-10-12T08:32:19Z</time>
      </trkpt>
      <trkpt lat="47.2958" lon="-1.71494">
        <ele>64</ele>
        <time>2014-10-12T08:32:20Z</time>
      </trkpt>
      <trkpt lat="47.29579" lon="-1.71498">
        <ele>64</ele>
        <time>2014-10-12T08:32:21Z</time>
      </trkpt>
      <trkpt lat="47.29578" lon="-1.71505">
        <ele>64.1</ele>
        <time>2014-10-12T08:32:23Z</time>
      </trkpt>
      <trkpt lat="47.29577" lon="-1.7151">
        <ele>64.1</ele>
        <time>2014-10-12T08:32:24Z</time>
      </trkpt>
      <trkpt lat="47.29576" lon="-1.71518">
        <ele>64.2</ele>
        <time>2014-10-12T08:32:26Z</time>
      </trkpt>
      <trkpt lat="47.29575" lon="-1.71525">
        <ele>64.3</ele>
        <time>2014-10-12T08:32:28Z</time>
      </trkpt>
      <trkpt lat="47.29573" lon="-1.71528">
        <ele>64.3</ele>
        <time>2014-10-12T08:32:29Z</time>
      </trkpt>
      <trkpt lat="47.29571" lon="-1.71535">
        <ele>64.3</ele>
        <time>2014-10-12T08:32:31Z</time>
      </trkpt>
      <trkpt lat="47.29569" lon="-1.71539">
        <ele>64.3</ele>
        <time>2014-10-12T08:32:32Z</time>
      </trkpt>
      <trkpt lat="47.29568" lon="-1.71542">
        <ele>64.3</ele>
        <time>2014-10-12T08:32:33Z</time>
      </trkpt>
      <trkpt lat="47.29566" lon="-1.71546">
        <ele>64.3</ele>
        <time>2014-10-12T08:32:34Z</time>
      </trkpt>
      <trkpt lat="47.29565" lon="-1.71551">
        <ele>64.4</ele>
        <time>2014-10-12T08:32:35Z</time>
      </trkpt>
      <trkpt lat="47.29564" lon="-1.71555">
        <ele>64.5</ele>
        <time>2014-10-12T08:32:36Z</time>
      </trkpt>
      <trkpt lat="47.29564" lon="-1.71559">
        <ele>64.6</ele>
        <time>2014-10-12T08:32:37Z</time>
      </trkpt>
      <trkpt lat="47.29564" lon="-1.71563">
        <ele>64.7</ele>
        <time>2014-10-12T08:32:38Z</time>
      </trkpt>
      <trkpt lat="47.29565" lon="-1.71567">
        <ele>64.9</ele>
        <time>2014-10-12T08:32:39Z</time>
      </trkpt>
      <trkpt lat="47.29566" lon="-1.71571">
        <ele>65</ele>
        <time>2014-10-12T08:32:40Z</time>
      </trkpt>
      <trkpt lat="47.29567" lon="-1.71575">
        <ele>65.2</ele>
        <time>2014-10-12T08:32:41Z</time>
      </trkpt>
      <trkpt lat="47.29568" lon="-1.71578">
        <ele>65.3</ele>
        <time>2014-10-12T08:32:42Z</time>
      </trkpt>
      <trkpt lat="47.2957" lon="-1.71585">
        <ele>65.6</ele>
        <time>2014-10-12T08:32:44Z</time>
      </trkpt>
      <trkpt lat="47.29572" lon="-1.71589">
        <ele>65.7</ele>
        <time>2014-10-12T08:32:45Z</time>
      </trkpt>
      <trkpt lat="47.29573" lon="-1.71593">
        <ele>65.9</ele>
        <time>2014-10-12T08:32:46Z</time>
      </trkpt>
      <trkpt lat="47.29575" lon="-1.716">
        <ele>66.1</ele>
        <time>2014-10-12T08:32:48Z</time>
      </trkpt>
      <trkpt lat="47.29576" lon="-1.71604">
        <ele>66.3</ele>
        <time>2014-10-12T08:32:49Z</time>
      </trkpt>
      <trkpt lat="47.29577" lon="-1.71608">
        <ele>66.4</ele>
        <time>2014-10-12T08:32:50Z</time>
      </trkpt>
      <trkpt lat="47.29578" lon="-1.71612">
        <ele>66.5</ele>
        <time>2014-10-12T08:32:51Z</time>
      </trkpt>
      <trkpt lat="47.2958" lon="-1.71616">
        <ele>66.7</ele>
        <time>2014-10-12T08:32:52Z</time>
      </trkpt>
      <trkpt lat="47.29581" lon="-1.7162">
        <ele>66.8</ele>
        <time>2014-10-12T08:32:53Z</time>
      </trkpt>
      <trkpt lat="47.29582" lon="-1.71623">
        <ele>66.9</ele>
        <time>2014-10-12T08:32:54Z</time>
      </trkpt>
      <trkpt lat="47.29583" lon="-1.71628">
        <ele>67.1</ele>
        <time>2014-10-12T08:32:55Z</time>
      </trkpt>
      <trkpt lat="47.29584" lon="-1.71632">
        <ele>67.2</ele>
        <time>2014-10-12T08:32:56Z</time>
      </trkpt>
      <trkpt lat="47.29587" lon="-1.71638">
        <ele>67.4</ele>
        <time>2014-10-12T08:32:58Z</time>
      </trkpt>
      <trkpt lat="47.29589" lon="-1.71645">
        <ele>67.6</ele>
        <time>2014-10-12T08:33:00Z</time>
      </trkpt>
      <trkpt lat="47.2959" lon="-1.71652">
        <ele>67.8</ele>
        <time>2014-10-12T08:33:02Z</time>
      </trkpt>
      <trkpt lat="47.29591" lon="-1.71659">
        <ele>67.9</ele>
        <time>2014-10-12T08:33:04Z</time>
      </trkpt>
      <trkpt lat="47.29588" lon="-1.71664">
        <ele>68</ele>
        <time>2014-10-12T08:33:06Z</time>
      </trkpt>
      <trkpt lat="47.29583" lon="-1.71665">
        <ele>68</ele>
        <time>2014-10-12T08:33:08Z</time>
      </trkpt>
      <trkpt lat="47.2958" lon="-1.71665">
        <ele>67.9</ele>
        <time>2014-10-12T08:33:09Z</time>
      </trkpt>
      <trkpt lat="47.29577" lon="-1.71665">
        <ele>67.9</ele>
        <time>2014-10-12T08:33:10Z</time>
      </trkpt>
      <trkpt lat="47.29574" lon="-1.71665">
        <ele>67.9</ele>
        <time>2014-10-12T08:33:11Z</time>
      </trkpt>
      <trkpt lat="47.29571" lon="-1.71666">
        <ele>67.8</ele>
        <time>2014-10-12T08:33:12Z</time>
      </trkpt>
      <trkpt lat="47.29568" lon="-1.71666">
        <ele>67.8</ele>
        <time>2014-10-12T08:33:13Z</time>
      </trkpt>
      <trkpt lat="47.29565" lon="-1.71666">
        <ele>67.8</ele>
        <time>2014-10-12T08:33:14Z</time>
      </trkpt>
      <trkpt lat="47.29562" lon="-1.71667">
        <ele>67.7</ele>
        <time>2014-10-12T08:33:15Z</time>
      </trkpt>
      <trkpt lat="47.29559" lon="-1.71667">
        <ele>67.7</ele>
        <time>2014-10-12T08:33:16Z</time>
      </trkpt>
      <trkpt lat="47.29555" lon="-1.71668">
        <ele>67.7</ele>
        <time>2014-10-12T08:33:17Z</time>
      </trkpt>
      <trkpt lat="47.29552" lon="-1.71669">
        <ele>67.7</ele>
        <time>2014-10-12T08:33:18Z</time>
      </trkpt>
      <trkpt lat="47.29549" lon="-1.7167">
        <ele>67.7</ele>
        <time>2014-10-12T08:33:19Z</time>
      </trkpt>
      <trkpt lat="47.29545" lon="-1.71671">
        <ele>67.7</ele>
        <time>2014-10-12T08:33:20Z</time>
      </trkpt>
      <trkpt lat="47.29542" lon="-1.71673">
        <ele>67.7</ele>
        <time>2014-10-12T08:33:21Z</time>
      </trkpt>
      <trkpt lat="47.29539" lon="-1.71674">
        <ele>67.7</ele>
        <time>2014-10-12T08:33:22Z</time>
      </trkpt>
      <trkpt lat="47.29535" lon="-1.71675">
        <ele>67.8</ele>
        <time>2014-10-12T08:33:23Z</time>
      </trkpt>
      <trkpt lat="47.29532" lon="-1.71677">
        <ele>67.8</ele>
        <time>2014-10-12T08:33:24Z</time>
      </trkpt>
      <trkpt lat="47.29529" lon="-1.71678">
        <ele>67.9</ele>
        <time>2014-10-12T08:33:25Z</time>
      </trkpt>
      <trkpt lat="47.29526" lon="-1.71679">
        <ele>67.9</ele>
        <time>2014-10-12T08:33:26Z</time>
      </trkpt>
      <trkpt lat="47.29523" lon="-1.7168">
        <ele>68</ele>
        <time>2014-10-12T08:33:27Z</time>
      </trkpt>
      <trkpt lat="47.29519" lon="-1.71684">
        <ele>68.1</ele>
        <time>2014-10-12T08:33:29Z</time>
      </trkpt>
      <trkpt lat="47.29518" lon="-1.71691">
        <ele>68.5</ele>
        <time>2014-10-12T08:33:31Z</time>
      </trkpt>
      <trkpt lat="47.29519" lon="-1.71694">
        <ele>68.6</ele>
        <time>2014-10-12T08:33:32Z</time>
      </trkpt>
      <trkpt lat="47.29524" lon="-1.717">
        <ele>68.8</ele>
        <time>2014-10-12T08:33:34Z</time>
      </trkpt>
      <trkpt lat="47.29526" lon="-1.71704">
        <ele>69</ele>
        <time>2014-10-12T08:33:35Z</time>
      </trkpt>
      <trkpt lat="47.29527" lon="-1.71708">
        <ele>69.1</ele>
        <time>2014-10-12T08:33:36Z</time>
      </trkpt>
      <trkpt lat="47.29529" lon="-1.71712">
        <ele>69.2</ele>
        <time>2014-10-12T08:33:37Z</time>
      </trkpt>
      <trkpt lat="47.2953" lon="-1.71715">
        <ele>69.3</ele>
        <time>2014-10-12T08:33:38Z</time>
      </trkpt>
      <trkpt lat="47.29532" lon="-1.71719">
        <ele>69.4</ele>
        <time>2014-10-12T08:33:39Z</time>
      </trkpt>
      <trkpt lat="47.29534" lon="-1.71723">
        <ele>69.4</ele>
        <time>2014-10-12T08:33:40Z</time>
      </trkpt>
      <trkpt lat="47.29536" lon="-1.71726">
        <ele>69.5</ele>
        <time>2014-10-12T08:33:41Z</time>
      </trkpt>
      <trkpt lat="47.29537" lon="-1.7173">
        <ele>69.6</ele>
        <time>2014-10-12T08:33:42Z</time>
      </trkpt>
      <trkpt lat="47.29539" lon="-1.71734">
        <ele>69.6</ele>
        <time>2014-10-12T08:33:43Z</time>
      </trkpt>
      <trkpt lat="47.29541" lon="-1.71738">
        <ele>69.7</ele>
        <time>2014-10-12T08:33:44Z</time>
      </trkpt>
      <trkpt lat="47.29542" lon="-1.71741">
        <ele>69.8</ele>
        <time>2014-10-12T08:33:45Z</time>
      </trkpt>
      <trkpt lat="47.29544" lon="-1.71745">
        <ele>69.9</ele>
        <time>2014-10-12T08:33:46Z</time>
      </trkpt>
      <trkpt lat="47.29546" lon="-1.71749">
        <ele>69.9</ele>
        <time>2014-10-12T08:33:47Z</time>
      </trkpt>
      <trkpt lat="47.29547" lon="-1.71752">
        <ele>70</ele>
        <time>2014-10-12T08:33:48Z</time>
      </trkpt>
      <trkpt lat="47.29549" lon="-1.71756">
        <ele>70.1</ele>
        <time>2014-10-12T08:33:49Z</time>
      </trkpt>
      <trkpt lat="47.2955" lon="-1.7176">
        <ele>70.2</ele>
        <time>2014-10-12T08:33:50Z</time>
      </trkpt>
      <trkpt lat="47.29552" lon="-1.71763">
        <ele>70.2</ele>
        <time>2014-10-12T08:33:51Z</time>
      </trkpt>
      <trkpt lat="47.29553" lon="-1.71767">
        <ele>70.3</ele>
        <time>2014-10-12T08:33:52Z</time>
      </trkpt>
      <trkpt lat="47.29554" lon="-1.7177">
        <ele>70.4</ele>
        <time>2014-10-12T08:33:53Z</time>
      </trkpt>
      <trkpt lat="47.29555" lon="-1.71774">
        <ele>70.5</ele>
        <time>2014-10-12T08:33:54Z</time>
      </trkpt>
      <trkpt lat="47.29557" lon="-1.71778">
        <ele>70.5</ele>
        <time>2014-10-12T08:33:55Z</time>
      </trkpt>
      <trkpt lat="47.29558" lon="-1.71782">
        <ele>70.6</ele>
        <time>2014-10-12T08:33:56Z</time>
      </trkpt>
      <trkpt lat="47.2956" lon="-1.71786">
        <ele>70.7</ele>
        <time>2014-10-12T08:33:57Z</time>
      </trkpt>
      <trkpt lat="47.29561" lon="-1.7179">
        <ele>70.7</ele>
        <time>2014-10-12T08:33:58Z</time>
      </trkpt>
      <trkpt lat="47.29563" lon="-1.71793">
        <ele>70.8</ele>
        <time>2014-10-12T08:33:59Z</time>
      </trkpt>
      <trkpt lat="47.29564" lon="-1.71797">
        <ele>70.8</ele>
        <time>2014-10-12T08:34:00Z</time>
      </trkpt>
      <trkpt lat="47.29566" lon="-1.71801">
        <ele>70.9</ele>
        <time>2014-10-12T08:34:01Z</time>
      </trkpt>
      <trkpt lat="47.29567" lon="-1.71805">
        <ele>70.9</ele>
        <time>2014-10-12T08:34:02Z</time>
      </trkpt>
      <trkpt lat="47.29569" lon="-1.71808">
        <ele>70.9</ele>
        <time>2014-10-12T08:34:03Z</time>
      </trkpt>
      <trkpt lat="47.29571" lon="-1.71816">
        <ele>71</ele>
        <time>2014-10-12T08:34:05Z</time>
      </trkpt>
      <trkpt lat="47.29573" lon="-1.7182">
        <ele>71.1</ele>
        <time>2014-10-12T08:34:06Z</time>
      </trkpt>
      <trkpt lat="47.29574" lon="-1.71824">
        <ele>71.1</ele>
        <time>2014-10-12T08:34:07Z</time>
      </trkpt>
      <trkpt lat="47.29576" lon="-1.71828">
        <ele>71.1</ele>
        <time>2014-10-12T08:34:08Z</time>
      </trkpt>
      <trkpt lat="47.29577" lon="-1.71833">
        <ele>71.1</ele>
        <time>2014-10-12T08:34:09Z</time>
      </trkpt>
      <trkpt lat="47.29579" lon="-1.71837">
        <ele>71.2</ele>
        <time>2014-10-12T08:34:10Z</time>
      </trkpt>
      <trkpt lat="47.2958" lon="-1.71842">
        <ele>71.2</ele>
        <time>2014-10-12T08:34:11Z</time>
      </trkpt>
      <trkpt lat="47.29582" lon="-1.71846">
        <ele>71.2</ele>
        <time>2014-10-12T08:34:12Z</time>
      </trkpt>
      <trkpt lat="47.29583" lon="-1.7185">
        <ele>71.2</ele>
        <time>2014-10-12T08:34:13Z</time>
      </trkpt>
      <trkpt lat="47.29585" lon="-1.71855">
        <ele>71.2</ele>
        <time>2014-10-12T08:34:14Z</time>
      </trkpt>
      <trkpt lat="47.29586" lon="-1.7186">
        <ele>71.2</ele>
        <time>2014-10-12T08:34:15Z</time>
      </trkpt>
      <trkpt lat="47.29588" lon="-1.71864">
        <ele>71.2</ele>
        <time>2014-10-12T08:34:16Z</time>
      </trkpt>
      <trkpt lat="47.29589" lon="-1.71869">
        <ele>71.2</ele>
        <time>2014-10-12T08:34:17Z</time>
      </trkpt>
      <trkpt lat="47.29591" lon="-1.71874">
        <ele>71.2</ele>
        <time>2014-10-12T08:34:18Z</time>
      </trkpt>
      <trkpt lat="47.29592" lon="-1.71879">
        <ele>71.1</ele>
        <time>2014-10-12T08:34:19Z</time>
      </trkpt>
      <trkpt lat="47.29593" lon="-1.71884">
        <ele>71</ele>
        <time>2014-10-12T08:34:20Z</time>
      </trkpt>
      <trkpt lat="47.29595" lon="-1.7189">
        <ele>70.9</ele>
        <time>2014-10-12T08:34:21Z</time>
      </trkpt>
      <trkpt lat="47.29596" lon="-1.71895">
        <ele>70.8</ele>
        <time>2014-10-12T08:34:22Z</time>
      </trkpt>
      <trkpt lat="47.29596" lon="-1.71901">
        <ele>70.7</ele>
        <time>2014-10-12T08:34:23Z</time>
      </trkpt>
      <trkpt lat="47.29597" lon="-1.71906">
        <ele>70.6</ele>
        <time>2014-10-12T08:34:24Z</time>
      </trkpt>
      <trkpt lat="47.29597" lon="-1.71911">
        <ele>70.6</ele>
        <time>2014-10-12T08:34:25Z</time>
      </trkpt>
      <trkpt lat="47.29597" lon="-1.71917">
        <ele>70.5</ele>
        <time>2014-10-12T08:34:26Z</time>
      </trkpt>
      <trkpt lat="47.29597" lon="-1.71922">
        <ele>70.4</ele>
        <time>2014-10-12T08:34:27Z</time>
      </trkpt>
      <trkpt lat="47.29597" lon="-1.71928">
        <ele>70.4</ele>
        <time>2014-10-12T08:34:28Z</time>
      </trkpt>
      <trkpt lat="47.29597" lon="-1.71934">
        <ele>70.3</ele>
        <time>2014-10-12T08:34:29Z</time>
      </trkpt>
      <trkpt lat="47.29597" lon="-1.71939">
        <ele>70.2</ele>
        <time>2014-10-12T08:34:30Z</time>
      </trkpt>
      <trkpt lat="47.29597" lon="-1.71945">
        <ele>70.2</ele>
        <time>2014-10-12T08:34:31Z</time>
      </trkpt>
      <trkpt lat="47.29597" lon="-1.7195">
        <ele>70.1</ele>
        <time>2014-10-12T08:34:32Z</time>
      </trkpt>
      <trkpt lat="47.29596" lon="-1.71955">
        <ele>70.1</ele>
        <time>2014-10-12T08:34:33Z</time>
      </trkpt>
      <trkpt lat="47.29596" lon="-1.7196">
        <ele>70</ele>
        <time>2014-10-12T08:34:34Z</time>
      </trkpt>
      <trkpt lat="47.29596" lon="-1.71966">
        <ele>70.1</ele>
        <time>2014-10-12T08:34:35Z</time>
      </trkpt>
      <trkpt lat="47.29596" lon="-1.71972">
        <ele>70.1</ele>
        <time>2014-10-12T08:34:36Z</time>
      </trkpt>
      <trkpt lat="47.29596" lon="-1.71977">
        <ele>70.1</ele>
        <time>2014-10-12T08:34:37Z</time>
      </trkpt>
      <trkpt lat="47.29596" lon="-1.71982">
        <ele>70.2</ele>
        <time>2014-10-12T08:34:38Z</time>
      </trkpt>
      <trkpt lat="47.29596" lon="-1.71988">
        <ele>70.2</ele>
        <time>2014-10-12T08:34:39Z</time>
      </trkpt>
      <trkpt lat="47.29595" lon="-1.71993">
        <ele>70.2</ele>
        <time>2014-10-12T08:34:40Z</time>
      </trkpt>
      <trkpt lat="47.29595" lon="-1.71999">
        <ele>70.3</ele>
        <time>2014-10-12T08:34:41Z</time>
      </trkpt>
      <trkpt lat="47.29595" lon="-1.72004">
        <ele>70.3</ele>
        <time>2014-10-12T08:34:42Z</time>
      </trkpt>
      <trkpt lat="47.29594" lon="-1.7201">
        <ele>70.3</ele>
        <time>2014-10-12T08:34:43Z</time>
      </trkpt>
      <trkpt lat="47.29594" lon="-1.72015">
        <ele>70.4</ele>
        <time>2014-10-12T08:34:44Z</time>
      </trkpt>
      <trkpt lat="47.29595" lon="-1.72021">
        <ele>70.4</ele>
        <time>2014-10-12T08:34:45Z</time>
      </trkpt>
      <trkpt lat="47.29594" lon="-1.72026">
        <ele>70.4</ele>
        <time>2014-10-12T08:34:46Z</time>
      </trkpt>
      <trkpt lat="47.29594" lon="-1.72031">
        <ele>70.5</ele>
        <time>2014-10-12T08:34:47Z</time>
      </trkpt>
      <trkpt lat="47.29594" lon="-1.72037">
        <ele>70.5</ele>
        <time>2014-10-12T08:34:48Z</time>
      </trkpt>
      <trkpt lat="47.29594" lon="-1.72043">
        <ele>70.5</ele>
        <time>2014-10-12T08:34:49Z</time>
      </trkpt>
      <trkpt lat="47.29594" lon="-1.72049">
        <ele>70.5</ele>
        <time>2014-10-12T08:34:50Z</time>
      </trkpt>
      <trkpt lat="47.29594" lon="-1.72055">
        <ele>70.6</ele>
        <time>2014-10-12T08:34:51Z</time>
      </trkpt>
      <trkpt lat="47.29594" lon="-1.7206">
        <ele>70.6</ele>
        <time>2014-10-12T08:34:52Z</time>
      </trkpt>
      <trkpt lat="47.29594" lon="-1.72066">
        <ele>70.6</ele>
        <time>2014-10-12T08:34:53Z</time>
      </trkpt>
      <trkpt lat="47.29593" lon="-1.72072">
        <ele>70.7</ele>
        <time>2014-10-12T08:34:54Z</time>
      </trkpt>
      <trkpt lat="47.29593" lon="-1.72077">
        <ele>70.7</ele>
        <time>2014-10-12T08:34:55Z</time>
      </trkpt>
      <trkpt lat="47.29593" lon="-1.72083">
        <ele>70.7</ele>
        <time>2014-10-12T08:34:56Z</time>
      </trkpt>
      <trkpt lat="47.29593" lon="-1.72088">
        <ele>70.8</ele>
        <time>2014-10-12T08:34:57Z</time>
      </trkpt>
      <trkpt lat="47.29592" lon="-1.72094">
        <ele>70.8</ele>
        <time>2014-10-12T08:34:58Z</time>
      </trkpt>
      <trkpt lat="47.29591" lon="-1.72099">
        <ele>70.9</ele>
        <time>2014-10-12T08:34:59Z</time>
      </trkpt>
      <trkpt lat="47.2959" lon="-1.72104">
        <ele>71</ele>
        <time>2014-10-12T08:35:00Z</time>
      </trkpt>
      <trkpt lat="47.29588" lon="-1.72109">
        <ele>71.1</ele>
        <time>2014-10-12T08:35:01Z</time>
      </trkpt>
      <trkpt lat="47.29587" lon="-1.72113">
        <ele>71.2</ele>
        <time>2014-10-12T08:35:02Z</time>
      </trkpt>
      <trkpt lat="47.29585" lon="-1.72117">
        <ele>71.3</ele>
        <time>2014-10-12T08:35:03Z</time>
      </trkpt>
      <trkpt lat="47.29583" lon="-1.72122">
        <ele>71.5</ele>
        <time>2014-10-12T08:35:04Z</time>
      </trkpt>
      <trkpt lat="47.29581" lon="-1.72126">
        <ele>71.6</ele>
        <time>2014-10-12T08:35:05Z</time>
      </trkpt>
      <trkpt lat="47.29579" lon="-1.7213">
        <ele>71.8</ele>
        <time>2014-10-12T08:35:06Z</time>
      </trkpt>
      <trkpt lat="47.29577" lon="-1.72133">
        <ele>72</ele>
        <time>2014-10-12T08:35:07Z</time>
      </trkpt>
      <trkpt lat="47.29575" lon="-1.72138">
        <ele>72.1</ele>
        <time>2014-10-12T08:35:08Z</time>
      </trkpt>
      <trkpt lat="47.29572" lon="-1.72142">
        <ele>72.3</ele>
        <time>2014-10-12T08:35:09Z</time>
      </trkpt>
      <trkpt lat="47.2957" lon="-1.72146">
        <ele>72.5</ele>
        <time>2014-10-12T08:35:10Z</time>
      </trkpt>
      <trkpt lat="47.29567" lon="-1.72149">
        <ele>72.6</ele>
        <time>2014-10-12T08:35:11Z</time>
      </trkpt>
      <trkpt lat="47.29565" lon="-1.72153">
        <ele>72.8</ele>
        <time>2014-10-12T08:35:12Z</time>
      </trkpt>
      <trkpt lat="47.29562" lon="-1.72156">
        <ele>73</ele>
        <time>2014-10-12T08:35:13Z</time>
      </trkpt>
      <trkpt lat="47.2956" lon="-1.7216">
        <ele>73.1</ele>
        <time>2014-10-12T08:35:14Z</time>
      </trkpt>
      <trkpt lat="47.29557" lon="-1.72163">
        <ele>73.2</ele>
        <time>2014-10-12T08:35:15Z</time>
      </trkpt>
      <trkpt lat="47.29555" lon="-1.72166">
        <ele>73.4</ele>
        <time>2014-10-12T08:35:16Z</time>
      </trkpt>
      <trkpt lat="47.29552" lon="-1.7217">
        <ele>73.5</ele>
        <time>2014-10-12T08:35:17Z</time>
      </trkpt>
      <trkpt lat="47.29549" lon="-1.72173">
        <ele>73.6</ele>
        <time>2014-10-12T08:35:18Z</time>
      </trkpt>
      <trkpt lat="47.29547" lon="-1.72176">
        <ele>73.8</ele>
        <time>2014-10-12T08:35:19Z</time>
      </trkpt>
      <trkpt lat="47.29545" lon="-1.72179">
        <ele>73.9</ele>
        <time>2014-10-12T08:35:20Z</time>
      </trkpt>
      <trkpt lat="47.29542" lon="-1.72183">
        <ele>74</ele>
        <time>2014-10-12T08:35:21Z</time>
      </trkpt>
      <trkpt lat="47.29539" lon="-1.72186">
        <ele>74</ele>
        <time>2014-10-12T08:35:22Z</time>
      </trkpt>
      <trkpt lat="47.29537" lon="-1.7219">
        <ele>74.1</ele>
        <time>2014-10-12T08:35:23Z</time>
      </trkpt>
      <trkpt lat="47.29534" lon="-1.72193">
        <ele>74.1</ele>
        <time>2014-10-12T08:35:24Z</time>
      </trkpt>
      <trkpt lat="47.29531" lon="-1.72197">
        <ele>74.2</ele>
        <time>2014-10-12T08:35:25Z</time>
      </trkpt>
      <trkpt lat="47.29528" lon="-1.72201">
        <ele>74.3</ele>
        <time>2014-10-12T08:35:26Z</time>
      </trkpt>
      <trkpt lat="47.29526" lon="-1.72205">
        <ele>74.4</ele>
        <time>2014-10-12T08:35:27Z</time>
      </trkpt>
      <trkpt lat="47.29523" lon="-1.72209">
        <ele>74.5</ele>
        <time>2014-10-12T08:35:28Z</time>
      </trkpt>
      <trkpt lat="47.2952" lon="-1.72213">
        <ele>74.5</ele>
        <time>2014-10-12T08:35:29Z</time>
      </trkpt>
      <trkpt lat="47.29518" lon="-1.72217">
        <ele>74.6</ele>
        <time>2014-10-12T08:35:30Z</time>
      </trkpt>
      <trkpt lat="47.29515" lon="-1.7222">
        <ele>74.7</ele>
        <time>2014-10-12T08:35:31Z</time>
      </trkpt>
      <trkpt lat="47.29513" lon="-1.72224">
        <ele>74.8</ele>
        <time>2014-10-12T08:35:32Z</time>
      </trkpt>
      <trkpt lat="47.2951" lon="-1.72229">
        <ele>74.8</ele>
        <time>2014-10-12T08:35:33Z</time>
      </trkpt>
      <trkpt lat="47.29508" lon="-1.72233">
        <ele>74.9</ele>
        <time>2014-10-12T08:35:34Z</time>
      </trkpt>
      <trkpt lat="47.29506" lon="-1.72237">
        <ele>75</ele>
        <time>2014-10-12T08:35:35Z</time>
      </trkpt>
      <trkpt lat="47.29504" lon="-1.72241">
        <ele>75.1</ele>
        <time>2014-10-12T08:35:36Z</time>
      </trkpt>
      <trkpt lat="47.29501" lon="-1.72245">
        <ele>75.2</ele>
        <time>2014-10-12T08:35:37Z</time>
      </trkpt>
      <trkpt lat="47.29499" lon="-1.72249">
        <ele>75.3</ele>
        <time>2014-10-12T08:35:38Z</time>
      </trkpt>
      <trkpt lat="47.29497" lon="-1.72253">
        <ele>75.4</ele>
        <time>2014-10-12T08:35:39Z</time>
      </trkpt>
      <trkpt lat="47.29494" lon="-1.72258">
        <ele>75.5</ele>
        <time>2014-10-12T08:35:40Z</time>
      </trkpt>
      <trkpt lat="47.29492" lon="-1.72262">
        <ele>75.6</ele>
        <time>2014-10-12T08:35:41Z</time>
      </trkpt>
      <trkpt lat="47.2949" lon="-1.72266">
        <ele>75.7</ele>
        <time>2014-10-12T08:35:42Z</time>
      </trkpt>
      <trkpt lat="47.29489" lon="-1.7227">
        <ele>75.8</ele>
        <time>2014-10-12T08:35:43Z</time>
      </trkpt>
      <trkpt lat="47.29487" lon="-1.72275">
        <ele>75.8</ele>
        <time>2014-10-12T08:35:44Z</time>
      </trkpt>
      <trkpt lat="47.29485" lon="-1.72279">
        <ele>75.9</ele>
        <time>2014-10-12T08:35:45Z</time>
      </trkpt>
      <trkpt lat="47.29483" lon="-1.72283">
        <ele>76</ele>
        <time>2014-10-12T08:35:46Z</time>
      </trkpt>
      <trkpt lat="47.29481" lon="-1.72288">
        <ele>76.1</ele>
        <time>2014-10-12T08:35:47Z</time>
      </trkpt>
      <trkpt lat="47.2948" lon="-1.72292">
        <ele>76.2</ele>
        <time>2014-10-12T08:35:48Z</time>
      </trkpt>
      <trkpt lat="47.29478" lon="-1.72297">
        <ele>76.3</ele>
        <time>2014-10-12T08:35:49Z</time>
      </trkpt>
      <trkpt lat="47.29477" lon="-1.72301">
        <ele>76.4</ele>
        <time>2014-10-12T08:35:50Z</time>
      </trkpt>
      <trkpt lat="47.29475" lon="-1.72306">
        <ele>76.4</ele>
        <time>2014-10-12T08:35:51Z</time>
      </trkpt>
      <trkpt lat="47.29474" lon="-1.7231">
        <ele>76.5</ele>
        <time>2014-10-12T08:35:52Z</time>
      </trkpt>
      <trkpt lat="47.29472" lon="-1.72314">
        <ele>76.5</ele>
        <time>2014-10-12T08:35:53Z</time>
      </trkpt>
      <trkpt lat="47.29471" lon="-1.72319">
        <ele>76.6</ele>
        <time>2014-10-12T08:35:54Z</time>
      </trkpt>
      <trkpt lat="47.29469" lon="-1.72323">
        <ele>76.7</ele>
        <time>2014-10-12T08:35:55Z</time>
      </trkpt>
      <trkpt lat="47.29468" lon="-1.72328">
        <ele>76.7</ele>
        <time>2014-10-12T08:35:56Z</time>
      </trkpt>
      <trkpt lat="47.29466" lon="-1.72332">
        <ele>76.8</ele>
        <time>2014-10-12T08:35:57Z</time>
      </trkpt>
      <trkpt lat="47.29464" lon="-1.72336">
        <ele>76.8</ele>
        <time>2014-10-12T08:35:58Z</time>
      </trkpt>
      <trkpt lat="47.29462" lon="-1.7234">
        <ele>76.9</ele>
        <time>2014-10-12T08:35:59Z</time>
      </trkpt>
      <trkpt lat="47.2946" lon="-1.72345">
        <ele>76.9</ele>
        <time>2014-10-12T08:36:00Z</time>
      </trkpt>
      <trkpt lat="47.29458" lon="-1.72349">
        <ele>77</ele>
        <time>2014-10-12T08:36:01Z</time>
      </trkpt>
      <trkpt lat="47.29456" lon="-1.72353">
        <ele>77</ele>
        <time>2014-10-12T08:36:02Z</time>
      </trkpt>
      <trkpt lat="47.29453" lon="-1.72357">
        <ele>77</ele>
        <time>2014-10-12T08:36:03Z</time>
      </trkpt>
      <trkpt lat="47.29451" lon="-1.72361">
        <ele>77</ele>
        <time>2014-10-12T08:36:04Z</time>
      </trkpt>
      <trkpt lat="47.29446" lon="-1.72366">
        <ele>77</ele>
        <time>2014-10-12T08:36:06Z</time>
      </trkpt>
      <trkpt lat="47.29443" lon="-1.72369">
        <ele>77</ele>
        <time>2014-10-12T08:36:07Z</time>
      </trkpt>
      <trkpt lat="47.2944" lon="-1.72372">
        <ele>77</ele>
        <time>2014-10-12T08:36:08Z</time>
      </trkpt>
      <trkpt lat="47.29436" lon="-1.72375">
        <ele>77</ele>
        <time>2014-10-12T08:36:09Z</time>
      </trkpt>
      <trkpt lat="47.29433" lon="-1.72377">
        <ele>77</ele>
        <time>2014-10-12T08:36:10Z</time>
      </trkpt>
      <trkpt lat="47.29429" lon="-1.72379">
        <ele>77</ele>
        <time>2014-10-12T08:36:11Z</time>
      </trkpt>
      <trkpt lat="47.29425" lon="-1.72381">
        <ele>77.1</ele>
        <time>2014-10-12T08:36:12Z</time>
      </trkpt>
      <trkpt lat="47.29421" lon="-1.72382">
        <ele>77.1</ele>
        <time>2014-10-12T08:36:13Z</time>
      </trkpt>
      <trkpt lat="47.29418" lon="-1.72383">
        <ele>77.1</ele>
        <time>2014-10-12T08:36:14Z</time>
      </trkpt>
      <trkpt lat="47.29414" lon="-1.72383">
        <ele>77.1</ele>
        <time>2014-10-12T08:36:15Z</time>
      </trkpt>
      <trkpt lat="47.2941" lon="-1.72384">
        <ele>77.1</ele>
        <time>2014-10-12T08:36:16Z</time>
      </trkpt>
      <trkpt lat="47.29407" lon="-1.72384">
        <ele>77.1</ele>
        <time>2014-10-12T08:36:17Z</time>
      </trkpt>
      <trkpt lat="47.29404" lon="-1.72384">
        <ele>77.1</ele>
        <time>2014-10-12T08:36:18Z</time>
      </trkpt>
      <trkpt lat="47.29401" lon="-1.72385">
        <ele>77.2</ele>
        <time>2014-10-12T08:36:19Z</time>
      </trkpt>
      <trkpt lat="47.29397" lon="-1.72386">
        <ele>77.2</ele>
        <time>2014-10-12T08:36:20Z</time>
      </trkpt>
      <trkpt lat="47.29394" lon="-1.72387">
        <ele>77.2</ele>
        <time>2014-10-12T08:36:21Z</time>
      </trkpt>
      <trkpt lat="47.2939" lon="-1.72389">
        <ele>77.3</ele>
        <time>2014-10-12T08:36:22Z</time>
      </trkpt>
      <trkpt lat="47.29387" lon="-1.72391">
        <ele>77.3</ele>
        <time>2014-10-12T08:36:23Z</time>
      </trkpt>
      <trkpt lat="47.29384" lon="-1.72394">
        <ele>77.4</ele>
        <time>2014-10-12T08:36:24Z</time>
      </trkpt>
      <trkpt lat="47.29381" lon="-1.72397">
        <ele>77.5</ele>
        <time>2014-10-12T08:36:25Z</time>
      </trkpt>
      <trkpt lat="47.29378" lon="-1.72399">
        <ele>77.6</ele>
        <time>2014-10-12T08:36:26Z</time>
      </trkpt>
      <trkpt lat="47.29375" lon="-1.72401">
        <ele>77.6</ele>
        <time>2014-10-12T08:36:27Z</time>
      </trkpt>
      <trkpt lat="47.29372" lon="-1.72404">
        <ele>77.6</ele>
        <time>2014-10-12T08:36:28Z</time>
      </trkpt>
      <trkpt lat="47.29368" lon="-1.72406">
        <ele>77.6</ele>
        <time>2014-10-12T08:36:29Z</time>
      </trkpt>
      <trkpt lat="47.29365" lon="-1.72408">
        <ele>77.6</ele>
        <time>2014-10-12T08:36:30Z</time>
      </trkpt>
      <trkpt lat="47.29361" lon="-1.7241">
        <ele>77.6</ele>
        <time>2014-10-12T08:36:31Z</time>
      </trkpt>
      <trkpt lat="47.29357" lon="-1.72413">
        <ele>77.6</ele>
        <time>2014-10-12T08:36:32Z</time>
      </trkpt>
      <trkpt lat="47.29353" lon="-1.72414">
        <ele>77.5</ele>
        <time>2014-10-12T08:36:33Z</time>
      </trkpt>
      <trkpt lat="47.29349" lon="-1.72416">
        <ele>77.5</ele>
        <time>2014-10-12T08:36:34Z</time>
      </trkpt>
      <trkpt lat="47.29344" lon="-1.72418">
        <ele>77.5</ele>
        <time>2014-10-12T08:36:35Z</time>
      </trkpt>
      <trkpt lat="47.29339" lon="-1.7242">
        <ele>77.4</ele>
        <time>2014-10-12T08:36:36Z</time>
      </trkpt>
      <trkpt lat="47.29334" lon="-1.72423">
        <ele>77.4</ele>
        <time>2014-10-12T08:36:37Z</time>
      </trkpt>
      <trkpt lat="47.29331" lon="-1.72426">
        <ele>77.4</ele>
        <time>2014-10-12T08:36:38Z</time>
      </trkpt>
      <trkpt lat="47.29327" lon="-1.72429">
        <ele>77.3</ele>
        <time>2014-10-12T08:36:39Z</time>
      </trkpt>
      <trkpt lat="47.29323" lon="-1.72431">
        <ele>77.3</ele>
        <time>2014-10-12T08:36:40Z</time>
      </trkpt>
      <trkpt lat="47.29319" lon="-1.72433">
        <ele>77.3</ele>
        <time>2014-10-12T08:36:41Z</time>
      </trkpt>
      <trkpt lat="47.29316" lon="-1.72434">
        <ele>77.2</ele>
        <time>2014-10-12T08:36:42Z</time>
      </trkpt>
      <trkpt lat="47.29312" lon="-1.72436">
        <ele>77.1</ele>
        <time>2014-10-12T08:36:43Z</time>
      </trkpt>
      <trkpt lat="47.29308" lon="-1.72438">
        <ele>77.1</ele>
        <time>2014-10-12T08:36:44Z</time>
      </trkpt>
      <trkpt lat="47.29304" lon="-1.7244">
        <ele>77</ele>
        <time>2014-10-12T08:36:45Z</time>
      </trkpt>
      <trkpt lat="47.293" lon="-1.72441">
        <ele>77</ele>
        <time>2014-10-12T08:36:46Z</time>
      </trkpt>
      <trkpt lat="47.29296" lon="-1.72443">
        <ele>76.9</ele>
        <time>2014-10-12T08:36:47Z</time>
      </trkpt>
      <trkpt lat="47.29292" lon="-1.72445">
        <ele>76.8</ele>
        <time>2014-10-12T08:36:48Z</time>
      </trkpt>
      <trkpt lat="47.29288" lon="-1.72447">
        <ele>76.8</ele>
        <time>2014-10-12T08:36:49Z</time>
      </trkpt>
      <trkpt lat="47.29284" lon="-1.72448">
        <ele>76.7</ele>
        <time>2014-10-12T08:36:50Z</time>
      </trkpt>
      <trkpt lat="47.29281" lon="-1.7245">
        <ele>76.7</ele>
        <time>2014-10-12T08:36:51Z</time>
      </trkpt>
      <trkpt lat="47.29277" lon="-1.72452">
        <ele>76.6</ele>
        <time>2014-10-12T08:36:52Z</time>
      </trkpt>
      <trkpt lat="47.29274" lon="-1.72455">
        <ele>76.6</ele>
        <time>2014-10-12T08:36:53Z</time>
      </trkpt>
      <trkpt lat="47.29272" lon="-1.72458">
        <ele>76.5</ele>
        <time>2014-10-12T08:36:54Z</time>
      </trkpt>
      <trkpt lat="47.29269" lon="-1.72462">
        <ele>76.4</ele>
        <time>2014-10-12T08:36:55Z</time>
      </trkpt>
      <trkpt lat="47.29268" lon="-1.72466">
        <ele>76.3</ele>
        <time>2014-10-12T08:36:56Z</time>
      </trkpt>
      <trkpt lat="47.29268" lon="-1.72471">
        <ele>76.3</ele>
        <time>2014-10-12T08:36:57Z</time>
      </trkpt>
      <trkpt lat="47.29267" lon="-1.72476">
        <ele>76.2</ele>
        <time>2014-10-12T08:36:58Z</time>
      </trkpt>
      <trkpt lat="47.29267" lon="-1.72482">
        <ele>76.1</ele>
        <time>2014-10-12T08:36:59Z</time>
      </trkpt>
      <trkpt lat="47.29267" lon="-1.72487">
        <ele>76.1</ele>
        <time>2014-10-12T08:37:00Z</time>
      </trkpt>
      <trkpt lat="47.29267" lon="-1.72493">
        <ele>76</ele>
        <time>2014-10-12T08:37:01Z</time>
      </trkpt>
      <trkpt lat="47.29267" lon="-1.72499">
        <ele>75.9</ele>
        <time>2014-10-12T08:37:02Z</time>
      </trkpt>
      <trkpt lat="47.29267" lon="-1.72505">
        <ele>75.8</ele>
        <time>2014-10-12T08:37:03Z</time>
      </trkpt>
      <trkpt lat="47.29267" lon="-1.72511">
        <ele>75.8</ele>
        <time>2014-10-12T08:37:04Z</time>
      </trkpt>
      <trkpt lat="47.29266" lon="-1.72517">
        <ele>75.7</ele>
        <time>2014-10-12T08:37:05Z</time>
      </trkpt>
      <trkpt lat="47.29266" lon="-1.72523">
        <ele>75.6</ele>
        <time>2014-10-12T08:37:06Z</time>
      </trkpt>
      <trkpt lat="47.29266" lon="-1.72529">
        <ele>75.5</ele>
        <time>2014-10-12T08:37:07Z</time>
      </trkpt>
      <trkpt lat="47.29266" lon="-1.72536">
        <ele>75.4</ele>
        <time>2014-10-12T08:37:08Z</time>
      </trkpt>
      <trkpt lat="47.29265" lon="-1.72541">
        <ele>75.4</ele>
        <time>2014-10-12T08:37:09Z</time>
      </trkpt>
      <trkpt lat="47.29264" lon="-1.72547">
        <ele>75.3</ele>
        <time>2014-10-12T08:37:10Z</time>
      </trkpt>
      <trkpt lat="47.29263" lon="-1.72553">
        <ele>75.2</ele>
        <time>2014-10-12T08:37:11Z</time>
      </trkpt>
      <trkpt lat="47.29263" lon="-1.72559">
        <ele>75.1</ele>
        <time>2014-10-12T08:37:12Z</time>
      </trkpt>
      <trkpt lat="47.29262" lon="-1.72565">
        <ele>75</ele>
        <time>2014-10-12T08:37:13Z</time>
      </trkpt>
      <trkpt lat="47.29261" lon="-1.72571">
        <ele>75</ele>
        <time>2014-10-12T08:37:14Z</time>
      </trkpt>
      <trkpt lat="47.29261" lon="-1.72576">
        <ele>74.9</ele>
        <time>2014-10-12T08:37:15Z</time>
      </trkpt>
      <trkpt lat="47.2926" lon="-1.72581">
        <ele>74.8</ele>
        <time>2014-10-12T08:37:16Z</time>
      </trkpt>
      <trkpt lat="47.29259" lon="-1.72587">
        <ele>74.8</ele>
        <time>2014-10-12T08:37:17Z</time>
      </trkpt>
      <trkpt lat="47.29259" lon="-1.72594">
        <ele>74.7</ele>
        <time>2014-10-12T08:37:18Z</time>
      </trkpt>
      <trkpt lat="47.2926" lon="-1.726">
        <ele>74.6</ele>
        <time>2014-10-12T08:37:19Z</time>
      </trkpt>
      <trkpt lat="47.2926" lon="-1.72604">
        <ele>74.6</ele>
        <time>2014-10-12T08:37:20Z</time>
      </trkpt>
      <trkpt lat="47.2926" lon="-1.72609">
        <ele>74.6</ele>
        <time>2014-10-12T08:37:21Z</time>
      </trkpt>
      <trkpt lat="47.2926" lon="-1.72613">
        <ele>74.5</ele>
        <time>2014-10-12T08:37:22Z</time>
      </trkpt>
      <trkpt lat="47.2926" lon="-1.72617">
        <ele>74.5</ele>
        <time>2014-10-12T08:37:23Z</time>
      </trkpt>
      <trkpt lat="47.2926" lon="-1.72623">
        <ele>74.4</ele>
        <time>2014-10-12T08:37:24Z</time>
      </trkpt>
      <trkpt lat="47.2926" lon="-1.72629">
        <ele>74.5</ele>
        <time>2014-10-12T08:37:25Z</time>
      </trkpt>
      <trkpt lat="47.2926" lon="-1.72635">
        <ele>74.6</ele>
        <time>2014-10-12T08:37:26Z</time>
      </trkpt>
      <trkpt lat="47.2926" lon="-1.72642">
        <ele>74.7</ele>
        <time>2014-10-12T08:37:27Z</time>
      </trkpt>
      <trkpt lat="47.2926" lon="-1.72648">
        <ele>74.8</ele>
        <time>2014-10-12T08:37:28Z</time>
      </trkpt>
      <trkpt lat="47.2926" lon="-1.72654">
        <ele>74.9</ele>
        <time>2014-10-12T08:37:29Z</time>
      </trkpt>
      <trkpt lat="47.2926" lon="-1.7266">
        <ele>75.1</ele>
        <time>2014-10-12T08:37:30Z</time>
      </trkpt>
      <trkpt lat="47.2926" lon="-1.72667">
        <ele>75.2</ele>
        <time>2014-10-12T08:37:31Z</time>
      </trkpt>
      <trkpt lat="47.2926" lon="-1.72673">
        <ele>75.3</ele>
        <time>2014-10-12T08:37:32Z</time>
      </trkpt>
      <trkpt lat="47.29261" lon="-1.72679">
        <ele>75.4</ele>
        <time>2014-10-12T08:37:33Z</time>
      </trkpt>
      <trkpt lat="47.29261" lon="-1.72685">
        <ele>75.5</ele>
        <time>2014-10-12T08:37:34Z</time>
      </trkpt>
      <trkpt lat="47.29261" lon="-1.72691">
        <ele>75.7</ele>
        <time>2014-10-12T08:37:35Z</time>
      </trkpt>
      <trkpt lat="47.29261" lon="-1.72697">
        <ele>75.8</ele>
        <time>2014-10-12T08:37:36Z</time>
      </trkpt>
      <trkpt lat="47.29261" lon="-1.72703">
        <ele>75.9</ele>
        <time>2014-10-12T08:37:37Z</time>
      </trkpt>
      <trkpt lat="47.29261" lon="-1.7271">
        <ele>76</ele>
        <time>2014-10-12T08:37:38Z</time>
      </trkpt>
      <trkpt lat="47.29261" lon="-1.72716">
        <ele>76.1</ele>
        <time>2014-10-12T08:37:39Z</time>
      </trkpt>
      <trkpt lat="47.2926" lon="-1.72722">
        <ele>76.1</ele>
        <time>2014-10-12T08:37:40Z</time>
      </trkpt>
      <trkpt lat="47.2926" lon="-1.72728">
        <ele>76.1</ele>
        <time>2014-10-12T08:37:41Z</time>
      </trkpt>
      <trkpt lat="47.29261" lon="-1.72733">
        <ele>76.2</ele>
        <time>2014-10-12T08:37:42Z</time>
      </trkpt>
      <trkpt lat="47.29261" lon="-1.72738">
        <ele>76.2</ele>
        <time>2014-10-12T08:37:43Z</time>
      </trkpt>
      <trkpt lat="47.29261" lon="-1.72743">
        <ele>76.3</ele>
        <time>2014-10-12T08:37:44Z</time>
      </trkpt>
      <trkpt lat="47.29261" lon="-1.72748">
        <ele>76.3</ele>
        <time>2014-10-12T08:37:45Z</time>
      </trkpt>
      <trkpt lat="47.29261" lon="-1.72753">
        <ele>76.3</ele>
        <time>2014-10-12T08:37:46Z</time>
      </trkpt>
      <trkpt lat="47.29261" lon="-1.72758">
        <ele>76.4</ele>
        <time>2014-10-12T08:37:47Z</time>
      </trkpt>
      <trkpt lat="47.2926" lon="-1.72762">
        <ele>76.4</ele>
        <time>2014-10-12T08:37:48Z</time>
      </trkpt>
      <trkpt lat="47.2926" lon="-1.72767">
        <ele>76.4</ele>
        <time>2014-10-12T08:37:49Z</time>
      </trkpt>
      <trkpt lat="47.2926" lon="-1.72772">
        <ele>76.5</ele>
        <time>2014-10-12T08:37:50Z</time>
      </trkpt>
      <trkpt lat="47.2926" lon="-1.72777">
        <ele>76.5</ele>
        <time>2014-10-12T08:37:51Z</time>
      </trkpt>
      <trkpt lat="47.2926" lon="-1.72782">
        <ele>76.5</ele>
        <time>2014-10-12T08:37:52Z</time>
      </trkpt>
      <trkpt lat="47.29259" lon="-1.72786">
        <ele>76.6</ele>
        <time>2014-10-12T08:37:53Z</time>
      </trkpt>
      <trkpt lat="47.29258" lon="-1.72791">
        <ele>76.6</ele>
        <time>2014-10-12T08:37:54Z</time>
      </trkpt>
      <trkpt lat="47.29257" lon="-1.72796">
        <ele>76.6</ele>
        <time>2014-10-12T08:37:55Z</time>
      </trkpt>
      <trkpt lat="47.29256" lon="-1.728">
        <ele>76.6</ele>
        <time>2014-10-12T08:37:56Z</time>
      </trkpt>
      <trkpt lat="47.29256" lon="-1.72809">
        <ele>76.6</ele>
        <time>2014-10-12T08:37:58Z</time>
      </trkpt>
      <trkpt lat="47.29256" lon="-1.72815">
        <ele>76.7</ele>
        <time>2014-10-12T08:37:59Z</time>
      </trkpt>
      <trkpt lat="47.29254" lon="-1.72821">
        <ele>76.7</ele>
        <time>2014-10-12T08:38:00Z</time>
      </trkpt>
      <trkpt lat="47.29254" lon="-1.72827">
        <ele>76.7</ele>
        <time>2014-10-12T08:38:01Z</time>
      </trkpt>
      <trkpt lat="47.29252" lon="-1.72833">
        <ele>76.7</ele>
        <time>2014-10-12T08:38:02Z</time>
      </trkpt>
      <trkpt lat="47.2925" lon="-1.72839">
        <ele>76.8</ele>
        <time>2014-10-12T08:38:03Z</time>
      </trkpt>
      <trkpt lat="47.29248" lon="-1.72845">
        <ele>76.8</ele>
        <time>2014-10-12T08:38:04Z</time>
      </trkpt>
      <trkpt lat="47.29246" lon="-1.72852">
        <ele>76.9</ele>
        <time>2014-10-12T08:38:05Z</time>
      </trkpt>
      <trkpt lat="47.29244" lon="-1.72857">
        <ele>77</ele>
        <time>2014-10-12T08:38:06Z</time>
      </trkpt>
      <trkpt lat="47.29242" lon="-1.72863">
        <ele>77.1</ele>
        <time>2014-10-12T08:38:07Z</time>
      </trkpt>
      <trkpt lat="47.29239" lon="-1.72868">
        <ele>77.2</ele>
        <time>2014-10-12T08:38:08Z</time>
      </trkpt>
      <trkpt lat="47.29238" lon="-1.72875">
        <ele>77.3</ele>
        <time>2014-10-12T08:38:09Z</time>
      </trkpt>
      <trkpt lat="47.29236" lon="-1.72881">
        <ele>77.4</ele>
        <time>2014-10-12T08:38:10Z</time>
      </trkpt>
      <trkpt lat="47.29235" lon="-1.72888">
        <ele>77.5</ele>
        <time>2014-10-12T08:38:11Z</time>
      </trkpt>
      <trkpt lat="47.29233" lon="-1.72894">
        <ele>77.6</ele>
        <time>2014-10-12T08:38:12Z</time>
      </trkpt>
      <trkpt lat="47.29232" lon="-1.72899">
        <ele>77.6</ele>
        <time>2014-10-12T08:38:13Z</time>
      </trkpt>
      <trkpt lat="47.2923" lon="-1.72904">
        <ele>77.7</ele>
        <time>2014-10-12T08:38:14Z</time>
      </trkpt>
      <trkpt lat="47.29228" lon="-1.72909">
        <ele>77.8</ele>
        <time>2014-10-12T08:38:15Z</time>
      </trkpt>
      <trkpt lat="47.29227" lon="-1.72915">
        <ele>77.9</ele>
        <time>2014-10-12T08:38:16Z</time>
      </trkpt>
      <trkpt lat="47.29226" lon="-1.72921">
        <ele>78</ele>
        <time>2014-10-12T08:38:17Z</time>
      </trkpt>
      <trkpt lat="47.29225" lon="-1.72927">
        <ele>78.1</ele>
        <time>2014-10-12T08:38:18Z</time>
      </trkpt>
      <trkpt lat="47.29223" lon="-1.72933">
        <ele>78.2</ele>
        <time>2014-10-12T08:38:19Z</time>
      </trkpt>
      <trkpt lat="47.29222" lon="-1.7294">
        <ele>78.3</ele>
        <time>2014-10-12T08:38:20Z</time>
      </trkpt>
      <trkpt lat="47.2922" lon="-1.72945">
        <ele>78.4</ele>
        <time>2014-10-12T08:38:21Z</time>
      </trkpt>
      <trkpt lat="47.29218" lon="-1.72951">
        <ele>78.6</ele>
        <time>2014-10-12T08:38:22Z</time>
      </trkpt>
      <trkpt lat="47.29217" lon="-1.72957">
        <ele>78.7</ele>
        <time>2014-10-12T08:38:23Z</time>
      </trkpt>
      <trkpt lat="47.29215" lon="-1.72963">
        <ele>78.7</ele>
        <time>2014-10-12T08:38:24Z</time>
      </trkpt>
      <trkpt lat="47.29213" lon="-1.72968">
        <ele>78.6</ele>
        <time>2014-10-12T08:38:25Z</time>
      </trkpt>
      <trkpt lat="47.29212" lon="-1.72973">
        <ele>78.5</ele>
        <time>2014-10-12T08:38:26Z</time>
      </trkpt>
      <trkpt lat="47.2921" lon="-1.72979">
        <ele>78.4</ele>
        <time>2014-10-12T08:38:27Z</time>
      </trkpt>
      <trkpt lat="47.29209" lon="-1.72984">
        <ele>78.4</ele>
        <time>2014-10-12T08:38:28Z</time>
      </trkpt>
      <trkpt lat="47.29208" lon="-1.72989">
        <ele>78.2</ele>
        <time>2014-10-12T08:38:29Z</time>
      </trkpt>
      <trkpt lat="47.29206" lon="-1.72994">
        <ele>78</ele>
        <time>2014-10-12T08:38:30Z</time>
      </trkpt>
      <trkpt lat="47.29205" lon="-1.72999">
        <ele>77.9</ele>
        <time>2014-10-12T08:38:31Z</time>
      </trkpt>
      <trkpt lat="47.29204" lon="-1.73005">
        <ele>77.7</ele>
        <time>2014-10-12T08:38:32Z</time>
      </trkpt>
      <trkpt lat="47.29203" lon="-1.7301">
        <ele>77.5</ele>
        <time>2014-10-12T08:38:33Z</time>
      </trkpt>
      <trkpt lat="47.29201" lon="-1.73016">
        <ele>77.3</ele>
        <time>2014-10-12T08:38:34Z</time>
      </trkpt>
      <trkpt lat="47.29198" lon="-1.73021">
        <ele>77</ele>
        <time>2014-10-12T08:38:35Z</time>
      </trkpt>
      <trkpt lat="47.29196" lon="-1.73026">
        <ele>76.8</ele>
        <time>2014-10-12T08:38:36Z</time>
      </trkpt>
      <trkpt lat="47.29193" lon="-1.73031">
        <ele>76.5</ele>
        <time>2014-10-12T08:38:37Z</time>
      </trkpt>
      <trkpt lat="47.29191" lon="-1.73035">
        <ele>76.3</ele>
        <time>2014-10-12T08:38:38Z</time>
      </trkpt>
      <trkpt lat="47.29189" lon="-1.73039">
        <ele>76.2</ele>
        <time>2014-10-12T08:38:39Z</time>
      </trkpt>
      <trkpt lat="47.29187" lon="-1.73044">
        <ele>75.9</ele>
        <time>2014-10-12T08:38:40Z</time>
      </trkpt>
      <trkpt lat="47.29186" lon="-1.73048">
        <ele>75.8</ele>
        <time>2014-10-12T08:38:41Z</time>
      </trkpt>
      <trkpt lat="47.29185" lon="-1.73053">
        <ele>75.6</ele>
        <time>2014-10-12T08:38:42Z</time>
      </trkpt>
      <trkpt lat="47.29184" lon="-1.73059">
        <ele>75.4</ele>
        <time>2014-10-12T08:38:43Z</time>
      </trkpt>
      <trkpt lat="47.29181" lon="-1.73062">
        <ele>75.3</ele>
        <time>2014-10-12T08:38:44Z</time>
      </trkpt>
      <trkpt lat="47.29178" lon="-1.73066">
        <ele>75.1</ele>
        <time>2014-10-12T08:38:45Z</time>
      </trkpt>
      <trkpt lat="47.29176" lon="-1.73071">
        <ele>75</ele>
        <time>2014-10-12T08:38:46Z</time>
      </trkpt>
      <trkpt lat="47.29174" lon="-1.73074">
        <ele>74.8</ele>
        <time>2014-10-12T08:38:47Z</time>
      </trkpt>
      <trkpt lat="47.29173" lon="-1.73078">
        <ele>74.7</ele>
        <time>2014-10-12T08:38:48Z</time>
      </trkpt>
      <trkpt lat="47.29171" lon="-1.73082">
        <ele>74.6</ele>
        <time>2014-10-12T08:38:49Z</time>
      </trkpt>
      <trkpt lat="47.29169" lon="-1.73086">
        <ele>74.5</ele>
        <time>2014-10-12T08:38:50Z</time>
      </trkpt>
      <trkpt lat="47.29167" lon="-1.73091">
        <ele>74.4</ele>
        <time>2014-10-12T08:38:51Z</time>
      </trkpt>
      <trkpt lat="47.29165" lon="-1.73096">
        <ele>74.3</ele>
        <time>2014-10-12T08:38:52Z</time>
      </trkpt>
      <trkpt lat="47.29162" lon="-1.73102">
        <ele>74.2</ele>
        <time>2014-10-12T08:38:53Z</time>
      </trkpt>
      <trkpt lat="47.2916" lon="-1.73107">
        <ele>74.1</ele>
        <time>2014-10-12T08:38:54Z</time>
      </trkpt>
      <trkpt lat="47.29156" lon="-1.73114">
        <ele>74.1</ele>
        <time>2014-10-12T08:38:55Z</time>
      </trkpt>
      <trkpt lat="47.29153" lon="-1.73121">
        <ele>74</ele>
        <time>2014-10-12T08:38:56Z</time>
      </trkpt>
      <trkpt lat="47.29148" lon="-1.73128">
        <ele>74</ele>
        <time>2014-10-12T08:38:57Z</time>
      </trkpt>
      <trkpt lat="47.29143" lon="-1.73136">
        <ele>73.9</ele>
        <time>2014-10-12T08:38:58Z</time>
      </trkpt>
      <trkpt lat="47.29139" lon="-1.73141">
        <ele>73.8</ele>
        <time>2014-10-12T08:38:59Z</time>
      </trkpt>
      <trkpt lat="47.29135" lon="-1.73148">
        <ele>73.7</ele>
        <time>2014-10-12T08:39:00Z</time>
      </trkpt>
      <trkpt lat="47.29132" lon="-1.73154">
        <ele>73.7</ele>
        <time>2014-10-12T08:39:01Z</time>
      </trkpt>
      <trkpt lat="47.29129" lon="-1.7316">
        <ele>73.6</ele>
        <time>2014-10-12T08:39:02Z</time>
      </trkpt>
      <trkpt lat="47.29124" lon="-1.73167">
        <ele>73.5</ele>
        <time>2014-10-12T08:39:03Z</time>
      </trkpt>
      <trkpt lat="47.2912" lon="-1.73175">
        <ele>73.5</ele>
        <time>2014-10-12T08:39:04Z</time>
      </trkpt>
      <trkpt lat="47.29117" lon="-1.7318">
        <ele>73.4</ele>
        <time>2014-10-12T08:39:05Z</time>
      </trkpt>
      <trkpt lat="47.29114" lon="-1.73186">
        <ele>73.4</ele>
        <time>2014-10-12T08:39:06Z</time>
      </trkpt>
      <trkpt lat="47.2911" lon="-1.73192">
        <ele>73.4</ele>
        <time>2014-10-12T08:39:07Z</time>
      </trkpt>
      <trkpt lat="47.29107" lon="-1.73197">
        <ele>73.5</ele>
        <time>2014-10-12T08:39:08Z</time>
      </trkpt>
      <trkpt lat="47.29104" lon="-1.73203">
        <ele>73.5</ele>
        <time>2014-10-12T08:39:09Z</time>
      </trkpt>
      <trkpt lat="47.29101" lon="-1.73208">
        <ele>73.6</ele>
        <time>2014-10-12T08:39:10Z</time>
      </trkpt>
      <trkpt lat="47.29096" lon="-1.73214">
        <ele>73.7</ele>
        <time>2014-10-12T08:39:11Z</time>
      </trkpt>
      <trkpt lat="47.29093" lon="-1.73221">
        <ele>73.9</ele>
        <time>2014-10-12T08:39:12Z</time>
      </trkpt>
      <trkpt lat="47.29089" lon="-1.73227">
        <ele>74.1</ele>
        <time>2014-10-12T08:39:13Z</time>
      </trkpt>
      <trkpt lat="47.29086" lon="-1.73232">
        <ele>74.2</ele>
        <time>2014-10-12T08:39:14Z</time>
      </trkpt>
      <trkpt lat="47.29083" lon="-1.73236">
        <ele>74.3</ele>
        <time>2014-10-12T08:39:15Z</time>
      </trkpt>
      <trkpt lat="47.29081" lon="-1.7324">
        <ele>74.5</ele>
        <time>2014-10-12T08:39:16Z</time>
      </trkpt>
      <trkpt lat="47.29078" lon="-1.73244">
        <ele>74.6</ele>
        <time>2014-10-12T08:39:17Z</time>
      </trkpt>
      <trkpt lat="47.29075" lon="-1.73249">
        <ele>74.8</ele>
        <time>2014-10-12T08:39:18Z</time>
      </trkpt>
      <trkpt lat="47.29071" lon="-1.73253">
        <ele>75</ele>
        <time>2014-10-12T08:39:19Z</time>
      </trkpt>
      <trkpt lat="47.29068" lon="-1.73259">
        <ele>75.2</ele>
        <time>2014-10-12T08:39:20Z</time>
      </trkpt>
      <trkpt lat="47.29064" lon="-1.73264">
        <ele>75.4</ele>
        <time>2014-10-12T08:39:21Z</time>
      </trkpt>
      <trkpt lat="47.2906" lon="-1.7327">
        <ele>75.7</ele>
        <time>2014-10-12T08:39:22Z</time>
      </trkpt>
      <trkpt lat="47.29057" lon="-1.73275">
        <ele>75.9</ele>
        <time>2014-10-12T08:39:23Z</time>
      </trkpt>
      <trkpt lat="47.29054" lon="-1.7328">
        <ele>76.2</ele>
        <time>2014-10-12T08:39:24Z</time>
      </trkpt>
      <trkpt lat="47.29051" lon="-1.73285">
        <ele>76.4</ele>
        <time>2014-10-12T08:39:25Z</time>
      </trkpt>
      <trkpt lat="47.29047" lon="-1.7329">
        <ele>76.7</ele>
        <time>2014-10-12T08:39:26Z</time>
      </trkpt>
      <trkpt lat="47.29044" lon="-1.73295">
        <ele>76.8</ele>
        <time>2014-10-12T08:39:27Z</time>
      </trkpt>
      <trkpt lat="47.29041" lon="-1.73301">
        <ele>76.8</ele>
        <time>2014-10-12T08:39:28Z</time>
      </trkpt>
      <trkpt lat="47.29039" lon="-1.73307">
        <ele>76.5</ele>
        <time>2014-10-12T08:39:29Z</time>
      </trkpt>
      <trkpt lat="47.29036" lon="-1.73312">
        <ele>76.4</ele>
        <time>2014-10-12T08:39:30Z</time>
      </trkpt>
      <trkpt lat="47.29034" lon="-1.73317">
        <ele>76.2</ele>
        <time>2014-10-12T08:39:31Z</time>
      </trkpt>
      <trkpt lat="47.29033" lon="-1.73321">
        <ele>76.1</ele>
        <time>2014-10-12T08:39:32Z</time>
      </trkpt>
      <trkpt lat="47.29031" lon="-1.73325">
        <ele>75.9</ele>
        <time>2014-10-12T08:39:33Z</time>
      </trkpt>
      <trkpt lat="47.29029" lon="-1.7333">
        <ele>75.8</ele>
        <time>2014-10-12T08:39:34Z</time>
      </trkpt>
      <trkpt lat="47.29027" lon="-1.73334">
        <ele>75.6</ele>
        <time>2014-10-12T08:39:35Z</time>
      </trkpt>
      <trkpt lat="47.29024" lon="-1.73338">
        <ele>75.5</ele>
        <time>2014-10-12T08:39:36Z</time>
      </trkpt>
      <trkpt lat="47.29022" lon="-1.73342">
        <ele>75.4</ele>
        <time>2014-10-12T08:39:37Z</time>
      </trkpt>
      <trkpt lat="47.29019" lon="-1.73345">
        <ele>75.3</ele>
        <time>2014-10-12T08:39:38Z</time>
      </trkpt>
      <trkpt lat="47.29017" lon="-1.73348">
        <ele>75.1</ele>
        <time>2014-10-12T08:39:39Z</time>
      </trkpt>
      <trkpt lat="47.29014" lon="-1.73353">
        <ele>75</ele>
        <time>2014-10-12T08:39:40Z</time>
      </trkpt>
      <trkpt lat="47.29012" lon="-1.73358">
        <ele>74.9</ele>
        <time>2014-10-12T08:39:41Z</time>
      </trkpt>
      <trkpt lat="47.29008" lon="-1.73364">
        <ele>74.8</ele>
        <time>2014-10-12T08:39:42Z</time>
      </trkpt>
      <trkpt lat="47.29005" lon="-1.73369">
        <ele>74.6</ele>
        <time>2014-10-12T08:39:43Z</time>
      </trkpt>
      <trkpt lat="47.29002" lon="-1.73373">
        <ele>74.6</ele>
        <time>2014-10-12T08:39:44Z</time>
      </trkpt>
      <trkpt lat="47.29" lon="-1.73377">
        <ele>74.5</ele>
        <time>2014-10-12T08:39:45Z</time>
      </trkpt>
      <trkpt lat="47.28997" lon="-1.73381">
        <ele>74.4</ele>
        <time>2014-10-12T08:39:46Z</time>
      </trkpt>
      <trkpt lat="47.28994" lon="-1.73385">
        <ele>74.3</ele>
        <time>2014-10-12T08:39:47Z</time>
      </trkpt>
      <trkpt lat="47.28991" lon="-1.73387">
        <ele>74.3</ele>
        <time>2014-10-12T08:39:48Z</time>
      </trkpt>
      <trkpt lat="47.28988" lon="-1.73391">
        <ele>74.2</ele>
        <time>2014-10-12T08:39:49Z</time>
      </trkpt>
      <trkpt lat="47.28985" lon="-1.73396">
        <ele>74.2</ele>
        <time>2014-10-12T08:39:50Z</time>
      </trkpt>
      <trkpt lat="47.28983" lon="-1.73401">
        <ele>74.1</ele>
        <time>2014-10-12T08:39:51Z</time>
      </trkpt>
      <trkpt lat="47.28979" lon="-1.73406">
        <ele>74.1</ele>
        <time>2014-10-12T08:39:52Z</time>
      </trkpt>
      <trkpt lat="47.28976" lon="-1.73411">
        <ele>74</ele>
        <time>2014-10-12T08:39:53Z</time>
      </trkpt>
      <trkpt lat="47.28974" lon="-1.73416">
        <ele>74</ele>
        <time>2014-10-12T08:39:54Z</time>
      </trkpt>
      <trkpt lat="47.2897" lon="-1.73421">
        <ele>74</ele>
        <time>2014-10-12T08:39:55Z</time>
      </trkpt>
      <trkpt lat="47.28967" lon="-1.73426">
        <ele>74</ele>
        <time>2014-10-12T08:39:56Z</time>
      </trkpt>
      <trkpt lat="47.28964" lon="-1.73429">
        <ele>74</ele>
        <time>2014-10-12T08:39:57Z</time>
      </trkpt>
      <trkpt lat="47.28961" lon="-1.73432">
        <ele>74</ele>
        <time>2014-10-12T08:39:58Z</time>
      </trkpt>
      <trkpt lat="47.28958" lon="-1.73436">
        <ele>74</ele>
        <time>2014-10-12T08:39:59Z</time>
      </trkpt>
      <trkpt lat="47.28956" lon="-1.7344">
        <ele>74</ele>
        <time>2014-10-12T08:40:00Z</time>
      </trkpt>
      <trkpt lat="47.28953" lon="-1.73443">
        <ele>74.1</ele>
        <time>2014-10-12T08:40:01Z</time>
      </trkpt>
      <trkpt lat="47.28951" lon="-1.73446">
        <ele>74.1</ele>
        <time>2014-10-12T08:40:02Z</time>
      </trkpt>
      <trkpt lat="47.28949" lon="-1.7345">
        <ele>74.1</ele>
        <time>2014-10-12T08:40:03Z</time>
      </trkpt>
      <trkpt lat="47.28947" lon="-1.73453">
        <ele>74.1</ele>
        <time>2014-10-12T08:40:04Z</time>
      </trkpt>
      <trkpt lat="47.28945" lon="-1.73457">
        <ele>74.2</ele>
        <time>2014-10-12T08:40:05Z</time>
      </trkpt>
      <trkpt lat="47.28942" lon="-1.73461">
        <ele>74.3</ele>
        <time>2014-10-12T08:40:06Z</time>
      </trkpt>
      <trkpt lat="47.2894" lon="-1.73466">
        <ele>74.4</ele>
        <time>2014-10-12T08:40:07Z</time>
      </trkpt>
      <trkpt lat="47.28937" lon="-1.7347">
        <ele>74.5</ele>
        <time>2014-10-12T08:40:08Z</time>
      </trkpt>
      <trkpt lat="47.28935" lon="-1.73474">
        <ele>74.7</ele>
        <time>2014-10-12T08:40:09Z</time>
      </trkpt>
      <trkpt lat="47.28932" lon="-1.73477">
        <ele>74.8</ele>
        <time>2014-10-12T08:40:10Z</time>
      </trkpt>
      <trkpt lat="47.2893" lon="-1.7348">
        <ele>74.9</ele>
        <time>2014-10-12T08:40:11Z</time>
      </trkpt>
      <trkpt lat="47.28928" lon="-1.73484">
        <ele>75</ele>
        <time>2014-10-12T08:40:12Z</time>
      </trkpt>
      <trkpt lat="47.28925" lon="-1.7349">
        <ele>75.2</ele>
        <time>2014-10-12T08:40:13Z</time>
      </trkpt>
      <trkpt lat="47.28923" lon="-1.73494">
        <ele>75.3</ele>
        <time>2014-10-12T08:40:14Z</time>
      </trkpt>
      <trkpt lat="47.28921" lon="-1.73497">
        <ele>75.4</ele>
        <time>2014-10-12T08:40:15Z</time>
      </trkpt>
      <trkpt lat="47.28918" lon="-1.73504">
        <ele>75.6</ele>
        <time>2014-10-12T08:40:17Z</time>
      </trkpt>
      <trkpt lat="47.28916" lon="-1.73507">
        <ele>75.7</ele>
        <time>2014-10-12T08:40:18Z</time>
      </trkpt>
      <trkpt lat="47.28913" lon="-1.7351">
        <ele>75.8</ele>
        <time>2014-10-12T08:40:19Z</time>
      </trkpt>
      <trkpt lat="47.2891" lon="-1.73514">
        <ele>75.9</ele>
        <time>2014-10-12T08:40:20Z</time>
      </trkpt>
      <trkpt lat="47.28908" lon="-1.73518">
        <ele>76</ele>
        <time>2014-10-12T08:40:21Z</time>
      </trkpt>
      <trkpt lat="47.28906" lon="-1.73521">
        <ele>76.1</ele>
        <time>2014-10-12T08:40:22Z</time>
      </trkpt>
      <trkpt lat="47.28902" lon="-1.73528">
        <ele>76.3</ele>
        <time>2014-10-12T08:40:24Z</time>
      </trkpt>
      <trkpt lat="47.28899" lon="-1.73533">
        <ele>76.5</ele>
        <time>2014-10-12T08:40:25Z</time>
      </trkpt>
      <trkpt lat="47.28897" lon="-1.73537">
        <ele>76.6</ele>
        <time>2014-10-12T08:40:26Z</time>
      </trkpt>
      <trkpt lat="47.28895" lon="-1.7354">
        <ele>76.7</ele>
        <time>2014-10-12T08:40:27Z</time>
      </trkpt>
      <trkpt lat="47.28893" lon="-1.73543">
        <ele>76.8</ele>
        <time>2014-10-12T08:40:28Z</time>
      </trkpt>
      <trkpt lat="47.28891" lon="-1.73547">
        <ele>76.7</ele>
        <time>2014-10-12T08:40:29Z</time>
      </trkpt>
      <trkpt lat="47.28889" lon="-1.73551">
        <ele>76.7</ele>
        <time>2014-10-12T08:40:30Z</time>
      </trkpt>
      <trkpt lat="47.28887" lon="-1.73554">
        <ele>76.6</ele>
        <time>2014-10-12T08:40:31Z</time>
      </trkpt>
      <trkpt lat="47.28885" lon="-1.73558">
        <ele>76.6</ele>
        <time>2014-10-12T08:40:32Z</time>
      </trkpt>
      <trkpt lat="47.28882" lon="-1.73562">
        <ele>76.5</ele>
        <time>2014-10-12T08:40:33Z</time>
      </trkpt>
      <trkpt lat="47.2888" lon="-1.73566">
        <ele>76.4</ele>
        <time>2014-10-12T08:40:34Z</time>
      </trkpt>
      <trkpt lat="47.28878" lon="-1.73569">
        <ele>76.3</ele>
        <time>2014-10-12T08:40:35Z</time>
      </trkpt>
      <trkpt lat="47.28876" lon="-1.73572">
        <ele>76.3</ele>
        <time>2014-10-12T08:40:36Z</time>
      </trkpt>
      <trkpt lat="47.28873" lon="-1.73577">
        <ele>76.3</ele>
        <time>2014-10-12T08:40:38Z</time>
      </trkpt>
      <trkpt lat="47.28869" lon="-1.73583">
        <ele>76.3</ele>
        <time>2014-10-12T08:40:40Z</time>
      </trkpt>
      <trkpt lat="47.28867" lon="-1.73587">
        <ele>76.3</ele>
        <time>2014-10-12T08:40:41Z</time>
      </trkpt>
      <trkpt lat="47.28866" lon="-1.73591">
        <ele>76.4</ele>
        <time>2014-10-12T08:40:42Z</time>
      </trkpt>
      <trkpt lat="47.28864" lon="-1.73595">
        <ele>76.4</ele>
        <time>2014-10-12T08:40:43Z</time>
      </trkpt>
      <trkpt lat="47.28862" lon="-1.73601">
        <ele>76.5</ele>
        <time>2014-10-12T08:40:44Z</time>
      </trkpt>
      <trkpt lat="47.2886" lon="-1.73605">
        <ele>76.6</ele>
        <time>2014-10-12T08:40:45Z</time>
      </trkpt>
      <trkpt lat="47.28858" lon="-1.7361">
        <ele>76.7</ele>
        <time>2014-10-12T08:40:46Z</time>
      </trkpt>
      <trkpt lat="47.28855" lon="-1.73613">
        <ele>76.9</ele>
        <time>2014-10-12T08:40:47Z</time>
      </trkpt>
      <trkpt lat="47.28853" lon="-1.73617">
        <ele>77.1</ele>
        <time>2014-10-12T08:40:48Z</time>
      </trkpt>
      <trkpt lat="47.28852" lon="-1.7362">
        <ele>77.2</ele>
        <time>2014-10-12T08:40:49Z</time>
      </trkpt>
      <trkpt lat="47.28849" lon="-1.73625">
        <ele>77.5</ele>
        <time>2014-10-12T08:40:50Z</time>
      </trkpt>
      <trkpt lat="47.28846" lon="-1.7363">
        <ele>77.8</ele>
        <time>2014-10-12T08:40:51Z</time>
      </trkpt>
      <trkpt lat="47.28843" lon="-1.73635">
        <ele>78</ele>
        <time>2014-10-12T08:40:52Z</time>
      </trkpt>
      <trkpt lat="47.2884" lon="-1.7364">
        <ele>78.3</ele>
        <time>2014-10-12T08:40:53Z</time>
      </trkpt>
      <trkpt lat="47.28837" lon="-1.73644">
        <ele>78.5</ele>
        <time>2014-10-12T08:40:54Z</time>
      </trkpt>
      <trkpt lat="47.28835" lon="-1.73648">
        <ele>78.6</ele>
        <time>2014-10-12T08:40:55Z</time>
      </trkpt>
      <trkpt lat="47.28833" lon="-1.73651">
        <ele>78.7</ele>
        <time>2014-10-12T08:40:56Z</time>
      </trkpt>
      <trkpt lat="47.28831" lon="-1.73655">
        <ele>78.8</ele>
        <time>2014-10-12T08:40:58Z</time>
      </trkpt>
      <trkpt lat="47.28829" lon="-1.73659">
        <ele>79</ele>
        <time>2014-10-12T08:41:01Z</time>
      </trkpt>
      <trkpt lat="47.28826" lon="-1.73661">
        <ele>79.2</ele>
        <time>2014-10-12T08:41:06Z</time>
      </trkpt>
      <trkpt lat="47.28823" lon="-1.73664">
        <ele>79.4</ele>
        <time>2014-10-12T08:41:09Z</time>
      </trkpt>
      <trkpt lat="47.28793" lon="-1.73718">
        <ele>80.6</ele>
        <time>2014-10-12T08:41:20Z</time>
      </trkpt>
      <trkpt lat="47.2879" lon="-1.7372">
        <ele>80.6</ele>
        <time>2014-10-12T08:41:21Z</time>
      </trkpt>
      <trkpt lat="47.28786" lon="-1.73725">
        <ele>80.4</ele>
        <time>2014-10-12T08:41:23Z</time>
      </trkpt>
      <trkpt lat="47.28783" lon="-1.73729">
        <ele>80.2</ele>
        <time>2014-10-12T08:41:25Z</time>
      </trkpt>
      <trkpt lat="47.2878" lon="-1.73731">
        <ele>80.2</ele>
        <time>2014-10-12T08:41:26Z</time>
      </trkpt>
      <trkpt lat="47.28776" lon="-1.73735">
        <ele>80</ele>
        <time>2014-10-12T08:41:28Z</time>
      </trkpt>
      <trkpt lat="47.28773" lon="-1.73738">
        <ele>80</ele>
        <time>2014-10-12T08:41:30Z</time>
      </trkpt>
      <trkpt lat="47.2877" lon="-1.73741">
        <ele>79.9</ele>
        <time>2014-10-12T08:41:32Z</time>
      </trkpt>
      <trkpt lat="47.28768" lon="-1.73744">
        <ele>79.8</ele>
        <time>2014-10-12T08:41:34Z</time>
      </trkpt>
      <trkpt lat="47.28765" lon="-1.73747">
        <ele>79.7</ele>
        <time>2014-10-12T08:41:36Z</time>
      </trkpt>
      <trkpt lat="47.28761" lon="-1.7375">
        <ele>79.7</ele>
        <time>2014-10-12T08:41:38Z</time>
      </trkpt>
      <trkpt lat="47.28758" lon="-1.73753">
        <ele>79.6</ele>
        <time>2014-10-12T08:41:40Z</time>
      </trkpt>
      <trkpt lat="47.28754" lon="-1.73757">
        <ele>79.6</ele>
        <time>2014-10-12T08:41:42Z</time>
      </trkpt>
      <trkpt lat="47.28751" lon="-1.73761">
        <ele>79.5</ele>
        <time>2014-10-12T08:41:44Z</time>
      </trkpt>
      <trkpt lat="47.28748" lon="-1.73766">
        <ele>79.5</ele>
        <time>2014-10-12T08:41:46Z</time>
      </trkpt>
      <trkpt lat="47.28744" lon="-1.73771">
        <ele>79.5</ele>
        <time>2014-10-12T08:41:48Z</time>
      </trkpt>
      <trkpt lat="47.2874" lon="-1.73776">
        <ele>79.5</ele>
        <time>2014-10-12T08:41:50Z</time>
      </trkpt>
      <trkpt lat="47.28738" lon="-1.7378">
        <ele>79.4</ele>
        <time>2014-10-12T08:41:51Z</time>
      </trkpt>
      <trkpt lat="47.28735" lon="-1.73782">
        <ele>79.5</ele>
        <time>2014-10-12T08:41:52Z</time>
      </trkpt>
      <trkpt lat="47.28732" lon="-1.73787">
        <ele>79.5</ele>
        <time>2014-10-12T08:41:54Z</time>
      </trkpt>
      <trkpt lat="47.28729" lon="-1.7379">
        <ele>79.5</ele>
        <time>2014-10-12T08:41:55Z</time>
      </trkpt>
      <trkpt lat="47.28727" lon="-1.73793">
        <ele>79.5</ele>
        <time>2014-10-12T08:41:56Z</time>
      </trkpt>
      <trkpt lat="47.28724" lon="-1.73796">
        <ele>79.6</ele>
        <time>2014-10-12T08:41:57Z</time>
      </trkpt>
      <trkpt lat="47.28722" lon="-1.73799">
        <ele>79.6</ele>
        <time>2014-10-12T08:41:58Z</time>
      </trkpt>
      <trkpt lat="47.28719" lon="-1.73802">
        <ele>79.6</ele>
        <time>2014-10-12T08:41:59Z</time>
      </trkpt>
      <trkpt lat="47.28717" lon="-1.73806">
        <ele>79.6</ele>
        <time>2014-10-12T08:42:00Z</time>
      </trkpt>
      <trkpt lat="47.28715" lon="-1.7381">
        <ele>79.6</ele>
        <time>2014-10-12T08:42:01Z</time>
      </trkpt>
      <trkpt lat="47.28713" lon="-1.73813">
        <ele>79.6</ele>
        <time>2014-10-12T08:42:02Z</time>
      </trkpt>
      <trkpt lat="47.28711" lon="-1.73817">
        <ele>79.6</ele>
        <time>2014-10-12T08:42:03Z</time>
      </trkpt>
      <trkpt lat="47.28707" lon="-1.7382">
        <ele>79.7</ele>
        <time>2014-10-12T08:42:04Z</time>
      </trkpt>
      <trkpt lat="47.28704" lon="-1.73823">
        <ele>79.7</ele>
        <time>2014-10-12T08:42:05Z</time>
      </trkpt>
      <trkpt lat="47.28701" lon="-1.73826">
        <ele>79.7</ele>
        <time>2014-10-12T08:42:06Z</time>
      </trkpt>
      <trkpt lat="47.28698" lon="-1.7383">
        <ele>79.7</ele>
        <time>2014-10-12T08:42:07Z</time>
      </trkpt>
      <trkpt lat="47.28695" lon="-1.73835">
        <ele>79.7</ele>
        <time>2014-10-12T08:42:08Z</time>
      </trkpt>
      <trkpt lat="47.28691" lon="-1.7384">
        <ele>79.8</ele>
        <time>2014-10-12T08:42:09Z</time>
      </trkpt>
      <trkpt lat="47.28687" lon="-1.73844">
        <ele>79.8</ele>
        <time>2014-10-12T08:42:10Z</time>
      </trkpt>
      <trkpt lat="47.28684" lon="-1.73848">
        <ele>79.8</ele>
        <time>2014-10-12T08:42:11Z</time>
      </trkpt>
      <trkpt lat="47.28682" lon="-1.73851">
        <ele>79.8</ele>
        <time>2014-10-12T08:42:12Z</time>
      </trkpt>
      <trkpt lat="47.2868" lon="-1.73855">
        <ele>79.8</ele>
        <time>2014-10-12T08:42:13Z</time>
      </trkpt>
      <trkpt lat="47.28678" lon="-1.73859">
        <ele>79.9</ele>
        <time>2014-10-12T08:42:14Z</time>
      </trkpt>
      <trkpt lat="47.28676" lon="-1.73863">
        <ele>79.9</ele>
        <time>2014-10-12T08:42:15Z</time>
      </trkpt>
      <trkpt lat="47.28674" lon="-1.73867">
        <ele>79.9</ele>
        <time>2014-10-12T08:42:16Z</time>
      </trkpt>
      <trkpt lat="47.28672" lon="-1.73871">
        <ele>79.9</ele>
        <time>2014-10-12T08:42:17Z</time>
      </trkpt>
      <trkpt lat="47.28668" lon="-1.73875">
        <ele>80</ele>
        <time>2014-10-12T08:42:18Z</time>
      </trkpt>
      <trkpt lat="47.28666" lon="-1.7388">
        <ele>79.9</ele>
        <time>2014-10-12T08:42:19Z</time>
      </trkpt>
      <trkpt lat="47.28663" lon="-1.73884">
        <ele>79.8</ele>
        <time>2014-10-12T08:42:20Z</time>
      </trkpt>
      <trkpt lat="47.28659" lon="-1.73888">
        <ele>79.8</ele>
        <time>2014-10-12T08:42:21Z</time>
      </trkpt>
      <trkpt lat="47.28656" lon="-1.73892">
        <ele>79.8</ele>
        <time>2014-10-12T08:42:22Z</time>
      </trkpt>
      <trkpt lat="47.28652" lon="-1.73896">
        <ele>79.8</ele>
        <time>2014-10-12T08:42:23Z</time>
      </trkpt>
      <trkpt lat="47.2865" lon="-1.739">
        <ele>79.7</ele>
        <time>2014-10-12T08:42:24Z</time>
      </trkpt>
      <trkpt lat="47.28647" lon="-1.73903">
        <ele>79.7</ele>
        <time>2014-10-12T08:42:25Z</time>
      </trkpt>
      <trkpt lat="47.28645" lon="-1.73908">
        <ele>79.6</ele>
        <time>2014-10-12T08:42:26Z</time>
      </trkpt>
      <trkpt lat="47.28643" lon="-1.73912">
        <ele>79.6</ele>
        <time>2014-10-12T08:42:27Z</time>
      </trkpt>
      <trkpt lat="47.28641" lon="-1.73916">
        <ele>79.5</ele>
        <time>2014-10-12T08:42:28Z</time>
      </trkpt>
      <trkpt lat="47.28639" lon="-1.7392">
        <ele>79.5</ele>
        <time>2014-10-12T08:42:29Z</time>
      </trkpt>
      <trkpt lat="47.28637" lon="-1.73923">
        <ele>79.5</ele>
        <time>2014-10-12T08:42:30Z</time>
      </trkpt>
      <trkpt lat="47.28633" lon="-1.73929">
        <ele>79.5</ele>
        <time>2014-10-12T08:42:32Z</time>
      </trkpt>
      <trkpt lat="47.28629" lon="-1.73932">
        <ele>79.5</ele>
        <time>2014-10-12T08:42:33Z</time>
      </trkpt>
      <trkpt lat="47.28627" lon="-1.73934">
        <ele>79.5</ele>
        <time>2014-10-12T08:42:34Z</time>
      </trkpt>
      <trkpt lat="47.28624" lon="-1.73936">
        <ele>79.5</ele>
        <time>2014-10-12T08:42:35Z</time>
      </trkpt>
      <trkpt lat="47.28619" lon="-1.73939">
        <ele>79.6</ele>
        <time>2014-10-12T08:42:36Z</time>
      </trkpt>
      <trkpt lat="47.28617" lon="-1.73941">
        <ele>79.6</ele>
        <time>2014-10-12T08:42:37Z</time>
      </trkpt>
      <trkpt lat="47.28609" lon="-1.73946">
        <ele>79.7</ele>
        <time>2014-10-12T08:42:38Z</time>
      </trkpt>
      <trkpt lat="47.28606" lon="-1.7395">
        <ele>79.6</ele>
        <time>2014-10-12T08:42:39Z</time>
      </trkpt>
      <trkpt lat="47.28601" lon="-1.73956">
        <ele>79.6</ele>
        <time>2014-10-12T08:42:40Z</time>
      </trkpt>
      <trkpt lat="47.28596" lon="-1.73961">
        <ele>79.7</ele>
        <time>2014-10-12T08:42:41Z</time>
      </trkpt>
      <trkpt lat="47.28592" lon="-1.73966">
        <ele>79.7</ele>
        <time>2014-10-12T08:42:42Z</time>
      </trkpt>
      <trkpt lat="47.28588" lon="-1.7397">
        <ele>79.8</ele>
        <time>2014-10-12T08:42:43Z</time>
      </trkpt>
      <trkpt lat="47.28584" lon="-1.73976">
        <ele>79.8</ele>
        <time>2014-10-12T08:42:44Z</time>
      </trkpt>
      <trkpt lat="47.2858" lon="-1.73981">
        <ele>79.8</ele>
        <time>2014-10-12T08:42:45Z</time>
      </trkpt>
      <trkpt lat="47.28576" lon="-1.73985">
        <ele>79.9</ele>
        <time>2014-10-12T08:42:46Z</time>
      </trkpt>
      <trkpt lat="47.28572" lon="-1.73989">
        <ele>79.9</ele>
        <time>2014-10-12T08:42:47Z</time>
      </trkpt>
      <trkpt lat="47.28569" lon="-1.73994">
        <ele>79.9</ele>
        <time>2014-10-12T08:42:48Z</time>
      </trkpt>
      <trkpt lat="47.28566" lon="-1.73997">
        <ele>80</ele>
        <time>2014-10-12T08:42:49Z</time>
      </trkpt>
      <trkpt lat="47.28562" lon="-1.74001">
        <ele>80</ele>
        <time>2014-10-12T08:42:50Z</time>
      </trkpt>
      <trkpt lat="47.28559" lon="-1.74005">
        <ele>80</ele>
        <time>2014-10-12T08:42:51Z</time>
      </trkpt>
      <trkpt lat="47.28556" lon="-1.74009">
        <ele>80.1</ele>
        <time>2014-10-12T08:42:52Z</time>
      </trkpt>
      <trkpt lat="47.28553" lon="-1.74013">
        <ele>80.1</ele>
        <time>2014-10-12T08:42:53Z</time>
      </trkpt>
      <trkpt lat="47.2855" lon="-1.74017">
        <ele>80.1</ele>
        <time>2014-10-12T08:42:54Z</time>
      </trkpt>
      <trkpt lat="47.28547" lon="-1.74021">
        <ele>80.1</ele>
        <time>2014-10-12T08:42:55Z</time>
      </trkpt>
      <trkpt lat="47.28543" lon="-1.74025">
        <ele>80.2</ele>
        <time>2014-10-12T08:42:56Z</time>
      </trkpt>
      <trkpt lat="47.2854" lon="-1.74029">
        <ele>80.2</ele>
        <time>2014-10-12T08:42:57Z</time>
      </trkpt>
      <trkpt lat="47.28537" lon="-1.74034">
        <ele>80.1</ele>
        <time>2014-10-12T08:42:58Z</time>
      </trkpt>
      <trkpt lat="47.28534" lon="-1.74039">
        <ele>80</ele>
        <time>2014-10-12T08:42:59Z</time>
      </trkpt>
      <trkpt lat="47.28531" lon="-1.74044">
        <ele>80</ele>
        <time>2014-10-12T08:43:00Z</time>
      </trkpt>
      <trkpt lat="47.28528" lon="-1.74049">
        <ele>80</ele>
        <time>2014-10-12T08:43:01Z</time>
      </trkpt>
      <trkpt lat="47.28525" lon="-1.74052">
        <ele>80</ele>
        <time>2014-10-12T08:43:02Z</time>
      </trkpt>
      <trkpt lat="47.28522" lon="-1.74056">
        <ele>80</ele>
        <time>2014-10-12T08:43:03Z</time>
      </trkpt>
      <trkpt lat="47.28519" lon="-1.7406">
        <ele>80.1</ele>
        <time>2014-10-12T08:43:04Z</time>
      </trkpt>
      <trkpt lat="47.28515" lon="-1.74064">
        <ele>80.1</ele>
        <time>2014-10-12T08:43:05Z</time>
      </trkpt>
      <trkpt lat="47.28512" lon="-1.74068">
        <ele>80.1</ele>
        <time>2014-10-12T08:43:06Z</time>
      </trkpt>
      <trkpt lat="47.28509" lon="-1.74072">
        <ele>80.1</ele>
        <time>2014-10-12T08:43:07Z</time>
      </trkpt>
      <trkpt lat="47.28506" lon="-1.74076">
        <ele>80.2</ele>
        <time>2014-10-12T08:43:08Z</time>
      </trkpt>
      <trkpt lat="47.28502" lon="-1.7408">
        <ele>80.2</ele>
        <time>2014-10-12T08:43:09Z</time>
      </trkpt>
      <trkpt lat="47.28499" lon="-1.74085">
        <ele>80.3</ele>
        <time>2014-10-12T08:43:10Z</time>
      </trkpt>
      <trkpt lat="47.28496" lon="-1.7409">
        <ele>80.3</ele>
        <time>2014-10-12T08:43:11Z</time>
      </trkpt>
      <trkpt lat="47.28492" lon="-1.74095">
        <ele>80.4</ele>
        <time>2014-10-12T08:43:12Z</time>
      </trkpt>
      <trkpt lat="47.28489" lon="-1.74099">
        <ele>80.4</ele>
        <time>2014-10-12T08:43:13Z</time>
      </trkpt>
      <trkpt lat="47.28486" lon="-1.74104">
        <ele>80.5</ele>
        <time>2014-10-12T08:43:14Z</time>
      </trkpt>
      <trkpt lat="47.28482" lon="-1.74108">
        <ele>80.6</ele>
        <time>2014-10-12T08:43:15Z</time>
      </trkpt>
      <trkpt lat="47.28479" lon="-1.74113">
        <ele>80.6</ele>
        <time>2014-10-12T08:43:16Z</time>
      </trkpt>
      <trkpt lat="47.28477" lon="-1.74117">
        <ele>80.7</ele>
        <time>2014-10-12T08:43:17Z</time>
      </trkpt>
      <trkpt lat="47.28474" lon="-1.74122">
        <ele>80.8</ele>
        <time>2014-10-12T08:43:18Z</time>
      </trkpt>
      <trkpt lat="47.28471" lon="-1.74126">
        <ele>80.9</ele>
        <time>2014-10-12T08:43:19Z</time>
      </trkpt>
      <trkpt lat="47.28467" lon="-1.7413">
        <ele>80.9</ele>
        <time>2014-10-12T08:43:20Z</time>
      </trkpt>
      <trkpt lat="47.28464" lon="-1.74134">
        <ele>80.9</ele>
        <time>2014-10-12T08:43:21Z</time>
      </trkpt>
      <trkpt lat="47.2846" lon="-1.74137">
        <ele>81</ele>
        <time>2014-10-12T08:43:22Z</time>
      </trkpt>
      <trkpt lat="47.28457" lon="-1.74142">
        <ele>81</ele>
        <time>2014-10-12T08:43:23Z</time>
      </trkpt>
      <trkpt lat="47.28454" lon="-1.74146">
        <ele>81</ele>
        <time>2014-10-12T08:43:24Z</time>
      </trkpt>
      <trkpt lat="47.28451" lon="-1.74149">
        <ele>81</ele>
        <time>2014-10-12T08:43:25Z</time>
      </trkpt>
      <trkpt lat="47.28448" lon="-1.74153">
        <ele>81</ele>
        <time>2014-10-12T08:43:26Z</time>
      </trkpt>
      <trkpt lat="47.28445" lon="-1.74157">
        <ele>81</ele>
        <time>2014-10-12T08:43:27Z</time>
      </trkpt>
      <trkpt lat="47.28442" lon="-1.74162">
        <ele>81</ele>
        <time>2014-10-12T08:43:28Z</time>
      </trkpt>
      <trkpt lat="47.28439" lon="-1.74166">
        <ele>81</ele>
        <time>2014-10-12T08:43:29Z</time>
      </trkpt>
      <trkpt lat="47.28436" lon="-1.7417">
        <ele>81</ele>
        <time>2014-10-12T08:43:30Z</time>
      </trkpt>
      <trkpt lat="47.28432" lon="-1.74174">
        <ele>81</ele>
        <time>2014-10-12T08:43:31Z</time>
      </trkpt>
      <trkpt lat="47.28429" lon="-1.74179">
        <ele>81</ele>
        <time>2014-10-12T08:43:32Z</time>
      </trkpt>
      <trkpt lat="47.28426" lon="-1.74183">
        <ele>81</ele>
        <time>2014-10-12T08:43:33Z</time>
      </trkpt>
      <trkpt lat="47.28423" lon="-1.74188">
        <ele>81</ele>
        <time>2014-10-12T08:43:34Z</time>
      </trkpt>
      <trkpt lat="47.2842" lon="-1.74192">
        <ele>81</ele>
        <time>2014-10-12T08:43:35Z</time>
      </trkpt>
      <trkpt lat="47.28417" lon="-1.74197">
        <ele>81</ele>
        <time>2014-10-12T08:43:36Z</time>
      </trkpt>
      <trkpt lat="47.28414" lon="-1.74201">
        <ele>81</ele>
        <time>2014-10-12T08:43:37Z</time>
      </trkpt>
      <trkpt lat="47.28411" lon="-1.74205">
        <ele>81</ele>
        <time>2014-10-12T08:43:38Z</time>
      </trkpt>
      <trkpt lat="47.28407" lon="-1.74209">
        <ele>81</ele>
        <time>2014-10-12T08:43:39Z</time>
      </trkpt>
      <trkpt lat="47.28403" lon="-1.74214">
        <ele>81.1</ele>
        <time>2014-10-12T08:43:40Z</time>
      </trkpt>
      <trkpt lat="47.284" lon="-1.74218">
        <ele>81.2</ele>
        <time>2014-10-12T08:43:41Z</time>
      </trkpt>
      <trkpt lat="47.28397" lon="-1.74222">
        <ele>81.2</ele>
        <time>2014-10-12T08:43:42Z</time>
      </trkpt>
      <trkpt lat="47.28394" lon="-1.74227">
        <ele>81.3</ele>
        <time>2014-10-12T08:43:43Z</time>
      </trkpt>
      <trkpt lat="47.28391" lon="-1.74232">
        <ele>81.3</ele>
        <time>2014-10-12T08:43:44Z</time>
      </trkpt>
      <trkpt lat="47.28388" lon="-1.74236">
        <ele>81.4</ele>
        <time>2014-10-12T08:43:45Z</time>
      </trkpt>
      <trkpt lat="47.28385" lon="-1.74241">
        <ele>81.4</ele>
        <time>2014-10-12T08:43:46Z</time>
      </trkpt>
      <trkpt lat="47.28383" lon="-1.74244">
        <ele>81.5</ele>
        <time>2014-10-12T08:43:47Z</time>
      </trkpt>
      <trkpt lat="47.2838" lon="-1.74247">
        <ele>81.5</ele>
        <time>2014-10-12T08:43:48Z</time>
      </trkpt>
      <trkpt lat="47.28375" lon="-1.74248">
        <ele>81.5</ele>
        <time>2014-10-12T08:43:50Z</time>
      </trkpt>
      <trkpt lat="47.28372" lon="-1.74247">
        <ele>81.3</ele>
        <time>2014-10-12T08:43:51Z</time>
      </trkpt>
      <trkpt lat="47.28368" lon="-1.74246">
        <ele>81.2</ele>
        <time>2014-10-12T08:43:52Z</time>
      </trkpt>
      <trkpt lat="47.28365" lon="-1.74242">
        <ele>81</ele>
        <time>2014-10-12T08:43:53Z</time>
      </trkpt>
      <trkpt lat="47.28362" lon="-1.74238">
        <ele>80.9</ele>
        <time>2014-10-12T08:43:54Z</time>
      </trkpt>
      <trkpt lat="47.28361" lon="-1.74233">
        <ele>80.8</ele>
        <time>2014-10-12T08:43:55Z</time>
      </trkpt>
      <trkpt lat="47.28359" lon="-1.74229">
        <ele>80.7</ele>
        <time>2014-10-12T08:43:56Z</time>
      </trkpt>
      <trkpt lat="47.28358" lon="-1.74225">
        <ele>80.7</ele>
        <time>2014-10-12T08:43:57Z</time>
      </trkpt>
      <trkpt lat="47.28356" lon="-1.7422">
        <ele>80.6</ele>
        <time>2014-10-12T08:43:58Z</time>
      </trkpt>
      <trkpt lat="47.28354" lon="-1.74215">
        <ele>80.5</ele>
        <time>2014-10-12T08:43:59Z</time>
      </trkpt>
      <trkpt lat="47.28352" lon="-1.7421">
        <ele>80.4</ele>
        <time>2014-10-12T08:44:00Z</time>
      </trkpt>
      <trkpt lat="47.2835" lon="-1.74206">
        <ele>80.4</ele>
        <time>2014-10-12T08:44:01Z</time>
      </trkpt>
      <trkpt lat="47.28348" lon="-1.74201">
        <ele>80.4</ele>
        <time>2014-10-12T08:44:02Z</time>
      </trkpt>
      <trkpt lat="47.28346" lon="-1.74196">
        <ele>80.4</ele>
        <time>2014-10-12T08:44:03Z</time>
      </trkpt>
      <trkpt lat="47.28344" lon="-1.74191">
        <ele>80.4</ele>
        <time>2014-10-12T08:44:04Z</time>
      </trkpt>
      <trkpt lat="47.28341" lon="-1.74186">
        <ele>80.4</ele>
        <time>2014-10-12T08:44:05Z</time>
      </trkpt>
      <trkpt lat="47.28339" lon="-1.74181">
        <ele>80.4</ele>
        <time>2014-10-12T08:44:06Z</time>
      </trkpt>
      <trkpt lat="47.28337" lon="-1.74176">
        <ele>80.4</ele>
        <time>2014-10-12T08:44:07Z</time>
      </trkpt>
      <trkpt lat="47.28335" lon="-1.74171">
        <ele>80.5</ele>
        <time>2014-10-12T08:44:08Z</time>
      </trkpt>
      <trkpt lat="47.28334" lon="-1.74165">
        <ele>80.5</ele>
        <time>2014-10-12T08:44:09Z</time>
      </trkpt>
      <trkpt lat="47.28332" lon="-1.74158">
        <ele>80.6</ele>
        <time>2014-10-12T08:44:10Z</time>
      </trkpt>
      <trkpt lat="47.28331" lon="-1.74151">
        <ele>80.7</ele>
        <time>2014-10-12T08:44:11Z</time>
      </trkpt>
      <trkpt lat="47.28329" lon="-1.74145">
        <ele>80.7</ele>
        <time>2014-10-12T08:44:12Z</time>
      </trkpt>
      <trkpt lat="47.28327" lon="-1.74139">
        <ele>80.8</ele>
        <time>2014-10-12T08:44:13Z</time>
      </trkpt>
      <trkpt lat="47.28325" lon="-1.74133">
        <ele>80.9</ele>
        <time>2014-10-12T08:44:14Z</time>
      </trkpt>
      <trkpt lat="47.28323" lon="-1.74128">
        <ele>81</ele>
        <time>2014-10-12T08:44:15Z</time>
      </trkpt>
      <trkpt lat="47.28322" lon="-1.74122">
        <ele>81.1</ele>
        <time>2014-10-12T08:44:16Z</time>
      </trkpt>
      <trkpt lat="47.2832" lon="-1.74117">
        <ele>81.2</ele>
        <time>2014-10-12T08:44:17Z</time>
      </trkpt>
      <trkpt lat="47.28319" lon="-1.74111">
        <ele>81.3</ele>
        <time>2014-10-12T08:44:18Z</time>
      </trkpt>
      <trkpt lat="47.28317" lon="-1.74107">
        <ele>81.5</ele>
        <time>2014-10-12T08:44:19Z</time>
      </trkpt>
      <trkpt lat="47.28315" lon="-1.74103">
        <ele>81.6</ele>
        <time>2014-10-12T08:44:20Z</time>
      </trkpt>
      <trkpt lat="47.28312" lon="-1.74101">
        <ele>81.7</ele>
        <time>2014-10-12T08:44:21Z</time>
      </trkpt>
      <trkpt lat="47.28308" lon="-1.74102">
        <ele>81.7</ele>
        <time>2014-10-12T08:44:23Z</time>
      </trkpt>
      <trkpt lat="47.28304" lon="-1.74104">
        <ele>81.7</ele>
        <time>2014-10-12T08:44:25Z</time>
      </trkpt>
      <trkpt lat="47.28298" lon="-1.74106">
        <ele>81.6</ele>
        <time>2014-10-12T08:44:27Z</time>
      </trkpt>
      <trkpt lat="47.28293" lon="-1.74106">
        <ele>81.7</ele>
        <time>2014-10-12T08:44:29Z</time>
      </trkpt>
      <trkpt lat="47.28288" lon="-1.74107">
        <ele>81.5</ele>
        <time>2014-10-12T08:44:31Z</time>
      </trkpt>
      <trkpt lat="47.28284" lon="-1.74109">
        <ele>81.3</ele>
        <time>2014-10-12T08:44:33Z</time>
      </trkpt>
      <trkpt lat="47.28281" lon="-1.74112">
        <ele>81.1</ele>
        <time>2014-10-12T08:44:35Z</time>
      </trkpt>
      <trkpt lat="47.28275" lon="-1.74114">
        <ele>80.8</ele>
        <time>2014-10-12T08:44:37Z</time>
      </trkpt>
      <trkpt lat="47.28272" lon="-1.74115">
        <ele>80.6</ele>
        <time>2014-10-12T08:44:38Z</time>
      </trkpt>
      <trkpt lat="47.28269" lon="-1.74116">
        <ele>80.5</ele>
        <time>2014-10-12T08:44:39Z</time>
      </trkpt>
      <trkpt lat="47.28266" lon="-1.74117">
        <ele>80.3</ele>
        <time>2014-10-12T08:44:40Z</time>
      </trkpt>
      <trkpt lat="47.28262" lon="-1.74118">
        <ele>80.1</ele>
        <time>2014-10-12T08:44:41Z</time>
      </trkpt>
      <trkpt lat="47.28254" lon="-1.74121">
        <ele>79.8</ele>
        <time>2014-10-12T08:44:42Z</time>
      </trkpt>
      <trkpt lat="47.28247" lon="-1.74123">
        <ele>79.5</ele>
        <time>2014-10-12T08:44:43Z</time>
      </trkpt>
      <trkpt lat="47.2824" lon="-1.74123">
        <ele>79.2</ele>
        <time>2014-10-12T08:44:44Z</time>
      </trkpt>
      <trkpt lat="47.28233" lon="-1.74123">
        <ele>78.9</ele>
        <time>2014-10-12T08:44:45Z</time>
      </trkpt>
      <trkpt lat="47.28229" lon="-1.74126">
        <ele>78.7</ele>
        <time>2014-10-12T08:44:46Z</time>
      </trkpt>
      <trkpt lat="47.28223" lon="-1.74127">
        <ele>78.5</ele>
        <time>2014-10-12T08:44:47Z</time>
      </trkpt>
      <trkpt lat="47.28218" lon="-1.74127">
        <ele>78.3</ele>
        <time>2014-10-12T08:44:48Z</time>
      </trkpt>
      <trkpt lat="47.28212" lon="-1.74128">
        <ele>78</ele>
        <time>2014-10-12T08:44:49Z</time>
      </trkpt>
      <trkpt lat="47.28206" lon="-1.74129">
        <ele>77.8</ele>
        <time>2014-10-12T08:44:50Z</time>
      </trkpt>
      <trkpt lat="47.28201" lon="-1.7413">
        <ele>77.6</ele>
        <time>2014-10-12T08:44:51Z</time>
      </trkpt>
      <trkpt lat="47.28196" lon="-1.74131">
        <ele>77.5</ele>
        <time>2014-10-12T08:44:52Z</time>
      </trkpt>
      <trkpt lat="47.28191" lon="-1.74132">
        <ele>77.3</ele>
        <time>2014-10-12T08:44:53Z</time>
      </trkpt>
      <trkpt lat="47.28186" lon="-1.74134">
        <ele>77.2</ele>
        <time>2014-10-12T08:44:54Z</time>
      </trkpt>
      <trkpt lat="47.28181" lon="-1.74134">
        <ele>77</ele>
        <time>2014-10-12T08:44:55Z</time>
      </trkpt>
      <trkpt lat="47.28176" lon="-1.74135">
        <ele>76.9</ele>
        <time>2014-10-12T08:44:56Z</time>
      </trkpt>
      <trkpt lat="47.28171" lon="-1.74136">
        <ele>76.7</ele>
        <time>2014-10-12T08:44:57Z</time>
      </trkpt>
      <trkpt lat="47.28167" lon="-1.74137">
        <ele>76.6</ele>
        <time>2014-10-12T08:44:58Z</time>
      </trkpt>
      <trkpt lat="47.28163" lon="-1.74138">
        <ele>76.4</ele>
        <time>2014-10-12T08:44:59Z</time>
      </trkpt>
      <trkpt lat="47.28159" lon="-1.7414">
        <ele>76.3</ele>
        <time>2014-10-12T08:45:00Z</time>
      </trkpt>
      <trkpt lat="47.28154" lon="-1.74141">
        <ele>76.1</ele>
        <time>2014-10-12T08:45:01Z</time>
      </trkpt>
      <trkpt lat="47.28149" lon="-1.74142">
        <ele>76</ele>
        <time>2014-10-12T08:45:02Z</time>
      </trkpt>
      <trkpt lat="47.28145" lon="-1.74143">
        <ele>75.8</ele>
        <time>2014-10-12T08:45:03Z</time>
      </trkpt>
      <trkpt lat="47.2814" lon="-1.74145">
        <ele>75.7</ele>
        <time>2014-10-12T08:45:04Z</time>
      </trkpt>
      <trkpt lat="47.28135" lon="-1.74146">
        <ele>75.5</ele>
        <time>2014-10-12T08:45:05Z</time>
      </trkpt>
      <trkpt lat="47.2813" lon="-1.74147">
        <ele>75.3</ele>
        <time>2014-10-12T08:45:06Z</time>
      </trkpt>
      <trkpt lat="47.28125" lon="-1.74148">
        <ele>75.2</ele>
        <time>2014-10-12T08:45:07Z</time>
      </trkpt>
      <trkpt lat="47.28121" lon="-1.7415">
        <ele>75</ele>
        <time>2014-10-12T08:45:08Z</time>
      </trkpt>
      <trkpt lat="47.28116" lon="-1.74151">
        <ele>74.8</ele>
        <time>2014-10-12T08:45:09Z</time>
      </trkpt>
      <trkpt lat="47.28111" lon="-1.74153">
        <ele>74.6</ele>
        <time>2014-10-12T08:45:10Z</time>
      </trkpt>
      <trkpt lat="47.28106" lon="-1.74154">
        <ele>74.4</ele>
        <time>2014-10-12T08:45:11Z</time>
      </trkpt>
      <trkpt lat="47.28102" lon="-1.74155">
        <ele>74.3</ele>
        <time>2014-10-12T08:45:12Z</time>
      </trkpt>
      <trkpt lat="47.28096" lon="-1.74157">
        <ele>74.1</ele>
        <time>2014-10-12T08:45:13Z</time>
      </trkpt>
      <trkpt lat="47.2809" lon="-1.74158">
        <ele>73.9</ele>
        <time>2014-10-12T08:45:14Z</time>
      </trkpt>
      <trkpt lat="47.28085" lon="-1.7416">
        <ele>73.7</ele>
        <time>2014-10-12T08:45:15Z</time>
      </trkpt>
      <trkpt lat="47.2808" lon="-1.74161">
        <ele>73.5</ele>
        <time>2014-10-12T08:45:16Z</time>
      </trkpt>
      <trkpt lat="47.28076" lon="-1.74162">
        <ele>73.4</ele>
        <time>2014-10-12T08:45:17Z</time>
      </trkpt>
      <trkpt lat="47.28071" lon="-1.74163">
        <ele>73.3</ele>
        <time>2014-10-12T08:45:18Z</time>
      </trkpt>
      <trkpt lat="47.28067" lon="-1.74165">
        <ele>73.1</ele>
        <time>2014-10-12T08:45:19Z</time>
      </trkpt>
      <trkpt lat="47.28062" lon="-1.74166">
        <ele>73</ele>
        <time>2014-10-12T08:45:20Z</time>
      </trkpt>
      <trkpt lat="47.28058" lon="-1.74167">
        <ele>72.9</ele>
        <time>2014-10-12T08:45:21Z</time>
      </trkpt>
      <trkpt lat="47.28054" lon="-1.74168">
        <ele>72.8</ele>
        <time>2014-10-12T08:45:22Z</time>
      </trkpt>
      <trkpt lat="47.2805" lon="-1.7417">
        <ele>72.7</ele>
        <time>2014-10-12T08:45:23Z</time>
      </trkpt>
      <trkpt lat="47.28045" lon="-1.74171">
        <ele>72.5</ele>
        <time>2014-10-12T08:45:24Z</time>
      </trkpt>
      <trkpt lat="47.28041" lon="-1.74172">
        <ele>72.4</ele>
        <time>2014-10-12T08:45:25Z</time>
      </trkpt>
      <trkpt lat="47.28036" lon="-1.74174">
        <ele>72.4</ele>
        <time>2014-10-12T08:45:26Z</time>
      </trkpt>
      <trkpt lat="47.2803" lon="-1.74175">
        <ele>72.3</ele>
        <time>2014-10-12T08:45:27Z</time>
      </trkpt>
      <trkpt lat="47.28025" lon="-1.74177">
        <ele>72.2</ele>
        <time>2014-10-12T08:45:28Z</time>
      </trkpt>
      <trkpt lat="47.2802" lon="-1.74178">
        <ele>72.1</ele>
        <time>2014-10-12T08:45:29Z</time>
      </trkpt>
      <trkpt lat="47.28014" lon="-1.7418">
        <ele>72</ele>
        <time>2014-10-12T08:45:30Z</time>
      </trkpt>
      <trkpt lat="47.28008" lon="-1.74181">
        <ele>71.9</ele>
        <time>2014-10-12T08:45:31Z</time>
      </trkpt>
      <trkpt lat="47.28003" lon="-1.74183">
        <ele>71.8</ele>
        <time>2014-10-12T08:45:32Z</time>
      </trkpt>
      <trkpt lat="47.27998" lon="-1.74184">
        <ele>71.7</ele>
        <time>2014-10-12T08:45:33Z</time>
      </trkpt>
      <trkpt lat="47.27993" lon="-1.74185">
        <ele>71.6</ele>
        <time>2014-10-12T08:45:34Z</time>
      </trkpt>
      <trkpt lat="47.27988" lon="-1.74187">
        <ele>71.5</ele>
        <time>2014-10-12T08:45:35Z</time>
      </trkpt>
      <trkpt lat="47.27983" lon="-1.74188">
        <ele>71.3</ele>
        <time>2014-10-12T08:45:36Z</time>
      </trkpt>
      <trkpt lat="47.27977" lon="-1.74189">
        <ele>71.2</ele>
        <time>2014-10-12T08:45:37Z</time>
      </trkpt>
      <trkpt lat="47.27973" lon="-1.74191">
        <ele>71.1</ele>
        <time>2014-10-12T08:45:38Z</time>
      </trkpt>
      <trkpt lat="47.27969" lon="-1.74191">
        <ele>71</ele>
        <time>2014-10-12T08:45:39Z</time>
      </trkpt>
      <trkpt lat="47.27964" lon="-1.74192">
        <ele>70.9</ele>
        <time>2014-10-12T08:45:40Z</time>
      </trkpt>
      <trkpt lat="47.2796" lon="-1.74192">
        <ele>70.8</ele>
        <time>2014-10-12T08:45:41Z</time>
      </trkpt>
      <trkpt lat="47.27955" lon="-1.74191">
        <ele>70.8</ele>
        <time>2014-10-12T08:45:42Z</time>
      </trkpt>
      <trkpt lat="47.2795" lon="-1.7419">
        <ele>70.8</ele>
        <time>2014-10-12T08:45:43Z</time>
      </trkpt>
      <trkpt lat="47.27943" lon="-1.74189">
        <ele>70.9</ele>
        <time>2014-10-12T08:45:44Z</time>
      </trkpt>
      <trkpt lat="47.27938" lon="-1.74186">
        <ele>70.9</ele>
        <time>2014-10-12T08:45:45Z</time>
      </trkpt>
      <trkpt lat="47.27934" lon="-1.74183">
        <ele>71</ele>
        <time>2014-10-12T08:45:46Z</time>
      </trkpt>
      <trkpt lat="47.2793" lon="-1.7418">
        <ele>71.1</ele>
        <time>2014-10-12T08:45:47Z</time>
      </trkpt>
      <trkpt lat="47.27925" lon="-1.74177">
        <ele>71.2</ele>
        <time>2014-10-12T08:45:48Z</time>
      </trkpt>
      <trkpt lat="47.2792" lon="-1.74174">
        <ele>71.3</ele>
        <time>2014-10-12T08:45:49Z</time>
      </trkpt>
      <trkpt lat="47.27916" lon="-1.74171">
        <ele>71.3</ele>
        <time>2014-10-12T08:45:50Z</time>
      </trkpt>
      <trkpt lat="47.27912" lon="-1.74168">
        <ele>71.4</ele>
        <time>2014-10-12T08:45:51Z</time>
      </trkpt>
      <trkpt lat="47.27909" lon="-1.74166">
        <ele>71.4</ele>
        <time>2014-10-12T08:45:52Z</time>
      </trkpt>
      <trkpt lat="47.27905" lon="-1.74163">
        <ele>71.5</ele>
        <time>2014-10-12T08:45:53Z</time>
      </trkpt>
      <trkpt lat="47.279" lon="-1.74159">
        <ele>71.5</ele>
        <time>2014-10-12T08:45:54Z</time>
      </trkpt>
      <trkpt lat="47.27894" lon="-1.74156">
        <ele>71.6</ele>
        <time>2014-10-12T08:45:55Z</time>
      </trkpt>
      <trkpt lat="47.27889" lon="-1.74152">
        <ele>71.6</ele>
        <time>2014-10-12T08:45:56Z</time>
      </trkpt>
      <trkpt lat="47.27884" lon="-1.74148">
        <ele>71.6</ele>
        <time>2014-10-12T08:45:57Z</time>
      </trkpt>
      <trkpt lat="47.27879" lon="-1.74145">
        <ele>71.6</ele>
        <time>2014-10-12T08:45:58Z</time>
      </trkpt>
      <trkpt lat="47.27874" lon="-1.74142">
        <ele>71.6</ele>
        <time>2014-10-12T08:45:59Z</time>
      </trkpt>
      <trkpt lat="47.27868" lon="-1.74138">
        <ele>71.5</ele>
        <time>2014-10-12T08:46:00Z</time>
      </trkpt>
      <trkpt lat="47.27863" lon="-1.74134">
        <ele>71.5</ele>
        <time>2014-10-12T08:46:01Z</time>
      </trkpt>
      <trkpt lat="47.27858" lon="-1.74131">
        <ele>71.4</ele>
        <time>2014-10-12T08:46:02Z</time>
      </trkpt>
      <trkpt lat="47.27853" lon="-1.74128">
        <ele>71.4</ele>
        <time>2014-10-12T08:46:03Z</time>
      </trkpt>
      <trkpt lat="47.27849" lon="-1.74125">
        <ele>71.4</ele>
        <time>2014-10-12T08:46:04Z</time>
      </trkpt>
      <trkpt lat="47.27844" lon="-1.74122">
        <ele>71.3</ele>
        <time>2014-10-12T08:46:05Z</time>
      </trkpt>
      <trkpt lat="47.2784" lon="-1.74119">
        <ele>71.3</ele>
        <time>2014-10-12T08:46:06Z</time>
      </trkpt>
      <trkpt lat="47.27836" lon="-1.74115">
        <ele>71.2</ele>
        <time>2014-10-12T08:46:07Z</time>
      </trkpt>
      <trkpt lat="47.27832" lon="-1.74112">
        <ele>71.2</ele>
        <time>2014-10-12T08:46:08Z</time>
      </trkpt>
      <trkpt lat="47.27828" lon="-1.74109">
        <ele>71.2</ele>
        <time>2014-10-12T08:46:09Z</time>
      </trkpt>
      <trkpt lat="47.27824" lon="-1.74108">
        <ele>71.1</ele>
        <time>2014-10-12T08:46:10Z</time>
      </trkpt>
      <trkpt lat="47.2782" lon="-1.74109">
        <ele>71</ele>
        <time>2014-10-12T08:46:11Z</time>
      </trkpt>
      <trkpt lat="47.27817" lon="-1.74112">
        <ele>70.8</ele>
        <time>2014-10-12T08:46:12Z</time>
      </trkpt>
      <trkpt lat="47.27815" lon="-1.74116">
        <ele>70.7</ele>
        <time>2014-10-12T08:46:13Z</time>
      </trkpt>
      <trkpt lat="47.27813" lon="-1.74121">
        <ele>70.6</ele>
        <time>2014-10-12T08:46:14Z</time>
      </trkpt>
      <trkpt lat="47.2781" lon="-1.74126">
        <ele>70.4</ele>
        <time>2014-10-12T08:46:15Z</time>
      </trkpt>
      <trkpt lat="47.27807" lon="-1.74132">
        <ele>70.1</ele>
        <time>2014-10-12T08:46:16Z</time>
      </trkpt>
      <trkpt lat="47.27804" lon="-1.74138">
        <ele>69.9</ele>
        <time>2014-10-12T08:46:17Z</time>
      </trkpt>
      <trkpt lat="47.27802" lon="-1.74143">
        <ele>69.6</ele>
        <time>2014-10-12T08:46:18Z</time>
      </trkpt>
      <trkpt lat="47.27798" lon="-1.7415">
        <ele>69.3</ele>
        <time>2014-10-12T08:46:19Z</time>
      </trkpt>
      <trkpt lat="47.27796" lon="-1.74156">
        <ele>69</ele>
        <time>2014-10-12T08:46:20Z</time>
      </trkpt>
      <trkpt lat="47.27792" lon="-1.74164">
        <ele>68.6</ele>
        <time>2014-10-12T08:46:21Z</time>
      </trkpt>
      <trkpt lat="47.27789" lon="-1.74171">
        <ele>68.3</ele>
        <time>2014-10-12T08:46:22Z</time>
      </trkpt>
      <trkpt lat="47.27787" lon="-1.74178">
        <ele>68</ele>
        <time>2014-10-12T08:46:23Z</time>
      </trkpt>
      <trkpt lat="47.27784" lon="-1.74185">
        <ele>67.7</ele>
        <time>2014-10-12T08:46:24Z</time>
      </trkpt>
      <trkpt lat="47.27781" lon="-1.74192">
        <ele>67.4</ele>
        <time>2014-10-12T08:46:25Z</time>
      </trkpt>
      <trkpt lat="47.27778" lon="-1.74199">
        <ele>67.1</ele>
        <time>2014-10-12T08:46:26Z</time>
      </trkpt>
      <trkpt lat="47.27776" lon="-1.74206">
        <ele>66.9</ele>
        <time>2014-10-12T08:46:27Z</time>
      </trkpt>
      <trkpt lat="47.27773" lon="-1.74214">
        <ele>66.7</ele>
        <time>2014-10-12T08:46:28Z</time>
      </trkpt>
      <trkpt lat="47.27771" lon="-1.74221">
        <ele>66.7</ele>
        <time>2014-10-12T08:46:29Z</time>
      </trkpt>
      <trkpt lat="47.27768" lon="-1.74227">
        <ele>66.6</ele>
        <time>2014-10-12T08:46:30Z</time>
      </trkpt>
      <trkpt lat="47.27766" lon="-1.74234">
        <ele>66.6</ele>
        <time>2014-10-12T08:46:31Z</time>
      </trkpt>
      <trkpt lat="47.27763" lon="-1.7424">
        <ele>66.5</ele>
        <time>2014-10-12T08:46:32Z</time>
      </trkpt>
      <trkpt lat="47.2776" lon="-1.74247">
        <ele>66.5</ele>
        <time>2014-10-12T08:46:33Z</time>
      </trkpt>
      <trkpt lat="47.27756" lon="-1.74254">
        <ele>66.5</ele>
        <time>2014-10-12T08:46:34Z</time>
      </trkpt>
      <trkpt lat="47.27753" lon="-1.7426">
        <ele>66.5</ele>
        <time>2014-10-12T08:46:35Z</time>
      </trkpt>
      <trkpt lat="47.2775" lon="-1.74266">
        <ele>66.5</ele>
        <time>2014-10-12T08:46:36Z</time>
      </trkpt>
      <trkpt lat="47.27746" lon="-1.74273">
        <ele>66.5</ele>
        <time>2014-10-12T08:46:37Z</time>
      </trkpt>
      <trkpt lat="47.27742" lon="-1.74279">
        <ele>66.6</ele>
        <time>2014-10-12T08:46:38Z</time>
      </trkpt>
      <trkpt lat="47.27738" lon="-1.74285">
        <ele>66.6</ele>
        <time>2014-10-12T08:46:39Z</time>
      </trkpt>
      <trkpt lat="47.27735" lon="-1.74293">
        <ele>66.7</ele>
        <time>2014-10-12T08:46:40Z</time>
      </trkpt>
      <trkpt lat="47.27733" lon="-1.743">
        <ele>66.8</ele>
        <time>2014-10-12T08:46:41Z</time>
      </trkpt>
      <trkpt lat="47.27731" lon="-1.74309">
        <ele>66.8</ele>
        <time>2014-10-12T08:46:42Z</time>
      </trkpt>
      <trkpt lat="47.27729" lon="-1.74317">
        <ele>66.9</ele>
        <time>2014-10-12T08:46:43Z</time>
      </trkpt>
      <trkpt lat="47.27728" lon="-1.74325">
        <ele>67</ele>
        <time>2014-10-12T08:46:44Z</time>
      </trkpt>
      <trkpt lat="47.27726" lon="-1.74333">
        <ele>67.1</ele>
        <time>2014-10-12T08:46:45Z</time>
      </trkpt>
      <trkpt lat="47.27724" lon="-1.74339">
        <ele>67.2</ele>
        <time>2014-10-12T08:46:46Z</time>
      </trkpt>
      <trkpt lat="47.27721" lon="-1.74345">
        <ele>67.3</ele>
        <time>2014-10-12T08:46:47Z</time>
      </trkpt>
      <trkpt lat="47.27719" lon="-1.74351">
        <ele>67.4</ele>
        <time>2014-10-12T08:46:48Z</time>
      </trkpt>
      <trkpt lat="47.27717" lon="-1.74357">
        <ele>67.5</ele>
        <time>2014-10-12T08:46:49Z</time>
      </trkpt>
      <trkpt lat="47.27714" lon="-1.74362">
        <ele>67.7</ele>
        <time>2014-10-12T08:46:50Z</time>
      </trkpt>
      <trkpt lat="47.2771" lon="-1.74366">
        <ele>67.8</ele>
        <time>2014-10-12T08:46:51Z</time>
      </trkpt>
      <trkpt lat="47.27706" lon="-1.74369">
        <ele>67.9</ele>
        <time>2014-10-12T08:46:52Z</time>
      </trkpt>
      <trkpt lat="47.27702" lon="-1.74372">
        <ele>67.9</ele>
        <time>2014-10-12T08:46:53Z</time>
      </trkpt>
      <trkpt lat="47.27697" lon="-1.74374">
        <ele>67.8</ele>
        <time>2014-10-12T08:46:54Z</time>
      </trkpt>
      <trkpt lat="47.27692" lon="-1.74375">
        <ele>67.8</ele>
        <time>2014-10-12T08:46:55Z</time>
      </trkpt>
      <trkpt lat="47.27687" lon="-1.74376">
        <ele>67.8</ele>
        <time>2014-10-12T08:46:56Z</time>
      </trkpt>
      <trkpt lat="47.27683" lon="-1.74377">
        <ele>67.7</ele>
        <time>2014-10-12T08:46:57Z</time>
      </trkpt>
      <trkpt lat="47.27679" lon="-1.74377">
        <ele>67.7</ele>
        <time>2014-10-12T08:46:58Z</time>
      </trkpt>
      <trkpt lat="47.27675" lon="-1.74378">
        <ele>67.6</ele>
        <time>2014-10-12T08:46:59Z</time>
      </trkpt>
      <trkpt lat="47.2767" lon="-1.74379">
        <ele>67.6</ele>
        <time>2014-10-12T08:47:00Z</time>
      </trkpt>
      <trkpt lat="47.27666" lon="-1.7438">
        <ele>67.6</ele>
        <time>2014-10-12T08:47:01Z</time>
      </trkpt>
      <trkpt lat="47.27662" lon="-1.74381">
        <ele>67.5</ele>
        <time>2014-10-12T08:47:02Z</time>
      </trkpt>
      <trkpt lat="47.27658" lon="-1.74382">
        <ele>67.5</ele>
        <time>2014-10-12T08:47:03Z</time>
      </trkpt>
      <trkpt lat="47.27654" lon="-1.74384">
        <ele>67.5</ele>
        <time>2014-10-12T08:47:04Z</time>
      </trkpt>
      <trkpt lat="47.27649" lon="-1.74385">
        <ele>67.5</ele>
        <time>2014-10-12T08:47:05Z</time>
      </trkpt>
      <trkpt lat="47.27644" lon="-1.74386">
        <ele>67.4</ele>
        <time>2014-10-12T08:47:06Z</time>
      </trkpt>
      <trkpt lat="47.27639" lon="-1.74387">
        <ele>67.4</ele>
        <time>2014-10-12T08:47:07Z</time>
      </trkpt>
      <trkpt lat="47.27634" lon="-1.74387">
        <ele>67.4</ele>
        <time>2014-10-12T08:47:08Z</time>
      </trkpt>
      <trkpt lat="47.27629" lon="-1.74388">
        <ele>67.3</ele>
        <time>2014-10-12T08:47:09Z</time>
      </trkpt>
      <trkpt lat="47.27624" lon="-1.74388">
        <ele>67.3</ele>
        <time>2014-10-12T08:47:10Z</time>
      </trkpt>
      <trkpt lat="47.2762" lon="-1.74389">
        <ele>67.2</ele>
        <time>2014-10-12T08:47:11Z</time>
      </trkpt>
      <trkpt lat="47.27615" lon="-1.7439">
        <ele>67.1</ele>
        <time>2014-10-12T08:47:12Z</time>
      </trkpt>
      <trkpt lat="47.27611" lon="-1.74391">
        <ele>67</ele>
        <time>2014-10-12T08:47:13Z</time>
      </trkpt>
      <trkpt lat="47.27607" lon="-1.74393">
        <ele>66.9</ele>
        <time>2014-10-12T08:47:14Z</time>
      </trkpt>
      <trkpt lat="47.27603" lon="-1.74394">
        <ele>66.9</ele>
        <time>2014-10-12T08:47:15Z</time>
      </trkpt>
      <trkpt lat="47.27599" lon="-1.74395">
        <ele>66.8</ele>
        <time>2014-10-12T08:47:16Z</time>
      </trkpt>
      <trkpt lat="47.27596" lon="-1.74398">
        <ele>66.8</ele>
        <time>2014-10-12T08:47:17Z</time>
      </trkpt>
      <trkpt lat="47.27594" lon="-1.74402">
        <ele>66.8</ele>
        <time>2014-10-12T08:47:18Z</time>
      </trkpt>
      <trkpt lat="47.27592" lon="-1.74406">
        <ele>66.8</ele>
        <time>2014-10-12T08:47:19Z</time>
      </trkpt>
      <trkpt lat="47.27592" lon="-1.74411">
        <ele>66.9</ele>
        <time>2014-10-12T08:47:20Z</time>
      </trkpt>
      <trkpt lat="47.27592" lon="-1.74415">
        <ele>67</ele>
        <time>2014-10-12T08:47:21Z</time>
      </trkpt>
      <trkpt lat="47.27593" lon="-1.74421">
        <ele>67.1</ele>
        <time>2014-10-12T08:47:22Z</time>
      </trkpt>
      <trkpt lat="47.27593" lon="-1.74426">
        <ele>67.2</ele>
        <time>2014-10-12T08:47:23Z</time>
      </trkpt>
      <trkpt lat="47.27594" lon="-1.74432">
        <ele>67.4</ele>
        <time>2014-10-12T08:47:24Z</time>
      </trkpt>
      <trkpt lat="47.27594" lon="-1.74437">
        <ele>67.5</ele>
        <time>2014-10-12T08:47:25Z</time>
      </trkpt>
      <trkpt lat="47.27595" lon="-1.74442">
        <ele>67.6</ele>
        <time>2014-10-12T08:47:26Z</time>
      </trkpt>
      <trkpt lat="47.27595" lon="-1.74448">
        <ele>67.7</ele>
        <time>2014-10-12T08:47:27Z</time>
      </trkpt>
      <trkpt lat="47.27595" lon="-1.74454">
        <ele>67.8</ele>
        <time>2014-10-12T08:47:28Z</time>
      </trkpt>
      <trkpt lat="47.27596" lon="-1.74459">
        <ele>68</ele>
        <time>2014-10-12T08:47:29Z</time>
      </trkpt>
      <trkpt lat="47.27596" lon="-1.74465">
        <ele>68.1</ele>
        <time>2014-10-12T08:47:30Z</time>
      </trkpt>
      <trkpt lat="47.27596" lon="-1.7447">
        <ele>68.2</ele>
        <time>2014-10-12T08:47:31Z</time>
      </trkpt>
      <trkpt lat="47.27597" lon="-1.74476">
        <ele>68.3</ele>
        <time>2014-10-12T08:47:32Z</time>
      </trkpt>
      <trkpt lat="47.27597" lon="-1.74482">
        <ele>68.5</ele>
        <time>2014-10-12T08:47:33Z</time>
      </trkpt>
      <trkpt lat="47.27598" lon="-1.74487">
        <ele>68.6</ele>
        <time>2014-10-12T08:47:34Z</time>
      </trkpt>
      <trkpt lat="47.27599" lon="-1.74493">
        <ele>68.7</ele>
        <time>2014-10-12T08:47:35Z</time>
      </trkpt>
      <trkpt lat="47.27599" lon="-1.74498">
        <ele>68.9</ele>
        <time>2014-10-12T08:47:36Z</time>
      </trkpt>
      <trkpt lat="47.276" lon="-1.74503">
        <ele>69</ele>
        <time>2014-10-12T08:47:37Z</time>
      </trkpt>
      <trkpt lat="47.27601" lon="-1.74509">
        <ele>69.2</ele>
        <time>2014-10-12T08:47:38Z</time>
      </trkpt>
      <trkpt lat="47.27601" lon="-1.74514">
        <ele>69.3</ele>
        <time>2014-10-12T08:47:39Z</time>
      </trkpt>
      <trkpt lat="47.27602" lon="-1.74519">
        <ele>69.4</ele>
        <time>2014-10-12T08:47:40Z</time>
      </trkpt>
      <trkpt lat="47.27603" lon="-1.74524">
        <ele>69.6</ele>
        <time>2014-10-12T08:47:41Z</time>
      </trkpt>
      <trkpt lat="47.27604" lon="-1.74529">
        <ele>69.7</ele>
        <time>2014-10-12T08:47:42Z</time>
      </trkpt>
      <trkpt lat="47.27604" lon="-1.74534">
        <ele>69.8</ele>
        <time>2014-10-12T08:47:43Z</time>
      </trkpt>
      <trkpt lat="47.27605" lon="-1.7454">
        <ele>70</ele>
        <time>2014-10-12T08:47:44Z</time>
      </trkpt>
      <trkpt lat="47.27606" lon="-1.74546">
        <ele>70.2</ele>
        <time>2014-10-12T08:47:45Z</time>
      </trkpt>
      <trkpt lat="47.27606" lon="-1.74551">
        <ele>70.3</ele>
        <time>2014-10-12T08:47:46Z</time>
      </trkpt>
      <trkpt lat="47.27607" lon="-1.74557">
        <ele>70.4</ele>
        <time>2014-10-12T08:47:47Z</time>
      </trkpt>
      <trkpt lat="47.27607" lon="-1.74562">
        <ele>70.5</ele>
        <time>2014-10-12T08:47:48Z</time>
      </trkpt>
      <trkpt lat="47.27608" lon="-1.74569">
        <ele>70.7</ele>
        <time>2014-10-12T08:47:49Z</time>
      </trkpt>
      <trkpt lat="47.2761" lon="-1.74575">
        <ele>70.9</ele>
        <time>2014-10-12T08:47:50Z</time>
      </trkpt>
      <trkpt lat="47.27611" lon="-1.74581">
        <ele>71</ele>
        <time>2014-10-12T08:47:51Z</time>
      </trkpt>
      <trkpt lat="47.27612" lon="-1.74586">
        <ele>71.2</ele>
        <time>2014-10-12T08:47:52Z</time>
      </trkpt>
      <trkpt lat="47.27613" lon="-1.74592">
        <ele>71.3</ele>
        <time>2014-10-12T08:47:53Z</time>
      </trkpt>
      <trkpt lat="47.27614" lon="-1.74598">
        <ele>71.4</ele>
        <time>2014-10-12T08:47:54Z</time>
      </trkpt>
      <trkpt lat="47.27615" lon="-1.74604">
        <ele>71.5</ele>
        <time>2014-10-12T08:47:55Z</time>
      </trkpt>
      <trkpt lat="47.27616" lon="-1.74609">
        <ele>71.6</ele>
        <time>2014-10-12T08:47:56Z</time>
      </trkpt>
      <trkpt lat="47.27616" lon="-1.74615">
        <ele>71.7</ele>
        <time>2014-10-12T08:47:57Z</time>
      </trkpt>
      <trkpt lat="47.27617" lon="-1.7462">
        <ele>71.8</ele>
        <time>2014-10-12T08:47:58Z</time>
      </trkpt>
      <trkpt lat="47.27617" lon="-1.74626">
        <ele>71.9</ele>
        <time>2014-10-12T08:47:59Z</time>
      </trkpt>
      <trkpt lat="47.27618" lon="-1.74632">
        <ele>72</ele>
        <time>2014-10-12T08:48:00Z</time>
      </trkpt>
      <trkpt lat="47.27619" lon="-1.74637">
        <ele>72.1</ele>
        <time>2014-10-12T08:48:01Z</time>
      </trkpt>
      <trkpt lat="47.27619" lon="-1.74643">
        <ele>72.1</ele>
        <time>2014-10-12T08:48:02Z</time>
      </trkpt>
      <trkpt lat="47.2762" lon="-1.74649">
        <ele>72.2</ele>
        <time>2014-10-12T08:48:03Z</time>
      </trkpt>
      <trkpt lat="47.2762" lon="-1.74655">
        <ele>72.3</ele>
        <time>2014-10-12T08:48:04Z</time>
      </trkpt>
      <trkpt lat="47.27621" lon="-1.74661">
        <ele>72.4</ele>
        <time>2014-10-12T08:48:05Z</time>
      </trkpt>
      <trkpt lat="47.27622" lon="-1.74667">
        <ele>72.4</ele>
        <time>2014-10-12T08:48:06Z</time>
      </trkpt>
      <trkpt lat="47.27623" lon="-1.74672">
        <ele>72.5</ele>
        <time>2014-10-12T08:48:07Z</time>
      </trkpt>
      <trkpt lat="47.27624" lon="-1.74678">
        <ele>72.6</ele>
        <time>2014-10-12T08:48:08Z</time>
      </trkpt>
      <trkpt lat="47.27625" lon="-1.74683">
        <ele>72.7</ele>
        <time>2014-10-12T08:48:09Z</time>
      </trkpt>
      <trkpt lat="47.27626" lon="-1.74688">
        <ele>72.8</ele>
        <time>2014-10-12T08:48:10Z</time>
      </trkpt>
      <trkpt lat="47.27628" lon="-1.74693">
        <ele>72.8</ele>
        <time>2014-10-12T08:48:11Z</time>
      </trkpt>
      <trkpt lat="47.27629" lon="-1.74698">
        <ele>72.9</ele>
        <time>2014-10-12T08:48:12Z</time>
      </trkpt>
      <trkpt lat="47.27631" lon="-1.74704">
        <ele>73</ele>
        <time>2014-10-12T08:48:13Z</time>
      </trkpt>
      <trkpt lat="47.27632" lon="-1.74709">
        <ele>73.1</ele>
        <time>2014-10-12T08:48:14Z</time>
      </trkpt>
      <trkpt lat="47.27634" lon="-1.74713">
        <ele>73.2</ele>
        <time>2014-10-12T08:48:15Z</time>
      </trkpt>
      <trkpt lat="47.27636" lon="-1.74718">
        <ele>73.2</ele>
        <time>2014-10-12T08:48:16Z</time>
      </trkpt>
      <trkpt lat="47.27637" lon="-1.74723">
        <ele>73.3</ele>
        <time>2014-10-12T08:48:17Z</time>
      </trkpt>
      <trkpt lat="47.27639" lon="-1.74727">
        <ele>73.4</ele>
        <time>2014-10-12T08:48:18Z</time>
      </trkpt>
      <trkpt lat="47.27641" lon="-1.74732">
        <ele>73.5</ele>
        <time>2014-10-12T08:48:19Z</time>
      </trkpt>
      <trkpt lat="47.27642" lon="-1.74737">
        <ele>73.6</ele>
        <time>2014-10-12T08:48:20Z</time>
      </trkpt>
      <trkpt lat="47.27644" lon="-1.74742">
        <ele>73.6</ele>
        <time>2014-10-12T08:48:21Z</time>
      </trkpt>
      <trkpt lat="47.27646" lon="-1.74747">
        <ele>73.7</ele>
        <time>2014-10-12T08:48:22Z</time>
      </trkpt>
      <trkpt lat="47.27648" lon="-1.74752">
        <ele>73.8</ele>
        <time>2014-10-12T08:48:23Z</time>
      </trkpt>
      <trkpt lat="47.2765" lon="-1.74757">
        <ele>73.9</ele>
        <time>2014-10-12T08:48:24Z</time>
      </trkpt>
      <trkpt lat="47.27652" lon="-1.74763">
        <ele>74</ele>
        <time>2014-10-12T08:48:25Z</time>
      </trkpt>
      <trkpt lat="47.27654" lon="-1.74768">
        <ele>74.1</ele>
        <time>2014-10-12T08:48:26Z</time>
      </trkpt>
      <trkpt lat="47.27657" lon="-1.74773">
        <ele>74.2</ele>
        <time>2014-10-12T08:48:27Z</time>
      </trkpt>
      <trkpt lat="47.27659" lon="-1.74779">
        <ele>74.2</ele>
        <time>2014-10-12T08:48:28Z</time>
      </trkpt>
      <trkpt lat="47.27661" lon="-1.74784">
        <ele>74.3</ele>
        <time>2014-10-12T08:48:29Z</time>
      </trkpt>
      <trkpt lat="47.27663" lon="-1.7479">
        <ele>74.4</ele>
        <time>2014-10-12T08:48:30Z</time>
      </trkpt>
      <trkpt lat="47.27665" lon="-1.74795">
        <ele>74.5</ele>
        <time>2014-10-12T08:48:31Z</time>
      </trkpt>
      <trkpt lat="47.27667" lon="-1.74801">
        <ele>74.5</ele>
        <time>2014-10-12T08:48:32Z</time>
      </trkpt>
      <trkpt lat="47.2767" lon="-1.74806">
        <ele>74.5</ele>
        <time>2014-10-12T08:48:33Z</time>
      </trkpt>
      <trkpt lat="47.27672" lon="-1.74812">
        <ele>74.6</ele>
        <time>2014-10-12T08:48:34Z</time>
      </trkpt>
      <trkpt lat="47.27674" lon="-1.74817">
        <ele>74.6</ele>
        <time>2014-10-12T08:48:35Z</time>
      </trkpt>
      <trkpt lat="47.27676" lon="-1.74823">
        <ele>74.6</ele>
        <time>2014-10-12T08:48:36Z</time>
      </trkpt>
      <trkpt lat="47.27678" lon="-1.74828">
        <ele>74.6</ele>
        <time>2014-10-12T08:48:37Z</time>
      </trkpt>
      <trkpt lat="47.2768" lon="-1.74833">
        <ele>74.7</ele>
        <time>2014-10-12T08:48:38Z</time>
      </trkpt>
      <trkpt lat="47.27682" lon="-1.74838">
        <ele>74.7</ele>
        <time>2014-10-12T08:48:39Z</time>
      </trkpt>
      <trkpt lat="47.27684" lon="-1.74844">
        <ele>74.7</ele>
        <time>2014-10-12T08:48:40Z</time>
      </trkpt>
      <trkpt lat="47.27686" lon="-1.7485">
        <ele>74.7</ele>
        <time>2014-10-12T08:48:41Z</time>
      </trkpt>
      <trkpt lat="47.27688" lon="-1.74855">
        <ele>74.8</ele>
        <time>2014-10-12T08:48:42Z</time>
      </trkpt>
      <trkpt lat="47.2769" lon="-1.74861">
        <ele>74.8</ele>
        <time>2014-10-12T08:48:43Z</time>
      </trkpt>
      <trkpt lat="47.27692" lon="-1.74866">
        <ele>74.8</ele>
        <time>2014-10-12T08:48:44Z</time>
      </trkpt>
      <trkpt lat="47.27694" lon="-1.74871">
        <ele>74.8</ele>
        <time>2014-10-12T08:48:45Z</time>
      </trkpt>
      <trkpt lat="47.27696" lon="-1.74876">
        <ele>74.8</ele>
        <time>2014-10-12T08:48:46Z</time>
      </trkpt>
      <trkpt lat="47.27698" lon="-1.74881">
        <ele>74.8</ele>
        <time>2014-10-12T08:48:47Z</time>
      </trkpt>
      <trkpt lat="47.277" lon="-1.74886">
        <ele>74.8</ele>
        <time>2014-10-12T08:48:48Z</time>
      </trkpt>
      <trkpt lat="47.27702" lon="-1.74891">
        <ele>74.7</ele>
        <time>2014-10-12T08:48:49Z</time>
      </trkpt>
      <trkpt lat="47.27704" lon="-1.74896">
        <ele>74.7</ele>
        <time>2014-10-12T08:48:50Z</time>
      </trkpt>
      <trkpt lat="47.27707" lon="-1.74902">
        <ele>74.7</ele>
        <time>2014-10-12T08:48:51Z</time>
      </trkpt>
      <trkpt lat="47.27709" lon="-1.74907">
        <ele>74.6</ele>
        <time>2014-10-12T08:48:52Z</time>
      </trkpt>
      <trkpt lat="47.27711" lon="-1.74913">
        <ele>74.5</ele>
        <time>2014-10-12T08:48:53Z</time>
      </trkpt>
      <trkpt lat="47.27713" lon="-1.74919">
        <ele>74.4</ele>
        <time>2014-10-12T08:48:54Z</time>
      </trkpt>
      <trkpt lat="47.27715" lon="-1.74924">
        <ele>74.4</ele>
        <time>2014-10-12T08:48:55Z</time>
      </trkpt>
      <trkpt lat="47.27716" lon="-1.74929">
        <ele>74.3</ele>
        <time>2014-10-12T08:48:56Z</time>
      </trkpt>
      <trkpt lat="47.27717" lon="-1.74934">
        <ele>74.3</ele>
        <time>2014-10-12T08:48:57Z</time>
      </trkpt>
      <trkpt lat="47.27717" lon="-1.7494">
        <ele>74.2</ele>
        <time>2014-10-12T08:48:58Z</time>
      </trkpt>
      <trkpt lat="47.27717" lon="-1.74945">
        <ele>74.1</ele>
        <time>2014-10-12T08:48:59Z</time>
      </trkpt>
      <trkpt lat="47.27715" lon="-1.74949">
        <ele>74.1</ele>
        <time>2014-10-12T08:49:00Z</time>
      </trkpt>
      <trkpt lat="47.27712" lon="-1.74952">
        <ele>74.1</ele>
        <time>2014-10-12T08:49:01Z</time>
      </trkpt>
      <trkpt lat="47.27709" lon="-1.74955">
        <ele>74</ele>
        <time>2014-10-12T08:49:02Z</time>
      </trkpt>
      <trkpt lat="47.27706" lon="-1.74958">
        <ele>74</ele>
        <time>2014-10-12T08:49:03Z</time>
      </trkpt>
      <trkpt lat="47.27703" lon="-1.7496">
        <ele>74</ele>
        <time>2014-10-12T08:49:04Z</time>
      </trkpt>
      <trkpt lat="47.277" lon="-1.74963">
        <ele>74</ele>
        <time>2014-10-12T08:49:05Z</time>
      </trkpt>
      <trkpt lat="47.27697" lon="-1.74966">
        <ele>74</ele>
        <time>2014-10-12T08:49:06Z</time>
      </trkpt>
      <trkpt lat="47.27694" lon="-1.74969">
        <ele>73.9</ele>
        <time>2014-10-12T08:49:07Z</time>
      </trkpt>
      <trkpt lat="47.27691" lon="-1.74971">
        <ele>73.9</ele>
        <time>2014-10-12T08:49:08Z</time>
      </trkpt>
      <trkpt lat="47.27687" lon="-1.74973">
        <ele>73.9</ele>
        <time>2014-10-12T08:49:09Z</time>
      </trkpt>
      <trkpt lat="47.27684" lon="-1.74976">
        <ele>73.9</ele>
        <time>2014-10-12T08:49:10Z</time>
      </trkpt>
      <trkpt lat="47.2768" lon="-1.74978">
        <ele>73.9</ele>
        <time>2014-10-12T08:49:11Z</time>
      </trkpt>
      <trkpt lat="47.27677" lon="-1.7498">
        <ele>73.9</ele>
        <time>2014-10-12T08:49:12Z</time>
      </trkpt>
      <trkpt lat="47.27674" lon="-1.74982">
        <ele>73.9</ele>
        <time>2014-10-12T08:49:13Z</time>
      </trkpt>
      <trkpt lat="47.2767" lon="-1.74984">
        <ele>73.8</ele>
        <time>2014-10-12T08:49:14Z</time>
      </trkpt>
      <trkpt lat="47.27667" lon="-1.74986">
        <ele>73.8</ele>
        <time>2014-10-12T08:49:15Z</time>
      </trkpt>
      <trkpt lat="47.27663" lon="-1.74988">
        <ele>73.8</ele>
        <time>2014-10-12T08:49:16Z</time>
      </trkpt>
      <trkpt lat="47.27659" lon="-1.7499">
        <ele>73.8</ele>
        <time>2014-10-12T08:49:17Z</time>
      </trkpt>
      <trkpt lat="47.27655" lon="-1.74992">
        <ele>73.8</ele>
        <time>2014-10-12T08:49:18Z</time>
      </trkpt>
      <trkpt lat="47.2765" lon="-1.74994">
        <ele>73.7</ele>
        <time>2014-10-12T08:49:19Z</time>
      </trkpt>
      <trkpt lat="47.27646" lon="-1.74996">
        <ele>73.7</ele>
        <time>2014-10-12T08:49:20Z</time>
      </trkpt>
      <trkpt lat="47.27641" lon="-1.74997">
        <ele>73.7</ele>
        <time>2014-10-12T08:49:21Z</time>
      </trkpt>
      <trkpt lat="47.27636" lon="-1.74999">
        <ele>73.6</ele>
        <time>2014-10-12T08:49:22Z</time>
      </trkpt>
      <trkpt lat="47.27631" lon="-1.75001">
        <ele>73.6</ele>
        <time>2014-10-12T08:49:23Z</time>
      </trkpt>
      <trkpt lat="47.27626" lon="-1.75003">
        <ele>73.5</ele>
        <time>2014-10-12T08:49:24Z</time>
      </trkpt>
      <trkpt lat="47.27621" lon="-1.75004">
        <ele>73.5</ele>
        <time>2014-10-12T08:49:25Z</time>
      </trkpt>
      <trkpt lat="47.27616" lon="-1.75005">
        <ele>73.4</ele>
        <time>2014-10-12T08:49:26Z</time>
      </trkpt>
      <trkpt lat="47.27612" lon="-1.75005">
        <ele>73.4</ele>
        <time>2014-10-12T08:49:27Z</time>
      </trkpt>
      <trkpt lat="47.27607" lon="-1.75006">
        <ele>73.4</ele>
        <time>2014-10-12T08:49:28Z</time>
      </trkpt>
      <trkpt lat="47.27603" lon="-1.75007">
        <ele>73.3</ele>
        <time>2014-10-12T08:49:29Z</time>
      </trkpt>
      <trkpt lat="47.27598" lon="-1.75008">
        <ele>73.3</ele>
        <time>2014-10-12T08:49:30Z</time>
      </trkpt>
      <trkpt lat="47.27594" lon="-1.75009">
        <ele>73.2</ele>
        <time>2014-10-12T08:49:31Z</time>
      </trkpt>
      <trkpt lat="47.27589" lon="-1.7501">
        <ele>73.2</ele>
        <time>2014-10-12T08:49:32Z</time>
      </trkpt>
      <trkpt lat="47.27585" lon="-1.7501">
        <ele>73.1</ele>
        <time>2014-10-12T08:49:33Z</time>
      </trkpt>
      <trkpt lat="47.2758" lon="-1.75012">
        <ele>73.1</ele>
        <time>2014-10-12T08:49:34Z</time>
      </trkpt>
      <trkpt lat="47.27575" lon="-1.75013">
        <ele>73.1</ele>
        <time>2014-10-12T08:49:35Z</time>
      </trkpt>
      <trkpt lat="47.27571" lon="-1.75015">
        <ele>73</ele>
        <time>2014-10-12T08:49:36Z</time>
      </trkpt>
      <trkpt lat="47.27566" lon="-1.75016">
        <ele>73</ele>
        <time>2014-10-12T08:49:37Z</time>
      </trkpt>
      <trkpt lat="47.27561" lon="-1.75018">
        <ele>73</ele>
        <time>2014-10-12T08:49:38Z</time>
      </trkpt>
      <trkpt lat="47.27557" lon="-1.7502">
        <ele>72.9</ele>
        <time>2014-10-12T08:49:39Z</time>
      </trkpt>
      <trkpt lat="47.27553" lon="-1.75022">
        <ele>72.9</ele>
        <time>2014-10-12T08:49:40Z</time>
      </trkpt>
      <trkpt lat="47.27549" lon="-1.75023">
        <ele>72.9</ele>
        <time>2014-10-12T08:49:41Z</time>
      </trkpt>
      <trkpt lat="47.27545" lon="-1.75025">
        <ele>72.8</ele>
        <time>2014-10-12T08:49:42Z</time>
      </trkpt>
      <trkpt lat="47.27541" lon="-1.75027">
        <ele>72.8</ele>
        <time>2014-10-12T08:49:43Z</time>
      </trkpt>
      <trkpt lat="47.27537" lon="-1.75029">
        <ele>72.8</ele>
        <time>2014-10-12T08:49:44Z</time>
      </trkpt>
      <trkpt lat="47.27534" lon="-1.75031">
        <ele>72.9</ele>
        <time>2014-10-12T08:49:45Z</time>
      </trkpt>
      <trkpt lat="47.27531" lon="-1.75032">
        <ele>72.9</ele>
        <time>2014-10-12T08:49:46Z</time>
      </trkpt>
      <trkpt lat="47.27528" lon="-1.75033">
        <ele>72.9</ele>
        <time>2014-10-12T08:49:47Z</time>
      </trkpt>
      <trkpt lat="47.27525" lon="-1.75035">
        <ele>72.9</ele>
        <time>2014-10-12T08:49:48Z</time>
      </trkpt>
      <trkpt lat="47.27522" lon="-1.75036">
        <ele>72.9</ele>
        <time>2014-10-12T08:49:49Z</time>
      </trkpt>
      <trkpt lat="47.27519" lon="-1.75037">
        <ele>72.9</ele>
        <time>2014-10-12T08:49:50Z</time>
      </trkpt>
      <trkpt lat="47.27516" lon="-1.75039">
        <ele>73</ele>
        <time>2014-10-12T08:49:51Z</time>
      </trkpt>
      <trkpt lat="47.27511" lon="-1.75041">
        <ele>73</ele>
        <time>2014-10-12T08:49:52Z</time>
      </trkpt>
      <trkpt lat="47.27507" lon="-1.75043">
        <ele>73</ele>
        <time>2014-10-12T08:49:53Z</time>
      </trkpt>
      <trkpt lat="47.27504" lon="-1.75044">
        <ele>73</ele>
        <time>2014-10-12T08:49:54Z</time>
      </trkpt>
      <trkpt lat="47.275" lon="-1.75046">
        <ele>73.1</ele>
        <time>2014-10-12T08:49:55Z</time>
      </trkpt>
      <trkpt lat="47.27496" lon="-1.75048">
        <ele>73.1</ele>
        <time>2014-10-12T08:49:56Z</time>
      </trkpt>
      <trkpt lat="47.27493" lon="-1.7505">
        <ele>73.1</ele>
        <time>2014-10-12T08:49:57Z</time>
      </trkpt>
      <trkpt lat="47.2749" lon="-1.75051">
        <ele>73.1</ele>
        <time>2014-10-12T08:49:58Z</time>
      </trkpt>
      <trkpt lat="47.27487" lon="-1.75053">
        <ele>73.1</ele>
        <time>2014-10-12T08:49:59Z</time>
      </trkpt>
      <trkpt lat="47.27485" lon="-1.75057">
        <ele>73.2</ele>
        <time>2014-10-12T08:50:00Z</time>
      </trkpt>
      <trkpt lat="47.27483" lon="-1.7506">
        <ele>73.2</ele>
        <time>2014-10-12T08:50:01Z</time>
      </trkpt>
      <trkpt lat="47.27481" lon="-1.75065">
        <ele>73.3</ele>
        <time>2014-10-12T08:50:02Z</time>
      </trkpt>
      <trkpt lat="47.2748" lon="-1.75069">
        <ele>73.3</ele>
        <time>2014-10-12T08:50:03Z</time>
      </trkpt>
      <trkpt lat="47.27478" lon="-1.75075">
        <ele>73.4</ele>
        <time>2014-10-12T08:50:04Z</time>
      </trkpt>
      <trkpt lat="47.27476" lon="-1.75081">
        <ele>73.5</ele>
        <time>2014-10-12T08:50:05Z</time>
      </trkpt>
      <trkpt lat="47.27475" lon="-1.75087">
        <ele>73.5</ele>
        <time>2014-10-12T08:50:06Z</time>
      </trkpt>
      <trkpt lat="47.27474" lon="-1.75093">
        <ele>73.6</ele>
        <time>2014-10-12T08:50:07Z</time>
      </trkpt>
      <trkpt lat="47.27473" lon="-1.75099">
        <ele>73.7</ele>
        <time>2014-10-12T08:50:08Z</time>
      </trkpt>
      <trkpt lat="47.27472" lon="-1.75105">
        <ele>73.8</ele>
        <time>2014-10-12T08:50:09Z</time>
      </trkpt>
      <trkpt lat="47.27471" lon="-1.75111">
        <ele>73.8</ele>
        <time>2014-10-12T08:50:10Z</time>
      </trkpt>
      <trkpt lat="47.27471" lon="-1.75117">
        <ele>73.9</ele>
        <time>2014-10-12T08:50:11Z</time>
      </trkpt>
      <trkpt lat="47.27471" lon="-1.75123">
        <ele>74</ele>
        <time>2014-10-12T08:50:12Z</time>
      </trkpt>
      <trkpt lat="47.27471" lon="-1.75129">
        <ele>74</ele>
        <time>2014-10-12T08:50:13Z</time>
      </trkpt>
      <trkpt lat="47.27471" lon="-1.75136">
        <ele>74.1</ele>
        <time>2014-10-12T08:50:14Z</time>
      </trkpt>
      <trkpt lat="47.27471" lon="-1.75142">
        <ele>74.1</ele>
        <time>2014-10-12T08:50:15Z</time>
      </trkpt>
      <trkpt lat="47.27471" lon="-1.75147">
        <ele>74.2</ele>
        <time>2014-10-12T08:50:16Z</time>
      </trkpt>
      <trkpt lat="47.27471" lon="-1.75153">
        <ele>74.2</ele>
        <time>2014-10-12T08:50:17Z</time>
      </trkpt>
      <trkpt lat="47.27472" lon="-1.75158">
        <ele>74.3</ele>
        <time>2014-10-12T08:50:18Z</time>
      </trkpt>
      <trkpt lat="47.27472" lon="-1.75164">
        <ele>74.3</ele>
        <time>2014-10-12T08:50:19Z</time>
      </trkpt>
      <trkpt lat="47.27472" lon="-1.7517">
        <ele>74.4</ele>
        <time>2014-10-12T08:50:20Z</time>
      </trkpt>
      <trkpt lat="47.27473" lon="-1.75176">
        <ele>74.4</ele>
        <time>2014-10-12T08:50:21Z</time>
      </trkpt>
      <trkpt lat="47.27473" lon="-1.75182">
        <ele>74.4</ele>
        <time>2014-10-12T08:50:22Z</time>
      </trkpt>
      <trkpt lat="47.27473" lon="-1.75189">
        <ele>74.5</ele>
        <time>2014-10-12T08:50:23Z</time>
      </trkpt>
      <trkpt lat="47.27473" lon="-1.75195">
        <ele>74.6</ele>
        <time>2014-10-12T08:50:24Z</time>
      </trkpt>
      <trkpt lat="47.27473" lon="-1.75201">
        <ele>74.6</ele>
        <time>2014-10-12T08:50:25Z</time>
      </trkpt>
      <trkpt lat="47.27474" lon="-1.75207">
        <ele>74.6</ele>
        <time>2014-10-12T08:50:26Z</time>
      </trkpt>
      <trkpt lat="47.27474" lon="-1.75213">
        <ele>74.5</ele>
        <time>2014-10-12T08:50:27Z</time>
      </trkpt>
      <trkpt lat="47.27475" lon="-1.75219">
        <ele>74.4</ele>
        <time>2014-10-12T08:50:28Z</time>
      </trkpt>
      <trkpt lat="47.27475" lon="-1.75224">
        <ele>74.3</ele>
        <time>2014-10-12T08:50:29Z</time>
      </trkpt>
      <trkpt lat="47.27475" lon="-1.7523">
        <ele>74.1</ele>
        <time>2014-10-12T08:50:30Z</time>
      </trkpt>
      <trkpt lat="47.27475" lon="-1.75235">
        <ele>74</ele>
        <time>2014-10-12T08:50:31Z</time>
      </trkpt>
      <trkpt lat="47.27475" lon="-1.75241">
        <ele>73.9</ele>
        <time>2014-10-12T08:50:33Z</time>
      </trkpt>
      <trkpt lat="47.27474" lon="-1.75247">
        <ele>73.8</ele>
        <time>2014-10-12T08:50:36Z</time>
      </trkpt>
      <trkpt lat="47.27476" lon="-1.75259">
        <ele>73.5</ele>
        <time>2014-10-12T08:53:25Z</time>
      </trkpt>
      <trkpt lat="47.27476" lon="-1.75266">
        <ele>73.3</ele>
        <time>2014-10-12T08:53:27Z</time>
      </trkpt>
      <trkpt lat="47.27478" lon="-1.75272">
        <ele>73.2</ele>
        <time>2014-10-12T08:53:29Z</time>
      </trkpt>
      <trkpt lat="47.2748" lon="-1.75277">
        <ele>73</ele>
        <time>2014-10-12T08:53:31Z</time>
      </trkpt>
      <trkpt lat="47.27481" lon="-1.75285">
        <ele>72.9</ele>
        <time>2014-10-12T08:53:33Z</time>
      </trkpt>
      <trkpt lat="47.27483" lon="-1.75291">
        <ele>72.7</ele>
        <time>2014-10-12T08:53:35Z</time>
      </trkpt>
      <trkpt lat="47.27485" lon="-1.75297">
        <ele>72.6</ele>
        <time>2014-10-12T08:53:37Z</time>
      </trkpt>
      <trkpt lat="47.27484" lon="-1.75305">
        <ele>72.4</ele>
        <time>2014-10-12T08:53:39Z</time>
      </trkpt>
      <trkpt lat="47.27484" lon="-1.75309">
        <ele>72.3</ele>
        <time>2014-10-12T08:53:40Z</time>
      </trkpt>
      <trkpt lat="47.27483" lon="-1.75313">
        <ele>72.2</ele>
        <time>2014-10-12T08:53:41Z</time>
      </trkpt>
      <trkpt lat="47.27482" lon="-1.75318">
        <ele>72.1</ele>
        <time>2014-10-12T08:53:42Z</time>
      </trkpt>
      <trkpt lat="47.2748" lon="-1.75322">
        <ele>72</ele>
        <time>2014-10-12T08:53:43Z</time>
      </trkpt>
      <trkpt lat="47.27478" lon="-1.75326">
        <ele>71.9</ele>
        <time>2014-10-12T08:53:44Z</time>
      </trkpt>
      <trkpt lat="47.27476" lon="-1.7533">
        <ele>71.9</ele>
        <time>2014-10-12T08:53:45Z</time>
      </trkpt>
      <trkpt lat="47.27475" lon="-1.75335">
        <ele>71.8</ele>
        <time>2014-10-12T08:53:46Z</time>
      </trkpt>
      <trkpt lat="47.27474" lon="-1.7534">
        <ele>71.6</ele>
        <time>2014-10-12T08:53:47Z</time>
      </trkpt>
      <trkpt lat="47.27473" lon="-1.75346">
        <ele>71.5</ele>
        <time>2014-10-12T08:53:48Z</time>
      </trkpt>
      <trkpt lat="47.27472" lon="-1.75351">
        <ele>71.4</ele>
        <time>2014-10-12T08:53:49Z</time>
      </trkpt>
      <trkpt lat="47.27472" lon="-1.75356">
        <ele>71.3</ele>
        <time>2014-10-12T08:53:50Z</time>
      </trkpt>
      <trkpt lat="47.27471" lon="-1.75362">
        <ele>71.2</ele>
        <time>2014-10-12T08:53:51Z</time>
      </trkpt>
      <trkpt lat="47.27471" lon="-1.75368">
        <ele>71</ele>
        <time>2014-10-12T08:53:52Z</time>
      </trkpt>
      <trkpt lat="47.2747" lon="-1.75374">
        <ele>70.9</ele>
        <time>2014-10-12T08:53:53Z</time>
      </trkpt>
      <trkpt lat="47.27469" lon="-1.7538">
        <ele>70.8</ele>
        <time>2014-10-12T08:53:54Z</time>
      </trkpt>
      <trkpt lat="47.27468" lon="-1.75386">
        <ele>70.7</ele>
        <time>2014-10-12T08:53:55Z</time>
      </trkpt>
      <trkpt lat="47.27467" lon="-1.75392">
        <ele>70.7</ele>
        <time>2014-10-12T08:53:56Z</time>
      </trkpt>
      <trkpt lat="47.27465" lon="-1.75398">
        <ele>70.6</ele>
        <time>2014-10-12T08:53:57Z</time>
      </trkpt>
      <trkpt lat="47.27463" lon="-1.75403">
        <ele>70.6</ele>
        <time>2014-10-12T08:53:58Z</time>
      </trkpt>
      <trkpt lat="47.2746" lon="-1.75406">
        <ele>70.6</ele>
        <time>2014-10-12T08:53:59Z</time>
      </trkpt>
      <trkpt lat="47.27456" lon="-1.75409">
        <ele>70.6</ele>
        <time>2014-10-12T08:54:00Z</time>
      </trkpt>
      <trkpt lat="47.27452" lon="-1.7541">
        <ele>70.6</ele>
        <time>2014-10-12T08:54:01Z</time>
      </trkpt>
      <trkpt lat="47.27447" lon="-1.75411">
        <ele>70.6</ele>
        <time>2014-10-12T08:54:02Z</time>
      </trkpt>
      <trkpt lat="47.27442" lon="-1.75412">
        <ele>70.6</ele>
        <time>2014-10-12T08:54:03Z</time>
      </trkpt>
      <trkpt lat="47.27438" lon="-1.75413">
        <ele>70.5</ele>
        <time>2014-10-12T08:54:04Z</time>
      </trkpt>
      <trkpt lat="47.27433" lon="-1.75414">
        <ele>70.5</ele>
        <time>2014-10-12T08:54:05Z</time>
      </trkpt>
      <trkpt lat="47.27428" lon="-1.75416">
        <ele>70.5</ele>
        <time>2014-10-12T08:54:06Z</time>
      </trkpt>
      <trkpt lat="47.27423" lon="-1.75417">
        <ele>70.5</ele>
        <time>2014-10-12T08:54:07Z</time>
      </trkpt>
      <trkpt lat="47.27418" lon="-1.75418">
        <ele>70.5</ele>
        <time>2014-10-12T08:54:08Z</time>
      </trkpt>
      <trkpt lat="47.27413" lon="-1.75419">
        <ele>70.5</ele>
        <time>2014-10-12T08:54:09Z</time>
      </trkpt>
      <trkpt lat="47.27408" lon="-1.7542">
        <ele>70.5</ele>
        <time>2014-10-12T08:54:10Z</time>
      </trkpt>
      <trkpt lat="47.27403" lon="-1.75422">
        <ele>70.4</ele>
        <time>2014-10-12T08:54:11Z</time>
      </trkpt>
      <trkpt lat="47.27398" lon="-1.75423">
        <ele>70.4</ele>
        <time>2014-10-12T08:54:12Z</time>
      </trkpt>
      <trkpt lat="47.27392" lon="-1.75425">
        <ele>70.4</ele>
        <time>2014-10-12T08:54:13Z</time>
      </trkpt>
      <trkpt lat="47.27387" lon="-1.75426">
        <ele>70.4</ele>
        <time>2014-10-12T08:54:14Z</time>
      </trkpt>
      <trkpt lat="47.27382" lon="-1.75427">
        <ele>70.4</ele>
        <time>2014-10-12T08:54:15Z</time>
      </trkpt>
      <trkpt lat="47.27376" lon="-1.75429">
        <ele>70.4</ele>
        <time>2014-10-12T08:54:16Z</time>
      </trkpt>
      <trkpt lat="47.27371" lon="-1.7543">
        <ele>70.2</ele>
        <time>2014-10-12T08:54:17Z</time>
      </trkpt>
      <trkpt lat="47.27366" lon="-1.75431">
        <ele>70.1</ele>
        <time>2014-10-12T08:54:18Z</time>
      </trkpt>
      <trkpt lat="47.2736" lon="-1.75432">
        <ele>70</ele>
        <time>2014-10-12T08:54:19Z</time>
      </trkpt>
      <trkpt lat="47.27354" lon="-1.75434">
        <ele>69.8</ele>
        <time>2014-10-12T08:54:20Z</time>
      </trkpt>
      <trkpt lat="47.27349" lon="-1.75435">
        <ele>69.7</ele>
        <time>2014-10-12T08:54:21Z</time>
      </trkpt>
      <trkpt lat="47.27344" lon="-1.75436">
        <ele>69.5</ele>
        <time>2014-10-12T08:54:22Z</time>
      </trkpt>
      <trkpt lat="47.27338" lon="-1.75436">
        <ele>69.4</ele>
        <time>2014-10-12T08:54:23Z</time>
      </trkpt>
      <trkpt lat="47.27332" lon="-1.75437">
        <ele>69.2</ele>
        <time>2014-10-12T08:54:24Z</time>
      </trkpt>
      <trkpt lat="47.27327" lon="-1.75438">
        <ele>69.1</ele>
        <time>2014-10-12T08:54:25Z</time>
      </trkpt>
      <trkpt lat="47.27321" lon="-1.75439">
        <ele>68.9</ele>
        <time>2014-10-12T08:54:26Z</time>
      </trkpt>
      <trkpt lat="47.27316" lon="-1.7544">
        <ele>68.8</ele>
        <time>2014-10-12T08:54:27Z</time>
      </trkpt>
      <trkpt lat="47.2731" lon="-1.75442">
        <ele>68.6</ele>
        <time>2014-10-12T08:54:28Z</time>
      </trkpt>
      <trkpt lat="47.27304" lon="-1.75443">
        <ele>68.5</ele>
        <time>2014-10-12T08:54:29Z</time>
      </trkpt>
      <trkpt lat="47.27298" lon="-1.75445">
        <ele>68.3</ele>
        <time>2014-10-12T08:54:30Z</time>
      </trkpt>
      <trkpt lat="47.27292" lon="-1.75446">
        <ele>68.2</ele>
        <time>2014-10-12T08:54:31Z</time>
      </trkpt>
      <trkpt lat="47.27287" lon="-1.75447">
        <ele>67.9</ele>
        <time>2014-10-12T08:54:32Z</time>
      </trkpt>
      <trkpt lat="47.27281" lon="-1.75448">
        <ele>67.6</ele>
        <time>2014-10-12T08:54:33Z</time>
      </trkpt>
      <trkpt lat="47.27276" lon="-1.75449">
        <ele>67.3</ele>
        <time>2014-10-12T08:54:34Z</time>
      </trkpt>
      <trkpt lat="47.2727" lon="-1.7545">
        <ele>67.1</ele>
        <time>2014-10-12T08:54:35Z</time>
      </trkpt>
      <trkpt lat="47.27266" lon="-1.75452">
        <ele>66.8</ele>
        <time>2014-10-12T08:54:36Z</time>
      </trkpt>
      <trkpt lat="47.27261" lon="-1.75454">
        <ele>66.6</ele>
        <time>2014-10-12T08:54:37Z</time>
      </trkpt>
      <trkpt lat="47.27256" lon="-1.75456">
        <ele>66.3</ele>
        <time>2014-10-12T08:54:38Z</time>
      </trkpt>
      <trkpt lat="47.27252" lon="-1.75458">
        <ele>66.1</ele>
        <time>2014-10-12T08:54:39Z</time>
      </trkpt>
      <trkpt lat="47.27247" lon="-1.7546">
        <ele>65.9</ele>
        <time>2014-10-12T08:54:40Z</time>
      </trkpt>
      <trkpt lat="47.27243" lon="-1.75462">
        <ele>65.6</ele>
        <time>2014-10-12T08:54:41Z</time>
      </trkpt>
      <trkpt lat="47.27238" lon="-1.75464">
        <ele>65.4</ele>
        <time>2014-10-12T08:54:42Z</time>
      </trkpt>
      <trkpt lat="47.27233" lon="-1.75467">
        <ele>65.2</ele>
        <time>2014-10-12T08:54:43Z</time>
      </trkpt>
      <trkpt lat="47.27228" lon="-1.7547">
        <ele>65</ele>
        <time>2014-10-12T08:54:44Z</time>
      </trkpt>
      <trkpt lat="47.27223" lon="-1.75473">
        <ele>64.8</ele>
        <time>2014-10-12T08:54:45Z</time>
      </trkpt>
      <trkpt lat="47.27219" lon="-1.75475">
        <ele>64.6</ele>
        <time>2014-10-12T08:54:46Z</time>
      </trkpt>
      <trkpt lat="47.27214" lon="-1.75478">
        <ele>64.5</ele>
        <time>2014-10-12T08:54:47Z</time>
      </trkpt>
      <trkpt lat="47.27209" lon="-1.75481">
        <ele>64.3</ele>
        <time>2014-10-12T08:54:48Z</time>
      </trkpt>
      <trkpt lat="47.27204" lon="-1.75484">
        <ele>64.1</ele>
        <time>2014-10-12T08:54:49Z</time>
      </trkpt>
      <trkpt lat="47.27199" lon="-1.75487">
        <ele>64</ele>
        <time>2014-10-12T08:54:50Z</time>
      </trkpt>
      <trkpt lat="47.27195" lon="-1.7549">
        <ele>63.8</ele>
        <time>2014-10-12T08:54:51Z</time>
      </trkpt>
      <trkpt lat="47.2719" lon="-1.75492">
        <ele>63.7</ele>
        <time>2014-10-12T08:54:52Z</time>
      </trkpt>
      <trkpt lat="47.27186" lon="-1.75495">
        <ele>63.5</ele>
        <time>2014-10-12T08:54:53Z</time>
      </trkpt>
      <trkpt lat="47.27181" lon="-1.75498">
        <ele>63.3</ele>
        <time>2014-10-12T08:54:54Z</time>
      </trkpt>
      <trkpt lat="47.27176" lon="-1.75501">
        <ele>63.2</ele>
        <time>2014-10-12T08:54:55Z</time>
      </trkpt>
      <trkpt lat="47.27172" lon="-1.75503">
        <ele>63</ele>
        <time>2014-10-12T08:54:56Z</time>
      </trkpt>
      <trkpt lat="47.27167" lon="-1.75506">
        <ele>62.8</ele>
        <time>2014-10-12T08:54:57Z</time>
      </trkpt>
      <trkpt lat="47.27162" lon="-1.7551">
        <ele>62.6</ele>
        <time>2014-10-12T08:54:58Z</time>
      </trkpt>
      <trkpt lat="47.27157" lon="-1.75514">
        <ele>62.4</ele>
        <time>2014-10-12T08:54:59Z</time>
      </trkpt>
      <trkpt lat="47.27152" lon="-1.75517">
        <ele>62.2</ele>
        <time>2014-10-12T08:55:00Z</time>
      </trkpt>
      <trkpt lat="47.27146" lon="-1.75521">
        <ele>62</ele>
        <time>2014-10-12T08:55:01Z</time>
      </trkpt>
      <trkpt lat="47.27141" lon="-1.75524">
        <ele>61.7</ele>
        <time>2014-10-12T08:55:02Z</time>
      </trkpt>
      <trkpt lat="47.27135" lon="-1.75527">
        <ele>61.4</ele>
        <time>2014-10-12T08:55:03Z</time>
      </trkpt>
      <trkpt lat="47.27129" lon="-1.7553">
        <ele>61.2</ele>
        <time>2014-10-12T08:55:04Z</time>
      </trkpt>
      <trkpt lat="47.27123" lon="-1.75533">
        <ele>60.8</ele>
        <time>2014-10-12T08:55:05Z</time>
      </trkpt>
      <trkpt lat="47.27117" lon="-1.75535">
        <ele>60.1</ele>
        <time>2014-10-12T08:55:06Z</time>
      </trkpt>
      <trkpt lat="47.27112" lon="-1.75537">
        <ele>59.4</ele>
        <time>2014-10-12T08:55:07Z</time>
      </trkpt>
      <trkpt lat="47.27106" lon="-1.75539">
        <ele>58.7</ele>
        <time>2014-10-12T08:55:08Z</time>
      </trkpt>
      <trkpt lat="47.271" lon="-1.75539">
        <ele>58</ele>
        <time>2014-10-12T08:55:09Z</time>
      </trkpt>
      <trkpt lat="47.27094" lon="-1.7554">
        <ele>57.3</ele>
        <time>2014-10-12T08:55:10Z</time>
      </trkpt>
      <trkpt lat="47.27088" lon="-1.7554">
        <ele>56.5</ele>
        <time>2014-10-12T08:55:11Z</time>
      </trkpt>
      <trkpt lat="47.27082" lon="-1.7554">
        <ele>55.9</ele>
        <time>2014-10-12T08:55:12Z</time>
      </trkpt>
      <trkpt lat="47.27077" lon="-1.75541">
        <ele>55.2</ele>
        <time>2014-10-12T08:55:13Z</time>
      </trkpt>
      <trkpt lat="47.27071" lon="-1.75542">
        <ele>54.5</ele>
        <time>2014-10-12T08:55:14Z</time>
      </trkpt>
      <trkpt lat="47.27065" lon="-1.75544">
        <ele>53.7</ele>
        <time>2014-10-12T08:55:15Z</time>
      </trkpt>
      <trkpt lat="47.27059" lon="-1.75545">
        <ele>53</ele>
        <time>2014-10-12T08:55:16Z</time>
      </trkpt>
      <trkpt lat="47.27054" lon="-1.75548">
        <ele>52.3</ele>
        <time>2014-10-12T08:55:17Z</time>
      </trkpt>
      <trkpt lat="47.27048" lon="-1.7555">
        <ele>51.6</ele>
        <time>2014-10-12T08:55:18Z</time>
      </trkpt>
      <trkpt lat="47.27044" lon="-1.75552">
        <ele>51</ele>
        <time>2014-10-12T08:55:19Z</time>
      </trkpt>
      <trkpt lat="47.2704" lon="-1.75553">
        <ele>50.6</ele>
        <time>2014-10-12T08:55:20Z</time>
      </trkpt>
      <trkpt lat="47.27037" lon="-1.75551">
        <ele>50.3</ele>
        <time>2014-10-12T08:55:22Z</time>
      </trkpt>
      <trkpt lat="47.27036" lon="-1.75546">
        <ele>50.3</ele>
        <time>2014-10-12T08:55:24Z</time>
      </trkpt>
      <trkpt lat="47.27036" lon="-1.7554">
        <ele>50.4</ele>
        <time>2014-10-12T08:55:26Z</time>
      </trkpt>
      <trkpt lat="47.27036" lon="-1.75532">
        <ele>50.5</ele>
        <time>2014-10-12T08:55:28Z</time>
      </trkpt>
      <trkpt lat="47.27036" lon="-1.75525">
        <ele>50.7</ele>
        <time>2014-10-12T08:55:30Z</time>
      </trkpt>
      <trkpt lat="47.27036" lon="-1.7552">
        <ele>50.8</ele>
        <time>2014-10-12T08:55:31Z</time>
      </trkpt>
      <trkpt lat="47.27037" lon="-1.75513">
        <ele>50.9</ele>
        <time>2014-10-12T08:55:33Z</time>
      </trkpt>
      <trkpt lat="47.27036" lon="-1.75506">
        <ele>50.9</ele>
        <time>2014-10-12T08:55:35Z</time>
      </trkpt>
      <trkpt lat="47.27036" lon="-1.75501">
        <ele>51</ele>
        <time>2014-10-12T08:55:36Z</time>
      </trkpt>
      <trkpt lat="47.27036" lon="-1.75496">
        <ele>51</ele>
        <time>2014-10-12T08:55:37Z</time>
      </trkpt>
      <trkpt lat="47.27036" lon="-1.7549">
        <ele>51.1</ele>
        <time>2014-10-12T08:55:38Z</time>
      </trkpt>
      <trkpt lat="47.27037" lon="-1.75485">
        <ele>51.2</ele>
        <time>2014-10-12T08:55:39Z</time>
      </trkpt>
      <trkpt lat="47.27037" lon="-1.7548">
        <ele>51.3</ele>
        <time>2014-10-12T08:55:40Z</time>
      </trkpt>
      <trkpt lat="47.27038" lon="-1.75475">
        <ele>51.5</ele>
        <time>2014-10-12T08:55:41Z</time>
      </trkpt>
      <trkpt lat="47.27038" lon="-1.7547">
        <ele>51.5</ele>
        <time>2014-10-12T08:55:42Z</time>
      </trkpt>
      <trkpt lat="47.27037" lon="-1.75463">
        <ele>51.6</ele>
        <time>2014-10-12T08:55:43Z</time>
      </trkpt>
      <trkpt lat="47.27037" lon="-1.75457">
        <ele>51.6</ele>
        <time>2014-10-12T08:55:44Z</time>
      </trkpt>
      <trkpt lat="47.27038" lon="-1.75452">
        <ele>51.6</ele>
        <time>2014-10-12T08:55:45Z</time>
      </trkpt>
      <trkpt lat="47.27038" lon="-1.75446">
        <ele>51.7</ele>
        <time>2014-10-12T08:55:46Z</time>
      </trkpt>
      <trkpt lat="47.27039" lon="-1.75442">
        <ele>51.8</ele>
        <time>2014-10-12T08:55:47Z</time>
      </trkpt>
      <trkpt lat="47.27042" lon="-1.75435">
        <ele>52</ele>
        <time>2014-10-12T08:55:49Z</time>
      </trkpt>
      <trkpt lat="47.27044" lon="-1.75429">
        <ele>52.2</ele>
        <time>2014-10-12T08:55:50Z</time>
      </trkpt>
      <trkpt lat="47.27046" lon="-1.75424">
        <ele>52.4</ele>
        <time>2014-10-12T08:55:51Z</time>
      </trkpt>
      <trkpt lat="47.27048" lon="-1.75419">
        <ele>52.5</ele>
        <time>2014-10-12T08:55:52Z</time>
      </trkpt>
      <trkpt lat="47.27049" lon="-1.75413">
        <ele>52.6</ele>
        <time>2014-10-12T08:55:53Z</time>
      </trkpt>
      <trkpt lat="47.27048" lon="-1.75409">
        <ele>52.6</ele>
        <time>2014-10-12T08:55:54Z</time>
      </trkpt>
      <trkpt lat="47.27046" lon="-1.75405">
        <ele>52.4</ele>
        <time>2014-10-12T08:55:55Z</time>
      </trkpt>
      <trkpt lat="47.27044" lon="-1.75402">
        <ele>52.2</ele>
        <time>2014-10-12T08:55:56Z</time>
      </trkpt>
      <trkpt lat="47.27042" lon="-1.75401">
        <ele>52</ele>
        <time>2014-10-12T08:55:57Z</time>
      </trkpt>
      <trkpt lat="47.27039" lon="-1.75398">
        <ele>51.8</ele>
        <time>2014-10-12T08:55:58Z</time>
      </trkpt>
      <trkpt lat="47.27036" lon="-1.75395">
        <ele>51.5</ele>
        <time>2014-10-12T08:55:59Z</time>
      </trkpt>
      <trkpt lat="47.27034" lon="-1.75389">
        <ele>51.3</ele>
        <time>2014-10-12T08:56:00Z</time>
      </trkpt>
      <trkpt lat="47.27032" lon="-1.75386">
        <ele>51</ele>
        <time>2014-10-12T08:56:01Z</time>
      </trkpt>
      <trkpt lat="47.27029" lon="-1.75383">
        <ele>50.8</ele>
        <time>2014-10-12T08:56:02Z</time>
      </trkpt>
      <trkpt lat="47.27027" lon="-1.75381">
        <ele>50.6</ele>
        <time>2014-10-12T08:56:03Z</time>
      </trkpt>
      <trkpt lat="47.27022" lon="-1.75378">
        <ele>50.1</ele>
        <time>2014-10-12T08:56:05Z</time>
      </trkpt>
      <trkpt lat="47.27018" lon="-1.75376">
        <ele>49.8</ele>
        <time>2014-10-12T08:56:07Z</time>
      </trkpt>
      <trkpt lat="47.27014" lon="-1.75373">
        <ele>49.3</ele>
        <time>2014-10-12T08:56:09Z</time>
      </trkpt>
      <trkpt lat="47.2701" lon="-1.75371">
        <ele>49</ele>
        <time>2014-10-12T08:56:11Z</time>
      </trkpt>
      <trkpt lat="47.27008" lon="-1.75368">
        <ele>48.7</ele>
        <time>2014-10-12T08:56:13Z</time>
      </trkpt>
      <trkpt lat="47.27004" lon="-1.75367">
        <ele>48.4</ele>
        <time>2014-10-12T08:56:15Z</time>
      </trkpt>
      <trkpt lat="47.27" lon="-1.75364">
        <ele>48</ele>
        <time>2014-10-12T08:56:17Z</time>
      </trkpt>
      <trkpt lat="47.26996" lon="-1.75362">
        <ele>47.6</ele>
        <time>2014-10-12T08:56:19Z</time>
      </trkpt>
      <trkpt lat="47.26994" lon="-1.75358">
        <ele>47.3</ele>
        <time>2014-10-12T08:56:21Z</time>
      </trkpt>
      <trkpt lat="47.2699" lon="-1.75355">
        <ele>46.9</ele>
        <time>2014-10-12T08:56:23Z</time>
      </trkpt>
      <trkpt lat="47.26987" lon="-1.75352">
        <ele>46.5</ele>
        <time>2014-10-12T08:56:25Z</time>
      </trkpt>
      <trkpt lat="47.26952" lon="-1.75309">
        <ele>41.7</ele>
        <time>2014-10-12T08:56:54Z</time>
      </trkpt>
      <trkpt lat="47.26949" lon="-1.75306">
        <ele>41.4</ele>
        <time>2014-10-12T08:56:56Z</time>
      </trkpt>
      <trkpt lat="47.26946" lon="-1.75302">
        <ele>40.9</ele>
        <time>2014-10-12T08:56:58Z</time>
      </trkpt>
      <trkpt lat="47.26941" lon="-1.75303">
        <ele>40.4</ele>
        <time>2014-10-12T08:56:59Z</time>
      </trkpt>
      <trkpt lat="47.26936" lon="-1.75303">
        <ele>39.9</ele>
        <time>2014-10-12T08:57:00Z</time>
      </trkpt>
      <trkpt lat="47.26933" lon="-1.75304">
        <ele>39.6</ele>
        <time>2014-10-12T08:57:01Z</time>
      </trkpt>
      <trkpt lat="47.26927" lon="-1.75302">
        <ele>38.9</ele>
        <time>2014-10-12T08:57:03Z</time>
      </trkpt>
      <trkpt lat="47.26923" lon="-1.75302">
        <ele>38.5</ele>
        <time>2014-10-12T08:57:04Z</time>
      </trkpt>
      <trkpt lat="47.26919" lon="-1.75301">
        <ele>38.1</ele>
        <time>2014-10-12T08:57:05Z</time>
      </trkpt>
      <trkpt lat="47.26915" lon="-1.75301">
        <ele>37.5</ele>
        <time>2014-10-12T08:57:06Z</time>
      </trkpt>
      <trkpt lat="47.26909" lon="-1.75299">
        <ele>36.9</ele>
        <time>2014-10-12T08:57:07Z</time>
      </trkpt>
      <trkpt lat="47.26905" lon="-1.75298">
        <ele>36.4</ele>
        <time>2014-10-12T08:57:08Z</time>
      </trkpt>
      <trkpt lat="47.269" lon="-1.75296">
        <ele>35.8</ele>
        <time>2014-10-12T08:57:09Z</time>
      </trkpt>
      <trkpt lat="47.26896" lon="-1.75294">
        <ele>35.4</ele>
        <time>2014-10-12T08:57:10Z</time>
      </trkpt>
      <trkpt lat="47.26891" lon="-1.75292">
        <ele>34.7</ele>
        <time>2014-10-12T08:57:11Z</time>
      </trkpt>
      <trkpt lat="47.26888" lon="-1.75291">
        <ele>34.4</ele>
        <time>2014-10-12T08:57:12Z</time>
      </trkpt>
      <trkpt lat="47.26884" lon="-1.75289">
        <ele>34.2</ele>
        <time>2014-10-12T08:57:13Z</time>
      </trkpt>
      <trkpt lat="47.26881" lon="-1.75289">
        <ele>33.9</ele>
        <time>2014-10-12T08:57:14Z</time>
      </trkpt>
      <trkpt lat="47.26876" lon="-1.7529">
        <ele>33.3</ele>
        <time>2014-10-12T08:57:16Z</time>
      </trkpt>
      <trkpt lat="47.26873" lon="-1.75291">
        <ele>32.9</ele>
        <time>2014-10-12T08:57:17Z</time>
      </trkpt>
      <trkpt lat="47.2687" lon="-1.75293">
        <ele>32.8</ele>
        <time>2014-10-12T08:57:18Z</time>
      </trkpt>
      <trkpt lat="47.26867" lon="-1.75295">
        <ele>32.7</ele>
        <time>2014-10-12T08:57:19Z</time>
      </trkpt>
      <trkpt lat="47.26863" lon="-1.75298">
        <ele>32.6</ele>
        <time>2014-10-12T08:57:21Z</time>
      </trkpt>
      <trkpt lat="47.26858" lon="-1.753">
        <ele>32.4</ele>
        <time>2014-10-12T08:57:23Z</time>
      </trkpt>
      <trkpt lat="47.26855" lon="-1.75299">
        <ele>32.2</ele>
        <time>2014-10-12T08:57:24Z</time>
      </trkpt>
      <trkpt lat="47.26854" lon="-1.75294">
        <ele>32</ele>
        <time>2014-10-12T08:57:25Z</time>
      </trkpt>
      <trkpt lat="47.2685" lon="-1.75294">
        <ele>31.9</ele>
        <time>2014-10-12T08:57:27Z</time>
      </trkpt>
      <trkpt lat="47.26846" lon="-1.75295">
        <ele>31.6</ele>
        <time>2014-10-12T08:57:29Z</time>
      </trkpt>
      <trkpt lat="47.26842" lon="-1.75298">
        <ele>31.5</ele>
        <time>2014-10-12T08:57:31Z</time>
      </trkpt>
      <trkpt lat="47.26839" lon="-1.75297">
        <ele>31.3</ele>
        <time>2014-10-12T08:57:32Z</time>
      </trkpt>
      <trkpt lat="47.26835" lon="-1.75296">
        <ele>31.1</ele>
        <time>2014-10-12T08:57:34Z</time>
      </trkpt>
      <trkpt lat="47.26831" lon="-1.75295">
        <ele>30.9</ele>
        <time>2014-10-12T08:57:36Z</time>
      </trkpt>
      <trkpt lat="47.26827" lon="-1.75294">
        <ele>30.7</ele>
        <time>2014-10-12T08:57:38Z</time>
      </trkpt>
      <trkpt lat="47.26822" lon="-1.75293">
        <ele>30.5</ele>
        <time>2014-10-12T08:57:40Z</time>
      </trkpt>
      <trkpt lat="47.26819" lon="-1.75291">
        <ele>30.3</ele>
        <time>2014-10-12T08:57:42Z</time>
      </trkpt>
      <trkpt lat="47.26815" lon="-1.7529">
        <ele>30.2</ele>
        <time>2014-10-12T08:57:43Z</time>
      </trkpt>
      <trkpt lat="47.26813" lon="-1.75288">
        <ele>30.2</ele>
        <time>2014-10-12T08:57:44Z</time>
      </trkpt>
      <trkpt lat="47.2681" lon="-1.75288">
        <ele>30.1</ele>
        <time>2014-10-12T08:57:45Z</time>
      </trkpt>
      <trkpt lat="47.26807" lon="-1.75286">
        <ele>30.1</ele>
        <time>2014-10-12T08:57:46Z</time>
      </trkpt>
      <trkpt lat="47.26805" lon="-1.75284">
        <ele>30.1</ele>
        <time>2014-10-12T08:57:47Z</time>
      </trkpt>
      <trkpt lat="47.26802" lon="-1.75281">
        <ele>30.2</ele>
        <time>2014-10-12T08:57:48Z</time>
      </trkpt>
      <trkpt lat="47.26799" lon="-1.75276">
        <ele>30.4</ele>
        <time>2014-10-12T08:57:50Z</time>
      </trkpt>
      <trkpt lat="47.26797" lon="-1.75272">
        <ele>30.5</ele>
        <time>2014-10-12T08:57:52Z</time>
      </trkpt>
      <trkpt lat="47.26796" lon="-1.75268">
        <ele>30.7</ele>
        <time>2014-10-12T08:57:54Z</time>
      </trkpt>
      <trkpt lat="47.26793" lon="-1.75263">
        <ele>30.8</ele>
        <time>2014-10-12T08:57:56Z</time>
      </trkpt>
      <trkpt lat="47.26791" lon="-1.75259">
        <ele>30.9</ele>
        <time>2014-10-12T08:57:58Z</time>
      </trkpt>
      <trkpt lat="47.26788" lon="-1.75254">
        <ele>31.1</ele>
        <time>2014-10-12T08:58:00Z</time>
      </trkpt>
      <trkpt lat="47.26786" lon="-1.75251">
        <ele>31.1</ele>
        <time>2014-10-12T08:58:02Z</time>
      </trkpt>
      <trkpt lat="47.26783" lon="-1.75248">
        <ele>31.1</ele>
        <time>2014-10-12T08:58:04Z</time>
      </trkpt>
      <trkpt lat="47.2678" lon="-1.75245">
        <ele>31.2</ele>
        <time>2014-10-12T08:58:06Z</time>
      </trkpt>
      <trkpt lat="47.26776" lon="-1.75242">
        <ele>31.2</ele>
        <time>2014-10-12T08:58:08Z</time>
      </trkpt>
      <trkpt lat="47.26772" lon="-1.75239">
        <ele>31</ele>
        <time>2014-10-12T08:58:10Z</time>
      </trkpt>
      <trkpt lat="47.26768" lon="-1.75235">
        <ele>31.1</ele>
        <time>2014-10-12T08:58:12Z</time>
      </trkpt>
      <trkpt lat="47.26765" lon="-1.75233">
        <ele>31</ele>
        <time>2014-10-12T08:58:13Z</time>
      </trkpt>
      <trkpt lat="47.2676" lon="-1.75232">
        <ele>30.8</ele>
        <time>2014-10-12T08:58:15Z</time>
      </trkpt>
      <trkpt lat="47.26757" lon="-1.75231">
        <ele>30.7</ele>
        <time>2014-10-12T08:58:16Z</time>
      </trkpt>
      <trkpt lat="47.26754" lon="-1.7523">
        <ele>30.5</ele>
        <time>2014-10-12T08:58:17Z</time>
      </trkpt>
      <trkpt lat="47.26751" lon="-1.75229">
        <ele>30.4</ele>
        <time>2014-10-12T08:58:18Z</time>
      </trkpt>
      <trkpt lat="47.26748" lon="-1.75228">
        <ele>30.3</ele>
        <time>2014-10-12T08:58:19Z</time>
      </trkpt>
      <trkpt lat="47.26745" lon="-1.75228">
        <ele>30.1</ele>
        <time>2014-10-12T08:58:20Z</time>
      </trkpt>
      <trkpt lat="47.26742" lon="-1.75227">
        <ele>30.1</ele>
        <time>2014-10-12T08:58:21Z</time>
      </trkpt>
      <trkpt lat="47.26736" lon="-1.75229">
        <ele>29.6</ele>
        <time>2014-10-12T08:58:23Z</time>
      </trkpt>
      <trkpt lat="47.26731" lon="-1.75231">
        <ele>29.2</ele>
        <time>2014-10-12T08:58:24Z</time>
      </trkpt>
      <trkpt lat="47.26726" lon="-1.75234">
        <ele>28.8</ele>
        <time>2014-10-12T08:58:25Z</time>
      </trkpt>
      <trkpt lat="47.2672" lon="-1.75237">
        <ele>28.3</ele>
        <time>2014-10-12T08:58:26Z</time>
      </trkpt>
      <trkpt lat="47.26714" lon="-1.7524">
        <ele>27.8</ele>
        <time>2014-10-12T08:58:27Z</time>
      </trkpt>
      <trkpt lat="47.26708" lon="-1.75244">
        <ele>27.3</ele>
        <time>2014-10-12T08:58:28Z</time>
      </trkpt>
      <trkpt lat="47.26702" lon="-1.75247">
        <ele>26.9</ele>
        <time>2014-10-12T08:58:29Z</time>
      </trkpt>
      <trkpt lat="47.26697" lon="-1.75251">
        <ele>26.6</ele>
        <time>2014-10-12T08:58:30Z</time>
      </trkpt>
      <trkpt lat="47.26692" lon="-1.75254">
        <ele>26.3</ele>
        <time>2014-10-12T08:58:31Z</time>
      </trkpt>
      <trkpt lat="47.26687" lon="-1.75259">
        <ele>26</ele>
        <time>2014-10-12T08:58:32Z</time>
      </trkpt>
      <trkpt lat="47.26683" lon="-1.75264">
        <ele>25.6</ele>
        <time>2014-10-12T08:58:33Z</time>
      </trkpt>
      <trkpt lat="47.2668" lon="-1.75268">
        <ele>25.4</ele>
        <time>2014-10-12T08:58:34Z</time>
      </trkpt>
      <trkpt lat="47.26677" lon="-1.75271">
        <ele>25.2</ele>
        <time>2014-10-12T08:58:35Z</time>
      </trkpt>
      <trkpt lat="47.26674" lon="-1.75273">
        <ele>25</ele>
        <time>2014-10-12T08:58:36Z</time>
      </trkpt>
      <trkpt lat="47.26669" lon="-1.75275">
        <ele>24.8</ele>
        <time>2014-10-12T08:58:38Z</time>
      </trkpt>
      <trkpt lat="47.26664" lon="-1.75271">
        <ele>24.8</ele>
        <time>2014-10-12T08:58:40Z</time>
      </trkpt>
      <trkpt lat="47.26663" lon="-1.75268">
        <ele>24.9</ele>
        <time>2014-10-12T08:58:41Z</time>
      </trkpt>
      <trkpt lat="47.26662" lon="-1.75264">
        <ele>25</ele>
        <time>2014-10-12T08:58:42Z</time>
      </trkpt>
      <trkpt lat="47.26661" lon="-1.75259">
        <ele>25.2</ele>
        <time>2014-10-12T08:58:43Z</time>
      </trkpt>
      <trkpt lat="47.26661" lon="-1.75255">
        <ele>25.4</ele>
        <time>2014-10-12T08:58:44Z</time>
      </trkpt>
      <trkpt lat="47.26661" lon="-1.75251">
        <ele>25.5</ele>
        <time>2014-10-12T08:58:45Z</time>
      </trkpt>
      <trkpt lat="47.2666" lon="-1.75247">
        <ele>25.7</ele>
        <time>2014-10-12T08:58:46Z</time>
      </trkpt>
      <trkpt lat="47.26659" lon="-1.75243">
        <ele>25.8</ele>
        <time>2014-10-12T08:58:47Z</time>
      </trkpt>
      <trkpt lat="47.26659" lon="-1.75239">
        <ele>26</ele>
        <time>2014-10-12T08:58:48Z</time>
      </trkpt>
      <trkpt lat="47.26658" lon="-1.75235">
        <ele>26.1</ele>
        <time>2014-10-12T08:58:49Z</time>
      </trkpt>
      <trkpt lat="47.26658" lon="-1.75231">
        <ele>26.3</ele>
        <time>2014-10-12T08:58:50Z</time>
      </trkpt>
      <trkpt lat="47.26658" lon="-1.75227">
        <ele>26.4</ele>
        <time>2014-10-12T08:58:51Z</time>
      </trkpt>
      <trkpt lat="47.26658" lon="-1.75222">
        <ele>26.6</ele>
        <time>2014-10-12T08:58:52Z</time>
      </trkpt>
      <trkpt lat="47.26657" lon="-1.75218">
        <ele>26.8</ele>
        <time>2014-10-12T08:58:53Z</time>
      </trkpt>
      <trkpt lat="47.26656" lon="-1.75211">
        <ele>27</ele>
        <time>2014-10-12T08:58:55Z</time>
      </trkpt>
      <trkpt lat="47.26656" lon="-1.75203">
        <ele>27.3</ele>
        <time>2014-10-12T08:58:57Z</time>
      </trkpt>
      <trkpt lat="47.26655" lon="-1.75196">
        <ele>27.7</ele>
        <time>2014-10-12T08:58:59Z</time>
      </trkpt>
      <trkpt lat="47.26654" lon="-1.75189">
        <ele>28</ele>
        <time>2014-10-12T08:59:01Z</time>
      </trkpt>
      <trkpt lat="47.26653" lon="-1.75181">
        <ele>28.3</ele>
        <time>2014-10-12T08:59:03Z</time>
      </trkpt>
      <trkpt lat="47.26651" lon="-1.75174">
        <ele>28.6</ele>
        <time>2014-10-12T08:59:05Z</time>
      </trkpt>
      <trkpt lat="47.2665" lon="-1.7517">
        <ele>28.8</ele>
        <time>2014-10-12T08:59:06Z</time>
      </trkpt>
      <trkpt lat="47.26649" lon="-1.75166">
        <ele>28.9</ele>
        <time>2014-10-12T08:59:07Z</time>
      </trkpt>
      <trkpt lat="47.26648" lon="-1.75162">
        <ele>29.1</ele>
        <time>2014-10-12T08:59:08Z</time>
      </trkpt>
      <trkpt lat="47.26647" lon="-1.75158">
        <ele>29.2</ele>
        <time>2014-10-12T08:59:09Z</time>
      </trkpt>
      <trkpt lat="47.26646" lon="-1.75154">
        <ele>29.3</ele>
        <time>2014-10-12T08:59:10Z</time>
      </trkpt>
      <trkpt lat="47.26644" lon="-1.7515">
        <ele>29.5</ele>
        <time>2014-10-12T08:59:11Z</time>
      </trkpt>
      <trkpt lat="47.26643" lon="-1.75146">
        <ele>29.6</ele>
        <time>2014-10-12T08:59:12Z</time>
      </trkpt>
      <trkpt lat="47.26642" lon="-1.75142">
        <ele>29.8</ele>
        <time>2014-10-12T08:59:13Z</time>
      </trkpt>
      <trkpt lat="47.26641" lon="-1.75138">
        <ele>30</ele>
        <time>2014-10-12T08:59:14Z</time>
      </trkpt>
      <trkpt lat="47.26639" lon="-1.75132">
        <ele>30.2</ele>
        <time>2014-10-12T08:59:16Z</time>
      </trkpt>
      <trkpt lat="47.26636" lon="-1.75125">
        <ele>30.4</ele>
        <time>2014-10-12T08:59:18Z</time>
      </trkpt>
      <trkpt lat="47.26634" lon="-1.75118">
        <ele>30.6</ele>
        <time>2014-10-12T08:59:20Z</time>
      </trkpt>
      <trkpt lat="47.26633" lon="-1.75114">
        <ele>30.7</ele>
        <time>2014-10-12T08:59:21Z</time>
      </trkpt>
      <trkpt lat="47.26631" lon="-1.7511">
        <ele>30.8</ele>
        <time>2014-10-12T08:59:22Z</time>
      </trkpt>
      <trkpt lat="47.2663" lon="-1.75106">
        <ele>30.9</ele>
        <time>2014-10-12T08:59:23Z</time>
      </trkpt>
      <trkpt lat="47.26629" lon="-1.75102">
        <ele>31</ele>
        <time>2014-10-12T08:59:24Z</time>
      </trkpt>
      <trkpt lat="47.26628" lon="-1.75098">
        <ele>31.1</ele>
        <time>2014-10-12T08:59:25Z</time>
      </trkpt>
      <trkpt lat="47.26627" lon="-1.75094">
        <ele>31.2</ele>
        <time>2014-10-12T08:59:26Z</time>
      </trkpt>
      <trkpt lat="47.26626" lon="-1.75089">
        <ele>31.4</ele>
        <time>2014-10-12T08:59:27Z</time>
      </trkpt>
      <trkpt lat="47.26625" lon="-1.75084">
        <ele>31.5</ele>
        <time>2014-10-12T08:59:28Z</time>
      </trkpt>
      <trkpt lat="47.26624" lon="-1.7508">
        <ele>31.6</ele>
        <time>2014-10-12T08:59:29Z</time>
      </trkpt>
      <trkpt lat="47.26623" lon="-1.75076">
        <ele>31.6</ele>
        <time>2014-10-12T08:59:30Z</time>
      </trkpt>
      <trkpt lat="47.26623" lon="-1.75072">
        <ele>31.7</ele>
        <time>2014-10-12T08:59:31Z</time>
      </trkpt>
      <trkpt lat="47.26621" lon="-1.75065">
        <ele>31.8</ele>
        <time>2014-10-12T08:59:33Z</time>
      </trkpt>
      <trkpt lat="47.26619" lon="-1.75058">
        <ele>31.9</ele>
        <time>2014-10-12T08:59:35Z</time>
      </trkpt>
      <trkpt lat="47.26617" lon="-1.75051">
        <ele>32</ele>
        <time>2014-10-12T08:59:37Z</time>
      </trkpt>
      <trkpt lat="47.26616" lon="-1.75047">
        <ele>32</ele>
        <time>2014-10-12T08:59:38Z</time>
      </trkpt>
      <trkpt lat="47.26613" lon="-1.75041">
        <ele>32</ele>
        <time>2014-10-12T08:59:40Z</time>
      </trkpt>
      <trkpt lat="47.26611" lon="-1.75034">
        <ele>31.9</ele>
        <time>2014-10-12T08:59:42Z</time>
      </trkpt>
      <trkpt lat="47.2661" lon="-1.7503">
        <ele>31.8</ele>
        <time>2014-10-12T08:59:43Z</time>
      </trkpt>
      <trkpt lat="47.26609" lon="-1.75026">
        <ele>31.7</ele>
        <time>2014-10-12T08:59:44Z</time>
      </trkpt>
      <trkpt lat="47.26608" lon="-1.75022">
        <ele>31.7</ele>
        <time>2014-10-12T08:59:45Z</time>
      </trkpt>
      <trkpt lat="47.26606" lon="-1.75017">
        <ele>31.6</ele>
        <time>2014-10-12T08:59:46Z</time>
      </trkpt>
      <trkpt lat="47.26605" lon="-1.75012">
        <ele>31.6</ele>
        <time>2014-10-12T08:59:47Z</time>
      </trkpt>
      <trkpt lat="47.26604" lon="-1.75007">
        <ele>31.5</ele>
        <time>2014-10-12T08:59:48Z</time>
      </trkpt>
      <trkpt lat="47.26603" lon="-1.75003">
        <ele>31.5</ele>
        <time>2014-10-12T08:59:49Z</time>
      </trkpt>
      <trkpt lat="47.26602" lon="-1.74999">
        <ele>31.5</ele>
        <time>2014-10-12T08:59:50Z</time>
      </trkpt>
      <trkpt lat="47.26601" lon="-1.74995">
        <ele>31.4</ele>
        <time>2014-10-12T08:59:51Z</time>
      </trkpt>
      <trkpt lat="47.26599" lon="-1.7499">
        <ele>31.4</ele>
        <time>2014-10-12T08:59:52Z</time>
      </trkpt>
      <trkpt lat="47.26598" lon="-1.74986">
        <ele>31.4</ele>
        <time>2014-10-12T08:59:53Z</time>
      </trkpt>
      <trkpt lat="47.26596" lon="-1.74981">
        <ele>31.3</ele>
        <time>2014-10-12T08:59:54Z</time>
      </trkpt>
      <trkpt lat="47.26595" lon="-1.74977">
        <ele>31.3</ele>
        <time>2014-10-12T08:59:55Z</time>
      </trkpt>
      <trkpt lat="47.26593" lon="-1.74972">
        <ele>31.3</ele>
        <time>2014-10-12T08:59:56Z</time>
      </trkpt>
      <trkpt lat="47.26592" lon="-1.74967">
        <ele>31.3</ele>
        <time>2014-10-12T08:59:57Z</time>
      </trkpt>
      <trkpt lat="47.26591" lon="-1.74962">
        <ele>31.3</ele>
        <time>2014-10-12T08:59:58Z</time>
      </trkpt>
      <trkpt lat="47.26589" lon="-1.74958">
        <ele>31.3</ele>
        <time>2014-10-12T08:59:59Z</time>
      </trkpt>
      <trkpt lat="47.26588" lon="-1.74953">
        <ele>31.4</ele>
        <time>2014-10-12T09:00:00Z</time>
      </trkpt>
      <trkpt lat="47.26586" lon="-1.74948">
        <ele>31.5</ele>
        <time>2014-10-12T09:00:01Z</time>
      </trkpt>
      <trkpt lat="47.26585" lon="-1.74943">
        <ele>31.6</ele>
        <time>2014-10-12T09:00:02Z</time>
      </trkpt>
      <trkpt lat="47.26583" lon="-1.74938">
        <ele>31.7</ele>
        <time>2014-10-12T09:00:03Z</time>
      </trkpt>
      <trkpt lat="47.26581" lon="-1.74933">
        <ele>31.8</ele>
        <time>2014-10-12T09:00:04Z</time>
      </trkpt>
      <trkpt lat="47.26579" lon="-1.74928">
        <ele>31.9</ele>
        <time>2014-10-12T09:00:05Z</time>
      </trkpt>
      <trkpt lat="47.26577" lon="-1.74922">
        <ele>32</ele>
        <time>2014-10-12T09:00:06Z</time>
      </trkpt>
      <trkpt lat="47.26575" lon="-1.74917">
        <ele>32.1</ele>
        <time>2014-10-12T09:00:07Z</time>
      </trkpt>
      <trkpt lat="47.26572" lon="-1.74913">
        <ele>32.1</ele>
        <time>2014-10-12T09:00:08Z</time>
      </trkpt>
      <trkpt lat="47.2657" lon="-1.74908">
        <ele>32.2</ele>
        <time>2014-10-12T09:00:09Z</time>
      </trkpt>
      <trkpt lat="47.26568" lon="-1.74903">
        <ele>32.2</ele>
        <time>2014-10-12T09:00:10Z</time>
      </trkpt>
      <trkpt lat="47.26565" lon="-1.74899">
        <ele>32.3</ele>
        <time>2014-10-12T09:00:11Z</time>
      </trkpt>
      <trkpt lat="47.26563" lon="-1.74894">
        <ele>32.3</ele>
        <time>2014-10-12T09:00:12Z</time>
      </trkpt>
      <trkpt lat="47.2656" lon="-1.7489">
        <ele>32.3</ele>
        <time>2014-10-12T09:00:13Z</time>
      </trkpt>
      <trkpt lat="47.26558" lon="-1.74886">
        <ele>32.4</ele>
        <time>2014-10-12T09:00:14Z</time>
      </trkpt>
      <trkpt lat="47.26555" lon="-1.74882">
        <ele>32.4</ele>
        <time>2014-10-12T09:00:15Z</time>
      </trkpt>
      <trkpt lat="47.26553" lon="-1.74878">
        <ele>32.5</ele>
        <time>2014-10-12T09:00:16Z</time>
      </trkpt>
      <trkpt lat="47.26551" lon="-1.74874">
        <ele>32.5</ele>
        <time>2014-10-12T09:00:17Z</time>
      </trkpt>
      <trkpt lat="47.26549" lon="-1.74871">
        <ele>32.6</ele>
        <time>2014-10-12T09:00:18Z</time>
      </trkpt>
      <trkpt lat="47.26547" lon="-1.74868">
        <ele>32.6</ele>
        <time>2014-10-12T09:00:19Z</time>
      </trkpt>
      <trkpt lat="47.26545" lon="-1.74864">
        <ele>32.7</ele>
        <time>2014-10-12T09:00:20Z</time>
      </trkpt>
      <trkpt lat="47.26543" lon="-1.7486">
        <ele>32.8</ele>
        <time>2014-10-12T09:00:21Z</time>
      </trkpt>
      <trkpt lat="47.26541" lon="-1.74856">
        <ele>32.8</ele>
        <time>2014-10-12T09:00:22Z</time>
      </trkpt>
      <trkpt lat="47.26538" lon="-1.74852">
        <ele>32.9</ele>
        <time>2014-10-12T09:00:23Z</time>
      </trkpt>
      <trkpt lat="47.26535" lon="-1.74848">
        <ele>32.9</ele>
        <time>2014-10-12T09:00:24Z</time>
      </trkpt>
      <trkpt lat="47.26532" lon="-1.74845">
        <ele>32.9</ele>
        <time>2014-10-12T09:00:25Z</time>
      </trkpt>
      <trkpt lat="47.26529" lon="-1.7484">
        <ele>32.9</ele>
        <time>2014-10-12T09:00:26Z</time>
      </trkpt>
      <trkpt lat="47.26526" lon="-1.74836">
        <ele>32.9</ele>
        <time>2014-10-12T09:00:27Z</time>
      </trkpt>
      <trkpt lat="47.26524" lon="-1.74832">
        <ele>33</ele>
        <time>2014-10-12T09:00:28Z</time>
      </trkpt>
      <trkpt lat="47.26521" lon="-1.74828">
        <ele>33</ele>
        <time>2014-10-12T09:00:29Z</time>
      </trkpt>
      <trkpt lat="47.26519" lon="-1.74823">
        <ele>33</ele>
        <time>2014-10-12T09:00:30Z</time>
      </trkpt>
      <trkpt lat="47.26516" lon="-1.74819">
        <ele>33</ele>
        <time>2014-10-12T09:00:31Z</time>
      </trkpt>
      <trkpt lat="47.26513" lon="-1.74815">
        <ele>33</ele>
        <time>2014-10-12T09:00:32Z</time>
      </trkpt>
      <trkpt lat="47.26511" lon="-1.7481">
        <ele>33.1</ele>
        <time>2014-10-12T09:00:33Z</time>
      </trkpt>
      <trkpt lat="47.26509" lon="-1.74806">
        <ele>33.1</ele>
        <time>2014-10-12T09:00:34Z</time>
      </trkpt>
      <trkpt lat="47.26507" lon="-1.74801">
        <ele>33.1</ele>
        <time>2014-10-12T09:00:35Z</time>
      </trkpt>
      <trkpt lat="47.26506" lon="-1.74797">
        <ele>33.2</ele>
        <time>2014-10-12T09:00:36Z</time>
      </trkpt>
      <trkpt lat="47.26507" lon="-1.74792">
        <ele>33.5</ele>
        <time>2014-10-12T09:00:37Z</time>
      </trkpt>
      <trkpt lat="47.26509" lon="-1.74787">
        <ele>33.7</ele>
        <time>2014-10-12T09:00:38Z</time>
      </trkpt>
      <trkpt lat="47.26511" lon="-1.74783">
        <ele>34</ele>
        <time>2014-10-12T09:00:39Z</time>
      </trkpt>
      <trkpt lat="47.26514" lon="-1.7478">
        <ele>34.2</ele>
        <time>2014-10-12T09:00:40Z</time>
      </trkpt>
      <trkpt lat="47.26517" lon="-1.74778">
        <ele>34.5</ele>
        <time>2014-10-12T09:00:41Z</time>
      </trkpt>
      <trkpt lat="47.26521" lon="-1.74777">
        <ele>34.7</ele>
        <time>2014-10-12T09:00:42Z</time>
      </trkpt>
      <trkpt lat="47.26523" lon="-1.74775">
        <ele>34.9</ele>
        <time>2014-10-12T09:00:43Z</time>
      </trkpt>
      <trkpt lat="47.26526" lon="-1.74774">
        <ele>35.1</ele>
        <time>2014-10-12T09:00:44Z</time>
      </trkpt>
      <trkpt lat="47.26529" lon="-1.74773">
        <ele>35.4</ele>
        <time>2014-10-12T09:00:45Z</time>
      </trkpt>
      <trkpt lat="47.26532" lon="-1.74771">
        <ele>35.6</ele>
        <time>2014-10-12T09:00:46Z</time>
      </trkpt>
      <trkpt lat="47.26536" lon="-1.74768">
        <ele>35.9</ele>
        <time>2014-10-12T09:00:48Z</time>
      </trkpt>
      <trkpt lat="47.26539" lon="-1.74766">
        <ele>36.1</ele>
        <time>2014-10-12T09:00:49Z</time>
      </trkpt>
      <trkpt lat="47.26543" lon="-1.74764">
        <ele>36.4</ele>
        <time>2014-10-12T09:00:51Z</time>
      </trkpt>
      <trkpt lat="47.26547" lon="-1.7476">
        <ele>36.7</ele>
        <time>2014-10-12T09:00:53Z</time>
      </trkpt>
      <trkpt lat="47.26551" lon="-1.74757">
        <ele>37</ele>
        <time>2014-10-12T09:00:55Z</time>
      </trkpt>
      <trkpt lat="47.26555" lon="-1.74755">
        <ele>37.3</ele>
        <time>2014-10-12T09:00:57Z</time>
      </trkpt>
      <trkpt lat="47.26559" lon="-1.74752">
        <ele>37.6</ele>
        <time>2014-10-12T09:00:59Z</time>
      </trkpt>
      <trkpt lat="47.26563" lon="-1.7475">
        <ele>37.9</ele>
        <time>2014-10-12T09:01:01Z</time>
      </trkpt>
      <trkpt lat="47.26567" lon="-1.74747">
        <ele>38.3</ele>
        <time>2014-10-12T09:01:03Z</time>
      </trkpt>
      <trkpt lat="47.26572" lon="-1.74744">
        <ele>38.6</ele>
        <time>2014-10-12T09:01:05Z</time>
      </trkpt>
      <trkpt lat="47.26576" lon="-1.74742">
        <ele>39</ele>
        <time>2014-10-12T09:01:07Z</time>
      </trkpt>
      <trkpt lat="47.2658" lon="-1.74739">
        <ele>39.3</ele>
        <time>2014-10-12T09:01:09Z</time>
      </trkpt>
      <trkpt lat="47.26584" lon="-1.74737">
        <ele>39.7</ele>
        <time>2014-10-12T09:01:11Z</time>
      </trkpt>
      <trkpt lat="47.26588" lon="-1.74735">
        <ele>40</ele>
        <time>2014-10-12T09:01:13Z</time>
      </trkpt>
      <trkpt lat="47.26591" lon="-1.74732">
        <ele>40.4</ele>
        <time>2014-10-12T09:01:15Z</time>
      </trkpt>
      <trkpt lat="47.26595" lon="-1.74729">
        <ele>40.7</ele>
        <time>2014-10-12T09:01:17Z</time>
      </trkpt>
      <trkpt lat="47.26599" lon="-1.74726">
        <ele>41.2</ele>
        <time>2014-10-12T09:01:19Z</time>
      </trkpt>
      <trkpt lat="47.26602" lon="-1.74722">
        <ele>41.5</ele>
        <time>2014-10-12T09:01:21Z</time>
      </trkpt>
      <trkpt lat="47.26605" lon="-1.7472">
        <ele>41.9</ele>
        <time>2014-10-12T09:01:23Z</time>
      </trkpt>
      <trkpt lat="47.26608" lon="-1.74717">
        <ele>42.2</ele>
        <time>2014-10-12T09:01:25Z</time>
      </trkpt>
      <trkpt lat="47.26612" lon="-1.74714">
        <ele>42.6</ele>
        <time>2014-10-12T09:01:27Z</time>
      </trkpt>
      <trkpt lat="47.26615" lon="-1.74711">
        <ele>43</ele>
        <time>2014-10-12T09:01:29Z</time>
      </trkpt>
      <trkpt lat="47.26618" lon="-1.74708">
        <ele>43.4</ele>
        <time>2014-10-12T09:01:31Z</time>
      </trkpt>
      <trkpt lat="47.26622" lon="-1.74705">
        <ele>43.8</ele>
        <time>2014-10-12T09:01:33Z</time>
      </trkpt>
      <trkpt lat="47.26625" lon="-1.74703">
        <ele>44.1</ele>
        <time>2014-10-12T09:01:35Z</time>
      </trkpt>
      <trkpt lat="47.26629" lon="-1.747">
        <ele>44.2</ele>
        <time>2014-10-12T09:01:37Z</time>
      </trkpt>
      <trkpt lat="47.26633" lon="-1.74698">
        <ele>44.2</ele>
        <time>2014-10-12T09:01:39Z</time>
      </trkpt>
      <trkpt lat="47.26636" lon="-1.74695">
        <ele>44.3</ele>
        <time>2014-10-12T09:01:41Z</time>
      </trkpt>
      <trkpt lat="47.2664" lon="-1.74693">
        <ele>44.4</ele>
        <time>2014-10-12T09:01:43Z</time>
      </trkpt>
      <trkpt lat="47.26644" lon="-1.7469">
        <ele>44.5</ele>
        <time>2014-10-12T09:01:45Z</time>
      </trkpt>
      <trkpt lat="47.26647" lon="-1.74687">
        <ele>44.7</ele>
        <time>2014-10-12T09:01:47Z</time>
      </trkpt>
      <trkpt lat="47.26651" lon="-1.74685">
        <ele>44.8</ele>
        <time>2014-10-12T09:01:49Z</time>
      </trkpt>
      <trkpt lat="47.26655" lon="-1.74681">
        <ele>44.9</ele>
        <time>2014-10-12T09:01:51Z</time>
      </trkpt>
      <trkpt lat="47.26659" lon="-1.74678">
        <ele>45.1</ele>
        <time>2014-10-12T09:01:53Z</time>
      </trkpt>
      <trkpt lat="47.26662" lon="-1.74675">
        <ele>45.2</ele>
        <time>2014-10-12T09:01:55Z</time>
      </trkpt>
      <trkpt lat="47.26666" lon="-1.74673">
        <ele>45.3</ele>
        <time>2014-10-12T09:01:57Z</time>
      </trkpt>
      <trkpt lat="47.2667" lon="-1.74669">
        <ele>45.5</ele>
        <time>2014-10-12T09:01:59Z</time>
      </trkpt>
      <trkpt lat="47.26673" lon="-1.74667">
        <ele>45.7</ele>
        <time>2014-10-12T09:02:01Z</time>
      </trkpt>
      <trkpt lat="47.26677" lon="-1.74665">
        <ele>45.8</ele>
        <time>2014-10-12T09:02:03Z</time>
      </trkpt>
      <trkpt lat="47.26681" lon="-1.74663">
        <ele>45.9</ele>
        <time>2014-10-12T09:02:05Z</time>
      </trkpt>
      <trkpt lat="47.26684" lon="-1.7466">
        <ele>46.1</ele>
        <time>2014-10-12T09:02:07Z</time>
      </trkpt>
      <trkpt lat="47.26687" lon="-1.74657">
        <ele>46.3</ele>
        <time>2014-10-12T09:02:09Z</time>
      </trkpt>
      <trkpt lat="47.2669" lon="-1.74655">
        <ele>46.4</ele>
        <time>2014-10-12T09:02:11Z</time>
      </trkpt>
      <trkpt lat="47.26694" lon="-1.74652">
        <ele>46.6</ele>
        <time>2014-10-12T09:02:13Z</time>
      </trkpt>
      <trkpt lat="47.26698" lon="-1.74649">
        <ele>46.8</ele>
        <time>2014-10-12T09:02:15Z</time>
      </trkpt>
      <trkpt lat="47.26701" lon="-1.74646">
        <ele>47</ele>
        <time>2014-10-12T09:02:17Z</time>
      </trkpt>
      <trkpt lat="47.26704" lon="-1.74643">
        <ele>47.2</ele>
        <time>2014-10-12T09:02:19Z</time>
      </trkpt>
      <trkpt lat="47.26708" lon="-1.74641">
        <ele>47.4</ele>
        <time>2014-10-12T09:02:21Z</time>
      </trkpt>
      <trkpt lat="47.26712" lon="-1.74639">
        <ele>47.8</ele>
        <time>2014-10-12T09:02:23Z</time>
      </trkpt>
      <trkpt lat="47.26715" lon="-1.74636">
        <ele>48.1</ele>
        <time>2014-10-12T09:02:25Z</time>
      </trkpt>
      <trkpt lat="47.26718" lon="-1.74634">
        <ele>48.3</ele>
        <time>2014-10-12T09:02:27Z</time>
      </trkpt>
      <trkpt lat="47.26721" lon="-1.74632">
        <ele>48.6</ele>
        <time>2014-10-12T09:02:29Z</time>
      </trkpt>
      <trkpt lat="47.26725" lon="-1.74628">
        <ele>48.9</ele>
        <time>2014-10-12T09:02:31Z</time>
      </trkpt>
      <trkpt lat="47.26728" lon="-1.74625">
        <ele>49.2</ele>
        <time>2014-10-12T09:02:33Z</time>
      </trkpt>
      <trkpt lat="47.26731" lon="-1.74623">
        <ele>49.5</ele>
        <time>2014-10-12T09:02:35Z</time>
      </trkpt>
      <trkpt lat="47.26735" lon="-1.74621">
        <ele>49.7</ele>
        <time>2014-10-12T09:02:37Z</time>
      </trkpt>
      <trkpt lat="47.26738" lon="-1.74619">
        <ele>50</ele>
        <time>2014-10-12T09:02:39Z</time>
      </trkpt>
      <trkpt lat="47.26741" lon="-1.74618">
        <ele>50.3</ele>
        <time>2014-10-12T09:02:41Z</time>
      </trkpt>
      <trkpt lat="47.26744" lon="-1.74617">
        <ele>50.5</ele>
        <time>2014-10-12T09:02:43Z</time>
      </trkpt>
      <trkpt lat="47.26748" lon="-1.74615">
        <ele>50.8</ele>
        <time>2014-10-12T09:02:45Z</time>
      </trkpt>
      <trkpt lat="47.26751" lon="-1.74613">
        <ele>51.1</ele>
        <time>2014-10-12T09:02:47Z</time>
      </trkpt>
      <trkpt lat="47.26754" lon="-1.7461">
        <ele>51.4</ele>
        <time>2014-10-12T09:02:49Z</time>
      </trkpt>
      <trkpt lat="47.26757" lon="-1.74607">
        <ele>51.6</ele>
        <time>2014-10-12T09:02:51Z</time>
      </trkpt>
      <trkpt lat="47.26759" lon="-1.74604">
        <ele>51.9</ele>
        <time>2014-10-12T09:02:53Z</time>
      </trkpt>
      <trkpt lat="47.26762" lon="-1.746">
        <ele>52.2</ele>
        <time>2014-10-12T09:02:55Z</time>
      </trkpt>
      <trkpt lat="47.26765" lon="-1.74597">
        <ele>52.5</ele>
        <time>2014-10-12T09:02:57Z</time>
      </trkpt>
      <trkpt lat="47.26767" lon="-1.74594">
        <ele>52.8</ele>
        <time>2014-10-12T09:02:59Z</time>
      </trkpt>
      <trkpt lat="47.2677" lon="-1.74591">
        <ele>53.1</ele>
        <time>2014-10-12T09:03:01Z</time>
      </trkpt>
      <trkpt lat="47.26773" lon="-1.74587">
        <ele>53.3</ele>
        <time>2014-10-12T09:03:03Z</time>
      </trkpt>
      <trkpt lat="47.26775" lon="-1.74584">
        <ele>53.6</ele>
        <time>2014-10-12T09:03:05Z</time>
      </trkpt>
      <trkpt lat="47.26778" lon="-1.74579">
        <ele>53.9</ele>
        <time>2014-10-12T09:03:08Z</time>
      </trkpt>
      <trkpt lat="47.26781" lon="-1.74576">
        <ele>54.2</ele>
        <time>2014-10-12T09:03:10Z</time>
      </trkpt>
      <trkpt lat="47.26783" lon="-1.74572">
        <ele>54.5</ele>
        <time>2014-10-12T09:03:12Z</time>
      </trkpt>
      <trkpt lat="47.26786" lon="-1.74568">
        <ele>54.8</ele>
        <time>2014-10-12T09:03:14Z</time>
      </trkpt>
      <trkpt lat="47.26788" lon="-1.74564">
        <ele>55</ele>
        <time>2014-10-12T09:03:16Z</time>
      </trkpt>
      <trkpt lat="47.2679" lon="-1.7456">
        <ele>55.2</ele>
        <time>2014-10-12T09:03:18Z</time>
      </trkpt>
      <trkpt lat="47.26792" lon="-1.74557">
        <ele>55.5</ele>
        <time>2014-10-12T09:03:20Z</time>
      </trkpt>
      <trkpt lat="47.26794" lon="-1.74554">
        <ele>55.7</ele>
        <time>2014-10-12T09:03:22Z</time>
      </trkpt>
      <trkpt lat="47.26795" lon="-1.7455">
        <ele>56</ele>
        <time>2014-10-12T09:03:24Z</time>
      </trkpt>
      <trkpt lat="47.26798" lon="-1.74546">
        <ele>56.3</ele>
        <time>2014-10-12T09:03:26Z</time>
      </trkpt>
      <trkpt lat="47.268" lon="-1.74543">
        <ele>56.6</ele>
        <time>2014-10-12T09:03:28Z</time>
      </trkpt>
      <trkpt lat="47.26802" lon="-1.7454">
        <ele>56.9</ele>
        <time>2014-10-12T09:03:30Z</time>
      </trkpt>
      <trkpt lat="47.26805" lon="-1.74537">
        <ele>57.2</ele>
        <time>2014-10-12T09:03:32Z</time>
      </trkpt>
      <trkpt lat="47.26808" lon="-1.74533">
        <ele>57.6</ele>
        <time>2014-10-12T09:03:34Z</time>
      </trkpt>
      <trkpt lat="47.26811" lon="-1.74529">
        <ele>58.1</ele>
        <time>2014-10-12T09:03:36Z</time>
      </trkpt>
      <trkpt lat="47.26814" lon="-1.74525">
        <ele>58.4</ele>
        <time>2014-10-12T09:03:38Z</time>
      </trkpt>
      <trkpt lat="47.26817" lon="-1.74521">
        <ele>58.8</ele>
        <time>2014-10-12T09:03:40Z</time>
      </trkpt>
      <trkpt lat="47.26819" lon="-1.74518">
        <ele>59.1</ele>
        <time>2014-10-12T09:03:42Z</time>
      </trkpt>
      <trkpt lat="47.26823" lon="-1.74515">
        <ele>59.5</ele>
        <time>2014-10-12T09:03:44Z</time>
      </trkpt>
      <trkpt lat="47.26827" lon="-1.74513">
        <ele>59.8</ele>
        <time>2014-10-12T09:03:46Z</time>
      </trkpt>
      <trkpt lat="47.2683" lon="-1.74509">
        <ele>60.1</ele>
        <time>2014-10-12T09:03:48Z</time>
      </trkpt>
      <trkpt lat="47.26833" lon="-1.74506">
        <ele>60.5</ele>
        <time>2014-10-12T09:03:50Z</time>
      </trkpt>
      <trkpt lat="47.26837" lon="-1.74504">
        <ele>60.8</ele>
        <time>2014-10-12T09:03:52Z</time>
      </trkpt>
      <trkpt lat="47.26841" lon="-1.74501">
        <ele>61.1</ele>
        <time>2014-10-12T09:03:54Z</time>
      </trkpt>
      <trkpt lat="47.26844" lon="-1.74498">
        <ele>61.4</ele>
        <time>2014-10-12T09:03:56Z</time>
      </trkpt>
      <trkpt lat="47.26848" lon="-1.74496">
        <ele>61.7</ele>
        <time>2014-10-12T09:03:58Z</time>
      </trkpt>
      <trkpt lat="47.26851" lon="-1.74494">
        <ele>61.9</ele>
        <time>2014-10-12T09:04:00Z</time>
      </trkpt>
      <trkpt lat="47.26854" lon="-1.74494">
        <ele>62.1</ele>
        <time>2014-10-12T09:04:02Z</time>
      </trkpt>
      <trkpt lat="47.26858" lon="-1.74493">
        <ele>62.3</ele>
        <time>2014-10-12T09:04:04Z</time>
      </trkpt>
      <trkpt lat="47.26861" lon="-1.74491">
        <ele>62.5</ele>
        <time>2014-10-12T09:04:06Z</time>
      </trkpt>
      <trkpt lat="47.26865" lon="-1.74487">
        <ele>62.8</ele>
        <time>2014-10-12T09:04:08Z</time>
      </trkpt>
      <trkpt lat="47.26867" lon="-1.74482">
        <ele>63.1</ele>
        <time>2014-10-12T09:04:10Z</time>
      </trkpt>
      <trkpt lat="47.26868" lon="-1.74477">
        <ele>63.2</ele>
        <time>2014-10-12T09:04:12Z</time>
      </trkpt>
      <trkpt lat="47.2687" lon="-1.74473">
        <ele>63.4</ele>
        <time>2014-10-12T09:04:14Z</time>
      </trkpt>
      <trkpt lat="47.26871" lon="-1.74467">
        <ele>63.6</ele>
        <time>2014-10-12T09:04:16Z</time>
      </trkpt>
      <trkpt lat="47.26871" lon="-1.74461">
        <ele>63.8</ele>
        <time>2014-10-12T09:04:18Z</time>
      </trkpt>
      <trkpt lat="47.26872" lon="-1.74454">
        <ele>64</ele>
        <time>2014-10-12T09:04:20Z</time>
      </trkpt>
      <trkpt lat="47.26873" lon="-1.74447">
        <ele>64.4</ele>
        <time>2014-10-12T09:04:22Z</time>
      </trkpt>
      <trkpt lat="47.26875" lon="-1.7444">
        <ele>64.7</ele>
        <time>2014-10-12T09:04:24Z</time>
      </trkpt>
      <trkpt lat="47.26876" lon="-1.74432">
        <ele>65</ele>
        <time>2014-10-12T09:04:26Z</time>
      </trkpt>
      <trkpt lat="47.26877" lon="-1.74428">
        <ele>65.2</ele>
        <time>2014-10-12T09:04:27Z</time>
      </trkpt>
      <trkpt lat="47.26877" lon="-1.74424">
        <ele>65.3</ele>
        <time>2014-10-12T09:04:28Z</time>
      </trkpt>
      <trkpt lat="47.26877" lon="-1.74416">
        <ele>65.6</ele>
        <time>2014-10-12T09:04:30Z</time>
      </trkpt>
      <trkpt lat="47.26877" lon="-1.74412">
        <ele>65.7</ele>
        <time>2014-10-12T09:04:31Z</time>
      </trkpt>
      <trkpt lat="47.26878" lon="-1.74408">
        <ele>65.9</ele>
        <time>2014-10-12T09:04:32Z</time>
      </trkpt>
      <trkpt lat="47.26878" lon="-1.74404">
        <ele>66</ele>
        <time>2014-10-12T09:04:33Z</time>
      </trkpt>
      <trkpt lat="47.26878" lon="-1.74397">
        <ele>66.3</ele>
        <time>2014-10-12T09:04:35Z</time>
      </trkpt>
      <trkpt lat="47.26878" lon="-1.74389">
        <ele>66.5</ele>
        <time>2014-10-12T09:04:37Z</time>
      </trkpt>
      <trkpt lat="47.26878" lon="-1.74385">
        <ele>66.7</ele>
        <time>2014-10-12T09:04:38Z</time>
      </trkpt>
      <trkpt lat="47.26878" lon="-1.74378">
        <ele>67</ele>
        <time>2014-10-12T09:04:40Z</time>
      </trkpt>
      <trkpt lat="47.26879" lon="-1.7437">
        <ele>67</ele>
        <time>2014-10-12T09:04:42Z</time>
      </trkpt>
      <trkpt lat="47.2688" lon="-1.74362">
        <ele>66.9</ele>
        <time>2014-10-12T09:04:44Z</time>
      </trkpt>
      <trkpt lat="47.26882" lon="-1.74355">
        <ele>66.9</ele>
        <time>2014-10-12T09:04:46Z</time>
      </trkpt>
      <trkpt lat="47.26884" lon="-1.74348">
        <ele>66.8</ele>
        <time>2014-10-12T09:04:48Z</time>
      </trkpt>
      <trkpt lat="47.26885" lon="-1.7434">
        <ele>66.8</ele>
        <time>2014-10-12T09:04:50Z</time>
      </trkpt>
      <trkpt lat="47.26887" lon="-1.74333">
        <ele>66.7</ele>
        <time>2014-10-12T09:04:52Z</time>
      </trkpt>
      <trkpt lat="47.26889" lon="-1.74326">
        <ele>66.7</ele>
        <time>2014-10-12T09:04:54Z</time>
      </trkpt>
      <trkpt lat="47.26892" lon="-1.7432">
        <ele>66.7</ele>
        <time>2014-10-12T09:04:56Z</time>
      </trkpt>
      <trkpt lat="47.26894" lon="-1.74315">
        <ele>66.7</ele>
        <time>2014-10-12T09:04:58Z</time>
      </trkpt>
      <trkpt lat="47.26897" lon="-1.74309">
        <ele>66.7</ele>
        <time>2014-10-12T09:05:00Z</time>
      </trkpt>
      <trkpt lat="47.26899" lon="-1.74307">
        <ele>66.7</ele>
        <time>2014-10-12T09:05:01Z</time>
      </trkpt>
      <trkpt lat="47.26903" lon="-1.74302">
        <ele>66.7</ele>
        <time>2014-10-12T09:05:03Z</time>
      </trkpt>
      <trkpt lat="47.26906" lon="-1.74297">
        <ele>66.8</ele>
        <time>2014-10-12T09:05:05Z</time>
      </trkpt>
      <trkpt lat="47.26909" lon="-1.74292">
        <ele>66.8</ele>
        <time>2014-10-12T09:05:07Z</time>
      </trkpt>
      <trkpt lat="47.26908" lon="-1.74286">
        <ele>66.8</ele>
        <time>2014-10-12T09:05:09Z</time>
      </trkpt>
      <trkpt lat="47.26906" lon="-1.74279">
        <ele>66.7</ele>
        <time>2014-10-12T09:05:11Z</time>
      </trkpt>
      <trkpt lat="47.26904" lon="-1.74275">
        <ele>66.7</ele>
        <time>2014-10-12T09:05:12Z</time>
      </trkpt>
      <trkpt lat="47.26903" lon="-1.74272">
        <ele>66.7</ele>
        <time>2014-10-12T09:05:13Z</time>
      </trkpt>
      <trkpt lat="47.26901" lon="-1.74268">
        <ele>66.6</ele>
        <time>2014-10-12T09:05:14Z</time>
      </trkpt>
      <trkpt lat="47.26898" lon="-1.74261">
        <ele>66.5</ele>
        <time>2014-10-12T09:05:16Z</time>
      </trkpt>
      <trkpt lat="47.26896" lon="-1.74257">
        <ele>66.5</ele>
        <time>2014-10-12T09:05:17Z</time>
      </trkpt>
      <trkpt lat="47.26895" lon="-1.74253">
        <ele>66.5</ele>
        <time>2014-10-12T09:05:18Z</time>
      </trkpt>
      <trkpt lat="47.26893" lon="-1.74249">
        <ele>66.4</ele>
        <time>2014-10-12T09:05:19Z</time>
      </trkpt>
      <trkpt lat="47.26891" lon="-1.74244">
        <ele>66.4</ele>
        <time>2014-10-12T09:05:20Z</time>
      </trkpt>
      <trkpt lat="47.26889" lon="-1.74239">
        <ele>66.3</ele>
        <time>2014-10-12T09:05:21Z</time>
      </trkpt>
      <trkpt lat="47.26887" lon="-1.74234">
        <ele>66.3</ele>
        <time>2014-10-12T09:05:22Z</time>
      </trkpt>
      <trkpt lat="47.26885" lon="-1.74229">
        <ele>66.2</ele>
        <time>2014-10-12T09:05:23Z</time>
      </trkpt>
      <trkpt lat="47.26883" lon="-1.74225">
        <ele>66.2</ele>
        <time>2014-10-12T09:05:24Z</time>
      </trkpt>
      <trkpt lat="47.26881" lon="-1.7422">
        <ele>66.2</ele>
        <time>2014-10-12T09:05:25Z</time>
      </trkpt>
      <trkpt lat="47.2688" lon="-1.74216">
        <ele>66.1</ele>
        <time>2014-10-12T09:05:26Z</time>
      </trkpt>
      <trkpt lat="47.26878" lon="-1.74211">
        <ele>66.1</ele>
        <time>2014-10-12T09:05:27Z</time>
      </trkpt>
      <trkpt lat="47.26876" lon="-1.74207">
        <ele>66</ele>
        <time>2014-10-12T09:05:28Z</time>
      </trkpt>
      <trkpt lat="47.26875" lon="-1.74203">
        <ele>66</ele>
        <time>2014-10-12T09:05:29Z</time>
      </trkpt>
      <trkpt lat="47.26873" lon="-1.74195">
        <ele>65.9</ele>
        <time>2014-10-12T09:05:31Z</time>
      </trkpt>
      <trkpt lat="47.26871" lon="-1.74191">
        <ele>65.9</ele>
        <time>2014-10-12T09:05:32Z</time>
      </trkpt>
      <trkpt lat="47.2687" lon="-1.74186">
        <ele>65.9</ele>
        <time>2014-10-12T09:05:33Z</time>
      </trkpt>
      <trkpt lat="47.26869" lon="-1.74181">
        <ele>65.8</ele>
        <time>2014-10-12T09:05:34Z</time>
      </trkpt>
      <trkpt lat="47.26867" lon="-1.74176">
        <ele>65.8</ele>
        <time>2014-10-12T09:05:35Z</time>
      </trkpt>
      <trkpt lat="47.26866" lon="-1.7417">
        <ele>65.8</ele>
        <time>2014-10-12T09:05:36Z</time>
      </trkpt>
      <trkpt lat="47.26865" lon="-1.74165">
        <ele>65.8</ele>
        <time>2014-10-12T09:05:37Z</time>
      </trkpt>
      <trkpt lat="47.26864" lon="-1.74161">
        <ele>65.7</ele>
        <time>2014-10-12T09:05:38Z</time>
      </trkpt>
      <trkpt lat="47.26863" lon="-1.74156">
        <ele>65.7</ele>
        <time>2014-10-12T09:05:39Z</time>
      </trkpt>
      <trkpt lat="47.26861" lon="-1.74152">
        <ele>65.7</ele>
        <time>2014-10-12T09:05:40Z</time>
      </trkpt>
      <trkpt lat="47.2686" lon="-1.74149">
        <ele>65.6</ele>
        <time>2014-10-12T09:05:41Z</time>
      </trkpt>
      <trkpt lat="47.26859" lon="-1.74144">
        <ele>65.6</ele>
        <time>2014-10-12T09:05:42Z</time>
      </trkpt>
      <trkpt lat="47.26858" lon="-1.74139">
        <ele>65.6</ele>
        <time>2014-10-12T09:05:43Z</time>
      </trkpt>
      <trkpt lat="47.26858" lon="-1.74135">
        <ele>65.6</ele>
        <time>2014-10-12T09:05:44Z</time>
      </trkpt>
      <trkpt lat="47.26856" lon="-1.74131">
        <ele>65.6</ele>
        <time>2014-10-12T09:05:45Z</time>
      </trkpt>
      <trkpt lat="47.26856" lon="-1.74127">
        <ele>65.5</ele>
        <time>2014-10-12T09:05:46Z</time>
      </trkpt>
      <trkpt lat="47.26855" lon="-1.74122">
        <ele>65.6</ele>
        <time>2014-10-12T09:05:47Z</time>
      </trkpt>
      <trkpt lat="47.26855" lon="-1.74117">
        <ele>65.6</ele>
        <time>2014-10-12T09:05:48Z</time>
      </trkpt>
      <trkpt lat="47.26855" lon="-1.74112">
        <ele>65.7</ele>
        <time>2014-10-12T09:05:49Z</time>
      </trkpt>
      <trkpt lat="47.26856" lon="-1.74105">
        <ele>65.8</ele>
        <time>2014-10-12T09:05:51Z</time>
      </trkpt>
      <trkpt lat="47.26856" lon="-1.74097">
        <ele>65.9</ele>
        <time>2014-10-12T09:05:53Z</time>
      </trkpt>
      <trkpt lat="47.26857" lon="-1.74093">
        <ele>65.9</ele>
        <time>2014-10-12T09:05:54Z</time>
      </trkpt>
      <trkpt lat="47.26857" lon="-1.74085">
        <ele>66</ele>
        <time>2014-10-12T09:05:56Z</time>
      </trkpt>
      <trkpt lat="47.26857" lon="-1.7408">
        <ele>66.1</ele>
        <time>2014-10-12T09:05:57Z</time>
      </trkpt>
      <trkpt lat="47.26856" lon="-1.74073">
        <ele>66.2</ele>
        <time>2014-10-12T09:05:58Z</time>
      </trkpt>
      <trkpt lat="47.26854" lon="-1.74069">
        <ele>66.2</ele>
        <time>2014-10-12T09:05:59Z</time>
      </trkpt>
      <trkpt lat="47.26854" lon="-1.74064">
        <ele>66.2</ele>
        <time>2014-10-12T09:06:00Z</time>
      </trkpt>
      <trkpt lat="47.26853" lon="-1.74059">
        <ele>66.3</ele>
        <time>2014-10-12T09:06:01Z</time>
      </trkpt>
      <trkpt lat="47.26852" lon="-1.74055">
        <ele>66.3</ele>
        <time>2014-10-12T09:06:02Z</time>
      </trkpt>
      <trkpt lat="47.26852" lon="-1.74051">
        <ele>66.3</ele>
        <time>2014-10-12T09:06:03Z</time>
      </trkpt>
      <trkpt lat="47.26851" lon="-1.74047">
        <ele>66.4</ele>
        <time>2014-10-12T09:06:04Z</time>
      </trkpt>
      <trkpt lat="47.2685" lon="-1.74042">
        <ele>66.4</ele>
        <time>2014-10-12T09:06:05Z</time>
      </trkpt>
      <trkpt lat="47.26849" lon="-1.74035">
        <ele>66.4</ele>
        <time>2014-10-12T09:06:07Z</time>
      </trkpt>
      <trkpt lat="47.26848" lon="-1.7403">
        <ele>66.4</ele>
        <time>2014-10-12T09:06:08Z</time>
      </trkpt>
      <trkpt lat="47.26848" lon="-1.74026">
        <ele>66.4</ele>
        <time>2014-10-12T09:06:09Z</time>
      </trkpt>
      <trkpt lat="47.26848" lon="-1.74021">
        <ele>66.4</ele>
        <time>2014-10-12T09:06:10Z</time>
      </trkpt>
      <trkpt lat="47.26846" lon="-1.74013">
        <ele>66.3</ele>
        <time>2014-10-12T09:06:12Z</time>
      </trkpt>
      <trkpt lat="47.26845" lon="-1.74008">
        <ele>66.3</ele>
        <time>2014-10-12T09:06:13Z</time>
      </trkpt>
      <trkpt lat="47.26845" lon="-1.74003">
        <ele>66.3</ele>
        <time>2014-10-12T09:06:14Z</time>
      </trkpt>
      <trkpt lat="47.26844" lon="-1.73998">
        <ele>66.2</ele>
        <time>2014-10-12T09:06:15Z</time>
      </trkpt>
      <trkpt lat="47.26843" lon="-1.73993">
        <ele>66.2</ele>
        <time>2014-10-12T09:06:16Z</time>
      </trkpt>
      <trkpt lat="47.26842" lon="-1.73988">
        <ele>66.2</ele>
        <time>2014-10-12T09:06:17Z</time>
      </trkpt>
      <trkpt lat="47.26842" lon="-1.73982">
        <ele>66.2</ele>
        <time>2014-10-12T09:06:18Z</time>
      </trkpt>
      <trkpt lat="47.26841" lon="-1.73977">
        <ele>66.2</ele>
        <time>2014-10-12T09:06:19Z</time>
      </trkpt>
      <trkpt lat="47.26841" lon="-1.73973">
        <ele>66.2</ele>
        <time>2014-10-12T09:06:20Z</time>
      </trkpt>
      <trkpt lat="47.2684" lon="-1.73969">
        <ele>66.2</ele>
        <time>2014-10-12T09:06:21Z</time>
      </trkpt>
      <trkpt lat="47.2684" lon="-1.73964">
        <ele>66.2</ele>
        <time>2014-10-12T09:06:22Z</time>
      </trkpt>
      <trkpt lat="47.2684" lon="-1.73958">
        <ele>66.2</ele>
        <time>2014-10-12T09:06:23Z</time>
      </trkpt>
      <trkpt lat="47.2684" lon="-1.73953">
        <ele>66.2</ele>
        <time>2014-10-12T09:06:24Z</time>
      </trkpt>
      <trkpt lat="47.26839" lon="-1.73949">
        <ele>66.2</ele>
        <time>2014-10-12T09:06:25Z</time>
      </trkpt>
      <trkpt lat="47.26838" lon="-1.73946">
        <ele>66.3</ele>
        <time>2014-10-12T09:06:26Z</time>
      </trkpt>
      <trkpt lat="47.26837" lon="-1.7394">
        <ele>66.3</ele>
        <time>2014-10-12T09:06:27Z</time>
      </trkpt>
      <trkpt lat="47.26837" lon="-1.73936">
        <ele>66.3</ele>
        <time>2014-10-12T09:06:28Z</time>
      </trkpt>
      <trkpt lat="47.26835" lon="-1.73929">
        <ele>66.4</ele>
        <time>2014-10-12T09:06:29Z</time>
      </trkpt>
      <trkpt lat="47.26834" lon="-1.73925">
        <ele>66.4</ele>
        <time>2014-10-12T09:06:30Z</time>
      </trkpt>
      <trkpt lat="47.26833" lon="-1.7392">
        <ele>66.4</ele>
        <time>2014-10-12T09:06:31Z</time>
      </trkpt>
      <trkpt lat="47.26832" lon="-1.73914">
        <ele>66.5</ele>
        <time>2014-10-12T09:06:32Z</time>
      </trkpt>
      <trkpt lat="47.26831" lon="-1.73909">
        <ele>66.5</ele>
        <time>2014-10-12T09:06:33Z</time>
      </trkpt>
      <trkpt lat="47.26831" lon="-1.73904">
        <ele>66.6</ele>
        <time>2014-10-12T09:06:34Z</time>
      </trkpt>
      <trkpt lat="47.26831" lon="-1.739">
        <ele>66.6</ele>
        <time>2014-10-12T09:06:35Z</time>
      </trkpt>
      <trkpt lat="47.26829" lon="-1.73895">
        <ele>66.7</ele>
        <time>2014-10-12T09:06:36Z</time>
      </trkpt>
      <trkpt lat="47.26828" lon="-1.73891">
        <ele>66.7</ele>
        <time>2014-10-12T09:06:37Z</time>
      </trkpt>
      <trkpt lat="47.26827" lon="-1.73886">
        <ele>66.7</ele>
        <time>2014-10-12T09:06:38Z</time>
      </trkpt>
      <trkpt lat="47.26825" lon="-1.7388">
        <ele>66.7</ele>
        <time>2014-10-12T09:06:40Z</time>
      </trkpt>
      <trkpt lat="47.26824" lon="-1.73876">
        <ele>66.8</ele>
        <time>2014-10-12T09:06:41Z</time>
      </trkpt>
      <trkpt lat="47.26824" lon="-1.73872">
        <ele>66.8</ele>
        <time>2014-10-12T09:06:42Z</time>
      </trkpt>
      <trkpt lat="47.26822" lon="-1.73868">
        <ele>66.9</ele>
        <time>2014-10-12T09:06:43Z</time>
      </trkpt>
      <trkpt lat="47.26821" lon="-1.73864">
        <ele>66.9</ele>
        <time>2014-10-12T09:06:44Z</time>
      </trkpt>
      <trkpt lat="47.26819" lon="-1.73859">
        <ele>67</ele>
        <time>2014-10-12T09:06:45Z</time>
      </trkpt>
      <trkpt lat="47.26818" lon="-1.73852">
        <ele>67.1</ele>
        <time>2014-10-12T09:06:46Z</time>
      </trkpt>
      <trkpt lat="47.26816" lon="-1.73846">
        <ele>67.1</ele>
        <time>2014-10-12T09:06:47Z</time>
      </trkpt>
      <trkpt lat="47.26815" lon="-1.7384">
        <ele>67.2</ele>
        <time>2014-10-12T09:06:48Z</time>
      </trkpt>
      <trkpt lat="47.26814" lon="-1.73834">
        <ele>67.3</ele>
        <time>2014-10-12T09:06:49Z</time>
      </trkpt>
      <trkpt lat="47.26813" lon="-1.73828">
        <ele>67.4</ele>
        <time>2014-10-12T09:06:50Z</time>
      </trkpt>
      <trkpt lat="47.26812" lon="-1.73822">
        <ele>67.4</ele>
        <time>2014-10-12T09:06:51Z</time>
      </trkpt>
      <trkpt lat="47.26811" lon="-1.73817">
        <ele>67.5</ele>
        <time>2014-10-12T09:06:52Z</time>
      </trkpt>
      <trkpt lat="47.2681" lon="-1.73812">
        <ele>67.5</ele>
        <time>2014-10-12T09:06:53Z</time>
      </trkpt>
      <trkpt lat="47.26809" lon="-1.73808">
        <ele>67.5</ele>
        <time>2014-10-12T09:06:54Z</time>
      </trkpt>
      <trkpt lat="47.26808" lon="-1.73804">
        <ele>67.6</ele>
        <time>2014-10-12T09:06:55Z</time>
      </trkpt>
      <trkpt lat="47.26806" lon="-1.738">
        <ele>67.6</ele>
        <time>2014-10-12T09:06:56Z</time>
      </trkpt>
      <trkpt lat="47.26805" lon="-1.73794">
        <ele>67.6</ele>
        <time>2014-10-12T09:06:57Z</time>
      </trkpt>
      <trkpt lat="47.26804" lon="-1.73788">
        <ele>67.6</ele>
        <time>2014-10-12T09:06:58Z</time>
      </trkpt>
      <trkpt lat="47.26802" lon="-1.73782">
        <ele>67.5</ele>
        <time>2014-10-12T09:06:59Z</time>
      </trkpt>
      <trkpt lat="47.268" lon="-1.73776">
        <ele>67.4</ele>
        <time>2014-10-12T09:07:00Z</time>
      </trkpt>
      <trkpt lat="47.26798" lon="-1.73769">
        <ele>67.2</ele>
        <time>2014-10-12T09:07:01Z</time>
      </trkpt>
      <trkpt lat="47.26795" lon="-1.73763">
        <ele>67.1</ele>
        <time>2014-10-12T09:07:02Z</time>
      </trkpt>
      <trkpt lat="47.26793" lon="-1.73757">
        <ele>67.1</ele>
        <time>2014-10-12T09:07:03Z</time>
      </trkpt>
      <trkpt lat="47.26791" lon="-1.73751">
        <ele>67</ele>
        <time>2014-10-12T09:07:04Z</time>
      </trkpt>
      <trkpt lat="47.26789" lon="-1.73745">
        <ele>66.9</ele>
        <time>2014-10-12T09:07:05Z</time>
      </trkpt>
      <trkpt lat="47.26787" lon="-1.73739">
        <ele>66.9</ele>
        <time>2014-10-12T09:07:06Z</time>
      </trkpt>
      <trkpt lat="47.26784" lon="-1.73737">
        <ele>66.8</ele>
        <time>2014-10-12T09:07:07Z</time>
      </trkpt>
      <trkpt lat="47.26781" lon="-1.73734">
        <ele>66.8</ele>
        <time>2014-10-12T09:07:08Z</time>
      </trkpt>
      <trkpt lat="47.26778" lon="-1.73732">
        <ele>66.7</ele>
        <time>2014-10-12T09:07:09Z</time>
      </trkpt>
      <trkpt lat="47.26775" lon="-1.73729">
        <ele>66.7</ele>
        <time>2014-10-12T09:07:10Z</time>
      </trkpt>
      <trkpt lat="47.26772" lon="-1.73726">
        <ele>66.7</ele>
        <time>2014-10-12T09:07:11Z</time>
      </trkpt>
      <trkpt lat="47.26768" lon="-1.73722">
        <ele>66.6</ele>
        <time>2014-10-12T09:07:12Z</time>
      </trkpt>
      <trkpt lat="47.26765" lon="-1.73718">
        <ele>66.6</ele>
        <time>2014-10-12T09:07:13Z</time>
      </trkpt>
      <trkpt lat="47.26763" lon="-1.73714">
        <ele>66.6</ele>
        <time>2014-10-12T09:07:14Z</time>
      </trkpt>
      <trkpt lat="47.26761" lon="-1.7371">
        <ele>66.6</ele>
        <time>2014-10-12T09:07:15Z</time>
      </trkpt>
      <trkpt lat="47.26758" lon="-1.73706">
        <ele>66.6</ele>
        <time>2014-10-12T09:07:16Z</time>
      </trkpt>
      <trkpt lat="47.26755" lon="-1.73702">
        <ele>66.6</ele>
        <time>2014-10-12T09:07:17Z</time>
      </trkpt>
      <trkpt lat="47.26753" lon="-1.73698">
        <ele>66.7</ele>
        <time>2014-10-12T09:07:18Z</time>
      </trkpt>
      <trkpt lat="47.2675" lon="-1.73695">
        <ele>66.7</ele>
        <time>2014-10-12T09:07:19Z</time>
      </trkpt>
      <trkpt lat="47.26748" lon="-1.73691">
        <ele>66.7</ele>
        <time>2014-10-12T09:07:20Z</time>
      </trkpt>
      <trkpt lat="47.26746" lon="-1.73687">
        <ele>66.7</ele>
        <time>2014-10-12T09:07:21Z</time>
      </trkpt>
      <trkpt lat="47.26743" lon="-1.73683">
        <ele>66.7</ele>
        <time>2014-10-12T09:07:22Z</time>
      </trkpt>
      <trkpt lat="47.2674" lon="-1.73679">
        <ele>66.7</ele>
        <time>2014-10-12T09:07:23Z</time>
      </trkpt>
      <trkpt lat="47.26737" lon="-1.73675">
        <ele>66.7</ele>
        <time>2014-10-12T09:07:24Z</time>
      </trkpt>
      <trkpt lat="47.26734" lon="-1.73671">
        <ele>66.8</ele>
        <time>2014-10-12T09:07:25Z</time>
      </trkpt>
      <trkpt lat="47.26732" lon="-1.73667">
        <ele>66.8</ele>
        <time>2014-10-12T09:07:26Z</time>
      </trkpt>
      <trkpt lat="47.26729" lon="-1.73663">
        <ele>66.8</ele>
        <time>2014-10-12T09:07:27Z</time>
      </trkpt>
      <trkpt lat="47.26727" lon="-1.73658">
        <ele>66.8</ele>
        <time>2014-10-12T09:07:28Z</time>
      </trkpt>
      <trkpt lat="47.26725" lon="-1.73654">
        <ele>66.9</ele>
        <time>2014-10-12T09:07:29Z</time>
      </trkpt>
      <trkpt lat="47.26723" lon="-1.73649">
        <ele>66.9</ele>
        <time>2014-10-12T09:07:30Z</time>
      </trkpt>
      <trkpt lat="47.2672" lon="-1.73644">
        <ele>66.9</ele>
        <time>2014-10-12T09:07:31Z</time>
      </trkpt>
      <trkpt lat="47.26717" lon="-1.7364">
        <ele>66.9</ele>
        <time>2014-10-12T09:07:32Z</time>
      </trkpt>
      <trkpt lat="47.26715" lon="-1.73636">
        <ele>66.9</ele>
        <time>2014-10-12T09:07:33Z</time>
      </trkpt>
      <trkpt lat="47.26712" lon="-1.73632">
        <ele>67</ele>
        <time>2014-10-12T09:07:34Z</time>
      </trkpt>
      <trkpt lat="47.2671" lon="-1.73627">
        <ele>67</ele>
        <time>2014-10-12T09:07:35Z</time>
      </trkpt>
      <trkpt lat="47.26708" lon="-1.73624">
        <ele>67</ele>
        <time>2014-10-12T09:07:36Z</time>
      </trkpt>
      <trkpt lat="47.26705" lon="-1.73621">
        <ele>66.9</ele>
        <time>2014-10-12T09:07:37Z</time>
      </trkpt>
      <trkpt lat="47.26703" lon="-1.73618">
        <ele>66.9</ele>
        <time>2014-10-12T09:07:38Z</time>
      </trkpt>
      <trkpt lat="47.26701" lon="-1.73614">
        <ele>66.9</ele>
        <time>2014-10-12T09:07:39Z</time>
      </trkpt>
      <trkpt lat="47.26698" lon="-1.7361">
        <ele>66.8</ele>
        <time>2014-10-12T09:07:40Z</time>
      </trkpt>
      <trkpt lat="47.26696" lon="-1.73606">
        <ele>66.8</ele>
        <time>2014-10-12T09:07:41Z</time>
      </trkpt>
      <trkpt lat="47.26693" lon="-1.73603">
        <ele>66.8</ele>
        <time>2014-10-12T09:07:42Z</time>
      </trkpt>
      <trkpt lat="47.26691" lon="-1.73599">
        <ele>66.7</ele>
        <time>2014-10-12T09:07:43Z</time>
      </trkpt>
      <trkpt lat="47.26688" lon="-1.73594">
        <ele>66.7</ele>
        <time>2014-10-12T09:07:44Z</time>
      </trkpt>
      <trkpt lat="47.26685" lon="-1.7359">
        <ele>66.7</ele>
        <time>2014-10-12T09:07:45Z</time>
      </trkpt>
      <trkpt lat="47.26682" lon="-1.73586">
        <ele>66.7</ele>
        <time>2014-10-12T09:07:46Z</time>
      </trkpt>
      <trkpt lat="47.26678" lon="-1.73584">
        <ele>66.6</ele>
        <time>2014-10-12T09:07:47Z</time>
      </trkpt>
      <trkpt lat="47.26675" lon="-1.73582">
        <ele>66.5</ele>
        <time>2014-10-12T09:07:48Z</time>
      </trkpt>
      <trkpt lat="47.26671" lon="-1.73581">
        <ele>66.4</ele>
        <time>2014-10-12T09:07:49Z</time>
      </trkpt>
      <trkpt lat="47.26668" lon="-1.73579">
        <ele>66.4</ele>
        <time>2014-10-12T09:07:50Z</time>
      </trkpt>
      <trkpt lat="47.26665" lon="-1.73578">
        <ele>66.3</ele>
        <time>2014-10-12T09:07:51Z</time>
      </trkpt>
      <trkpt lat="47.26662" lon="-1.73577">
        <ele>66.2</ele>
        <time>2014-10-12T09:07:52Z</time>
      </trkpt>
      <trkpt lat="47.26656" lon="-1.73577">
        <ele>66.1</ele>
        <time>2014-10-12T09:07:54Z</time>
      </trkpt>
      <trkpt lat="47.26653" lon="-1.73578">
        <ele>66</ele>
        <time>2014-10-12T09:07:55Z</time>
      </trkpt>
      <trkpt lat="47.2665" lon="-1.7358">
        <ele>65.8</ele>
        <time>2014-10-12T09:07:56Z</time>
      </trkpt>
      <trkpt lat="47.26647" lon="-1.73581">
        <ele>65.7</ele>
        <time>2014-10-12T09:07:57Z</time>
      </trkpt>
      <trkpt lat="47.26644" lon="-1.73581">
        <ele>65.6</ele>
        <time>2014-10-12T09:07:58Z</time>
      </trkpt>
      <trkpt lat="47.26639" lon="-1.73577">
        <ele>65.6</ele>
        <time>2014-10-12T09:08:00Z</time>
      </trkpt>
      <trkpt lat="47.26638" lon="-1.73573">
        <ele>65.6</ele>
        <time>2014-10-12T09:08:01Z</time>
      </trkpt>
      <trkpt lat="47.26636" lon="-1.73568">
        <ele>65.7</ele>
        <time>2014-10-12T09:08:02Z</time>
      </trkpt>
      <trkpt lat="47.26636" lon="-1.73562">
        <ele>65.8</ele>
        <time>2014-10-12T09:08:03Z</time>
      </trkpt>
      <trkpt lat="47.26637" lon="-1.73554">
        <ele>66</ele>
        <time>2014-10-12T09:08:05Z</time>
      </trkpt>
      <trkpt lat="47.26637" lon="-1.73549">
        <ele>66.1</ele>
        <time>2014-10-12T09:08:06Z</time>
      </trkpt>
      <trkpt lat="47.26638" lon="-1.73544">
        <ele>66.3</ele>
        <time>2014-10-12T09:08:07Z</time>
      </trkpt>
      <trkpt lat="47.26639" lon="-1.73539">
        <ele>66.4</ele>
        <time>2014-10-12T09:08:08Z</time>
      </trkpt>
      <trkpt lat="47.2664" lon="-1.73535">
        <ele>66.5</ele>
        <time>2014-10-12T09:08:09Z</time>
      </trkpt>
      <trkpt lat="47.26641" lon="-1.73531">
        <ele>66.6</ele>
        <time>2014-10-12T09:08:10Z</time>
      </trkpt>
      <trkpt lat="47.26642" lon="-1.73527">
        <ele>66.8</ele>
        <time>2014-10-12T09:08:11Z</time>
      </trkpt>
      <trkpt lat="47.26643" lon="-1.73522">
        <ele>66.9</ele>
        <time>2014-10-12T09:08:12Z</time>
      </trkpt>
      <trkpt lat="47.26644" lon="-1.73518">
        <ele>67</ele>
        <time>2014-10-12T09:08:13Z</time>
      </trkpt>
      <trkpt lat="47.26645" lon="-1.73513">
        <ele>67.2</ele>
        <time>2014-10-12T09:08:14Z</time>
      </trkpt>
      <trkpt lat="47.26646" lon="-1.73508">
        <ele>67.3</ele>
        <time>2014-10-12T09:08:15Z</time>
      </trkpt>
      <trkpt lat="47.26647" lon="-1.73503">
        <ele>67.5</ele>
        <time>2014-10-12T09:08:16Z</time>
      </trkpt>
      <trkpt lat="47.26648" lon="-1.73498">
        <ele>67.6</ele>
        <time>2014-10-12T09:08:17Z</time>
      </trkpt>
      <trkpt lat="47.26649" lon="-1.73494">
        <ele>67.7</ele>
        <time>2014-10-12T09:08:18Z</time>
      </trkpt>
      <trkpt lat="47.2665" lon="-1.7349">
        <ele>67.8</ele>
        <time>2014-10-12T09:08:19Z</time>
      </trkpt>
      <trkpt lat="47.26651" lon="-1.73485">
        <ele>68</ele>
        <time>2014-10-12T09:08:20Z</time>
      </trkpt>
      <trkpt lat="47.26652" lon="-1.7348">
        <ele>68.1</ele>
        <time>2014-10-12T09:08:21Z</time>
      </trkpt>
      <trkpt lat="47.26652" lon="-1.73476">
        <ele>68.2</ele>
        <time>2014-10-12T09:08:22Z</time>
      </trkpt>
      <trkpt lat="47.26653" lon="-1.73471">
        <ele>68.4</ele>
        <time>2014-10-12T09:08:23Z</time>
      </trkpt>
      <trkpt lat="47.26652" lon="-1.73466">
        <ele>68.5</ele>
        <time>2014-10-12T09:08:24Z</time>
      </trkpt>
      <trkpt lat="47.26652" lon="-1.73461">
        <ele>68.6</ele>
        <time>2014-10-12T09:08:25Z</time>
      </trkpt>
      <trkpt lat="47.26651" lon="-1.73457">
        <ele>68.7</ele>
        <time>2014-10-12T09:08:26Z</time>
      </trkpt>
      <trkpt lat="47.26651" lon="-1.73452">
        <ele>68.7</ele>
        <time>2014-10-12T09:08:27Z</time>
      </trkpt>
      <trkpt lat="47.2665" lon="-1.73448">
        <ele>68.8</ele>
        <time>2014-10-12T09:08:28Z</time>
      </trkpt>
      <trkpt lat="47.2665" lon="-1.73443">
        <ele>68.9</ele>
        <time>2014-10-12T09:08:29Z</time>
      </trkpt>
      <trkpt lat="47.26649" lon="-1.73439">
        <ele>69</ele>
        <time>2014-10-12T09:08:30Z</time>
      </trkpt>
      <trkpt lat="47.26648" lon="-1.73434">
        <ele>69.1</ele>
        <time>2014-10-12T09:08:31Z</time>
      </trkpt>
      <trkpt lat="47.26648" lon="-1.7343">
        <ele>69.1</ele>
        <time>2014-10-12T09:08:32Z</time>
      </trkpt>
      <trkpt lat="47.26648" lon="-1.73425">
        <ele>69.3</ele>
        <time>2014-10-12T09:08:33Z</time>
      </trkpt>
      <trkpt lat="47.26647" lon="-1.73419">
        <ele>69.3</ele>
        <time>2014-10-12T09:08:34Z</time>
      </trkpt>
      <trkpt lat="47.26645" lon="-1.73415">
        <ele>69.4</ele>
        <time>2014-10-12T09:08:35Z</time>
      </trkpt>
      <trkpt lat="47.26643" lon="-1.73411">
        <ele>69.5</ele>
        <time>2014-10-12T09:08:36Z</time>
      </trkpt>
      <trkpt lat="47.26642" lon="-1.73407">
        <ele>69.5</ele>
        <time>2014-10-12T09:08:37Z</time>
      </trkpt>
      <trkpt lat="47.2664" lon="-1.73402">
        <ele>69.6</ele>
        <time>2014-10-12T09:08:38Z</time>
      </trkpt>
      <trkpt lat="47.26639" lon="-1.73398">
        <ele>69.7</ele>
        <time>2014-10-12T09:08:39Z</time>
      </trkpt>
      <trkpt lat="47.26637" lon="-1.73393">
        <ele>69.7</ele>
        <time>2014-10-12T09:08:40Z</time>
      </trkpt>
      <trkpt lat="47.26636" lon="-1.73388">
        <ele>69.8</ele>
        <time>2014-10-12T09:08:41Z</time>
      </trkpt>
      <trkpt lat="47.26635" lon="-1.73383">
        <ele>69.9</ele>
        <time>2014-10-12T09:08:42Z</time>
      </trkpt>
      <trkpt lat="47.26634" lon="-1.73378">
        <ele>70</ele>
        <time>2014-10-12T09:08:43Z</time>
      </trkpt>
      <trkpt lat="47.26632" lon="-1.73373">
        <ele>70.1</ele>
        <time>2014-10-12T09:08:44Z</time>
      </trkpt>
      <trkpt lat="47.26631" lon="-1.73368">
        <ele>70.2</ele>
        <time>2014-10-12T09:08:45Z</time>
      </trkpt>
      <trkpt lat="47.2663" lon="-1.73363">
        <ele>70.3</ele>
        <time>2014-10-12T09:08:46Z</time>
      </trkpt>
      <trkpt lat="47.26628" lon="-1.73358">
        <ele>70.4</ele>
        <time>2014-10-12T09:08:47Z</time>
      </trkpt>
      <trkpt lat="47.26626" lon="-1.73354">
        <ele>70.5</ele>
        <time>2014-10-12T09:08:48Z</time>
      </trkpt>
      <trkpt lat="47.26625" lon="-1.73349">
        <ele>70.6</ele>
        <time>2014-10-12T09:08:49Z</time>
      </trkpt>
      <trkpt lat="47.26624" lon="-1.73345">
        <ele>70.7</ele>
        <time>2014-10-12T09:08:50Z</time>
      </trkpt>
      <trkpt lat="47.26622" lon="-1.73341">
        <ele>70.8</ele>
        <time>2014-10-12T09:08:51Z</time>
      </trkpt>
      <trkpt lat="47.26621" lon="-1.73336">
        <ele>70.9</ele>
        <time>2014-10-12T09:08:52Z</time>
      </trkpt>
      <trkpt lat="47.26619" lon="-1.73332">
        <ele>71</ele>
        <time>2014-10-12T09:08:53Z</time>
      </trkpt>
      <trkpt lat="47.26618" lon="-1.73328">
        <ele>71</ele>
        <time>2014-10-12T09:08:54Z</time>
      </trkpt>
      <trkpt lat="47.26616" lon="-1.73324">
        <ele>71.1</ele>
        <time>2014-10-12T09:08:55Z</time>
      </trkpt>
      <trkpt lat="47.26612" lon="-1.73319">
        <ele>71.2</ele>
        <time>2014-10-12T09:08:57Z</time>
      </trkpt>
      <trkpt lat="47.26608" lon="-1.73314">
        <ele>71.3</ele>
        <time>2014-10-12T09:08:59Z</time>
      </trkpt>
      <trkpt lat="47.26606" lon="-1.73311">
        <ele>71.3</ele>
        <time>2014-10-12T09:09:00Z</time>
      </trkpt>
      <trkpt lat="47.26604" lon="-1.73308">
        <ele>71.4</ele>
        <time>2014-10-12T09:09:01Z</time>
      </trkpt>
      <trkpt lat="47.26602" lon="-1.73304">
        <ele>71.4</ele>
        <time>2014-10-12T09:09:02Z</time>
      </trkpt>
      <trkpt lat="47.266" lon="-1.733">
        <ele>71.5</ele>
        <time>2014-10-12T09:09:03Z</time>
      </trkpt>
      <trkpt lat="47.26598" lon="-1.73295">
        <ele>71.6</ele>
        <time>2014-10-12T09:09:04Z</time>
      </trkpt>
      <trkpt lat="47.26596" lon="-1.73291">
        <ele>71.7</ele>
        <time>2014-10-12T09:09:05Z</time>
      </trkpt>
      <trkpt lat="47.26594" lon="-1.73287">
        <ele>71.8</ele>
        <time>2014-10-12T09:09:06Z</time>
      </trkpt>
      <trkpt lat="47.26592" lon="-1.73283">
        <ele>71.8</ele>
        <time>2014-10-12T09:09:07Z</time>
      </trkpt>
      <trkpt lat="47.2659" lon="-1.73279">
        <ele>71.9</ele>
        <time>2014-10-12T09:09:08Z</time>
      </trkpt>
      <trkpt lat="47.26587" lon="-1.73276">
        <ele>72</ele>
        <time>2014-10-12T09:09:09Z</time>
      </trkpt>
      <trkpt lat="47.26585" lon="-1.73272">
        <ele>72</ele>
        <time>2014-10-12T09:09:10Z</time>
      </trkpt>
      <trkpt lat="47.26582" lon="-1.73269">
        <ele>72</ele>
        <time>2014-10-12T09:09:11Z</time>
      </trkpt>
      <trkpt lat="47.26581" lon="-1.73265">
        <ele>72.1</ele>
        <time>2014-10-12T09:09:12Z</time>
      </trkpt>
      <trkpt lat="47.26579" lon="-1.73261">
        <ele>72.2</ele>
        <time>2014-10-12T09:09:13Z</time>
      </trkpt>
      <trkpt lat="47.26577" lon="-1.73257">
        <ele>72.2</ele>
        <time>2014-10-12T09:09:14Z</time>
      </trkpt>
      <trkpt lat="47.26575" lon="-1.73254">
        <ele>72.2</ele>
        <time>2014-10-12T09:09:15Z</time>
      </trkpt>
      <trkpt lat="47.26574" lon="-1.73251">
        <ele>72.3</ele>
        <time>2014-10-12T09:09:16Z</time>
      </trkpt>
      <trkpt lat="47.26572" lon="-1.73247">
        <ele>72.3</ele>
        <time>2014-10-12T09:09:17Z</time>
      </trkpt>
      <trkpt lat="47.2657" lon="-1.73244">
        <ele>72.3</ele>
        <time>2014-10-12T09:09:18Z</time>
      </trkpt>
      <trkpt lat="47.26568" lon="-1.7324">
        <ele>72.3</ele>
        <time>2014-10-12T09:09:19Z</time>
      </trkpt>
      <trkpt lat="47.26565" lon="-1.73235">
        <ele>72.4</ele>
        <time>2014-10-12T09:09:21Z</time>
      </trkpt>
      <trkpt lat="47.26561" lon="-1.73233">
        <ele>72.3</ele>
        <time>2014-10-12T09:09:23Z</time>
      </trkpt>
      <trkpt lat="47.26558" lon="-1.73234">
        <ele>72.2</ele>
        <time>2014-10-12T09:09:24Z</time>
      </trkpt>
      <trkpt lat="47.26555" lon="-1.73234">
        <ele>72.1</ele>
        <time>2014-10-12T09:09:25Z</time>
      </trkpt>
      <trkpt lat="47.26551" lon="-1.73233">
        <ele>72</ele>
        <time>2014-10-12T09:09:26Z</time>
      </trkpt>
      <trkpt lat="47.26547" lon="-1.73232">
        <ele>71.9</ele>
        <time>2014-10-12T09:09:27Z</time>
      </trkpt>
      <trkpt lat="47.26544" lon="-1.73229">
        <ele>71.8</ele>
        <time>2014-10-12T09:09:28Z</time>
      </trkpt>
      <trkpt lat="47.26541" lon="-1.73226">
        <ele>71.8</ele>
        <time>2014-10-12T09:09:29Z</time>
      </trkpt>
      <trkpt lat="47.26539" lon="-1.73223">
        <ele>71.8</ele>
        <time>2014-10-12T09:09:30Z</time>
      </trkpt>
      <trkpt lat="47.26536" lon="-1.73219">
        <ele>71.8</ele>
        <time>2014-10-12T09:09:31Z</time>
      </trkpt>
      <trkpt lat="47.26533" lon="-1.73216">
        <ele>71.9</ele>
        <time>2014-10-12T09:09:32Z</time>
      </trkpt>
      <trkpt lat="47.26531" lon="-1.73212">
        <ele>71.9</ele>
        <time>2014-10-12T09:09:33Z</time>
      </trkpt>
      <trkpt lat="47.26528" lon="-1.7321">
        <ele>72</ele>
        <time>2014-10-12T09:09:34Z</time>
      </trkpt>
      <trkpt lat="47.26526" lon="-1.73208">
        <ele>72</ele>
        <time>2014-10-12T09:09:35Z</time>
      </trkpt>
      <trkpt lat="47.26522" lon="-1.73209">
        <ele>72</ele>
        <time>2014-10-12T09:09:37Z</time>
      </trkpt>
      <trkpt lat="47.26519" lon="-1.73209">
        <ele>72</ele>
        <time>2014-10-12T09:09:38Z</time>
      </trkpt>
      <trkpt lat="47.26514" lon="-1.7321">
        <ele>72</ele>
        <time>2014-10-12T09:09:40Z</time>
      </trkpt>
      <trkpt lat="47.2651" lon="-1.73211">
        <ele>71.9</ele>
        <time>2014-10-12T09:09:42Z</time>
      </trkpt>
      <trkpt lat="47.26506" lon="-1.73212">
        <ele>71.9</ele>
        <time>2014-10-12T09:09:44Z</time>
      </trkpt>
      <trkpt lat="47.265" lon="-1.73212">
        <ele>71.9</ele>
        <time>2014-10-12T09:09:46Z</time>
      </trkpt>
      <trkpt lat="47.26495" lon="-1.73211">
        <ele>71.9</ele>
        <time>2014-10-12T09:09:48Z</time>
      </trkpt>
      <trkpt lat="47.26492" lon="-1.73208">
        <ele>72</ele>
        <time>2014-10-12T09:09:49Z</time>
      </trkpt>
      <trkpt lat="47.26489" lon="-1.73205">
        <ele>72</ele>
        <time>2014-10-12T09:09:50Z</time>
      </trkpt>
      <trkpt lat="47.26487" lon="-1.73199">
        <ele>71.9</ele>
        <time>2014-10-12T09:09:52Z</time>
      </trkpt>
      <trkpt lat="47.26485" lon="-1.73196">
        <ele>71.9</ele>
        <time>2014-10-12T09:09:53Z</time>
      </trkpt>
      <trkpt lat="47.26482" lon="-1.73189">
        <ele>71.8</ele>
        <time>2014-10-12T09:09:55Z</time>
      </trkpt>
      <trkpt lat="47.26481" lon="-1.73186">
        <ele>71.8</ele>
        <time>2014-10-12T09:09:56Z</time>
      </trkpt>
      <trkpt lat="47.26479" lon="-1.73182">
        <ele>71.8</ele>
        <time>2014-10-12T09:09:57Z</time>
      </trkpt>
      <trkpt lat="47.26477" lon="-1.73179">
        <ele>71.7</ele>
        <time>2014-10-12T09:09:58Z</time>
      </trkpt>
      <trkpt lat="47.26476" lon="-1.73174">
        <ele>71.7</ele>
        <time>2014-10-12T09:09:59Z</time>
      </trkpt>
      <trkpt lat="47.26474" lon="-1.7317">
        <ele>71.6</ele>
        <time>2014-10-12T09:10:00Z</time>
      </trkpt>
      <trkpt lat="47.26473" lon="-1.73167">
        <ele>71.6</ele>
        <time>2014-10-12T09:10:01Z</time>
      </trkpt>
      <trkpt lat="47.26471" lon="-1.73162">
        <ele>71.5</ele>
        <time>2014-10-12T09:10:02Z</time>
      </trkpt>
      <trkpt lat="47.26469" lon="-1.73158">
        <ele>71.5</ele>
        <time>2014-10-12T09:10:03Z</time>
      </trkpt>
      <trkpt lat="47.26468" lon="-1.73154">
        <ele>71.4</ele>
        <time>2014-10-12T09:10:04Z</time>
      </trkpt>
      <trkpt lat="47.26464" lon="-1.73143">
        <ele>71.3</ele>
        <time>2014-10-12T09:10:06Z</time>
      </trkpt>
      <trkpt lat="47.26463" lon="-1.73138">
        <ele>71.2</ele>
        <time>2014-10-12T09:10:07Z</time>
      </trkpt>
      <trkpt lat="47.26462" lon="-1.73133">
        <ele>71.1</ele>
        <time>2014-10-12T09:10:08Z</time>
      </trkpt>
      <trkpt lat="47.26461" lon="-1.73127">
        <ele>71.1</ele>
        <time>2014-10-12T09:10:09Z</time>
      </trkpt>
      <trkpt lat="47.2646" lon="-1.73121">
        <ele>70.9</ele>
        <time>2014-10-12T09:10:10Z</time>
      </trkpt>
      <trkpt lat="47.26458" lon="-1.73115">
        <ele>70.7</ele>
        <time>2014-10-12T09:10:11Z</time>
      </trkpt>
      <trkpt lat="47.26457" lon="-1.73108">
        <ele>70.6</ele>
        <time>2014-10-12T09:10:12Z</time>
      </trkpt>
      <trkpt lat="47.26455" lon="-1.73103">
        <ele>70.4</ele>
        <time>2014-10-12T09:10:13Z</time>
      </trkpt>
      <trkpt lat="47.26453" lon="-1.73096">
        <ele>70.2</ele>
        <time>2014-10-12T09:10:14Z</time>
      </trkpt>
      <trkpt lat="47.26452" lon="-1.7309">
        <ele>70.1</ele>
        <time>2014-10-12T09:10:15Z</time>
      </trkpt>
      <trkpt lat="47.26451" lon="-1.73084">
        <ele>69.9</ele>
        <time>2014-10-12T09:10:16Z</time>
      </trkpt>
      <trkpt lat="47.26449" lon="-1.73078">
        <ele>69.8</ele>
        <time>2014-10-12T09:10:17Z</time>
      </trkpt>
      <trkpt lat="47.26447" lon="-1.73073">
        <ele>69.6</ele>
        <time>2014-10-12T09:10:18Z</time>
      </trkpt>
      <trkpt lat="47.26444" lon="-1.73067">
        <ele>69.5</ele>
        <time>2014-10-12T09:10:19Z</time>
      </trkpt>
      <trkpt lat="47.26442" lon="-1.73062">
        <ele>69.4</ele>
        <time>2014-10-12T09:10:20Z</time>
      </trkpt>
      <trkpt lat="47.2644" lon="-1.73057">
        <ele>69.3</ele>
        <time>2014-10-12T09:10:21Z</time>
      </trkpt>
      <trkpt lat="47.26438" lon="-1.73052">
        <ele>69.2</ele>
        <time>2014-10-12T09:10:22Z</time>
      </trkpt>
      <trkpt lat="47.26436" lon="-1.73048">
        <ele>69.1</ele>
        <time>2014-10-12T09:10:23Z</time>
      </trkpt>
      <trkpt lat="47.26434" lon="-1.73043">
        <ele>69</ele>
        <time>2014-10-12T09:10:24Z</time>
      </trkpt>
      <trkpt lat="47.26432" lon="-1.73038">
        <ele>69</ele>
        <time>2014-10-12T09:10:25Z</time>
      </trkpt>
      <trkpt lat="47.2643" lon="-1.73033">
        <ele>69.1</ele>
        <time>2014-10-12T09:10:26Z</time>
      </trkpt>
      <trkpt lat="47.26429" lon="-1.73028">
        <ele>69.2</ele>
        <time>2014-10-12T09:10:27Z</time>
      </trkpt>
      <trkpt lat="47.26427" lon="-1.73023">
        <ele>69.2</ele>
        <time>2014-10-12T09:10:28Z</time>
      </trkpt>
      <trkpt lat="47.26425" lon="-1.73019">
        <ele>69.3</ele>
        <time>2014-10-12T09:10:29Z</time>
      </trkpt>
      <trkpt lat="47.26423" lon="-1.73016">
        <ele>69.3</ele>
        <time>2014-10-12T09:10:30Z</time>
      </trkpt>
      <trkpt lat="47.26422" lon="-1.73011">
        <ele>69.4</ele>
        <time>2014-10-12T09:10:31Z</time>
      </trkpt>
      <trkpt lat="47.2642" lon="-1.73005">
        <ele>69.4</ele>
        <time>2014-10-12T09:10:32Z</time>
      </trkpt>
      <trkpt lat="47.26419" lon="-1.73">
        <ele>69.5</ele>
        <time>2014-10-12T09:10:33Z</time>
      </trkpt>
      <trkpt lat="47.26418" lon="-1.72995">
        <ele>69.6</ele>
        <time>2014-10-12T09:10:34Z</time>
      </trkpt>
      <trkpt lat="47.26417" lon="-1.7299">
        <ele>69.6</ele>
        <time>2014-10-12T09:10:35Z</time>
      </trkpt>
      <trkpt lat="47.26417" lon="-1.72984">
        <ele>69.7</ele>
        <time>2014-10-12T09:10:36Z</time>
      </trkpt>
      <trkpt lat="47.26416" lon="-1.72979">
        <ele>69.8</ele>
        <time>2014-10-12T09:10:37Z</time>
      </trkpt>
      <trkpt lat="47.26416" lon="-1.72974">
        <ele>69.8</ele>
        <time>2014-10-12T09:10:38Z</time>
      </trkpt>
      <trkpt lat="47.26415" lon="-1.72968">
        <ele>69.9</ele>
        <time>2014-10-12T09:10:39Z</time>
      </trkpt>
      <trkpt lat="47.26416" lon="-1.72963">
        <ele>69.9</ele>
        <time>2014-10-12T09:10:40Z</time>
      </trkpt>
      <trkpt lat="47.26417" lon="-1.72958">
        <ele>70</ele>
        <time>2014-10-12T09:10:41Z</time>
      </trkpt>
      <trkpt lat="47.26419" lon="-1.72954">
        <ele>70.1</ele>
        <time>2014-10-12T09:10:42Z</time>
      </trkpt>
      <trkpt lat="47.26421" lon="-1.72951">
        <ele>70.2</ele>
        <time>2014-10-12T09:10:43Z</time>
      </trkpt>
      <trkpt lat="47.26424" lon="-1.72949">
        <ele>70.3</ele>
        <time>2014-10-12T09:10:44Z</time>
      </trkpt>
      <trkpt lat="47.26427" lon="-1.72946">
        <ele>70.3</ele>
        <time>2014-10-12T09:10:45Z</time>
      </trkpt>
      <trkpt lat="47.2643" lon="-1.72942">
        <ele>70.4</ele>
        <time>2014-10-12T09:10:46Z</time>
      </trkpt>
      <trkpt lat="47.26433" lon="-1.72939">
        <ele>70.5</ele>
        <time>2014-10-12T09:10:47Z</time>
      </trkpt>
      <trkpt lat="47.26435" lon="-1.72936">
        <ele>70.7</ele>
        <time>2014-10-12T09:10:48Z</time>
      </trkpt>
      <trkpt lat="47.26437" lon="-1.72933">
        <ele>70.8</ele>
        <time>2014-10-12T09:10:49Z</time>
      </trkpt>
      <trkpt lat="47.2644" lon="-1.72929">
        <ele>70.9</ele>
        <time>2014-10-12T09:10:50Z</time>
      </trkpt>
      <trkpt lat="47.26442" lon="-1.72926">
        <ele>71</ele>
        <time>2014-10-12T09:10:51Z</time>
      </trkpt>
      <trkpt lat="47.26445" lon="-1.72922">
        <ele>71.2</ele>
        <time>2014-10-12T09:10:52Z</time>
      </trkpt>
      <trkpt lat="47.26447" lon="-1.72919">
        <ele>71.3</ele>
        <time>2014-10-12T09:10:53Z</time>
      </trkpt>
      <trkpt lat="47.2645" lon="-1.72916">
        <ele>71.4</ele>
        <time>2014-10-12T09:10:54Z</time>
      </trkpt>
      <trkpt lat="47.26452" lon="-1.72913">
        <ele>71.6</ele>
        <time>2014-10-12T09:10:55Z</time>
      </trkpt>
      <trkpt lat="47.26455" lon="-1.7291">
        <ele>71.7</ele>
        <time>2014-10-12T09:10:56Z</time>
      </trkpt>
      <trkpt lat="47.26458" lon="-1.72907">
        <ele>71.8</ele>
        <time>2014-10-12T09:10:57Z</time>
      </trkpt>
      <trkpt lat="47.2646" lon="-1.72904">
        <ele>72</ele>
        <time>2014-10-12T09:10:58Z</time>
      </trkpt>
      <trkpt lat="47.26463" lon="-1.72901">
        <ele>72.2</ele>
        <time>2014-10-12T09:10:59Z</time>
      </trkpt>
      <trkpt lat="47.26465" lon="-1.72898">
        <ele>72.4</ele>
        <time>2014-10-12T09:11:00Z</time>
      </trkpt>
      <trkpt lat="47.26468" lon="-1.72895">
        <ele>72.5</ele>
        <time>2014-10-12T09:11:01Z</time>
      </trkpt>
      <trkpt lat="47.2647" lon="-1.72892">
        <ele>72.7</ele>
        <time>2014-10-12T09:11:02Z</time>
      </trkpt>
      <trkpt lat="47.26473" lon="-1.72889">
        <ele>72.9</ele>
        <time>2014-10-12T09:11:03Z</time>
      </trkpt>
      <trkpt lat="47.26476" lon="-1.72885">
        <ele>73.1</ele>
        <time>2014-10-12T09:11:04Z</time>
      </trkpt>
      <trkpt lat="47.26478" lon="-1.72882">
        <ele>73.2</ele>
        <time>2014-10-12T09:11:05Z</time>
      </trkpt>
      <trkpt lat="47.26481" lon="-1.72879">
        <ele>73.4</ele>
        <time>2014-10-12T09:11:06Z</time>
      </trkpt>
      <trkpt lat="47.26483" lon="-1.72876">
        <ele>73.6</ele>
        <time>2014-10-12T09:11:07Z</time>
      </trkpt>
      <trkpt lat="47.26486" lon="-1.72873">
        <ele>73.7</ele>
        <time>2014-10-12T09:11:08Z</time>
      </trkpt>
      <trkpt lat="47.26488" lon="-1.7287">
        <ele>73.7</ele>
        <time>2014-10-12T09:11:09Z</time>
      </trkpt>
      <trkpt lat="47.26491" lon="-1.72867">
        <ele>73.8</ele>
        <time>2014-10-12T09:11:10Z</time>
      </trkpt>
      <trkpt lat="47.26493" lon="-1.72863">
        <ele>73.8</ele>
        <time>2014-10-12T09:11:11Z</time>
      </trkpt>
      <trkpt lat="47.26496" lon="-1.7286">
        <ele>73.9</ele>
        <time>2014-10-12T09:11:12Z</time>
      </trkpt>
      <trkpt lat="47.26498" lon="-1.72857">
        <ele>74</ele>
        <time>2014-10-12T09:11:13Z</time>
      </trkpt>
      <trkpt lat="47.26501" lon="-1.72853">
        <ele>74</ele>
        <time>2014-10-12T09:11:14Z</time>
      </trkpt>
      <trkpt lat="47.26505" lon="-1.7285">
        <ele>74.1</ele>
        <time>2014-10-12T09:11:15Z</time>
      </trkpt>
      <trkpt lat="47.26508" lon="-1.72847">
        <ele>74.2</ele>
        <time>2014-10-12T09:11:16Z</time>
      </trkpt>
      <trkpt lat="47.2651" lon="-1.72844">
        <ele>74.2</ele>
        <time>2014-10-12T09:11:17Z</time>
      </trkpt>
      <trkpt lat="47.26513" lon="-1.7284">
        <ele>74.3</ele>
        <time>2014-10-12T09:11:18Z</time>
      </trkpt>
      <trkpt lat="47.26516" lon="-1.72837">
        <ele>74.4</ele>
        <time>2014-10-12T09:11:19Z</time>
      </trkpt>
      <trkpt lat="47.26519" lon="-1.72834">
        <ele>74.4</ele>
        <time>2014-10-12T09:11:20Z</time>
      </trkpt>
      <trkpt lat="47.26521" lon="-1.72831">
        <ele>74.5</ele>
        <time>2014-10-12T09:11:21Z</time>
      </trkpt>
      <trkpt lat="47.26524" lon="-1.72828">
        <ele>74.6</ele>
        <time>2014-10-12T09:11:22Z</time>
      </trkpt>
      <trkpt lat="47.26526" lon="-1.72825">
        <ele>74.6</ele>
        <time>2014-10-12T09:11:23Z</time>
      </trkpt>
      <trkpt lat="47.26529" lon="-1.72821">
        <ele>74.7</ele>
        <time>2014-10-12T09:11:24Z</time>
      </trkpt>
      <trkpt lat="47.26532" lon="-1.72818">
        <ele>74.8</ele>
        <time>2014-10-12T09:11:25Z</time>
      </trkpt>
      <trkpt lat="47.26534" lon="-1.72815">
        <ele>74.8</ele>
        <time>2014-10-12T09:11:26Z</time>
      </trkpt>
      <trkpt lat="47.26536" lon="-1.72813">
        <ele>74.9</ele>
        <time>2014-10-12T09:11:27Z</time>
      </trkpt>
      <trkpt lat="47.26539" lon="-1.7281">
        <ele>74.9</ele>
        <time>2014-10-12T09:11:28Z</time>
      </trkpt>
      <trkpt lat="47.26541" lon="-1.72807">
        <ele>75</ele>
        <time>2014-10-12T09:11:29Z</time>
      </trkpt>
      <trkpt lat="47.26543" lon="-1.72804">
        <ele>75</ele>
        <time>2014-10-12T09:11:30Z</time>
      </trkpt>
      <trkpt lat="47.26546" lon="-1.72801">
        <ele>75.1</ele>
        <time>2014-10-12T09:11:31Z</time>
      </trkpt>
      <trkpt lat="47.26548" lon="-1.72799">
        <ele>75.1</ele>
        <time>2014-10-12T09:11:32Z</time>
      </trkpt>
      <trkpt lat="47.26552" lon="-1.72793">
        <ele>75.1</ele>
        <time>2014-10-12T09:11:34Z</time>
      </trkpt>
      <trkpt lat="47.26554" lon="-1.7279">
        <ele>75.2</ele>
        <time>2014-10-12T09:11:35Z</time>
      </trkpt>
      <trkpt lat="47.26556" lon="-1.72786">
        <ele>75.2</ele>
        <time>2014-10-12T09:11:36Z</time>
      </trkpt>
      <trkpt lat="47.26556" lon="-1.72782">
        <ele>75.2</ele>
        <time>2014-10-12T09:11:37Z</time>
      </trkpt>
      <trkpt lat="47.26555" lon="-1.72778">
        <ele>75.2</ele>
        <time>2014-10-12T09:11:38Z</time>
      </trkpt>
      <trkpt lat="47.26554" lon="-1.7277">
        <ele>75.1</ele>
        <time>2014-10-12T09:11:40Z</time>
      </trkpt>
      <trkpt lat="47.26553" lon="-1.72767">
        <ele>75.1</ele>
        <time>2014-10-12T09:11:41Z</time>
      </trkpt>
      <trkpt lat="47.26551" lon="-1.72762">
        <ele>75.1</ele>
        <time>2014-10-12T09:11:42Z</time>
      </trkpt>
      <trkpt lat="47.2655" lon="-1.72758">
        <ele>75.1</ele>
        <time>2014-10-12T09:11:43Z</time>
      </trkpt>
      <trkpt lat="47.26549" lon="-1.72754">
        <ele>75.1</ele>
        <time>2014-10-12T09:11:44Z</time>
      </trkpt>
      <trkpt lat="47.26547" lon="-1.72749">
        <ele>75.1</ele>
        <time>2014-10-12T09:11:45Z</time>
      </trkpt>
      <trkpt lat="47.26546" lon="-1.72743">
        <ele>75</ele>
        <time>2014-10-12T09:11:46Z</time>
      </trkpt>
      <trkpt lat="47.26545" lon="-1.72738">
        <ele>75</ele>
        <time>2014-10-12T09:11:47Z</time>
      </trkpt>
      <trkpt lat="47.26543" lon="-1.72733">
        <ele>75</ele>
        <time>2014-10-12T09:11:48Z</time>
      </trkpt>
      <trkpt lat="47.26542" lon="-1.72728">
        <ele>75</ele>
        <time>2014-10-12T09:11:49Z</time>
      </trkpt>
      <trkpt lat="47.26541" lon="-1.72723">
        <ele>75</ele>
        <time>2014-10-12T09:11:50Z</time>
      </trkpt>
      <trkpt lat="47.2654" lon="-1.72718">
        <ele>75</ele>
        <time>2014-10-12T09:11:51Z</time>
      </trkpt>
      <trkpt lat="47.26539" lon="-1.72712">
        <ele>75</ele>
        <time>2014-10-12T09:11:52Z</time>
      </trkpt>
      <trkpt lat="47.26538" lon="-1.72706">
        <ele>74.9</ele>
        <time>2014-10-12T09:11:53Z</time>
      </trkpt>
      <trkpt lat="47.26537" lon="-1.727">
        <ele>74.9</ele>
        <time>2014-10-12T09:11:54Z</time>
      </trkpt>
      <trkpt lat="47.26536" lon="-1.72694">
        <ele>74.8</ele>
        <time>2014-10-12T09:11:55Z</time>
      </trkpt>
      <trkpt lat="47.26535" lon="-1.72689">
        <ele>74.7</ele>
        <time>2014-10-12T09:11:56Z</time>
      </trkpt>
      <trkpt lat="47.26534" lon="-1.72683">
        <ele>74.7</ele>
        <time>2014-10-12T09:11:57Z</time>
      </trkpt>
      <trkpt lat="47.26533" lon="-1.72677">
        <ele>74.6</ele>
        <time>2014-10-12T09:11:58Z</time>
      </trkpt>
      <trkpt lat="47.26531" lon="-1.72671">
        <ele>74.5</ele>
        <time>2014-10-12T09:11:59Z</time>
      </trkpt>
      <trkpt lat="47.2653" lon="-1.72666">
        <ele>74.5</ele>
        <time>2014-10-12T09:12:00Z</time>
      </trkpt>
      <trkpt lat="47.26528" lon="-1.7266">
        <ele>74.4</ele>
        <time>2014-10-12T09:12:01Z</time>
      </trkpt>
      <trkpt lat="47.26526" lon="-1.72655">
        <ele>74.4</ele>
        <time>2014-10-12T09:12:02Z</time>
      </trkpt>
      <trkpt lat="47.26524" lon="-1.72649">
        <ele>74.4</ele>
        <time>2014-10-12T09:12:03Z</time>
      </trkpt>
      <trkpt lat="47.26522" lon="-1.72643">
        <ele>74.4</ele>
        <time>2014-10-12T09:12:04Z</time>
      </trkpt>
      <trkpt lat="47.26519" lon="-1.72638">
        <ele>74.3</ele>
        <time>2014-10-12T09:12:05Z</time>
      </trkpt>
      <trkpt lat="47.26516" lon="-1.72633">
        <ele>74.3</ele>
        <time>2014-10-12T09:12:06Z</time>
      </trkpt>
      <trkpt lat="47.26513" lon="-1.72628">
        <ele>74.4</ele>
        <time>2014-10-12T09:12:07Z</time>
      </trkpt>
      <trkpt lat="47.2651" lon="-1.72623">
        <ele>74.4</ele>
        <time>2014-10-12T09:12:08Z</time>
      </trkpt>
      <trkpt lat="47.26507" lon="-1.72618">
        <ele>74.5</ele>
        <time>2014-10-12T09:12:09Z</time>
      </trkpt>
      <trkpt lat="47.26505" lon="-1.72613">
        <ele>74.5</ele>
        <time>2014-10-12T09:12:10Z</time>
      </trkpt>
      <trkpt lat="47.26502" lon="-1.72608">
        <ele>74.6</ele>
        <time>2014-10-12T09:12:11Z</time>
      </trkpt>
      <trkpt lat="47.26499" lon="-1.72603">
        <ele>74.6</ele>
        <time>2014-10-12T09:12:12Z</time>
      </trkpt>
      <trkpt lat="47.26495" lon="-1.72598">
        <ele>74.7</ele>
        <time>2014-10-12T09:12:13Z</time>
      </trkpt>
      <trkpt lat="47.26493" lon="-1.72593">
        <ele>74.7</ele>
        <time>2014-10-12T09:12:14Z</time>
      </trkpt>
      <trkpt lat="47.2649" lon="-1.72587">
        <ele>74.8</ele>
        <time>2014-10-12T09:12:15Z</time>
      </trkpt>
      <trkpt lat="47.26487" lon="-1.72581">
        <ele>74.8</ele>
        <time>2014-10-12T09:12:16Z</time>
      </trkpt>
      <trkpt lat="47.26485" lon="-1.72575">
        <ele>74.9</ele>
        <time>2014-10-12T09:12:17Z</time>
      </trkpt>
      <trkpt lat="47.26482" lon="-1.72569">
        <ele>74.9</ele>
        <time>2014-10-12T09:12:18Z</time>
      </trkpt>
      <trkpt lat="47.2648" lon="-1.72563">
        <ele>74.9</ele>
        <time>2014-10-12T09:12:19Z</time>
      </trkpt>
      <trkpt lat="47.26477" lon="-1.72558">
        <ele>75</ele>
        <time>2014-10-12T09:12:20Z</time>
      </trkpt>
      <trkpt lat="47.26475" lon="-1.72553">
        <ele>75</ele>
        <time>2014-10-12T09:12:21Z</time>
      </trkpt>
      <trkpt lat="47.26472" lon="-1.72547">
        <ele>75</ele>
        <time>2014-10-12T09:12:22Z</time>
      </trkpt>
      <trkpt lat="47.26469" lon="-1.72541">
        <ele>75</ele>
        <time>2014-10-12T09:12:23Z</time>
      </trkpt>
      <trkpt lat="47.26467" lon="-1.72535">
        <ele>74.8</ele>
        <time>2014-10-12T09:12:24Z</time>
      </trkpt>
      <trkpt lat="47.26464" lon="-1.7253">
        <ele>74.7</ele>
        <time>2014-10-12T09:12:25Z</time>
      </trkpt>
      <trkpt lat="47.26462" lon="-1.72524">
        <ele>74.6</ele>
        <time>2014-10-12T09:12:26Z</time>
      </trkpt>
      <trkpt lat="47.2646" lon="-1.72518">
        <ele>74.4</ele>
        <time>2014-10-12T09:12:27Z</time>
      </trkpt>
      <trkpt lat="47.26457" lon="-1.72513">
        <ele>74.3</ele>
        <time>2014-10-12T09:12:28Z</time>
      </trkpt>
      <trkpt lat="47.26455" lon="-1.72507">
        <ele>74.2</ele>
        <time>2014-10-12T09:12:29Z</time>
      </trkpt>
      <trkpt lat="47.26453" lon="-1.72501">
        <ele>74.1</ele>
        <time>2014-10-12T09:12:30Z</time>
      </trkpt>
      <trkpt lat="47.2645" lon="-1.72496">
        <ele>74</ele>
        <time>2014-10-12T09:12:31Z</time>
      </trkpt>
      <trkpt lat="47.26448" lon="-1.7249">
        <ele>73.9</ele>
        <time>2014-10-12T09:12:32Z</time>
      </trkpt>
      <trkpt lat="47.26445" lon="-1.72485">
        <ele>73.9</ele>
        <time>2014-10-12T09:12:33Z</time>
      </trkpt>
      <trkpt lat="47.26443" lon="-1.7248">
        <ele>73.8</ele>
        <time>2014-10-12T09:12:34Z</time>
      </trkpt>
      <trkpt lat="47.2644" lon="-1.72476">
        <ele>73.8</ele>
        <time>2014-10-12T09:12:35Z</time>
      </trkpt>
      <trkpt lat="47.26438" lon="-1.72471">
        <ele>73.7</ele>
        <time>2014-10-12T09:12:36Z</time>
      </trkpt>
      <trkpt lat="47.26437" lon="-1.72467">
        <ele>73.7</ele>
        <time>2014-10-12T09:12:37Z</time>
      </trkpt>
      <trkpt lat="47.26438" lon="-1.72462">
        <ele>73.6</ele>
        <time>2014-10-12T09:12:38Z</time>
      </trkpt>
      <trkpt lat="47.2644" lon="-1.72457">
        <ele>73.4</ele>
        <time>2014-10-12T09:12:39Z</time>
      </trkpt>
      <trkpt lat="47.26443" lon="-1.72453">
        <ele>73.3</ele>
        <time>2014-10-12T09:12:40Z</time>
      </trkpt>
      <trkpt lat="47.26447" lon="-1.72449">
        <ele>73.2</ele>
        <time>2014-10-12T09:12:41Z</time>
      </trkpt>
      <trkpt lat="47.2645" lon="-1.72446">
        <ele>73.2</ele>
        <time>2014-10-12T09:12:42Z</time>
      </trkpt>
      <trkpt lat="47.26452" lon="-1.72442">
        <ele>73.1</ele>
        <time>2014-10-12T09:12:43Z</time>
      </trkpt>
      <trkpt lat="47.26453" lon="-1.72437">
        <ele>73.1</ele>
        <time>2014-10-12T09:12:44Z</time>
      </trkpt>
      <trkpt lat="47.26453" lon="-1.72432">
        <ele>73.1</ele>
        <time>2014-10-12T09:12:45Z</time>
      </trkpt>
      <trkpt lat="47.26451" lon="-1.72426">
        <ele>73.1</ele>
        <time>2014-10-12T09:12:46Z</time>
      </trkpt>
      <trkpt lat="47.2645" lon="-1.72421">
        <ele>73.1</ele>
        <time>2014-10-12T09:12:47Z</time>
      </trkpt>
      <trkpt lat="47.26448" lon="-1.72416">
        <ele>73.1</ele>
        <time>2014-10-12T09:12:48Z</time>
      </trkpt>
      <trkpt lat="47.26447" lon="-1.7241">
        <ele>73.1</ele>
        <time>2014-10-12T09:12:49Z</time>
      </trkpt>
      <trkpt lat="47.26446" lon="-1.72405">
        <ele>73.1</ele>
        <time>2014-10-12T09:12:50Z</time>
      </trkpt>
      <trkpt lat="47.26445" lon="-1.724">
        <ele>73.1</ele>
        <time>2014-10-12T09:12:51Z</time>
      </trkpt>
      <trkpt lat="47.26443" lon="-1.72395">
        <ele>73.1</ele>
        <time>2014-10-12T09:12:52Z</time>
      </trkpt>
      <trkpt lat="47.26442" lon="-1.7239">
        <ele>73.1</ele>
        <time>2014-10-12T09:12:53Z</time>
      </trkpt>
      <trkpt lat="47.26441" lon="-1.72385">
        <ele>73.1</ele>
        <time>2014-10-12T09:12:54Z</time>
      </trkpt>
      <trkpt lat="47.2644" lon="-1.7238">
        <ele>73</ele>
        <time>2014-10-12T09:12:55Z</time>
      </trkpt>
      <trkpt lat="47.26439" lon="-1.72375">
        <ele>73</ele>
        <time>2014-10-12T09:12:56Z</time>
      </trkpt>
      <trkpt lat="47.26438" lon="-1.7237">
        <ele>73</ele>
        <time>2014-10-12T09:12:57Z</time>
      </trkpt>
      <trkpt lat="47.26437" lon="-1.72365">
        <ele>73</ele>
        <time>2014-10-12T09:12:58Z</time>
      </trkpt>
      <trkpt lat="47.26436" lon="-1.7236">
        <ele>73</ele>
        <time>2014-10-12T09:12:59Z</time>
      </trkpt>
      <trkpt lat="47.26435" lon="-1.72355">
        <ele>72.9</ele>
        <time>2014-10-12T09:13:00Z</time>
      </trkpt>
      <trkpt lat="47.26434" lon="-1.72349">
        <ele>72.9</ele>
        <time>2014-10-12T09:13:01Z</time>
      </trkpt>
      <trkpt lat="47.26434" lon="-1.72345">
        <ele>72.9</ele>
        <time>2014-10-12T09:13:02Z</time>
      </trkpt>
      <trkpt lat="47.26434" lon="-1.7234">
        <ele>72.9</ele>
        <time>2014-10-12T09:13:03Z</time>
      </trkpt>
      <trkpt lat="47.26434" lon="-1.72334">
        <ele>72.9</ele>
        <time>2014-10-12T09:13:04Z</time>
      </trkpt>
      <trkpt lat="47.26434" lon="-1.72328">
        <ele>72.8</ele>
        <time>2014-10-12T09:13:05Z</time>
      </trkpt>
      <trkpt lat="47.26434" lon="-1.72322">
        <ele>72.8</ele>
        <time>2014-10-12T09:13:06Z</time>
      </trkpt>
      <trkpt lat="47.26434" lon="-1.72316">
        <ele>72.8</ele>
        <time>2014-10-12T09:13:07Z</time>
      </trkpt>
      <trkpt lat="47.26434" lon="-1.72312">
        <ele>72.8</ele>
        <time>2014-10-12T09:13:08Z</time>
      </trkpt>
      <trkpt lat="47.26434" lon="-1.72307">
        <ele>72.8</ele>
        <time>2014-10-12T09:13:09Z</time>
      </trkpt>
      <trkpt lat="47.26434" lon="-1.72302">
        <ele>72.7</ele>
        <time>2014-10-12T09:13:10Z</time>
      </trkpt>
      <trkpt lat="47.26434" lon="-1.72297">
        <ele>72.7</ele>
        <time>2014-10-12T09:13:11Z</time>
      </trkpt>
      <trkpt lat="47.26433" lon="-1.72293">
        <ele>72.7</ele>
        <time>2014-10-12T09:13:12Z</time>
      </trkpt>
      <trkpt lat="47.2643" lon="-1.72285">
        <ele>72.7</ele>
        <time>2014-10-12T09:13:14Z</time>
      </trkpt>
      <trkpt lat="47.26429" lon="-1.7228">
        <ele>72.6</ele>
        <time>2014-10-12T09:13:15Z</time>
      </trkpt>
      <trkpt lat="47.26428" lon="-1.72276">
        <ele>72.6</ele>
        <time>2014-10-12T09:13:16Z</time>
      </trkpt>
      <trkpt lat="47.26426" lon="-1.72271">
        <ele>72.6</ele>
        <time>2014-10-12T09:13:17Z</time>
      </trkpt>
      <trkpt lat="47.26424" lon="-1.72267">
        <ele>72.6</ele>
        <time>2014-10-12T09:13:18Z</time>
      </trkpt>
      <trkpt lat="47.26422" lon="-1.72264">
        <ele>72.6</ele>
        <time>2014-10-12T09:13:19Z</time>
      </trkpt>
      <trkpt lat="47.2642" lon="-1.72261">
        <ele>72.5</ele>
        <time>2014-10-12T09:13:20Z</time>
      </trkpt>
      <trkpt lat="47.26418" lon="-1.72257">
        <ele>72.5</ele>
        <time>2014-10-12T09:13:21Z</time>
      </trkpt>
      <trkpt lat="47.26415" lon="-1.72253">
        <ele>72.5</ele>
        <time>2014-10-12T09:13:22Z</time>
      </trkpt>
      <trkpt lat="47.26413" lon="-1.72249">
        <ele>72.5</ele>
        <time>2014-10-12T09:13:23Z</time>
      </trkpt>
      <trkpt lat="47.26411" lon="-1.72244">
        <ele>72.4</ele>
        <time>2014-10-12T09:13:24Z</time>
      </trkpt>
      <trkpt lat="47.26409" lon="-1.72241">
        <ele>72.4</ele>
        <time>2014-10-12T09:13:25Z</time>
      </trkpt>
      <trkpt lat="47.26408" lon="-1.72238">
        <ele>72.4</ele>
        <time>2014-10-12T09:13:26Z</time>
      </trkpt>
      <trkpt lat="47.26407" lon="-1.72234">
        <ele>72.4</ele>
        <time>2014-10-12T09:13:27Z</time>
      </trkpt>
      <trkpt lat="47.26405" lon="-1.72231">
        <ele>72.4</ele>
        <time>2014-10-12T09:13:28Z</time>
      </trkpt>
      <trkpt lat="47.26402" lon="-1.72225">
        <ele>72.3</ele>
        <time>2014-10-12T09:13:30Z</time>
      </trkpt>
      <trkpt lat="47.26399" lon="-1.72219">
        <ele>72.3</ele>
        <time>2014-10-12T09:13:32Z</time>
      </trkpt>
      <trkpt lat="47.26396" lon="-1.72214">
        <ele>72.2</ele>
        <time>2014-10-12T09:13:34Z</time>
      </trkpt>
      <trkpt lat="47.26392" lon="-1.72211">
        <ele>72.2</ele>
        <time>2014-10-12T09:13:36Z</time>
      </trkpt>
      <trkpt lat="47.26389" lon="-1.72211">
        <ele>72.2</ele>
        <time>2014-10-12T09:13:38Z</time>
      </trkpt>
      <trkpt lat="47.26385" lon="-1.72208">
        <ele>72.1</ele>
        <time>2014-10-12T09:13:40Z</time>
      </trkpt>
      <trkpt lat="47.26381" lon="-1.72206">
        <ele>72.2</ele>
        <time>2014-10-12T09:13:42Z</time>
      </trkpt>
      <trkpt lat="47.26377" lon="-1.72203">
        <ele>72.3</ele>
        <time>2014-10-12T09:13:44Z</time>
      </trkpt>
      <trkpt lat="47.26374" lon="-1.722">
        <ele>72.4</ele>
        <time>2014-10-12T09:13:45Z</time>
      </trkpt>
      <trkpt lat="47.2637" lon="-1.72195">
        <ele>72.6</ele>
        <time>2014-10-12T09:13:47Z</time>
      </trkpt>
      <trkpt lat="47.26367" lon="-1.72193">
        <ele>72.7</ele>
        <time>2014-10-12T09:13:48Z</time>
      </trkpt>
      <trkpt lat="47.26362" lon="-1.72188">
        <ele>72.9</ele>
        <time>2014-10-12T09:13:50Z</time>
      </trkpt>
      <trkpt lat="47.2636" lon="-1.72185">
        <ele>73.1</ele>
        <time>2014-10-12T09:13:51Z</time>
      </trkpt>
      <trkpt lat="47.26357" lon="-1.72181">
        <ele>73.2</ele>
        <time>2014-10-12T09:13:52Z</time>
      </trkpt>
      <trkpt lat="47.26354" lon="-1.72178">
        <ele>73.4</ele>
        <time>2014-10-12T09:13:53Z</time>
      </trkpt>
      <trkpt lat="47.26351" lon="-1.72172">
        <ele>73.6</ele>
        <time>2014-10-12T09:13:55Z</time>
      </trkpt>
      <trkpt lat="47.26348" lon="-1.72168">
        <ele>73.8</ele>
        <time>2014-10-12T09:13:57Z</time>
      </trkpt>
      <trkpt lat="47.26345" lon="-1.72166">
        <ele>73.8</ele>
        <time>2014-10-12T09:13:58Z</time>
      </trkpt>
      <trkpt lat="47.26341" lon="-1.72164">
        <ele>73.9</ele>
        <time>2014-10-12T09:14:00Z</time>
      </trkpt>
      <trkpt lat="47.26335" lon="-1.72162">
        <ele>73.9</ele>
        <time>2014-10-12T09:14:02Z</time>
      </trkpt>
      <trkpt lat="47.26332" lon="-1.72161">
        <ele>74</ele>
        <time>2014-10-12T09:14:03Z</time>
      </trkpt>
      <trkpt lat="47.2633" lon="-1.72159">
        <ele>74.1</ele>
        <time>2014-10-12T09:14:04Z</time>
      </trkpt>
      <trkpt lat="47.26327" lon="-1.72157">
        <ele>74.1</ele>
        <time>2014-10-12T09:14:05Z</time>
      </trkpt>
      <trkpt lat="47.26324" lon="-1.72156">
        <ele>74.1</ele>
        <time>2014-10-12T09:14:06Z</time>
      </trkpt>
      <trkpt lat="47.2632" lon="-1.72154">
        <ele>74.2</ele>
        <time>2014-10-12T09:14:07Z</time>
      </trkpt>
      <trkpt lat="47.26316" lon="-1.72152">
        <ele>74.2</ele>
        <time>2014-10-12T09:14:08Z</time>
      </trkpt>
      <trkpt lat="47.26311" lon="-1.72147">
        <ele>74.4</ele>
        <time>2014-10-12T09:14:10Z</time>
      </trkpt>
      <trkpt lat="47.26309" lon="-1.72145">
        <ele>74.4</ele>
        <time>2014-10-12T09:14:11Z</time>
      </trkpt>
      <trkpt lat="47.26304" lon="-1.72141">
        <ele>74.5</ele>
        <time>2014-10-12T09:14:13Z</time>
      </trkpt>
      <trkpt lat="47.26301" lon="-1.72138">
        <ele>74.6</ele>
        <time>2014-10-12T09:14:14Z</time>
      </trkpt>
      <trkpt lat="47.26297" lon="-1.72135">
        <ele>74.7</ele>
        <time>2014-10-12T09:14:15Z</time>
      </trkpt>
      <trkpt lat="47.26294" lon="-1.72133">
        <ele>74.8</ele>
        <time>2014-10-12T09:14:16Z</time>
      </trkpt>
      <trkpt lat="47.26291" lon="-1.7213">
        <ele>74.8</ele>
        <time>2014-10-12T09:14:17Z</time>
      </trkpt>
      <trkpt lat="47.26289" lon="-1.72128">
        <ele>74.9</ele>
        <time>2014-10-12T09:14:18Z</time>
      </trkpt>
      <trkpt lat="47.26285" lon="-1.72122">
        <ele>75.1</ele>
        <time>2014-10-12T09:14:20Z</time>
      </trkpt>
      <trkpt lat="47.26283" lon="-1.72119">
        <ele>75.1</ele>
        <time>2014-10-12T09:14:21Z</time>
      </trkpt>
      <trkpt lat="47.26281" lon="-1.72116">
        <ele>75.2</ele>
        <time>2014-10-12T09:14:22Z</time>
      </trkpt>
      <trkpt lat="47.26278" lon="-1.72113">
        <ele>75.2</ele>
        <time>2014-10-12T09:14:23Z</time>
      </trkpt>
      <trkpt lat="47.26276" lon="-1.7211">
        <ele>75.3</ele>
        <time>2014-10-12T09:14:24Z</time>
      </trkpt>
      <trkpt lat="47.26273" lon="-1.72107">
        <ele>75.3</ele>
        <time>2014-10-12T09:14:25Z</time>
      </trkpt>
      <trkpt lat="47.26271" lon="-1.72104">
        <ele>75.4</ele>
        <time>2014-10-12T09:14:26Z</time>
      </trkpt>
      <trkpt lat="47.26268" lon="-1.72101">
        <ele>75.4</ele>
        <time>2014-10-12T09:14:27Z</time>
      </trkpt>
      <trkpt lat="47.26266" lon="-1.72097">
        <ele>75.5</ele>
        <time>2014-10-12T09:14:28Z</time>
      </trkpt>
      <trkpt lat="47.26264" lon="-1.72093">
        <ele>75.5</ele>
        <time>2014-10-12T09:14:29Z</time>
      </trkpt>
      <trkpt lat="47.26262" lon="-1.72089">
        <ele>75.6</ele>
        <time>2014-10-12T09:14:30Z</time>
      </trkpt>
      <trkpt lat="47.2626" lon="-1.72085">
        <ele>75.6</ele>
        <time>2014-10-12T09:14:31Z</time>
      </trkpt>
      <trkpt lat="47.26258" lon="-1.72081">
        <ele>75.6</ele>
        <time>2014-10-12T09:14:32Z</time>
      </trkpt>
      <trkpt lat="47.26256" lon="-1.72077">
        <ele>75.7</ele>
        <time>2014-10-12T09:14:33Z</time>
      </trkpt>
      <trkpt lat="47.26254" lon="-1.72073">
        <ele>75.7</ele>
        <time>2014-10-12T09:14:34Z</time>
      </trkpt>
      <trkpt lat="47.26253" lon="-1.72069">
        <ele>75.7</ele>
        <time>2014-10-12T09:14:35Z</time>
      </trkpt>
      <trkpt lat="47.26251" lon="-1.72065">
        <ele>75.7</ele>
        <time>2014-10-12T09:14:36Z</time>
      </trkpt>
      <trkpt lat="47.26249" lon="-1.72061">
        <ele>75.8</ele>
        <time>2014-10-12T09:14:37Z</time>
      </trkpt>
      <trkpt lat="47.26248" lon="-1.72057">
        <ele>75.8</ele>
        <time>2014-10-12T09:14:38Z</time>
      </trkpt>
      <trkpt lat="47.26246" lon="-1.72053">
        <ele>75.8</ele>
        <time>2014-10-12T09:14:39Z</time>
      </trkpt>
      <trkpt lat="47.26244" lon="-1.72049">
        <ele>75.8</ele>
        <time>2014-10-12T09:14:40Z</time>
      </trkpt>
      <trkpt lat="47.26242" lon="-1.72044">
        <ele>75.8</ele>
        <time>2014-10-12T09:14:41Z</time>
      </trkpt>
      <trkpt lat="47.2624" lon="-1.7204">
        <ele>75.8</ele>
        <time>2014-10-12T09:14:42Z</time>
      </trkpt>
      <trkpt lat="47.26239" lon="-1.72035">
        <ele>75.8</ele>
        <time>2014-10-12T09:14:43Z</time>
      </trkpt>
      <trkpt lat="47.26238" lon="-1.72031">
        <ele>75.7</ele>
        <time>2014-10-12T09:14:44Z</time>
      </trkpt>
      <trkpt lat="47.26237" lon="-1.72023">
        <ele>75.8</ele>
        <time>2014-10-12T09:14:45Z</time>
      </trkpt>
      <trkpt lat="47.26235" lon="-1.72017">
        <ele>75.8</ele>
        <time>2014-10-12T09:14:46Z</time>
      </trkpt>
      <trkpt lat="47.26234" lon="-1.72011">
        <ele>75.8</ele>
        <time>2014-10-12T09:14:47Z</time>
      </trkpt>
      <trkpt lat="47.26232" lon="-1.72006">
        <ele>75.8</ele>
        <time>2014-10-12T09:14:48Z</time>
      </trkpt>
      <trkpt lat="47.26231" lon="-1.72001">
        <ele>75.8</ele>
        <time>2014-10-12T09:14:49Z</time>
      </trkpt>
      <trkpt lat="47.26229" lon="-1.71996">
        <ele>75.8</ele>
        <time>2014-10-12T09:14:50Z</time>
      </trkpt>
      <trkpt lat="47.26228" lon="-1.71991">
        <ele>75.8</ele>
        <time>2014-10-12T09:14:51Z</time>
      </trkpt>
      <trkpt lat="47.26227" lon="-1.71986">
        <ele>75.8</ele>
        <time>2014-10-12T09:14:52Z</time>
      </trkpt>
      <trkpt lat="47.26225" lon="-1.71981">
        <ele>75.8</ele>
        <time>2014-10-12T09:14:53Z</time>
      </trkpt>
      <trkpt lat="47.26223" lon="-1.71977">
        <ele>75.9</ele>
        <time>2014-10-12T09:14:54Z</time>
      </trkpt>
      <trkpt lat="47.26221" lon="-1.71973">
        <ele>75.9</ele>
        <time>2014-10-12T09:14:55Z</time>
      </trkpt>
      <trkpt lat="47.2622" lon="-1.71968">
        <ele>75.9</ele>
        <time>2014-10-12T09:14:56Z</time>
      </trkpt>
      <trkpt lat="47.26218" lon="-1.71963">
        <ele>76</ele>
        <time>2014-10-12T09:14:57Z</time>
      </trkpt>
      <trkpt lat="47.26216" lon="-1.71959">
        <ele>76</ele>
        <time>2014-10-12T09:14:58Z</time>
      </trkpt>
      <trkpt lat="47.26214" lon="-1.71954">
        <ele>76</ele>
        <time>2014-10-12T09:14:59Z</time>
      </trkpt>
      <trkpt lat="47.26212" lon="-1.7195">
        <ele>76</ele>
        <time>2014-10-12T09:15:00Z</time>
      </trkpt>
      <trkpt lat="47.2621" lon="-1.71947">
        <ele>76</ele>
        <time>2014-10-12T09:15:01Z</time>
      </trkpt>
      <trkpt lat="47.26207" lon="-1.71944">
        <ele>75.9</ele>
        <time>2014-10-12T09:15:02Z</time>
      </trkpt>
      <trkpt lat="47.26205" lon="-1.7194">
        <ele>75.8</ele>
        <time>2014-10-12T09:15:03Z</time>
      </trkpt>
      <trkpt lat="47.26202" lon="-1.71936">
        <ele>75.7</ele>
        <time>2014-10-12T09:15:04Z</time>
      </trkpt>
      <trkpt lat="47.262" lon="-1.71932">
        <ele>75.6</ele>
        <time>2014-10-12T09:15:05Z</time>
      </trkpt>
      <trkpt lat="47.26198" lon="-1.71928">
        <ele>75.5</ele>
        <time>2014-10-12T09:15:06Z</time>
      </trkpt>
      <trkpt lat="47.26195" lon="-1.71925">
        <ele>75.4</ele>
        <time>2014-10-12T09:15:07Z</time>
      </trkpt>
      <trkpt lat="47.26192" lon="-1.71923">
        <ele>75.2</ele>
        <time>2014-10-12T09:15:08Z</time>
      </trkpt>
      <trkpt lat="47.26189" lon="-1.7192">
        <ele>75.1</ele>
        <time>2014-10-12T09:15:09Z</time>
      </trkpt>
      <trkpt lat="47.26186" lon="-1.71916">
        <ele>74.9</ele>
        <time>2014-10-12T09:15:10Z</time>
      </trkpt>
      <trkpt lat="47.26182" lon="-1.71913">
        <ele>74.8</ele>
        <time>2014-10-12T09:15:11Z</time>
      </trkpt>
      <trkpt lat="47.2618" lon="-1.7191">
        <ele>74.6</ele>
        <time>2014-10-12T09:15:12Z</time>
      </trkpt>
      <trkpt lat="47.26176" lon="-1.71906">
        <ele>74.5</ele>
        <time>2014-10-12T09:15:13Z</time>
      </trkpt>
      <trkpt lat="47.26174" lon="-1.71902">
        <ele>74.3</ele>
        <time>2014-10-12T09:15:14Z</time>
      </trkpt>
      <trkpt lat="47.26171" lon="-1.71897">
        <ele>74.2</ele>
        <time>2014-10-12T09:15:15Z</time>
      </trkpt>
      <trkpt lat="47.26168" lon="-1.71891">
        <ele>74</ele>
        <time>2014-10-12T09:15:16Z</time>
      </trkpt>
      <trkpt lat="47.26166" lon="-1.71885">
        <ele>73.9</ele>
        <time>2014-10-12T09:15:17Z</time>
      </trkpt>
      <trkpt lat="47.26164" lon="-1.71879">
        <ele>73.9</ele>
        <time>2014-10-12T09:15:18Z</time>
      </trkpt>
      <trkpt lat="47.26163" lon="-1.71872">
        <ele>73.8</ele>
        <time>2014-10-12T09:15:19Z</time>
      </trkpt>
      <trkpt lat="47.26162" lon="-1.71867">
        <ele>73.7</ele>
        <time>2014-10-12T09:15:20Z</time>
      </trkpt>
      <trkpt lat="47.2616" lon="-1.71861">
        <ele>73.6</ele>
        <time>2014-10-12T09:15:21Z</time>
      </trkpt>
      <trkpt lat="47.26159" lon="-1.71856">
        <ele>73.5</ele>
        <time>2014-10-12T09:15:22Z</time>
      </trkpt>
      <trkpt lat="47.26158" lon="-1.7185">
        <ele>73.4</ele>
        <time>2014-10-12T09:15:23Z</time>
      </trkpt>
      <trkpt lat="47.26156" lon="-1.71844">
        <ele>73.4</ele>
        <time>2014-10-12T09:15:24Z</time>
      </trkpt>
      <trkpt lat="47.26155" lon="-1.71839">
        <ele>73.3</ele>
        <time>2014-10-12T09:15:25Z</time>
      </trkpt>
      <trkpt lat="47.26153" lon="-1.71834">
        <ele>73.2</ele>
        <time>2014-10-12T09:15:26Z</time>
      </trkpt>
      <trkpt lat="47.26152" lon="-1.71828">
        <ele>73.1</ele>
        <time>2014-10-12T09:15:27Z</time>
      </trkpt>
      <trkpt lat="47.2615" lon="-1.71824">
        <ele>73</ele>
        <time>2014-10-12T09:15:28Z</time>
      </trkpt>
      <trkpt lat="47.26148" lon="-1.71819">
        <ele>72.9</ele>
        <time>2014-10-12T09:15:29Z</time>
      </trkpt>
      <trkpt lat="47.26146" lon="-1.71815">
        <ele>72.8</ele>
        <time>2014-10-12T09:15:30Z</time>
      </trkpt>
      <trkpt lat="47.26145" lon="-1.71811">
        <ele>72.8</ele>
        <time>2014-10-12T09:15:31Z</time>
      </trkpt>
      <trkpt lat="47.26144" lon="-1.71807">
        <ele>72.7</ele>
        <time>2014-10-12T09:15:32Z</time>
      </trkpt>
      <trkpt lat="47.26142" lon="-1.71804">
        <ele>72.6</ele>
        <time>2014-10-12T09:15:34Z</time>
      </trkpt>
      <trkpt lat="47.26144" lon="-1.71797">
        <ele>72.7</ele>
        <time>2014-10-12T09:15:38Z</time>
      </trkpt>
      <trkpt lat="47.26147" lon="-1.71792">
        <ele>72.8</ele>
        <time>2014-10-12T09:15:40Z</time>
      </trkpt>
      <trkpt lat="47.26149" lon="-1.7179">
        <ele>72.8</ele>
        <time>2014-10-12T09:15:41Z</time>
      </trkpt>
      <trkpt lat="47.26152" lon="-1.71788">
        <ele>72.9</ele>
        <time>2014-10-12T09:15:42Z</time>
      </trkpt>
      <trkpt lat="47.26155" lon="-1.71786">
        <ele>73</ele>
        <time>2014-10-12T09:15:43Z</time>
      </trkpt>
      <trkpt lat="47.26159" lon="-1.71784">
        <ele>73.1</ele>
        <time>2014-10-12T09:15:44Z</time>
      </trkpt>
      <trkpt lat="47.26162" lon="-1.71782">
        <ele>73.2</ele>
        <time>2014-10-12T09:15:45Z</time>
      </trkpt>
      <trkpt lat="47.26165" lon="-1.71779">
        <ele>73.3</ele>
        <time>2014-10-12T09:15:46Z</time>
      </trkpt>
      <trkpt lat="47.26168" lon="-1.71776">
        <ele>73.4</ele>
        <time>2014-10-12T09:15:47Z</time>
      </trkpt>
      <trkpt lat="47.26171" lon="-1.71771">
        <ele>73.4</ele>
        <time>2014-10-12T09:15:48Z</time>
      </trkpt>
      <trkpt lat="47.26172" lon="-1.71766">
        <ele>73.4</ele>
        <time>2014-10-12T09:15:49Z</time>
      </trkpt>
      <trkpt lat="47.26171" lon="-1.7176">
        <ele>73.3</ele>
        <time>2014-10-12T09:15:50Z</time>
      </trkpt>
      <trkpt lat="47.26169" lon="-1.71755">
        <ele>73.2</ele>
        <time>2014-10-12T09:15:51Z</time>
      </trkpt>
      <trkpt lat="47.26167" lon="-1.7175">
        <ele>73</ele>
        <time>2014-10-12T09:15:52Z</time>
      </trkpt>
      <trkpt lat="47.26165" lon="-1.71745">
        <ele>72.9</ele>
        <time>2014-10-12T09:15:53Z</time>
      </trkpt>
      <trkpt lat="47.26163" lon="-1.7174">
        <ele>72.7</ele>
        <time>2014-10-12T09:15:54Z</time>
      </trkpt>
      <trkpt lat="47.26161" lon="-1.71735">
        <ele>72.6</ele>
        <time>2014-10-12T09:15:55Z</time>
      </trkpt>
      <trkpt lat="47.26159" lon="-1.7173">
        <ele>72.5</ele>
        <time>2014-10-12T09:15:56Z</time>
      </trkpt>
      <trkpt lat="47.26158" lon="-1.71725">
        <ele>72.4</ele>
        <time>2014-10-12T09:15:57Z</time>
      </trkpt>
      <trkpt lat="47.26156" lon="-1.7172">
        <ele>72.2</ele>
        <time>2014-10-12T09:15:58Z</time>
      </trkpt>
      <trkpt lat="47.26154" lon="-1.71715">
        <ele>72.1</ele>
        <time>2014-10-12T09:15:59Z</time>
      </trkpt>
      <trkpt lat="47.26153" lon="-1.71709">
        <ele>72</ele>
        <time>2014-10-12T09:16:00Z</time>
      </trkpt>
      <trkpt lat="47.26151" lon="-1.71704">
        <ele>71.9</ele>
        <time>2014-10-12T09:16:01Z</time>
      </trkpt>
      <trkpt lat="47.26149" lon="-1.71698">
        <ele>71.9</ele>
        <time>2014-10-12T09:16:02Z</time>
      </trkpt>
      <trkpt lat="47.26147" lon="-1.71693">
        <ele>71.8</ele>
        <time>2014-10-12T09:16:03Z</time>
      </trkpt>
      <trkpt lat="47.26145" lon="-1.71688">
        <ele>71.7</ele>
        <time>2014-10-12T09:16:04Z</time>
      </trkpt>
      <trkpt lat="47.26143" lon="-1.71682">
        <ele>71.6</ele>
        <time>2014-10-12T09:16:05Z</time>
      </trkpt>
      <trkpt lat="47.26141" lon="-1.71676">
        <ele>71.6</ele>
        <time>2014-10-12T09:16:06Z</time>
      </trkpt>
      <trkpt lat="47.26138" lon="-1.7167">
        <ele>71.5</ele>
        <time>2014-10-12T09:16:07Z</time>
      </trkpt>
      <trkpt lat="47.26136" lon="-1.71665">
        <ele>71.4</ele>
        <time>2014-10-12T09:16:08Z</time>
      </trkpt>
      <trkpt lat="47.26134" lon="-1.71659">
        <ele>71.3</ele>
        <time>2014-10-12T09:16:09Z</time>
      </trkpt>
      <trkpt lat="47.26132" lon="-1.71653">
        <ele>71.3</ele>
        <time>2014-10-12T09:16:10Z</time>
      </trkpt>
      <trkpt lat="47.2613" lon="-1.71647">
        <ele>71.2</ele>
        <time>2014-10-12T09:16:11Z</time>
      </trkpt>
      <trkpt lat="47.26128" lon="-1.71641">
        <ele>71.1</ele>
        <time>2014-10-12T09:16:12Z</time>
      </trkpt>
      <trkpt lat="47.26126" lon="-1.71635">
        <ele>71</ele>
        <time>2014-10-12T09:16:13Z</time>
      </trkpt>
      <trkpt lat="47.26125" lon="-1.71629">
        <ele>71</ele>
        <time>2014-10-12T09:16:14Z</time>
      </trkpt>
      <trkpt lat="47.26124" lon="-1.71622">
        <ele>71</ele>
        <time>2014-10-12T09:16:15Z</time>
      </trkpt>
      <trkpt lat="47.26123" lon="-1.71616">
        <ele>70.9</ele>
        <time>2014-10-12T09:16:16Z</time>
      </trkpt>
      <trkpt lat="47.26122" lon="-1.71609">
        <ele>70.9</ele>
        <time>2014-10-12T09:16:17Z</time>
      </trkpt>
      <trkpt lat="47.26122" lon="-1.71601">
        <ele>70.9</ele>
        <time>2014-10-12T09:16:18Z</time>
      </trkpt>
      <trkpt lat="47.26122" lon="-1.71594">
        <ele>70.9</ele>
        <time>2014-10-12T09:16:19Z</time>
      </trkpt>
      <trkpt lat="47.26123" lon="-1.71588">
        <ele>70.9</ele>
        <time>2014-10-12T09:16:20Z</time>
      </trkpt>
      <trkpt lat="47.26123" lon="-1.71582">
        <ele>70.9</ele>
        <time>2014-10-12T09:16:21Z</time>
      </trkpt>
      <trkpt lat="47.26124" lon="-1.71577">
        <ele>71</ele>
        <time>2014-10-12T09:16:22Z</time>
      </trkpt>
      <trkpt lat="47.26126" lon="-1.71572">
        <ele>71</ele>
        <time>2014-10-12T09:16:23Z</time>
      </trkpt>
      <trkpt lat="47.26128" lon="-1.71568">
        <ele>71.1</ele>
        <time>2014-10-12T09:16:24Z</time>
      </trkpt>
      <trkpt lat="47.26131" lon="-1.71565">
        <ele>71.2</ele>
        <time>2014-10-12T09:16:25Z</time>
      </trkpt>
      <trkpt lat="47.26133" lon="-1.71561">
        <ele>71.3</ele>
        <time>2014-10-12T09:16:26Z</time>
      </trkpt>
      <trkpt lat="47.26136" lon="-1.71557">
        <ele>71.4</ele>
        <time>2014-10-12T09:16:27Z</time>
      </trkpt>
      <trkpt lat="47.26139" lon="-1.71553">
        <ele>71.5</ele>
        <time>2014-10-12T09:16:28Z</time>
      </trkpt>
      <trkpt lat="47.26142" lon="-1.71549">
        <ele>71.6</ele>
        <time>2014-10-12T09:16:29Z</time>
      </trkpt>
      <trkpt lat="47.26146" lon="-1.71546">
        <ele>71.7</ele>
        <time>2014-10-12T09:16:30Z</time>
      </trkpt>
      <trkpt lat="47.26148" lon="-1.71543">
        <ele>71.8</ele>
        <time>2014-10-12T09:16:31Z</time>
      </trkpt>
      <trkpt lat="47.26151" lon="-1.71539">
        <ele>72</ele>
        <time>2014-10-12T09:16:32Z</time>
      </trkpt>
      <trkpt lat="47.26154" lon="-1.71535">
        <ele>72.1</ele>
        <time>2014-10-12T09:16:33Z</time>
      </trkpt>
      <trkpt lat="47.26157" lon="-1.71531">
        <ele>72.2</ele>
        <time>2014-10-12T09:16:34Z</time>
      </trkpt>
      <trkpt lat="47.2616" lon="-1.71527">
        <ele>72.3</ele>
        <time>2014-10-12T09:16:35Z</time>
      </trkpt>
      <trkpt lat="47.26163" lon="-1.71523">
        <ele>72.4</ele>
        <time>2014-10-12T09:16:36Z</time>
      </trkpt>
      <trkpt lat="47.26166" lon="-1.71519">
        <ele>72.5</ele>
        <time>2014-10-12T09:16:37Z</time>
      </trkpt>
      <trkpt lat="47.2617" lon="-1.71515">
        <ele>72.6</ele>
        <time>2014-10-12T09:16:38Z</time>
      </trkpt>
      <trkpt lat="47.26173" lon="-1.71511">
        <ele>72.7</ele>
        <time>2014-10-12T09:16:39Z</time>
      </trkpt>
      <trkpt lat="47.26177" lon="-1.71506">
        <ele>72.8</ele>
        <time>2014-10-12T09:16:40Z</time>
      </trkpt>
      <trkpt lat="47.26181" lon="-1.71502">
        <ele>72.9</ele>
        <time>2014-10-12T09:16:41Z</time>
      </trkpt>
      <trkpt lat="47.26185" lon="-1.71497">
        <ele>72.9</ele>
        <time>2014-10-12T09:16:42Z</time>
      </trkpt>
      <trkpt lat="47.26189" lon="-1.71491">
        <ele>73</ele>
        <time>2014-10-12T09:16:43Z</time>
      </trkpt>
      <trkpt lat="47.26193" lon="-1.71486">
        <ele>73</ele>
        <time>2014-10-12T09:16:44Z</time>
      </trkpt>
      <trkpt lat="47.26197" lon="-1.71479">
        <ele>73</ele>
        <time>2014-10-12T09:16:45Z</time>
      </trkpt>
      <trkpt lat="47.26201" lon="-1.71472">
        <ele>73</ele>
        <time>2014-10-12T09:16:46Z</time>
      </trkpt>
      <trkpt lat="47.26204" lon="-1.71465">
        <ele>73</ele>
        <time>2014-10-12T09:16:47Z</time>
      </trkpt>
      <trkpt lat="47.26207" lon="-1.71456">
        <ele>72.9</ele>
        <time>2014-10-12T09:16:48Z</time>
      </trkpt>
      <trkpt lat="47.2621" lon="-1.71447">
        <ele>72.7</ele>
        <time>2014-10-12T09:16:49Z</time>
      </trkpt>
      <trkpt lat="47.26213" lon="-1.71437">
        <ele>72.3</ele>
        <time>2014-10-12T09:16:50Z</time>
      </trkpt>
      <trkpt lat="47.26215" lon="-1.71427">
        <ele>71.9</ele>
        <time>2014-10-12T09:16:51Z</time>
      </trkpt>
      <trkpt lat="47.26217" lon="-1.71417">
        <ele>71.6</ele>
        <time>2014-10-12T09:16:52Z</time>
      </trkpt>
      <trkpt lat="47.26219" lon="-1.71406">
        <ele>71.2</ele>
        <time>2014-10-12T09:16:53Z</time>
      </trkpt>
      <trkpt lat="47.2622" lon="-1.71394">
        <ele>70.9</ele>
        <time>2014-10-12T09:16:54Z</time>
      </trkpt>
      <trkpt lat="47.26222" lon="-1.71383">
        <ele>70.5</ele>
        <time>2014-10-12T09:16:55Z</time>
      </trkpt>
      <trkpt lat="47.26224" lon="-1.71371">
        <ele>70.1</ele>
        <time>2014-10-12T09:16:56Z</time>
      </trkpt>
      <trkpt lat="47.26225" lon="-1.71359">
        <ele>69.6</ele>
        <time>2014-10-12T09:16:57Z</time>
      </trkpt>
      <trkpt lat="47.26227" lon="-1.71347">
        <ele>69.1</ele>
        <time>2014-10-12T09:16:58Z</time>
      </trkpt>
      <trkpt lat="47.26229" lon="-1.71335">
        <ele>68.6</ele>
        <time>2014-10-12T09:16:59Z</time>
      </trkpt>
      <trkpt lat="47.26231" lon="-1.71323">
        <ele>68</ele>
        <time>2014-10-12T09:17:00Z</time>
      </trkpt>
      <trkpt lat="47.26233" lon="-1.71312">
        <ele>67.5</ele>
        <time>2014-10-12T09:17:01Z</time>
      </trkpt>
      <trkpt lat="47.26235" lon="-1.713">
        <ele>67</ele>
        <time>2014-10-12T09:17:02Z</time>
      </trkpt>
      <trkpt lat="47.26237" lon="-1.71289">
        <ele>66.5</ele>
        <time>2014-10-12T09:17:03Z</time>
      </trkpt>
      <trkpt lat="47.26239" lon="-1.71278">
        <ele>66.2</ele>
        <time>2014-10-12T09:17:04Z</time>
      </trkpt>
      <trkpt lat="47.26241" lon="-1.71268">
        <ele>65.9</ele>
        <time>2014-10-12T09:17:05Z</time>
      </trkpt>
      <trkpt lat="47.26243" lon="-1.71258">
        <ele>65.5</ele>
        <time>2014-10-12T09:17:06Z</time>
      </trkpt>
      <trkpt lat="47.26245" lon="-1.71248">
        <ele>65.2</ele>
        <time>2014-10-12T09:17:07Z</time>
      </trkpt>
      <trkpt lat="47.26247" lon="-1.71238">
        <ele>64.9</ele>
        <time>2014-10-12T09:17:08Z</time>
      </trkpt>
      <trkpt lat="47.26249" lon="-1.71228">
        <ele>64.6</ele>
        <time>2014-10-12T09:17:09Z</time>
      </trkpt>
      <trkpt lat="47.2625" lon="-1.71219">
        <ele>64.3</ele>
        <time>2014-10-12T09:17:10Z</time>
      </trkpt>
      <trkpt lat="47.26251" lon="-1.7121">
        <ele>64</ele>
        <time>2014-10-12T09:17:11Z</time>
      </trkpt>
      <trkpt lat="47.26253" lon="-1.71201">
        <ele>63.6</ele>
        <time>2014-10-12T09:17:12Z</time>
      </trkpt>
      <trkpt lat="47.26255" lon="-1.71192">
        <ele>63.3</ele>
        <time>2014-10-12T09:17:13Z</time>
      </trkpt>
      <trkpt lat="47.26256" lon="-1.71184">
        <ele>63</ele>
        <time>2014-10-12T09:17:14Z</time>
      </trkpt>
      <trkpt lat="47.26258" lon="-1.71175">
        <ele>62.7</ele>
        <time>2014-10-12T09:17:15Z</time>
      </trkpt>
      <trkpt lat="47.2626" lon="-1.71166">
        <ele>62.3</ele>
        <time>2014-10-12T09:17:16Z</time>
      </trkpt>
      <trkpt lat="47.26261" lon="-1.71158">
        <ele>62</ele>
        <time>2014-10-12T09:17:17Z</time>
      </trkpt>
      <trkpt lat="47.26263" lon="-1.71149">
        <ele>61.7</ele>
        <time>2014-10-12T09:17:18Z</time>
      </trkpt>
      <trkpt lat="47.26265" lon="-1.71141">
        <ele>61.4</ele>
        <time>2014-10-12T09:17:19Z</time>
      </trkpt>
      <trkpt lat="47.26266" lon="-1.71132">
        <ele>61.1</ele>
        <time>2014-10-12T09:17:20Z</time>
      </trkpt>
      <trkpt lat="47.26267" lon="-1.71124">
        <ele>60.9</ele>
        <time>2014-10-12T09:17:21Z</time>
      </trkpt>
      <trkpt lat="47.26269" lon="-1.71115">
        <ele>60.7</ele>
        <time>2014-10-12T09:17:22Z</time>
      </trkpt>
      <trkpt lat="47.2627" lon="-1.71106">
        <ele>60.5</ele>
        <time>2014-10-12T09:17:23Z</time>
      </trkpt>
      <trkpt lat="47.26272" lon="-1.71098">
        <ele>60.3</ele>
        <time>2014-10-12T09:17:24Z</time>
      </trkpt>
      <trkpt lat="47.26273" lon="-1.71089">
        <ele>60.1</ele>
        <time>2014-10-12T09:17:25Z</time>
      </trkpt>
      <trkpt lat="47.26275" lon="-1.71081">
        <ele>60</ele>
        <time>2014-10-12T09:17:26Z</time>
      </trkpt>
      <trkpt lat="47.26276" lon="-1.71072">
        <ele>59.8</ele>
        <time>2014-10-12T09:17:27Z</time>
      </trkpt>
      <trkpt lat="47.26278" lon="-1.71063">
        <ele>59.6</ele>
        <time>2014-10-12T09:17:28Z</time>
      </trkpt>
      <trkpt lat="47.26279" lon="-1.71053">
        <ele>59.5</ele>
        <time>2014-10-12T09:17:29Z</time>
      </trkpt>
      <trkpt lat="47.26281" lon="-1.71044">
        <ele>59.3</ele>
        <time>2014-10-12T09:17:30Z</time>
      </trkpt>
      <trkpt lat="47.26283" lon="-1.71035">
        <ele>59.1</ele>
        <time>2014-10-12T09:17:31Z</time>
      </trkpt>
      <trkpt lat="47.26284" lon="-1.71026">
        <ele>59</ele>
        <time>2014-10-12T09:17:32Z</time>
      </trkpt>
      <trkpt lat="47.26286" lon="-1.71017">
        <ele>58.8</ele>
        <time>2014-10-12T09:17:33Z</time>
      </trkpt>
      <trkpt lat="47.26288" lon="-1.71008">
        <ele>58.7</ele>
        <time>2014-10-12T09:17:34Z</time>
      </trkpt>
      <trkpt lat="47.26289" lon="-1.70999">
        <ele>58.5</ele>
        <time>2014-10-12T09:17:35Z</time>
      </trkpt>
      <trkpt lat="47.26291" lon="-1.70991">
        <ele>58.4</ele>
        <time>2014-10-12T09:17:36Z</time>
      </trkpt>
      <trkpt lat="47.26292" lon="-1.70983">
        <ele>58.3</ele>
        <time>2014-10-12T09:17:37Z</time>
      </trkpt>
      <trkpt lat="47.26294" lon="-1.70974">
        <ele>58.2</ele>
        <time>2014-10-12T09:17:38Z</time>
      </trkpt>
      <trkpt lat="47.26295" lon="-1.70966">
        <ele>58.1</ele>
        <time>2014-10-12T09:17:39Z</time>
      </trkpt>
      <trkpt lat="47.26296" lon="-1.70959">
        <ele>58.1</ele>
        <time>2014-10-12T09:17:40Z</time>
      </trkpt>
      <trkpt lat="47.26298" lon="-1.70951">
        <ele>57.9</ele>
        <time>2014-10-12T09:17:41Z</time>
      </trkpt>
      <trkpt lat="47.26299" lon="-1.70944">
        <ele>57.8</ele>
        <time>2014-10-12T09:17:42Z</time>
      </trkpt>
      <trkpt lat="47.263" lon="-1.70937">
        <ele>57.7</ele>
        <time>2014-10-12T09:17:43Z</time>
      </trkpt>
      <trkpt lat="47.26301" lon="-1.7093">
        <ele>57.6</ele>
        <time>2014-10-12T09:17:44Z</time>
      </trkpt>
      <trkpt lat="47.26302" lon="-1.70923">
        <ele>57.4</ele>
        <time>2014-10-12T09:17:45Z</time>
      </trkpt>
      <trkpt lat="47.26303" lon="-1.70916">
        <ele>57.3</ele>
        <time>2014-10-12T09:17:46Z</time>
      </trkpt>
      <trkpt lat="47.26304" lon="-1.70909">
        <ele>57.2</ele>
        <time>2014-10-12T09:17:47Z</time>
      </trkpt>
      <trkpt lat="47.26306" lon="-1.70902">
        <ele>57.1</ele>
        <time>2014-10-12T09:17:48Z</time>
      </trkpt>
      <trkpt lat="47.26307" lon="-1.70895">
        <ele>57.1</ele>
        <time>2014-10-12T09:17:49Z</time>
      </trkpt>
      <trkpt lat="47.26308" lon="-1.70889">
        <ele>57</ele>
        <time>2014-10-12T09:17:50Z</time>
      </trkpt>
      <trkpt lat="47.26309" lon="-1.70883">
        <ele>57</ele>
        <time>2014-10-12T09:17:51Z</time>
      </trkpt>
      <trkpt lat="47.2631" lon="-1.70876">
        <ele>56.9</ele>
        <time>2014-10-12T09:17:52Z</time>
      </trkpt>
      <trkpt lat="47.26311" lon="-1.7087">
        <ele>56.9</ele>
        <time>2014-10-12T09:17:53Z</time>
      </trkpt>
      <trkpt lat="47.26312" lon="-1.70863">
        <ele>56.8</ele>
        <time>2014-10-12T09:17:54Z</time>
      </trkpt>
      <trkpt lat="47.26313" lon="-1.70857">
        <ele>56.8</ele>
        <time>2014-10-12T09:17:55Z</time>
      </trkpt>
      <trkpt lat="47.26314" lon="-1.7085">
        <ele>56.7</ele>
        <time>2014-10-12T09:17:56Z</time>
      </trkpt>
      <trkpt lat="47.26315" lon="-1.70843">
        <ele>56.6</ele>
        <time>2014-10-12T09:17:57Z</time>
      </trkpt>
      <trkpt lat="47.26316" lon="-1.70837">
        <ele>56.6</ele>
        <time>2014-10-12T09:17:58Z</time>
      </trkpt>
      <trkpt lat="47.26318" lon="-1.7083">
        <ele>56.5</ele>
        <time>2014-10-12T09:17:59Z</time>
      </trkpt>
      <trkpt lat="47.26319" lon="-1.70823">
        <ele>56.5</ele>
        <time>2014-10-12T09:18:00Z</time>
      </trkpt>
      <trkpt lat="47.2632" lon="-1.70816">
        <ele>56.4</ele>
        <time>2014-10-12T09:18:01Z</time>
      </trkpt>
      <trkpt lat="47.26321" lon="-1.70809">
        <ele>56.3</ele>
        <time>2014-10-12T09:18:02Z</time>
      </trkpt>
      <trkpt lat="47.26323" lon="-1.70801">
        <ele>56.3</ele>
        <time>2014-10-12T09:18:03Z</time>
      </trkpt>
      <trkpt lat="47.26324" lon="-1.70794">
        <ele>56.2</ele>
        <time>2014-10-12T09:18:04Z</time>
      </trkpt>
      <trkpt lat="47.26325" lon="-1.70786">
        <ele>56.2</ele>
        <time>2014-10-12T09:18:05Z</time>
      </trkpt>
      <trkpt lat="47.26326" lon="-1.70778">
        <ele>56.3</ele>
        <time>2014-10-12T09:18:06Z</time>
      </trkpt>
      <trkpt lat="47.26326" lon="-1.7077">
        <ele>56.4</ele>
        <time>2014-10-12T09:18:07Z</time>
      </trkpt>
      <trkpt lat="47.26327" lon="-1.70762">
        <ele>56.5</ele>
        <time>2014-10-12T09:18:08Z</time>
      </trkpt>
      <trkpt lat="47.26327" lon="-1.70753">
        <ele>56.5</ele>
        <time>2014-10-12T09:18:09Z</time>
      </trkpt>
      <trkpt lat="47.26328" lon="-1.70746">
        <ele>56.6</ele>
        <time>2014-10-12T09:18:10Z</time>
      </trkpt>
      <trkpt lat="47.26328" lon="-1.70739">
        <ele>56.7</ele>
        <time>2014-10-12T09:18:11Z</time>
      </trkpt>
      <trkpt lat="47.26327" lon="-1.70733">
        <ele>56.7</ele>
        <time>2014-10-12T09:18:12Z</time>
      </trkpt>
      <trkpt lat="47.26326" lon="-1.70728">
        <ele>56.7</ele>
        <time>2014-10-12T09:18:13Z</time>
      </trkpt>
      <trkpt lat="47.26325" lon="-1.70724">
        <ele>56.7</ele>
        <time>2014-10-12T09:18:14Z</time>
      </trkpt>
      <trkpt lat="47.26325" lon="-1.70718">
        <ele>56.7</ele>
        <time>2014-10-12T09:18:15Z</time>
      </trkpt>
      <trkpt lat="47.26323" lon="-1.70711">
        <ele>56.7</ele>
        <time>2014-10-12T09:18:16Z</time>
      </trkpt>
      <trkpt lat="47.26322" lon="-1.70706">
        <ele>56.8</ele>
        <time>2014-10-12T09:18:17Z</time>
      </trkpt>
      <trkpt lat="47.26321" lon="-1.70701">
        <ele>56.8</ele>
        <time>2014-10-12T09:18:18Z</time>
      </trkpt>
      <trkpt lat="47.26319" lon="-1.70695">
        <ele>56.8</ele>
        <time>2014-10-12T09:18:19Z</time>
      </trkpt>
      <trkpt lat="47.26318" lon="-1.70689">
        <ele>56.9</ele>
        <time>2014-10-12T09:18:20Z</time>
      </trkpt>
      <trkpt lat="47.26317" lon="-1.70683">
        <ele>56.9</ele>
        <time>2014-10-12T09:18:21Z</time>
      </trkpt>
      <trkpt lat="47.26316" lon="-1.70677">
        <ele>57</ele>
        <time>2014-10-12T09:18:22Z</time>
      </trkpt>
      <trkpt lat="47.26314" lon="-1.7067">
        <ele>57</ele>
        <time>2014-10-12T09:18:23Z</time>
      </trkpt>
      <trkpt lat="47.26313" lon="-1.70663">
        <ele>57</ele>
        <time>2014-10-12T09:18:24Z</time>
      </trkpt>
      <trkpt lat="47.26311" lon="-1.70657">
        <ele>57.1</ele>
        <time>2014-10-12T09:18:25Z</time>
      </trkpt>
      <trkpt lat="47.2631" lon="-1.70652">
        <ele>57.1</ele>
        <time>2014-10-12T09:18:26Z</time>
      </trkpt>
      <trkpt lat="47.26309" lon="-1.70648">
        <ele>57.1</ele>
        <time>2014-10-12T09:18:27Z</time>
      </trkpt>
      <trkpt lat="47.26307" lon="-1.70643">
        <ele>57.2</ele>
        <time>2014-10-12T09:18:28Z</time>
      </trkpt>
      <trkpt lat="47.26306" lon="-1.70638">
        <ele>57.2</ele>
        <time>2014-10-12T09:18:29Z</time>
      </trkpt>
      <trkpt lat="47.26305" lon="-1.70632">
        <ele>57.2</ele>
        <time>2014-10-12T09:18:30Z</time>
      </trkpt>
      <trkpt lat="47.26304" lon="-1.70626">
        <ele>57.3</ele>
        <time>2014-10-12T09:18:31Z</time>
      </trkpt>
      <trkpt lat="47.26303" lon="-1.7062">
        <ele>57.4</ele>
        <time>2014-10-12T09:18:32Z</time>
      </trkpt>
      <trkpt lat="47.26302" lon="-1.70615">
        <ele>57.6</ele>
        <time>2014-10-12T09:18:33Z</time>
      </trkpt>
      <trkpt lat="47.263" lon="-1.70609">
        <ele>57.7</ele>
        <time>2014-10-12T09:18:34Z</time>
      </trkpt>
      <trkpt lat="47.26299" lon="-1.70602">
        <ele>58</ele>
        <time>2014-10-12T09:18:35Z</time>
      </trkpt>
      <trkpt lat="47.26297" lon="-1.70594">
        <ele>58.2</ele>
        <time>2014-10-12T09:18:36Z</time>
      </trkpt>
      <trkpt lat="47.26296" lon="-1.70587">
        <ele>58.4</ele>
        <time>2014-10-12T09:18:37Z</time>
      </trkpt>
      <trkpt lat="47.26295" lon="-1.70581">
        <ele>58.6</ele>
        <time>2014-10-12T09:18:38Z</time>
      </trkpt>
      <trkpt lat="47.26293" lon="-1.70574">
        <ele>58.8</ele>
        <time>2014-10-12T09:18:39Z</time>
      </trkpt>
      <trkpt lat="47.26292" lon="-1.70568">
        <ele>59.1</ele>
        <time>2014-10-12T09:18:40Z</time>
      </trkpt>
      <trkpt lat="47.26291" lon="-1.70562">
        <ele>59.2</ele>
        <time>2014-10-12T09:18:41Z</time>
      </trkpt>
      <trkpt lat="47.2629" lon="-1.70557">
        <ele>59.4</ele>
        <time>2014-10-12T09:18:42Z</time>
      </trkpt>
      <trkpt lat="47.26288" lon="-1.70551">
        <ele>59.5</ele>
        <time>2014-10-12T09:18:43Z</time>
      </trkpt>
      <trkpt lat="47.26287" lon="-1.70546">
        <ele>59.7</ele>
        <time>2014-10-12T09:18:44Z</time>
      </trkpt>
      <trkpt lat="47.26285" lon="-1.7054">
        <ele>59.8</ele>
        <time>2014-10-12T09:18:45Z</time>
      </trkpt>
      <trkpt lat="47.26284" lon="-1.70535">
        <ele>59.7</ele>
        <time>2014-10-12T09:18:46Z</time>
      </trkpt>
      <trkpt lat="47.26282" lon="-1.7053">
        <ele>59.6</ele>
        <time>2014-10-12T09:18:47Z</time>
      </trkpt>
      <trkpt lat="47.2628" lon="-1.70524">
        <ele>59.6</ele>
        <time>2014-10-12T09:18:48Z</time>
      </trkpt>
      <trkpt lat="47.26279" lon="-1.70518">
        <ele>59.5</ele>
        <time>2014-10-12T09:18:49Z</time>
      </trkpt>
      <trkpt lat="47.26277" lon="-1.70513">
        <ele>59.4</ele>
        <time>2014-10-12T09:18:50Z</time>
      </trkpt>
      <trkpt lat="47.26275" lon="-1.70507">
        <ele>59.3</ele>
        <time>2014-10-12T09:18:51Z</time>
      </trkpt>
      <trkpt lat="47.26273" lon="-1.70502">
        <ele>59.2</ele>
        <time>2014-10-12T09:18:52Z</time>
      </trkpt>
      <trkpt lat="47.26271" lon="-1.70497">
        <ele>59.1</ele>
        <time>2014-10-12T09:18:53Z</time>
      </trkpt>
      <trkpt lat="47.26269" lon="-1.70492">
        <ele>59</ele>
        <time>2014-10-12T09:18:54Z</time>
      </trkpt>
      <trkpt lat="47.26267" lon="-1.70487">
        <ele>58.9</ele>
        <time>2014-10-12T09:18:55Z</time>
      </trkpt>
      <trkpt lat="47.26264" lon="-1.70482">
        <ele>58.8</ele>
        <time>2014-10-12T09:18:56Z</time>
      </trkpt>
      <trkpt lat="47.26262" lon="-1.70477">
        <ele>58.6</ele>
        <time>2014-10-12T09:18:57Z</time>
      </trkpt>
      <trkpt lat="47.2626" lon="-1.70472">
        <ele>58.5</ele>
        <time>2014-10-12T09:18:58Z</time>
      </trkpt>
      <trkpt lat="47.26257" lon="-1.70467">
        <ele>58.4</ele>
        <time>2014-10-12T09:18:59Z</time>
      </trkpt>
      <trkpt lat="47.26255" lon="-1.70462">
        <ele>58.2</ele>
        <time>2014-10-12T09:19:00Z</time>
      </trkpt>
      <trkpt lat="47.26253" lon="-1.70458">
        <ele>58.1</ele>
        <time>2014-10-12T09:19:01Z</time>
      </trkpt>
      <trkpt lat="47.26251" lon="-1.70453">
        <ele>58</ele>
        <time>2014-10-12T09:19:02Z</time>
      </trkpt>
      <trkpt lat="47.26249" lon="-1.70448">
        <ele>57.9</ele>
        <time>2014-10-12T09:19:03Z</time>
      </trkpt>
      <trkpt lat="47.26247" lon="-1.70444">
        <ele>57.8</ele>
        <time>2014-10-12T09:19:04Z</time>
      </trkpt>
      <trkpt lat="47.26245" lon="-1.7044">
        <ele>57.8</ele>
        <time>2014-10-12T09:19:05Z</time>
      </trkpt>
      <trkpt lat="47.26244" lon="-1.70435">
        <ele>57.7</ele>
        <time>2014-10-12T09:19:06Z</time>
      </trkpt>
      <trkpt lat="47.26241" lon="-1.70431">
        <ele>57.6</ele>
        <time>2014-10-12T09:19:07Z</time>
      </trkpt>
      <trkpt lat="47.26239" lon="-1.70426">
        <ele>57.5</ele>
        <time>2014-10-12T09:19:08Z</time>
      </trkpt>
      <trkpt lat="47.26237" lon="-1.70422">
        <ele>57.4</ele>
        <time>2014-10-12T09:19:09Z</time>
      </trkpt>
      <trkpt lat="47.26236" lon="-1.70418">
        <ele>57.3</ele>
        <time>2014-10-12T09:19:10Z</time>
      </trkpt>
      <trkpt lat="47.26234" lon="-1.70414">
        <ele>57.2</ele>
        <time>2014-10-12T09:19:11Z</time>
      </trkpt>
      <trkpt lat="47.26232" lon="-1.70411">
        <ele>57.1</ele>
        <time>2014-10-12T09:19:12Z</time>
      </trkpt>
      <trkpt lat="47.2623" lon="-1.70407">
        <ele>57</ele>
        <time>2014-10-12T09:19:13Z</time>
      </trkpt>
      <trkpt lat="47.26228" lon="-1.70403">
        <ele>56.9</ele>
        <time>2014-10-12T09:19:14Z</time>
      </trkpt>
      <trkpt lat="47.26226" lon="-1.70399">
        <ele>56.8</ele>
        <time>2014-10-12T09:19:15Z</time>
      </trkpt>
      <trkpt lat="47.26224" lon="-1.70396">
        <ele>56.8</ele>
        <time>2014-10-12T09:19:16Z</time>
      </trkpt>
      <trkpt lat="47.26222" lon="-1.70392">
        <ele>56.7</ele>
        <time>2014-10-12T09:19:17Z</time>
      </trkpt>
      <trkpt lat="47.2622" lon="-1.70389">
        <ele>56.6</ele>
        <time>2014-10-12T09:19:18Z</time>
      </trkpt>
      <trkpt lat="47.26219" lon="-1.70385">
        <ele>56.5</ele>
        <time>2014-10-12T09:19:19Z</time>
      </trkpt>
      <trkpt lat="47.26215" lon="-1.7038">
        <ele>56.3</ele>
        <time>2014-10-12T09:19:21Z</time>
      </trkpt>
      <trkpt lat="47.26211" lon="-1.70376">
        <ele>56.1</ele>
        <time>2014-10-12T09:19:23Z</time>
      </trkpt>
      <trkpt lat="47.26206" lon="-1.70376">
        <ele>56</ele>
        <time>2014-10-12T09:19:25Z</time>
      </trkpt>
      <trkpt lat="47.26201" lon="-1.70379">
        <ele>55.8</ele>
        <time>2014-10-12T09:19:27Z</time>
      </trkpt>
      <trkpt lat="47.26199" lon="-1.70381">
        <ele>55.8</ele>
        <time>2014-10-12T09:19:28Z</time>
      </trkpt>
      <trkpt lat="47.26194" lon="-1.70384">
        <ele>55.7</ele>
        <time>2014-10-12T09:19:30Z</time>
      </trkpt>
      <trkpt lat="47.26191" lon="-1.70387">
        <ele>55.6</ele>
        <time>2014-10-12T09:19:31Z</time>
      </trkpt>
      <trkpt lat="47.26187" lon="-1.7039">
        <ele>55.5</ele>
        <time>2014-10-12T09:19:32Z</time>
      </trkpt>
      <trkpt lat="47.26183" lon="-1.70393">
        <ele>55.4</ele>
        <time>2014-10-12T09:19:33Z</time>
      </trkpt>
      <trkpt lat="47.26179" lon="-1.70396">
        <ele>55.3</ele>
        <time>2014-10-12T09:19:34Z</time>
      </trkpt>
      <trkpt lat="47.26175" lon="-1.70399">
        <ele>55.2</ele>
        <time>2014-10-12T09:19:35Z</time>
      </trkpt>
      <trkpt lat="47.26171" lon="-1.70403">
        <ele>55.1</ele>
        <time>2014-10-12T09:19:36Z</time>
      </trkpt>
      <trkpt lat="47.26165" lon="-1.70407">
        <ele>55</ele>
        <time>2014-10-12T09:19:37Z</time>
      </trkpt>
      <trkpt lat="47.2616" lon="-1.70411">
        <ele>54.8</ele>
        <time>2014-10-12T09:19:38Z</time>
      </trkpt>
      <trkpt lat="47.26155" lon="-1.70416">
        <ele>54.7</ele>
        <time>2014-10-12T09:19:39Z</time>
      </trkpt>
      <trkpt lat="47.26149" lon="-1.70421">
        <ele>54.6</ele>
        <time>2014-10-12T09:19:40Z</time>
      </trkpt>
      <trkpt lat="47.26143" lon="-1.70426">
        <ele>54.4</ele>
        <time>2014-10-12T09:19:41Z</time>
      </trkpt>
      <trkpt lat="47.26137" lon="-1.70431">
        <ele>54.3</ele>
        <time>2014-10-12T09:19:42Z</time>
      </trkpt>
      <trkpt lat="47.26131" lon="-1.70435">
        <ele>54.1</ele>
        <time>2014-10-12T09:19:43Z</time>
      </trkpt>
      <trkpt lat="47.26125" lon="-1.70441">
        <ele>54</ele>
        <time>2014-10-12T09:19:44Z</time>
      </trkpt>
      <trkpt lat="47.26118" lon="-1.70446">
        <ele>54.2</ele>
        <time>2014-10-12T09:19:45Z</time>
      </trkpt>
      <trkpt lat="47.26111" lon="-1.70451">
        <ele>54.3</ele>
        <time>2014-10-12T09:19:46Z</time>
      </trkpt>
      <trkpt lat="47.26104" lon="-1.70457">
        <ele>54.5</ele>
        <time>2014-10-12T09:19:47Z</time>
      </trkpt>
      <trkpt lat="47.26097" lon="-1.70462">
        <ele>54.6</ele>
        <time>2014-10-12T09:19:48Z</time>
      </trkpt>
      <trkpt lat="47.2609" lon="-1.70468">
        <ele>54.7</ele>
        <time>2014-10-12T09:19:49Z</time>
      </trkpt>
      <trkpt lat="47.26082" lon="-1.70473">
        <ele>54.8</ele>
        <time>2014-10-12T09:19:50Z</time>
      </trkpt>
      <trkpt lat="47.26075" lon="-1.70479">
        <ele>55</ele>
        <time>2014-10-12T09:19:51Z</time>
      </trkpt>
      <trkpt lat="47.26067" lon="-1.70485">
        <ele>55.1</ele>
        <time>2014-10-12T09:19:52Z</time>
      </trkpt>
      <trkpt lat="47.2606" lon="-1.70491">
        <ele>55.2</ele>
        <time>2014-10-12T09:19:53Z</time>
      </trkpt>
      <trkpt lat="47.26054" lon="-1.70497">
        <ele>55.3</ele>
        <time>2014-10-12T09:19:54Z</time>
      </trkpt>
      <trkpt lat="47.26047" lon="-1.70502">
        <ele>55.4</ele>
        <time>2014-10-12T09:19:55Z</time>
      </trkpt>
      <trkpt lat="47.2604" lon="-1.70508">
        <ele>55.5</ele>
        <time>2014-10-12T09:19:56Z</time>
      </trkpt>
      <trkpt lat="47.26034" lon="-1.70513">
        <ele>55.9</ele>
        <time>2014-10-12T09:19:57Z</time>
      </trkpt>
      <trkpt lat="47.26028" lon="-1.70518">
        <ele>56.2</ele>
        <time>2014-10-12T09:19:58Z</time>
      </trkpt>
      <trkpt lat="47.26023" lon="-1.70523">
        <ele>56.5</ele>
        <time>2014-10-12T09:19:59Z</time>
      </trkpt>
      <trkpt lat="47.26017" lon="-1.70527">
        <ele>56.9</ele>
        <time>2014-10-12T09:20:00Z</time>
      </trkpt>
      <trkpt lat="47.26012" lon="-1.70532">
        <ele>57.2</ele>
        <time>2014-10-12T09:20:01Z</time>
      </trkpt>
      <trkpt lat="47.26007" lon="-1.70536">
        <ele>57.5</ele>
        <time>2014-10-12T09:20:02Z</time>
      </trkpt>
      <trkpt lat="47.26003" lon="-1.7054">
        <ele>57.8</ele>
        <time>2014-10-12T09:20:03Z</time>
      </trkpt>
      <trkpt lat="47.25999" lon="-1.70544">
        <ele>58</ele>
        <time>2014-10-12T09:20:04Z</time>
      </trkpt>
      <trkpt lat="47.25996" lon="-1.70548">
        <ele>58.3</ele>
        <time>2014-10-12T09:20:05Z</time>
      </trkpt>
      <trkpt lat="47.25992" lon="-1.70552">
        <ele>58.5</ele>
        <time>2014-10-12T09:20:06Z</time>
      </trkpt>
      <trkpt lat="47.25988" lon="-1.70555">
        <ele>58.7</ele>
        <time>2014-10-12T09:20:07Z</time>
      </trkpt>
      <trkpt lat="47.25984" lon="-1.70558">
        <ele>59</ele>
        <time>2014-10-12T09:20:08Z</time>
      </trkpt>
      <trkpt lat="47.2598" lon="-1.70562">
        <ele>59.3</ele>
        <time>2014-10-12T09:20:09Z</time>
      </trkpt>
      <trkpt lat="47.25977" lon="-1.70566">
        <ele>59.4</ele>
        <time>2014-10-12T09:20:10Z</time>
      </trkpt>
      <trkpt lat="47.25973" lon="-1.7057">
        <ele>59.7</ele>
        <time>2014-10-12T09:20:11Z</time>
      </trkpt>
      <trkpt lat="47.25969" lon="-1.70574">
        <ele>59.9</ele>
        <time>2014-10-12T09:20:12Z</time>
      </trkpt>
      <trkpt lat="47.25966" lon="-1.70578">
        <ele>60.1</ele>
        <time>2014-10-12T09:20:13Z</time>
      </trkpt>
      <trkpt lat="47.25962" lon="-1.70582">
        <ele>60.3</ele>
        <time>2014-10-12T09:20:14Z</time>
      </trkpt>
      <trkpt lat="47.25958" lon="-1.70586">
        <ele>60.5</ele>
        <time>2014-10-12T09:20:15Z</time>
      </trkpt>
      <trkpt lat="47.25954" lon="-1.7059">
        <ele>60.6</ele>
        <time>2014-10-12T09:20:16Z</time>
      </trkpt>
      <trkpt lat="47.25951" lon="-1.70593">
        <ele>60.6</ele>
        <time>2014-10-12T09:20:17Z</time>
      </trkpt>
      <trkpt lat="47.25947" lon="-1.70597">
        <ele>60.7</ele>
        <time>2014-10-12T09:20:18Z</time>
      </trkpt>
      <trkpt lat="47.25945" lon="-1.706">
        <ele>60.7</ele>
        <time>2014-10-12T09:20:19Z</time>
      </trkpt>
      <trkpt lat="47.25942" lon="-1.70603">
        <ele>60.7</ele>
        <time>2014-10-12T09:20:20Z</time>
      </trkpt>
      <trkpt lat="47.25938" lon="-1.70608">
        <ele>60.7</ele>
        <time>2014-10-12T09:20:21Z</time>
      </trkpt>
      <trkpt lat="47.25936" lon="-1.70611">
        <ele>60.8</ele>
        <time>2014-10-12T09:20:22Z</time>
      </trkpt>
      <trkpt lat="47.25933" lon="-1.70614">
        <ele>60.8</ele>
        <time>2014-10-12T09:20:23Z</time>
      </trkpt>
      <trkpt lat="47.25931" lon="-1.70617">
        <ele>60.8</ele>
        <time>2014-10-12T09:20:24Z</time>
      </trkpt>
      <trkpt lat="47.25928" lon="-1.7062">
        <ele>60.8</ele>
        <time>2014-10-12T09:20:25Z</time>
      </trkpt>
      <trkpt lat="47.25926" lon="-1.70623">
        <ele>60.8</ele>
        <time>2014-10-12T09:20:26Z</time>
      </trkpt>
      <trkpt lat="47.25924" lon="-1.70627">
        <ele>60.8</ele>
        <time>2014-10-12T09:20:27Z</time>
      </trkpt>
      <trkpt lat="47.2592" lon="-1.70631">
        <ele>60.8</ele>
        <time>2014-10-12T09:20:28Z</time>
      </trkpt>
      <trkpt lat="47.25917" lon="-1.70636">
        <ele>60.8</ele>
        <time>2014-10-12T09:20:29Z</time>
      </trkpt>
      <trkpt lat="47.25913" lon="-1.70641">
        <ele>60.8</ele>
        <time>2014-10-12T09:20:30Z</time>
      </trkpt>
      <trkpt lat="47.25909" lon="-1.70645">
        <ele>60.8</ele>
        <time>2014-10-12T09:20:31Z</time>
      </trkpt>
      <trkpt lat="47.25906" lon="-1.70648">
        <ele>60.9</ele>
        <time>2014-10-12T09:20:32Z</time>
      </trkpt>
      <trkpt lat="47.25903" lon="-1.70651">
        <ele>60.9</ele>
        <time>2014-10-12T09:20:33Z</time>
      </trkpt>
      <trkpt lat="47.259" lon="-1.70654">
        <ele>60.9</ele>
        <time>2014-10-12T09:20:34Z</time>
      </trkpt>
      <trkpt lat="47.25897" lon="-1.70657">
        <ele>61</ele>
        <time>2014-10-12T09:20:35Z</time>
      </trkpt>
      <trkpt lat="47.25893" lon="-1.70661">
        <ele>61</ele>
        <time>2014-10-12T09:20:36Z</time>
      </trkpt>
      <trkpt lat="47.2589" lon="-1.70664">
        <ele>61.1</ele>
        <time>2014-10-12T09:20:37Z</time>
      </trkpt>
      <trkpt lat="47.25887" lon="-1.70667">
        <ele>61.1</ele>
        <time>2014-10-12T09:20:38Z</time>
      </trkpt>
      <trkpt lat="47.25885" lon="-1.7067">
        <ele>61.2</ele>
        <time>2014-10-12T09:20:39Z</time>
      </trkpt>
      <trkpt lat="47.2588" lon="-1.70674">
        <ele>61.3</ele>
        <time>2014-10-12T09:20:40Z</time>
      </trkpt>
      <trkpt lat="47.25876" lon="-1.70677">
        <ele>61.4</ele>
        <time>2014-10-12T09:20:41Z</time>
      </trkpt>
      <trkpt lat="47.25872" lon="-1.7068">
        <ele>61.4</ele>
        <time>2014-10-12T09:20:42Z</time>
      </trkpt>
      <trkpt lat="47.25868" lon="-1.70683">
        <ele>61.5</ele>
        <time>2014-10-12T09:20:43Z</time>
      </trkpt>
      <trkpt lat="47.25864" lon="-1.70686">
        <ele>61.6</ele>
        <time>2014-10-12T09:20:44Z</time>
      </trkpt>
      <trkpt lat="47.2586" lon="-1.7069">
        <ele>61.7</ele>
        <time>2014-10-12T09:20:45Z</time>
      </trkpt>
      <trkpt lat="47.25856" lon="-1.70694">
        <ele>61.8</ele>
        <time>2014-10-12T09:20:46Z</time>
      </trkpt>
      <trkpt lat="47.25852" lon="-1.70697">
        <ele>61.9</ele>
        <time>2014-10-12T09:20:47Z</time>
      </trkpt>
      <trkpt lat="47.25848" lon="-1.707">
        <ele>62.1</ele>
        <time>2014-10-12T09:20:48Z</time>
      </trkpt>
      <trkpt lat="47.25844" lon="-1.70703">
        <ele>62.2</ele>
        <time>2014-10-12T09:20:49Z</time>
      </trkpt>
      <trkpt lat="47.2584" lon="-1.70706">
        <ele>62.3</ele>
        <time>2014-10-12T09:20:50Z</time>
      </trkpt>
      <trkpt lat="47.25837" lon="-1.70709">
        <ele>62.4</ele>
        <time>2014-10-12T09:20:51Z</time>
      </trkpt>
      <trkpt lat="47.25833" lon="-1.70712">
        <ele>62.4</ele>
        <time>2014-10-12T09:20:52Z</time>
      </trkpt>
      <trkpt lat="47.25829" lon="-1.70716">
        <ele>62.5</ele>
        <time>2014-10-12T09:20:53Z</time>
      </trkpt>
      <trkpt lat="47.25825" lon="-1.70719">
        <ele>62.5</ele>
        <time>2014-10-12T09:20:54Z</time>
      </trkpt>
      <trkpt lat="47.25821" lon="-1.70723">
        <ele>62.6</ele>
        <time>2014-10-12T09:20:55Z</time>
      </trkpt>
      <trkpt lat="47.25817" lon="-1.70726">
        <ele>62.7</ele>
        <time>2014-10-12T09:20:56Z</time>
      </trkpt>
      <trkpt lat="47.25813" lon="-1.70729">
        <ele>62.7</ele>
        <time>2014-10-12T09:20:57Z</time>
      </trkpt>
      <trkpt lat="47.2581" lon="-1.70731">
        <ele>62.8</ele>
        <time>2014-10-12T09:20:58Z</time>
      </trkpt>
      <trkpt lat="47.25807" lon="-1.70733">
        <ele>62.9</ele>
        <time>2014-10-12T09:20:59Z</time>
      </trkpt>
      <trkpt lat="47.25804" lon="-1.70736">
        <ele>62.9</ele>
        <time>2014-10-12T09:21:00Z</time>
      </trkpt>
      <trkpt lat="47.258" lon="-1.70738">
        <ele>63</ele>
        <time>2014-10-12T09:21:01Z</time>
      </trkpt>
      <trkpt lat="47.25797" lon="-1.7074">
        <ele>63</ele>
        <time>2014-10-12T09:21:02Z</time>
      </trkpt>
      <trkpt lat="47.25794" lon="-1.70742">
        <ele>63.1</ele>
        <time>2014-10-12T09:21:03Z</time>
      </trkpt>
      <trkpt lat="47.2579" lon="-1.70744">
        <ele>63.2</ele>
        <time>2014-10-12T09:21:04Z</time>
      </trkpt>
      <trkpt lat="47.25786" lon="-1.70746">
        <ele>63.2</ele>
        <time>2014-10-12T09:21:05Z</time>
      </trkpt>
      <trkpt lat="47.25782" lon="-1.70748">
        <ele>63.2</ele>
        <time>2014-10-12T09:21:06Z</time>
      </trkpt>
      <trkpt lat="47.25778" lon="-1.70749">
        <ele>63.3</ele>
        <time>2014-10-12T09:21:07Z</time>
      </trkpt>
      <trkpt lat="47.25774" lon="-1.70751">
        <ele>63.3</ele>
        <time>2014-10-12T09:21:08Z</time>
      </trkpt>
      <trkpt lat="47.2577" lon="-1.70752">
        <ele>63.4</ele>
        <time>2014-10-12T09:21:09Z</time>
      </trkpt>
      <trkpt lat="47.25765" lon="-1.70753">
        <ele>63.5</ele>
        <time>2014-10-12T09:21:10Z</time>
      </trkpt>
      <trkpt lat="47.25761" lon="-1.70754">
        <ele>63.5</ele>
        <time>2014-10-12T09:21:11Z</time>
      </trkpt>
      <trkpt lat="47.25756" lon="-1.70755">
        <ele>63.6</ele>
        <time>2014-10-12T09:21:12Z</time>
      </trkpt>
      <trkpt lat="47.25753" lon="-1.70756">
        <ele>63.7</ele>
        <time>2014-10-12T09:21:13Z</time>
      </trkpt>
      <trkpt lat="47.25749" lon="-1.70756">
        <ele>63.7</ele>
        <time>2014-10-12T09:21:14Z</time>
      </trkpt>
      <trkpt lat="47.25745" lon="-1.70756">
        <ele>63.8</ele>
        <time>2014-10-12T09:21:15Z</time>
      </trkpt>
      <trkpt lat="47.25741" lon="-1.70756">
        <ele>63.9</ele>
        <time>2014-10-12T09:21:16Z</time>
      </trkpt>
      <trkpt lat="47.25737" lon="-1.70756">
        <ele>64</ele>
        <time>2014-10-12T09:21:17Z</time>
      </trkpt>
      <trkpt lat="47.25733" lon="-1.70756">
        <ele>64.1</ele>
        <time>2014-10-12T09:21:18Z</time>
      </trkpt>
      <trkpt lat="47.25729" lon="-1.70755">
        <ele>64.1</ele>
        <time>2014-10-12T09:21:19Z</time>
      </trkpt>
      <trkpt lat="47.25725" lon="-1.70755">
        <ele>64.2</ele>
        <time>2014-10-12T09:21:20Z</time>
      </trkpt>
      <trkpt lat="47.25721" lon="-1.70755">
        <ele>64.3</ele>
        <time>2014-10-12T09:21:21Z</time>
      </trkpt>
      <trkpt lat="47.25717" lon="-1.70755">
        <ele>64.4</ele>
        <time>2014-10-12T09:21:22Z</time>
      </trkpt>
      <trkpt lat="47.25713" lon="-1.70755">
        <ele>64.5</ele>
        <time>2014-10-12T09:21:23Z</time>
      </trkpt>
      <trkpt lat="47.25709" lon="-1.70754">
        <ele>64.5</ele>
        <time>2014-10-12T09:21:24Z</time>
      </trkpt>
      <trkpt lat="47.25706" lon="-1.70754">
        <ele>64.5</ele>
        <time>2014-10-12T09:21:25Z</time>
      </trkpt>
      <trkpt lat="47.25702" lon="-1.70753">
        <ele>64.5</ele>
        <time>2014-10-12T09:21:26Z</time>
      </trkpt>
      <trkpt lat="47.25698" lon="-1.70754">
        <ele>64.5</ele>
        <time>2014-10-12T09:21:27Z</time>
      </trkpt>
      <trkpt lat="47.25694" lon="-1.70754">
        <ele>64.5</ele>
        <time>2014-10-12T09:21:28Z</time>
      </trkpt>
      <trkpt lat="47.25691" lon="-1.70755">
        <ele>64.4</ele>
        <time>2014-10-12T09:21:29Z</time>
      </trkpt>
      <trkpt lat="47.25687" lon="-1.70755">
        <ele>64.4</ele>
        <time>2014-10-12T09:21:30Z</time>
      </trkpt>
      <trkpt lat="47.25683" lon="-1.70755">
        <ele>64.4</ele>
        <time>2014-10-12T09:21:31Z</time>
      </trkpt>
      <trkpt lat="47.25679" lon="-1.70755">
        <ele>64.4</ele>
        <time>2014-10-12T09:21:32Z</time>
      </trkpt>
      <trkpt lat="47.25676" lon="-1.70754">
        <ele>64.3</ele>
        <time>2014-10-12T09:21:33Z</time>
      </trkpt>
      <trkpt lat="47.25672" lon="-1.70754">
        <ele>64.3</ele>
        <time>2014-10-12T09:21:34Z</time>
      </trkpt>
      <trkpt lat="47.25669" lon="-1.70753">
        <ele>64.3</ele>
        <time>2014-10-12T09:21:35Z</time>
      </trkpt>
      <trkpt lat="47.25666" lon="-1.70753">
        <ele>64.3</ele>
        <time>2014-10-12T09:21:36Z</time>
      </trkpt>
      <trkpt lat="47.25663" lon="-1.70752">
        <ele>64.2</ele>
        <time>2014-10-12T09:21:37Z</time>
      </trkpt>
      <trkpt lat="47.25659" lon="-1.70752">
        <ele>64.2</ele>
        <time>2014-10-12T09:21:38Z</time>
      </trkpt>
      <trkpt lat="47.25656" lon="-1.70751">
        <ele>64.2</ele>
        <time>2014-10-12T09:21:39Z</time>
      </trkpt>
      <trkpt lat="47.25653" lon="-1.70751">
        <ele>64.2</ele>
        <time>2014-10-12T09:21:40Z</time>
      </trkpt>
      <trkpt lat="47.25648" lon="-1.70751">
        <ele>64.1</ele>
        <time>2014-10-12T09:21:41Z</time>
      </trkpt>
      <trkpt lat="47.25644" lon="-1.70751">
        <ele>64.1</ele>
        <time>2014-10-12T09:21:42Z</time>
      </trkpt>
      <trkpt lat="47.2564" lon="-1.70751">
        <ele>64.1</ele>
        <time>2014-10-12T09:21:43Z</time>
      </trkpt>
      <trkpt lat="47.25636" lon="-1.70751">
        <ele>64.1</ele>
        <time>2014-10-12T09:21:44Z</time>
      </trkpt>
      <trkpt lat="47.25632" lon="-1.70751">
        <ele>64</ele>
        <time>2014-10-12T09:21:45Z</time>
      </trkpt>
      <trkpt lat="47.25627" lon="-1.7075">
        <ele>64</ele>
        <time>2014-10-12T09:21:46Z</time>
      </trkpt>
      <trkpt lat="47.25623" lon="-1.7075">
        <ele>64</ele>
        <time>2014-10-12T09:21:47Z</time>
      </trkpt>
      <trkpt lat="47.25619" lon="-1.70749">
        <ele>63.9</ele>
        <time>2014-10-12T09:21:48Z</time>
      </trkpt>
      <trkpt lat="47.25615" lon="-1.70749">
        <ele>63.9</ele>
        <time>2014-10-12T09:21:49Z</time>
      </trkpt>
      <trkpt lat="47.25611" lon="-1.70748">
        <ele>63.8</ele>
        <time>2014-10-12T09:21:50Z</time>
      </trkpt>
      <trkpt lat="47.25607" lon="-1.70746">
        <ele>63.8</ele>
        <time>2014-10-12T09:21:51Z</time>
      </trkpt>
      <trkpt lat="47.25602" lon="-1.70744">
        <ele>63.7</ele>
        <time>2014-10-12T09:21:52Z</time>
      </trkpt>
      <trkpt lat="47.25598" lon="-1.7074">
        <ele>63.7</ele>
        <time>2014-10-12T09:21:53Z</time>
      </trkpt>
      <trkpt lat="47.25596" lon="-1.70735">
        <ele>63.7</ele>
        <time>2014-10-12T09:21:54Z</time>
      </trkpt>
      <trkpt lat="47.25595" lon="-1.7073">
        <ele>63.6</ele>
        <time>2014-10-12T09:21:55Z</time>
      </trkpt>
      <trkpt lat="47.25593" lon="-1.70724">
        <ele>63.6</ele>
        <time>2014-10-12T09:21:56Z</time>
      </trkpt>
      <trkpt lat="47.25592" lon="-1.70719">
        <ele>63.6</ele>
        <time>2014-10-12T09:21:57Z</time>
      </trkpt>
      <trkpt lat="47.25591" lon="-1.70714">
        <ele>63.6</ele>
        <time>2014-10-12T09:21:58Z</time>
      </trkpt>
      <trkpt lat="47.25589" lon="-1.70708">
        <ele>63.6</ele>
        <time>2014-10-12T09:21:59Z</time>
      </trkpt>
      <trkpt lat="47.25588" lon="-1.70702">
        <ele>63.5</ele>
        <time>2014-10-12T09:22:00Z</time>
      </trkpt>
      <trkpt lat="47.25587" lon="-1.70697">
        <ele>63.5</ele>
        <time>2014-10-12T09:22:01Z</time>
      </trkpt>
      <trkpt lat="47.25585" lon="-1.70691">
        <ele>63.5</ele>
        <time>2014-10-12T09:22:02Z</time>
      </trkpt>
      <trkpt lat="47.25584" lon="-1.70686">
        <ele>63.5</ele>
        <time>2014-10-12T09:22:03Z</time>
      </trkpt>
      <trkpt lat="47.25583" lon="-1.70682">
        <ele>63.5</ele>
        <time>2014-10-12T09:22:04Z</time>
      </trkpt>
      <trkpt lat="47.25582" lon="-1.70677">
        <ele>63.5</ele>
        <time>2014-10-12T09:22:05Z</time>
      </trkpt>
      <trkpt lat="47.2558" lon="-1.7067">
        <ele>63.5</ele>
        <time>2014-10-12T09:22:06Z</time>
      </trkpt>
      <trkpt lat="47.25579" lon="-1.70664">
        <ele>63.5</ele>
        <time>2014-10-12T09:22:07Z</time>
      </trkpt>
      <trkpt lat="47.25577" lon="-1.70659">
        <ele>63.5</ele>
        <time>2014-10-12T09:22:08Z</time>
      </trkpt>
      <trkpt lat="47.25576" lon="-1.70653">
        <ele>63.5</ele>
        <time>2014-10-12T09:22:09Z</time>
      </trkpt>
      <trkpt lat="47.25575" lon="-1.70647">
        <ele>63.5</ele>
        <time>2014-10-12T09:22:10Z</time>
      </trkpt>
      <trkpt lat="47.25574" lon="-1.70642">
        <ele>63.6</ele>
        <time>2014-10-12T09:22:11Z</time>
      </trkpt>
      <trkpt lat="47.25571" lon="-1.70637">
        <ele>63.6</ele>
        <time>2014-10-12T09:22:12Z</time>
      </trkpt>
      <trkpt lat="47.2557" lon="-1.70632">
        <ele>63.6</ele>
        <time>2014-10-12T09:22:13Z</time>
      </trkpt>
      <trkpt lat="47.25569" lon="-1.70625">
        <ele>63.7</ele>
        <time>2014-10-12T09:22:14Z</time>
      </trkpt>
      <trkpt lat="47.25568" lon="-1.70619">
        <ele>63.8</ele>
        <time>2014-10-12T09:22:15Z</time>
      </trkpt>
      <trkpt lat="47.25567" lon="-1.70614">
        <ele>63.9</ele>
        <time>2014-10-12T09:22:16Z</time>
      </trkpt>
      <trkpt lat="47.25565" lon="-1.70609">
        <ele>64</ele>
        <time>2014-10-12T09:22:17Z</time>
      </trkpt>
      <trkpt lat="47.25564" lon="-1.70603">
        <ele>64.1</ele>
        <time>2014-10-12T09:22:18Z</time>
      </trkpt>
      <trkpt lat="47.25564" lon="-1.70596">
        <ele>64.2</ele>
        <time>2014-10-12T09:22:19Z</time>
      </trkpt>
      <trkpt lat="47.25563" lon="-1.7059">
        <ele>64.3</ele>
        <time>2014-10-12T09:22:20Z</time>
      </trkpt>
      <trkpt lat="47.25563" lon="-1.70585">
        <ele>64.3</ele>
        <time>2014-10-12T09:22:21Z</time>
      </trkpt>
      <trkpt lat="47.25564" lon="-1.70578">
        <ele>64.4</ele>
        <time>2014-10-12T09:22:22Z</time>
      </trkpt>
      <trkpt lat="47.25565" lon="-1.70573">
        <ele>64.5</ele>
        <time>2014-10-12T09:22:23Z</time>
      </trkpt>
      <trkpt lat="47.25566" lon="-1.70568">
        <ele>64.6</ele>
        <time>2014-10-12T09:22:24Z</time>
      </trkpt>
      <trkpt lat="47.25567" lon="-1.70562">
        <ele>64.7</ele>
        <time>2014-10-12T09:22:25Z</time>
      </trkpt>
      <trkpt lat="47.25568" lon="-1.70558">
        <ele>64.7</ele>
        <time>2014-10-12T09:22:26Z</time>
      </trkpt>
      <trkpt lat="47.25569" lon="-1.70554">
        <ele>64.8</ele>
        <time>2014-10-12T09:22:27Z</time>
      </trkpt>
      <trkpt lat="47.25571" lon="-1.7055">
        <ele>64.9</ele>
        <time>2014-10-12T09:22:28Z</time>
      </trkpt>
      <trkpt lat="47.25573" lon="-1.70545">
        <ele>64.9</ele>
        <time>2014-10-12T09:22:29Z</time>
      </trkpt>
      <trkpt lat="47.25575" lon="-1.7054">
        <ele>65</ele>
        <time>2014-10-12T09:22:30Z</time>
      </trkpt>
      <trkpt lat="47.25576" lon="-1.70536">
        <ele>65.1</ele>
        <time>2014-10-12T09:22:31Z</time>
      </trkpt>
      <trkpt lat="47.25579" lon="-1.7053">
        <ele>65.2</ele>
        <time>2014-10-12T09:22:32Z</time>
      </trkpt>
      <trkpt lat="47.2558" lon="-1.70525">
        <ele>65.3</ele>
        <time>2014-10-12T09:22:33Z</time>
      </trkpt>
      <trkpt lat="47.25582" lon="-1.70521">
        <ele>65.4</ele>
        <time>2014-10-12T09:22:34Z</time>
      </trkpt>
      <trkpt lat="47.25583" lon="-1.70516">
        <ele>65.5</ele>
        <time>2014-10-12T09:22:35Z</time>
      </trkpt>
      <trkpt lat="47.25585" lon="-1.70513">
        <ele>65.5</ele>
        <time>2014-10-12T09:22:36Z</time>
      </trkpt>
      <trkpt lat="47.25587" lon="-1.70508">
        <ele>65.6</ele>
        <time>2014-10-12T09:22:37Z</time>
      </trkpt>
      <trkpt lat="47.25589" lon="-1.70503">
        <ele>65.7</ele>
        <time>2014-10-12T09:22:38Z</time>
      </trkpt>
      <trkpt lat="47.25591" lon="-1.70499">
        <ele>65.8</ele>
        <time>2014-10-12T09:22:39Z</time>
      </trkpt>
      <trkpt lat="47.25593" lon="-1.70496">
        <ele>65.9</ele>
        <time>2014-10-12T09:22:40Z</time>
      </trkpt>
      <trkpt lat="47.25596" lon="-1.70493">
        <ele>66</ele>
        <time>2014-10-12T09:22:41Z</time>
      </trkpt>
      <trkpt lat="47.25599" lon="-1.70489">
        <ele>66.1</ele>
        <time>2014-10-12T09:22:42Z</time>
      </trkpt>
      <trkpt lat="47.25602" lon="-1.70483">
        <ele>66.2</ele>
        <time>2014-10-12T09:22:43Z</time>
      </trkpt>
      <trkpt lat="47.25605" lon="-1.70478">
        <ele>66.4</ele>
        <time>2014-10-12T09:22:44Z</time>
      </trkpt>
      <trkpt lat="47.25608" lon="-1.70474">
        <ele>66.5</ele>
        <time>2014-10-12T09:22:45Z</time>
      </trkpt>
      <trkpt lat="47.25611" lon="-1.70471">
        <ele>66.6</ele>
        <time>2014-10-12T09:22:46Z</time>
      </trkpt>
      <trkpt lat="47.25615" lon="-1.70468">
        <ele>66.7</ele>
        <time>2014-10-12T09:22:47Z</time>
      </trkpt>
      <trkpt lat="47.25618" lon="-1.70464">
        <ele>66.8</ele>
        <time>2014-10-12T09:22:48Z</time>
      </trkpt>
      <trkpt lat="47.25622" lon="-1.70461">
        <ele>66.9</ele>
        <time>2014-10-12T09:22:49Z</time>
      </trkpt>
      <trkpt lat="47.25627" lon="-1.70457">
        <ele>67</ele>
        <time>2014-10-12T09:22:50Z</time>
      </trkpt>
      <trkpt lat="47.25631" lon="-1.70453">
        <ele>67</ele>
        <time>2014-10-12T09:22:51Z</time>
      </trkpt>
      <trkpt lat="47.25635" lon="-1.70448">
        <ele>67</ele>
        <time>2014-10-12T09:22:52Z</time>
      </trkpt>
      <trkpt lat="47.25639" lon="-1.70444">
        <ele>66.9</ele>
        <time>2014-10-12T09:22:53Z</time>
      </trkpt>
      <trkpt lat="47.25643" lon="-1.7044">
        <ele>66.9</ele>
        <time>2014-10-12T09:22:54Z</time>
      </trkpt>
      <trkpt lat="47.25647" lon="-1.70436">
        <ele>66.9</ele>
        <time>2014-10-12T09:22:55Z</time>
      </trkpt>
      <trkpt lat="47.25652" lon="-1.70432">
        <ele>66.8</ele>
        <time>2014-10-12T09:22:56Z</time>
      </trkpt>
      <trkpt lat="47.25656" lon="-1.70428">
        <ele>66.7</ele>
        <time>2014-10-12T09:22:57Z</time>
      </trkpt>
      <trkpt lat="47.25661" lon="-1.70424">
        <ele>66.6</ele>
        <time>2014-10-12T09:22:58Z</time>
      </trkpt>
      <trkpt lat="47.25665" lon="-1.7042">
        <ele>66.6</ele>
        <time>2014-10-12T09:22:59Z</time>
      </trkpt>
      <trkpt lat="47.25669" lon="-1.70416">
        <ele>66.5</ele>
        <time>2014-10-12T09:23:00Z</time>
      </trkpt>
      <trkpt lat="47.25674" lon="-1.70412">
        <ele>66.3</ele>
        <time>2014-10-12T09:23:01Z</time>
      </trkpt>
      <trkpt lat="47.25679" lon="-1.70408">
        <ele>66.2</ele>
        <time>2014-10-12T09:23:02Z</time>
      </trkpt>
      <trkpt lat="47.25683" lon="-1.70404">
        <ele>66.1</ele>
        <time>2014-10-12T09:23:03Z</time>
      </trkpt>
      <trkpt lat="47.25687" lon="-1.704">
        <ele>65.9</ele>
        <time>2014-10-12T09:23:04Z</time>
      </trkpt>
      <trkpt lat="47.25692" lon="-1.70396">
        <ele>65.8</ele>
        <time>2014-10-12T09:23:05Z</time>
      </trkpt>
      <trkpt lat="47.25697" lon="-1.70393">
        <ele>65.7</ele>
        <time>2014-10-12T09:23:06Z</time>
      </trkpt>
      <trkpt lat="47.25702" lon="-1.70389">
        <ele>65.5</ele>
        <time>2014-10-12T09:23:07Z</time>
      </trkpt>
      <trkpt lat="47.25707" lon="-1.70386">
        <ele>65.3</ele>
        <time>2014-10-12T09:23:08Z</time>
      </trkpt>
      <trkpt lat="47.25711" lon="-1.70383">
        <ele>65.1</ele>
        <time>2014-10-12T09:23:09Z</time>
      </trkpt>
      <trkpt lat="47.25716" lon="-1.70379">
        <ele>64.9</ele>
        <time>2014-10-12T09:23:10Z</time>
      </trkpt>
      <trkpt lat="47.25721" lon="-1.70375">
        <ele>64.7</ele>
        <time>2014-10-12T09:23:11Z</time>
      </trkpt>
      <trkpt lat="47.25726" lon="-1.70372">
        <ele>64.5</ele>
        <time>2014-10-12T09:23:12Z</time>
      </trkpt>
      <trkpt lat="47.25731" lon="-1.70368">
        <ele>64.4</ele>
        <time>2014-10-12T09:23:13Z</time>
      </trkpt>
      <trkpt lat="47.25736" lon="-1.70364">
        <ele>64.2</ele>
        <time>2014-10-12T09:23:14Z</time>
      </trkpt>
      <trkpt lat="47.25741" lon="-1.7036">
        <ele>64</ele>
        <time>2014-10-12T09:23:15Z</time>
      </trkpt>
      <trkpt lat="47.25748" lon="-1.70356">
        <ele>63.7</ele>
        <time>2014-10-12T09:23:16Z</time>
      </trkpt>
      <trkpt lat="47.25753" lon="-1.70352">
        <ele>63.5</ele>
        <time>2014-10-12T09:23:17Z</time>
      </trkpt>
      <trkpt lat="47.25759" lon="-1.70347">
        <ele>63.2</ele>
        <time>2014-10-12T09:23:18Z</time>
      </trkpt>
      <trkpt lat="47.25765" lon="-1.70343">
        <ele>63</ele>
        <time>2014-10-12T09:23:19Z</time>
      </trkpt>
      <trkpt lat="47.25772" lon="-1.70338">
        <ele>62.7</ele>
        <time>2014-10-12T09:23:20Z</time>
      </trkpt>
      <trkpt lat="47.25778" lon="-1.70333">
        <ele>62.4</ele>
        <time>2014-10-12T09:23:21Z</time>
      </trkpt>
      <trkpt lat="47.25785" lon="-1.70327">
        <ele>62.1</ele>
        <time>2014-10-12T09:23:22Z</time>
      </trkpt>
      <trkpt lat="47.2579" lon="-1.70322">
        <ele>61.8</ele>
        <time>2014-10-12T09:23:23Z</time>
      </trkpt>
      <trkpt lat="47.25794" lon="-1.70314">
        <ele>61.5</ele>
        <time>2014-10-12T09:23:24Z</time>
      </trkpt>
      <trkpt lat="47.25795" lon="-1.70305">
        <ele>61.2</ele>
        <time>2014-10-12T09:23:25Z</time>
      </trkpt>
      <trkpt lat="47.25794" lon="-1.70297">
        <ele>61</ele>
        <time>2014-10-12T09:23:26Z</time>
      </trkpt>
      <trkpt lat="47.25792" lon="-1.70289">
        <ele>61</ele>
        <time>2014-10-12T09:23:27Z</time>
      </trkpt>
      <trkpt lat="47.2579" lon="-1.70282">
        <ele>61.2</ele>
        <time>2014-10-12T09:23:28Z</time>
      </trkpt>
      <trkpt lat="47.25787" lon="-1.70275">
        <ele>61.4</ele>
        <time>2014-10-12T09:23:29Z</time>
      </trkpt>
      <trkpt lat="47.25785" lon="-1.70268">
        <ele>61.5</ele>
        <time>2014-10-12T09:23:30Z</time>
      </trkpt>
      <trkpt lat="47.25783" lon="-1.70261">
        <ele>61.7</ele>
        <time>2014-10-12T09:23:31Z</time>
      </trkpt>
      <trkpt lat="47.25781" lon="-1.70255">
        <ele>61.8</ele>
        <time>2014-10-12T09:23:32Z</time>
      </trkpt>
      <trkpt lat="47.25779" lon="-1.7025">
        <ele>62</ele>
        <time>2014-10-12T09:23:33Z</time>
      </trkpt>
      <trkpt lat="47.25777" lon="-1.70244">
        <ele>62.1</ele>
        <time>2014-10-12T09:23:34Z</time>
      </trkpt>
      <trkpt lat="47.25776" lon="-1.70239">
        <ele>62.2</ele>
        <time>2014-10-12T09:23:35Z</time>
      </trkpt>
      <trkpt lat="47.25774" lon="-1.70233">
        <ele>62.3</ele>
        <time>2014-10-12T09:23:36Z</time>
      </trkpt>
      <trkpt lat="47.25773" lon="-1.70227">
        <ele>62.5</ele>
        <time>2014-10-12T09:23:37Z</time>
      </trkpt>
      <trkpt lat="47.25771" lon="-1.70221">
        <ele>62.6</ele>
        <time>2014-10-12T09:23:38Z</time>
      </trkpt>
      <trkpt lat="47.25769" lon="-1.70215">
        <ele>62.7</ele>
        <time>2014-10-12T09:23:39Z</time>
      </trkpt>
      <trkpt lat="47.25768" lon="-1.70209">
        <ele>62.8</ele>
        <time>2014-10-12T09:23:40Z</time>
      </trkpt>
      <trkpt lat="47.25766" lon="-1.70204">
        <ele>63</ele>
        <time>2014-10-12T09:23:41Z</time>
      </trkpt>
      <trkpt lat="47.25765" lon="-1.70198">
        <ele>63.2</ele>
        <time>2014-10-12T09:23:42Z</time>
      </trkpt>
      <trkpt lat="47.25764" lon="-1.70193">
        <ele>63.4</ele>
        <time>2014-10-12T09:23:43Z</time>
      </trkpt>
      <trkpt lat="47.25762" lon="-1.70187">
        <ele>63.6</ele>
        <time>2014-10-12T09:23:44Z</time>
      </trkpt>
      <trkpt lat="47.2576" lon="-1.70182">
        <ele>63.8</ele>
        <time>2014-10-12T09:23:45Z</time>
      </trkpt>
      <trkpt lat="47.25759" lon="-1.70175">
        <ele>64</ele>
        <time>2014-10-12T09:23:46Z</time>
      </trkpt>
      <trkpt lat="47.25757" lon="-1.7017">
        <ele>64.2</ele>
        <time>2014-10-12T09:23:47Z</time>
      </trkpt>
      <trkpt lat="47.25756" lon="-1.70164">
        <ele>64.3</ele>
        <time>2014-10-12T09:23:48Z</time>
      </trkpt>
      <trkpt lat="47.25755" lon="-1.70159">
        <ele>64.5</ele>
        <time>2014-10-12T09:23:49Z</time>
      </trkpt>
      <trkpt lat="47.25755" lon="-1.70153">
        <ele>64.7</ele>
        <time>2014-10-12T09:23:50Z</time>
      </trkpt>
      <trkpt lat="47.25754" lon="-1.70147">
        <ele>64.8</ele>
        <time>2014-10-12T09:23:51Z</time>
      </trkpt>
      <trkpt lat="47.25753" lon="-1.70142">
        <ele>65</ele>
        <time>2014-10-12T09:23:52Z</time>
      </trkpt>
      <trkpt lat="47.25751" lon="-1.70138">
        <ele>65.2</ele>
        <time>2014-10-12T09:23:53Z</time>
      </trkpt>
      <trkpt lat="47.25749" lon="-1.70134">
        <ele>65.3</ele>
        <time>2014-10-12T09:23:54Z</time>
      </trkpt>
      <trkpt lat="47.25747" lon="-1.7013">
        <ele>65.5</ele>
        <time>2014-10-12T09:23:55Z</time>
      </trkpt>
      <trkpt lat="47.25746" lon="-1.70126">
        <ele>65.6</ele>
        <time>2014-10-12T09:23:56Z</time>
      </trkpt>
      <trkpt lat="47.25746" lon="-1.70118">
        <ele>65.7</ele>
        <time>2014-10-12T09:23:58Z</time>
      </trkpt>
      <trkpt lat="47.25747" lon="-1.70113">
        <ele>65.8</ele>
        <time>2014-10-12T09:23:59Z</time>
      </trkpt>
      <trkpt lat="47.25744" lon="-1.70106">
        <ele>65.9</ele>
        <time>2014-10-12T09:24:01Z</time>
      </trkpt>
      <trkpt lat="47.25743" lon="-1.70099">
        <ele>66.1</ele>
        <time>2014-10-12T09:24:03Z</time>
      </trkpt>
      <trkpt lat="47.25741" lon="-1.70094">
        <ele>66.2</ele>
        <time>2014-10-12T09:24:05Z</time>
      </trkpt>
      <trkpt lat="47.2574" lon="-1.70086">
        <ele>66.3</ele>
        <time>2014-10-12T09:24:07Z</time>
      </trkpt>
      <trkpt lat="47.25738" lon="-1.70081">
        <ele>66.5</ele>
        <time>2014-10-12T09:24:09Z</time>
      </trkpt>
      <trkpt lat="47.25737" lon="-1.70076">
        <ele>66.6</ele>
        <time>2014-10-12T09:24:10Z</time>
      </trkpt>
      <trkpt lat="47.25735" lon="-1.70072">
        <ele>66.7</ele>
        <time>2014-10-12T09:24:11Z</time>
      </trkpt>
      <trkpt lat="47.25734" lon="-1.70067">
        <ele>66.8</ele>
        <time>2014-10-12T09:24:12Z</time>
      </trkpt>
      <trkpt lat="47.25732" lon="-1.70063">
        <ele>66.9</ele>
        <time>2014-10-12T09:24:13Z</time>
      </trkpt>
      <trkpt lat="47.25732" lon="-1.70058">
        <ele>66.9</ele>
        <time>2014-10-12T09:24:14Z</time>
      </trkpt>
      <trkpt lat="47.25731" lon="-1.70053">
        <ele>67</ele>
        <time>2014-10-12T09:24:15Z</time>
      </trkpt>
      <trkpt lat="47.2573" lon="-1.70047">
        <ele>67.2</ele>
        <time>2014-10-12T09:24:16Z</time>
      </trkpt>
      <trkpt lat="47.25728" lon="-1.70042">
        <ele>67.3</ele>
        <time>2014-10-12T09:24:17Z</time>
      </trkpt>
      <trkpt lat="47.25726" lon="-1.70035">
        <ele>67.3</ele>
        <time>2014-10-12T09:24:18Z</time>
      </trkpt>
      <trkpt lat="47.25722" lon="-1.70026">
        <ele>67.4</ele>
        <time>2014-10-12T09:24:19Z</time>
      </trkpt>
      <trkpt lat="47.25718" lon="-1.70017">
        <ele>67.5</ele>
        <time>2014-10-12T09:24:20Z</time>
      </trkpt>
      <trkpt lat="47.25716" lon="-1.7001">
        <ele>67.6</ele>
        <time>2014-10-12T09:24:21Z</time>
      </trkpt>
      <trkpt lat="47.25714" lon="-1.70005">
        <ele>67.7</ele>
        <time>2014-10-12T09:24:22Z</time>
      </trkpt>
      <trkpt lat="47.2571" lon="-1.70004">
        <ele>67.9</ele>
        <time>2014-10-12T09:24:23Z</time>
      </trkpt>
      <trkpt lat="47.25707" lon="-1.70002">
        <ele>68</ele>
        <time>2014-10-12T09:24:24Z</time>
      </trkpt>
      <trkpt lat="47.25702" lon="-1.70003">
        <ele>68</ele>
        <time>2014-10-12T09:24:26Z</time>
      </trkpt>
      <trkpt lat="47.25697" lon="-1.70006">
        <ele>67.9</ele>
        <time>2014-10-12T09:24:28Z</time>
      </trkpt>
      <trkpt lat="47.25694" lon="-1.70008">
        <ele>67.9</ele>
        <time>2014-10-12T09:24:29Z</time>
      </trkpt>
      <trkpt lat="47.25691" lon="-1.70008">
        <ele>67.8</ele>
        <time>2014-10-12T09:24:30Z</time>
      </trkpt>
      <trkpt lat="47.25688" lon="-1.70009">
        <ele>67.8</ele>
        <time>2014-10-12T09:24:31Z</time>
      </trkpt>
      <trkpt lat="47.25683" lon="-1.7001">
        <ele>67.7</ele>
        <time>2014-10-12T09:24:33Z</time>
      </trkpt>
      <trkpt lat="47.2568" lon="-1.70011">
        <ele>67.7</ele>
        <time>2014-10-12T09:24:34Z</time>
      </trkpt>
      <trkpt lat="47.25677" lon="-1.70012">
        <ele>67.6</ele>
        <time>2014-10-12T09:24:36Z</time>
      </trkpt>
      <trkpt lat="47.25672" lon="-1.70013">
        <ele>67.6</ele>
        <time>2014-10-12T09:24:38Z</time>
      </trkpt>
      <trkpt lat="47.25668" lon="-1.70014">
        <ele>67.5</ele>
        <time>2014-10-12T09:24:40Z</time>
      </trkpt>
      <trkpt lat="47.25664" lon="-1.70015">
        <ele>67.4</ele>
        <time>2014-10-12T09:24:42Z</time>
      </trkpt>
      <trkpt lat="47.25661" lon="-1.70017">
        <ele>67.4</ele>
        <time>2014-10-12T09:24:44Z</time>
      </trkpt>
      <trkpt lat="47.25657" lon="-1.70019">
        <ele>67.3</ele>
        <time>2014-10-12T09:24:46Z</time>
      </trkpt>
      <trkpt lat="47.25654" lon="-1.70019">
        <ele>67.2</ele>
        <time>2014-10-12T09:24:48Z</time>
      </trkpt>
      <trkpt lat="47.25649" lon="-1.70021">
        <ele>67.1</ele>
        <time>2014-10-12T09:24:50Z</time>
      </trkpt>
      <trkpt lat="47.25645" lon="-1.70023">
        <ele>67</ele>
        <time>2014-10-12T09:24:52Z</time>
      </trkpt>
      <trkpt lat="47.25641" lon="-1.70026">
        <ele>66.8</ele>
        <time>2014-10-12T09:24:54Z</time>
      </trkpt>
      <trkpt lat="47.25637" lon="-1.70029">
        <ele>66.7</ele>
        <time>2014-10-12T09:24:56Z</time>
      </trkpt>
      <trkpt lat="47.25634" lon="-1.70031">
        <ele>66.5</ele>
        <time>2014-10-12T09:24:58Z</time>
      </trkpt>
      <trkpt lat="47.2563" lon="-1.70033">
        <ele>66.4</ele>
        <time>2014-10-12T09:25:01Z</time>
      </trkpt>
      <trkpt lat="47.25627" lon="-1.70035">
        <ele>66.3</ele>
        <time>2014-10-12T09:25:03Z</time>
      </trkpt>
      <trkpt lat="47.25624" lon="-1.70035">
        <ele>66.3</ele>
        <time>2014-10-12T09:25:05Z</time>
      </trkpt>
      <trkpt lat="47.25618" lon="-1.70037">
        <ele>66.2</ele>
        <time>2014-10-12T09:25:07Z</time>
      </trkpt>
      <trkpt lat="47.25614" lon="-1.70039">
        <ele>66.1</ele>
        <time>2014-10-12T09:25:09Z</time>
      </trkpt>
      <trkpt lat="47.25609" lon="-1.70041">
        <ele>66</ele>
        <time>2014-10-12T09:25:11Z</time>
      </trkpt>
      <trkpt lat="47.25605" lon="-1.70043">
        <ele>66</ele>
        <time>2014-10-12T09:25:13Z</time>
      </trkpt>
      <trkpt lat="47.25601" lon="-1.70045">
        <ele>66</ele>
        <time>2014-10-12T09:25:15Z</time>
      </trkpt>
      <trkpt lat="47.25598" lon="-1.70046">
        <ele>66</ele>
        <time>2014-10-12T09:25:17Z</time>
      </trkpt>
      <trkpt lat="47.25593" lon="-1.70048">
        <ele>66</ele>
        <time>2014-10-12T09:25:19Z</time>
      </trkpt>
      <trkpt lat="47.2559" lon="-1.70049">
        <ele>66</ele>
        <time>2014-10-12T09:25:20Z</time>
      </trkpt>
      <trkpt lat="47.25585" lon="-1.7005">
        <ele>65.9</ele>
        <time>2014-10-12T09:25:21Z</time>
      </trkpt>
      <trkpt lat="47.25582" lon="-1.70052">
        <ele>65.9</ele>
        <time>2014-10-12T09:25:22Z</time>
      </trkpt>
      <trkpt lat="47.25579" lon="-1.70051">
        <ele>65.9</ele>
        <time>2014-10-12T09:25:23Z</time>
      </trkpt>
      <trkpt lat="47.25576" lon="-1.70052">
        <ele>65.9</ele>
        <time>2014-10-12T09:25:24Z</time>
      </trkpt>
      <trkpt lat="47.25572" lon="-1.70053">
        <ele>66</ele>
        <time>2014-10-12T09:25:25Z</time>
      </trkpt>
      <trkpt lat="47.25569" lon="-1.70053">
        <ele>66</ele>
        <time>2014-10-12T09:25:26Z</time>
      </trkpt>
      <trkpt lat="47.25565" lon="-1.70054">
        <ele>66</ele>
        <time>2014-10-12T09:25:28Z</time>
      </trkpt>
      <trkpt lat="47.2556" lon="-1.70053">
        <ele>66</ele>
        <time>2014-10-12T09:25:30Z</time>
      </trkpt>
      <trkpt lat="47.25555" lon="-1.70055">
        <ele>66</ele>
        <time>2014-10-12T09:25:32Z</time>
      </trkpt>
      <trkpt lat="47.25553" lon="-1.70056">
        <ele>66</ele>
        <time>2014-10-12T09:25:33Z</time>
      </trkpt>
      <trkpt lat="47.2555" lon="-1.70058">
        <ele>66</ele>
        <time>2014-10-12T09:25:34Z</time>
      </trkpt>
      <trkpt lat="47.25546" lon="-1.70059">
        <ele>66</ele>
        <time>2014-10-12T09:25:36Z</time>
      </trkpt>
      <trkpt lat="47.25542" lon="-1.7006">
        <ele>66</ele>
        <time>2014-10-12T09:25:38Z</time>
      </trkpt>
      <trkpt lat="47.25538" lon="-1.70061">
        <ele>66.1</ele>
        <time>2014-10-12T09:25:40Z</time>
      </trkpt>
      <trkpt lat="47.25534" lon="-1.70064">
        <ele>66.2</ele>
        <time>2014-10-12T09:25:42Z</time>
      </trkpt>
      <trkpt lat="47.25529" lon="-1.70066">
        <ele>66.3</ele>
        <time>2014-10-12T09:25:44Z</time>
      </trkpt>
      <trkpt lat="47.25527" lon="-1.70067">
        <ele>66.3</ele>
        <time>2014-10-12T09:25:45Z</time>
      </trkpt>
      <trkpt lat="47.25523" lon="-1.70071">
        <ele>66.4</ele>
        <time>2014-10-12T09:25:47Z</time>
      </trkpt>
      <trkpt lat="47.2552" lon="-1.70073">
        <ele>66.4</ele>
        <time>2014-10-12T09:25:48Z</time>
      </trkpt>
      <trkpt lat="47.25517" lon="-1.70076">
        <ele>66.5</ele>
        <time>2014-10-12T09:25:49Z</time>
      </trkpt>
      <trkpt lat="47.25514" lon="-1.70078">
        <ele>66.5</ele>
        <time>2014-10-12T09:25:50Z</time>
      </trkpt>
      <trkpt lat="47.25511" lon="-1.7008">
        <ele>66.6</ele>
        <time>2014-10-12T09:25:51Z</time>
      </trkpt>
      <trkpt lat="47.25508" lon="-1.70081">
        <ele>66.6</ele>
        <time>2014-10-12T09:25:52Z</time>
      </trkpt>
      <trkpt lat="47.25504" lon="-1.70084">
        <ele>66.7</ele>
        <time>2014-10-12T09:25:53Z</time>
      </trkpt>
      <trkpt lat="47.25501" lon="-1.70086">
        <ele>66.7</ele>
        <time>2014-10-12T09:25:54Z</time>
      </trkpt>
      <trkpt lat="47.25497" lon="-1.70088">
        <ele>66.8</ele>
        <time>2014-10-12T09:25:55Z</time>
      </trkpt>
      <trkpt lat="47.25495" lon="-1.7009">
        <ele>66.8</ele>
        <time>2014-10-12T09:25:56Z</time>
      </trkpt>
      <trkpt lat="47.25492" lon="-1.70092">
        <ele>66.8</ele>
        <time>2014-10-12T09:25:57Z</time>
      </trkpt>
      <trkpt lat="47.25489" lon="-1.70093">
        <ele>66.9</ele>
        <time>2014-10-12T09:25:59Z</time>
      </trkpt>
      <trkpt lat="47.25485" lon="-1.70097">
        <ele>66.9</ele>
        <time>2014-10-12T09:26:01Z</time>
      </trkpt>
      <trkpt lat="47.25482" lon="-1.70101">
        <ele>66.9</ele>
        <time>2014-10-12T09:26:03Z</time>
      </trkpt>
      <trkpt lat="47.25477" lon="-1.70105">
        <ele>67</ele>
        <time>2014-10-12T09:26:05Z</time>
      </trkpt>
      <trkpt lat="47.25473" lon="-1.70108">
        <ele>67</ele>
        <time>2014-10-12T09:26:07Z</time>
      </trkpt>
      <trkpt lat="47.2547" lon="-1.70109">
        <ele>67</ele>
        <time>2014-10-12T09:26:09Z</time>
      </trkpt>
      <trkpt lat="47.25466" lon="-1.70111">
        <ele>67.1</ele>
        <time>2014-10-12T09:26:11Z</time>
      </trkpt>
      <trkpt lat="47.25462" lon="-1.70112">
        <ele>67.1</ele>
        <time>2014-10-12T09:26:13Z</time>
      </trkpt>
      <trkpt lat="47.25459" lon="-1.70112">
        <ele>67.1</ele>
        <time>2014-10-12T09:26:15Z</time>
      </trkpt>
      <trkpt lat="47.25455" lon="-1.70113">
        <ele>67</ele>
        <time>2014-10-12T09:26:17Z</time>
      </trkpt>
      <trkpt lat="47.25451" lon="-1.70112">
        <ele>66.8</ele>
        <time>2014-10-12T09:26:19Z</time>
      </trkpt>
      <trkpt lat="47.25448" lon="-1.70111">
        <ele>66.7</ele>
        <time>2014-10-12T09:26:20Z</time>
      </trkpt>
      <trkpt lat="47.25445" lon="-1.7011">
        <ele>66.5</ele>
        <time>2014-10-12T09:26:21Z</time>
      </trkpt>
      <trkpt lat="47.25442" lon="-1.70108">
        <ele>66.4</ele>
        <time>2014-10-12T09:26:22Z</time>
      </trkpt>
      <trkpt lat="47.25434" lon="-1.70107">
        <ele>66</ele>
        <time>2014-10-12T09:26:23Z</time>
      </trkpt>
      <trkpt lat="47.25431" lon="-1.70105">
        <ele>65.9</ele>
        <time>2014-10-12T09:26:24Z</time>
      </trkpt>
      <trkpt lat="47.25427" lon="-1.70103">
        <ele>65.8</ele>
        <time>2014-10-12T09:26:26Z</time>
      </trkpt>
      <trkpt lat="47.25423" lon="-1.70101">
        <ele>65.6</ele>
        <time>2014-10-12T09:26:28Z</time>
      </trkpt>
      <trkpt lat="47.25416" lon="-1.701">
        <ele>65.3</ele>
        <time>2014-10-12T09:26:30Z</time>
      </trkpt>
      <trkpt lat="47.25413" lon="-1.70099">
        <ele>65.1</ele>
        <time>2014-10-12T09:26:31Z</time>
      </trkpt>
      <trkpt lat="47.25408" lon="-1.70097">
        <ele>64.9</ele>
        <time>2014-10-12T09:26:33Z</time>
      </trkpt>
      <trkpt lat="47.25404" lon="-1.70095">
        <ele>64.8</ele>
        <time>2014-10-12T09:26:35Z</time>
      </trkpt>
      <trkpt lat="47.254" lon="-1.70093">
        <ele>64.6</ele>
        <time>2014-10-12T09:26:37Z</time>
      </trkpt>
      <trkpt lat="47.25396" lon="-1.70091">
        <ele>64.4</ele>
        <time>2014-10-12T09:26:39Z</time>
      </trkpt>
      <trkpt lat="47.25393" lon="-1.7009">
        <ele>64.3</ele>
        <time>2014-10-12T09:26:40Z</time>
      </trkpt>
      <trkpt lat="47.2539" lon="-1.70089">
        <ele>64.2</ele>
        <time>2014-10-12T09:26:41Z</time>
      </trkpt>
      <trkpt lat="47.25386" lon="-1.70087">
        <ele>64</ele>
        <time>2014-10-12T09:26:43Z</time>
      </trkpt>
      <trkpt lat="47.25383" lon="-1.70084">
        <ele>63.9</ele>
        <time>2014-10-12T09:26:45Z</time>
      </trkpt>
      <trkpt lat="47.2538" lon="-1.70081">
        <ele>63.8</ele>
        <time>2014-10-12T09:26:47Z</time>
      </trkpt>
      <trkpt lat="47.25377" lon="-1.70074">
        <ele>63.7</ele>
        <time>2014-10-12T09:26:49Z</time>
      </trkpt>
      <trkpt lat="47.25376" lon="-1.70067">
        <ele>63.7</ele>
        <time>2014-10-12T09:26:51Z</time>
      </trkpt>
      <trkpt lat="47.25373" lon="-1.70063">
        <ele>63.7</ele>
        <time>2014-10-12T09:26:53Z</time>
      </trkpt>
      <trkpt lat="47.25369" lon="-1.7006">
        <ele>63.8</ele>
        <time>2014-10-12T09:26:54Z</time>
      </trkpt>
      <trkpt lat="47.25364" lon="-1.70058">
        <ele>63.8</ele>
        <time>2014-10-12T09:26:55Z</time>
      </trkpt>
      <trkpt lat="47.2536" lon="-1.70054">
        <ele>63.8</ele>
        <time>2014-10-12T09:26:57Z</time>
      </trkpt>
      <trkpt lat="47.25358" lon="-1.70049">
        <ele>63.9</ele>
        <time>2014-10-12T09:26:59Z</time>
      </trkpt>
      <trkpt lat="47.25356" lon="-1.70045">
        <ele>64</ele>
        <time>2014-10-12T09:27:01Z</time>
      </trkpt>
      <trkpt lat="47.25354" lon="-1.70038">
        <ele>64</ele>
        <time>2014-10-12T09:27:03Z</time>
      </trkpt>
      <trkpt lat="47.25353" lon="-1.70034">
        <ele>64.1</ele>
        <time>2014-10-12T09:27:04Z</time>
      </trkpt>
      <trkpt lat="47.25352" lon="-1.70027">
        <ele>64.2</ele>
        <time>2014-10-12T09:27:06Z</time>
      </trkpt>
      <trkpt lat="47.25353" lon="-1.70018">
        <ele>64.3</ele>
        <time>2014-10-12T09:27:08Z</time>
      </trkpt>
      <trkpt lat="47.25353" lon="-1.70013">
        <ele>64.3</ele>
        <time>2014-10-12T09:27:09Z</time>
      </trkpt>
      <trkpt lat="47.25353" lon="-1.70009">
        <ele>64.4</ele>
        <time>2014-10-12T09:27:10Z</time>
      </trkpt>
      <trkpt lat="47.25353" lon="-1.70002">
        <ele>64.5</ele>
        <time>2014-10-12T09:27:11Z</time>
      </trkpt>
      <trkpt lat="47.25352" lon="-1.69996">
        <ele>64.6</ele>
        <time>2014-10-12T09:27:12Z</time>
      </trkpt>
      <trkpt lat="47.25352" lon="-1.6999">
        <ele>64.6</ele>
        <time>2014-10-12T09:27:13Z</time>
      </trkpt>
      <trkpt lat="47.25351" lon="-1.69984">
        <ele>64.7</ele>
        <time>2014-10-12T09:27:14Z</time>
      </trkpt>
      <trkpt lat="47.2535" lon="-1.69979">
        <ele>64.8</ele>
        <time>2014-10-12T09:27:15Z</time>
      </trkpt>
      <trkpt lat="47.25349" lon="-1.69971">
        <ele>64.9</ele>
        <time>2014-10-12T09:27:17Z</time>
      </trkpt>
      <trkpt lat="47.25349" lon="-1.69965">
        <ele>64.9</ele>
        <time>2014-10-12T09:27:18Z</time>
      </trkpt>
      <trkpt lat="47.25347" lon="-1.6996">
        <ele>65</ele>
        <time>2014-10-12T09:27:19Z</time>
      </trkpt>
      <trkpt lat="47.25345" lon="-1.69954">
        <ele>64.9</ele>
        <time>2014-10-12T09:27:20Z</time>
      </trkpt>
      <trkpt lat="47.25344" lon="-1.69947">
        <ele>64.7</ele>
        <time>2014-10-12T09:27:21Z</time>
      </trkpt>
      <trkpt lat="47.25344" lon="-1.6994">
        <ele>64.5</ele>
        <time>2014-10-12T09:27:22Z</time>
      </trkpt>
      <trkpt lat="47.25345" lon="-1.69935">
        <ele>64.4</ele>
        <time>2014-10-12T09:27:23Z</time>
      </trkpt>
      <trkpt lat="47.25346" lon="-1.69931">
        <ele>64.2</ele>
        <time>2014-10-12T09:27:24Z</time>
      </trkpt>
      <trkpt lat="47.25345" lon="-1.69923">
        <ele>64</ele>
        <time>2014-10-12T09:27:25Z</time>
      </trkpt>
      <trkpt lat="47.25346" lon="-1.69918">
        <ele>63.9</ele>
        <time>2014-10-12T09:27:26Z</time>
      </trkpt>
      <trkpt lat="47.25348" lon="-1.69913">
        <ele>63.7</ele>
        <time>2014-10-12T09:27:27Z</time>
      </trkpt>
      <trkpt lat="47.2535" lon="-1.69909">
        <ele>63.6</ele>
        <time>2014-10-12T09:27:28Z</time>
      </trkpt>
      <trkpt lat="47.25352" lon="-1.69905">
        <ele>63.4</ele>
        <time>2014-10-12T09:27:29Z</time>
      </trkpt>
      <trkpt lat="47.25353" lon="-1.69901">
        <ele>63.3</ele>
        <time>2014-10-12T09:27:30Z</time>
      </trkpt>
      <trkpt lat="47.25355" lon="-1.69898">
        <ele>63.2</ele>
        <time>2014-10-12T09:27:31Z</time>
      </trkpt>
      <trkpt lat="47.25357" lon="-1.69895">
        <ele>63</ele>
        <time>2014-10-12T09:27:32Z</time>
      </trkpt>
      <trkpt lat="47.2536" lon="-1.69888">
        <ele>62.8</ele>
        <time>2014-10-12T09:27:34Z</time>
      </trkpt>
      <trkpt lat="47.25362" lon="-1.69885">
        <ele>62.6</ele>
        <time>2014-10-12T09:27:35Z</time>
      </trkpt>
      <trkpt lat="47.25365" lon="-1.69881">
        <ele>62.5</ele>
        <time>2014-10-12T09:27:36Z</time>
      </trkpt>
      <trkpt lat="47.25368" lon="-1.69877">
        <ele>62.2</ele>
        <time>2014-10-12T09:27:37Z</time>
      </trkpt>
      <trkpt lat="47.2537" lon="-1.69872">
        <ele>62.1</ele>
        <time>2014-10-12T09:27:38Z</time>
      </trkpt>
      <trkpt lat="47.25373" lon="-1.69867">
        <ele>61.9</ele>
        <time>2014-10-12T09:27:39Z</time>
      </trkpt>
      <trkpt lat="47.25374" lon="-1.69863">
        <ele>61.9</ele>
        <time>2014-10-12T09:27:40Z</time>
      </trkpt>
      <trkpt lat="47.25377" lon="-1.69859">
        <ele>61.9</ele>
        <time>2014-10-12T09:27:41Z</time>
      </trkpt>
      <trkpt lat="47.25379" lon="-1.69855">
        <ele>61.9</ele>
        <time>2014-10-12T09:27:42Z</time>
      </trkpt>
      <trkpt lat="47.2538" lon="-1.69851">
        <ele>61.9</ele>
        <time>2014-10-12T09:27:43Z</time>
      </trkpt>
      <trkpt lat="47.25382" lon="-1.69847">
        <ele>61.9</ele>
        <time>2014-10-12T09:27:44Z</time>
      </trkpt>
      <trkpt lat="47.25385" lon="-1.6984">
        <ele>61.9</ele>
        <time>2014-10-12T09:27:46Z</time>
      </trkpt>
      <trkpt lat="47.25387" lon="-1.69837">
        <ele>61.9</ele>
        <time>2014-10-12T09:27:47Z</time>
      </trkpt>
      <trkpt lat="47.25388" lon="-1.69834">
        <ele>61.9</ele>
        <time>2014-10-12T09:27:48Z</time>
      </trkpt>
      <trkpt lat="47.2539" lon="-1.69831">
        <ele>61.9</ele>
        <time>2014-10-12T09:27:49Z</time>
      </trkpt>
      <trkpt lat="47.25395" lon="-1.69827">
        <ele>62</ele>
        <time>2014-10-12T09:27:51Z</time>
      </trkpt>
      <trkpt lat="47.25397" lon="-1.69824">
        <ele>62</ele>
        <time>2014-10-12T09:27:52Z</time>
      </trkpt>
      <trkpt lat="47.25401" lon="-1.69819">
        <ele>62.1</ele>
        <time>2014-10-12T09:27:54Z</time>
      </trkpt>
      <trkpt lat="47.25409" lon="-1.69807">
        <ele>62.1</ele>
        <time>2014-10-12T09:27:56Z</time>
      </trkpt>
      <trkpt lat="47.25412" lon="-1.69805">
        <ele>62.1</ele>
        <time>2014-10-12T09:27:57Z</time>
      </trkpt>
      <trkpt lat="47.25416" lon="-1.69802">
        <ele>62.2</ele>
        <time>2014-10-12T09:27:59Z</time>
      </trkpt>
      <trkpt lat="47.2542" lon="-1.69799">
        <ele>62.2</ele>
        <time>2014-10-12T09:28:00Z</time>
      </trkpt>
      <trkpt lat="47.25424" lon="-1.69796">
        <ele>62.2</ele>
        <time>2014-10-12T09:28:01Z</time>
      </trkpt>
      <trkpt lat="47.2543" lon="-1.69793">
        <ele>62.3</ele>
        <time>2014-10-12T09:28:03Z</time>
      </trkpt>
      <trkpt lat="47.25433" lon="-1.69791">
        <ele>62.4</ele>
        <time>2014-10-12T09:28:04Z</time>
      </trkpt>
      <trkpt lat="47.25436" lon="-1.69789">
        <ele>62.3</ele>
        <time>2014-10-12T09:28:05Z</time>
      </trkpt>
      <trkpt lat="47.25441" lon="-1.69788">
        <ele>62.4</ele>
        <time>2014-10-12T09:28:07Z</time>
      </trkpt>
      <trkpt lat="47.25444" lon="-1.69786">
        <ele>62.4</ele>
        <time>2014-10-12T09:28:08Z</time>
      </trkpt>
      <trkpt lat="47.25447" lon="-1.69785">
        <ele>62.4</ele>
        <time>2014-10-12T09:28:09Z</time>
      </trkpt>
      <trkpt lat="47.25453" lon="-1.69783">
        <ele>62.5</ele>
        <time>2014-10-12T09:28:11Z</time>
      </trkpt>
      <trkpt lat="47.25455" lon="-1.69783">
        <ele>62.5</ele>
        <time>2014-10-12T09:28:12Z</time>
      </trkpt>
      <trkpt lat="47.25459" lon="-1.69781">
        <ele>62.5</ele>
        <time>2014-10-12T09:28:13Z</time>
      </trkpt>
      <trkpt lat="47.25464" lon="-1.69781">
        <ele>62.8</ele>
        <time>2014-10-12T09:28:15Z</time>
      </trkpt>
      <trkpt lat="47.25468" lon="-1.6978">
        <ele>63.1</ele>
        <time>2014-10-12T09:28:16Z</time>
      </trkpt>
      <trkpt lat="47.25472" lon="-1.69779">
        <ele>63.3</ele>
        <time>2014-10-12T09:28:17Z</time>
      </trkpt>
      <trkpt lat="47.25477" lon="-1.69779">
        <ele>63.6</ele>
        <time>2014-10-12T09:28:19Z</time>
      </trkpt>
      <trkpt lat="47.25481" lon="-1.69777">
        <ele>63.9</ele>
        <time>2014-10-12T09:28:21Z</time>
      </trkpt>
      <trkpt lat="47.25487" lon="-1.69776">
        <ele>64.2</ele>
        <time>2014-10-12T09:28:23Z</time>
      </trkpt>
      <trkpt lat="47.2549" lon="-1.69775">
        <ele>64.3</ele>
        <time>2014-10-12T09:28:24Z</time>
      </trkpt>
      <trkpt lat="47.25492" lon="-1.69774">
        <ele>64.4</ele>
        <time>2014-10-12T09:28:25Z</time>
      </trkpt>
      <trkpt lat="47.25498" lon="-1.69772">
        <ele>64.6</ele>
        <time>2014-10-12T09:28:27Z</time>
      </trkpt>
      <trkpt lat="47.25501" lon="-1.69771">
        <ele>64.8</ele>
        <time>2014-10-12T09:28:28Z</time>
      </trkpt>
      <trkpt lat="47.25505" lon="-1.6977">
        <ele>65.1</ele>
        <time>2014-10-12T09:28:30Z</time>
      </trkpt>
      <trkpt lat="47.25508" lon="-1.69769">
        <ele>65.1</ele>
        <time>2014-10-12T09:28:31Z</time>
      </trkpt>
      <trkpt lat="47.25512" lon="-1.69768">
        <ele>65.4</ele>
        <time>2014-10-12T09:28:33Z</time>
      </trkpt>
      <trkpt lat="47.25517" lon="-1.69767">
        <ele>65.6</ele>
        <time>2014-10-12T09:28:35Z</time>
      </trkpt>
      <trkpt lat="47.25522" lon="-1.69764">
        <ele>65.7</ele>
        <time>2014-10-12T09:28:37Z</time>
      </trkpt>
      <trkpt lat="47.25526" lon="-1.69763">
        <ele>65.9</ele>
        <time>2014-10-12T09:28:39Z</time>
      </trkpt>
      <trkpt lat="47.2553" lon="-1.69761">
        <ele>66.1</ele>
        <time>2014-10-12T09:28:41Z</time>
      </trkpt>
      <trkpt lat="47.25533" lon="-1.6976">
        <ele>66.2</ele>
        <time>2014-10-12T09:28:42Z</time>
      </trkpt>
      <trkpt lat="47.25538" lon="-1.69757">
        <ele>66.2</ele>
        <time>2014-10-12T09:28:44Z</time>
      </trkpt>
      <trkpt lat="47.25541" lon="-1.69755">
        <ele>66.3</ele>
        <time>2014-10-12T09:28:45Z</time>
      </trkpt>
      <trkpt lat="47.25544" lon="-1.69749">
        <ele>65.9</ele>
        <time>2014-10-12T09:28:47Z</time>
      </trkpt>
      <trkpt lat="47.25547" lon="-1.69743">
        <ele>65.4</ele>
        <time>2014-10-12T09:28:49Z</time>
      </trkpt>
      <trkpt lat="47.25551" lon="-1.69737">
        <ele>64.9</ele>
        <time>2014-10-12T09:28:51Z</time>
      </trkpt>
      <trkpt lat="47.25553" lon="-1.69734">
        <ele>64.7</ele>
        <time>2014-10-12T09:28:52Z</time>
      </trkpt>
      <trkpt lat="47.25557" lon="-1.69731">
        <ele>64.4</ele>
        <time>2014-10-12T09:28:53Z</time>
      </trkpt>
      <trkpt lat="47.25559" lon="-1.69726">
        <ele>64</ele>
        <time>2014-10-12T09:28:54Z</time>
      </trkpt>
      <trkpt lat="47.25563" lon="-1.69722">
        <ele>63.7</ele>
        <time>2014-10-12T09:28:55Z</time>
      </trkpt>
      <trkpt lat="47.25564" lon="-1.69717">
        <ele>63.3</ele>
        <time>2014-10-12T09:28:56Z</time>
      </trkpt>
      <trkpt lat="47.25566" lon="-1.69713">
        <ele>63</ele>
        <time>2014-10-12T09:28:57Z</time>
      </trkpt>
      <trkpt lat="47.25573" lon="-1.6971">
        <ele>62.7</ele>
        <time>2014-10-12T09:28:58Z</time>
      </trkpt>
      <trkpt lat="47.25577" lon="-1.69704">
        <ele>62.3</ele>
        <time>2014-10-12T09:28:59Z</time>
      </trkpt>
      <trkpt lat="47.2558" lon="-1.69698">
        <ele>61.9</ele>
        <time>2014-10-12T09:29:00Z</time>
      </trkpt>
      <trkpt lat="47.25584" lon="-1.69694">
        <ele>61.6</ele>
        <time>2014-10-12T09:29:01Z</time>
      </trkpt>
      <trkpt lat="47.25586" lon="-1.6969">
        <ele>61.4</ele>
        <time>2014-10-12T09:29:02Z</time>
      </trkpt>
      <trkpt lat="47.25588" lon="-1.69686">
        <ele>61.2</ele>
        <time>2014-10-12T09:29:03Z</time>
      </trkpt>
      <trkpt lat="47.25588" lon="-1.69681">
        <ele>60.8</ele>
        <time>2014-10-12T09:29:05Z</time>
      </trkpt>
      <trkpt lat="47.25588" lon="-1.69676">
        <ele>60.6</ele>
        <time>2014-10-12T09:29:07Z</time>
      </trkpt>
      <trkpt lat="47.25585" lon="-1.69674">
        <ele>60.4</ele>
        <time>2014-10-12T09:29:09Z</time>
      </trkpt>
      <trkpt lat="47.25581" lon="-1.69672">
        <ele>60.3</ele>
        <time>2014-10-12T09:29:11Z</time>
      </trkpt>
      <trkpt lat="47.25578" lon="-1.6967">
        <ele>60.2</ele>
        <time>2014-10-12T09:29:13Z</time>
      </trkpt>
      <trkpt lat="47.25575" lon="-1.69669">
        <ele>60.1</ele>
        <time>2014-10-12T09:29:14Z</time>
      </trkpt>
      <trkpt lat="47.25572" lon="-1.69668">
        <ele>60.1</ele>
        <time>2014-10-12T09:29:15Z</time>
      </trkpt>
      <trkpt lat="47.25569" lon="-1.69666">
        <ele>59.9</ele>
        <time>2014-10-12T09:29:16Z</time>
      </trkpt>
      <trkpt lat="47.25566" lon="-1.69665">
        <ele>59.9</ele>
        <time>2014-10-12T09:29:17Z</time>
      </trkpt>
      <trkpt lat="47.25562" lon="-1.69664">
        <ele>59.8</ele>
        <time>2014-10-12T09:29:18Z</time>
      </trkpt>
      <trkpt lat="47.25558" lon="-1.69663">
        <ele>59.8</ele>
        <time>2014-10-12T09:29:19Z</time>
      </trkpt>
      <trkpt lat="47.25555" lon="-1.69663">
        <ele>59.7</ele>
        <time>2014-10-12T09:29:20Z</time>
      </trkpt>
      <trkpt lat="47.25552" lon="-1.69662">
        <ele>59.7</ele>
        <time>2014-10-12T09:29:21Z</time>
      </trkpt>
      <trkpt lat="47.25548" lon="-1.69662">
        <ele>59.7</ele>
        <time>2014-10-12T09:29:22Z</time>
      </trkpt>
      <trkpt lat="47.25543" lon="-1.6966">
        <ele>59.5</ele>
        <time>2014-10-12T09:29:24Z</time>
      </trkpt>
      <trkpt lat="47.25539" lon="-1.69658">
        <ele>59.3</ele>
        <time>2014-10-12T09:29:25Z</time>
      </trkpt>
      <trkpt lat="47.25535" lon="-1.69656">
        <ele>59.1</ele>
        <time>2014-10-12T09:29:26Z</time>
      </trkpt>
      <trkpt lat="47.2553" lon="-1.69654">
        <ele>58.9</ele>
        <time>2014-10-12T09:29:27Z</time>
      </trkpt>
      <trkpt lat="47.25527" lon="-1.69651">
        <ele>58.7</ele>
        <time>2014-10-12T09:29:28Z</time>
      </trkpt>
      <trkpt lat="47.25523" lon="-1.69648">
        <ele>58.4</ele>
        <time>2014-10-12T09:29:29Z</time>
      </trkpt>
      <trkpt lat="47.2552" lon="-1.69645">
        <ele>58.2</ele>
        <time>2014-10-12T09:29:30Z</time>
      </trkpt>
      <trkpt lat="47.25515" lon="-1.69643">
        <ele>58</ele>
        <time>2014-10-12T09:29:31Z</time>
      </trkpt>
      <trkpt lat="47.25511" lon="-1.69641">
        <ele>57.9</ele>
        <time>2014-10-12T09:29:32Z</time>
      </trkpt>
      <trkpt lat="47.25507" lon="-1.69637">
        <ele>57.6</ele>
        <time>2014-10-12T09:29:33Z</time>
      </trkpt>
      <trkpt lat="47.25504" lon="-1.69635">
        <ele>57.5</ele>
        <time>2014-10-12T09:29:34Z</time>
      </trkpt>
      <trkpt lat="47.255" lon="-1.69632">
        <ele>57.3</ele>
        <time>2014-10-12T09:29:35Z</time>
      </trkpt>
      <trkpt lat="47.25496" lon="-1.69629">
        <ele>57.2</ele>
        <time>2014-10-12T09:29:36Z</time>
      </trkpt>
      <trkpt lat="47.25492" lon="-1.69626">
        <ele>57</ele>
        <time>2014-10-12T09:29:37Z</time>
      </trkpt>
      <trkpt lat="47.25489" lon="-1.69623">
        <ele>57</ele>
        <time>2014-10-12T09:29:38Z</time>
      </trkpt>
      <trkpt lat="47.25484" lon="-1.6962">
        <ele>57.1</ele>
        <time>2014-10-12T09:29:39Z</time>
      </trkpt>
      <trkpt lat="47.25479" lon="-1.69617">
        <ele>57.1</ele>
        <time>2014-10-12T09:29:40Z</time>
      </trkpt>
      <trkpt lat="47.25476" lon="-1.69614">
        <ele>57.2</ele>
        <time>2014-10-12T09:29:41Z</time>
      </trkpt>
      <trkpt lat="47.25473" lon="-1.69611">
        <ele>57.2</ele>
        <time>2014-10-12T09:29:42Z</time>
      </trkpt>
      <trkpt lat="47.25468" lon="-1.69608">
        <ele>57.3</ele>
        <time>2014-10-12T09:29:43Z</time>
      </trkpt>
      <trkpt lat="47.25465" lon="-1.69604">
        <ele>57.4</ele>
        <time>2014-10-12T09:29:44Z</time>
      </trkpt>
      <trkpt lat="47.25463" lon="-1.69601">
        <ele>57.5</ele>
        <time>2014-10-12T09:29:45Z</time>
      </trkpt>
      <trkpt lat="47.25461" lon="-1.69595">
        <ele>57.7</ele>
        <time>2014-10-12T09:29:47Z</time>
      </trkpt>
      <trkpt lat="47.25461" lon="-1.6959">
        <ele>57.8</ele>
        <time>2014-10-12T09:29:49Z</time>
      </trkpt>
      <trkpt lat="47.25463" lon="-1.69585">
        <ele>57.9</ele>
        <time>2014-10-12T09:29:51Z</time>
      </trkpt>
      <trkpt lat="47.25462" lon="-1.69578">
        <ele>58</ele>
        <time>2014-10-12T09:29:53Z</time>
      </trkpt>
      <trkpt lat="47.25461" lon="-1.69574">
        <ele>58.2</ele>
        <time>2014-10-12T09:29:54Z</time>
      </trkpt>
      <trkpt lat="47.25458" lon="-1.69564">
        <ele>58.5</ele>
        <time>2014-10-12T09:29:56Z</time>
      </trkpt>
      <trkpt lat="47.25459" lon="-1.6956">
        <ele>58.6</ele>
        <time>2014-10-12T09:29:58Z</time>
      </trkpt>
      <trkpt lat="47.2546" lon="-1.69556">
        <ele>58.6</ele>
        <time>2014-10-12T09:30:00Z</time>
      </trkpt>
      <trkpt lat="47.25463" lon="-1.69554">
        <ele>58.6</ele>
        <time>2014-10-12T09:30:01Z</time>
      </trkpt>
      <trkpt lat="47.25461" lon="-1.69549">
        <ele>58.8</ele>
        <time>2014-10-12T09:30:02Z</time>
      </trkpt>
      <trkpt lat="47.25462" lon="-1.69545">
        <ele>58.8</ele>
        <time>2014-10-12T09:30:03Z</time>
      </trkpt>
      <trkpt lat="47.25463" lon="-1.69537">
        <ele>58.8</ele>
        <time>2014-10-12T09:30:05Z</time>
      </trkpt>
      <trkpt lat="47.25464" lon="-1.69533">
        <ele>58.8</ele>
        <time>2014-10-12T09:30:06Z</time>
      </trkpt>
      <trkpt lat="47.25465" lon="-1.69529">
        <ele>58.7</ele>
        <time>2014-10-12T09:30:07Z</time>
      </trkpt>
      <trkpt lat="47.25468" lon="-1.69522">
        <ele>58.6</ele>
        <time>2014-10-12T09:30:09Z</time>
      </trkpt>
      <trkpt lat="47.2547" lon="-1.69517">
        <ele>58.5</ele>
        <time>2014-10-12T09:30:10Z</time>
      </trkpt>
      <trkpt lat="47.25471" lon="-1.69512">
        <ele>58.5</ele>
        <time>2014-10-12T09:30:11Z</time>
      </trkpt>
      <trkpt lat="47.25472" lon="-1.69507">
        <ele>58.4</ele>
        <time>2014-10-12T09:30:12Z</time>
      </trkpt>
      <trkpt lat="47.25474" lon="-1.69501">
        <ele>58.4</ele>
        <time>2014-10-12T09:30:13Z</time>
      </trkpt>
      <trkpt lat="47.25475" lon="-1.69497">
        <ele>58.3</ele>
        <time>2014-10-12T09:30:14Z</time>
      </trkpt>
      <trkpt lat="47.25477" lon="-1.6949">
        <ele>58.2</ele>
        <time>2014-10-12T09:30:16Z</time>
      </trkpt>
      <trkpt lat="47.25478" lon="-1.69486">
        <ele>58.1</ele>
        <time>2014-10-12T09:30:17Z</time>
      </trkpt>
      <trkpt lat="47.25479" lon="-1.69482">
        <ele>58.1</ele>
        <time>2014-10-12T09:30:18Z</time>
      </trkpt>
      <trkpt lat="47.2548" lon="-1.69478">
        <ele>58</ele>
        <time>2014-10-12T09:30:19Z</time>
      </trkpt>
      <trkpt lat="47.25482" lon="-1.69474">
        <ele>57.9</ele>
        <time>2014-10-12T09:30:20Z</time>
      </trkpt>
      <trkpt lat="47.25483" lon="-1.6947">
        <ele>57.9</ele>
        <time>2014-10-12T09:30:21Z</time>
      </trkpt>
      <trkpt lat="47.25482" lon="-1.69465">
        <ele>57.9</ele>
        <time>2014-10-12T09:30:22Z</time>
      </trkpt>
      <trkpt lat="47.25483" lon="-1.69459">
        <ele>57.8</ele>
        <time>2014-10-12T09:30:24Z</time>
      </trkpt>
      <trkpt lat="47.25485" lon="-1.69456">
        <ele>57.7</ele>
        <time>2014-10-12T09:30:25Z</time>
      </trkpt>
      <trkpt lat="47.25488" lon="-1.69451">
        <ele>57.5</ele>
        <time>2014-10-12T09:30:27Z</time>
      </trkpt>
      <trkpt lat="47.25493" lon="-1.69447">
        <ele>57.3</ele>
        <time>2014-10-12T09:30:29Z</time>
      </trkpt>
      <trkpt lat="47.25497" lon="-1.69443">
        <ele>57.1</ele>
        <time>2014-10-12T09:30:31Z</time>
      </trkpt>
      <trkpt lat="47.25499" lon="-1.6944">
        <ele>57</ele>
        <time>2014-10-12T09:30:33Z</time>
      </trkpt>
      <trkpt lat="47.25501" lon="-1.69436">
        <ele>56.8</ele>
        <time>2014-10-12T09:30:35Z</time>
      </trkpt>
      <trkpt lat="47.25504" lon="-1.69432">
        <ele>56.7</ele>
        <time>2014-10-12T09:30:37Z</time>
      </trkpt>
      <trkpt lat="47.25507" lon="-1.6943">
        <ele>56.5</ele>
        <time>2014-10-12T09:30:38Z</time>
      </trkpt>
      <trkpt lat="47.25509" lon="-1.69427">
        <ele>56.4</ele>
        <time>2014-10-12T09:30:40Z</time>
      </trkpt>
      <trkpt lat="47.25515" lon="-1.6942">
        <ele>56.1</ele>
        <time>2014-10-12T09:30:43Z</time>
      </trkpt>
      <trkpt lat="47.25518" lon="-1.69415">
        <ele>56</ele>
        <time>2014-10-12T09:30:44Z</time>
      </trkpt>
      <trkpt lat="47.25522" lon="-1.6941">
        <ele>55.8</ele>
        <time>2014-10-12T09:30:46Z</time>
      </trkpt>
      <trkpt lat="47.25524" lon="-1.69406">
        <ele>55.7</ele>
        <time>2014-10-12T09:30:47Z</time>
      </trkpt>
      <trkpt lat="47.25527" lon="-1.69404">
        <ele>55.6</ele>
        <time>2014-10-12T09:30:48Z</time>
      </trkpt>
      <trkpt lat="47.2553" lon="-1.694">
        <ele>55.5</ele>
        <time>2014-10-12T09:30:49Z</time>
      </trkpt>
      <trkpt lat="47.25533" lon="-1.69397">
        <ele>55.3</ele>
        <time>2014-10-12T09:30:50Z</time>
      </trkpt>
      <trkpt lat="47.25537" lon="-1.69394">
        <ele>55.2</ele>
        <time>2014-10-12T09:30:51Z</time>
      </trkpt>
      <trkpt lat="47.25539" lon="-1.69391">
        <ele>55.1</ele>
        <time>2014-10-12T09:30:52Z</time>
      </trkpt>
      <trkpt lat="47.25542" lon="-1.69388">
        <ele>55</ele>
        <time>2014-10-12T09:30:53Z</time>
      </trkpt>
      <trkpt lat="47.25545" lon="-1.69383">
        <ele>54.9</ele>
        <time>2014-10-12T09:30:54Z</time>
      </trkpt>
      <trkpt lat="47.25547" lon="-1.69379">
        <ele>54.8</ele>
        <time>2014-10-12T09:30:55Z</time>
      </trkpt>
      <trkpt lat="47.25549" lon="-1.69375">
        <ele>54.7</ele>
        <time>2014-10-12T09:30:56Z</time>
      </trkpt>
      <trkpt lat="47.25552" lon="-1.6937">
        <ele>54.6</ele>
        <time>2014-10-12T09:30:57Z</time>
      </trkpt>
      <trkpt lat="47.25555" lon="-1.69364">
        <ele>54.6</ele>
        <time>2014-10-12T09:30:59Z</time>
      </trkpt>
      <trkpt lat="47.25557" lon="-1.69362">
        <ele>54.5</ele>
        <time>2014-10-12T09:31:00Z</time>
      </trkpt>
      <trkpt lat="47.25561" lon="-1.69355">
        <ele>54.3</ele>
        <time>2014-10-12T09:31:02Z</time>
      </trkpt>
      <trkpt lat="47.25562" lon="-1.69351">
        <ele>54.3</ele>
        <time>2014-10-12T09:31:03Z</time>
      </trkpt>
      <trkpt lat="47.25563" lon="-1.69347">
        <ele>54.3</ele>
        <time>2014-10-12T09:31:04Z</time>
      </trkpt>
      <trkpt lat="47.25563" lon="-1.69343">
        <ele>54.3</ele>
        <time>2014-10-12T09:31:05Z</time>
      </trkpt>
      <trkpt lat="47.25563" lon="-1.69338">
        <ele>54.4</ele>
        <time>2014-10-12T09:31:06Z</time>
      </trkpt>
      <trkpt lat="47.25562" lon="-1.69334">
        <ele>54.4</ele>
        <time>2014-10-12T09:31:07Z</time>
      </trkpt>
      <trkpt lat="47.25562" lon="-1.6933">
        <ele>54.4</ele>
        <time>2014-10-12T09:31:08Z</time>
      </trkpt>
      <trkpt lat="47.25561" lon="-1.69326">
        <ele>54.4</ele>
        <time>2014-10-12T09:31:09Z</time>
      </trkpt>
      <trkpt lat="47.25562" lon="-1.69318">
        <ele>54.4</ele>
        <time>2014-10-12T09:31:11Z</time>
      </trkpt>
      <trkpt lat="47.25564" lon="-1.69308">
        <ele>54.4</ele>
        <time>2014-10-12T09:31:13Z</time>
      </trkpt>
      <trkpt lat="47.25566" lon="-1.693">
        <ele>54.4</ele>
        <time>2014-10-12T09:31:14Z</time>
      </trkpt>
      <trkpt lat="47.25567" lon="-1.69295">
        <ele>54.4</ele>
        <time>2014-10-12T09:31:15Z</time>
      </trkpt>
      <trkpt lat="47.25568" lon="-1.6929">
        <ele>54.3</ele>
        <time>2014-10-12T09:31:16Z</time>
      </trkpt>
      <trkpt lat="47.25568" lon="-1.69286">
        <ele>54.3</ele>
        <time>2014-10-12T09:31:17Z</time>
      </trkpt>
      <trkpt lat="47.25568" lon="-1.69279">
        <ele>54.2</ele>
        <time>2014-10-12T09:31:19Z</time>
      </trkpt>
      <trkpt lat="47.25568" lon="-1.69275">
        <ele>54.2</ele>
        <time>2014-10-12T09:31:20Z</time>
      </trkpt>
      <trkpt lat="47.25569" lon="-1.69267">
        <ele>54</ele>
        <time>2014-10-12T09:31:22Z</time>
      </trkpt>
      <trkpt lat="47.25571" lon="-1.69262">
        <ele>53.9</ele>
        <time>2014-10-12T09:31:24Z</time>
      </trkpt>
      <trkpt lat="47.25569" lon="-1.69255">
        <ele>53.9</ele>
        <time>2014-10-12T09:31:26Z</time>
      </trkpt>
      <trkpt lat="47.25568" lon="-1.69251">
        <ele>53.9</ele>
        <time>2014-10-12T09:31:27Z</time>
      </trkpt>
      <trkpt lat="47.25567" lon="-1.69244">
        <ele>53.8</ele>
        <time>2014-10-12T09:31:29Z</time>
      </trkpt>
      <trkpt lat="47.25568" lon="-1.69238">
        <ele>53.7</ele>
        <time>2014-10-12T09:31:31Z</time>
      </trkpt>
      <trkpt lat="47.25567" lon="-1.69232">
        <ele>53.7</ele>
        <time>2014-10-12T09:31:33Z</time>
      </trkpt>
      <trkpt lat="47.25565" lon="-1.69227">
        <ele>53.7</ele>
        <time>2014-10-12T09:31:35Z</time>
      </trkpt>
      <trkpt lat="47.25563" lon="-1.69222">
        <ele>53.6</ele>
        <time>2014-10-12T09:31:38Z</time>
      </trkpt>
      <trkpt lat="47.2556" lon="-1.69217">
        <ele>53.7</ele>
        <time>2014-10-12T09:31:40Z</time>
      </trkpt>
      <trkpt lat="47.25557" lon="-1.69212">
        <ele>53.7</ele>
        <time>2014-10-12T09:31:42Z</time>
      </trkpt>
      <trkpt lat="47.25554" lon="-1.69202">
        <ele>53.6</ele>
        <time>2014-10-12T09:31:44Z</time>
      </trkpt>
      <trkpt lat="47.25553" lon="-1.69198">
        <ele>53.6</ele>
        <time>2014-10-12T09:31:45Z</time>
      </trkpt>
      <trkpt lat="47.25551" lon="-1.69193">
        <ele>53.6</ele>
        <time>2014-10-12T09:31:46Z</time>
      </trkpt>
      <trkpt lat="47.25549" lon="-1.69187">
        <ele>53.6</ele>
        <time>2014-10-12T09:31:48Z</time>
      </trkpt>
      <trkpt lat="47.25548" lon="-1.69181">
        <ele>53.5</ele>
        <time>2014-10-12T09:31:49Z</time>
      </trkpt>
      <trkpt lat="47.25547" lon="-1.69175">
        <ele>53.5</ele>
        <time>2014-10-12T09:31:50Z</time>
      </trkpt>
      <trkpt lat="47.25545" lon="-1.69167">
        <ele>53.4</ele>
        <time>2014-10-12T09:31:52Z</time>
      </trkpt>
      <trkpt lat="47.25544" lon="-1.6916">
        <ele>53.4</ele>
        <time>2014-10-12T09:31:53Z</time>
      </trkpt>
      <trkpt lat="47.25543" lon="-1.69154">
        <ele>53.3</ele>
        <time>2014-10-12T09:31:54Z</time>
      </trkpt>
      <trkpt lat="47.25543" lon="-1.69148">
        <ele>53.2</ele>
        <time>2014-10-12T09:31:55Z</time>
      </trkpt>
      <trkpt lat="47.25543" lon="-1.69143">
        <ele>53.2</ele>
        <time>2014-10-12T09:31:56Z</time>
      </trkpt>
      <trkpt lat="47.25543" lon="-1.69139">
        <ele>53.1</ele>
        <time>2014-10-12T09:31:57Z</time>
      </trkpt>
      <trkpt lat="47.25543" lon="-1.69133">
        <ele>53.1</ele>
        <time>2014-10-12T09:31:58Z</time>
      </trkpt>
      <trkpt lat="47.25543" lon="-1.69128">
        <ele>53</ele>
        <time>2014-10-12T09:31:59Z</time>
      </trkpt>
      <trkpt lat="47.25543" lon="-1.69123">
        <ele>52.9</ele>
        <time>2014-10-12T09:32:00Z</time>
      </trkpt>
      <trkpt lat="47.25543" lon="-1.69117">
        <ele>52.7</ele>
        <time>2014-10-12T09:32:01Z</time>
      </trkpt>
      <trkpt lat="47.25543" lon="-1.6911">
        <ele>52.4</ele>
        <time>2014-10-12T09:32:02Z</time>
      </trkpt>
      <trkpt lat="47.25544" lon="-1.69104">
        <ele>52.2</ele>
        <time>2014-10-12T09:32:03Z</time>
      </trkpt>
      <trkpt lat="47.25545" lon="-1.69098">
        <ele>52</ele>
        <time>2014-10-12T09:32:04Z</time>
      </trkpt>
      <trkpt lat="47.25545" lon="-1.69092">
        <ele>51.8</ele>
        <time>2014-10-12T09:32:05Z</time>
      </trkpt>
      <trkpt lat="47.25545" lon="-1.69086">
        <ele>51.6</ele>
        <time>2014-10-12T09:32:06Z</time>
      </trkpt>
      <trkpt lat="47.25545" lon="-1.69081">
        <ele>51.4</ele>
        <time>2014-10-12T09:32:07Z</time>
      </trkpt>
      <trkpt lat="47.25545" lon="-1.69076">
        <ele>51.2</ele>
        <time>2014-10-12T09:32:08Z</time>
      </trkpt>
      <trkpt lat="47.25545" lon="-1.69071">
        <ele>51</ele>
        <time>2014-10-12T09:32:09Z</time>
      </trkpt>
      <trkpt lat="47.25545" lon="-1.69065">
        <ele>50.8</ele>
        <time>2014-10-12T09:32:10Z</time>
      </trkpt>
      <trkpt lat="47.25546" lon="-1.6906">
        <ele>50.7</ele>
        <time>2014-10-12T09:32:11Z</time>
      </trkpt>
      <trkpt lat="47.25547" lon="-1.69054">
        <ele>50.5</ele>
        <time>2014-10-12T09:32:12Z</time>
      </trkpt>
      <trkpt lat="47.25548" lon="-1.69048">
        <ele>50.3</ele>
        <time>2014-10-12T09:32:13Z</time>
      </trkpt>
      <trkpt lat="47.25549" lon="-1.69043">
        <ele>50.1</ele>
        <time>2014-10-12T09:32:14Z</time>
      </trkpt>
      <trkpt lat="47.25547" lon="-1.69035">
        <ele>50</ele>
        <time>2014-10-12T09:32:15Z</time>
      </trkpt>
      <trkpt lat="47.25548" lon="-1.69027">
        <ele>49.9</ele>
        <time>2014-10-12T09:32:16Z</time>
      </trkpt>
      <trkpt lat="47.25549" lon="-1.69021">
        <ele>49.8</ele>
        <time>2014-10-12T09:32:17Z</time>
      </trkpt>
      <trkpt lat="47.2555" lon="-1.69016">
        <ele>49.8</ele>
        <time>2014-10-12T09:32:18Z</time>
      </trkpt>
      <trkpt lat="47.25551" lon="-1.69012">
        <ele>49.7</ele>
        <time>2014-10-12T09:32:19Z</time>
      </trkpt>
      <trkpt lat="47.25552" lon="-1.69008">
        <ele>49.7</ele>
        <time>2014-10-12T09:32:20Z</time>
      </trkpt>
      <trkpt lat="47.25555" lon="-1.69005">
        <ele>49.6</ele>
        <time>2014-10-12T09:32:21Z</time>
      </trkpt>
      <trkpt lat="47.25558" lon="-1.69002">
        <ele>49.6</ele>
        <time>2014-10-12T09:32:22Z</time>
      </trkpt>
      <trkpt lat="47.2556" lon="-1.69">
        <ele>49.6</ele>
        <time>2014-10-12T09:32:23Z</time>
      </trkpt>
      <trkpt lat="47.25563" lon="-1.68998">
        <ele>49.6</ele>
        <time>2014-10-12T09:32:24Z</time>
      </trkpt>
      <trkpt lat="47.25565" lon="-1.68996">
        <ele>49.6</ele>
        <time>2014-10-12T09:32:25Z</time>
      </trkpt>
      <trkpt lat="47.25568" lon="-1.68993">
        <ele>49.6</ele>
        <time>2014-10-12T09:32:26Z</time>
      </trkpt>
      <trkpt lat="47.25572" lon="-1.68991">
        <ele>49.5</ele>
        <time>2014-10-12T09:32:27Z</time>
      </trkpt>
      <trkpt lat="47.25575" lon="-1.68989">
        <ele>49.5</ele>
        <time>2014-10-12T09:32:28Z</time>
      </trkpt>
      <trkpt lat="47.25578" lon="-1.68986">
        <ele>49.5</ele>
        <time>2014-10-12T09:32:29Z</time>
      </trkpt>
      <trkpt lat="47.25581" lon="-1.68983">
        <ele>49.4</ele>
        <time>2014-10-12T09:32:30Z</time>
      </trkpt>
      <trkpt lat="47.25584" lon="-1.6898">
        <ele>49.4</ele>
        <time>2014-10-12T09:32:31Z</time>
      </trkpt>
      <trkpt lat="47.25587" lon="-1.68977">
        <ele>49.4</ele>
        <time>2014-10-12T09:32:32Z</time>
      </trkpt>
      <trkpt lat="47.25591" lon="-1.68974">
        <ele>49.3</ele>
        <time>2014-10-12T09:32:33Z</time>
      </trkpt>
      <trkpt lat="47.25594" lon="-1.68971">
        <ele>49.3</ele>
        <time>2014-10-12T09:32:34Z</time>
      </trkpt>
      <trkpt lat="47.25597" lon="-1.68968">
        <ele>49.2</ele>
        <time>2014-10-12T09:32:35Z</time>
      </trkpt>
      <trkpt lat="47.256" lon="-1.68965">
        <ele>49.1</ele>
        <time>2014-10-12T09:32:36Z</time>
      </trkpt>
      <trkpt lat="47.25603" lon="-1.68962">
        <ele>49.1</ele>
        <time>2014-10-12T09:32:37Z</time>
      </trkpt>
      <trkpt lat="47.25606" lon="-1.68959">
        <ele>49</ele>
        <time>2014-10-12T09:32:38Z</time>
      </trkpt>
      <trkpt lat="47.25609" lon="-1.68957">
        <ele>49</ele>
        <time>2014-10-12T09:32:39Z</time>
      </trkpt>
      <trkpt lat="47.25612" lon="-1.68954">
        <ele>48.9</ele>
        <time>2014-10-12T09:32:40Z</time>
      </trkpt>
      <trkpt lat="47.25616" lon="-1.68951">
        <ele>48.9</ele>
        <time>2014-10-12T09:32:41Z</time>
      </trkpt>
      <trkpt lat="47.25619" lon="-1.68948">
        <ele>48.8</ele>
        <time>2014-10-12T09:32:42Z</time>
      </trkpt>
      <trkpt lat="47.25622" lon="-1.68945">
        <ele>48.7</ele>
        <time>2014-10-12T09:32:43Z</time>
      </trkpt>
      <trkpt lat="47.25626" lon="-1.68942">
        <ele>48.6</ele>
        <time>2014-10-12T09:32:44Z</time>
      </trkpt>
      <trkpt lat="47.2563" lon="-1.68938">
        <ele>48.6</ele>
        <time>2014-10-12T09:32:45Z</time>
      </trkpt>
      <trkpt lat="47.25633" lon="-1.68934">
        <ele>48.6</ele>
        <time>2014-10-12T09:32:46Z</time>
      </trkpt>
      <trkpt lat="47.25637" lon="-1.6893">
        <ele>48.7</ele>
        <time>2014-10-12T09:32:47Z</time>
      </trkpt>
      <trkpt lat="47.25641" lon="-1.68927">
        <ele>48.7</ele>
        <time>2014-10-12T09:32:48Z</time>
      </trkpt>
      <trkpt lat="47.25645" lon="-1.68924">
        <ele>48.7</ele>
        <time>2014-10-12T09:32:49Z</time>
      </trkpt>
      <trkpt lat="47.25648" lon="-1.6892">
        <ele>48.8</ele>
        <time>2014-10-12T09:32:50Z</time>
      </trkpt>
      <trkpt lat="47.25652" lon="-1.68917">
        <ele>48.8</ele>
        <time>2014-10-12T09:32:51Z</time>
      </trkpt>
      <trkpt lat="47.25656" lon="-1.68913">
        <ele>48.8</ele>
        <time>2014-10-12T09:32:52Z</time>
      </trkpt>
      <trkpt lat="47.25659" lon="-1.6891">
        <ele>48.9</ele>
        <time>2014-10-12T09:32:53Z</time>
      </trkpt>
      <trkpt lat="47.25662" lon="-1.68907">
        <ele>48.9</ele>
        <time>2014-10-12T09:32:54Z</time>
      </trkpt>
      <trkpt lat="47.25665" lon="-1.68903">
        <ele>48.9</ele>
        <time>2014-10-12T09:32:55Z</time>
      </trkpt>
      <trkpt lat="47.25668" lon="-1.689">
        <ele>49</ele>
        <time>2014-10-12T09:32:56Z</time>
      </trkpt>
      <trkpt lat="47.25671" lon="-1.68896">
        <ele>49</ele>
        <time>2014-10-12T09:32:57Z</time>
      </trkpt>
      <trkpt lat="47.25674" lon="-1.68892">
        <ele>49.1</ele>
        <time>2014-10-12T09:32:58Z</time>
      </trkpt>
      <trkpt lat="47.25677" lon="-1.68889">
        <ele>49.1</ele>
        <time>2014-10-12T09:32:59Z</time>
      </trkpt>
      <trkpt lat="47.25681" lon="-1.68886">
        <ele>49.2</ele>
        <time>2014-10-12T09:33:00Z</time>
      </trkpt>
      <trkpt lat="47.25684" lon="-1.68883">
        <ele>49.3</ele>
        <time>2014-10-12T09:33:01Z</time>
      </trkpt>
      <trkpt lat="47.25687" lon="-1.6888">
        <ele>49.3</ele>
        <time>2014-10-12T09:33:02Z</time>
      </trkpt>
      <trkpt lat="47.25691" lon="-1.68877">
        <ele>49.4</ele>
        <time>2014-10-12T09:33:03Z</time>
      </trkpt>
      <trkpt lat="47.25694" lon="-1.68874">
        <ele>49.5</ele>
        <time>2014-10-12T09:33:04Z</time>
      </trkpt>
      <trkpt lat="47.25697" lon="-1.68871">
        <ele>49.6</ele>
        <time>2014-10-12T09:33:05Z</time>
      </trkpt>
      <trkpt lat="47.25701" lon="-1.68873">
        <ele>49.8</ele>
        <time>2014-10-12T09:33:07Z</time>
      </trkpt>
      <trkpt lat="47.25705" lon="-1.68869">
        <ele>49.9</ele>
        <time>2014-10-12T09:33:09Z</time>
      </trkpt>
      <trkpt lat="47.25707" lon="-1.68864">
        <ele>50.1</ele>
        <time>2014-10-12T09:33:10Z</time>
      </trkpt>
      <trkpt lat="47.25708" lon="-1.68859">
        <ele>50.2</ele>
        <time>2014-10-12T09:33:11Z</time>
      </trkpt>
      <trkpt lat="47.2571" lon="-1.68855">
        <ele>50.4</ele>
        <time>2014-10-12T09:33:12Z</time>
      </trkpt>
      <trkpt lat="47.25711" lon="-1.68851">
        <ele>50.5</ele>
        <time>2014-10-12T09:33:13Z</time>
      </trkpt>
      <trkpt lat="47.25711" lon="-1.68847">
        <ele>50.6</ele>
        <time>2014-10-12T09:33:14Z</time>
      </trkpt>
      <trkpt lat="47.2571" lon="-1.6884">
        <ele>50.6</ele>
        <time>2014-10-12T09:33:16Z</time>
      </trkpt>
      <trkpt lat="47.25708" lon="-1.68835">
        <ele>50.5</ele>
        <time>2014-10-12T09:33:18Z</time>
      </trkpt>
      <trkpt lat="47.25707" lon="-1.68831">
        <ele>50.4</ele>
        <time>2014-10-12T09:33:19Z</time>
      </trkpt>
      <trkpt lat="47.25705" lon="-1.68827">
        <ele>50.4</ele>
        <time>2014-10-12T09:33:20Z</time>
      </trkpt>
      <trkpt lat="47.25704" lon="-1.68823">
        <ele>50.4</ele>
        <time>2014-10-12T09:33:21Z</time>
      </trkpt>
      <trkpt lat="47.25702" lon="-1.68819">
        <ele>50.4</ele>
        <time>2014-10-12T09:33:22Z</time>
      </trkpt>
      <trkpt lat="47.25701" lon="-1.68814">
        <ele>50.3</ele>
        <time>2014-10-12T09:33:23Z</time>
      </trkpt>
      <trkpt lat="47.257" lon="-1.6881">
        <ele>50.3</ele>
        <time>2014-10-12T09:33:24Z</time>
      </trkpt>
      <trkpt lat="47.25699" lon="-1.68806">
        <ele>50.3</ele>
        <time>2014-10-12T09:33:25Z</time>
      </trkpt>
      <trkpt lat="47.25697" lon="-1.68799">
        <ele>50.3</ele>
        <time>2014-10-12T09:33:27Z</time>
      </trkpt>
      <trkpt lat="47.25696" lon="-1.68795">
        <ele>50.2</ele>
        <time>2014-10-12T09:33:28Z</time>
      </trkpt>
      <trkpt lat="47.25694" lon="-1.68788">
        <ele>50.1</ele>
        <time>2014-10-12T09:33:30Z</time>
      </trkpt>
      <trkpt lat="47.25692" lon="-1.68781">
        <ele>50</ele>
        <time>2014-10-12T09:33:32Z</time>
      </trkpt>
      <trkpt lat="47.2569" lon="-1.68774">
        <ele>49.8</ele>
        <time>2014-10-12T09:33:34Z</time>
      </trkpt>
      <trkpt lat="47.25687" lon="-1.68767">
        <ele>49.6</ele>
        <time>2014-10-12T09:33:36Z</time>
      </trkpt>
      <trkpt lat="47.25686" lon="-1.68764">
        <ele>49.5</ele>
        <time>2014-10-12T09:33:37Z</time>
      </trkpt>
      <trkpt lat="47.25684" lon="-1.6876">
        <ele>49.4</ele>
        <time>2014-10-12T09:33:38Z</time>
      </trkpt>
      <trkpt lat="47.25683" lon="-1.68756">
        <ele>49.3</ele>
        <time>2014-10-12T09:33:39Z</time>
      </trkpt>
      <trkpt lat="47.25682" lon="-1.68752">
        <ele>49.3</ele>
        <time>2014-10-12T09:33:40Z</time>
      </trkpt>
      <trkpt lat="47.25681" lon="-1.68747">
        <ele>49.2</ele>
        <time>2014-10-12T09:33:41Z</time>
      </trkpt>
      <trkpt lat="47.2568" lon="-1.68743">
        <ele>49.1</ele>
        <time>2014-10-12T09:33:42Z</time>
      </trkpt>
      <trkpt lat="47.25679" lon="-1.68739">
        <ele>49</ele>
        <time>2014-10-12T09:33:43Z</time>
      </trkpt>
      <trkpt lat="47.25678" lon="-1.68735">
        <ele>49</ele>
        <time>2014-10-12T09:33:44Z</time>
      </trkpt>
      <trkpt lat="47.25677" lon="-1.68731">
        <ele>48.9</ele>
        <time>2014-10-12T09:33:45Z</time>
      </trkpt>
      <trkpt lat="47.25675" lon="-1.68726">
        <ele>48.9</ele>
        <time>2014-10-12T09:33:46Z</time>
      </trkpt>
      <trkpt lat="47.25674" lon="-1.68722">
        <ele>48.8</ele>
        <time>2014-10-12T09:33:47Z</time>
      </trkpt>
      <trkpt lat="47.25673" lon="-1.68717">
        <ele>48.7</ele>
        <time>2014-10-12T09:33:48Z</time>
      </trkpt>
      <trkpt lat="47.25672" lon="-1.68713">
        <ele>48.7</ele>
        <time>2014-10-12T09:33:49Z</time>
      </trkpt>
      <trkpt lat="47.25671" lon="-1.68708">
        <ele>48.6</ele>
        <time>2014-10-12T09:33:50Z</time>
      </trkpt>
      <trkpt lat="47.25669" lon="-1.68704">
        <ele>48.6</ele>
        <time>2014-10-12T09:33:51Z</time>
      </trkpt>
      <trkpt lat="47.25668" lon="-1.68699">
        <ele>48.7</ele>
        <time>2014-10-12T09:33:52Z</time>
      </trkpt>
      <trkpt lat="47.25667" lon="-1.68694">
        <ele>48.7</ele>
        <time>2014-10-12T09:33:53Z</time>
      </trkpt>
      <trkpt lat="47.25666" lon="-1.68689">
        <ele>48.7</ele>
        <time>2014-10-12T09:33:54Z</time>
      </trkpt>
      <trkpt lat="47.25666" lon="-1.68685">
        <ele>48.8</ele>
        <time>2014-10-12T09:33:55Z</time>
      </trkpt>
      <trkpt lat="47.25665" lon="-1.6868">
        <ele>48.8</ele>
        <time>2014-10-12T09:33:56Z</time>
      </trkpt>
      <trkpt lat="47.25664" lon="-1.68676">
        <ele>48.8</ele>
        <time>2014-10-12T09:33:57Z</time>
      </trkpt>
      <trkpt lat="47.25664" lon="-1.68668">
        <ele>49</ele>
        <time>2014-10-12T09:33:59Z</time>
      </trkpt>
      <trkpt lat="47.25665" lon="-1.68662">
        <ele>49</ele>
        <time>2014-10-12T09:34:00Z</time>
      </trkpt>
      <trkpt lat="47.25665" lon="-1.68657">
        <ele>49.1</ele>
        <time>2014-10-12T09:34:01Z</time>
      </trkpt>
      <trkpt lat="47.25666" lon="-1.68651">
        <ele>49.2</ele>
        <time>2014-10-12T09:34:02Z</time>
      </trkpt>
      <trkpt lat="47.25666" lon="-1.68646">
        <ele>49.2</ele>
        <time>2014-10-12T09:34:03Z</time>
      </trkpt>
      <trkpt lat="47.25666" lon="-1.68642">
        <ele>49.3</ele>
        <time>2014-10-12T09:34:04Z</time>
      </trkpt>
      <trkpt lat="47.25667" lon="-1.68637">
        <ele>49.4</ele>
        <time>2014-10-12T09:34:05Z</time>
      </trkpt>
      <trkpt lat="47.25667" lon="-1.68632">
        <ele>49.4</ele>
        <time>2014-10-12T09:34:06Z</time>
      </trkpt>
      <trkpt lat="47.25668" lon="-1.68628">
        <ele>49.5</ele>
        <time>2014-10-12T09:34:07Z</time>
      </trkpt>
      <trkpt lat="47.25668" lon="-1.68624">
        <ele>49.5</ele>
        <time>2014-10-12T09:34:08Z</time>
      </trkpt>
      <trkpt lat="47.25668" lon="-1.6862">
        <ele>49.4</ele>
        <time>2014-10-12T09:34:09Z</time>
      </trkpt>
      <trkpt lat="47.25668" lon="-1.68613">
        <ele>49.4</ele>
        <time>2014-10-12T09:34:11Z</time>
      </trkpt>
      <trkpt lat="47.25668" lon="-1.68606">
        <ele>49.4</ele>
        <time>2014-10-12T09:34:13Z</time>
      </trkpt>
      <trkpt lat="47.25669" lon="-1.68599">
        <ele>49.3</ele>
        <time>2014-10-12T09:34:15Z</time>
      </trkpt>
      <trkpt lat="47.2567" lon="-1.68592">
        <ele>49.2</ele>
        <time>2014-10-12T09:34:17Z</time>
      </trkpt>
      <trkpt lat="47.25671" lon="-1.68587">
        <ele>49.2</ele>
        <time>2014-10-12T09:34:18Z</time>
      </trkpt>
      <trkpt lat="47.2567" lon="-1.68582">
        <ele>49.2</ele>
        <time>2014-10-12T09:34:19Z</time>
      </trkpt>
      <trkpt lat="47.2567" lon="-1.68578">
        <ele>49.2</ele>
        <time>2014-10-12T09:34:20Z</time>
      </trkpt>
      <trkpt lat="47.25672" lon="-1.68574">
        <ele>49.1</ele>
        <time>2014-10-12T09:34:21Z</time>
      </trkpt>
      <trkpt lat="47.25673" lon="-1.68568">
        <ele>49</ele>
        <time>2014-10-12T09:34:23Z</time>
      </trkpt>
      <trkpt lat="47.25675" lon="-1.68564">
        <ele>49</ele>
        <time>2014-10-12T09:34:24Z</time>
      </trkpt>
      <trkpt lat="47.25675" lon="-1.68558">
        <ele>48.9</ele>
        <time>2014-10-12T09:34:26Z</time>
      </trkpt>
      <trkpt lat="47.25675" lon="-1.68551">
        <ele>48.9</ele>
        <time>2014-10-12T09:34:28Z</time>
      </trkpt>
      <trkpt lat="47.25676" lon="-1.68546">
        <ele>48.8</ele>
        <time>2014-10-12T09:34:29Z</time>
      </trkpt>
      <trkpt lat="47.25676" lon="-1.68542">
        <ele>48.8</ele>
        <time>2014-10-12T09:34:30Z</time>
      </trkpt>
      <trkpt lat="47.25676" lon="-1.68537">
        <ele>48.8</ele>
        <time>2014-10-12T09:34:31Z</time>
      </trkpt>
      <trkpt lat="47.25677" lon="-1.68532">
        <ele>48.9</ele>
        <time>2014-10-12T09:34:32Z</time>
      </trkpt>
      <trkpt lat="47.25677" lon="-1.68527">
        <ele>49</ele>
        <time>2014-10-12T09:34:33Z</time>
      </trkpt>
      <trkpt lat="47.25678" lon="-1.68522">
        <ele>49</ele>
        <time>2014-10-12T09:34:34Z</time>
      </trkpt>
      <trkpt lat="47.25678" lon="-1.68517">
        <ele>49.1</ele>
        <time>2014-10-12T09:34:35Z</time>
      </trkpt>
      <trkpt lat="47.25678" lon="-1.68511">
        <ele>49.2</ele>
        <time>2014-10-12T09:34:36Z</time>
      </trkpt>
      <trkpt lat="47.25679" lon="-1.68505">
        <ele>49.3</ele>
        <time>2014-10-12T09:34:37Z</time>
      </trkpt>
      <trkpt lat="47.25679" lon="-1.685">
        <ele>49.3</ele>
        <time>2014-10-12T09:34:38Z</time>
      </trkpt>
      <trkpt lat="47.25681" lon="-1.68495">
        <ele>49.4</ele>
        <time>2014-10-12T09:34:39Z</time>
      </trkpt>
      <trkpt lat="47.2568" lon="-1.6849">
        <ele>49.5</ele>
        <time>2014-10-12T09:34:40Z</time>
      </trkpt>
      <trkpt lat="47.25681" lon="-1.68484">
        <ele>49.6</ele>
        <time>2014-10-12T09:34:41Z</time>
      </trkpt>
      <trkpt lat="47.25682" lon="-1.68479">
        <ele>49.7</ele>
        <time>2014-10-12T09:34:42Z</time>
      </trkpt>
      <trkpt lat="47.25683" lon="-1.68474">
        <ele>49.7</ele>
        <time>2014-10-12T09:34:43Z</time>
      </trkpt>
      <trkpt lat="47.25683" lon="-1.68469">
        <ele>49.8</ele>
        <time>2014-10-12T09:34:44Z</time>
      </trkpt>
      <trkpt lat="47.25683" lon="-1.68465">
        <ele>49.9</ele>
        <time>2014-10-12T09:34:45Z</time>
      </trkpt>
      <trkpt lat="47.25682" lon="-1.68461">
        <ele>50</ele>
        <time>2014-10-12T09:34:46Z</time>
      </trkpt>
      <trkpt lat="47.25681" lon="-1.68454">
        <ele>50</ele>
        <time>2014-10-12T09:34:48Z</time>
      </trkpt>
      <trkpt lat="47.25682" lon="-1.68449">
        <ele>50</ele>
        <time>2014-10-12T09:34:49Z</time>
      </trkpt>
      <trkpt lat="47.25683" lon="-1.68444">
        <ele>50</ele>
        <time>2014-10-12T09:34:50Z</time>
      </trkpt>
      <trkpt lat="47.25683" lon="-1.6844">
        <ele>50</ele>
        <time>2014-10-12T09:34:51Z</time>
      </trkpt>
      <trkpt lat="47.25683" lon="-1.68435">
        <ele>50</ele>
        <time>2014-10-12T09:34:52Z</time>
      </trkpt>
      <trkpt lat="47.2568" lon="-1.68429">
        <ele>50</ele>
        <time>2014-10-12T09:34:53Z</time>
      </trkpt>
      <trkpt lat="47.25679" lon="-1.68424">
        <ele>50</ele>
        <time>2014-10-12T09:34:54Z</time>
      </trkpt>
      <trkpt lat="47.25679" lon="-1.6842">
        <ele>50</ele>
        <time>2014-10-12T09:34:55Z</time>
      </trkpt>
      <trkpt lat="47.2568" lon="-1.68415">
        <ele>50</ele>
        <time>2014-10-12T09:34:56Z</time>
      </trkpt>
      <trkpt lat="47.2568" lon="-1.6841">
        <ele>50</ele>
        <time>2014-10-12T09:34:57Z</time>
      </trkpt>
      <trkpt lat="47.2568" lon="-1.68402">
        <ele>50</ele>
        <time>2014-10-12T09:34:59Z</time>
      </trkpt>
      <trkpt lat="47.25681" lon="-1.68396">
        <ele>50</ele>
        <time>2014-10-12T09:35:01Z</time>
      </trkpt>
      <trkpt lat="47.25682" lon="-1.68388">
        <ele>50</ele>
        <time>2014-10-12T09:35:03Z</time>
      </trkpt>
      <trkpt lat="47.25682" lon="-1.68384">
        <ele>50</ele>
        <time>2014-10-12T09:35:05Z</time>
      </trkpt>
      <trkpt lat="47.25681" lon="-1.68378">
        <ele>50</ele>
        <time>2014-10-12T09:35:08Z</time>
      </trkpt>
      <trkpt lat="47.25679" lon="-1.68372">
        <ele>50</ele>
        <time>2014-10-12T09:35:10Z</time>
      </trkpt>
      <trkpt lat="47.25678" lon="-1.68368">
        <ele>50.1</ele>
        <time>2014-10-12T09:35:11Z</time>
      </trkpt>
      <trkpt lat="47.25676" lon="-1.68364">
        <ele>50.2</ele>
        <time>2014-10-12T09:35:13Z</time>
      </trkpt>
      <trkpt lat="47.25675" lon="-1.6836">
        <ele>50.2</ele>
        <time>2014-10-12T09:35:15Z</time>
      </trkpt>
      <trkpt lat="47.25674" lon="-1.68328">
        <ele>50.7</ele>
        <time>2014-10-12T09:35:25Z</time>
      </trkpt>
      <trkpt lat="47.25674" lon="-1.68324">
        <ele>50.7</ele>
        <time>2014-10-12T09:35:26Z</time>
      </trkpt>
      <trkpt lat="47.25673" lon="-1.68318">
        <ele>50.8</ele>
        <time>2014-10-12T09:35:27Z</time>
      </trkpt>
      <trkpt lat="47.25672" lon="-1.68311">
        <ele>50.9</ele>
        <time>2014-10-12T09:35:29Z</time>
      </trkpt>
      <trkpt lat="47.2567" lon="-1.68304">
        <ele>50.9</ele>
        <time>2014-10-12T09:35:31Z</time>
      </trkpt>
      <trkpt lat="47.25668" lon="-1.683">
        <ele>50.9</ele>
        <time>2014-10-12T09:35:33Z</time>
      </trkpt>
      <trkpt lat="47.25665" lon="-1.68297">
        <ele>50.9</ele>
        <time>2014-10-12T09:35:35Z</time>
      </trkpt>
      <trkpt lat="47.25658" lon="-1.68268">
        <ele>50.8</ele>
        <time>2014-10-12T09:35:48Z</time>
      </trkpt>
      <trkpt lat="47.25657" lon="-1.68264">
        <ele>50.8</ele>
        <time>2014-10-12T09:35:50Z</time>
      </trkpt>
      <trkpt lat="47.25656" lon="-1.68256">
        <ele>50.7</ele>
        <time>2014-10-12T09:35:52Z</time>
      </trkpt>
      <trkpt lat="47.25654" lon="-1.68248">
        <ele>50.7</ele>
        <time>2014-10-12T09:35:54Z</time>
      </trkpt>
      <trkpt lat="47.25653" lon="-1.68244">
        <ele>50.7</ele>
        <time>2014-10-12T09:35:55Z</time>
      </trkpt>
      <trkpt lat="47.2565" lon="-1.6824">
        <ele>50.6</ele>
        <time>2014-10-12T09:35:56Z</time>
      </trkpt>
      <trkpt lat="47.25648" lon="-1.68236">
        <ele>50.5</ele>
        <time>2014-10-12T09:35:57Z</time>
      </trkpt>
      <trkpt lat="47.25647" lon="-1.68232">
        <ele>50.5</ele>
        <time>2014-10-12T09:35:58Z</time>
      </trkpt>
      <trkpt lat="47.25643" lon="-1.68228">
        <ele>50.4</ele>
        <time>2014-10-12T09:36:00Z</time>
      </trkpt>
      <trkpt lat="47.2564" lon="-1.68222">
        <ele>50.4</ele>
        <time>2014-10-12T09:36:02Z</time>
      </trkpt>
      <trkpt lat="47.25636" lon="-1.6822">
        <ele>50.3</ele>
        <time>2014-10-12T09:36:04Z</time>
      </trkpt>
      <trkpt lat="47.25636" lon="-1.68215">
        <ele>50.3</ele>
        <time>2014-10-12T09:36:06Z</time>
      </trkpt>
      <trkpt lat="47.25637" lon="-1.68208">
        <ele>50.3</ele>
        <time>2014-10-12T09:36:08Z</time>
      </trkpt>
      <trkpt lat="47.25636" lon="-1.682">
        <ele>50.4</ele>
        <time>2014-10-12T09:36:10Z</time>
      </trkpt>
      <trkpt lat="47.25635" lon="-1.68193">
        <ele>50.4</ele>
        <time>2014-10-12T09:36:12Z</time>
      </trkpt>
      <trkpt lat="47.25634" lon="-1.68189">
        <ele>50.4</ele>
        <time>2014-10-12T09:36:14Z</time>
      </trkpt>
      <trkpt lat="47.25634" lon="-1.68182">
        <ele>50.5</ele>
        <time>2014-10-12T09:36:15Z</time>
      </trkpt>
      <trkpt lat="47.25633" lon="-1.68176">
        <ele>50.5</ele>
        <time>2014-10-12T09:36:17Z</time>
      </trkpt>
      <trkpt lat="47.25633" lon="-1.68172">
        <ele>50.6</ele>
        <time>2014-10-12T09:36:19Z</time>
      </trkpt>
      <trkpt lat="47.25628" lon="-1.68168">
        <ele>50.5</ele>
        <time>2014-10-12T09:36:21Z</time>
      </trkpt>
      <trkpt lat="47.25614" lon="-1.6815">
        <ele>50.4</ele>
        <time>2014-10-12T09:36:27Z</time>
      </trkpt>
      <trkpt lat="47.25614" lon="-1.68146">
        <ele>50.5</ele>
        <time>2014-10-12T09:36:28Z</time>
      </trkpt>
      <trkpt lat="47.25614" lon="-1.68141">
        <ele>50.5</ele>
        <time>2014-10-12T09:36:29Z</time>
      </trkpt>
      <trkpt lat="47.25611" lon="-1.68137">
        <ele>50.5</ele>
        <time>2014-10-12T09:36:31Z</time>
      </trkpt>
      <trkpt lat="47.25609" lon="-1.68131">
        <ele>50.5</ele>
        <time>2014-10-12T09:36:32Z</time>
      </trkpt>
      <trkpt lat="47.25608" lon="-1.68127">
        <ele>50.5</ele>
        <time>2014-10-12T09:36:33Z</time>
      </trkpt>
      <trkpt lat="47.25604" lon="-1.6812">
        <ele>50.5</ele>
        <time>2014-10-12T09:36:35Z</time>
      </trkpt>
      <trkpt lat="47.25602" lon="-1.68116">
        <ele>50.4</ele>
        <time>2014-10-12T09:36:36Z</time>
      </trkpt>
      <trkpt lat="47.25601" lon="-1.68112">
        <ele>50.3</ele>
        <time>2014-10-12T09:36:37Z</time>
      </trkpt>
      <trkpt lat="47.25598" lon="-1.6811">
        <ele>50.2</ele>
        <time>2014-10-12T09:36:38Z</time>
      </trkpt>
      <trkpt lat="47.25596" lon="-1.68108">
        <ele>50.1</ele>
        <time>2014-10-12T09:36:39Z</time>
      </trkpt>
      <trkpt lat="47.25594" lon="-1.68104">
        <ele>50.1</ele>
        <time>2014-10-12T09:36:40Z</time>
      </trkpt>
      <trkpt lat="47.25593" lon="-1.681">
        <ele>50</ele>
        <time>2014-10-12T09:36:41Z</time>
      </trkpt>
      <trkpt lat="47.2559" lon="-1.68095">
        <ele>49.9</ele>
        <time>2014-10-12T09:36:43Z</time>
      </trkpt>
      <trkpt lat="47.25588" lon="-1.68089">
        <ele>49.7</ele>
        <time>2014-10-12T09:36:45Z</time>
      </trkpt>
      <trkpt lat="47.25587" lon="-1.68083">
        <ele>49.6</ele>
        <time>2014-10-12T09:36:46Z</time>
      </trkpt>
      <trkpt lat="47.25587" lon="-1.68077">
        <ele>49.6</ele>
        <time>2014-10-12T09:36:47Z</time>
      </trkpt>
      <trkpt lat="47.25587" lon="-1.68071">
        <ele>49.5</ele>
        <time>2014-10-12T09:36:48Z</time>
      </trkpt>
      <trkpt lat="47.25586" lon="-1.68065">
        <ele>49.4</ele>
        <time>2014-10-12T09:36:49Z</time>
      </trkpt>
      <trkpt lat="47.25585" lon="-1.6806">
        <ele>49.3</ele>
        <time>2014-10-12T09:36:50Z</time>
      </trkpt>
      <trkpt lat="47.25585" lon="-1.68055">
        <ele>49.2</ele>
        <time>2014-10-12T09:36:51Z</time>
      </trkpt>
      <trkpt lat="47.25584" lon="-1.68049">
        <ele>49.1</ele>
        <time>2014-10-12T09:36:53Z</time>
      </trkpt>
      <trkpt lat="47.25583" lon="-1.68044">
        <ele>49</ele>
        <time>2014-10-12T09:36:57Z</time>
      </trkpt>
      <trkpt lat="47.25573" lon="-1.68008">
        <ele>48.2</ele>
        <time>2014-10-12T09:37:26Z</time>
      </trkpt>
      <trkpt lat="47.25573" lon="-1.68004">
        <ele>48.1</ele>
        <time>2014-10-12T09:37:27Z</time>
      </trkpt>
      <trkpt lat="47.25573" lon="-1.68">
        <ele>48.1</ele>
        <time>2014-10-12T09:37:28Z</time>
      </trkpt>
      <trkpt lat="47.25574" lon="-1.67996">
        <ele>48.1</ele>
        <time>2014-10-12T09:37:29Z</time>
      </trkpt>
      <trkpt lat="47.25575" lon="-1.67989">
        <ele>48.1</ele>
        <time>2014-10-12T09:37:31Z</time>
      </trkpt>
      <trkpt lat="47.25574" lon="-1.67983">
        <ele>48</ele>
        <time>2014-10-12T09:37:33Z</time>
      </trkpt>
      <trkpt lat="47.25573" lon="-1.67975">
        <ele>47.8</ele>
        <time>2014-10-12T09:37:35Z</time>
      </trkpt>
      <trkpt lat="47.25573" lon="-1.67968">
        <ele>47.7</ele>
        <time>2014-10-12T09:37:36Z</time>
      </trkpt>
      <trkpt lat="47.25572" lon="-1.67963">
        <ele>47.6</ele>
        <time>2014-10-12T09:37:37Z</time>
      </trkpt>
      <trkpt lat="47.25573" lon="-1.67956">
        <ele>47.6</ele>
        <time>2014-10-12T09:37:39Z</time>
      </trkpt>
      <trkpt lat="47.25573" lon="-1.67949">
        <ele>47.6</ele>
        <time>2014-10-12T09:37:41Z</time>
      </trkpt>
      <trkpt lat="47.25573" lon="-1.67942">
        <ele>47.6</ele>
        <time>2014-10-12T09:37:43Z</time>
      </trkpt>
      <trkpt lat="47.25574" lon="-1.67937">
        <ele>47.6</ele>
        <time>2014-10-12T09:37:44Z</time>
      </trkpt>
      <trkpt lat="47.25574" lon="-1.6793">
        <ele>47.6</ele>
        <time>2014-10-12T09:37:46Z</time>
      </trkpt>
      <trkpt lat="47.25574" lon="-1.67926">
        <ele>47.5</ele>
        <time>2014-10-12T09:37:47Z</time>
      </trkpt>
      <trkpt lat="47.25573" lon="-1.67922">
        <ele>47.4</ele>
        <time>2014-10-12T09:37:48Z</time>
      </trkpt>
      <trkpt lat="47.25572" lon="-1.67918">
        <ele>47.4</ele>
        <time>2014-10-12T09:37:49Z</time>
      </trkpt>
      <trkpt lat="47.25571" lon="-1.67913">
        <ele>47.3</ele>
        <time>2014-10-12T09:37:50Z</time>
      </trkpt>
      <trkpt lat="47.25568" lon="-1.6791">
        <ele>47</ele>
        <time>2014-10-12T09:37:51Z</time>
      </trkpt>
      <trkpt lat="47.25566" lon="-1.67904">
        <ele>46.8</ele>
        <time>2014-10-12T09:37:53Z</time>
      </trkpt>
      <trkpt lat="47.25565" lon="-1.679">
        <ele>46.8</ele>
        <time>2014-10-12T09:37:54Z</time>
      </trkpt>
      <trkpt lat="47.25564" lon="-1.67894">
        <ele>46.7</ele>
        <time>2014-10-12T09:37:55Z</time>
      </trkpt>
      <trkpt lat="47.25563" lon="-1.67887">
        <ele>46.6</ele>
        <time>2014-10-12T09:37:57Z</time>
      </trkpt>
      <trkpt lat="47.25564" lon="-1.67883">
        <ele>46.6</ele>
        <time>2014-10-12T09:37:58Z</time>
      </trkpt>
      <trkpt lat="47.25565" lon="-1.67873">
        <ele>46.6</ele>
        <time>2014-10-12T09:38:00Z</time>
      </trkpt>
      <trkpt lat="47.25565" lon="-1.67869">
        <ele>46.6</ele>
        <time>2014-10-12T09:38:01Z</time>
      </trkpt>
      <trkpt lat="47.25566" lon="-1.67859">
        <ele>46.4</ele>
        <time>2014-10-12T09:38:02Z</time>
      </trkpt>
      <trkpt lat="47.25566" lon="-1.67853">
        <ele>46.2</ele>
        <time>2014-10-12T09:38:03Z</time>
      </trkpt>
      <trkpt lat="47.25566" lon="-1.67848">
        <ele>46.2</ele>
        <time>2014-10-12T09:38:04Z</time>
      </trkpt>
      <trkpt lat="47.25565" lon="-1.67844">
        <ele>46</ele>
        <time>2014-10-12T09:38:05Z</time>
      </trkpt>
      <trkpt lat="47.25565" lon="-1.67836">
        <ele>45.8</ele>
        <time>2014-10-12T09:38:06Z</time>
      </trkpt>
      <trkpt lat="47.25565" lon="-1.6783">
        <ele>45.7</ele>
        <time>2014-10-12T09:38:07Z</time>
      </trkpt>
      <trkpt lat="47.25565" lon="-1.67824">
        <ele>45.5</ele>
        <time>2014-10-12T09:38:08Z</time>
      </trkpt>
      <trkpt lat="47.25564" lon="-1.67817">
        <ele>45.4</ele>
        <time>2014-10-12T09:38:09Z</time>
      </trkpt>
      <trkpt lat="47.25562" lon="-1.67811">
        <ele>45.1</ele>
        <time>2014-10-12T09:38:10Z</time>
      </trkpt>
      <trkpt lat="47.25561" lon="-1.67807">
        <ele>45</ele>
        <time>2014-10-12T09:38:11Z</time>
      </trkpt>
      <trkpt lat="47.2556" lon="-1.67803">
        <ele>44.9</ele>
        <time>2014-10-12T09:38:12Z</time>
      </trkpt>
      <trkpt lat="47.25558" lon="-1.67799">
        <ele>44.7</ele>
        <time>2014-10-12T09:38:13Z</time>
      </trkpt>
      <trkpt lat="47.25554" lon="-1.6779">
        <ele>44.4</ele>
        <time>2014-10-12T09:38:14Z</time>
      </trkpt>
      <trkpt lat="47.2555" lon="-1.6778">
        <ele>44</ele>
        <time>2014-10-12T09:38:15Z</time>
      </trkpt>
      <trkpt lat="47.25551" lon="-1.6777">
        <ele>43.8</ele>
        <time>2014-10-12T09:38:16Z</time>
      </trkpt>
      <trkpt lat="47.25549" lon="-1.67756">
        <ele>43.4</ele>
        <time>2014-10-12T09:38:17Z</time>
      </trkpt>
      <trkpt lat="47.25545" lon="-1.67747">
        <ele>43</ele>
        <time>2014-10-12T09:38:18Z</time>
      </trkpt>
      <trkpt lat="47.25544" lon="-1.67741">
        <ele>42.9</ele>
        <time>2014-10-12T09:38:19Z</time>
      </trkpt>
      <trkpt lat="47.25543" lon="-1.67735">
        <ele>42.7</ele>
        <time>2014-10-12T09:38:20Z</time>
      </trkpt>
      <trkpt lat="47.25545" lon="-1.6773">
        <ele>42.6</ele>
        <time>2014-10-12T09:38:21Z</time>
      </trkpt>
      <trkpt lat="47.25546" lon="-1.67724">
        <ele>42.5</ele>
        <time>2014-10-12T09:38:22Z</time>
      </trkpt>
      <trkpt lat="47.25546" lon="-1.67718">
        <ele>42.3</ele>
        <time>2014-10-12T09:38:23Z</time>
      </trkpt>
      <trkpt lat="47.25547" lon="-1.67714">
        <ele>42.2</ele>
        <time>2014-10-12T09:38:24Z</time>
      </trkpt>
      <trkpt lat="47.25547" lon="-1.67708">
        <ele>42.1</ele>
        <time>2014-10-12T09:38:25Z</time>
      </trkpt>
      <trkpt lat="47.25547" lon="-1.67702">
        <ele>42.2</ele>
        <time>2014-10-12T09:38:26Z</time>
      </trkpt>
      <trkpt lat="47.25547" lon="-1.67697">
        <ele>42.3</ele>
        <time>2014-10-12T09:38:27Z</time>
      </trkpt>
      <trkpt lat="47.25547" lon="-1.67691">
        <ele>42.3</ele>
        <time>2014-10-12T09:38:28Z</time>
      </trkpt>
      <trkpt lat="47.25548" lon="-1.67686">
        <ele>42.4</ele>
        <time>2014-10-12T09:38:29Z</time>
      </trkpt>
      <trkpt lat="47.25548" lon="-1.6768">
        <ele>42.4</ele>
        <time>2014-10-12T09:38:30Z</time>
      </trkpt>
      <trkpt lat="47.25548" lon="-1.67675">
        <ele>42.5</ele>
        <time>2014-10-12T09:38:31Z</time>
      </trkpt>
      <trkpt lat="47.25547" lon="-1.6767">
        <ele>42.5</ele>
        <time>2014-10-12T09:38:32Z</time>
      </trkpt>
      <trkpt lat="47.25546" lon="-1.67665">
        <ele>42.6</ele>
        <time>2014-10-12T09:38:33Z</time>
      </trkpt>
      <trkpt lat="47.25546" lon="-1.67661">
        <ele>42.6</ele>
        <time>2014-10-12T09:38:34Z</time>
      </trkpt>
      <trkpt lat="47.25544" lon="-1.67656">
        <ele>42.7</ele>
        <time>2014-10-12T09:38:35Z</time>
      </trkpt>
      <trkpt lat="47.25543" lon="-1.67651">
        <ele>42.7</ele>
        <time>2014-10-12T09:38:36Z</time>
      </trkpt>
      <trkpt lat="47.25542" lon="-1.67646">
        <ele>42.8</ele>
        <time>2014-10-12T09:38:37Z</time>
      </trkpt>
      <trkpt lat="47.25541" lon="-1.67641">
        <ele>42.8</ele>
        <time>2014-10-12T09:38:38Z</time>
      </trkpt>
      <trkpt lat="47.2554" lon="-1.67636">
        <ele>42.8</ele>
        <time>2014-10-12T09:38:39Z</time>
      </trkpt>
      <trkpt lat="47.2554" lon="-1.67631">
        <ele>42.9</ele>
        <time>2014-10-12T09:38:40Z</time>
      </trkpt>
      <trkpt lat="47.25539" lon="-1.67627">
        <ele>42.9</ele>
        <time>2014-10-12T09:38:41Z</time>
      </trkpt>
      <trkpt lat="47.25539" lon="-1.67622">
        <ele>42.9</ele>
        <time>2014-10-12T09:38:42Z</time>
      </trkpt>
      <trkpt lat="47.25541" lon="-1.67613">
        <ele>42.8</ele>
        <time>2014-10-12T09:38:44Z</time>
      </trkpt>
      <trkpt lat="47.25541" lon="-1.67609">
        <ele>42.8</ele>
        <time>2014-10-12T09:38:45Z</time>
      </trkpt>
      <trkpt lat="47.25541" lon="-1.67604">
        <ele>42.7</ele>
        <time>2014-10-12T09:38:46Z</time>
      </trkpt>
      <trkpt lat="47.25542" lon="-1.67597">
        <ele>42.7</ele>
        <time>2014-10-12T09:38:48Z</time>
      </trkpt>
      <trkpt lat="47.25541" lon="-1.67591">
        <ele>42.6</ele>
        <time>2014-10-12T09:38:50Z</time>
      </trkpt>
      <trkpt lat="47.25541" lon="-1.67586">
        <ele>42.5</ele>
        <time>2014-10-12T09:38:51Z</time>
      </trkpt>
      <trkpt lat="47.25538" lon="-1.6758">
        <ele>42.4</ele>
        <time>2014-10-12T09:38:53Z</time>
      </trkpt>
      <trkpt lat="47.25536" lon="-1.67577">
        <ele>42.3</ele>
        <time>2014-10-12T09:38:54Z</time>
      </trkpt>
      <trkpt lat="47.25534" lon="-1.67572">
        <ele>42.2</ele>
        <time>2014-10-12T09:38:56Z</time>
      </trkpt>
      <trkpt lat="47.25534" lon="-1.67567">
        <ele>42.2</ele>
        <time>2014-10-12T09:38:58Z</time>
      </trkpt>
      <trkpt lat="47.25534" lon="-1.67562">
        <ele>42.1</ele>
        <time>2014-10-12T09:38:59Z</time>
      </trkpt>
      <trkpt lat="47.25532" lon="-1.67557">
        <ele>42</ele>
        <time>2014-10-12T09:39:01Z</time>
      </trkpt>
      <trkpt lat="47.25532" lon="-1.67552">
        <ele>42</ele>
        <time>2014-10-12T09:39:02Z</time>
      </trkpt>
      <trkpt lat="47.25532" lon="-1.67545">
        <ele>41.9</ele>
        <time>2014-10-12T09:39:03Z</time>
      </trkpt>
      <trkpt lat="47.25531" lon="-1.67538">
        <ele>41.9</ele>
        <time>2014-10-12T09:39:04Z</time>
      </trkpt>
      <trkpt lat="47.2553" lon="-1.67533">
        <ele>41.8</ele>
        <time>2014-10-12T09:39:05Z</time>
      </trkpt>
      <trkpt lat="47.25526" lon="-1.6753">
        <ele>41.8</ele>
        <time>2014-10-12T09:39:06Z</time>
      </trkpt>
      <trkpt lat="47.25524" lon="-1.67522">
        <ele>41.7</ele>
        <time>2014-10-12T09:39:08Z</time>
      </trkpt>
      <trkpt lat="47.25523" lon="-1.67518">
        <ele>41.7</ele>
        <time>2014-10-12T09:39:09Z</time>
      </trkpt>
      <trkpt lat="47.25522" lon="-1.67513">
        <ele>41.7</ele>
        <time>2014-10-12T09:39:10Z</time>
      </trkpt>
      <trkpt lat="47.2552" lon="-1.67511">
        <ele>41.6</ele>
        <time>2014-10-12T09:39:11Z</time>
      </trkpt>
      <trkpt lat="47.25517" lon="-1.67508">
        <ele>41.6</ele>
        <time>2014-10-12T09:39:12Z</time>
      </trkpt>
      <trkpt lat="47.25515" lon="-1.675">
        <ele>41.5</ele>
        <time>2014-10-12T09:39:14Z</time>
      </trkpt>
      <trkpt lat="47.25514" lon="-1.67495">
        <ele>41.5</ele>
        <time>2014-10-12T09:39:15Z</time>
      </trkpt>
      <trkpt lat="47.25513" lon="-1.6749">
        <ele>41.4</ele>
        <time>2014-10-12T09:39:16Z</time>
      </trkpt>
      <trkpt lat="47.25513" lon="-1.67485">
        <ele>41.4</ele>
        <time>2014-10-12T09:39:17Z</time>
      </trkpt>
      <trkpt lat="47.25512" lon="-1.6748">
        <ele>41.4</ele>
        <time>2014-10-12T09:39:18Z</time>
      </trkpt>
      <trkpt lat="47.25511" lon="-1.67475">
        <ele>41.3</ele>
        <time>2014-10-12T09:39:19Z</time>
      </trkpt>
      <trkpt lat="47.25509" lon="-1.67467">
        <ele>41.3</ele>
        <time>2014-10-12T09:39:21Z</time>
      </trkpt>
      <trkpt lat="47.25508" lon="-1.67464">
        <ele>41.2</ele>
        <time>2014-10-12T09:39:22Z</time>
      </trkpt>
      <trkpt lat="47.25508" lon="-1.67458">
        <ele>41.2</ele>
        <time>2014-10-12T09:39:23Z</time>
      </trkpt>
      <trkpt lat="47.25507" lon="-1.67453">
        <ele>41.3</ele>
        <time>2014-10-12T09:39:24Z</time>
      </trkpt>
      <trkpt lat="47.25506" lon="-1.67447">
        <ele>41.3</ele>
        <time>2014-10-12T09:39:25Z</time>
      </trkpt>
      <trkpt lat="47.25506" lon="-1.67443">
        <ele>41.4</ele>
        <time>2014-10-12T09:39:26Z</time>
      </trkpt>
      <trkpt lat="47.25505" lon="-1.67435">
        <ele>41.5</ele>
        <time>2014-10-12T09:39:27Z</time>
      </trkpt>
      <trkpt lat="47.25502" lon="-1.67432">
        <ele>41.5</ele>
        <time>2014-10-12T09:39:28Z</time>
      </trkpt>
      <trkpt lat="47.255" lon="-1.67426">
        <ele>41.6</ele>
        <time>2014-10-12T09:39:30Z</time>
      </trkpt>
      <trkpt lat="47.25499" lon="-1.6742">
        <ele>41.7</ele>
        <time>2014-10-12T09:39:32Z</time>
      </trkpt>
      <trkpt lat="47.25499" lon="-1.67413">
        <ele>41.8</ele>
        <time>2014-10-12T09:39:34Z</time>
      </trkpt>
      <trkpt lat="47.25496" lon="-1.67407">
        <ele>41.9</ele>
        <time>2014-10-12T09:39:36Z</time>
      </trkpt>
      <trkpt lat="47.25493" lon="-1.67402">
        <ele>42</ele>
        <time>2014-10-12T09:39:38Z</time>
      </trkpt>
      <trkpt lat="47.25491" lon="-1.67398">
        <ele>42.1</ele>
        <time>2014-10-12T09:39:39Z</time>
      </trkpt>
      <trkpt lat="47.25489" lon="-1.67394">
        <ele>42.2</ele>
        <time>2014-10-12T09:39:40Z</time>
      </trkpt>
      <trkpt lat="47.25487" lon="-1.6739">
        <ele>42.3</ele>
        <time>2014-10-12T09:39:41Z</time>
      </trkpt>
      <trkpt lat="47.25484" lon="-1.67389">
        <ele>42.4</ele>
        <time>2014-10-12T09:39:42Z</time>
      </trkpt>
      <trkpt lat="47.2548" lon="-1.67386">
        <ele>42.4</ele>
        <time>2014-10-12T09:39:43Z</time>
      </trkpt>
      <trkpt lat="47.25477" lon="-1.67383">
        <ele>42.6</ele>
        <time>2014-10-12T09:39:44Z</time>
      </trkpt>
      <trkpt lat="47.25474" lon="-1.67379">
        <ele>42.7</ele>
        <time>2014-10-12T09:39:45Z</time>
      </trkpt>
      <trkpt lat="47.25472" lon="-1.67375">
        <ele>42.8</ele>
        <time>2014-10-12T09:39:46Z</time>
      </trkpt>
      <trkpt lat="47.2547" lon="-1.67372">
        <ele>43</ele>
        <time>2014-10-12T09:39:47Z</time>
      </trkpt>
      <trkpt lat="47.25466" lon="-1.67369">
        <ele>43.1</ele>
        <time>2014-10-12T09:39:48Z</time>
      </trkpt>
      <trkpt lat="47.25464" lon="-1.67365">
        <ele>43.2</ele>
        <time>2014-10-12T09:39:49Z</time>
      </trkpt>
      <trkpt lat="47.25462" lon="-1.67361">
        <ele>43.3</ele>
        <time>2014-10-12T09:39:50Z</time>
      </trkpt>
      <trkpt lat="47.25459" lon="-1.67355">
        <ele>43.5</ele>
        <time>2014-10-12T09:39:52Z</time>
      </trkpt>
      <trkpt lat="47.25457" lon="-1.6735">
        <ele>43.6</ele>
        <time>2014-10-12T09:39:54Z</time>
      </trkpt>
      <trkpt lat="47.25457" lon="-1.67345">
        <ele>43.7</ele>
        <time>2014-10-12T09:39:55Z</time>
      </trkpt>
      <trkpt lat="47.25456" lon="-1.67341">
        <ele>43.8</ele>
        <time>2014-10-12T09:39:57Z</time>
      </trkpt>
      <trkpt lat="47.25452" lon="-1.67341">
        <ele>43.8</ele>
        <time>2014-10-12T09:39:59Z</time>
      </trkpt>
      <trkpt lat="47.25449" lon="-1.67343">
        <ele>43.8</ele>
        <time>2014-10-12T09:40:00Z</time>
      </trkpt>
      <trkpt lat="47.25443" lon="-1.67341">
        <ele>43.8</ele>
        <time>2014-10-12T09:40:01Z</time>
      </trkpt>
      <trkpt lat="47.2544" lon="-1.67342">
        <ele>43.8</ele>
        <time>2014-10-12T09:40:02Z</time>
      </trkpt>
      <trkpt lat="47.25437" lon="-1.67342">
        <ele>43.9</ele>
        <time>2014-10-12T09:40:03Z</time>
      </trkpt>
      <trkpt lat="47.25434" lon="-1.67342">
        <ele>43.9</ele>
        <time>2014-10-12T09:40:04Z</time>
      </trkpt>
      <trkpt lat="47.25431" lon="-1.67343">
        <ele>43.8</ele>
        <time>2014-10-12T09:40:05Z</time>
      </trkpt>
      <trkpt lat="47.25429" lon="-1.67351">
        <ele>43.7</ele>
        <time>2014-10-12T09:40:07Z</time>
      </trkpt>
      <trkpt lat="47.2543" lon="-1.67357">
        <ele>43.6</ele>
        <time>2014-10-12T09:40:08Z</time>
      </trkpt>
      <trkpt lat="47.2543" lon="-1.67362">
        <ele>43.5</ele>
        <time>2014-10-12T09:40:09Z</time>
      </trkpt>
      <trkpt lat="47.25431" lon="-1.67368">
        <ele>43.4</ele>
        <time>2014-10-12T09:40:10Z</time>
      </trkpt>
      <trkpt lat="47.2543" lon="-1.67375">
        <ele>43.3</ele>
        <time>2014-10-12T09:40:11Z</time>
      </trkpt>
      <trkpt lat="47.2543" lon="-1.67382">
        <ele>43.2</ele>
        <time>2014-10-12T09:40:12Z</time>
      </trkpt>
      <trkpt lat="47.25431" lon="-1.67388">
        <ele>43</ele>
        <time>2014-10-12T09:40:13Z</time>
      </trkpt>
      <trkpt lat="47.25431" lon="-1.67394">
        <ele>42.9</ele>
        <time>2014-10-12T09:40:14Z</time>
      </trkpt>
      <trkpt lat="47.25432" lon="-1.67401">
        <ele>42.7</ele>
        <time>2014-10-12T09:40:15Z</time>
      </trkpt>
      <trkpt lat="47.25433" lon="-1.67408">
        <ele>42.5</ele>
        <time>2014-10-12T09:40:16Z</time>
      </trkpt>
      <trkpt lat="47.25433" lon="-1.67414">
        <ele>42.3</ele>
        <time>2014-10-12T09:40:17Z</time>
      </trkpt>
      <trkpt lat="47.25433" lon="-1.67419">
        <ele>42.2</ele>
        <time>2014-10-12T09:40:18Z</time>
      </trkpt>
      <trkpt lat="47.25432" lon="-1.67423">
        <ele>42.1</ele>
        <time>2014-10-12T09:40:19Z</time>
      </trkpt>
      <trkpt lat="47.25428" lon="-1.67427">
        <ele>42.2</ele>
        <time>2014-10-12T09:40:20Z</time>
      </trkpt>
      <trkpt lat="47.25425" lon="-1.67429">
        <ele>42.2</ele>
        <time>2014-10-12T09:40:21Z</time>
      </trkpt>
      <trkpt lat="47.25422" lon="-1.67431">
        <ele>42.3</ele>
        <time>2014-10-12T09:40:22Z</time>
      </trkpt>
      <trkpt lat="47.25419" lon="-1.67431">
        <ele>42.4</ele>
        <time>2014-10-12T09:40:23Z</time>
      </trkpt>
      <trkpt lat="47.25416" lon="-1.6743">
        <ele>42.5</ele>
        <time>2014-10-12T09:40:24Z</time>
      </trkpt>
      <trkpt lat="47.25413" lon="-1.6743">
        <ele>42.7</ele>
        <time>2014-10-12T09:40:25Z</time>
      </trkpt>
      <trkpt lat="47.2541" lon="-1.67428">
        <ele>42.8</ele>
        <time>2014-10-12T09:40:26Z</time>
      </trkpt>
      <trkpt lat="47.25407" lon="-1.67427">
        <ele>42.9</ele>
        <time>2014-10-12T09:40:27Z</time>
      </trkpt>
      <trkpt lat="47.25404" lon="-1.67426">
        <ele>43</ele>
        <time>2014-10-12T09:40:28Z</time>
      </trkpt>
      <trkpt lat="47.25398" lon="-1.67429">
        <ele>43.2</ele>
        <time>2014-10-12T09:40:30Z</time>
      </trkpt>
      <trkpt lat="47.25395" lon="-1.67432">
        <ele>43.3</ele>
        <time>2014-10-12T09:40:31Z</time>
      </trkpt>
      <trkpt lat="47.25391" lon="-1.67435">
        <ele>43.4</ele>
        <time>2014-10-12T09:40:32Z</time>
      </trkpt>
      <trkpt lat="47.25388" lon="-1.67436">
        <ele>43.5</ele>
        <time>2014-10-12T09:40:33Z</time>
      </trkpt>
      <trkpt lat="47.25384" lon="-1.67438">
        <ele>43.7</ele>
        <time>2014-10-12T09:40:34Z</time>
      </trkpt>
      <trkpt lat="47.25378" lon="-1.6744">
        <ele>43.9</ele>
        <time>2014-10-12T09:40:36Z</time>
      </trkpt>
      <trkpt lat="47.25374" lon="-1.67442">
        <ele>44</ele>
        <time>2014-10-12T09:40:37Z</time>
      </trkpt>
      <trkpt lat="47.25372" lon="-1.67443">
        <ele>44</ele>
        <time>2014-10-12T09:40:38Z</time>
      </trkpt>
      <trkpt lat="47.25368" lon="-1.67443">
        <ele>44.1</ele>
        <time>2014-10-12T09:40:40Z</time>
      </trkpt>
      <trkpt lat="47.25366" lon="-1.67439">
        <ele>44.1</ele>
        <time>2014-10-12T09:40:43Z</time>
      </trkpt>
      <trkpt lat="47.25367" lon="-1.67435">
        <ele>44.1</ele>
        <time>2014-10-12T09:40:45Z</time>
      </trkpt>
      <trkpt lat="47.2537" lon="-1.67429">
        <ele>44</ele>
        <time>2014-10-12T09:40:47Z</time>
      </trkpt>
      <trkpt lat="47.25372" lon="-1.67424">
        <ele>44</ele>
        <time>2014-10-12T09:40:49Z</time>
      </trkpt>
      <trkpt lat="47.25375" lon="-1.67418">
        <ele>44</ele>
        <time>2014-10-12T09:40:51Z</time>
      </trkpt>
      <trkpt lat="47.25378" lon="-1.67414">
        <ele>43.9</ele>
        <time>2014-10-12T09:40:53Z</time>
      </trkpt>
      <trkpt lat="47.25378" lon="-1.6741">
        <ele>43.9</ele>
        <time>2014-10-12T09:40:55Z</time>
      </trkpt>
      <trkpt lat="47.25379" lon="-1.67402">
        <ele>43.9</ele>
        <time>2014-10-12T09:40:57Z</time>
      </trkpt>
      <trkpt lat="47.25379" lon="-1.67395">
        <ele>43.9</ele>
        <time>2014-10-12T09:40:59Z</time>
      </trkpt>
      <trkpt lat="47.25379" lon="-1.67388">
        <ele>43.9</ele>
        <time>2014-10-12T09:41:01Z</time>
      </trkpt>
      <trkpt lat="47.25379" lon="-1.67384">
        <ele>43.9</ele>
        <time>2014-10-12T09:41:02Z</time>
      </trkpt>
      <trkpt lat="47.25378" lon="-1.67379">
        <ele>44</ele>
        <time>2014-10-12T09:41:03Z</time>
      </trkpt>
      <trkpt lat="47.25378" lon="-1.67374">
        <ele>44</ele>
        <time>2014-10-12T09:41:04Z</time>
      </trkpt>
      <trkpt lat="47.25378" lon="-1.67369">
        <ele>44</ele>
        <time>2014-10-12T09:41:05Z</time>
      </trkpt>
      <trkpt lat="47.25378" lon="-1.67364">
        <ele>44</ele>
        <time>2014-10-12T09:41:06Z</time>
      </trkpt>
      <trkpt lat="47.25377" lon="-1.6736">
        <ele>44</ele>
        <time>2014-10-12T09:41:07Z</time>
      </trkpt>
      <trkpt lat="47.25377" lon="-1.67355">
        <ele>44</ele>
        <time>2014-10-12T09:41:08Z</time>
      </trkpt>
      <trkpt lat="47.25376" lon="-1.67351">
        <ele>44</ele>
        <time>2014-10-12T09:41:09Z</time>
      </trkpt>
      <trkpt lat="47.25376" lon="-1.67343">
        <ele>44</ele>
        <time>2014-10-12T09:41:11Z</time>
      </trkpt>
      <trkpt lat="47.25376" lon="-1.67339">
        <ele>44</ele>
        <time>2014-10-12T09:41:12Z</time>
      </trkpt>
      <trkpt lat="47.25375" lon="-1.67331">
        <ele>44</ele>
        <time>2014-10-12T09:41:14Z</time>
      </trkpt>
      <trkpt lat="47.25374" lon="-1.67327">
        <ele>44</ele>
        <time>2014-10-12T09:41:15Z</time>
      </trkpt>
      <trkpt lat="47.25373" lon="-1.67323">
        <ele>44</ele>
        <time>2014-10-12T09:41:16Z</time>
      </trkpt>
      <trkpt lat="47.25371" lon="-1.67316">
        <ele>43.9</ele>
        <time>2014-10-12T09:41:18Z</time>
      </trkpt>
      <trkpt lat="47.2537" lon="-1.67311">
        <ele>43.9</ele>
        <time>2014-10-12T09:41:20Z</time>
      </trkpt>
      <trkpt lat="47.25369" lon="-1.67306">
        <ele>43.9</ele>
        <time>2014-10-12T09:41:22Z</time>
      </trkpt>
      <trkpt lat="47.25368" lon="-1.67301">
        <ele>43.9</ele>
        <time>2014-10-12T09:41:24Z</time>
      </trkpt>
      <trkpt lat="47.25367" lon="-1.67295">
        <ele>43.8</ele>
        <time>2014-10-12T09:41:26Z</time>
      </trkpt>
      <trkpt lat="47.25366" lon="-1.67289">
        <ele>43.8</ele>
        <time>2014-10-12T09:41:28Z</time>
      </trkpt>
      <trkpt lat="47.25365" lon="-1.67283">
        <ele>43.9</ele>
        <time>2014-10-12T09:41:30Z</time>
      </trkpt>
      <trkpt lat="47.25365" lon="-1.67277">
        <ele>43.9</ele>
        <time>2014-10-12T09:41:32Z</time>
      </trkpt>
      <trkpt lat="47.25364" lon="-1.67271">
        <ele>44</ele>
        <time>2014-10-12T09:41:34Z</time>
      </trkpt>
      <trkpt lat="47.25365" lon="-1.67264">
        <ele>44.1</ele>
        <time>2014-10-12T09:41:36Z</time>
      </trkpt>
      <trkpt lat="47.25365" lon="-1.67258">
        <ele>44.2</ele>
        <time>2014-10-12T09:41:38Z</time>
      </trkpt>
      <trkpt lat="47.25365" lon="-1.67253">
        <ele>44.2</ele>
        <time>2014-10-12T09:41:40Z</time>
      </trkpt>
      <trkpt lat="47.25366" lon="-1.67248">
        <ele>44.3</ele>
        <time>2014-10-12T09:41:42Z</time>
      </trkpt>
      <trkpt lat="47.25367" lon="-1.67243">
        <ele>44.4</ele>
        <time>2014-10-12T09:41:44Z</time>
      </trkpt>
      <trkpt lat="47.25366" lon="-1.67237">
        <ele>44.5</ele>
        <time>2014-10-12T09:41:46Z</time>
      </trkpt>
      <trkpt lat="47.25365" lon="-1.67231">
        <ele>44.5</ele>
        <time>2014-10-12T09:41:48Z</time>
      </trkpt>
      <trkpt lat="47.25365" lon="-1.67224">
        <ele>44.6</ele>
        <time>2014-10-12T09:41:50Z</time>
      </trkpt>
      <trkpt lat="47.25364" lon="-1.67218">
        <ele>44.6</ele>
        <time>2014-10-12T09:41:52Z</time>
      </trkpt>
      <trkpt lat="47.25365" lon="-1.67212">
        <ele>44.7</ele>
        <time>2014-10-12T09:41:54Z</time>
      </trkpt>
      <trkpt lat="47.25366" lon="-1.67206">
        <ele>44.9</ele>
        <time>2014-10-12T09:41:56Z</time>
      </trkpt>
      <trkpt lat="47.25366" lon="-1.67198">
        <ele>45.1</ele>
        <time>2014-10-12T09:41:58Z</time>
      </trkpt>
      <trkpt lat="47.25366" lon="-1.67192">
        <ele>45.4</ele>
        <time>2014-10-12T09:42:00Z</time>
      </trkpt>
      <trkpt lat="47.25367" lon="-1.67185">
        <ele>45.6</ele>
        <time>2014-10-12T09:42:02Z</time>
      </trkpt>
      <trkpt lat="47.25368" lon="-1.67178">
        <ele>45.9</ele>
        <time>2014-10-12T09:42:04Z</time>
      </trkpt>
      <trkpt lat="47.25369" lon="-1.67172">
        <ele>46.2</ele>
        <time>2014-10-12T09:42:06Z</time>
      </trkpt>
      <trkpt lat="47.25369" lon="-1.67165">
        <ele>46.4</ele>
        <time>2014-10-12T09:42:08Z</time>
      </trkpt>
      <trkpt lat="47.25369" lon="-1.67159">
        <ele>46.6</ele>
        <time>2014-10-12T09:42:10Z</time>
      </trkpt>
      <trkpt lat="47.2537" lon="-1.67152">
        <ele>46.9</ele>
        <time>2014-10-12T09:42:12Z</time>
      </trkpt>
      <trkpt lat="47.25371" lon="-1.67146">
        <ele>47.1</ele>
        <time>2014-10-12T09:42:14Z</time>
      </trkpt>
      <trkpt lat="47.25369" lon="-1.67139">
        <ele>47.3</ele>
        <time>2014-10-12T09:42:16Z</time>
      </trkpt>
      <trkpt lat="47.25368" lon="-1.67133">
        <ele>47.5</ele>
        <time>2014-10-12T09:42:18Z</time>
      </trkpt>
      <trkpt lat="47.25367" lon="-1.67127">
        <ele>47.6</ele>
        <time>2014-10-12T09:42:20Z</time>
      </trkpt>
      <trkpt lat="47.25367" lon="-1.67121">
        <ele>47.8</ele>
        <time>2014-10-12T09:42:22Z</time>
      </trkpt>
      <trkpt lat="47.25368" lon="-1.67114">
        <ele>47.9</ele>
        <time>2014-10-12T09:42:24Z</time>
      </trkpt>
      <trkpt lat="47.25369" lon="-1.67108">
        <ele>48</ele>
        <time>2014-10-12T09:42:26Z</time>
      </trkpt>
      <trkpt lat="47.2537" lon="-1.67101">
        <ele>48.1</ele>
        <time>2014-10-12T09:42:28Z</time>
      </trkpt>
      <trkpt lat="47.25369" lon="-1.67094">
        <ele>48.1</ele>
        <time>2014-10-12T09:42:30Z</time>
      </trkpt>
      <trkpt lat="47.2537" lon="-1.67087">
        <ele>48.2</ele>
        <time>2014-10-12T09:42:32Z</time>
      </trkpt>
      <trkpt lat="47.2537" lon="-1.67079">
        <ele>48.3</ele>
        <time>2014-10-12T09:42:34Z</time>
      </trkpt>
      <trkpt lat="47.25368" lon="-1.67076">
        <ele>48.3</ele>
        <time>2014-10-12T09:42:35Z</time>
      </trkpt>
      <trkpt lat="47.25367" lon="-1.67072">
        <ele>48.3</ele>
        <time>2014-10-12T09:42:36Z</time>
      </trkpt>
      <trkpt lat="47.25368" lon="-1.67065">
        <ele>48.4</ele>
        <time>2014-10-12T09:42:38Z</time>
      </trkpt>
      <trkpt lat="47.25369" lon="-1.67061">
        <ele>48.5</ele>
        <time>2014-10-12T09:42:39Z</time>
      </trkpt>
      <trkpt lat="47.25371" lon="-1.67054">
        <ele>48.7</ele>
        <time>2014-10-12T09:42:41Z</time>
      </trkpt>
      <trkpt lat="47.25371" lon="-1.67047">
        <ele>48.8</ele>
        <time>2014-10-12T09:42:43Z</time>
      </trkpt>
      <trkpt lat="47.25372" lon="-1.6704">
        <ele>48.9</ele>
        <time>2014-10-12T09:42:45Z</time>
      </trkpt>
      <trkpt lat="47.25373" lon="-1.67036">
        <ele>49</ele>
        <time>2014-10-12T09:42:46Z</time>
      </trkpt>
      <trkpt lat="47.25374" lon="-1.67032">
        <ele>49</ele>
        <time>2014-10-12T09:42:47Z</time>
      </trkpt>
      <trkpt lat="47.25374" lon="-1.67028">
        <ele>49.1</ele>
        <time>2014-10-12T09:42:48Z</time>
      </trkpt>
      <trkpt lat="47.25373" lon="-1.67024">
        <ele>49.1</ele>
        <time>2014-10-12T09:42:49Z</time>
      </trkpt>
      <trkpt lat="47.25373" lon="-1.6702">
        <ele>49.1</ele>
        <time>2014-10-12T09:42:50Z</time>
      </trkpt>
      <trkpt lat="47.25373" lon="-1.67016">
        <ele>49.2</ele>
        <time>2014-10-12T09:42:51Z</time>
      </trkpt>
      <trkpt lat="47.25373" lon="-1.67008">
        <ele>49.3</ele>
        <time>2014-10-12T09:42:53Z</time>
      </trkpt>
      <trkpt lat="47.25373" lon="-1.67001">
        <ele>49.4</ele>
        <time>2014-10-12T09:42:55Z</time>
      </trkpt>
      <trkpt lat="47.25373" lon="-1.66993">
        <ele>49.5</ele>
        <time>2014-10-12T09:42:57Z</time>
      </trkpt>
      <trkpt lat="47.25373" lon="-1.66989">
        <ele>49.5</ele>
        <time>2014-10-12T09:42:58Z</time>
      </trkpt>
      <trkpt lat="47.25372" lon="-1.66981">
        <ele>49.5</ele>
        <time>2014-10-12T09:43:00Z</time>
      </trkpt>
      <trkpt lat="47.25371" lon="-1.66977">
        <ele>49.5</ele>
        <time>2014-10-12T09:43:01Z</time>
      </trkpt>
      <trkpt lat="47.25368" lon="-1.66972">
        <ele>49.3</ele>
        <time>2014-10-12T09:43:02Z</time>
      </trkpt>
      <trkpt lat="47.25367" lon="-1.66968">
        <ele>49.2</ele>
        <time>2014-10-12T09:43:03Z</time>
      </trkpt>
      <trkpt lat="47.25365" lon="-1.66964">
        <ele>49.1</ele>
        <time>2014-10-12T09:43:04Z</time>
      </trkpt>
      <trkpt lat="47.25365" lon="-1.6696">
        <ele>49.1</ele>
        <time>2014-10-12T09:43:05Z</time>
      </trkpt>
      <trkpt lat="47.25364" lon="-1.66956">
        <ele>49</ele>
        <time>2014-10-12T09:43:06Z</time>
      </trkpt>
      <trkpt lat="47.25362" lon="-1.66952">
        <ele>48.7</ele>
        <time>2014-10-12T09:43:07Z</time>
      </trkpt>
      <trkpt lat="47.25356" lon="-1.66946">
        <ele>48.1</ele>
        <time>2014-10-12T09:43:08Z</time>
      </trkpt>
      <trkpt lat="47.25354" lon="-1.6694">
        <ele>47.7</ele>
        <time>2014-10-12T09:43:09Z</time>
      </trkpt>
      <trkpt lat="47.25353" lon="-1.66935">
        <ele>47.5</ele>
        <time>2014-10-12T09:43:10Z</time>
      </trkpt>
      <trkpt lat="47.25352" lon="-1.6693">
        <ele>47.4</ele>
        <time>2014-10-12T09:43:11Z</time>
      </trkpt>
      <trkpt lat="47.25352" lon="-1.66926">
        <ele>47.2</ele>
        <time>2014-10-12T09:43:12Z</time>
      </trkpt>
      <trkpt lat="47.25351" lon="-1.66922">
        <ele>47.1</ele>
        <time>2014-10-12T09:43:13Z</time>
      </trkpt>
      <trkpt lat="47.25351" lon="-1.66918">
        <ele>46.9</ele>
        <time>2014-10-12T09:43:14Z</time>
      </trkpt>
      <trkpt lat="47.2535" lon="-1.66913">
        <ele>46.7</ele>
        <time>2014-10-12T09:43:15Z</time>
      </trkpt>
      <trkpt lat="47.25349" lon="-1.66908">
        <ele>46.5</ele>
        <time>2014-10-12T09:43:16Z</time>
      </trkpt>
      <trkpt lat="47.25347" lon="-1.66904">
        <ele>46.3</ele>
        <time>2014-10-12T09:43:17Z</time>
      </trkpt>
      <trkpt lat="47.25346" lon="-1.66898">
        <ele>46.2</ele>
        <time>2014-10-12T09:43:18Z</time>
      </trkpt>
      <trkpt lat="47.25346" lon="-1.66894">
        <ele>46</ele>
        <time>2014-10-12T09:43:19Z</time>
      </trkpt>
      <trkpt lat="47.25345" lon="-1.66889">
        <ele>45.9</ele>
        <time>2014-10-12T09:43:20Z</time>
      </trkpt>
      <trkpt lat="47.25344" lon="-1.66885">
        <ele>45.7</ele>
        <time>2014-10-12T09:43:21Z</time>
      </trkpt>
      <trkpt lat="47.25339" lon="-1.66882">
        <ele>45.4</ele>
        <time>2014-10-12T09:43:22Z</time>
      </trkpt>
      <trkpt lat="47.25339" lon="-1.66878">
        <ele>45.3</ele>
        <time>2014-10-12T09:43:23Z</time>
      </trkpt>
      <trkpt lat="47.25338" lon="-1.66874">
        <ele>45.2</ele>
        <time>2014-10-12T09:43:24Z</time>
      </trkpt>
      <trkpt lat="47.25337" lon="-1.66869">
        <ele>45</ele>
        <time>2014-10-12T09:43:25Z</time>
      </trkpt>
      <trkpt lat="47.25336" lon="-1.66865">
        <ele>44.9</ele>
        <time>2014-10-12T09:43:26Z</time>
      </trkpt>
      <trkpt lat="47.25336" lon="-1.66859">
        <ele>44.7</ele>
        <time>2014-10-12T09:43:28Z</time>
      </trkpt>
      <trkpt lat="47.25333" lon="-1.66853">
        <ele>44.5</ele>
        <time>2014-10-12T09:43:30Z</time>
      </trkpt>
      <trkpt lat="47.25333" lon="-1.66849">
        <ele>44.3</ele>
        <time>2014-10-12T09:43:31Z</time>
      </trkpt>
      <trkpt lat="47.25333" lon="-1.66845">
        <ele>44.2</ele>
        <time>2014-10-12T09:43:32Z</time>
      </trkpt>
      <trkpt lat="47.25333" lon="-1.6684">
        <ele>44.1</ele>
        <time>2014-10-12T09:43:33Z</time>
      </trkpt>
      <trkpt lat="47.25333" lon="-1.66835">
        <ele>44</ele>
        <time>2014-10-12T09:43:34Z</time>
      </trkpt>
      <trkpt lat="47.25333" lon="-1.6683">
        <ele>43.9</ele>
        <time>2014-10-12T09:43:35Z</time>
      </trkpt>
      <trkpt lat="47.25332" lon="-1.66825">
        <ele>43.8</ele>
        <time>2014-10-12T09:43:36Z</time>
      </trkpt>
      <trkpt lat="47.25332" lon="-1.66821">
        <ele>43.6</ele>
        <time>2014-10-12T09:43:37Z</time>
      </trkpt>
      <trkpt lat="47.25331" lon="-1.66817">
        <ele>43.5</ele>
        <time>2014-10-12T09:43:38Z</time>
      </trkpt>
      <trkpt lat="47.2533" lon="-1.66811">
        <ele>43.4</ele>
        <time>2014-10-12T09:43:39Z</time>
      </trkpt>
      <trkpt lat="47.2533" lon="-1.66806">
        <ele>43.3</ele>
        <time>2014-10-12T09:43:40Z</time>
      </trkpt>
      <trkpt lat="47.25329" lon="-1.66802">
        <ele>43.1</ele>
        <time>2014-10-12T09:43:41Z</time>
      </trkpt>
      <trkpt lat="47.25329" lon="-1.66798">
        <ele>43</ele>
        <time>2014-10-12T09:43:42Z</time>
      </trkpt>
      <trkpt lat="47.25329" lon="-1.66793">
        <ele>42.9</ele>
        <time>2014-10-12T09:43:43Z</time>
      </trkpt>
      <trkpt lat="47.25329" lon="-1.66789">
        <ele>42.8</ele>
        <time>2014-10-12T09:43:44Z</time>
      </trkpt>
      <trkpt lat="47.25329" lon="-1.66784">
        <ele>42.8</ele>
        <time>2014-10-12T09:43:45Z</time>
      </trkpt>
      <trkpt lat="47.2533" lon="-1.66779">
        <ele>42.7</ele>
        <time>2014-10-12T09:43:46Z</time>
      </trkpt>
      <trkpt lat="47.2533" lon="-1.66774">
        <ele>42.7</ele>
        <time>2014-10-12T09:43:47Z</time>
      </trkpt>
      <trkpt lat="47.2533" lon="-1.6677">
        <ele>42.6</ele>
        <time>2014-10-12T09:43:48Z</time>
      </trkpt>
      <trkpt lat="47.2533" lon="-1.66765">
        <ele>42.6</ele>
        <time>2014-10-12T09:43:49Z</time>
      </trkpt>
      <trkpt lat="47.25329" lon="-1.66761">
        <ele>42.5</ele>
        <time>2014-10-12T09:43:50Z</time>
      </trkpt>
      <trkpt lat="47.25329" lon="-1.66756">
        <ele>42.4</ele>
        <time>2014-10-12T09:43:51Z</time>
      </trkpt>
      <trkpt lat="47.2533" lon="-1.66752">
        <ele>42.4</ele>
        <time>2014-10-12T09:43:52Z</time>
      </trkpt>
      <trkpt lat="47.2533" lon="-1.66747">
        <ele>42.3</ele>
        <time>2014-10-12T09:43:53Z</time>
      </trkpt>
      <trkpt lat="47.2533" lon="-1.66742">
        <ele>42.3</ele>
        <time>2014-10-12T09:43:54Z</time>
      </trkpt>
      <trkpt lat="47.2533" lon="-1.66737">
        <ele>42.2</ele>
        <time>2014-10-12T09:43:55Z</time>
      </trkpt>
      <trkpt lat="47.2533" lon="-1.66733">
        <ele>42.1</ele>
        <time>2014-10-12T09:43:56Z</time>
      </trkpt>
      <trkpt lat="47.2533" lon="-1.66728">
        <ele>42.1</ele>
        <time>2014-10-12T09:43:57Z</time>
      </trkpt>
      <trkpt lat="47.2533" lon="-1.66723">
        <ele>42</ele>
        <time>2014-10-12T09:43:58Z</time>
      </trkpt>
      <trkpt lat="47.25331" lon="-1.66718">
        <ele>42</ele>
        <time>2014-10-12T09:43:59Z</time>
      </trkpt>
      <trkpt lat="47.25331" lon="-1.66713">
        <ele>42</ele>
        <time>2014-10-12T09:44:00Z</time>
      </trkpt>
      <trkpt lat="47.25331" lon="-1.66709">
        <ele>41.9</ele>
        <time>2014-10-12T09:44:01Z</time>
      </trkpt>
      <trkpt lat="47.25331" lon="-1.66704">
        <ele>41.9</ele>
        <time>2014-10-12T09:44:02Z</time>
      </trkpt>
      <trkpt lat="47.25331" lon="-1.667">
        <ele>41.8</ele>
        <time>2014-10-12T09:44:03Z</time>
      </trkpt>
      <trkpt lat="47.25331" lon="-1.66695">
        <ele>41.8</ele>
        <time>2014-10-12T09:44:04Z</time>
      </trkpt>
      <trkpt lat="47.25331" lon="-1.66691">
        <ele>41.7</ele>
        <time>2014-10-12T09:44:05Z</time>
      </trkpt>
      <trkpt lat="47.25331" lon="-1.66686">
        <ele>41.6</ele>
        <time>2014-10-12T09:44:06Z</time>
      </trkpt>
      <trkpt lat="47.25332" lon="-1.66681">
        <ele>41.6</ele>
        <time>2014-10-12T09:44:07Z</time>
      </trkpt>
      <trkpt lat="47.25332" lon="-1.66676">
        <ele>41.6</ele>
        <time>2014-10-12T09:44:08Z</time>
      </trkpt>
      <trkpt lat="47.25332" lon="-1.66671">
        <ele>41.5</ele>
        <time>2014-10-12T09:44:09Z</time>
      </trkpt>
      <trkpt lat="47.25332" lon="-1.66667">
        <ele>41.4</ele>
        <time>2014-10-12T09:44:10Z</time>
      </trkpt>
      <trkpt lat="47.25332" lon="-1.66662">
        <ele>41.4</ele>
        <time>2014-10-12T09:44:11Z</time>
      </trkpt>
      <trkpt lat="47.25332" lon="-1.66657">
        <ele>41.3</ele>
        <time>2014-10-12T09:44:12Z</time>
      </trkpt>
      <trkpt lat="47.25332" lon="-1.66652">
        <ele>41.3</ele>
        <time>2014-10-12T09:44:13Z</time>
      </trkpt>
      <trkpt lat="47.25332" lon="-1.66647">
        <ele>41.2</ele>
        <time>2014-10-12T09:44:14Z</time>
      </trkpt>
      <trkpt lat="47.25332" lon="-1.66642">
        <ele>41.2</ele>
        <time>2014-10-12T09:44:15Z</time>
      </trkpt>
      <trkpt lat="47.25332" lon="-1.66637">
        <ele>41.1</ele>
        <time>2014-10-12T09:44:16Z</time>
      </trkpt>
      <trkpt lat="47.25332" lon="-1.66631">
        <ele>41</ele>
        <time>2014-10-12T09:44:17Z</time>
      </trkpt>
      <trkpt lat="47.25332" lon="-1.66626">
        <ele>41</ele>
        <time>2014-10-12T09:44:18Z</time>
      </trkpt>
      <trkpt lat="47.25332" lon="-1.6662">
        <ele>40.9</ele>
        <time>2014-10-12T09:44:19Z</time>
      </trkpt>
      <trkpt lat="47.25332" lon="-1.66614">
        <ele>40.9</ele>
        <time>2014-10-12T09:44:20Z</time>
      </trkpt>
      <trkpt lat="47.25332" lon="-1.66609">
        <ele>40.9</ele>
        <time>2014-10-12T09:44:21Z</time>
      </trkpt>
      <trkpt lat="47.25332" lon="-1.66604">
        <ele>40.8</ele>
        <time>2014-10-12T09:44:22Z</time>
      </trkpt>
      <trkpt lat="47.25332" lon="-1.66599">
        <ele>40.8</ele>
        <time>2014-10-12T09:44:23Z</time>
      </trkpt>
      <trkpt lat="47.25331" lon="-1.66594">
        <ele>40.8</ele>
        <time>2014-10-12T09:44:24Z</time>
      </trkpt>
      <trkpt lat="47.25331" lon="-1.66588">
        <ele>40.7</ele>
        <time>2014-10-12T09:44:25Z</time>
      </trkpt>
      <trkpt lat="47.25331" lon="-1.66584">
        <ele>40.7</ele>
        <time>2014-10-12T09:44:26Z</time>
      </trkpt>
      <trkpt lat="47.25331" lon="-1.66579">
        <ele>40.7</ele>
        <time>2014-10-12T09:44:27Z</time>
      </trkpt>
      <trkpt lat="47.25331" lon="-1.66575">
        <ele>40.6</ele>
        <time>2014-10-12T09:44:28Z</time>
      </trkpt>
      <trkpt lat="47.2533" lon="-1.6657">
        <ele>40.6</ele>
        <time>2014-10-12T09:44:29Z</time>
      </trkpt>
      <trkpt lat="47.2533" lon="-1.66565">
        <ele>40.5</ele>
        <time>2014-10-12T09:44:30Z</time>
      </trkpt>
      <trkpt lat="47.2533" lon="-1.66561">
        <ele>40.5</ele>
        <time>2014-10-12T09:44:31Z</time>
      </trkpt>
      <trkpt lat="47.25329" lon="-1.66556">
        <ele>40.4</ele>
        <time>2014-10-12T09:44:32Z</time>
      </trkpt>
      <trkpt lat="47.25328" lon="-1.66551">
        <ele>40.4</ele>
        <time>2014-10-12T09:44:33Z</time>
      </trkpt>
      <trkpt lat="47.25327" lon="-1.66546">
        <ele>40.3</ele>
        <time>2014-10-12T09:44:34Z</time>
      </trkpt>
      <trkpt lat="47.25327" lon="-1.66541">
        <ele>40.3</ele>
        <time>2014-10-12T09:44:35Z</time>
      </trkpt>
      <trkpt lat="47.25327" lon="-1.66537">
        <ele>40.3</ele>
        <time>2014-10-12T09:44:36Z</time>
      </trkpt>
      <trkpt lat="47.25327" lon="-1.66533">
        <ele>40.3</ele>
        <time>2014-10-12T09:44:37Z</time>
      </trkpt>
      <trkpt lat="47.25327" lon="-1.66529">
        <ele>40.3</ele>
        <time>2014-10-12T09:44:38Z</time>
      </trkpt>
      <trkpt lat="47.25326" lon="-1.66522">
        <ele>40.2</ele>
        <time>2014-10-12T09:44:40Z</time>
      </trkpt>
      <trkpt lat="47.25326" lon="-1.66515">
        <ele>40.2</ele>
        <time>2014-10-12T09:44:42Z</time>
      </trkpt>
      <trkpt lat="47.25326" lon="-1.6651">
        <ele>40.2</ele>
        <time>2014-10-12T09:44:43Z</time>
      </trkpt>
      <trkpt lat="47.25327" lon="-1.66505">
        <ele>40.3</ele>
        <time>2014-10-12T09:44:44Z</time>
      </trkpt>
      <trkpt lat="47.25327" lon="-1.66501">
        <ele>40.3</ele>
        <time>2014-10-12T09:44:45Z</time>
      </trkpt>
      <trkpt lat="47.25327" lon="-1.66496">
        <ele>40.3</ele>
        <time>2014-10-12T09:44:46Z</time>
      </trkpt>
      <trkpt lat="47.25326" lon="-1.66488">
        <ele>40.2</ele>
        <time>2014-10-12T09:44:48Z</time>
      </trkpt>
      <trkpt lat="47.25325" lon="-1.66485">
        <ele>40.2</ele>
        <time>2014-10-12T09:44:49Z</time>
      </trkpt>
      <trkpt lat="47.25325" lon="-1.6648">
        <ele>40.2</ele>
        <time>2014-10-12T09:44:50Z</time>
      </trkpt>
      <trkpt lat="47.25325" lon="-1.66475">
        <ele>40.2</ele>
        <time>2014-10-12T09:44:51Z</time>
      </trkpt>
      <trkpt lat="47.25325" lon="-1.6647">
        <ele>40.2</ele>
        <time>2014-10-12T09:44:52Z</time>
      </trkpt>
      <trkpt lat="47.25325" lon="-1.66464">
        <ele>40.2</ele>
        <time>2014-10-12T09:44:53Z</time>
      </trkpt>
      <trkpt lat="47.25325" lon="-1.66459">
        <ele>40.2</ele>
        <time>2014-10-12T09:44:54Z</time>
      </trkpt>
      <trkpt lat="47.25325" lon="-1.66454">
        <ele>40.2</ele>
        <time>2014-10-12T09:44:55Z</time>
      </trkpt>
      <trkpt lat="47.25325" lon="-1.66449">
        <ele>40.1</ele>
        <time>2014-10-12T09:44:56Z</time>
      </trkpt>
      <trkpt lat="47.25324" lon="-1.66444">
        <ele>40.1</ele>
        <time>2014-10-12T09:44:57Z</time>
      </trkpt>
      <trkpt lat="47.25324" lon="-1.66439">
        <ele>40</ele>
        <time>2014-10-12T09:44:58Z</time>
      </trkpt>
      <trkpt lat="47.25324" lon="-1.66434">
        <ele>40</ele>
        <time>2014-10-12T09:44:59Z</time>
      </trkpt>
      <trkpt lat="47.25325" lon="-1.66429">
        <ele>40</ele>
        <time>2014-10-12T09:45:00Z</time>
      </trkpt>
      <trkpt lat="47.25325" lon="-1.66425">
        <ele>40</ele>
        <time>2014-10-12T09:45:01Z</time>
      </trkpt>
      <trkpt lat="47.25325" lon="-1.66421">
        <ele>39.9</ele>
        <time>2014-10-12T09:45:02Z</time>
      </trkpt>
      <trkpt lat="47.25326" lon="-1.66416">
        <ele>39.9</ele>
        <time>2014-10-12T09:45:03Z</time>
      </trkpt>
      <trkpt lat="47.25326" lon="-1.66412">
        <ele>39.9</ele>
        <time>2014-10-12T09:45:04Z</time>
      </trkpt>
      <trkpt lat="47.25326" lon="-1.66408">
        <ele>39.9</ele>
        <time>2014-10-12T09:45:05Z</time>
      </trkpt>
      <trkpt lat="47.25325" lon="-1.66404">
        <ele>39.8</ele>
        <time>2014-10-12T09:45:06Z</time>
      </trkpt>
      <trkpt lat="47.25324" lon="-1.66397">
        <ele>39.7</ele>
        <time>2014-10-12T09:45:08Z</time>
      </trkpt>
      <trkpt lat="47.25324" lon="-1.66393">
        <ele>39.7</ele>
        <time>2014-10-12T09:45:09Z</time>
      </trkpt>
      <trkpt lat="47.25324" lon="-1.66388">
        <ele>39.6</ele>
        <time>2014-10-12T09:45:10Z</time>
      </trkpt>
      <trkpt lat="47.25324" lon="-1.66384">
        <ele>39.6</ele>
        <time>2014-10-12T09:45:11Z</time>
      </trkpt>
      <trkpt lat="47.25323" lon="-1.6638">
        <ele>39.5</ele>
        <time>2014-10-12T09:45:12Z</time>
      </trkpt>
      <trkpt lat="47.25324" lon="-1.66373">
        <ele>39.6</ele>
        <time>2014-10-12T09:45:14Z</time>
      </trkpt>
      <trkpt lat="47.25324" lon="-1.66366">
        <ele>39.6</ele>
        <time>2014-10-12T09:45:16Z</time>
      </trkpt>
      <trkpt lat="47.25324" lon="-1.66359">
        <ele>39.7</ele>
        <time>2014-10-12T09:45:18Z</time>
      </trkpt>
      <trkpt lat="47.25324" lon="-1.66351">
        <ele>39.7</ele>
        <time>2014-10-12T09:45:20Z</time>
      </trkpt>
      <trkpt lat="47.25324" lon="-1.66347">
        <ele>39.8</ele>
        <time>2014-10-12T09:45:21Z</time>
      </trkpt>
      <trkpt lat="47.25324" lon="-1.66343">
        <ele>39.8</ele>
        <time>2014-10-12T09:45:22Z</time>
      </trkpt>
      <trkpt lat="47.25323" lon="-1.66339">
        <ele>39.8</ele>
        <time>2014-10-12T09:45:23Z</time>
      </trkpt>
      <trkpt lat="47.25323" lon="-1.66335">
        <ele>39.8</ele>
        <time>2014-10-12T09:45:24Z</time>
      </trkpt>
      <trkpt lat="47.25323" lon="-1.66331">
        <ele>39.8</ele>
        <time>2014-10-12T09:45:25Z</time>
      </trkpt>
      <trkpt lat="47.25323" lon="-1.66326">
        <ele>39.8</ele>
        <time>2014-10-12T09:45:26Z</time>
      </trkpt>
      <trkpt lat="47.25323" lon="-1.66322">
        <ele>39.9</ele>
        <time>2014-10-12T09:45:27Z</time>
      </trkpt>
      <trkpt lat="47.25322" lon="-1.66318">
        <ele>39.9</ele>
        <time>2014-10-12T09:45:28Z</time>
      </trkpt>
      <trkpt lat="47.25322" lon="-1.66313">
        <ele>39.9</ele>
        <time>2014-10-12T09:45:29Z</time>
      </trkpt>
      <trkpt lat="47.25321" lon="-1.66309">
        <ele>39.9</ele>
        <time>2014-10-12T09:45:30Z</time>
      </trkpt>
      <trkpt lat="47.25321" lon="-1.66304">
        <ele>40</ele>
        <time>2014-10-12T09:45:31Z</time>
      </trkpt>
      <trkpt lat="47.25321" lon="-1.66299">
        <ele>40</ele>
        <time>2014-10-12T09:45:32Z</time>
      </trkpt>
      <trkpt lat="47.25321" lon="-1.66295">
        <ele>40</ele>
        <time>2014-10-12T09:45:33Z</time>
      </trkpt>
      <trkpt lat="47.25322" lon="-1.6629">
        <ele>40.1</ele>
        <time>2014-10-12T09:45:34Z</time>
      </trkpt>
      <trkpt lat="47.25322" lon="-1.66286">
        <ele>40.1</ele>
        <time>2014-10-12T09:45:35Z</time>
      </trkpt>
      <trkpt lat="47.25322" lon="-1.66282">
        <ele>40.1</ele>
        <time>2014-10-12T09:45:36Z</time>
      </trkpt>
      <trkpt lat="47.25323" lon="-1.66273">
        <ele>40.2</ele>
        <time>2014-10-12T09:45:38Z</time>
      </trkpt>
      <trkpt lat="47.25323" lon="-1.66269">
        <ele>40.2</ele>
        <time>2014-10-12T09:45:39Z</time>
      </trkpt>
      <trkpt lat="47.25323" lon="-1.66263">
        <ele>40.3</ele>
        <time>2014-10-12T09:45:40Z</time>
      </trkpt>
      <trkpt lat="47.25323" lon="-1.66259">
        <ele>40.3</ele>
        <time>2014-10-12T09:45:41Z</time>
      </trkpt>
      <trkpt lat="47.25323" lon="-1.66254">
        <ele>40.3</ele>
        <time>2014-10-12T09:45:42Z</time>
      </trkpt>
      <trkpt lat="47.25323" lon="-1.66249">
        <ele>40.3</ele>
        <time>2014-10-12T09:45:43Z</time>
      </trkpt>
      <trkpt lat="47.25322" lon="-1.66245">
        <ele>40.3</ele>
        <time>2014-10-12T09:45:44Z</time>
      </trkpt>
      <trkpt lat="47.25321" lon="-1.6624">
        <ele>40.3</ele>
        <time>2014-10-12T09:45:45Z</time>
      </trkpt>
      <trkpt lat="47.2532" lon="-1.66232">
        <ele>40.2</ele>
        <time>2014-10-12T09:45:47Z</time>
      </trkpt>
      <trkpt lat="47.2532" lon="-1.66228">
        <ele>40.3</ele>
        <time>2014-10-12T09:45:48Z</time>
      </trkpt>
      <trkpt lat="47.2532" lon="-1.66224">
        <ele>40.3</ele>
        <time>2014-10-12T09:45:49Z</time>
      </trkpt>
      <trkpt lat="47.2532" lon="-1.6622">
        <ele>40.3</ele>
        <time>2014-10-12T09:45:50Z</time>
      </trkpt>
      <trkpt lat="47.2532" lon="-1.66216">
        <ele>40.3</ele>
        <time>2014-10-12T09:45:51Z</time>
      </trkpt>
      <trkpt lat="47.2532" lon="-1.66208">
        <ele>40.4</ele>
        <time>2014-10-12T09:45:53Z</time>
      </trkpt>
      <trkpt lat="47.2532" lon="-1.662">
        <ele>40.6</ele>
        <time>2014-10-12T09:45:55Z</time>
      </trkpt>
      <trkpt lat="47.25321" lon="-1.66196">
        <ele>40.8</ele>
        <time>2014-10-12T09:45:56Z</time>
      </trkpt>
      <trkpt lat="47.25321" lon="-1.66188">
        <ele>41</ele>
        <time>2014-10-12T09:45:58Z</time>
      </trkpt>
      <trkpt lat="47.2532" lon="-1.66184">
        <ele>41.1</ele>
        <time>2014-10-12T09:45:59Z</time>
      </trkpt>
      <trkpt lat="47.2532" lon="-1.6618">
        <ele>41.3</ele>
        <time>2014-10-12T09:46:00Z</time>
      </trkpt>
      <trkpt lat="47.2532" lon="-1.66176">
        <ele>41.4</ele>
        <time>2014-10-12T09:46:01Z</time>
      </trkpt>
      <trkpt lat="47.2532" lon="-1.66171">
        <ele>41.6</ele>
        <time>2014-10-12T09:46:02Z</time>
      </trkpt>
      <trkpt lat="47.2532" lon="-1.66167">
        <ele>41.7</ele>
        <time>2014-10-12T09:46:03Z</time>
      </trkpt>
      <trkpt lat="47.2532" lon="-1.66162">
        <ele>41.8</ele>
        <time>2014-10-12T09:46:04Z</time>
      </trkpt>
      <trkpt lat="47.25321" lon="-1.66158">
        <ele>42</ele>
        <time>2014-10-12T09:46:05Z</time>
      </trkpt>
      <trkpt lat="47.25321" lon="-1.66154">
        <ele>42.1</ele>
        <time>2014-10-12T09:46:06Z</time>
      </trkpt>
      <trkpt lat="47.25321" lon="-1.66149">
        <ele>42.3</ele>
        <time>2014-10-12T09:46:07Z</time>
      </trkpt>
      <trkpt lat="47.25321" lon="-1.66144">
        <ele>42.5</ele>
        <time>2014-10-12T09:46:08Z</time>
      </trkpt>
      <trkpt lat="47.25322" lon="-1.6614">
        <ele>42.6</ele>
        <time>2014-10-12T09:46:09Z</time>
      </trkpt>
      <trkpt lat="47.25322" lon="-1.66135">
        <ele>42.8</ele>
        <time>2014-10-12T09:46:10Z</time>
      </trkpt>
      <trkpt lat="47.25322" lon="-1.66131">
        <ele>42.9</ele>
        <time>2014-10-12T09:46:11Z</time>
      </trkpt>
      <trkpt lat="47.25322" lon="-1.66126">
        <ele>43</ele>
        <time>2014-10-12T09:46:12Z</time>
      </trkpt>
      <trkpt lat="47.25322" lon="-1.66122">
        <ele>43.1</ele>
        <time>2014-10-12T09:46:13Z</time>
      </trkpt>
      <trkpt lat="47.25321" lon="-1.66115">
        <ele>43.2</ele>
        <time>2014-10-12T09:46:15Z</time>
      </trkpt>
      <trkpt lat="47.25321" lon="-1.6611">
        <ele>43.3</ele>
        <time>2014-10-12T09:46:16Z</time>
      </trkpt>
      <trkpt lat="47.25321" lon="-1.66105">
        <ele>43.4</ele>
        <time>2014-10-12T09:46:17Z</time>
      </trkpt>
      <trkpt lat="47.25321" lon="-1.66099">
        <ele>43.5</ele>
        <time>2014-10-12T09:46:19Z</time>
      </trkpt>
      <trkpt lat="47.25319" lon="-1.66093">
        <ele>43.5</ele>
        <time>2014-10-12T09:46:21Z</time>
      </trkpt>
      <trkpt lat="47.25317" lon="-1.66087">
        <ele>43.5</ele>
        <time>2014-10-12T09:46:23Z</time>
      </trkpt>
      <trkpt lat="47.25313" lon="-1.66083">
        <ele>43.5</ele>
        <time>2014-10-12T09:46:25Z</time>
      </trkpt>
      <trkpt lat="47.25309" lon="-1.66078">
        <ele>43.5</ele>
        <time>2014-10-12T09:46:27Z</time>
      </trkpt>
      <trkpt lat="47.25308" lon="-1.66075">
        <ele>43.6</ele>
        <time>2014-10-12T09:46:28Z</time>
      </trkpt>
      <trkpt lat="47.25305" lon="-1.66072">
        <ele>43.6</ele>
        <time>2014-10-12T09:46:29Z</time>
      </trkpt>
      <trkpt lat="47.25303" lon="-1.66069">
        <ele>43.6</ele>
        <time>2014-10-12T09:46:30Z</time>
      </trkpt>
      <trkpt lat="47.253" lon="-1.66063">
        <ele>43.6</ele>
        <time>2014-10-12T09:46:32Z</time>
      </trkpt>
      <trkpt lat="47.25298" lon="-1.66059">
        <ele>43.7</ele>
        <time>2014-10-12T09:46:33Z</time>
      </trkpt>
      <trkpt lat="47.25296" lon="-1.66056">
        <ele>43.7</ele>
        <time>2014-10-12T09:46:34Z</time>
      </trkpt>
      <trkpt lat="47.25294" lon="-1.66052">
        <ele>43.8</ele>
        <time>2014-10-12T09:46:35Z</time>
      </trkpt>
      <trkpt lat="47.25291" lon="-1.66049">
        <ele>43.8</ele>
        <time>2014-10-12T09:46:36Z</time>
      </trkpt>
      <trkpt lat="47.25289" lon="-1.66044">
        <ele>43.9</ele>
        <time>2014-10-12T09:46:37Z</time>
      </trkpt>
      <trkpt lat="47.25287" lon="-1.6604">
        <ele>43.8</ele>
        <time>2014-10-12T09:46:38Z</time>
      </trkpt>
      <trkpt lat="47.25285" lon="-1.66037">
        <ele>43.8</ele>
        <time>2014-10-12T09:46:39Z</time>
      </trkpt>
      <trkpt lat="47.25283" lon="-1.66033">
        <ele>43.8</ele>
        <time>2014-10-12T09:46:40Z</time>
      </trkpt>
      <trkpt lat="47.25281" lon="-1.66029">
        <ele>43.8</ele>
        <time>2014-10-12T09:46:41Z</time>
      </trkpt>
      <trkpt lat="47.2528" lon="-1.66024">
        <ele>43.8</ele>
        <time>2014-10-12T09:46:42Z</time>
      </trkpt>
      <trkpt lat="47.25278" lon="-1.6602">
        <ele>43.8</ele>
        <time>2014-10-12T09:46:43Z</time>
      </trkpt>
      <trkpt lat="47.25277" lon="-1.66015">
        <ele>43.8</ele>
        <time>2014-10-12T09:46:44Z</time>
      </trkpt>
      <trkpt lat="47.25274" lon="-1.66009">
        <ele>43.8</ele>
        <time>2014-10-12T09:46:45Z</time>
      </trkpt>
      <trkpt lat="47.25272" lon="-1.66005">
        <ele>43.7</ele>
        <time>2014-10-12T09:46:46Z</time>
      </trkpt>
      <trkpt lat="47.2527" lon="-1.65999">
        <ele>43.7</ele>
        <time>2014-10-12T09:46:47Z</time>
      </trkpt>
      <trkpt lat="47.25268" lon="-1.65996">
        <ele>43.7</ele>
        <time>2014-10-12T09:46:48Z</time>
      </trkpt>
      <trkpt lat="47.25266" lon="-1.65992">
        <ele>43.7</ele>
        <time>2014-10-12T09:46:49Z</time>
      </trkpt>
      <trkpt lat="47.25263" lon="-1.65989">
        <ele>43.6</ele>
        <time>2014-10-12T09:46:50Z</time>
      </trkpt>
      <trkpt lat="47.25261" lon="-1.65985">
        <ele>43.6</ele>
        <time>2014-10-12T09:46:51Z</time>
      </trkpt>
      <trkpt lat="47.25259" lon="-1.65981">
        <ele>43.6</ele>
        <time>2014-10-12T09:46:52Z</time>
      </trkpt>
      <trkpt lat="47.25257" lon="-1.65976">
        <ele>43.5</ele>
        <time>2014-10-12T09:46:53Z</time>
      </trkpt>
      <trkpt lat="47.25256" lon="-1.65972">
        <ele>43.5</ele>
        <time>2014-10-12T09:46:54Z</time>
      </trkpt>
      <trkpt lat="47.25254" lon="-1.65968">
        <ele>43.5</ele>
        <time>2014-10-12T09:46:55Z</time>
      </trkpt>
      <trkpt lat="47.25252" lon="-1.65963">
        <ele>43.5</ele>
        <time>2014-10-12T09:46:56Z</time>
      </trkpt>
      <trkpt lat="47.25251" lon="-1.65959">
        <ele>43.5</ele>
        <time>2014-10-12T09:46:57Z</time>
      </trkpt>
      <trkpt lat="47.2525" lon="-1.65954">
        <ele>43.5</ele>
        <time>2014-10-12T09:46:58Z</time>
      </trkpt>
      <trkpt lat="47.25249" lon="-1.65949">
        <ele>43.3</ele>
        <time>2014-10-12T09:46:59Z</time>
      </trkpt>
      <trkpt lat="47.25247" lon="-1.65944">
        <ele>43.2</ele>
        <time>2014-10-12T09:47:00Z</time>
      </trkpt>
      <trkpt lat="47.25246" lon="-1.65939">
        <ele>43.1</ele>
        <time>2014-10-12T09:47:01Z</time>
      </trkpt>
      <trkpt lat="47.25244" lon="-1.65934">
        <ele>43</ele>
        <time>2014-10-12T09:47:02Z</time>
      </trkpt>
      <trkpt lat="47.25242" lon="-1.65929">
        <ele>42.9</ele>
        <time>2014-10-12T09:47:03Z</time>
      </trkpt>
      <trkpt lat="47.2524" lon="-1.65925">
        <ele>42.7</ele>
        <time>2014-10-12T09:47:04Z</time>
      </trkpt>
      <trkpt lat="47.25238" lon="-1.6592">
        <ele>42.6</ele>
        <time>2014-10-12T09:47:05Z</time>
      </trkpt>
      <trkpt lat="47.25237" lon="-1.65915">
        <ele>42.5</ele>
        <time>2014-10-12T09:47:06Z</time>
      </trkpt>
      <trkpt lat="47.25235" lon="-1.6591">
        <ele>42.4</ele>
        <time>2014-10-12T09:47:07Z</time>
      </trkpt>
      <trkpt lat="47.25234" lon="-1.65905">
        <ele>42.3</ele>
        <time>2014-10-12T09:47:08Z</time>
      </trkpt>
      <trkpt lat="47.25233" lon="-1.65899">
        <ele>42.2</ele>
        <time>2014-10-12T09:47:09Z</time>
      </trkpt>
      <trkpt lat="47.25232" lon="-1.65893">
        <ele>42.1</ele>
        <time>2014-10-12T09:47:10Z</time>
      </trkpt>
      <trkpt lat="47.25231" lon="-1.65887">
        <ele>41.9</ele>
        <time>2014-10-12T09:47:11Z</time>
      </trkpt>
      <trkpt lat="47.25229" lon="-1.6588">
        <ele>41.8</ele>
        <time>2014-10-12T09:47:12Z</time>
      </trkpt>
      <trkpt lat="47.25227" lon="-1.65874">
        <ele>41.7</ele>
        <time>2014-10-12T09:47:13Z</time>
      </trkpt>
      <trkpt lat="47.25226" lon="-1.65867">
        <ele>41.8</ele>
        <time>2014-10-12T09:47:14Z</time>
      </trkpt>
      <trkpt lat="47.25224" lon="-1.65861">
        <ele>41.8</ele>
        <time>2014-10-12T09:47:15Z</time>
      </trkpt>
      <trkpt lat="47.25222" lon="-1.65853">
        <ele>42</ele>
        <time>2014-10-12T09:47:16Z</time>
      </trkpt>
      <trkpt lat="47.25222" lon="-1.65846">
        <ele>42.1</ele>
        <time>2014-10-12T09:47:17Z</time>
      </trkpt>
      <trkpt lat="47.25221" lon="-1.65839">
        <ele>42.2</ele>
        <time>2014-10-12T09:47:18Z</time>
      </trkpt>
      <trkpt lat="47.2522" lon="-1.65833">
        <ele>42.3</ele>
        <time>2014-10-12T09:47:19Z</time>
      </trkpt>
      <trkpt lat="47.25218" lon="-1.65828">
        <ele>42.4</ele>
        <time>2014-10-12T09:47:20Z</time>
      </trkpt>
      <trkpt lat="47.25216" lon="-1.65823">
        <ele>42.4</ele>
        <time>2014-10-12T09:47:21Z</time>
      </trkpt>
      <trkpt lat="47.25215" lon="-1.65818">
        <ele>42.5</ele>
        <time>2014-10-12T09:47:22Z</time>
      </trkpt>
      <trkpt lat="47.25212" lon="-1.65812">
        <ele>42.6</ele>
        <time>2014-10-12T09:47:23Z</time>
      </trkpt>
      <trkpt lat="47.25211" lon="-1.65807">
        <ele>42.7</ele>
        <time>2014-10-12T09:47:24Z</time>
      </trkpt>
      <trkpt lat="47.25207" lon="-1.65803">
        <ele>42.6</ele>
        <time>2014-10-12T09:47:25Z</time>
      </trkpt>
      <trkpt lat="47.25205" lon="-1.65799">
        <ele>42.6</ele>
        <time>2014-10-12T09:47:26Z</time>
      </trkpt>
      <trkpt lat="47.25203" lon="-1.65793">
        <ele>42.5</ele>
        <time>2014-10-12T09:47:27Z</time>
      </trkpt>
      <trkpt lat="47.25201" lon="-1.65787">
        <ele>42.3</ele>
        <time>2014-10-12T09:47:28Z</time>
      </trkpt>
      <trkpt lat="47.252" lon="-1.65782">
        <ele>42</ele>
        <time>2014-10-12T09:47:29Z</time>
      </trkpt>
      <trkpt lat="47.25198" lon="-1.65777">
        <ele>41.6</ele>
        <time>2014-10-12T09:47:30Z</time>
      </trkpt>
      <trkpt lat="47.25196" lon="-1.65771">
        <ele>41.3</ele>
        <time>2014-10-12T09:47:31Z</time>
      </trkpt>
      <trkpt lat="47.25194" lon="-1.65765">
        <ele>41</ele>
        <time>2014-10-12T09:47:32Z</time>
      </trkpt>
      <trkpt lat="47.25193" lon="-1.6576">
        <ele>40.7</ele>
        <time>2014-10-12T09:47:33Z</time>
      </trkpt>
      <trkpt lat="47.25191" lon="-1.65754">
        <ele>40.4</ele>
        <time>2014-10-12T09:47:34Z</time>
      </trkpt>
      <trkpt lat="47.25188" lon="-1.65749">
        <ele>40</ele>
        <time>2014-10-12T09:47:35Z</time>
      </trkpt>
      <trkpt lat="47.25186" lon="-1.65744">
        <ele>39.7</ele>
        <time>2014-10-12T09:47:36Z</time>
      </trkpt>
      <trkpt lat="47.25184" lon="-1.65739">
        <ele>39.4</ele>
        <time>2014-10-12T09:47:37Z</time>
      </trkpt>
      <trkpt lat="47.25182" lon="-1.65734">
        <ele>39.1</ele>
        <time>2014-10-12T09:47:38Z</time>
      </trkpt>
      <trkpt lat="47.2518" lon="-1.65729">
        <ele>38.9</ele>
        <time>2014-10-12T09:47:39Z</time>
      </trkpt>
      <trkpt lat="47.25179" lon="-1.65724">
        <ele>38.7</ele>
        <time>2014-10-12T09:47:40Z</time>
      </trkpt>
      <trkpt lat="47.25178" lon="-1.65716">
        <ele>38.4</ele>
        <time>2014-10-12T09:47:42Z</time>
      </trkpt>
      <trkpt lat="47.25177" lon="-1.65711">
        <ele>38.2</ele>
        <time>2014-10-12T09:47:43Z</time>
      </trkpt>
      <trkpt lat="47.25176" lon="-1.65708">
        <ele>38</ele>
        <time>2014-10-12T09:47:44Z</time>
      </trkpt>
      <trkpt lat="47.25174" lon="-1.65705">
        <ele>37.8</ele>
        <time>2014-10-12T09:47:46Z</time>
      </trkpt>
      <trkpt lat="47.25172" lon="-1.65701">
        <ele>37.6</ele>
        <time>2014-10-12T09:47:47Z</time>
      </trkpt>
      <trkpt lat="47.25167" lon="-1.65699">
        <ele>37.3</ele>
        <time>2014-10-12T09:47:49Z</time>
      </trkpt>
      <trkpt lat="47.25164" lon="-1.65698">
        <ele>37</ele>
        <time>2014-10-12T09:47:50Z</time>
      </trkpt>
      <trkpt lat="47.2516" lon="-1.65697">
        <ele>36.8</ele>
        <time>2014-10-12T09:47:51Z</time>
      </trkpt>
      <trkpt lat="47.25156" lon="-1.65694">
        <ele>36.5</ele>
        <time>2014-10-12T09:47:53Z</time>
      </trkpt>
      <trkpt lat="47.25153" lon="-1.65691">
        <ele>36.2</ele>
        <time>2014-10-12T09:47:54Z</time>
      </trkpt>
      <trkpt lat="47.25148" lon="-1.65687">
        <ele>35.7</ele>
        <time>2014-10-12T09:47:56Z</time>
      </trkpt>
      <trkpt lat="47.25142" lon="-1.65684">
        <ele>35.3</ele>
        <time>2014-10-12T09:47:57Z</time>
      </trkpt>
      <trkpt lat="47.25135" lon="-1.65682">
        <ele>34.7</ele>
        <time>2014-10-12T09:47:58Z</time>
      </trkpt>
      <trkpt lat="47.25129" lon="-1.65679">
        <ele>34.2</ele>
        <time>2014-10-12T09:47:59Z</time>
      </trkpt>
      <trkpt lat="47.25123" lon="-1.65677">
        <ele>33.9</ele>
        <time>2014-10-12T09:48:00Z</time>
      </trkpt>
      <trkpt lat="47.25118" lon="-1.65675">
        <ele>33.8</ele>
        <time>2014-10-12T09:48:01Z</time>
      </trkpt>
      <trkpt lat="47.25114" lon="-1.65673">
        <ele>33.7</ele>
        <time>2014-10-12T09:48:02Z</time>
      </trkpt>
      <trkpt lat="47.25109" lon="-1.6567">
        <ele>33.6</ele>
        <time>2014-10-12T09:48:03Z</time>
      </trkpt>
      <trkpt lat="47.25105" lon="-1.65668">
        <ele>33.5</ele>
        <time>2014-10-12T09:48:04Z</time>
      </trkpt>
      <trkpt lat="47.25101" lon="-1.65665">
        <ele>33.4</ele>
        <time>2014-10-12T09:48:05Z</time>
      </trkpt>
      <trkpt lat="47.25096" lon="-1.65662">
        <ele>33.4</ele>
        <time>2014-10-12T09:48:06Z</time>
      </trkpt>
      <trkpt lat="47.25092" lon="-1.65658">
        <ele>33.3</ele>
        <time>2014-10-12T09:48:07Z</time>
      </trkpt>
      <trkpt lat="47.25089" lon="-1.65652">
        <ele>33.1</ele>
        <time>2014-10-12T09:48:08Z</time>
      </trkpt>
      <trkpt lat="47.25087" lon="-1.65646">
        <ele>33</ele>
        <time>2014-10-12T09:48:09Z</time>
      </trkpt>
      <trkpt lat="47.25084" lon="-1.65641">
        <ele>32.9</ele>
        <time>2014-10-12T09:48:10Z</time>
      </trkpt>
      <trkpt lat="47.25076" lon="-1.65638">
        <ele>32.9</ele>
        <time>2014-10-12T09:48:11Z</time>
      </trkpt>
      <trkpt lat="47.25074" lon="-1.65633">
        <ele>32.8</ele>
        <time>2014-10-12T09:48:12Z</time>
      </trkpt>
      <trkpt lat="47.25074" lon="-1.65629">
        <ele>32.7</ele>
        <time>2014-10-12T09:48:13Z</time>
      </trkpt>
      <trkpt lat="47.25073" lon="-1.65624">
        <ele>32.6</ele>
        <time>2014-10-12T09:48:14Z</time>
      </trkpt>
      <trkpt lat="47.25075" lon="-1.65618">
        <ele>32.6</ele>
        <time>2014-10-12T09:48:15Z</time>
      </trkpt>
      <trkpt lat="47.25076" lon="-1.65612">
        <ele>32.7</ele>
        <time>2014-10-12T09:48:16Z</time>
      </trkpt>
      <trkpt lat="47.25078" lon="-1.65605">
        <ele>32.7</ele>
        <time>2014-10-12T09:48:17Z</time>
      </trkpt>
      <trkpt lat="47.25079" lon="-1.65598">
        <ele>32.7</ele>
        <time>2014-10-12T09:48:18Z</time>
      </trkpt>
      <trkpt lat="47.2508" lon="-1.6559">
        <ele>32.7</ele>
        <time>2014-10-12T09:48:19Z</time>
      </trkpt>
      <trkpt lat="47.25081" lon="-1.65583">
        <ele>32.8</ele>
        <time>2014-10-12T09:48:20Z</time>
      </trkpt>
      <trkpt lat="47.25082" lon="-1.65577">
        <ele>32.8</ele>
        <time>2014-10-12T09:48:21Z</time>
      </trkpt>
      <trkpt lat="47.25083" lon="-1.65571">
        <ele>32.8</ele>
        <time>2014-10-12T09:48:22Z</time>
      </trkpt>
      <trkpt lat="47.25085" lon="-1.65565">
        <ele>32.9</ele>
        <time>2014-10-12T09:48:23Z</time>
      </trkpt>
      <trkpt lat="47.25087" lon="-1.6556">
        <ele>32.9</ele>
        <time>2014-10-12T09:48:24Z</time>
      </trkpt>
      <trkpt lat="47.2509" lon="-1.65556">
        <ele>32.9</ele>
        <time>2014-10-12T09:48:25Z</time>
      </trkpt>
      <trkpt lat="47.25092" lon="-1.65552">
        <ele>32.9</ele>
        <time>2014-10-12T09:48:26Z</time>
      </trkpt>
      <trkpt lat="47.25094" lon="-1.65548">
        <ele>33</ele>
        <time>2014-10-12T09:48:27Z</time>
      </trkpt>
      <trkpt lat="47.25095" lon="-1.65543">
        <ele>33</ele>
        <time>2014-10-12T09:48:28Z</time>
      </trkpt>
      <trkpt lat="47.25097" lon="-1.65538">
        <ele>33.1</ele>
        <time>2014-10-12T09:48:29Z</time>
      </trkpt>
      <trkpt lat="47.25099" lon="-1.65534">
        <ele>33.2</ele>
        <time>2014-10-12T09:48:30Z</time>
      </trkpt>
      <trkpt lat="47.251" lon="-1.6553">
        <ele>33.2</ele>
        <time>2014-10-12T09:48:31Z</time>
      </trkpt>
      <trkpt lat="47.25101" lon="-1.65523">
        <ele>33.4</ele>
        <time>2014-10-12T09:48:33Z</time>
      </trkpt>
      <trkpt lat="47.25101" lon="-1.65518">
        <ele>33.5</ele>
        <time>2014-10-12T09:48:34Z</time>
      </trkpt>
      <trkpt lat="47.25101" lon="-1.65513">
        <ele>33.6</ele>
        <time>2014-10-12T09:48:35Z</time>
      </trkpt>
      <trkpt lat="47.25101" lon="-1.65509">
        <ele>33.7</ele>
        <time>2014-10-12T09:48:36Z</time>
      </trkpt>
      <trkpt lat="47.25103" lon="-1.65504">
        <ele>33.8</ele>
        <time>2014-10-12T09:48:37Z</time>
      </trkpt>
      <trkpt lat="47.25105" lon="-1.65495">
        <ele>34</ele>
        <time>2014-10-12T09:48:39Z</time>
      </trkpt>
      <trkpt lat="47.25105" lon="-1.6549">
        <ele>34.1</ele>
        <time>2014-10-12T09:48:40Z</time>
      </trkpt>
      <trkpt lat="47.25106" lon="-1.65486">
        <ele>34.2</ele>
        <time>2014-10-12T09:48:41Z</time>
      </trkpt>
      <trkpt lat="47.25106" lon="-1.65481">
        <ele>34.3</ele>
        <time>2014-10-12T09:48:42Z</time>
      </trkpt>
      <trkpt lat="47.25107" lon="-1.65473">
        <ele>34.5</ele>
        <time>2014-10-12T09:48:44Z</time>
      </trkpt>
      <trkpt lat="47.25107" lon="-1.65468">
        <ele>34.6</ele>
        <time>2014-10-12T09:48:45Z</time>
      </trkpt>
      <trkpt lat="47.25107" lon="-1.65464">
        <ele>34.7</ele>
        <time>2014-10-12T09:48:46Z</time>
      </trkpt>
      <trkpt lat="47.25108" lon="-1.6546">
        <ele>34.8</ele>
        <time>2014-10-12T09:48:47Z</time>
      </trkpt>
      <trkpt lat="47.25108" lon="-1.65455">
        <ele>34.9</ele>
        <time>2014-10-12T09:48:48Z</time>
      </trkpt>
      <trkpt lat="47.25109" lon="-1.65449">
        <ele>35.2</ele>
        <time>2014-10-12T09:48:49Z</time>
      </trkpt>
      <trkpt lat="47.25109" lon="-1.65445">
        <ele>35.4</ele>
        <time>2014-10-12T09:48:50Z</time>
      </trkpt>
      <trkpt lat="47.2511" lon="-1.6544">
        <ele>35.6</ele>
        <time>2014-10-12T09:48:51Z</time>
      </trkpt>
      <trkpt lat="47.25112" lon="-1.65433">
        <ele>36</ele>
        <time>2014-10-12T09:48:53Z</time>
      </trkpt>
      <trkpt lat="47.25113" lon="-1.65429">
        <ele>36.2</ele>
        <time>2014-10-12T09:48:54Z</time>
      </trkpt>
      <trkpt lat="47.25115" lon="-1.65426">
        <ele>36.4</ele>
        <time>2014-10-12T09:48:55Z</time>
      </trkpt>
      <trkpt lat="47.25116" lon="-1.65422">
        <ele>36.6</ele>
        <time>2014-10-12T09:48:56Z</time>
      </trkpt>
      <trkpt lat="47.25118" lon="-1.65418">
        <ele>36.8</ele>
        <time>2014-10-12T09:48:57Z</time>
      </trkpt>
      <trkpt lat="47.2512" lon="-1.65415">
        <ele>37</ele>
        <time>2014-10-12T09:48:58Z</time>
      </trkpt>
      <trkpt lat="47.25122" lon="-1.65412">
        <ele>37.2</ele>
        <time>2014-10-12T09:48:59Z</time>
      </trkpt>
      <trkpt lat="47.25124" lon="-1.65408">
        <ele>37.4</ele>
        <time>2014-10-12T09:49:00Z</time>
      </trkpt>
      <trkpt lat="47.25126" lon="-1.65405">
        <ele>37.6</ele>
        <time>2014-10-12T09:49:01Z</time>
      </trkpt>
      <trkpt lat="47.25128" lon="-1.65401">
        <ele>37.8</ele>
        <time>2014-10-12T09:49:02Z</time>
      </trkpt>
      <trkpt lat="47.25129" lon="-1.65397">
        <ele>38.1</ele>
        <time>2014-10-12T09:49:03Z</time>
      </trkpt>
      <trkpt lat="47.25131" lon="-1.65394">
        <ele>38.3</ele>
        <time>2014-10-12T09:49:04Z</time>
      </trkpt>
      <trkpt lat="47.25133" lon="-1.65391">
        <ele>38.5</ele>
        <time>2014-10-12T09:49:05Z</time>
      </trkpt>
      <trkpt lat="47.25134" lon="-1.65387">
        <ele>38.7</ele>
        <time>2014-10-12T09:49:06Z</time>
      </trkpt>
      <trkpt lat="47.25136" lon="-1.65384">
        <ele>38.9</ele>
        <time>2014-10-12T09:49:07Z</time>
      </trkpt>
      <trkpt lat="47.25138" lon="-1.65377">
        <ele>39.2</ele>
        <time>2014-10-12T09:49:09Z</time>
      </trkpt>
      <trkpt lat="47.25139" lon="-1.65372">
        <ele>39.5</ele>
        <time>2014-10-12T09:49:10Z</time>
      </trkpt>
      <trkpt lat="47.25141" lon="-1.65368">
        <ele>39.7</ele>
        <time>2014-10-12T09:49:11Z</time>
      </trkpt>
      <trkpt lat="47.25142" lon="-1.65365">
        <ele>39.9</ele>
        <time>2014-10-12T09:49:12Z</time>
      </trkpt>
      <trkpt lat="47.25143" lon="-1.65361">
        <ele>40.1</ele>
        <time>2014-10-12T09:49:13Z</time>
      </trkpt>
      <trkpt lat="47.25143" lon="-1.65357">
        <ele>40.3</ele>
        <time>2014-10-12T09:49:14Z</time>
      </trkpt>
      <trkpt lat="47.25144" lon="-1.65353">
        <ele>40.5</ele>
        <time>2014-10-12T09:49:15Z</time>
      </trkpt>
      <trkpt lat="47.25145" lon="-1.65349">
        <ele>40.7</ele>
        <time>2014-10-12T09:49:16Z</time>
      </trkpt>
      <trkpt lat="47.25146" lon="-1.65345">
        <ele>41</ele>
        <time>2014-10-12T09:49:17Z</time>
      </trkpt>
      <trkpt lat="47.25148" lon="-1.65341">
        <ele>41.2</ele>
        <time>2014-10-12T09:49:18Z</time>
      </trkpt>
      <trkpt lat="47.25148" lon="-1.65337">
        <ele>41.4</ele>
        <time>2014-10-12T09:49:19Z</time>
      </trkpt>
      <trkpt lat="47.25145" lon="-1.65332">
        <ele>41.5</ele>
        <time>2014-10-12T09:49:20Z</time>
      </trkpt>
      <trkpt lat="47.25147" lon="-1.65326">
        <ele>41.9</ele>
        <time>2014-10-12T09:49:22Z</time>
      </trkpt>
      <trkpt lat="47.25149" lon="-1.6532">
        <ele>42.2</ele>
        <time>2014-10-12T09:49:24Z</time>
      </trkpt>
      <trkpt lat="47.2515" lon="-1.65316">
        <ele>42.4</ele>
        <time>2014-10-12T09:49:25Z</time>
      </trkpt>
      <trkpt lat="47.25152" lon="-1.65312">
        <ele>42.7</ele>
        <time>2014-10-12T09:49:26Z</time>
      </trkpt>
      <trkpt lat="47.25154" lon="-1.65305">
        <ele>43</ele>
        <time>2014-10-12T09:49:28Z</time>
      </trkpt>
      <trkpt lat="47.25155" lon="-1.65299">
        <ele>43.4</ele>
        <time>2014-10-12T09:49:30Z</time>
      </trkpt>
      <trkpt lat="47.25157" lon="-1.65293">
        <ele>43.7</ele>
        <time>2014-10-12T09:49:32Z</time>
      </trkpt>
      <trkpt lat="47.25158" lon="-1.65287">
        <ele>43.9</ele>
        <time>2014-10-12T09:49:34Z</time>
      </trkpt>
      <trkpt lat="47.25159" lon="-1.65282">
        <ele>44.1</ele>
        <time>2014-10-12T09:49:36Z</time>
      </trkpt>
      <trkpt lat="47.25161" lon="-1.65276">
        <ele>44.3</ele>
        <time>2014-10-12T09:49:38Z</time>
      </trkpt>
      <trkpt lat="47.25163" lon="-1.6527">
        <ele>44.6</ele>
        <time>2014-10-12T09:49:40Z</time>
      </trkpt>
      <trkpt lat="47.25163" lon="-1.65262">
        <ele>44.8</ele>
        <time>2014-10-12T09:49:42Z</time>
      </trkpt>
      <trkpt lat="47.25164" lon="-1.65255">
        <ele>45</ele>
        <time>2014-10-12T09:49:44Z</time>
      </trkpt>
      <trkpt lat="47.25164" lon="-1.65249">
        <ele>45.2</ele>
        <time>2014-10-12T09:49:46Z</time>
      </trkpt>
      <trkpt lat="47.25165" lon="-1.65244">
        <ele>45.4</ele>
        <time>2014-10-12T09:49:48Z</time>
      </trkpt>
      <trkpt lat="47.25165" lon="-1.65238">
        <ele>45.6</ele>
        <time>2014-10-12T09:49:50Z</time>
      </trkpt>
      <trkpt lat="47.25163" lon="-1.65235">
        <ele>45.6</ele>
        <time>2014-10-12T09:49:51Z</time>
      </trkpt>
      <trkpt lat="47.25161" lon="-1.65232">
        <ele>45.6</ele>
        <time>2014-10-12T09:49:52Z</time>
      </trkpt>
      <trkpt lat="47.25159" lon="-1.65225">
        <ele>45.8</ele>
        <time>2014-10-12T09:49:54Z</time>
      </trkpt>
      <trkpt lat="47.25156" lon="-1.65222">
        <ele>45.7</ele>
        <time>2014-10-12T09:49:55Z</time>
      </trkpt>
      <trkpt lat="47.25156" lon="-1.65218">
        <ele>45.8</ele>
        <time>2014-10-12T09:49:56Z</time>
      </trkpt>
      <trkpt lat="47.25156" lon="-1.65214">
        <ele>45.9</ele>
        <time>2014-10-12T09:49:57Z</time>
      </trkpt>
      <trkpt lat="47.25155" lon="-1.6521">
        <ele>46.1</ele>
        <time>2014-10-12T09:49:58Z</time>
      </trkpt>
      <trkpt lat="47.25156" lon="-1.65205">
        <ele>46.1</ele>
        <time>2014-10-12T09:49:59Z</time>
      </trkpt>
      <trkpt lat="47.25157" lon="-1.65201">
        <ele>46.2</ele>
        <time>2014-10-12T09:50:00Z</time>
      </trkpt>
      <trkpt lat="47.25157" lon="-1.65195">
        <ele>46.3</ele>
        <time>2014-10-12T09:50:02Z</time>
      </trkpt>
      <trkpt lat="47.2516" lon="-1.65188">
        <ele>46.5</ele>
        <time>2014-10-12T09:50:04Z</time>
      </trkpt>
      <trkpt lat="47.25161" lon="-1.6518">
        <ele>46.6</ele>
        <time>2014-10-12T09:50:06Z</time>
      </trkpt>
      <trkpt lat="47.25163" lon="-1.65166">
        <ele>46.8</ele>
        <time>2014-10-12T09:50:10Z</time>
      </trkpt>
      <trkpt lat="47.25165" lon="-1.65161">
        <ele>47</ele>
        <time>2014-10-12T09:50:11Z</time>
      </trkpt>
      <trkpt lat="47.25167" lon="-1.65155">
        <ele>47.1</ele>
        <time>2014-10-12T09:50:13Z</time>
      </trkpt>
      <trkpt lat="47.25168" lon="-1.65151">
        <ele>47.2</ele>
        <time>2014-10-12T09:50:14Z</time>
      </trkpt>
      <trkpt lat="47.25169" lon="-1.65145">
        <ele>47.4</ele>
        <time>2014-10-12T09:50:16Z</time>
      </trkpt>
      <trkpt lat="47.2517" lon="-1.65139">
        <ele>47.5</ele>
        <time>2014-10-12T09:50:18Z</time>
      </trkpt>
      <trkpt lat="47.25171" lon="-1.65132">
        <ele>47.7</ele>
        <time>2014-10-12T09:50:20Z</time>
      </trkpt>
      <trkpt lat="47.25171" lon="-1.65126">
        <ele>47.8</ele>
        <time>2014-10-12T09:50:22Z</time>
      </trkpt>
      <trkpt lat="47.25173" lon="-1.65119">
        <ele>47.9</ele>
        <time>2014-10-12T09:50:24Z</time>
      </trkpt>
      <trkpt lat="47.25174" lon="-1.65114">
        <ele>48</ele>
        <time>2014-10-12T09:50:26Z</time>
      </trkpt>
      <trkpt lat="47.25173" lon="-1.65107">
        <ele>48</ele>
        <time>2014-10-12T09:50:28Z</time>
      </trkpt>
      <trkpt lat="47.25172" lon="-1.65101">
        <ele>48</ele>
        <time>2014-10-12T09:50:30Z</time>
      </trkpt>
      <trkpt lat="47.25171" lon="-1.65097">
        <ele>47.9</ele>
        <time>2014-10-12T09:50:32Z</time>
      </trkpt>
      <trkpt lat="47.2517" lon="-1.65091">
        <ele>47.9</ele>
        <time>2014-10-12T09:50:33Z</time>
      </trkpt>
      <trkpt lat="47.25169" lon="-1.65086">
        <ele>47.9</ele>
        <time>2014-10-12T09:50:36Z</time>
      </trkpt>
      <trkpt lat="47.2517" lon="-1.65081">
        <ele>48</ele>
        <time>2014-10-12T09:50:37Z</time>
      </trkpt>
      <trkpt lat="47.2517" lon="-1.65074">
        <ele>48</ele>
        <time>2014-10-12T09:50:39Z</time>
      </trkpt>
      <trkpt lat="47.2517" lon="-1.65069">
        <ele>48</ele>
        <time>2014-10-12T09:50:40Z</time>
      </trkpt>
      <trkpt lat="47.25169" lon="-1.65065">
        <ele>48</ele>
        <time>2014-10-12T09:50:41Z</time>
      </trkpt>
      <trkpt lat="47.25169" lon="-1.65057">
        <ele>48</ele>
        <time>2014-10-12T09:50:43Z</time>
      </trkpt>
      <trkpt lat="47.25169" lon="-1.65049">
        <ele>48.1</ele>
        <time>2014-10-12T09:50:45Z</time>
      </trkpt>
      <trkpt lat="47.25169" lon="-1.65045">
        <ele>48.1</ele>
        <time>2014-10-12T09:50:46Z</time>
      </trkpt>
      <trkpt lat="47.2517" lon="-1.65041">
        <ele>48.2</ele>
        <time>2014-10-12T09:50:47Z</time>
      </trkpt>
      <trkpt lat="47.2517" lon="-1.65035">
        <ele>48.2</ele>
        <time>2014-10-12T09:50:48Z</time>
      </trkpt>
      <trkpt lat="47.2517" lon="-1.65031">
        <ele>48.2</ele>
        <time>2014-10-12T09:50:49Z</time>
      </trkpt>
      <trkpt lat="47.25171" lon="-1.65026">
        <ele>48.2</ele>
        <time>2014-10-12T09:50:50Z</time>
      </trkpt>
      <trkpt lat="47.25171" lon="-1.65022">
        <ele>48.2</ele>
        <time>2014-10-12T09:50:51Z</time>
      </trkpt>
      <trkpt lat="47.25171" lon="-1.65015">
        <ele>48.1</ele>
        <time>2014-10-12T09:50:53Z</time>
      </trkpt>
      <trkpt lat="47.2517" lon="-1.65009">
        <ele>48</ele>
        <time>2014-10-12T09:50:55Z</time>
      </trkpt>
      <trkpt lat="47.25171" lon="-1.65005">
        <ele>48</ele>
        <time>2014-10-12T09:50:56Z</time>
      </trkpt>
      <trkpt lat="47.2517" lon="-1.64997">
        <ele>48</ele>
        <time>2014-10-12T09:50:58Z</time>
      </trkpt>
      <trkpt lat="47.25171" lon="-1.64993">
        <ele>48</ele>
        <time>2014-10-12T09:50:59Z</time>
      </trkpt>
      <trkpt lat="47.25171" lon="-1.64985">
        <ele>48</ele>
        <time>2014-10-12T09:51:01Z</time>
      </trkpt>
      <trkpt lat="47.25172" lon="-1.64977">
        <ele>48</ele>
        <time>2014-10-12T09:51:03Z</time>
      </trkpt>
      <trkpt lat="47.25173" lon="-1.64971">
        <ele>48</ele>
        <time>2014-10-12T09:51:04Z</time>
      </trkpt>
      <trkpt lat="47.25173" lon="-1.64965">
        <ele>47.9</ele>
        <time>2014-10-12T09:51:06Z</time>
      </trkpt>
      <trkpt lat="47.25172" lon="-1.6496">
        <ele>47.8</ele>
        <time>2014-10-12T09:51:08Z</time>
      </trkpt>
      <trkpt lat="47.2517" lon="-1.64954">
        <ele>47.6</ele>
        <time>2014-10-12T09:51:10Z</time>
      </trkpt>
      <trkpt lat="47.25168" lon="-1.64949">
        <ele>47.4</ele>
        <time>2014-10-12T09:51:12Z</time>
      </trkpt>
      <trkpt lat="47.25166" lon="-1.64941">
        <ele>47.1</ele>
        <time>2014-10-12T09:51:14Z</time>
      </trkpt>
      <trkpt lat="47.25165" lon="-1.64936">
        <ele>47</ele>
        <time>2014-10-12T09:51:15Z</time>
      </trkpt>
      <trkpt lat="47.25164" lon="-1.64932">
        <ele>46.8</ele>
        <time>2014-10-12T09:51:16Z</time>
      </trkpt>
      <trkpt lat="47.25162" lon="-1.64926">
        <ele>46.6</ele>
        <time>2014-10-12T09:51:18Z</time>
      </trkpt>
      <trkpt lat="47.25161" lon="-1.64922">
        <ele>46.4</ele>
        <time>2014-10-12T09:51:19Z</time>
      </trkpt>
      <trkpt lat="47.25159" lon="-1.64918">
        <ele>46.3</ele>
        <time>2014-10-12T09:51:20Z</time>
      </trkpt>
      <trkpt lat="47.25158" lon="-1.64913">
        <ele>46.1</ele>
        <time>2014-10-12T09:51:21Z</time>
      </trkpt>
      <trkpt lat="47.25158" lon="-1.64907">
        <ele>46</ele>
        <time>2014-10-12T09:51:22Z</time>
      </trkpt>
      <trkpt lat="47.25158" lon="-1.64901">
        <ele>45.9</ele>
        <time>2014-10-12T09:51:23Z</time>
      </trkpt>
      <trkpt lat="47.25157" lon="-1.64896">
        <ele>45.7</ele>
        <time>2014-10-12T09:51:24Z</time>
      </trkpt>
      <trkpt lat="47.25156" lon="-1.64891">
        <ele>45.5</ele>
        <time>2014-10-12T09:51:25Z</time>
      </trkpt>
      <trkpt lat="47.25154" lon="-1.64888">
        <ele>45.4</ele>
        <time>2014-10-12T09:51:26Z</time>
      </trkpt>
      <trkpt lat="47.25153" lon="-1.64884">
        <ele>45.2</ele>
        <time>2014-10-12T09:51:27Z</time>
      </trkpt>
      <trkpt lat="47.25148" lon="-1.64879">
        <ele>44.7</ele>
        <time>2014-10-12T09:51:29Z</time>
      </trkpt>
      <trkpt lat="47.25146" lon="-1.64874">
        <ele>44.5</ele>
        <time>2014-10-12T09:51:30Z</time>
      </trkpt>
      <trkpt lat="47.25144" lon="-1.64869">
        <ele>44.3</ele>
        <time>2014-10-12T09:51:31Z</time>
      </trkpt>
      <trkpt lat="47.25143" lon="-1.64865">
        <ele>44.2</ele>
        <time>2014-10-12T09:51:32Z</time>
      </trkpt>
      <trkpt lat="47.2514" lon="-1.64862">
        <ele>43.9</ele>
        <time>2014-10-12T09:51:33Z</time>
      </trkpt>
      <trkpt lat="47.25138" lon="-1.64858">
        <ele>43.8</ele>
        <time>2014-10-12T09:51:34Z</time>
      </trkpt>
      <trkpt lat="47.25133" lon="-1.64854">
        <ele>43.3</ele>
        <time>2014-10-12T09:51:35Z</time>
      </trkpt>
      <trkpt lat="47.25131" lon="-1.64849">
        <ele>43.1</ele>
        <time>2014-10-12T09:51:36Z</time>
      </trkpt>
      <trkpt lat="47.25129" lon="-1.64845">
        <ele>43</ele>
        <time>2014-10-12T09:51:37Z</time>
      </trkpt>
      <trkpt lat="47.25127" lon="-1.64842">
        <ele>42.8</ele>
        <time>2014-10-12T09:51:38Z</time>
      </trkpt>
      <trkpt lat="47.25125" lon="-1.64838">
        <ele>42.6</ele>
        <time>2014-10-12T09:51:39Z</time>
      </trkpt>
      <trkpt lat="47.25122" lon="-1.64834">
        <ele>42.3</ele>
        <time>2014-10-12T09:51:40Z</time>
      </trkpt>
      <trkpt lat="47.25118" lon="-1.64831">
        <ele>42.1</ele>
        <time>2014-10-12T09:51:41Z</time>
      </trkpt>
      <trkpt lat="47.25113" lon="-1.64828">
        <ele>41.8</ele>
        <time>2014-10-12T09:51:42Z</time>
      </trkpt>
      <trkpt lat="47.25109" lon="-1.64826">
        <ele>41.5</ele>
        <time>2014-10-12T09:51:43Z</time>
      </trkpt>
      <trkpt lat="47.25105" lon="-1.64823">
        <ele>41.2</ele>
        <time>2014-10-12T09:51:44Z</time>
      </trkpt>
      <trkpt lat="47.25102" lon="-1.64821">
        <ele>41</ele>
        <time>2014-10-12T09:51:45Z</time>
      </trkpt>
      <trkpt lat="47.25101" lon="-1.64816">
        <ele>40.8</ele>
        <time>2014-10-12T09:51:46Z</time>
      </trkpt>
      <trkpt lat="47.251" lon="-1.64811">
        <ele>40.6</ele>
        <time>2014-10-12T09:51:47Z</time>
      </trkpt>
      <trkpt lat="47.25098" lon="-1.64806">
        <ele>40.4</ele>
        <time>2014-10-12T09:51:48Z</time>
      </trkpt>
      <trkpt lat="47.25096" lon="-1.64801">
        <ele>40.2</ele>
        <time>2014-10-12T09:51:49Z</time>
      </trkpt>
      <trkpt lat="47.25096" lon="-1.64797">
        <ele>40</ele>
        <time>2014-10-12T09:51:50Z</time>
      </trkpt>
      <trkpt lat="47.25097" lon="-1.64789">
        <ele>40</ele>
        <time>2014-10-12T09:51:52Z</time>
      </trkpt>
      <trkpt lat="47.25096" lon="-1.64781">
        <ele>40.1</ele>
        <time>2014-10-12T09:51:54Z</time>
      </trkpt>
      <trkpt lat="47.25096" lon="-1.64777">
        <ele>40.1</ele>
        <time>2014-10-12T09:51:55Z</time>
      </trkpt>
      <trkpt lat="47.25095" lon="-1.64773">
        <ele>40.1</ele>
        <time>2014-10-12T09:51:56Z</time>
      </trkpt>
      <trkpt lat="47.25094" lon="-1.64769">
        <ele>40.1</ele>
        <time>2014-10-12T09:51:57Z</time>
      </trkpt>
      <trkpt lat="47.25095" lon="-1.64765">
        <ele>40.2</ele>
        <time>2014-10-12T09:51:58Z</time>
      </trkpt>
      <trkpt lat="47.25095" lon="-1.64761">
        <ele>40.3</ele>
        <time>2014-10-12T09:51:59Z</time>
      </trkpt>
      <trkpt lat="47.25094" lon="-1.64757">
        <ele>40.3</ele>
        <time>2014-10-12T09:52:00Z</time>
      </trkpt>
      <trkpt lat="47.25093" lon="-1.64753">
        <ele>40.3</ele>
        <time>2014-10-12T09:52:01Z</time>
      </trkpt>
      <trkpt lat="47.25091" lon="-1.64749">
        <ele>40.3</ele>
        <time>2014-10-12T09:52:02Z</time>
      </trkpt>
      <trkpt lat="47.2509" lon="-1.64745">
        <ele>40.3</ele>
        <time>2014-10-12T09:52:03Z</time>
      </trkpt>
      <trkpt lat="47.2509" lon="-1.64741">
        <ele>40.3</ele>
        <time>2014-10-12T09:52:04Z</time>
      </trkpt>
      <trkpt lat="47.2509" lon="-1.64737">
        <ele>40.4</ele>
        <time>2014-10-12T09:52:05Z</time>
      </trkpt>
      <trkpt lat="47.25088" lon="-1.64732">
        <ele>40.4</ele>
        <time>2014-10-12T09:52:06Z</time>
      </trkpt>
      <trkpt lat="47.25089" lon="-1.64727">
        <ele>40.5</ele>
        <time>2014-10-12T09:52:07Z</time>
      </trkpt>
      <trkpt lat="47.25089" lon="-1.64722">
        <ele>40.6</ele>
        <time>2014-10-12T09:52:08Z</time>
      </trkpt>
      <trkpt lat="47.2509" lon="-1.64718">
        <ele>40.7</ele>
        <time>2014-10-12T09:52:09Z</time>
      </trkpt>
      <trkpt lat="47.2509" lon="-1.64714">
        <ele>40.8</ele>
        <time>2014-10-12T09:52:10Z</time>
      </trkpt>
      <trkpt lat="47.25091" lon="-1.6471">
        <ele>40.9</ele>
        <time>2014-10-12T09:52:11Z</time>
      </trkpt>
      <trkpt lat="47.25091" lon="-1.64706">
        <ele>41</ele>
        <time>2014-10-12T09:52:12Z</time>
      </trkpt>
      <trkpt lat="47.25092" lon="-1.64702">
        <ele>41</ele>
        <time>2014-10-12T09:52:13Z</time>
      </trkpt>
      <trkpt lat="47.25093" lon="-1.64698">
        <ele>41.1</ele>
        <time>2014-10-12T09:52:14Z</time>
      </trkpt>
      <trkpt lat="47.25094" lon="-1.64691">
        <ele>41.2</ele>
        <time>2014-10-12T09:52:16Z</time>
      </trkpt>
      <trkpt lat="47.25096" lon="-1.64687">
        <ele>41.3</ele>
        <time>2014-10-12T09:52:17Z</time>
      </trkpt>
      <trkpt lat="47.25096" lon="-1.6468">
        <ele>41.4</ele>
        <time>2014-10-12T09:52:19Z</time>
      </trkpt>
      <trkpt lat="47.25097" lon="-1.64676">
        <ele>41.4</ele>
        <time>2014-10-12T09:52:20Z</time>
      </trkpt>
      <trkpt lat="47.25098" lon="-1.64668">
        <ele>41.5</ele>
        <time>2014-10-12T09:52:22Z</time>
      </trkpt>
      <trkpt lat="47.25099" lon="-1.6466">
        <ele>41.7</ele>
        <time>2014-10-12T09:52:24Z</time>
      </trkpt>
      <trkpt lat="47.251" lon="-1.64653">
        <ele>41.8</ele>
        <time>2014-10-12T09:52:26Z</time>
      </trkpt>
      <trkpt lat="47.25101" lon="-1.64649">
        <ele>41.8</ele>
        <time>2014-10-12T09:52:27Z</time>
      </trkpt>
      <trkpt lat="47.25101" lon="-1.64644">
        <ele>41.9</ele>
        <time>2014-10-12T09:52:28Z</time>
      </trkpt>
      <trkpt lat="47.25102" lon="-1.64639">
        <ele>42</ele>
        <time>2014-10-12T09:52:29Z</time>
      </trkpt>
      <trkpt lat="47.25102" lon="-1.64634">
        <ele>42</ele>
        <time>2014-10-12T09:52:30Z</time>
      </trkpt>
      <trkpt lat="47.25103" lon="-1.64629">
        <ele>42.1</ele>
        <time>2014-10-12T09:52:31Z</time>
      </trkpt>
      <trkpt lat="47.25103" lon="-1.64624">
        <ele>42.2</ele>
        <time>2014-10-12T09:52:32Z</time>
      </trkpt>
      <trkpt lat="47.25103" lon="-1.64619">
        <ele>42.3</ele>
        <time>2014-10-12T09:52:33Z</time>
      </trkpt>
      <trkpt lat="47.25103" lon="-1.64613">
        <ele>42.4</ele>
        <time>2014-10-12T09:52:34Z</time>
      </trkpt>
      <trkpt lat="47.25103" lon="-1.64608">
        <ele>42.5</ele>
        <time>2014-10-12T09:52:35Z</time>
      </trkpt>
      <trkpt lat="47.25102" lon="-1.64603">
        <ele>42.6</ele>
        <time>2014-10-12T09:52:36Z</time>
      </trkpt>
      <trkpt lat="47.25102" lon="-1.64598">
        <ele>42.7</ele>
        <time>2014-10-12T09:52:37Z</time>
      </trkpt>
      <trkpt lat="47.25101" lon="-1.64592">
        <ele>42.8</ele>
        <time>2014-10-12T09:52:38Z</time>
      </trkpt>
      <trkpt lat="47.251" lon="-1.64586">
        <ele>42.9</ele>
        <time>2014-10-12T09:52:39Z</time>
      </trkpt>
      <trkpt lat="47.251" lon="-1.6458">
        <ele>42.9</ele>
        <time>2014-10-12T09:52:40Z</time>
      </trkpt>
      <trkpt lat="47.25099" lon="-1.64574">
        <ele>43</ele>
        <time>2014-10-12T09:52:41Z</time>
      </trkpt>
      <trkpt lat="47.25099" lon="-1.64568">
        <ele>43.2</ele>
        <time>2014-10-12T09:52:42Z</time>
      </trkpt>
      <trkpt lat="47.25099" lon="-1.64562">
        <ele>43.3</ele>
        <time>2014-10-12T09:52:43Z</time>
      </trkpt>
      <trkpt lat="47.25098" lon="-1.64557">
        <ele>43.4</ele>
        <time>2014-10-12T09:52:44Z</time>
      </trkpt>
      <trkpt lat="47.25098" lon="-1.64552">
        <ele>43.5</ele>
        <time>2014-10-12T09:52:45Z</time>
      </trkpt>
      <trkpt lat="47.25098" lon="-1.64546">
        <ele>43.6</ele>
        <time>2014-10-12T09:52:46Z</time>
      </trkpt>
      <trkpt lat="47.25099" lon="-1.64541">
        <ele>43.8</ele>
        <time>2014-10-12T09:52:47Z</time>
      </trkpt>
      <trkpt lat="47.25098" lon="-1.64537">
        <ele>43.9</ele>
        <time>2014-10-12T09:52:48Z</time>
      </trkpt>
      <trkpt lat="47.25098" lon="-1.64531">
        <ele>44</ele>
        <time>2014-10-12T09:52:49Z</time>
      </trkpt>
      <trkpt lat="47.25098" lon="-1.64526">
        <ele>44.3</ele>
        <time>2014-10-12T09:52:50Z</time>
      </trkpt>
      <trkpt lat="47.251" lon="-1.6452">
        <ele>44.5</ele>
        <time>2014-10-12T09:52:51Z</time>
      </trkpt>
      <trkpt lat="47.25101" lon="-1.64515">
        <ele>44.7</ele>
        <time>2014-10-12T09:52:52Z</time>
      </trkpt>
      <trkpt lat="47.25102" lon="-1.64511">
        <ele>45</ele>
        <time>2014-10-12T09:52:53Z</time>
      </trkpt>
      <trkpt lat="47.25104" lon="-1.64507">
        <ele>45.2</ele>
        <time>2014-10-12T09:52:54Z</time>
      </trkpt>
      <trkpt lat="47.25105" lon="-1.64503">
        <ele>45.3</ele>
        <time>2014-10-12T09:52:55Z</time>
      </trkpt>
      <trkpt lat="47.25106" lon="-1.64496">
        <ele>45.6</ele>
        <time>2014-10-12T09:52:57Z</time>
      </trkpt>
      <trkpt lat="47.25103" lon="-1.64491">
        <ele>45.5</ele>
        <time>2014-10-12T09:52:59Z</time>
      </trkpt>
      <trkpt lat="47.251" lon="-1.64489">
        <ele>45.5</ele>
        <time>2014-10-12T09:53:00Z</time>
      </trkpt>
      <trkpt lat="47.25096" lon="-1.64484">
        <ele>45.5</ele>
        <time>2014-10-12T09:53:02Z</time>
      </trkpt>
      <trkpt lat="47.25092" lon="-1.64479">
        <ele>45.5</ele>
        <time>2014-10-12T09:53:04Z</time>
      </trkpt>
      <trkpt lat="47.25091" lon="-1.64476">
        <ele>45.5</ele>
        <time>2014-10-12T09:53:05Z</time>
      </trkpt>
      <trkpt lat="47.25089" lon="-1.64472">
        <ele>45.6</ele>
        <time>2014-10-12T09:53:06Z</time>
      </trkpt>
      <trkpt lat="47.25089" lon="-1.64463">
        <ele>46</ele>
        <time>2014-10-12T09:53:08Z</time>
      </trkpt>
      <trkpt lat="47.2509" lon="-1.64457">
        <ele>46.2</ele>
        <time>2014-10-12T09:53:09Z</time>
      </trkpt>
      <trkpt lat="47.25091" lon="-1.64451">
        <ele>46.4</ele>
        <time>2014-10-12T09:53:10Z</time>
      </trkpt>
      <trkpt lat="47.25095" lon="-1.64446">
        <ele>46.7</ele>
        <time>2014-10-12T09:53:12Z</time>
      </trkpt>
      <trkpt lat="47.25097" lon="-1.64443">
        <ele>46.8</ele>
        <time>2014-10-12T09:53:13Z</time>
      </trkpt>
      <trkpt lat="47.251" lon="-1.6444">
        <ele>47</ele>
        <time>2014-10-12T09:53:14Z</time>
      </trkpt>
      <trkpt lat="47.25102" lon="-1.64437">
        <ele>47.1</ele>
        <time>2014-10-12T09:53:15Z</time>
      </trkpt>
      <trkpt lat="47.25103" lon="-1.64433">
        <ele>47.3</ele>
        <time>2014-10-12T09:53:16Z</time>
      </trkpt>
      <trkpt lat="47.25105" lon="-1.64429">
        <ele>47.4</ele>
        <time>2014-10-12T09:53:17Z</time>
      </trkpt>
      <trkpt lat="47.25108" lon="-1.64425">
        <ele>47.6</ele>
        <time>2014-10-12T09:53:19Z</time>
      </trkpt>
      <trkpt lat="47.25112" lon="-1.64419">
        <ele>47.8</ele>
        <time>2014-10-12T09:53:21Z</time>
      </trkpt>
      <trkpt lat="47.25114" lon="-1.64415">
        <ele>47.9</ele>
        <time>2014-10-12T09:53:22Z</time>
      </trkpt>
      <trkpt lat="47.25118" lon="-1.6441">
        <ele>48.1</ele>
        <time>2014-10-12T09:53:24Z</time>
      </trkpt>
      <trkpt lat="47.25121" lon="-1.64406">
        <ele>48.2</ele>
        <time>2014-10-12T09:53:26Z</time>
      </trkpt>
      <trkpt lat="47.25124" lon="-1.644">
        <ele>48.4</ele>
        <time>2014-10-12T09:53:28Z</time>
      </trkpt>
      <trkpt lat="47.25125" lon="-1.64396">
        <ele>48.5</ele>
        <time>2014-10-12T09:53:29Z</time>
      </trkpt>
      <trkpt lat="47.25126" lon="-1.64389">
        <ele>48.7</ele>
        <time>2014-10-12T09:53:31Z</time>
      </trkpt>
      <trkpt lat="47.25129" lon="-1.64383">
        <ele>48.9</ele>
        <time>2014-10-12T09:53:33Z</time>
      </trkpt>
      <trkpt lat="47.25131" lon="-1.64377">
        <ele>49.1</ele>
        <time>2014-10-12T09:53:35Z</time>
      </trkpt>
      <trkpt lat="47.25131" lon="-1.64372">
        <ele>49.3</ele>
        <time>2014-10-12T09:53:37Z</time>
      </trkpt>
      <trkpt lat="47.25131" lon="-1.64367">
        <ele>49.4</ele>
        <time>2014-10-12T09:53:39Z</time>
      </trkpt>
      <trkpt lat="47.25129" lon="-1.64361">
        <ele>49.5</ele>
        <time>2014-10-12T09:53:41Z</time>
      </trkpt>
      <trkpt lat="47.25126" lon="-1.64355">
        <ele>49.5</ele>
        <time>2014-10-12T09:53:43Z</time>
      </trkpt>
      <trkpt lat="47.25125" lon="-1.64351">
        <ele>49.6</ele>
        <time>2014-10-12T09:53:44Z</time>
      </trkpt>
      <trkpt lat="47.25123" lon="-1.64347">
        <ele>49.7</ele>
        <time>2014-10-12T09:53:45Z</time>
      </trkpt>
      <trkpt lat="47.25121" lon="-1.64343">
        <ele>49.7</ele>
        <time>2014-10-12T09:53:46Z</time>
      </trkpt>
      <trkpt lat="47.25119" lon="-1.64338">
        <ele>49.8</ele>
        <time>2014-10-12T09:53:47Z</time>
      </trkpt>
      <trkpt lat="47.25116" lon="-1.64334">
        <ele>49.9</ele>
        <time>2014-10-12T09:53:48Z</time>
      </trkpt>
      <trkpt lat="47.25114" lon="-1.6433">
        <ele>49.9</ele>
        <time>2014-10-12T09:53:49Z</time>
      </trkpt>
      <trkpt lat="47.25111" lon="-1.64326">
        <ele>50</ele>
        <time>2014-10-12T09:53:50Z</time>
      </trkpt>
      <trkpt lat="47.25107" lon="-1.64323">
        <ele>50</ele>
        <time>2014-10-12T09:53:51Z</time>
      </trkpt>
      <trkpt lat="47.25105" lon="-1.64318">
        <ele>50</ele>
        <time>2014-10-12T09:53:52Z</time>
      </trkpt>
      <trkpt lat="47.25102" lon="-1.64313">
        <ele>50.1</ele>
        <time>2014-10-12T09:53:53Z</time>
      </trkpt>
      <trkpt lat="47.25099" lon="-1.64309">
        <ele>50.1</ele>
        <time>2014-10-12T09:53:54Z</time>
      </trkpt>
      <trkpt lat="47.25096" lon="-1.64304">
        <ele>50.1</ele>
        <time>2014-10-12T09:53:55Z</time>
      </trkpt>
      <trkpt lat="47.25093" lon="-1.64299">
        <ele>50.1</ele>
        <time>2014-10-12T09:53:56Z</time>
      </trkpt>
      <trkpt lat="47.2509" lon="-1.64295">
        <ele>50.1</ele>
        <time>2014-10-12T09:53:57Z</time>
      </trkpt>
      <trkpt lat="47.25087" lon="-1.6429">
        <ele>50.1</ele>
        <time>2014-10-12T09:53:58Z</time>
      </trkpt>
      <trkpt lat="47.25084" lon="-1.64285">
        <ele>50.1</ele>
        <time>2014-10-12T09:53:59Z</time>
      </trkpt>
      <trkpt lat="47.25081" lon="-1.6428">
        <ele>50.1</ele>
        <time>2014-10-12T09:54:00Z</time>
      </trkpt>
      <trkpt lat="47.25078" lon="-1.64276">
        <ele>50.1</ele>
        <time>2014-10-12T09:54:01Z</time>
      </trkpt>
      <trkpt lat="47.25075" lon="-1.64271">
        <ele>50.1</ele>
        <time>2014-10-12T09:54:02Z</time>
      </trkpt>
      <trkpt lat="47.25073" lon="-1.64265">
        <ele>50.1</ele>
        <time>2014-10-12T09:54:03Z</time>
      </trkpt>
      <trkpt lat="47.25071" lon="-1.6426">
        <ele>50.1</ele>
        <time>2014-10-12T09:54:04Z</time>
      </trkpt>
      <trkpt lat="47.25069" lon="-1.64254">
        <ele>50.1</ele>
        <time>2014-10-12T09:54:05Z</time>
      </trkpt>
      <trkpt lat="47.25067" lon="-1.64249">
        <ele>50.1</ele>
        <time>2014-10-12T09:54:06Z</time>
      </trkpt>
      <trkpt lat="47.25066" lon="-1.64243">
        <ele>50.2</ele>
        <time>2014-10-12T09:54:07Z</time>
      </trkpt>
      <trkpt lat="47.25064" lon="-1.64237">
        <ele>50.2</ele>
        <time>2014-10-12T09:54:08Z</time>
      </trkpt>
      <trkpt lat="47.25063" lon="-1.64231">
        <ele>50.3</ele>
        <time>2014-10-12T09:54:09Z</time>
      </trkpt>
      <trkpt lat="47.25061" lon="-1.64223">
        <ele>50.3</ele>
        <time>2014-10-12T09:54:10Z</time>
      </trkpt>
      <trkpt lat="47.2506" lon="-1.64216">
        <ele>50.3</ele>
        <time>2014-10-12T09:54:11Z</time>
      </trkpt>
      <trkpt lat="47.25059" lon="-1.64209">
        <ele>50.4</ele>
        <time>2014-10-12T09:54:12Z</time>
      </trkpt>
      <trkpt lat="47.25059" lon="-1.64204">
        <ele>50.3</ele>
        <time>2014-10-12T09:54:13Z</time>
      </trkpt>
      <trkpt lat="47.25059" lon="-1.64199">
        <ele>50.2</ele>
        <time>2014-10-12T09:54:14Z</time>
      </trkpt>
      <trkpt lat="47.25059" lon="-1.64195">
        <ele>50.1</ele>
        <time>2014-10-12T09:54:15Z</time>
      </trkpt>
      <trkpt lat="47.25058" lon="-1.6419">
        <ele>50</ele>
        <time>2014-10-12T09:54:16Z</time>
      </trkpt>
      <trkpt lat="47.25057" lon="-1.64185">
        <ele>49.9</ele>
        <time>2014-10-12T09:54:18Z</time>
      </trkpt>
      <trkpt lat="47.25053" lon="-1.64183">
        <ele>49.7</ele>
        <time>2014-10-12T09:54:20Z</time>
      </trkpt>
      <trkpt lat="47.2505" lon="-1.64181">
        <ele>49.6</ele>
        <time>2014-10-12T09:54:21Z</time>
      </trkpt>
      <trkpt lat="47.25047" lon="-1.64175">
        <ele>49.4</ele>
        <time>2014-10-12T09:54:23Z</time>
      </trkpt>
      <trkpt lat="47.25045" lon="-1.64168">
        <ele>49.1</ele>
        <time>2014-10-12T09:54:25Z</time>
      </trkpt>
      <trkpt lat="47.25043" lon="-1.64164">
        <ele>49</ele>
        <time>2014-10-12T09:54:26Z</time>
      </trkpt>
      <trkpt lat="47.25042" lon="-1.6416">
        <ele>48.8</ele>
        <time>2014-10-12T09:54:27Z</time>
      </trkpt>
      <trkpt lat="47.25041" lon="-1.64155">
        <ele>48.7</ele>
        <time>2014-10-12T09:54:28Z</time>
      </trkpt>
      <trkpt lat="47.2504" lon="-1.64151">
        <ele>48.6</ele>
        <time>2014-10-12T09:54:29Z</time>
      </trkpt>
      <trkpt lat="47.25038" lon="-1.64147">
        <ele>48.5</ele>
        <time>2014-10-12T09:54:30Z</time>
      </trkpt>
      <trkpt lat="47.25036" lon="-1.64144">
        <ele>48.4</ele>
        <time>2014-10-12T09:54:31Z</time>
      </trkpt>
      <trkpt lat="47.25035" lon="-1.64139">
        <ele>48.2</ele>
        <time>2014-10-12T09:54:32Z</time>
      </trkpt>
      <trkpt lat="47.25033" lon="-1.64135">
        <ele>48.1</ele>
        <time>2014-10-12T09:54:33Z</time>
      </trkpt>
      <trkpt lat="47.25032" lon="-1.64131">
        <ele>48</ele>
        <time>2014-10-12T09:54:34Z</time>
      </trkpt>
      <trkpt lat="47.2503" lon="-1.64126">
        <ele>47.9</ele>
        <time>2014-10-12T09:54:35Z</time>
      </trkpt>
      <trkpt lat="47.25028" lon="-1.64122">
        <ele>47.9</ele>
        <time>2014-10-12T09:54:36Z</time>
      </trkpt>
      <trkpt lat="47.25027" lon="-1.64115">
        <ele>48.1</ele>
        <time>2014-10-12T09:54:37Z</time>
      </trkpt>
      <trkpt lat="47.25026" lon="-1.6411">
        <ele>48.3</ele>
        <time>2014-10-12T09:54:38Z</time>
      </trkpt>
      <trkpt lat="47.25025" lon="-1.64105">
        <ele>48.4</ele>
        <time>2014-10-12T09:54:39Z</time>
      </trkpt>
      <trkpt lat="47.25024" lon="-1.64101">
        <ele>48.5</ele>
        <time>2014-10-12T09:54:40Z</time>
      </trkpt>
      <trkpt lat="47.25023" lon="-1.64095">
        <ele>48.7</ele>
        <time>2014-10-12T09:54:41Z</time>
      </trkpt>
      <trkpt lat="47.25022" lon="-1.64089">
        <ele>48.9</ele>
        <time>2014-10-12T09:54:42Z</time>
      </trkpt>
      <trkpt lat="47.2502" lon="-1.64084">
        <ele>49</ele>
        <time>2014-10-12T09:54:43Z</time>
      </trkpt>
      <trkpt lat="47.25019" lon="-1.6408">
        <ele>49.1</ele>
        <time>2014-10-12T09:54:44Z</time>
      </trkpt>
      <trkpt lat="47.25018" lon="-1.64072">
        <ele>49.3</ele>
        <time>2014-10-12T09:54:46Z</time>
      </trkpt>
      <trkpt lat="47.25018" lon="-1.64067">
        <ele>49.4</ele>
        <time>2014-10-12T09:54:47Z</time>
      </trkpt>
      <trkpt lat="47.25018" lon="-1.6406">
        <ele>49.6</ele>
        <time>2014-10-12T09:54:48Z</time>
      </trkpt>
      <trkpt lat="47.25018" lon="-1.64055">
        <ele>49.8</ele>
        <time>2014-10-12T09:54:49Z</time>
      </trkpt>
      <trkpt lat="47.25017" lon="-1.64049">
        <ele>49.9</ele>
        <time>2014-10-12T09:54:50Z</time>
      </trkpt>
      <trkpt lat="47.25016" lon="-1.64044">
        <ele>50</ele>
        <time>2014-10-12T09:54:51Z</time>
      </trkpt>
      <trkpt lat="47.25016" lon="-1.64038">
        <ele>50.2</ele>
        <time>2014-10-12T09:54:52Z</time>
      </trkpt>
      <trkpt lat="47.25015" lon="-1.64033">
        <ele>50.4</ele>
        <time>2014-10-12T09:54:53Z</time>
      </trkpt>
      <trkpt lat="47.25014" lon="-1.64028">
        <ele>50.6</ele>
        <time>2014-10-12T09:54:54Z</time>
      </trkpt>
      <trkpt lat="47.25014" lon="-1.64023">
        <ele>50.8</ele>
        <time>2014-10-12T09:54:55Z</time>
      </trkpt>
      <trkpt lat="47.25014" lon="-1.64017">
        <ele>51</ele>
        <time>2014-10-12T09:54:56Z</time>
      </trkpt>
      <trkpt lat="47.25013" lon="-1.64011">
        <ele>51.2</ele>
        <time>2014-10-12T09:54:57Z</time>
      </trkpt>
      <trkpt lat="47.25012" lon="-1.64006">
        <ele>51.3</ele>
        <time>2014-10-12T09:54:58Z</time>
      </trkpt>
      <trkpt lat="47.25011" lon="-1.64002">
        <ele>51.4</ele>
        <time>2014-10-12T09:54:59Z</time>
      </trkpt>
      <trkpt lat="47.2501" lon="-1.63998">
        <ele>51.6</ele>
        <time>2014-10-12T09:55:00Z</time>
      </trkpt>
      <trkpt lat="47.25009" lon="-1.63993">
        <ele>51.7</ele>
        <time>2014-10-12T09:55:01Z</time>
      </trkpt>
      <trkpt lat="47.25008" lon="-1.63989">
        <ele>51.8</ele>
        <time>2014-10-12T09:55:02Z</time>
      </trkpt>
      <trkpt lat="47.25007" lon="-1.63985">
        <ele>51.9</ele>
        <time>2014-10-12T09:55:03Z</time>
      </trkpt>
      <trkpt lat="47.25006" lon="-1.63981">
        <ele>52</ele>
        <time>2014-10-12T09:55:04Z</time>
      </trkpt>
      <trkpt lat="47.25004" lon="-1.63974">
        <ele>52.2</ele>
        <time>2014-10-12T09:55:06Z</time>
      </trkpt>
      <trkpt lat="47.25004" lon="-1.6397">
        <ele>52.3</ele>
        <time>2014-10-12T09:55:07Z</time>
      </trkpt>
      <trkpt lat="47.25002" lon="-1.63965">
        <ele>52.4</ele>
        <time>2014-10-12T09:55:09Z</time>
      </trkpt>
      <trkpt lat="47.25001" lon="-1.63958">
        <ele>52.5</ele>
        <time>2014-10-12T09:55:11Z</time>
      </trkpt>
      <trkpt lat="47.24998" lon="-1.63953">
        <ele>52.5</ele>
        <time>2014-10-12T09:55:12Z</time>
      </trkpt>
      <trkpt lat="47.24995" lon="-1.63946">
        <ele>52.5</ele>
        <time>2014-10-12T09:55:14Z</time>
      </trkpt>
      <trkpt lat="47.24993" lon="-1.63943">
        <ele>52.4</ele>
        <time>2014-10-12T09:55:15Z</time>
      </trkpt>
      <trkpt lat="47.24992" lon="-1.63939">
        <ele>52.5</ele>
        <time>2014-10-12T09:55:16Z</time>
      </trkpt>
      <trkpt lat="47.2499" lon="-1.63936">
        <ele>52.4</ele>
        <time>2014-10-12T09:55:17Z</time>
      </trkpt>
      <trkpt lat="47.24989" lon="-1.63928">
        <ele>52.6</ele>
        <time>2014-10-12T09:55:19Z</time>
      </trkpt>
      <trkpt lat="47.2499" lon="-1.63921">
        <ele>52.8</ele>
        <time>2014-10-12T09:55:21Z</time>
      </trkpt>
      <trkpt lat="47.24992" lon="-1.63916">
        <ele>53</ele>
        <time>2014-10-12T09:55:23Z</time>
      </trkpt>
      <trkpt lat="47.24995" lon="-1.63911">
        <ele>53.3</ele>
        <time>2014-10-12T09:55:25Z</time>
      </trkpt>
      <trkpt lat="47.24998" lon="-1.63907">
        <ele>53.6</ele>
        <time>2014-10-12T09:55:27Z</time>
      </trkpt>
      <trkpt lat="47.25" lon="-1.63903">
        <ele>53.9</ele>
        <time>2014-10-12T09:55:29Z</time>
      </trkpt>
      <trkpt lat="47.25003" lon="-1.63898">
        <ele>54.1</ele>
        <time>2014-10-12T09:55:31Z</time>
      </trkpt>
      <trkpt lat="47.25005" lon="-1.63895">
        <ele>54.3</ele>
        <time>2014-10-12T09:55:33Z</time>
      </trkpt>
      <trkpt lat="47.25007" lon="-1.63899">
        <ele>54.3</ele>
        <time>2014-10-12T09:55:36Z</time>
      </trkpt>
      <trkpt lat="47.25005" lon="-1.63901">
        <ele>54.2</ele>
        <time>2014-10-12T09:55:38Z</time>
      </trkpt>
      <trkpt lat="47.25002" lon="-1.63902">
        <ele>54</ele>
        <time>2014-10-12T09:55:41Z</time>
      </trkpt>
      <trkpt lat="47.24999" lon="-1.63904">
        <ele>53.7</ele>
        <time>2014-10-12T09:55:45Z</time>
      </trkpt>
      <trkpt lat="47.24995" lon="-1.63908">
        <ele>53.4</ele>
        <time>2014-10-12T09:55:47Z</time>
      </trkpt>
      <trkpt lat="47.24993" lon="-1.63911">
        <ele>53.2</ele>
        <time>2014-10-12T09:55:48Z</time>
      </trkpt>
      <trkpt lat="47.24992" lon="-1.63915">
        <ele>53</ele>
        <time>2014-10-12T09:55:49Z</time>
      </trkpt>
      <trkpt lat="47.24992" lon="-1.63923">
        <ele>52.9</ele>
        <time>2014-10-12T09:55:51Z</time>
      </trkpt>
      <trkpt lat="47.24991" lon="-1.63929">
        <ele>52.7</ele>
        <time>2014-10-12T09:55:53Z</time>
      </trkpt>
      <trkpt lat="47.24987" lon="-1.63933">
        <ele>52.3</ele>
        <time>2014-10-12T09:55:55Z</time>
      </trkpt>
      <trkpt lat="47.24983" lon="-1.63937">
        <ele>52</ele>
        <time>2014-10-12T09:55:57Z</time>
      </trkpt>
      <trkpt lat="47.24979" lon="-1.63941">
        <ele>51.6</ele>
        <time>2014-10-12T09:55:59Z</time>
      </trkpt>
      <trkpt lat="47.24977" lon="-1.63944">
        <ele>51.4</ele>
        <time>2014-10-12T09:56:00Z</time>
      </trkpt>
      <trkpt lat="47.24974" lon="-1.63947">
        <ele>51.2</ele>
        <time>2014-10-12T09:56:01Z</time>
      </trkpt>
      <trkpt lat="47.24972" lon="-1.6395">
        <ele>51</ele>
        <time>2014-10-12T09:56:02Z</time>
      </trkpt>
      <trkpt lat="47.24969" lon="-1.63953">
        <ele>50.8</ele>
        <time>2014-10-12T09:56:03Z</time>
      </trkpt>
      <trkpt lat="47.24965" lon="-1.63957">
        <ele>50.4</ele>
        <time>2014-10-12T09:56:05Z</time>
      </trkpt>
      <trkpt lat="47.24962" lon="-1.63959">
        <ele>50.2</ele>
        <time>2014-10-12T09:56:06Z</time>
      </trkpt>
      <trkpt lat="47.24959" lon="-1.63962">
        <ele>50</ele>
        <time>2014-10-12T09:56:07Z</time>
      </trkpt>
      <trkpt lat="47.24956" lon="-1.63964">
        <ele>49.7</ele>
        <time>2014-10-12T09:56:08Z</time>
      </trkpt>
      <trkpt lat="47.24954" lon="-1.63967">
        <ele>49.4</ele>
        <time>2014-10-12T09:56:09Z</time>
      </trkpt>
      <trkpt lat="47.24951" lon="-1.63971">
        <ele>49.1</ele>
        <time>2014-10-12T09:56:10Z</time>
      </trkpt>
      <trkpt lat="47.24949" lon="-1.63974">
        <ele>48.8</ele>
        <time>2014-10-12T09:56:11Z</time>
      </trkpt>
      <trkpt lat="47.24946" lon="-1.63977">
        <ele>48.5</ele>
        <time>2014-10-12T09:56:12Z</time>
      </trkpt>
      <trkpt lat="47.24943" lon="-1.6398">
        <ele>48.2</ele>
        <time>2014-10-12T09:56:13Z</time>
      </trkpt>
      <trkpt lat="47.24939" lon="-1.63983">
        <ele>47.8</ele>
        <time>2014-10-12T09:56:14Z</time>
      </trkpt>
      <trkpt lat="47.24936" lon="-1.63986">
        <ele>47.5</ele>
        <time>2014-10-12T09:56:15Z</time>
      </trkpt>
      <trkpt lat="47.24932" lon="-1.63989">
        <ele>47.1</ele>
        <time>2014-10-12T09:56:16Z</time>
      </trkpt>
      <trkpt lat="47.2493" lon="-1.63992">
        <ele>46.8</ele>
        <time>2014-10-12T09:56:17Z</time>
      </trkpt>
      <trkpt lat="47.24926" lon="-1.63996">
        <ele>46.4</ele>
        <time>2014-10-12T09:56:18Z</time>
      </trkpt>
      <trkpt lat="47.24923" lon="-1.63999">
        <ele>46</ele>
        <time>2014-10-12T09:56:19Z</time>
      </trkpt>
      <trkpt lat="47.24919" lon="-1.64002">
        <ele>45.7</ele>
        <time>2014-10-12T09:56:20Z</time>
      </trkpt>
      <trkpt lat="47.24917" lon="-1.64004">
        <ele>45.4</ele>
        <time>2014-10-12T09:56:21Z</time>
      </trkpt>
      <trkpt lat="47.24915" lon="-1.64007">
        <ele>45.2</ele>
        <time>2014-10-12T09:56:22Z</time>
      </trkpt>
      <trkpt lat="47.24912" lon="-1.64009">
        <ele>44.9</ele>
        <time>2014-10-12T09:56:23Z</time>
      </trkpt>
      <trkpt lat="47.2491" lon="-1.64011">
        <ele>44.7</ele>
        <time>2014-10-12T09:56:24Z</time>
      </trkpt>
      <trkpt lat="47.24906" lon="-1.64014">
        <ele>44.2</ele>
        <time>2014-10-12T09:56:26Z</time>
      </trkpt>
      <trkpt lat="47.24903" lon="-1.64019">
        <ele>43.9</ele>
        <time>2014-10-12T09:56:28Z</time>
      </trkpt>
      <trkpt lat="47.24903" lon="-1.64025">
        <ele>43.8</ele>
        <time>2014-10-12T09:56:30Z</time>
      </trkpt>
      <trkpt lat="47.24903" lon="-1.64032">
        <ele>43.6</ele>
        <time>2014-10-12T09:56:32Z</time>
      </trkpt>
      <trkpt lat="47.24902" lon="-1.64036">
        <ele>43.4</ele>
        <time>2014-10-12T09:56:33Z</time>
      </trkpt>
      <trkpt lat="47.249" lon="-1.6404">
        <ele>43.2</ele>
        <time>2014-10-12T09:56:34Z</time>
      </trkpt>
      <trkpt lat="47.24899" lon="-1.64045">
        <ele>43</ele>
        <time>2014-10-12T09:56:35Z</time>
      </trkpt>
      <trkpt lat="47.24898" lon="-1.64049">
        <ele>43</ele>
        <time>2014-10-12T09:56:36Z</time>
      </trkpt>
      <trkpt lat="47.24896" lon="-1.64053">
        <ele>42.8</ele>
        <time>2014-10-12T09:56:40Z</time>
      </trkpt>
    </trkseg>
  </trk>
</gpx>